<?xml version='1.0' encoding='UTF-8'?><gpx version="1.1" creator="JPX - https://github.com/jenetics/jpx" xmlns="http://www.topografix.com/GPX/1/1"><trk><trkseg><trkpt lat="39.6911391" lon="9.2525188"><ele>529.0</ele><time>2026-04-24T08:37:29.508Z</time></trkpt><trkpt lat="39.691078" lon="9.2525403"><ele>529.0</ele><time>2026-04-24T08:37:41.508Z</time></trkpt><trkpt lat="39.6912159" lon="9.2529083"><ele>529.0</ele><time>2026-04-24T08:42:54.507Z</time></trkpt><trkpt lat="39.6912433" lon="9.253"><ele>529.0</ele><time>2026-04-24T08:42:56.507Z</time></trkpt><trkpt lat="39.6912733" lon="9.2530733"><ele>529.0</ele><time>2026-04-24T08:43:00.508Z</time></trkpt><trkpt lat="39.69138" lon="9.25309"><ele>529.0</ele><time>2026-04-24T08:43:05.507Z</time></trkpt><trkpt lat="39.6915033" lon="9.2530833"><ele>529.0</ele><time>2026-04-24T08:43:07.508Z</time></trkpt><trkpt lat="39.6915983" lon="9.253075"><ele>529.0</ele><time>2026-04-24T08:43:09.507Z</time></trkpt><trkpt lat="39.6916667" lon="9.2530733"><ele>529.0</ele><time>2026-04-24T08:43:12.507Z</time></trkpt><trkpt lat="39.6918267" lon="9.2530833"><ele>529.0</ele><time>2026-04-24T08:43:21.507Z</time></trkpt><trkpt lat="39.691905" lon="9.2530533"><ele>529.0</ele><time>2026-04-24T08:43:23.507Z</time></trkpt><trkpt lat="39.6919933" lon="9.2530383"><ele>529.0</ele><time>2026-04-24T08:43:25.508Z</time></trkpt><trkpt lat="39.692105" lon="9.2530217"><ele>529.0</ele><time>2026-04-24T08:43:27.508Z</time></trkpt><trkpt lat="39.6922333" lon="9.2530133"><ele>529.3333333333334</ele><time>2026-04-24T08:43:29.507Z</time></trkpt><trkpt lat="39.6922967" lon="9.2530083"><ele>529.6666666666667</ele><time>2026-04-24T08:43:30.508Z</time></trkpt><trkpt lat="39.69237" lon="9.2530083"><ele>530.0</ele><time>2026-04-24T08:43:31.508Z</time></trkpt><trkpt lat="39.692445" lon="9.2530083"><ele>530.3333333333334</ele><time>2026-04-24T08:43:32.508Z</time></trkpt><trkpt lat="39.69251" lon="9.2530133"><ele>530.6666666666666</ele><time>2026-04-24T08:43:33.507Z</time></trkpt><trkpt lat="39.69265" lon="9.25303"><ele>531.0</ele><time>2026-04-24T08:43:35.507Z</time></trkpt><trkpt lat="39.6927583" lon="9.2530617"><ele>531.8333333333334</ele><time>2026-04-24T08:43:37.508Z</time></trkpt><trkpt lat="39.692825" lon="9.2530467"><ele>532.6666666666666</ele><time>2026-04-24T08:43:38.508Z</time></trkpt><trkpt lat="39.6928983" lon="9.2530083"><ele>533.5</ele><time>2026-04-24T08:43:39.508Z</time></trkpt><trkpt lat="39.6929567" lon="9.252975"><ele>534.3333333333333</ele><time>2026-04-24T08:43:40.507Z</time></trkpt><trkpt lat="39.6930617" lon="9.25291"><ele>535.1666666666666</ele><time>2026-04-24T08:43:42.508Z</time></trkpt><trkpt lat="39.6931267" lon="9.2528733"><ele>536.0</ele><time>2026-04-24T08:43:43.507Z</time></trkpt><trkpt lat="39.69319" lon="9.2528317"><ele>536.0</ele><time>2026-04-24T08:43:44.508Z</time></trkpt><trkpt lat="39.6932567" lon="9.25279"><ele>536.0</ele><time>2026-04-24T08:43:45.507Z</time></trkpt><trkpt lat="39.6933233" lon="9.2527533"><ele>536.0</ele><time>2026-04-24T08:43:46.507Z</time></trkpt><trkpt lat="39.693395" lon="9.252715"><ele>536.0</ele><time>2026-04-24T08:43:47.508Z</time></trkpt><trkpt lat="39.6934633" lon="9.252675"><ele>536.0</ele><time>2026-04-24T08:43:48.507Z</time></trkpt><trkpt lat="39.6935333" lon="9.2526333"><ele>536.0</ele><time>2026-04-24T08:43:49.507Z</time></trkpt><trkpt lat="39.6935917" lon="9.2526017"><ele>536.0</ele><time>2026-04-24T08:43:50.507Z</time></trkpt><trkpt lat="39.6936533" lon="9.2525717"><ele>537.0</ele><time>2026-04-24T08:43:51.508Z</time></trkpt><trkpt lat="39.6937133" lon="9.252545"><ele>538.0</ele><time>2026-04-24T08:43:52.507Z</time></trkpt><trkpt lat="39.6938083" lon="9.2524983"><ele>539.0</ele><time>2026-04-24T08:43:54.508Z</time></trkpt><trkpt lat="39.6939717" lon="9.2523783"><ele>540.0</ele><time>2026-04-24T08:43:58.508Z</time></trkpt><trkpt lat="39.6940183" lon="9.2522617"><ele>540.0</ele><time>2026-04-24T08:44:00.507Z</time></trkpt><trkpt lat="39.6940867" lon="9.2521133"><ele>540.0</ele><time>2026-04-24T08:44:03.508Z</time></trkpt><trkpt lat="39.694195" lon="9.2520267"><ele>540.0</ele><time>2026-04-24T08:44:05.507Z</time></trkpt><trkpt lat="39.6942767" lon="9.2519433"><ele>540.0</ele><time>2026-04-24T08:44:07.508Z</time></trkpt><trkpt lat="39.6943533" lon="9.25183"><ele>540.0</ele><time>2026-04-24T08:44:09.507Z</time></trkpt><trkpt lat="39.6943733" lon="9.25168"><ele>540.0</ele><time>2026-04-24T08:44:11.508Z</time></trkpt><trkpt lat="39.6943817" lon="9.25159"><ele>540.0</ele><time>2026-04-24T08:44:12.508Z</time></trkpt><trkpt lat="39.69439" lon="9.2515"><ele>540.0</ele><time>2026-04-24T08:44:13.508Z</time></trkpt><trkpt lat="39.6944" lon="9.2514117"><ele>540.0</ele><time>2026-04-24T08:44:14.507Z</time></trkpt><trkpt lat="39.69443" lon="9.25125"><ele>541.0</ele><time>2026-04-24T08:44:16.507Z</time></trkpt><trkpt lat="39.6944783" lon="9.2510767"><ele>542.0</ele><time>2026-04-24T08:44:18.507Z</time></trkpt><trkpt lat="39.6944967" lon="9.250995"><ele>543.0</ele><time>2026-04-24T08:44:19.507Z</time></trkpt><trkpt lat="39.6945267" lon="9.250915"><ele>544.0</ele><time>2026-04-24T08:44:20.507Z</time></trkpt><trkpt lat="39.69457" lon="9.2508117"><ele>545.0</ele><time>2026-04-24T08:44:21.507Z</time></trkpt><trkpt lat="39.6946233" lon="9.2507367"><ele>546.0</ele><time>2026-04-24T08:44:22.508Z</time></trkpt><trkpt lat="39.694665" lon="9.2506567"><ele>546.0</ele><time>2026-04-24T08:44:23.507Z</time></trkpt><trkpt lat="39.6947" lon="9.2505733"><ele>546.0</ele><time>2026-04-24T08:44:24.508Z</time></trkpt><trkpt lat="39.694735" lon="9.2504783"><ele>546.0</ele><time>2026-04-24T08:44:25.507Z</time></trkpt><trkpt lat="39.6947683" lon="9.2503767"><ele>546.0</ele><time>2026-04-24T08:44:26.507Z</time></trkpt><trkpt lat="39.694795" lon="9.2502817"><ele>546.0</ele><time>2026-04-24T08:44:27.507Z</time></trkpt><trkpt lat="39.6948167" lon="9.2501917"><ele>546.0</ele><time>2026-04-24T08:44:28.507Z</time></trkpt><trkpt lat="39.6948467" lon="9.2501067"><ele>546.0</ele><time>2026-04-24T08:44:29.507Z</time></trkpt><trkpt lat="39.6948883" lon="9.2499583"><ele>546.0</ele><time>2026-04-24T08:44:31.508Z</time></trkpt><trkpt lat="39.6949117" lon="9.2498717"><ele>546.0</ele><time>2026-04-24T08:44:32.507Z</time></trkpt><trkpt lat="39.6949067" lon="9.24977"><ele>546.0</ele><time>2026-04-24T08:44:33.508Z</time></trkpt><trkpt lat="39.6949083" lon="9.24967"><ele>546.0</ele><time>2026-04-24T08:44:34.507Z</time></trkpt><trkpt lat="39.69491" lon="9.2495817"><ele>546.0</ele><time>2026-04-24T08:44:35.508Z</time></trkpt><trkpt lat="39.6949067" lon="9.2494967"><ele>545.6666666666666</ele><time>2026-04-24T08:44:36.507Z</time></trkpt><trkpt lat="39.69491" lon="9.24941"><ele>545.3333333333334</ele><time>2026-04-24T08:44:37.508Z</time></trkpt><trkpt lat="39.6949383" lon="9.249235"><ele>545.0</ele><time>2026-04-24T08:44:39.508Z</time></trkpt><trkpt lat="39.6949567" lon="9.2491483"><ele>544.6666666666667</ele><time>2026-04-24T08:44:40.508Z</time></trkpt><trkpt lat="39.6949967" lon="9.2490617"><ele>544.3333333333334</ele><time>2026-04-24T08:44:41.508Z</time></trkpt><trkpt lat="39.6950517" lon="9.2489733"><ele>544.0</ele><time>2026-04-24T08:44:42.507Z</time></trkpt><trkpt lat="39.69511" lon="9.248885"><ele>543.5</ele><time>2026-04-24T08:44:43.508Z</time></trkpt><trkpt lat="39.6951633" lon="9.24879"><ele>543.0</ele><time>2026-04-24T08:44:44.508Z</time></trkpt><trkpt lat="39.695225" lon="9.2487"><ele>542.5</ele><time>2026-04-24T08:44:45.508Z</time></trkpt><trkpt lat="39.695285" lon="9.2486133"><ele>542.0</ele><time>2026-04-24T08:44:46.507Z</time></trkpt><trkpt lat="39.6953483" lon="9.248535"><ele>541.5</ele><time>2026-04-24T08:44:47.508Z</time></trkpt><trkpt lat="39.6954133" lon="9.2484583"><ele>541.0</ele><time>2026-04-24T08:44:48.507Z</time></trkpt><trkpt lat="39.695475" lon="9.2483683"><ele>541.6</ele><time>2026-04-24T08:44:49.507Z</time></trkpt><trkpt lat="39.6955367" lon="9.2482717"><ele>542.2</ele><time>2026-04-24T08:44:50.507Z</time></trkpt><trkpt lat="39.6956017" lon="9.2481783"><ele>542.8</ele><time>2026-04-24T08:44:51.507Z</time></trkpt><trkpt lat="39.6956717" lon="9.2480867"><ele>543.4</ele><time>2026-04-24T08:44:52.508Z</time></trkpt><trkpt lat="39.695735" lon="9.247995"><ele>544.0</ele><time>2026-04-24T08:44:53.508Z</time></trkpt><trkpt lat="39.6957917" lon="9.2479067"><ele>544.0</ele><time>2026-04-24T08:44:54.508Z</time></trkpt><trkpt lat="39.6958533" lon="9.247825"><ele>544.0</ele><time>2026-04-24T08:44:55.507Z</time></trkpt><trkpt lat="39.69592" lon="9.247735"><ele>544.0</ele><time>2026-04-24T08:44:56.507Z</time></trkpt><trkpt lat="39.6959917" lon="9.247635"><ele>544.0</ele><time>2026-04-24T08:44:57.507Z</time></trkpt><trkpt lat="39.6960683" lon="9.2475283"><ele>544.0</ele><time>2026-04-24T08:44:58.507Z</time></trkpt><trkpt lat="39.6962133" lon="9.247335"><ele>545.25</ele><time>2026-04-24T08:45:00.508Z</time></trkpt><trkpt lat="39.6962867" lon="9.24723"><ele>546.5</ele><time>2026-04-24T08:45:01.508Z</time></trkpt><trkpt lat="39.696365" lon="9.2471283"><ele>547.75</ele><time>2026-04-24T08:45:02.508Z</time></trkpt><trkpt lat="39.6964467" lon="9.2470117"><ele>549.0</ele><time>2026-04-24T08:45:03.507Z</time></trkpt><trkpt lat="39.6965317" lon="9.2469"><ele>549.0</ele><time>2026-04-24T08:45:04.508Z</time></trkpt><trkpt lat="39.6966183" lon="9.2467933"><ele>549.0</ele><time>2026-04-24T08:45:05.508Z</time></trkpt><trkpt lat="39.6966983" lon="9.2466967"><ele>549.0</ele><time>2026-04-24T08:45:06.508Z</time></trkpt><trkpt lat="39.6967867" lon="9.2465917"><ele>549.0</ele><time>2026-04-24T08:45:07.508Z</time></trkpt><trkpt lat="39.69687" lon="9.246485"><ele>548.5</ele><time>2026-04-24T08:45:08.507Z</time></trkpt><trkpt lat="39.6969617" lon="9.24638"><ele>548.0</ele><time>2026-04-24T08:45:09.507Z</time></trkpt><trkpt lat="39.697055" lon="9.2462817"><ele>547.5</ele><time>2026-04-24T08:45:10.507Z</time></trkpt><trkpt lat="39.69715" lon="9.2462"><ele>547.0</ele><time>2026-04-24T08:45:11.507Z</time></trkpt><trkpt lat="39.6972583" lon="9.246135"><ele>547.0</ele><time>2026-04-24T08:45:12.507Z</time></trkpt><trkpt lat="39.697375" lon="9.2460717"><ele>547.0</ele><time>2026-04-24T08:45:13.507Z</time></trkpt><trkpt lat="39.697485" lon="9.2460217"><ele>547.0</ele><time>2026-04-24T08:45:14.507Z</time></trkpt><trkpt lat="39.6975967" lon="9.2459767"><ele>547.0</ele><time>2026-04-24T08:45:15.507Z</time></trkpt><trkpt lat="39.6977167" lon="9.2459283"><ele>548.0</ele><time>2026-04-24T08:45:16.508Z</time></trkpt><trkpt lat="39.69784" lon="9.2458833"><ele>549.0</ele><time>2026-04-24T08:45:17.508Z</time></trkpt><trkpt lat="39.69797" lon="9.245845"><ele>550.0</ele><time>2026-04-24T08:45:18.507Z</time></trkpt><trkpt lat="39.6980983" lon="9.2457983"><ele>551.0</ele><time>2026-04-24T08:45:19.508Z</time></trkpt><trkpt lat="39.69835" lon="9.2456983"><ele>551.0</ele><time>2026-04-24T08:45:21.508Z</time></trkpt><trkpt lat="39.6984717" lon="9.24563"><ele>551.0</ele><time>2026-04-24T08:45:22.507Z</time></trkpt><trkpt lat="39.6985833" lon="9.2455483"><ele>551.0</ele><time>2026-04-24T08:45:23.507Z</time></trkpt><trkpt lat="39.6986783" lon="9.2454467"><ele>551.0</ele><time>2026-04-24T08:45:24.508Z</time></trkpt><trkpt lat="39.6987867" lon="9.24532"><ele>551.5</ele><time>2026-04-24T08:45:25.507Z</time></trkpt><trkpt lat="39.69888" lon="9.24518"><ele>552.0</ele><time>2026-04-24T08:45:26.508Z</time></trkpt><trkpt lat="39.6989733" lon="9.2450533"><ele>552.5</ele><time>2026-04-24T08:45:27.508Z</time></trkpt><trkpt lat="39.6990683" lon="9.24492"><ele>553.0</ele><time>2026-04-24T08:45:28.507Z</time></trkpt><trkpt lat="39.6991617" lon="9.2447917"><ele>552.5</ele><time>2026-04-24T08:45:29.508Z</time></trkpt><trkpt lat="39.69926" lon="9.24466"><ele>552.0</ele><time>2026-04-24T08:45:30.507Z</time></trkpt><trkpt lat="39.6993617" lon="9.2445217"><ele>551.5</ele><time>2026-04-24T08:45:31.507Z</time></trkpt><trkpt lat="39.6994667" lon="9.2443783"><ele>551.0</ele><time>2026-04-24T08:45:32.507Z</time></trkpt><trkpt lat="39.6995783" lon="9.2442333"><ele>551.0</ele><time>2026-04-24T08:45:33.507Z</time></trkpt><trkpt lat="39.6996917" lon="9.2440767"><ele>551.0</ele><time>2026-04-24T08:45:34.507Z</time></trkpt><trkpt lat="39.6998067" lon="9.2439267"><ele>551.0</ele><time>2026-04-24T08:45:35.508Z</time></trkpt><trkpt lat="39.6999167" lon="9.2437867"><ele>550.5</ele><time>2026-04-24T08:45:36.508Z</time></trkpt><trkpt lat="39.700025" lon="9.243655"><ele>550.0</ele><time>2026-04-24T08:45:37.508Z</time></trkpt><trkpt lat="39.70012" lon="9.24352"><ele>549.5</ele><time>2026-04-24T08:45:38.508Z</time></trkpt><trkpt lat="39.7002067" lon="9.2434"><ele>549.0</ele><time>2026-04-24T08:45:39.508Z</time></trkpt><trkpt lat="39.700395" lon="9.24324"><ele>550.2</ele><time>2026-04-24T08:45:41.508Z</time></trkpt><trkpt lat="39.7004933" lon="9.243215"><ele>551.4</ele><time>2026-04-24T08:45:42.507Z</time></trkpt><trkpt lat="39.700595" lon="9.2432233"><ele>552.6</ele><time>2026-04-24T08:45:43.508Z</time></trkpt><trkpt lat="39.7006933" lon="9.2432583"><ele>553.8</ele><time>2026-04-24T08:45:44.507Z</time></trkpt><trkpt lat="39.70079" lon="9.2433133"><ele>555.0</ele><time>2026-04-24T08:45:45.507Z</time></trkpt><trkpt lat="39.7008783" lon="9.2433767"><ele>555.0</ele><time>2026-04-24T08:45:46.507Z</time></trkpt><trkpt lat="39.700945" lon="9.2434467"><ele>555.0</ele><time>2026-04-24T08:45:47.508Z</time></trkpt><trkpt lat="39.70101" lon="9.24352"><ele>555.0</ele><time>2026-04-24T08:45:48.508Z</time></trkpt><trkpt lat="39.701085" lon="9.2435783"><ele>555.0</ele><time>2026-04-24T08:45:49.507Z</time></trkpt><trkpt lat="39.7011733" lon="9.243605"><ele>555.0</ele><time>2026-04-24T08:45:50.507Z</time></trkpt><trkpt lat="39.7012767" lon="9.2436167"><ele>556.25</ele><time>2026-04-24T08:45:51.507Z</time></trkpt><trkpt lat="39.701385" lon="9.2436367"><ele>557.5</ele><time>2026-04-24T08:45:52.508Z</time></trkpt><trkpt lat="39.7014983" lon="9.2436667"><ele>558.75</ele><time>2026-04-24T08:45:53.507Z</time></trkpt><trkpt lat="39.701605" lon="9.2437017"><ele>560.0</ele><time>2026-04-24T08:45:54.508Z</time></trkpt><trkpt lat="39.70173" lon="9.2437033"><ele>560.0</ele><time>2026-04-24T08:45:55.508Z</time></trkpt><trkpt lat="39.701855" lon="9.24368"><ele>560.0</ele><time>2026-04-24T08:45:56.508Z</time></trkpt><trkpt lat="39.7019683" lon="9.243615"><ele>560.0</ele><time>2026-04-24T08:45:57.508Z</time></trkpt><trkpt lat="39.7020733" lon="9.243525"><ele>560.0</ele><time>2026-04-24T08:45:58.508Z</time></trkpt><trkpt lat="39.7021533" lon="9.2434067"><ele>564.0</ele><time>2026-04-24T08:45:59.508Z</time></trkpt><trkpt lat="39.7022217" lon="9.2432617"><ele>568.0</ele><time>2026-04-24T08:46:00.508Z</time></trkpt><trkpt lat="39.70235" lon="9.2429267"><ele>572.0</ele><time>2026-04-24T08:46:02.508Z</time></trkpt><trkpt lat="39.7024183" lon="9.242745"><ele>572.0</ele><time>2026-04-24T08:46:03.507Z</time></trkpt><trkpt lat="39.70248" lon="9.24257"><ele>572.0</ele><time>2026-04-24T08:46:04.508Z</time></trkpt><trkpt lat="39.7025383" lon="9.2424"><ele>572.0</ele><time>2026-04-24T08:46:05.507Z</time></trkpt><trkpt lat="39.7025967" lon="9.2422383"><ele>572.0</ele><time>2026-04-24T08:46:06.507Z</time></trkpt><trkpt lat="39.7026583" lon="9.2420917"><ele>570.25</ele><time>2026-04-24T08:46:07.508Z</time></trkpt><trkpt lat="39.7027133" lon="9.24195"><ele>568.5</ele><time>2026-04-24T08:46:08.508Z</time></trkpt><trkpt lat="39.7027683" lon="9.2418183"><ele>566.75</ele><time>2026-04-24T08:46:09.508Z</time></trkpt><trkpt lat="39.7028233" lon="9.2416867"><ele>565.0</ele><time>2026-04-24T08:46:10.507Z</time></trkpt><trkpt lat="39.7028767" lon="9.24156"><ele>571.5</ele><time>2026-04-24T08:46:11.507Z</time></trkpt><trkpt lat="39.7029283" lon="9.2414283"><ele>578.0</ele><time>2026-04-24T08:46:12.507Z</time></trkpt><trkpt lat="39.7029783" lon="9.2412933"><ele>584.5</ele><time>2026-04-24T08:46:13.507Z</time></trkpt><trkpt lat="39.7030317" lon="9.2411533"><ele>591.0</ele><time>2026-04-24T08:46:14.508Z</time></trkpt><trkpt lat="39.7030867" lon="9.24101"><ele>591.0</ele><time>2026-04-24T08:46:15.507Z</time></trkpt><trkpt lat="39.7031433" lon="9.2408617"><ele>591.0</ele><time>2026-04-24T08:46:16.508Z</time></trkpt><trkpt lat="39.7031983" lon="9.2407183"><ele>591.0</ele><time>2026-04-24T08:46:17.507Z</time></trkpt><trkpt lat="39.7032517" lon="9.2405833"><ele>591.0</ele><time>2026-04-24T08:46:18.508Z</time></trkpt><trkpt lat="39.7033033" lon="9.2404483"><ele>588.6666666666666</ele><time>2026-04-24T08:46:19.507Z</time></trkpt><trkpt lat="39.7033617" lon="9.2403167"><ele>586.3333333333333</ele><time>2026-04-24T08:46:20.507Z</time></trkpt><trkpt lat="39.7034167" lon="9.2401717"><ele>584.0</ele><time>2026-04-24T08:46:21.507Z</time></trkpt><trkpt lat="39.7035283" lon="9.23987"><ele>588.5</ele><time>2026-04-24T08:46:23.507Z</time></trkpt><trkpt lat="39.7035933" lon="9.23971"><ele>593.0</ele><time>2026-04-24T08:46:24.507Z</time></trkpt><trkpt lat="39.7036517" lon="9.23954"><ele>597.5</ele><time>2026-04-24T08:46:25.508Z</time></trkpt><trkpt lat="39.7037133" lon="9.2393583"><ele>602.0</ele><time>2026-04-24T08:46:26.508Z</time></trkpt><trkpt lat="39.7037717" lon="9.23916"><ele>600.3333333333333</ele><time>2026-04-24T08:46:27.508Z</time></trkpt><trkpt lat="39.7038217" lon="9.23896"><ele>598.6666666666666</ele><time>2026-04-24T08:46:28.507Z</time></trkpt><trkpt lat="39.7038683" lon="9.2387567"><ele>597.0</ele><time>2026-04-24T08:46:29.507Z</time></trkpt><trkpt lat="39.7039067" lon="9.2385517"><ele>597.0</ele><time>2026-04-24T08:46:30.507Z</time></trkpt><trkpt lat="39.70393" lon="9.238345"><ele>597.0</ele><time>2026-04-24T08:46:31.508Z</time></trkpt><trkpt lat="39.7039583" lon="9.2381533"><ele>597.0</ele><time>2026-04-24T08:46:32.507Z</time></trkpt><trkpt lat="39.70398" lon="9.2379617"><ele>595.5</ele><time>2026-04-24T08:46:33.507Z</time></trkpt><trkpt lat="39.7040017" lon="9.2377633"><ele>594.0</ele><time>2026-04-24T08:46:34.508Z</time></trkpt><trkpt lat="39.7040117" lon="9.2375833"><ele>592.5</ele><time>2026-04-24T08:46:35.508Z</time></trkpt><trkpt lat="39.7040283" lon="9.23739"><ele>591.0</ele><time>2026-04-24T08:46:36.507Z</time></trkpt><trkpt lat="39.7040533" lon="9.237195"><ele>588.3333333333334</ele><time>2026-04-24T08:46:37.508Z</time></trkpt><trkpt lat="39.7040867" lon="9.2370067"><ele>585.6666666666667</ele><time>2026-04-24T08:46:38.507Z</time></trkpt><trkpt lat="39.70413" lon="9.2368117"><ele>583.0</ele><time>2026-04-24T08:46:39.507Z</time></trkpt><trkpt lat="39.7041883" lon="9.23663"><ele>578.0</ele><time>2026-04-24T08:46:40.508Z</time></trkpt><trkpt lat="39.7042567" lon="9.2364433"><ele>573.0</ele><time>2026-04-24T08:46:41.508Z</time></trkpt><trkpt lat="39.7044267" lon="9.2360967"><ele>575.75</ele><time>2026-04-24T08:46:43.508Z</time></trkpt><trkpt lat="39.7045183" lon="9.2359383"><ele>578.5</ele><time>2026-04-24T08:46:44.507Z</time></trkpt><trkpt lat="39.7046167" lon="9.2358033"><ele>581.25</ele><time>2026-04-24T08:46:45.508Z</time></trkpt><trkpt lat="39.70472" lon="9.23567"><ele>584.0</ele><time>2026-04-24T08:46:46.507Z</time></trkpt><trkpt lat="39.704835" lon="9.2355467"><ele>584.0</ele><time>2026-04-24T08:46:47.507Z</time></trkpt><trkpt lat="39.70496" lon="9.2354333"><ele>584.0</ele><time>2026-04-24T08:46:48.507Z</time></trkpt><trkpt lat="39.705095" lon="9.2353233"><ele>584.0</ele><time>2026-04-24T08:46:49.508Z</time></trkpt><trkpt lat="39.7052283" lon="9.2352267"><ele>590.0</ele><time>2026-04-24T08:46:50.507Z</time></trkpt><trkpt lat="39.7053617" lon="9.2351433"><ele>596.0</ele><time>2026-04-24T08:46:51.508Z</time></trkpt><trkpt lat="39.7055017" lon="9.2350667"><ele>602.0</ele><time>2026-04-24T08:46:52.508Z</time></trkpt><trkpt lat="39.70565" lon="9.235005"><ele>602.0</ele><time>2026-04-24T08:46:53.507Z</time></trkpt><trkpt lat="39.7057967" lon="9.2349717"><ele>602.0</ele><time>2026-04-24T08:46:54.507Z</time></trkpt><trkpt lat="39.70595" lon="9.23494"><ele>602.0</ele><time>2026-04-24T08:46:55.508Z</time></trkpt><trkpt lat="39.7061083" lon="9.23491"><ele>605.6666666666666</ele><time>2026-04-24T08:46:56.507Z</time></trkpt><trkpt lat="39.7062633" lon="9.2348767"><ele>609.3333333333334</ele><time>2026-04-24T08:46:57.508Z</time></trkpt><trkpt lat="39.7064217" lon="9.2348383"><ele>613.0</ele><time>2026-04-24T08:46:58.507Z</time></trkpt><trkpt lat="39.7065783" lon="9.2348067"><ele>610.25</ele><time>2026-04-24T08:46:59.507Z</time></trkpt><trkpt lat="39.7067183" lon="9.2347767"><ele>607.5</ele><time>2026-04-24T08:47:00.507Z</time></trkpt><trkpt lat="39.7068567" lon="9.2347417"><ele>604.75</ele><time>2026-04-24T08:47:01.508Z</time></trkpt><trkpt lat="39.7069817" lon="9.2347167"><ele>602.0</ele><time>2026-04-24T08:47:02.507Z</time></trkpt><trkpt lat="39.7071917" lon="9.2346783"><ele>602.0</ele><time>2026-04-24T08:47:04.508Z</time></trkpt><trkpt lat="39.7072767" lon="9.23465"><ele>602.0</ele><time>2026-04-24T08:47:05.508Z</time></trkpt><trkpt lat="39.707355" lon="9.234625"><ele>602.0</ele><time>2026-04-24T08:47:06.508Z</time></trkpt><trkpt lat="39.7074317" lon="9.2345917"><ele>602.0</ele><time>2026-04-24T08:47:07.507Z</time></trkpt><trkpt lat="39.7075033" lon="9.2345683"><ele>602.0</ele><time>2026-04-24T08:47:08.508Z</time></trkpt><trkpt lat="39.707575" lon="9.2345517"><ele>602.0</ele><time>2026-04-24T08:47:09.507Z</time></trkpt><trkpt lat="39.7076483" lon="9.23453"><ele>602.0</ele><time>2026-04-24T08:47:10.507Z</time></trkpt><trkpt lat="39.7077233" lon="9.234515"><ele>602.0</ele><time>2026-04-24T08:47:11.508Z</time></trkpt><trkpt lat="39.7078117" lon="9.234515"><ele>602.0</ele><time>2026-04-24T08:47:12.507Z</time></trkpt><trkpt lat="39.7078967" lon="9.2345167"><ele>602.0</ele><time>2026-04-24T08:47:13.508Z</time></trkpt><trkpt lat="39.70798" lon="9.2345167"><ele>602.0</ele><time>2026-04-24T08:47:14.508Z</time></trkpt><trkpt lat="39.7080767" lon="9.23452"><ele>602.0</ele><time>2026-04-24T08:47:15.508Z</time></trkpt><trkpt lat="39.708175" lon="9.2345133"><ele>604.75</ele><time>2026-04-24T08:47:16.507Z</time></trkpt><trkpt lat="39.70828" lon="9.2345117"><ele>607.5</ele><time>2026-04-24T08:47:17.508Z</time></trkpt><trkpt lat="39.7083883" lon="9.2345117"><ele>610.25</ele><time>2026-04-24T08:47:18.508Z</time></trkpt><trkpt lat="39.7085083" lon="9.2345083"><ele>613.0</ele><time>2026-04-24T08:47:19.507Z</time></trkpt><trkpt lat="39.7086317" lon="9.2344933"><ele>614.25</ele><time>2026-04-24T08:47:20.507Z</time></trkpt><trkpt lat="39.7087517" lon="9.2344733"><ele>615.5</ele><time>2026-04-24T08:47:21.508Z</time></trkpt><trkpt lat="39.7088883" lon="9.234455"><ele>616.75</ele><time>2026-04-24T08:47:22.508Z</time></trkpt><trkpt lat="39.709035" lon="9.2344317"><ele>618.0</ele><time>2026-04-24T08:47:23.508Z</time></trkpt><trkpt lat="39.709365" lon="9.2343967"><ele>617.3333333333334</ele><time>2026-04-24T08:47:25.507Z</time></trkpt><trkpt lat="39.7095383" lon="9.2343883"><ele>616.6666666666667</ele><time>2026-04-24T08:47:26.508Z</time></trkpt><trkpt lat="39.7096983" lon="9.2343767"><ele>616.0</ele><time>2026-04-24T08:47:27.508Z</time></trkpt><trkpt lat="39.70985" lon="9.234355"><ele>616.0</ele><time>2026-04-24T08:47:28.507Z</time></trkpt><trkpt lat="39.7100033" lon="9.234325"><ele>616.0</ele><time>2026-04-24T08:47:29.507Z</time></trkpt><trkpt lat="39.7101567" lon="9.234295"><ele>616.0</ele><time>2026-04-24T08:47:30.507Z</time></trkpt><trkpt lat="39.7103083" lon="9.2342633"><ele>615.0</ele><time>2026-04-24T08:47:31.508Z</time></trkpt><trkpt lat="39.710455" lon="9.2342317"><ele>614.0</ele><time>2026-04-24T08:47:32.508Z</time></trkpt><trkpt lat="39.7105983" lon="9.2341967"><ele>613.0</ele><time>2026-04-24T08:47:33.507Z</time></trkpt><trkpt lat="39.7107467" lon="9.234165"><ele>612.0</ele><time>2026-04-24T08:47:34.508Z</time></trkpt><trkpt lat="39.7108917" lon="9.2341517"><ele>612.0</ele><time>2026-04-24T08:47:35.507Z</time></trkpt><trkpt lat="39.7110217" lon="9.2341083"><ele>612.0</ele><time>2026-04-24T08:47:36.508Z</time></trkpt><trkpt lat="39.7111583" lon="9.2340667"><ele>612.0</ele><time>2026-04-24T08:47:37.508Z</time></trkpt><trkpt lat="39.7112967" lon="9.23403"><ele>612.0</ele><time>2026-04-24T08:47:38.507Z</time></trkpt><trkpt lat="39.7114433" lon="9.23401"><ele>611.6666666666666</ele><time>2026-04-24T08:47:39.507Z</time></trkpt><trkpt lat="39.7116" lon="9.2339833"><ele>611.3333333333333</ele><time>2026-04-24T08:47:40.507Z</time></trkpt><trkpt lat="39.71176" lon="9.2339383"><ele>611.0</ele><time>2026-04-24T08:47:41.507Z</time></trkpt><trkpt lat="39.7119183" lon="9.2339067"><ele>609.0</ele><time>2026-04-24T08:47:42.508Z</time></trkpt><trkpt lat="39.7120717" lon="9.233865"><ele>607.0</ele><time>2026-04-24T08:47:43.507Z</time></trkpt><trkpt lat="39.7122267" lon="9.2338383"><ele>605.0</ele><time>2026-04-24T08:47:44.507Z</time></trkpt><trkpt lat="39.7125483" lon="9.2337733"><ele>605.0</ele><time>2026-04-24T08:47:46.508Z</time></trkpt><trkpt lat="39.71272" lon="9.2337367"><ele>605.0</ele><time>2026-04-24T08:47:47.508Z</time></trkpt><trkpt lat="39.7128933" lon="9.2336917"><ele>605.0</ele><time>2026-04-24T08:47:48.507Z</time></trkpt><trkpt lat="39.7130717" lon="9.2336583"><ele>604.3333333333333</ele><time>2026-04-24T08:47:49.508Z</time></trkpt><trkpt lat="39.7132417" lon="9.233625"><ele>603.6666666666666</ele><time>2026-04-24T08:47:50.507Z</time></trkpt><trkpt lat="39.71341" lon="9.2335833"><ele>603.0</ele><time>2026-04-24T08:47:51.507Z</time></trkpt><trkpt lat="39.7135783" lon="9.2335517"><ele>602.0</ele><time>2026-04-24T08:47:52.507Z</time></trkpt><trkpt lat="39.713735" lon="9.2335133"><ele>601.0</ele><time>2026-04-24T08:47:53.508Z</time></trkpt><trkpt lat="39.7138883" lon="9.2334733"><ele>600.0</ele><time>2026-04-24T08:47:54.507Z</time></trkpt><trkpt lat="39.7140367" lon="9.23344"><ele>600.0</ele><time>2026-04-24T08:47:55.508Z</time></trkpt><trkpt lat="39.7141717" lon="9.2334267"><ele>600.0</ele><time>2026-04-24T08:47:56.507Z</time></trkpt><trkpt lat="39.7143" lon="9.2334233"><ele>600.0</ele><time>2026-04-24T08:47:57.507Z</time></trkpt><trkpt lat="39.7144183" lon="9.2334417"><ele>600.0</ele><time>2026-04-24T08:47:58.508Z</time></trkpt><trkpt lat="39.7145417" lon="9.2334867"><ele>599.6666666666666</ele><time>2026-04-24T08:47:59.508Z</time></trkpt><trkpt lat="39.71468" lon="9.2335467"><ele>599.3333333333333</ele><time>2026-04-24T08:48:00.508Z</time></trkpt><trkpt lat="39.71482" lon="9.233615"><ele>599.0</ele><time>2026-04-24T08:48:01.507Z</time></trkpt><trkpt lat="39.71497" lon="9.2336783"><ele>599.0</ele><time>2026-04-24T08:48:02.508Z</time></trkpt><trkpt lat="39.7151383" lon="9.2337483"><ele>599.0</ele><time>2026-04-24T08:48:03.507Z</time></trkpt><trkpt lat="39.7152967" lon="9.2338167"><ele>599.0</ele><time>2026-04-24T08:48:04.507Z</time></trkpt><trkpt lat="39.7154383" lon="9.2338633"><ele>598.3333333333333</ele><time>2026-04-24T08:48:05.508Z</time></trkpt><trkpt lat="39.7156967" lon="9.2338783"><ele>597.6666666666666</ele><time>2026-04-24T08:48:07.507Z</time></trkpt><trkpt lat="39.7158283" lon="9.2338367"><ele>597.0</ele><time>2026-04-24T08:48:08.508Z</time></trkpt><trkpt lat="39.7159717" lon="9.23378"><ele>595.25</ele><time>2026-04-24T08:48:09.507Z</time></trkpt><trkpt lat="39.7161217" lon="9.23374"><ele>593.5</ele><time>2026-04-24T08:48:10.508Z</time></trkpt><trkpt lat="39.716265" lon="9.2337217"><ele>591.75</ele><time>2026-04-24T08:48:11.508Z</time></trkpt><trkpt lat="39.7164067" lon="9.2337"><ele>590.0</ele><time>2026-04-24T08:48:12.507Z</time></trkpt><trkpt lat="39.716545" lon="9.233675"><ele>590.0</ele><time>2026-04-24T08:48:13.508Z</time></trkpt><trkpt lat="39.7166767" lon="9.23363"><ele>590.0</ele><time>2026-04-24T08:48:14.507Z</time></trkpt><trkpt lat="39.716805" lon="9.2335667"><ele>590.0</ele><time>2026-04-24T08:48:15.508Z</time></trkpt><trkpt lat="39.7169267" lon="9.2334983"><ele>590.0</ele><time>2026-04-24T08:48:16.507Z</time></trkpt><trkpt lat="39.7170417" lon="9.2334283"><ele>587.5</ele><time>2026-04-24T08:48:17.508Z</time></trkpt><trkpt lat="39.7171683" lon="9.233355"><ele>585.0</ele><time>2026-04-24T08:48:18.507Z</time></trkpt><trkpt lat="39.7173033" lon="9.2332833"><ele>582.5</ele><time>2026-04-24T08:48:19.507Z</time></trkpt><trkpt lat="39.7174483" lon="9.2332"><ele>580.0</ele><time>2026-04-24T08:48:20.508Z</time></trkpt><trkpt lat="39.7175967" lon="9.2331133"><ele>576.0</ele><time>2026-04-24T08:48:21.508Z</time></trkpt><trkpt lat="39.7177433" lon="9.23302"><ele>572.0</ele><time>2026-04-24T08:48:22.508Z</time></trkpt><trkpt lat="39.7178783" lon="9.23291"><ele>568.0</ele><time>2026-04-24T08:48:23.507Z</time></trkpt><trkpt lat="39.718015" lon="9.2327867"><ele>568.0</ele><time>2026-04-24T08:48:24.508Z</time></trkpt><trkpt lat="39.7181467" lon="9.2326517"><ele>568.0</ele><time>2026-04-24T08:48:25.508Z</time></trkpt><trkpt lat="39.7182733" lon="9.2325133"><ele>568.0</ele><time>2026-04-24T08:48:26.507Z</time></trkpt><trkpt lat="39.71852" lon="9.23221"><ele>565.6666666666667</ele><time>2026-04-24T08:48:28.508Z</time></trkpt><trkpt lat="39.7186267" lon="9.2320567"><ele>563.3333333333334</ele><time>2026-04-24T08:48:29.507Z</time></trkpt><trkpt lat="39.7187283" lon="9.23191"><ele>561.0</ele><time>2026-04-24T08:48:30.507Z</time></trkpt><trkpt lat="39.7188283" lon="9.23176"><ele>561.0</ele><time>2026-04-24T08:48:31.508Z</time></trkpt><trkpt lat="39.7189317" lon="9.231605"><ele>561.0</ele><time>2026-04-24T08:48:32.508Z</time></trkpt><trkpt lat="39.7190417" lon="9.2314333"><ele>561.0</ele><time>2026-04-24T08:48:33.508Z</time></trkpt><trkpt lat="39.7191567" lon="9.23126"><ele>560.6666666666666</ele><time>2026-04-24T08:48:34.507Z</time></trkpt><trkpt lat="39.7192667" lon="9.2310967"><ele>560.3333333333333</ele><time>2026-04-24T08:48:35.508Z</time></trkpt><trkpt lat="39.7193767" lon="9.23093"><ele>560.0</ele><time>2026-04-24T08:48:36.507Z</time></trkpt><trkpt lat="39.7194783" lon="9.23077"><ele>559.6666666666666</ele><time>2026-04-24T08:48:37.508Z</time></trkpt><trkpt lat="39.71958" lon="9.23062"><ele>559.3333333333334</ele><time>2026-04-24T08:48:38.508Z</time></trkpt><trkpt lat="39.71968" lon="9.2304683"><ele>559.0</ele><time>2026-04-24T08:48:39.507Z</time></trkpt><trkpt lat="39.7197833" lon="9.2303167"><ele>559.0</ele><time>2026-04-24T08:48:40.508Z</time></trkpt><trkpt lat="39.7198817" lon="9.230165"><ele>559.0</ele><time>2026-04-24T08:48:41.507Z</time></trkpt><trkpt lat="39.7199767" lon="9.230015"><ele>559.0</ele><time>2026-04-24T08:48:42.508Z</time></trkpt><trkpt lat="39.72007" lon="9.2298717"><ele>559.0</ele><time>2026-04-24T08:48:43.508Z</time></trkpt><trkpt lat="39.7201617" lon="9.2297333"><ele>558.75</ele><time>2026-04-24T08:48:44.507Z</time></trkpt><trkpt lat="39.720255" lon="9.2295933"><ele>558.5</ele><time>2026-04-24T08:48:45.508Z</time></trkpt><trkpt lat="39.720355" lon="9.229445"><ele>558.25</ele><time>2026-04-24T08:48:46.507Z</time></trkpt><trkpt lat="39.720455" lon="9.2292967"><ele>558.0</ele><time>2026-04-24T08:48:47.507Z</time></trkpt><trkpt lat="39.7206517" lon="9.2289883"><ele>556.6666666666666</ele><time>2026-04-24T08:48:49.507Z</time></trkpt><trkpt lat="39.7207517" lon="9.22884"><ele>555.3333333333333</ele><time>2026-04-24T08:48:50.508Z</time></trkpt><trkpt lat="39.72085" lon="9.22869"><ele>554.0</ele><time>2026-04-24T08:48:51.508Z</time></trkpt><trkpt lat="39.7209467" lon="9.228545"><ele>554.0</ele><time>2026-04-24T08:48:52.508Z</time></trkpt><trkpt lat="39.7210383" lon="9.22841"><ele>554.0</ele><time>2026-04-24T08:48:53.507Z</time></trkpt><trkpt lat="39.7211283" lon="9.228275"><ele>554.0</ele><time>2026-04-24T08:48:54.507Z</time></trkpt><trkpt lat="39.7212133" lon="9.2281483"><ele>554.0</ele><time>2026-04-24T08:48:55.507Z</time></trkpt><trkpt lat="39.7212917" lon="9.2280283"><ele>553.6</ele><time>2026-04-24T08:48:56.507Z</time></trkpt><trkpt lat="39.7213667" lon="9.2279217"><ele>553.2</ele><time>2026-04-24T08:48:57.507Z</time></trkpt><trkpt lat="39.721435" lon="9.2278267"><ele>552.8000000000001</ele><time>2026-04-24T08:48:58.507Z</time></trkpt><trkpt lat="39.7214917" lon="9.2277417"><ele>552.4</ele><time>2026-04-24T08:48:59.507Z</time></trkpt><trkpt lat="39.7215367" lon="9.2276767"><ele>552.0</ele><time>2026-04-24T08:49:00.508Z</time></trkpt><trkpt lat="39.7216117" lon="9.2275817"><ele>552.0</ele><time>2026-04-24T08:49:02.507Z</time></trkpt><trkpt lat="39.721675" lon="9.2275567"><ele>552.0</ele><time>2026-04-24T08:49:04.507Z</time></trkpt><trkpt lat="39.7217433" lon="9.2275433"><ele>552.0</ele><time>2026-04-24T08:49:06.508Z</time></trkpt><trkpt lat="39.721825" lon="9.2275167"><ele>552.0</ele><time>2026-04-24T08:49:09.508Z</time></trkpt><trkpt lat="39.7218467" lon="9.22731"><ele>552.0</ele><time>2026-04-24T08:56:44.506Z</time></trkpt><trkpt lat="39.7218933" lon="9.2272483"><ele>552.0</ele><time>2026-04-24T08:56:46.507Z</time></trkpt><trkpt lat="39.721925" lon="9.2271767"><ele>552.2</ele><time>2026-04-24T08:56:49.507Z</time></trkpt><trkpt lat="39.721935" lon="9.2270817"><ele>552.4000000000001</ele><time>2026-04-24T08:56:52.507Z</time></trkpt><trkpt lat="39.7220017" lon="9.2269567"><ele>552.5999999999999</ele><time>2026-04-24T08:56:54.506Z</time></trkpt><trkpt lat="39.7220583" lon="9.2268767"><ele>552.8</ele><time>2026-04-24T08:56:55.507Z</time></trkpt><trkpt lat="39.7221267" lon="9.2267783"><ele>553.0</ele><time>2026-04-24T08:56:56.506Z</time></trkpt><trkpt lat="39.7221967" lon="9.2266767"><ele>553.0</ele><time>2026-04-24T08:56:57.507Z</time></trkpt><trkpt lat="39.722275" lon="9.226555"><ele>553.0</ele><time>2026-04-24T08:56:58.506Z</time></trkpt><trkpt lat="39.722355" lon="9.226425"><ele>553.0</ele><time>2026-04-24T08:56:59.507Z</time></trkpt><trkpt lat="39.7224467" lon="9.2262883"><ele>553.0</ele><time>2026-04-24T08:57:00.507Z</time></trkpt><trkpt lat="39.7226367" lon="9.2259933"><ele>553.0</ele><time>2026-04-24T08:57:02.506Z</time></trkpt><trkpt lat="39.7227383" lon="9.2258367"><ele>553.0</ele><time>2026-04-24T08:57:03.506Z</time></trkpt><trkpt lat="39.7228467" lon="9.225685"><ele>553.0</ele><time>2026-04-24T08:57:04.507Z</time></trkpt><trkpt lat="39.72295" lon="9.2255283"><ele>552.0</ele><time>2026-04-24T08:57:05.506Z</time></trkpt><trkpt lat="39.723055" lon="9.2253633"><ele>551.0</ele><time>2026-04-24T08:57:06.506Z</time></trkpt><trkpt lat="39.7231617" lon="9.2252017"><ele>550.0</ele><time>2026-04-24T08:57:07.507Z</time></trkpt><trkpt lat="39.7232633" lon="9.2250517"><ele>550.0</ele><time>2026-04-24T08:57:08.506Z</time></trkpt><trkpt lat="39.723365" lon="9.224895"><ele>550.0</ele><time>2026-04-24T08:57:09.507Z</time></trkpt><trkpt lat="39.72347" lon="9.224735"><ele>550.0</ele><time>2026-04-24T08:57:10.507Z</time></trkpt><trkpt lat="39.7235717" lon="9.22458"><ele>550.75</ele><time>2026-04-24T08:57:11.506Z</time></trkpt><trkpt lat="39.7236683" lon="9.224435"><ele>551.5</ele><time>2026-04-24T08:57:12.507Z</time></trkpt><trkpt lat="39.723765" lon="9.2243"><ele>552.25</ele><time>2026-04-24T08:57:13.507Z</time></trkpt><trkpt lat="39.7238583" lon="9.2241567"><ele>553.0</ele><time>2026-04-24T08:57:14.506Z</time></trkpt><trkpt lat="39.723945" lon="9.2240317"><ele>552.6</ele><time>2026-04-24T08:57:15.506Z</time></trkpt><trkpt lat="39.724025" lon="9.22392"><ele>552.1999999999999</ele><time>2026-04-24T08:57:16.507Z</time></trkpt><trkpt lat="39.7241" lon="9.2238133"><ele>551.8</ele><time>2026-04-24T08:57:17.507Z</time></trkpt><trkpt lat="39.7241717" lon="9.22372"><ele>551.4</ele><time>2026-04-24T08:57:18.506Z</time></trkpt><trkpt lat="39.724245" lon="9.223625"><ele>551.0</ele><time>2026-04-24T08:57:19.506Z</time></trkpt><trkpt lat="39.7243183" lon="9.2235133"><ele>551.0</ele><time>2026-04-24T08:57:20.506Z</time></trkpt><trkpt lat="39.7243817" lon="9.2233817"><ele>551.0</ele><time>2026-04-24T08:57:21.507Z</time></trkpt><trkpt lat="39.7245067" lon="9.2231167"><ele>551.0</ele><time>2026-04-24T08:57:23.506Z</time></trkpt><trkpt lat="39.7245667" lon="9.22299"><ele>551.5</ele><time>2026-04-24T08:57:24.506Z</time></trkpt><trkpt lat="39.7246283" lon="9.22286"><ele>552.0</ele><time>2026-04-24T08:57:25.506Z</time></trkpt><trkpt lat="39.7246867" lon="9.22273"><ele>552.5</ele><time>2026-04-24T08:57:26.506Z</time></trkpt><trkpt lat="39.72475" lon="9.2225883"><ele>553.0</ele><time>2026-04-24T08:57:27.506Z</time></trkpt><trkpt lat="39.7248183" lon="9.2224417"><ele>552.75</ele><time>2026-04-24T08:57:28.507Z</time></trkpt><trkpt lat="39.7248917" lon="9.2222883"><ele>552.5</ele><time>2026-04-24T08:57:29.506Z</time></trkpt><trkpt lat="39.72497" lon="9.2221233"><ele>552.25</ele><time>2026-04-24T08:57:30.506Z</time></trkpt><trkpt lat="39.7250467" lon="9.2219533"><ele>552.0</ele><time>2026-04-24T08:57:31.507Z</time></trkpt><trkpt lat="39.725125" lon="9.2217817"><ele>552.0</ele><time>2026-04-24T08:57:32.506Z</time></trkpt><trkpt lat="39.725205" lon="9.2216083"><ele>552.0</ele><time>2026-04-24T08:57:33.507Z</time></trkpt><trkpt lat="39.7252867" lon="9.221435"><ele>552.0</ele><time>2026-04-24T08:57:34.507Z</time></trkpt><trkpt lat="39.7253733" lon="9.22126"><ele>553.0</ele><time>2026-04-24T08:57:35.506Z</time></trkpt><trkpt lat="39.725455" lon="9.2210817"><ele>554.0</ele><time>2026-04-24T08:57:36.507Z</time></trkpt><trkpt lat="39.72554" lon="9.2209033"><ele>555.0</ele><time>2026-04-24T08:57:37.507Z</time></trkpt><trkpt lat="39.7256217" lon="9.22073"><ele>554.3333333333334</ele><time>2026-04-24T08:57:38.507Z</time></trkpt><trkpt lat="39.7257083" lon="9.2205533"><ele>553.6666666666667</ele><time>2026-04-24T08:57:39.507Z</time></trkpt><trkpt lat="39.72579" lon="9.2203767"><ele>553.0</ele><time>2026-04-24T08:57:40.506Z</time></trkpt><trkpt lat="39.7258733" lon="9.22021"><ele>553.0</ele><time>2026-04-24T08:57:41.507Z</time></trkpt><trkpt lat="39.7259533" lon="9.2200417"><ele>553.0</ele><time>2026-04-24T08:57:42.506Z</time></trkpt><trkpt lat="39.7260933" lon="9.2197467"><ele>553.0</ele><time>2026-04-24T08:57:44.506Z</time></trkpt><trkpt lat="39.7261617" lon="9.2196033"><ele>553.5</ele><time>2026-04-24T08:57:45.507Z</time></trkpt><trkpt lat="39.7262267" lon="9.2194567"><ele>554.0</ele><time>2026-04-24T08:57:46.507Z</time></trkpt><trkpt lat="39.7262983" lon="9.2193"><ele>554.5</ele><time>2026-04-24T08:57:47.506Z</time></trkpt><trkpt lat="39.7263783" lon="9.2191383"><ele>555.0</ele><time>2026-04-24T08:57:48.506Z</time></trkpt><trkpt lat="39.7264583" lon="9.21897"><ele>555.0</ele><time>2026-04-24T08:57:49.506Z</time></trkpt><trkpt lat="39.7265383" lon="9.218795"><ele>555.0</ele><time>2026-04-24T08:57:50.507Z</time></trkpt><trkpt lat="39.7266233" lon="9.2186167"><ele>555.0</ele><time>2026-04-24T08:57:51.507Z</time></trkpt><trkpt lat="39.7267083" lon="9.2184383"><ele>555.0</ele><time>2026-04-24T08:57:52.506Z</time></trkpt><trkpt lat="39.7267933" lon="9.2182617"><ele>555.0</ele><time>2026-04-24T08:57:53.507Z</time></trkpt><trkpt lat="39.7268817" lon="9.2180767"><ele>555.0</ele><time>2026-04-24T08:57:54.507Z</time></trkpt><trkpt lat="39.7269683" lon="9.217895"><ele>556.6666666666666</ele><time>2026-04-24T08:57:55.506Z</time></trkpt><trkpt lat="39.7270567" lon="9.2177083"><ele>558.3333333333333</ele><time>2026-04-24T08:57:56.506Z</time></trkpt><trkpt lat="39.7271417" lon="9.2175267"><ele>560.0</ele><time>2026-04-24T08:57:57.507Z</time></trkpt><trkpt lat="39.7272267" lon="9.2173417"><ele>559.0</ele><time>2026-04-24T08:57:58.506Z</time></trkpt><trkpt lat="39.7273167" lon="9.217155"><ele>558.0</ele><time>2026-04-24T08:57:59.506Z</time></trkpt><trkpt lat="39.7274117" lon="9.2169633"><ele>557.0</ele><time>2026-04-24T08:58:00.506Z</time></trkpt><trkpt lat="39.7275" lon="9.2167717"><ele>557.0</ele><time>2026-04-24T08:58:01.507Z</time></trkpt><trkpt lat="39.72759" lon="9.2165767"><ele>557.0</ele><time>2026-04-24T08:58:02.507Z</time></trkpt><trkpt lat="39.727685" lon="9.216375"><ele>557.0</ele><time>2026-04-24T08:58:03.507Z</time></trkpt><trkpt lat="39.7278733" lon="9.2159783"><ele>557.0</ele><time>2026-04-24T08:58:05.507Z</time></trkpt><trkpt lat="39.7279617" lon="9.21579"><ele>557.0</ele><time>2026-04-24T08:58:06.507Z</time></trkpt><trkpt lat="39.72805" lon="9.215605"><ele>557.0</ele><time>2026-04-24T08:58:07.506Z</time></trkpt><trkpt lat="39.7281367" lon="9.2154183"><ele>557.0</ele><time>2026-04-24T08:58:08.507Z</time></trkpt><trkpt lat="39.728225" lon="9.2152333"><ele>557.0</ele><time>2026-04-24T08:58:09.507Z</time></trkpt><trkpt lat="39.7283083" lon="9.215045"><ele>557.0</ele><time>2026-04-24T08:58:10.506Z</time></trkpt><trkpt lat="39.7283867" lon="9.21485"><ele>556.6666666666666</ele><time>2026-04-24T08:58:11.506Z</time></trkpt><trkpt lat="39.7284633" lon="9.21465"><ele>556.3333333333334</ele><time>2026-04-24T08:58:12.506Z</time></trkpt><trkpt lat="39.7285383" lon="9.2144433"><ele>556.0</ele><time>2026-04-24T08:58:13.507Z</time></trkpt><trkpt lat="39.7286167" lon="9.214235"><ele>557.3333333333334</ele><time>2026-04-24T08:58:14.506Z</time></trkpt><trkpt lat="39.7286933" lon="9.2140267"><ele>558.6666666666666</ele><time>2026-04-24T08:58:15.507Z</time></trkpt><trkpt lat="39.7287667" lon="9.21381"><ele>560.0</ele><time>2026-04-24T08:58:16.507Z</time></trkpt><trkpt lat="39.7288367" lon="9.2135883"><ele>560.0</ele><time>2026-04-24T08:58:17.506Z</time></trkpt><trkpt lat="39.7289033" lon="9.2133633"><ele>560.0</ele><time>2026-04-24T08:58:18.506Z</time></trkpt><trkpt lat="39.7289667" lon="9.213145"><ele>560.0</ele><time>2026-04-24T08:58:19.507Z</time></trkpt><trkpt lat="39.7290267" lon="9.2129217"><ele>559.6666666666666</ele><time>2026-04-24T08:58:20.507Z</time></trkpt><trkpt lat="39.7290783" lon="9.21271"><ele>559.3333333333334</ele><time>2026-04-24T08:58:21.507Z</time></trkpt><trkpt lat="39.7291317" lon="9.21249"><ele>559.0</ele><time>2026-04-24T08:58:22.507Z</time></trkpt><trkpt lat="39.72919" lon="9.2122733"><ele>560.0</ele><time>2026-04-24T08:58:23.507Z</time></trkpt><trkpt lat="39.729245" lon="9.2120567"><ele>561.0</ele><time>2026-04-24T08:58:24.506Z</time></trkpt><trkpt lat="39.7293533" lon="9.2116333"><ele>561.75</ele><time>2026-04-24T08:58:26.507Z</time></trkpt><trkpt lat="39.729395" lon="9.21144"><ele>562.5</ele><time>2026-04-24T08:58:27.506Z</time></trkpt><trkpt lat="39.7294317" lon="9.211265"><ele>563.25</ele><time>2026-04-24T08:58:28.506Z</time></trkpt><trkpt lat="39.7294767" lon="9.2111033"><ele>564.0</ele><time>2026-04-24T08:58:29.506Z</time></trkpt><trkpt lat="39.7295133" lon="9.2109517"><ele>564.0</ele><time>2026-04-24T08:58:30.507Z</time></trkpt><trkpt lat="39.7295483" lon="9.2108117"><ele>564.0</ele><time>2026-04-24T08:58:31.506Z</time></trkpt><trkpt lat="39.7295867" lon="9.21068"><ele>564.0</ele><time>2026-04-24T08:58:32.507Z</time></trkpt><trkpt lat="39.729615" lon="9.21057"><ele>564.0</ele><time>2026-04-24T08:58:33.507Z</time></trkpt><trkpt lat="39.7296417" lon="9.2104733"><ele>564.0</ele><time>2026-04-24T08:58:34.507Z</time></trkpt><trkpt lat="39.7296667" lon="9.2103817"><ele>564.4</ele><time>2026-04-24T08:58:35.506Z</time></trkpt><trkpt lat="39.7297" lon="9.2102433"><ele>564.8</ele><time>2026-04-24T08:58:37.506Z</time></trkpt><trkpt lat="39.729765" lon="9.2101567"><ele>565.2</ele><time>2026-04-24T08:58:39.507Z</time></trkpt><trkpt lat="39.7299067" lon="9.210155"><ele>565.6</ele><time>2026-04-24T08:58:41.507Z</time></trkpt><trkpt lat="39.730005" lon="9.210185"><ele>566.0</ele><time>2026-04-24T08:58:42.507Z</time></trkpt><trkpt lat="39.73012" lon="9.210235"><ele>566.3333333333333</ele><time>2026-04-24T08:58:43.507Z</time></trkpt><trkpt lat="39.7302483" lon="9.2102933"><ele>566.6666666666666</ele><time>2026-04-24T08:58:44.506Z</time></trkpt><trkpt lat="39.7303867" lon="9.21035"><ele>567.0</ele><time>2026-04-24T08:58:45.506Z</time></trkpt><trkpt lat="39.7306733" lon="9.2104633"><ele>567.0</ele><time>2026-04-24T08:58:47.507Z</time></trkpt><trkpt lat="39.730825" lon="9.21052"><ele>567.0</ele><time>2026-04-24T08:58:48.507Z</time></trkpt><trkpt lat="39.7309683" lon="9.2105817"><ele>567.0</ele><time>2026-04-24T08:58:49.507Z</time></trkpt><trkpt lat="39.7311183" lon="9.2106383"><ele>566.75</ele><time>2026-04-24T08:58:50.506Z</time></trkpt><trkpt lat="39.731265" lon="9.210695"><ele>566.5</ele><time>2026-04-24T08:58:51.507Z</time></trkpt><trkpt lat="39.7314067" lon="9.2107517"><ele>566.25</ele><time>2026-04-24T08:58:52.507Z</time></trkpt><trkpt lat="39.7315467" lon="9.2108083"><ele>566.0</ele><time>2026-04-24T08:58:53.507Z</time></trkpt><trkpt lat="39.731685" lon="9.2108567"><ele>566.0</ele><time>2026-04-24T08:58:54.507Z</time></trkpt><trkpt lat="39.73182" lon="9.2109117"><ele>566.0</ele><time>2026-04-24T08:58:55.507Z</time></trkpt><trkpt lat="39.73196" lon="9.21096"><ele>566.0</ele><time>2026-04-24T08:58:56.507Z</time></trkpt><trkpt lat="39.7320983" lon="9.2110083"><ele>566.0</ele><time>2026-04-24T08:58:57.506Z</time></trkpt><trkpt lat="39.7322417" lon="9.2110383"><ele>565.5</ele><time>2026-04-24T08:58:58.507Z</time></trkpt><trkpt lat="39.732385" lon="9.2110433"><ele>565.0</ele><time>2026-04-24T08:58:59.507Z</time></trkpt><trkpt lat="39.7325283" lon="9.211025"><ele>564.5</ele><time>2026-04-24T08:59:00.507Z</time></trkpt><trkpt lat="39.732665" lon="9.210975"><ele>564.0</ele><time>2026-04-24T08:59:01.506Z</time></trkpt><trkpt lat="39.7328017" lon="9.2109017"><ele>564.0</ele><time>2026-04-24T08:59:02.506Z</time></trkpt><trkpt lat="39.7329383" lon="9.2108017"><ele>564.0</ele><time>2026-04-24T08:59:03.506Z</time></trkpt><trkpt lat="39.7330633" lon="9.210685"><ele>564.0</ele><time>2026-04-24T08:59:04.507Z</time></trkpt><trkpt lat="39.7331833" lon="9.2105683"><ele>560.5</ele><time>2026-04-24T08:59:05.506Z</time></trkpt><trkpt lat="39.7333117" lon="9.2104633"><ele>557.0</ele><time>2026-04-24T08:59:06.507Z</time></trkpt><trkpt lat="39.73359" lon="9.2102783"><ele>556.3333333333333</ele><time>2026-04-24T08:59:08.507Z</time></trkpt><trkpt lat="39.7337333" lon="9.2101933"><ele>555.6666666666666</ele><time>2026-04-24T08:59:09.506Z</time></trkpt><trkpt lat="39.733875" lon="9.2101133"><ele>555.0</ele><time>2026-04-24T08:59:10.506Z</time></trkpt><trkpt lat="39.73402" lon="9.2100417"><ele>555.0</ele><time>2026-04-24T08:59:11.507Z</time></trkpt><trkpt lat="39.734155" lon="9.21001"><ele>555.0</ele><time>2026-04-24T08:59:12.507Z</time></trkpt><trkpt lat="39.7342867" lon="9.2100033"><ele>555.0</ele><time>2026-04-24T08:59:13.506Z</time></trkpt><trkpt lat="39.734415" lon="9.2100233"><ele>555.0</ele><time>2026-04-24T08:59:14.507Z</time></trkpt><trkpt lat="39.7345383" lon="9.21006"><ele>553.8</ele><time>2026-04-24T08:59:15.506Z</time></trkpt><trkpt lat="39.7346467" lon="9.210095"><ele>552.6</ele><time>2026-04-24T08:59:16.506Z</time></trkpt><trkpt lat="39.7347433" lon="9.2101317"><ele>551.4</ele><time>2026-04-24T08:59:17.506Z</time></trkpt><trkpt lat="39.7348233" lon="9.2101667"><ele>550.2</ele><time>2026-04-24T08:59:18.506Z</time></trkpt><trkpt lat="39.7349" lon="9.21019"><ele>549.0</ele><time>2026-04-24T08:59:19.507Z</time></trkpt><trkpt lat="39.7349767" lon="9.2102167"><ele>549.0</ele><time>2026-04-24T08:59:20.507Z</time></trkpt><trkpt lat="39.7350483" lon="9.2102533"><ele>549.0</ele><time>2026-04-24T08:59:21.507Z</time></trkpt><trkpt lat="39.73512" lon="9.210305"><ele>549.0</ele><time>2026-04-24T08:59:22.506Z</time></trkpt><trkpt lat="39.735175" lon="9.2103867"><ele>549.0</ele><time>2026-04-24T08:59:23.506Z</time></trkpt><trkpt lat="39.7352083" lon="9.21051"><ele>549.0</ele><time>2026-04-24T08:59:24.507Z</time></trkpt><trkpt lat="39.7352283" lon="9.21065"><ele>551.3333333333334</ele><time>2026-04-24T08:59:25.506Z</time></trkpt><trkpt lat="39.7352383" lon="9.21079"><ele>553.6666666666667</ele><time>2026-04-24T08:59:26.506Z</time></trkpt><trkpt lat="39.7352133" lon="9.210925"><ele>556.0</ele><time>2026-04-24T08:59:27.506Z</time></trkpt><trkpt lat="39.735115" lon="9.21121"><ele>556.0</ele><time>2026-04-24T08:59:29.507Z</time></trkpt><trkpt lat="39.735065" lon="9.211335"><ele>556.0</ele><time>2026-04-24T08:59:30.507Z</time></trkpt><trkpt lat="39.7350133" lon="9.2114433"><ele>556.0</ele><time>2026-04-24T08:59:31.507Z</time></trkpt><trkpt lat="39.7349517" lon="9.2115333"><ele>556.0</ele><time>2026-04-24T08:59:32.506Z</time></trkpt><trkpt lat="39.7348733" lon="9.2116183"><ele>556.0</ele><time>2026-04-24T08:59:33.507Z</time></trkpt><trkpt lat="39.7347867" lon="9.2117133"><ele>554.0</ele><time>2026-04-24T08:59:34.506Z</time></trkpt><trkpt lat="39.7346967" lon="9.2118183"><ele>552.0</ele><time>2026-04-24T08:59:35.507Z</time></trkpt><trkpt lat="39.73462" lon="9.211935"><ele>550.0</ele><time>2026-04-24T08:59:36.507Z</time></trkpt><trkpt lat="39.734565" lon="9.2120717"><ele>548.0</ele><time>2026-04-24T08:59:37.506Z</time></trkpt><trkpt lat="39.734545" lon="9.2122083"><ele>547.0</ele><time>2026-04-24T08:59:38.507Z</time></trkpt><trkpt lat="39.7345417" lon="9.212335"><ele>546.0</ele><time>2026-04-24T08:59:39.506Z</time></trkpt><trkpt lat="39.7345567" lon="9.212455"><ele>545.0</ele><time>2026-04-24T08:59:40.506Z</time></trkpt><trkpt lat="39.7345883" lon="9.2125633"><ele>544.0</ele><time>2026-04-24T08:59:41.507Z</time></trkpt><trkpt lat="39.7346483" lon="9.2126717"><ele>543.0</ele><time>2026-04-24T08:59:42.506Z</time></trkpt><trkpt lat="39.7347317" lon="9.2127733"><ele>543.0</ele><time>2026-04-24T08:59:43.506Z</time></trkpt><trkpt lat="39.73483" lon="9.21287"><ele>543.0</ele><time>2026-04-24T08:59:44.507Z</time></trkpt><trkpt lat="39.73494" lon="9.212955"><ele>543.0</ele><time>2026-04-24T08:59:45.506Z</time></trkpt><trkpt lat="39.73507" lon="9.2130267"><ele>543.0</ele><time>2026-04-24T08:59:46.507Z</time></trkpt><trkpt lat="39.7352017" lon="9.2130883"><ele>544.5</ele><time>2026-04-24T08:59:47.507Z</time></trkpt><trkpt lat="39.73535" lon="9.2131333"><ele>546.0</ele><time>2026-04-24T08:59:48.506Z</time></trkpt><trkpt lat="39.7356683" lon="9.2131867"><ele>546.0</ele><time>2026-04-24T08:59:50.507Z</time></trkpt><trkpt lat="39.735825" lon="9.2132083"><ele>546.0</ele><time>2026-04-24T08:59:51.507Z</time></trkpt><trkpt lat="39.7359783" lon="9.213225"><ele>546.0</ele><time>2026-04-24T08:59:52.507Z</time></trkpt><trkpt lat="39.7361233" lon="9.213225"><ele>546.2</ele><time>2026-04-24T08:59:53.506Z</time></trkpt><trkpt lat="39.7362483" lon="9.2132117"><ele>546.4000000000001</ele><time>2026-04-24T08:59:54.507Z</time></trkpt><trkpt lat="39.73635" lon="9.21317"><ele>546.6</ele><time>2026-04-24T08:59:55.507Z</time></trkpt><trkpt lat="39.73643" lon="9.2130883"><ele>546.8000000000001</ele><time>2026-04-24T08:59:56.507Z</time></trkpt><trkpt lat="39.7364717" lon="9.2129667"><ele>547.0</ele><time>2026-04-24T08:59:57.506Z</time></trkpt><trkpt lat="39.7364983" lon="9.21282"><ele>544.0</ele><time>2026-04-24T08:59:58.507Z</time></trkpt><trkpt lat="39.7365367" lon="9.212665"><ele>541.0</ele><time>2026-04-24T08:59:59.507Z</time></trkpt><trkpt lat="39.7366117" lon="9.2124833"><ele>538.0</ele><time>2026-04-24T09:00:00.507Z</time></trkpt><trkpt lat="39.7366917" lon="9.2123517"><ele>535.0</ele><time>2026-04-24T09:00:01.506Z</time></trkpt><trkpt lat="39.7367783" lon="9.212225"><ele>532.8</ele><time>2026-04-24T09:00:02.507Z</time></trkpt><trkpt lat="39.7368467" lon="9.2121017"><ele>530.6</ele><time>2026-04-24T09:00:03.507Z</time></trkpt><trkpt lat="39.7369133" lon="9.212"><ele>528.4</ele><time>2026-04-24T09:00:04.507Z</time></trkpt><trkpt lat="39.7369867" lon="9.2119167"><ele>526.2</ele><time>2026-04-24T09:00:05.507Z</time></trkpt><trkpt lat="39.7370633" lon="9.21188"><ele>524.0</ele><time>2026-04-24T09:00:06.506Z</time></trkpt><trkpt lat="39.737155" lon="9.211885"><ele>524.0</ele><time>2026-04-24T09:00:07.506Z</time></trkpt><trkpt lat="39.737225" lon="9.21194"><ele>524.0</ele><time>2026-04-24T09:00:08.506Z</time></trkpt><trkpt lat="39.7372767" lon="9.2120533"><ele>524.0</ele><time>2026-04-24T09:00:09.506Z</time></trkpt><trkpt lat="39.73734" lon="9.2123633"><ele>524.0</ele><time>2026-04-24T09:00:11.507Z</time></trkpt><trkpt lat="39.7373717" lon="9.2125467"><ele>525.75</ele><time>2026-04-24T09:00:12.506Z</time></trkpt><trkpt lat="39.7373983" lon="9.2127233"><ele>527.5</ele><time>2026-04-24T09:00:13.507Z</time></trkpt><trkpt lat="39.73742" lon="9.212885"><ele>529.25</ele><time>2026-04-24T09:00:14.506Z</time></trkpt><trkpt lat="39.737445" lon="9.2130333"><ele>531.0</ele><time>2026-04-24T09:00:15.507Z</time></trkpt><trkpt lat="39.73747" lon="9.2131667"><ele>532.0</ele><time>2026-04-24T09:00:16.506Z</time></trkpt><trkpt lat="39.7375183" lon="9.213285"><ele>533.0</ele><time>2026-04-24T09:00:17.506Z</time></trkpt><trkpt lat="39.7375933" lon="9.2133717"><ele>534.0</ele><time>2026-04-24T09:00:18.506Z</time></trkpt><trkpt lat="39.7376867" lon="9.2134183"><ele>535.0</ele><time>2026-04-24T09:00:19.507Z</time></trkpt><trkpt lat="39.737795" lon="9.213425"><ele>536.0</ele><time>2026-04-24T09:00:20.507Z</time></trkpt><trkpt lat="39.7379017" lon="9.2133867"><ele>536.0</ele><time>2026-04-24T09:00:21.506Z</time></trkpt><trkpt lat="39.738" lon="9.2133033"><ele>536.0</ele><time>2026-04-24T09:00:22.506Z</time></trkpt><trkpt lat="39.7380783" lon="9.21319"><ele>536.0</ele><time>2026-04-24T09:00:23.507Z</time></trkpt><trkpt lat="39.7381317" lon="9.2130533"><ele>536.0</ele><time>2026-04-24T09:00:24.506Z</time></trkpt><trkpt lat="39.73818" lon="9.2129083"><ele>534.75</ele><time>2026-04-24T09:00:25.507Z</time></trkpt><trkpt lat="39.7382333" lon="9.2127567"><ele>533.5</ele><time>2026-04-24T09:00:26.506Z</time></trkpt><trkpt lat="39.73829" lon="9.2125833"><ele>532.25</ele><time>2026-04-24T09:00:27.507Z</time></trkpt><trkpt lat="39.7383183" lon="9.2124117"><ele>531.0</ele><time>2026-04-24T09:00:28.506Z</time></trkpt><trkpt lat="39.73833" lon="9.2122433"><ele>530.3333333333334</ele><time>2026-04-24T09:00:29.506Z</time></trkpt><trkpt lat="39.7383183" lon="9.2120817"><ele>529.6666666666667</ele><time>2026-04-24T09:00:30.507Z</time></trkpt><trkpt lat="39.7382367" lon="9.2117633"><ele>529.0</ele><time>2026-04-24T09:00:32.506Z</time></trkpt><trkpt lat="39.7381917" lon="9.21161"><ele>528.75</ele><time>2026-04-24T09:00:33.506Z</time></trkpt><trkpt lat="39.7381483" lon="9.2114517"><ele>528.5</ele><time>2026-04-24T09:00:34.506Z</time></trkpt><trkpt lat="39.7381233" lon="9.2112767"><ele>528.25</ele><time>2026-04-24T09:00:35.507Z</time></trkpt><trkpt lat="39.7381183" lon="9.211105"><ele>528.0</ele><time>2026-04-24T09:00:36.506Z</time></trkpt><trkpt lat="39.7381267" lon="9.210915"><ele>528.0</ele><time>2026-04-24T09:00:37.507Z</time></trkpt><trkpt lat="39.7381233" lon="9.2107383"><ele>528.0</ele><time>2026-04-24T09:00:38.506Z</time></trkpt><trkpt lat="39.738105" lon="9.2105683"><ele>528.0</ele><time>2026-04-24T09:00:39.506Z</time></trkpt><trkpt lat="39.7380867" lon="9.2104017"><ele>528.0</ele><time>2026-04-24T09:00:40.506Z</time></trkpt><trkpt lat="39.7380717" lon="9.2102517"><ele>525.5</ele><time>2026-04-24T09:00:41.507Z</time></trkpt><trkpt lat="39.7380683" lon="9.2101067"><ele>523.0</ele><time>2026-04-24T09:00:42.506Z</time></trkpt><trkpt lat="39.738105" lon="9.2099583"><ele>520.5</ele><time>2026-04-24T09:00:43.506Z</time></trkpt><trkpt lat="39.7381717" lon="9.2098283"><ele>518.0</ele><time>2026-04-24T09:00:44.507Z</time></trkpt><trkpt lat="39.7382633" lon="9.2097183"><ele>515.75</ele><time>2026-04-24T09:00:45.507Z</time></trkpt><trkpt lat="39.7383717" lon="9.2096333"><ele>513.5</ele><time>2026-04-24T09:00:46.507Z</time></trkpt><trkpt lat="39.7385017" lon="9.2095767"><ele>511.25</ele><time>2026-04-24T09:00:47.506Z</time></trkpt><trkpt lat="39.738635" lon="9.2095467"><ele>509.0</ele><time>2026-04-24T09:00:48.507Z</time></trkpt><trkpt lat="39.7387667" lon="9.20954"><ele>509.0</ele><time>2026-04-24T09:00:49.506Z</time></trkpt><trkpt lat="39.7388933" lon="9.2095217"><ele>509.0</ele><time>2026-04-24T09:00:50.507Z</time></trkpt><trkpt lat="39.7389967" lon="9.2094667"><ele>509.0</ele><time>2026-04-24T09:00:51.507Z</time></trkpt><trkpt lat="39.7391667" lon="9.209225"><ele>509.0</ele><time>2026-04-24T09:00:53.507Z</time></trkpt><trkpt lat="39.73924" lon="9.209075"><ele>509.0</ele><time>2026-04-24T09:00:54.507Z</time></trkpt><trkpt lat="39.73931" lon="9.2089333"><ele>509.0</ele><time>2026-04-24T09:00:55.506Z</time></trkpt><trkpt lat="39.73938" lon="9.208805"><ele>509.0</ele><time>2026-04-24T09:00:56.506Z</time></trkpt><trkpt lat="39.739455" lon="9.208675"><ele>506.5</ele><time>2026-04-24T09:00:57.507Z</time></trkpt><trkpt lat="39.739535" lon="9.2085467"><ele>504.0</ele><time>2026-04-24T09:00:58.506Z</time></trkpt><trkpt lat="39.7396317" lon="9.208445"><ele>501.5</ele><time>2026-04-24T09:00:59.507Z</time></trkpt><trkpt lat="39.7397233" lon="9.2083883"><ele>499.0</ele><time>2026-04-24T09:01:00.506Z</time></trkpt><trkpt lat="39.7398267" lon="9.2083733"><ele>499.0</ele><time>2026-04-24T09:01:01.506Z</time></trkpt><trkpt lat="39.7399467" lon="9.2083983"><ele>499.0</ele><time>2026-04-24T09:01:02.506Z</time></trkpt><trkpt lat="39.7400617" lon="9.2084517"><ele>499.0</ele><time>2026-04-24T09:01:03.506Z</time></trkpt><trkpt lat="39.7401767" lon="9.2084983"><ele>499.0</ele><time>2026-04-24T09:01:04.506Z</time></trkpt><trkpt lat="39.7402833" lon="9.2085183"><ele>499.0</ele><time>2026-04-24T09:01:05.507Z</time></trkpt><trkpt lat="39.7403917" lon="9.2085517"><ele>499.0</ele><time>2026-04-24T09:01:06.507Z</time></trkpt><trkpt lat="39.7404733" lon="9.2086267"><ele>499.0</ele><time>2026-04-24T09:01:07.506Z</time></trkpt><trkpt lat="39.7405317" lon="9.2087283"><ele>499.0</ele><time>2026-04-24T09:01:08.506Z</time></trkpt><trkpt lat="39.74055" lon="9.208855"><ele>499.0</ele><time>2026-04-24T09:01:09.507Z</time></trkpt><trkpt lat="39.740565" lon="9.2089933"><ele>499.0</ele><time>2026-04-24T09:01:10.506Z</time></trkpt><trkpt lat="39.7406" lon="9.2091317"><ele>499.0</ele><time>2026-04-24T09:01:11.506Z</time></trkpt><trkpt lat="39.740655" lon="9.20924"><ele>499.0</ele><time>2026-04-24T09:01:12.506Z</time></trkpt><trkpt lat="39.7408183" lon="9.2093483"><ele>499.0</ele><time>2026-04-24T09:01:14.506Z</time></trkpt><trkpt lat="39.7409183" lon="9.209335"><ele>499.0</ele><time>2026-04-24T09:01:15.506Z</time></trkpt><trkpt lat="39.741025" lon="9.2093017"><ele>499.0</ele><time>2026-04-24T09:01:16.507Z</time></trkpt><trkpt lat="39.7411367" lon="9.209285"><ele>499.0</ele><time>2026-04-24T09:01:17.506Z</time></trkpt><trkpt lat="39.7412433" lon="9.2093033"><ele>499.0</ele><time>2026-04-24T09:01:18.507Z</time></trkpt><trkpt lat="39.7413467" lon="9.20933"><ele>499.0</ele><time>2026-04-24T09:01:19.507Z</time></trkpt><trkpt lat="39.7414533" lon="9.209345"><ele>498.79999999999995</ele><time>2026-04-24T09:01:20.507Z</time></trkpt><trkpt lat="39.741545" lon="9.2093267"><ele>498.59999999999997</ele><time>2026-04-24T09:01:21.507Z</time></trkpt><trkpt lat="39.74162" lon="9.2092567"><ele>498.4</ele><time>2026-04-24T09:01:22.507Z</time></trkpt><trkpt lat="39.7416717" lon="9.2091483"><ele>498.2</ele><time>2026-04-24T09:01:23.507Z</time></trkpt><trkpt lat="39.7416983" lon="9.2090117"><ele>498.0</ele><time>2026-04-24T09:01:24.507Z</time></trkpt><trkpt lat="39.741725" lon="9.208865"><ele>498.5</ele><time>2026-04-24T09:01:25.507Z</time></trkpt><trkpt lat="39.7417767" lon="9.2087167"><ele>499.0</ele><time>2026-04-24T09:01:26.507Z</time></trkpt><trkpt lat="39.74185" lon="9.2085817"><ele>499.5</ele><time>2026-04-24T09:01:27.506Z</time></trkpt><trkpt lat="39.741935" lon="9.2084567"><ele>500.0</ele><time>2026-04-24T09:01:28.506Z</time></trkpt><trkpt lat="39.7420183" lon="9.2083217"><ele>500.0</ele><time>2026-04-24T09:01:29.507Z</time></trkpt><trkpt lat="39.7420783" lon="9.20818"><ele>500.0</ele><time>2026-04-24T09:01:30.506Z</time></trkpt><trkpt lat="39.7421233" lon="9.2080317"><ele>500.0</ele><time>2026-04-24T09:01:31.506Z</time></trkpt><trkpt lat="39.7421633" lon="9.2078667"><ele>500.0</ele><time>2026-04-24T09:01:32.506Z</time></trkpt><trkpt lat="39.74222" lon="9.2077217"><ele>495.0</ele><time>2026-04-24T09:01:33.506Z</time></trkpt><trkpt lat="39.7423983" lon="9.2074967"><ele>490.0</ele><time>2026-04-24T09:01:35.506Z</time></trkpt><trkpt lat="39.74252" lon="9.2074217"><ele>485.0</ele><time>2026-04-24T09:01:36.507Z</time></trkpt><trkpt lat="39.7426567" lon="9.20734"><ele>482.0</ele><time>2026-04-24T09:01:37.507Z</time></trkpt><trkpt lat="39.7427933" lon="9.2072617"><ele>479.0</ele><time>2026-04-24T09:01:38.506Z</time></trkpt><trkpt lat="39.7429167" lon="9.2071783"><ele>476.0</ele><time>2026-04-24T09:01:39.507Z</time></trkpt><trkpt lat="39.74304" lon="9.2070967"><ele>473.0</ele><time>2026-04-24T09:01:40.506Z</time></trkpt><trkpt lat="39.7431567" lon="9.20702"><ele>473.0</ele><time>2026-04-24T09:01:41.506Z</time></trkpt><trkpt lat="39.7432767" lon="9.2069517"><ele>473.0</ele><time>2026-04-24T09:01:42.507Z</time></trkpt><trkpt lat="39.7434017" lon="9.2068883"><ele>473.0</ele><time>2026-04-24T09:01:43.506Z</time></trkpt><trkpt lat="39.74352" lon="9.20684"><ele>473.0</ele><time>2026-04-24T09:01:44.507Z</time></trkpt><trkpt lat="39.7436433" lon="9.2068217"><ele>472.25</ele><time>2026-04-24T09:01:45.507Z</time></trkpt><trkpt lat="39.7437833" lon="9.2068367"><ele>471.5</ele><time>2026-04-24T09:01:46.507Z</time></trkpt><trkpt lat="39.7439117" lon="9.2068717"><ele>470.75</ele><time>2026-04-24T09:01:47.507Z</time></trkpt><trkpt lat="39.7440367" lon="9.20691"><ele>470.0</ele><time>2026-04-24T09:01:48.506Z</time></trkpt><trkpt lat="39.7441567" lon="9.2069217"><ele>470.0</ele><time>2026-04-24T09:01:49.506Z</time></trkpt><trkpt lat="39.7442767" lon="9.2068967"><ele>470.0</ele><time>2026-04-24T09:01:50.506Z</time></trkpt><trkpt lat="39.744385" lon="9.2068383"><ele>470.0</ele><time>2026-04-24T09:01:51.506Z</time></trkpt><trkpt lat="39.7444733" lon="9.206735"><ele>470.0</ele><time>2026-04-24T09:01:52.507Z</time></trkpt><trkpt lat="39.7445483" lon="9.2066033"><ele>469.3333333333333</ele><time>2026-04-24T09:01:53.506Z</time></trkpt><trkpt lat="39.7446183" lon="9.206455"><ele>468.66666666666663</ele><time>2026-04-24T09:01:54.507Z</time></trkpt><trkpt lat="39.7446783" lon="9.2061383"><ele>468.0</ele><time>2026-04-24T09:01:56.506Z</time></trkpt><trkpt lat="39.7446617" lon="9.205985"><ele>468.0</ele><time>2026-04-24T09:01:57.507Z</time></trkpt><trkpt lat="39.7446267" lon="9.2058417"><ele>468.0</ele><time>2026-04-24T09:01:58.506Z</time></trkpt><trkpt lat="39.7446067" lon="9.2056967"><ele>468.0</ele><time>2026-04-24T09:01:59.506Z</time></trkpt><trkpt lat="39.74461" lon="9.20554"><ele>468.0</ele><time>2026-04-24T09:02:00.506Z</time></trkpt><trkpt lat="39.7446517" lon="9.20538"><ele>467.75</ele><time>2026-04-24T09:02:01.507Z</time></trkpt><trkpt lat="39.7447133" lon="9.2052167"><ele>467.5</ele><time>2026-04-24T09:02:02.506Z</time></trkpt><trkpt lat="39.74477" lon="9.20505"><ele>467.25</ele><time>2026-04-24T09:02:03.507Z</time></trkpt><trkpt lat="39.7447983" lon="9.2048783"><ele>467.0</ele><time>2026-04-24T09:02:04.507Z</time></trkpt><trkpt lat="39.7447917" lon="9.2047183"><ele>465.5</ele><time>2026-04-24T09:02:05.507Z</time></trkpt><trkpt lat="39.7447517" lon="9.2045683"><ele>464.0</ele><time>2026-04-24T09:02:06.507Z</time></trkpt><trkpt lat="39.7446933" lon="9.20443"><ele>462.5</ele><time>2026-04-24T09:02:07.506Z</time></trkpt><trkpt lat="39.7446183" lon="9.204305"><ele>461.0</ele><time>2026-04-24T09:02:08.507Z</time></trkpt><trkpt lat="39.7445417" lon="9.20417"><ele>461.0</ele><time>2026-04-24T09:02:09.506Z</time></trkpt><trkpt lat="39.74449" lon="9.2040367"><ele>461.0</ele><time>2026-04-24T09:02:10.506Z</time></trkpt><trkpt lat="39.74447" lon="9.2039067"><ele>461.0</ele><time>2026-04-24T09:02:11.507Z</time></trkpt><trkpt lat="39.7444883" lon="9.2037917"><ele>461.0</ele><time>2026-04-24T09:02:12.506Z</time></trkpt><trkpt lat="39.7445417" lon="9.2036917"><ele>461.0</ele><time>2026-04-24T09:02:13.506Z</time></trkpt><trkpt lat="39.7446217" lon="9.2036417"><ele>459.25</ele><time>2026-04-24T09:02:14.507Z</time></trkpt><trkpt lat="39.74472" lon="9.20364"><ele>457.5</ele><time>2026-04-24T09:02:15.506Z</time></trkpt><trkpt lat="39.7449567" lon="9.2036717"><ele>455.75</ele><time>2026-04-24T09:02:17.507Z</time></trkpt><trkpt lat="39.7450633" lon="9.2036583"><ele>454.0</ele><time>2026-04-24T09:02:18.507Z</time></trkpt><trkpt lat="39.74515" lon="9.203605"><ele>452.79999999999995</ele><time>2026-04-24T09:02:19.507Z</time></trkpt><trkpt lat="39.74522" lon="9.2035117"><ele>451.59999999999997</ele><time>2026-04-24T09:02:20.507Z</time></trkpt><trkpt lat="39.7452617" lon="9.2033883"><ele>450.4</ele><time>2026-04-24T09:02:21.507Z</time></trkpt><trkpt lat="39.7453" lon="9.203245"><ele>449.2</ele><time>2026-04-24T09:02:22.506Z</time></trkpt><trkpt lat="39.7453433" lon="9.2031133"><ele>448.0</ele><time>2026-04-24T09:02:23.506Z</time></trkpt><trkpt lat="39.745405" lon="9.20301"><ele>448.0</ele><time>2026-04-24T09:02:24.506Z</time></trkpt><trkpt lat="39.7454767" lon="9.2029417"><ele>447.99999999999994</ele><time>2026-04-24T09:02:25.506Z</time></trkpt><trkpt lat="39.74556" lon="9.2029317"><ele>447.99999999999994</ele><time>2026-04-24T09:02:26.507Z</time></trkpt><trkpt lat="39.745635" lon="9.2029767"><ele>448.0</ele><time>2026-04-24T09:02:27.506Z</time></trkpt><trkpt lat="39.7457" lon="9.2030567"><ele>448.0</ele><time>2026-04-24T09:02:28.507Z</time></trkpt><trkpt lat="39.7457517" lon="9.203185"><ele>448.0</ele><time>2026-04-24T09:02:29.506Z</time></trkpt><trkpt lat="39.7457833" lon="9.2033467"><ele>448.0</ele><time>2026-04-24T09:02:30.507Z</time></trkpt><trkpt lat="39.7458017" lon="9.203515"><ele>448.0</ele><time>2026-04-24T09:02:31.506Z</time></trkpt><trkpt lat="39.74582" lon="9.2036667"><ele>448.0</ele><time>2026-04-24T09:02:32.507Z</time></trkpt><trkpt lat="39.7458533" lon="9.2037917"><ele>448.0</ele><time>2026-04-24T09:02:33.506Z</time></trkpt><trkpt lat="39.7458983" lon="9.20393"><ele>448.0</ele><time>2026-04-24T09:02:34.507Z</time></trkpt><trkpt lat="39.7459583" lon="9.2040717"><ele>448.0</ele><time>2026-04-24T09:02:35.506Z</time></trkpt><trkpt lat="39.746045" lon="9.2041933"><ele>448.0</ele><time>2026-04-24T09:02:36.507Z</time></trkpt><trkpt lat="39.7462767" lon="9.2043533"><ele>447.2</ele><time>2026-04-24T09:02:38.506Z</time></trkpt><trkpt lat="39.7464" lon="9.20439"><ele>446.4</ele><time>2026-04-24T09:02:39.506Z</time></trkpt><trkpt lat="39.7465133" lon="9.2044167"><ele>445.59999999999997</ele><time>2026-04-24T09:02:40.506Z</time></trkpt><trkpt lat="39.7466133" lon="9.2044367"><ele>444.79999999999995</ele><time>2026-04-24T09:02:41.507Z</time></trkpt><trkpt lat="39.7467017" lon="9.20443"><ele>444.0</ele><time>2026-04-24T09:02:42.507Z</time></trkpt><trkpt lat="39.7467817" lon="9.204385"><ele>444.0</ele><time>2026-04-24T09:02:43.507Z</time></trkpt><trkpt lat="39.7468417" lon="9.2043067"><ele>444.0</ele><time>2026-04-24T09:02:44.506Z</time></trkpt><trkpt lat="39.7468833" lon="9.20419"><ele>444.0</ele><time>2026-04-24T09:02:45.506Z</time></trkpt><trkpt lat="39.746875" lon="9.2040383"><ele>444.0</ele><time>2026-04-24T09:02:46.506Z</time></trkpt><trkpt lat="39.7468583" lon="9.2038717"><ele>444.0</ele><time>2026-04-24T09:02:47.506Z</time></trkpt><trkpt lat="39.746845" lon="9.2037017"><ele>443.0</ele><time>2026-04-24T09:02:48.506Z</time></trkpt><trkpt lat="39.7468317" lon="9.203525"><ele>442.0</ele><time>2026-04-24T09:02:49.506Z</time></trkpt><trkpt lat="39.7468233" lon="9.2033383"><ele>441.0</ele><time>2026-04-24T09:02:50.506Z</time></trkpt><trkpt lat="39.7468217" lon="9.2031567"><ele>440.0</ele><time>2026-04-24T09:02:51.506Z</time></trkpt><trkpt lat="39.7468333" lon="9.2029933"><ele>439.0</ele><time>2026-04-24T09:02:52.506Z</time></trkpt><trkpt lat="39.7468733" lon="9.20284"><ele>438.0</ele><time>2026-04-24T09:02:53.507Z</time></trkpt><trkpt lat="39.7469417" lon="9.2027"><ele>437.0</ele><time>2026-04-24T09:02:54.506Z</time></trkpt><trkpt lat="39.7470283" lon="9.2025767"><ele>436.0</ele><time>2026-04-24T09:02:55.506Z</time></trkpt><trkpt lat="39.7471" lon="9.2024267"><ele>432.0</ele><time>2026-04-24T09:02:56.507Z</time></trkpt><trkpt lat="39.7471567" lon="9.20225"><ele>428.0</ele><time>2026-04-24T09:02:57.507Z</time></trkpt><trkpt lat="39.74723" lon="9.2018433"><ele>428.0</ele><time>2026-04-24T09:02:59.506Z</time></trkpt><trkpt lat="39.747245" lon="9.2016267"><ele>428.0</ele><time>2026-04-24T09:03:00.507Z</time></trkpt><trkpt lat="39.7472467" lon="9.2014117"><ele>428.0</ele><time>2026-04-24T09:03:01.507Z</time></trkpt><trkpt lat="39.7472467" lon="9.201205"><ele>428.0</ele><time>2026-04-24T09:03:02.506Z</time></trkpt><trkpt lat="39.747255" lon="9.2010117"><ele>428.0</ele><time>2026-04-24T09:03:03.507Z</time></trkpt><trkpt lat="39.7472867" lon="9.20083"><ele>428.0</ele><time>2026-04-24T09:03:04.507Z</time></trkpt><trkpt lat="39.7473433" lon="9.2006567"><ele>428.0</ele><time>2026-04-24T09:03:05.507Z</time></trkpt><trkpt lat="39.7474083" lon="9.2005"><ele>427.75</ele><time>2026-04-24T09:03:06.507Z</time></trkpt><trkpt lat="39.7474717" lon="9.2003533"><ele>427.5</ele><time>2026-04-24T09:03:07.507Z</time></trkpt><trkpt lat="39.7475317" lon="9.200215"><ele>427.25</ele><time>2026-04-24T09:03:08.507Z</time></trkpt><trkpt lat="39.7475767" lon="9.200075"><ele>427.0</ele><time>2026-04-24T09:03:09.507Z</time></trkpt><trkpt lat="39.747605" lon="9.1999283"><ele>425.6</ele><time>2026-04-24T09:03:10.506Z</time></trkpt><trkpt lat="39.747595" lon="9.1997883"><ele>424.20000000000005</ele><time>2026-04-24T09:03:11.506Z</time></trkpt><trkpt lat="39.7475583" lon="9.199655"><ele>422.8</ele><time>2026-04-24T09:03:12.506Z</time></trkpt><trkpt lat="39.7475033" lon="9.19953"><ele>421.4</ele><time>2026-04-24T09:03:13.506Z</time></trkpt><trkpt lat="39.7474483" lon="9.1994333"><ele>420.0</ele><time>2026-04-24T09:03:14.506Z</time></trkpt><trkpt lat="39.7474067" lon="9.1993483"><ele>420.0</ele><time>2026-04-24T09:03:15.507Z</time></trkpt><trkpt lat="39.7473817" lon="9.1992567"><ele>420.0</ele><time>2026-04-24T09:03:16.507Z</time></trkpt><trkpt lat="39.7473867" lon="9.1991717"><ele>420.0</ele><time>2026-04-24T09:03:17.506Z</time></trkpt><trkpt lat="39.7474233" lon="9.1991"><ele>420.0</ele><time>2026-04-24T09:03:18.506Z</time></trkpt><trkpt lat="39.7476033" lon="9.1992267"><ele>420.0</ele><time>2026-04-24T09:03:21.507Z</time></trkpt><trkpt lat="39.74764" lon="9.1993667"><ele>420.0</ele><time>2026-04-24T09:03:22.506Z</time></trkpt><trkpt lat="39.7476733" lon="9.1995083"><ele>420.0</ele><time>2026-04-24T09:03:23.506Z</time></trkpt><trkpt lat="39.747725" lon="9.1996617"><ele>420.0</ele><time>2026-04-24T09:03:24.507Z</time></trkpt><trkpt lat="39.7478017" lon="9.1998117"><ele>420.0</ele><time>2026-04-24T09:03:25.506Z</time></trkpt><trkpt lat="39.747895" lon="9.1999367"><ele>419.0</ele><time>2026-04-24T09:03:26.506Z</time></trkpt><trkpt lat="39.74799" lon="9.20003"><ele>418.0</ele><time>2026-04-24T09:03:27.506Z</time></trkpt><trkpt lat="39.748095" lon="9.2000883"><ele>417.0</ele><time>2026-04-24T09:03:28.506Z</time></trkpt><trkpt lat="39.7481967" lon="9.2001183"><ele>416.0</ele><time>2026-04-24T09:03:29.507Z</time></trkpt><trkpt lat="39.7482867" lon="9.20014"><ele>415.0</ele><time>2026-04-24T09:03:30.507Z</time></trkpt><trkpt lat="39.7483733" lon="9.2001967"><ele>415.0</ele><time>2026-04-24T09:03:31.506Z</time></trkpt><trkpt lat="39.748435" lon="9.2002967"><ele>415.0</ele><time>2026-04-24T09:03:32.507Z</time></trkpt><trkpt lat="39.7484733" lon="9.2004333"><ele>415.0</ele><time>2026-04-24T09:03:33.506Z</time></trkpt><trkpt lat="39.7485" lon="9.200575"><ele>415.0</ele><time>2026-04-24T09:03:34.506Z</time></trkpt><trkpt lat="39.7485417" lon="9.2007233"><ele>415.0</ele><time>2026-04-24T09:03:35.507Z</time></trkpt><trkpt lat="39.748615" lon="9.2008617"><ele>412.75</ele><time>2026-04-24T09:03:36.507Z</time></trkpt><trkpt lat="39.748705" lon="9.2009817"><ele>410.5</ele><time>2026-04-24T09:03:37.506Z</time></trkpt><trkpt lat="39.7488017" lon="9.201085"><ele>408.25</ele><time>2026-04-24T09:03:38.506Z</time></trkpt><trkpt lat="39.7488917" lon="9.2012033"><ele>406.0</ele><time>2026-04-24T09:03:39.506Z</time></trkpt><trkpt lat="39.7490167" lon="9.2014917"><ele>406.5</ele><time>2026-04-24T09:03:41.507Z</time></trkpt><trkpt lat="39.7490567" lon="9.201655"><ele>407.0</ele><time>2026-04-24T09:03:42.507Z</time></trkpt><trkpt lat="39.7490833" lon="9.20183"><ele>407.5</ele><time>2026-04-24T09:03:43.507Z</time></trkpt><trkpt lat="39.749115" lon="9.2019933"><ele>408.0</ele><time>2026-04-24T09:03:44.507Z</time></trkpt><trkpt lat="39.74915" lon="9.202155"><ele>408.0</ele><time>2026-04-24T09:03:45.506Z</time></trkpt><trkpt lat="39.749195" lon="9.2023"><ele>408.0</ele><time>2026-04-24T09:03:46.507Z</time></trkpt><trkpt lat="39.7492683" lon="9.2024367"><ele>408.0</ele><time>2026-04-24T09:03:47.506Z</time></trkpt><trkpt lat="39.7493617" lon="9.2025533"><ele>408.0</ele><time>2026-04-24T09:03:48.507Z</time></trkpt><trkpt lat="39.7494717" lon="9.2026483"><ele>404.75</ele><time>2026-04-24T09:03:49.507Z</time></trkpt><trkpt lat="39.7495967" lon="9.2027167"><ele>401.5</ele><time>2026-04-24T09:03:50.506Z</time></trkpt><trkpt lat="39.7497233" lon="9.20277"><ele>398.25</ele><time>2026-04-24T09:03:51.507Z</time></trkpt><trkpt lat="39.749855" lon="9.2028217"><ele>395.0</ele><time>2026-04-24T09:03:52.507Z</time></trkpt><trkpt lat="39.74999" lon="9.202875"><ele>395.0</ele><time>2026-04-24T09:03:53.506Z</time></trkpt><trkpt lat="39.7501083" lon="9.2029533"><ele>395.0</ele><time>2026-04-24T09:03:54.507Z</time></trkpt><trkpt lat="39.7502217" lon="9.2030633"><ele>395.0</ele><time>2026-04-24T09:03:55.507Z</time></trkpt><trkpt lat="39.7503083" lon="9.2032017"><ele>395.0</ele><time>2026-04-24T09:03:56.506Z</time></trkpt><trkpt lat="39.750375" lon="9.2033633"><ele>392.5</ele><time>2026-04-24T09:03:57.507Z</time></trkpt><trkpt lat="39.75044" lon="9.2035217"><ele>390.0</ele><time>2026-04-24T09:03:58.506Z</time></trkpt><trkpt lat="39.75051" lon="9.20367"><ele>387.5</ele><time>2026-04-24T09:03:59.506Z</time></trkpt><trkpt lat="39.7505767" lon="9.2038133"><ele>385.0</ele><time>2026-04-24T09:04:00.507Z</time></trkpt><trkpt lat="39.7506633" lon="9.2041033"><ele>385.0</ele><time>2026-04-24T09:04:02.507Z</time></trkpt><trkpt lat="39.750655" lon="9.2042617"><ele>385.0</ele><time>2026-04-24T09:04:03.507Z</time></trkpt><trkpt lat="39.750615" lon="9.204415"><ele>385.0</ele><time>2026-04-24T09:04:04.507Z</time></trkpt><trkpt lat="39.75054" lon="9.2045617"><ele>385.0</ele><time>2026-04-24T09:04:05.506Z</time></trkpt><trkpt lat="39.75044" lon="9.2046783"><ele>385.0</ele><time>2026-04-24T09:04:06.507Z</time></trkpt><trkpt lat="39.7503267" lon="9.2047917"><ele>385.0</ele><time>2026-04-24T09:04:07.506Z</time></trkpt><trkpt lat="39.7502183" lon="9.2049"><ele>385.0</ele><time>2026-04-24T09:04:08.507Z</time></trkpt><trkpt lat="39.750115" lon="9.205005"><ele>385.0</ele><time>2026-04-24T09:04:09.507Z</time></trkpt><trkpt lat="39.75003" lon="9.20511"><ele>386.6</ele><time>2026-04-24T09:04:10.506Z</time></trkpt><trkpt lat="39.7499733" lon="9.20523"><ele>388.2</ele><time>2026-04-24T09:04:11.506Z</time></trkpt><trkpt lat="39.7499517" lon="9.20537"><ele>389.79999999999995</ele><time>2026-04-24T09:04:12.507Z</time></trkpt><trkpt lat="39.74996" lon="9.2054867"><ele>391.4</ele><time>2026-04-24T09:04:13.506Z</time></trkpt><trkpt lat="39.7500117" lon="9.2055917"><ele>393.0</ele><time>2026-04-24T09:04:14.506Z</time></trkpt><trkpt lat="39.75011" lon="9.2056733"><ele>390.25</ele><time>2026-04-24T09:04:15.506Z</time></trkpt><trkpt lat="39.750225" lon="9.2057367"><ele>387.5</ele><time>2026-04-24T09:04:16.506Z</time></trkpt><trkpt lat="39.7503517" lon="9.205795"><ele>384.75</ele><time>2026-04-24T09:04:17.506Z</time></trkpt><trkpt lat="39.7504883" lon="9.205845"><ele>382.0</ele><time>2026-04-24T09:04:18.507Z</time></trkpt><trkpt lat="39.7506283" lon="9.2058783"><ele>382.0</ele><time>2026-04-24T09:04:19.507Z</time></trkpt><trkpt lat="39.7507683" lon="9.2059083"><ele>382.0</ele><time>2026-04-24T09:04:20.506Z</time></trkpt><trkpt lat="39.75091" lon="9.2059467"><ele>382.0</ele><time>2026-04-24T09:04:21.507Z</time></trkpt><trkpt lat="39.7511933" lon="9.2061133"><ele>378.66666666666663</ele><time>2026-04-24T09:04:23.507Z</time></trkpt><trkpt lat="39.7513317" lon="9.20624"><ele>375.3333333333333</ele><time>2026-04-24T09:04:24.506Z</time></trkpt><trkpt lat="39.7514583" lon="9.2063633"><ele>372.0</ele><time>2026-04-24T09:04:25.507Z</time></trkpt><trkpt lat="39.7515933" lon="9.2064717"><ele>371.25</ele><time>2026-04-24T09:04:26.506Z</time></trkpt><trkpt lat="39.7517217" lon="9.2065583"><ele>370.5</ele><time>2026-04-24T09:04:27.507Z</time></trkpt><trkpt lat="39.7518483" lon="9.2066267"><ele>369.75</ele><time>2026-04-24T09:04:28.507Z</time></trkpt><trkpt lat="39.75197" lon="9.2067183"><ele>369.0</ele><time>2026-04-24T09:04:29.506Z</time></trkpt><trkpt lat="39.7520617" lon="9.2068483"><ele>369.0</ele><time>2026-04-24T09:04:30.506Z</time></trkpt><trkpt lat="39.7521417" lon="9.206985"><ele>369.0</ele><time>2026-04-24T09:04:31.506Z</time></trkpt><trkpt lat="39.7522433" lon="9.20712"><ele>369.0</ele><time>2026-04-24T09:04:32.507Z</time></trkpt><trkpt lat="39.7523583" lon="9.2072233"><ele>369.0</ele><time>2026-04-24T09:04:33.506Z</time></trkpt><trkpt lat="39.7524833" lon="9.2073"><ele>369.0</ele><time>2026-04-24T09:04:34.506Z</time></trkpt><trkpt lat="39.75261" lon="9.2073517"><ele>369.0</ele><time>2026-04-24T09:04:35.507Z</time></trkpt><trkpt lat="39.7527267" lon="9.2074233"><ele>369.0</ele><time>2026-04-24T09:04:36.506Z</time></trkpt><trkpt lat="39.7528383" lon="9.20752"><ele>369.0</ele><time>2026-04-24T09:04:37.506Z</time></trkpt><trkpt lat="39.7529617" lon="9.2076317"><ele>369.0</ele><time>2026-04-24T09:04:38.507Z</time></trkpt><trkpt lat="39.7530933" lon="9.207745"><ele>369.0</ele><time>2026-04-24T09:04:39.507Z</time></trkpt><trkpt lat="39.7532183" lon="9.2078417"><ele>369.0</ele><time>2026-04-24T09:04:40.506Z</time></trkpt><trkpt lat="39.7533417" lon="9.2079317"><ele>369.0</ele><time>2026-04-24T09:04:41.507Z</time></trkpt><trkpt lat="39.75346" lon="9.2080017"><ele>369.0</ele><time>2026-04-24T09:04:42.506Z</time></trkpt><trkpt lat="39.75368" lon="9.2081333"><ele>369.0</ele><time>2026-04-24T09:04:44.507Z</time></trkpt><trkpt lat="39.7537767" lon="9.208185"><ele>369.0</ele><time>2026-04-24T09:04:45.506Z</time></trkpt><trkpt lat="39.7538717" lon="9.2082267"><ele>369.0</ele><time>2026-04-24T09:04:46.506Z</time></trkpt><trkpt lat="39.7539667" lon="9.2082383"><ele>368.4</ele><time>2026-04-24T09:04:47.507Z</time></trkpt><trkpt lat="39.7540633" lon="9.2082433"><ele>367.79999999999995</ele><time>2026-04-24T09:04:48.507Z</time></trkpt><trkpt lat="39.7541633" lon="9.2082283"><ele>367.20000000000005</ele><time>2026-04-24T09:04:49.506Z</time></trkpt><trkpt lat="39.7542633" lon="9.2082133"><ele>366.6</ele><time>2026-04-24T09:04:50.507Z</time></trkpt><trkpt lat="39.75436" lon="9.2082083"><ele>366.0</ele><time>2026-04-24T09:04:51.507Z</time></trkpt><trkpt lat="39.75446" lon="9.2082183"><ele>368.20000000000005</ele><time>2026-04-24T09:04:52.506Z</time></trkpt><trkpt lat="39.75456" lon="9.2082517"><ele>370.40000000000003</ele><time>2026-04-24T09:04:53.506Z</time></trkpt><trkpt lat="39.7546583" lon="9.2082983"><ele>372.6</ele><time>2026-04-24T09:04:54.507Z</time></trkpt><trkpt lat="39.7547433" lon="9.20836"><ele>374.8</ele><time>2026-04-24T09:04:55.507Z</time></trkpt><trkpt lat="39.75481" lon="9.2084283"><ele>377.0</ele><time>2026-04-24T09:04:56.507Z</time></trkpt><trkpt lat="39.7548667" lon="9.20851"><ele>377.0</ele><time>2026-04-24T09:04:57.506Z</time></trkpt><trkpt lat="39.7549067" lon="9.2086117"><ele>377.0</ele><time>2026-04-24T09:04:58.506Z</time></trkpt><trkpt lat="39.7549317" lon="9.2087283"><ele>377.0</ele><time>2026-04-24T09:04:59.506Z</time></trkpt><trkpt lat="39.75495" lon="9.2088783"><ele>377.0</ele><time>2026-04-24T09:05:00.506Z</time></trkpt><trkpt lat="39.7549733" lon="9.2090383"><ele>377.0</ele><time>2026-04-24T09:05:01.506Z</time></trkpt><trkpt lat="39.754995" lon="9.2091983"><ele>375.25</ele><time>2026-04-24T09:05:02.506Z</time></trkpt><trkpt lat="39.75502" lon="9.2093383"><ele>373.5</ele><time>2026-04-24T09:05:03.506Z</time></trkpt><trkpt lat="39.7551267" lon="9.2095567"><ele>371.75</ele><time>2026-04-24T09:05:05.507Z</time></trkpt><trkpt lat="39.755215" lon="9.2096133"><ele>370.0</ele><time>2026-04-24T09:05:06.506Z</time></trkpt><trkpt lat="39.7553167" lon="9.2096167"><ele>370.0</ele><time>2026-04-24T09:05:07.506Z</time></trkpt><trkpt lat="39.75542" lon="9.2095767"><ele>370.0</ele><time>2026-04-24T09:05:08.507Z</time></trkpt><trkpt lat="39.7555117" lon="9.2095"><ele>370.0</ele><time>2026-04-24T09:05:09.507Z</time></trkpt><trkpt lat="39.7556033" lon="9.2094033"><ele>370.0</ele><time>2026-04-24T09:05:10.507Z</time></trkpt><trkpt lat="39.7556983" lon="9.2093133"><ele>370.0</ele><time>2026-04-24T09:05:11.506Z</time></trkpt><trkpt lat="39.7557833" lon="9.20926"><ele>370.0</ele><time>2026-04-24T09:05:12.507Z</time></trkpt><trkpt lat="39.755865" lon="9.2092567"><ele>370.0</ele><time>2026-04-24T09:05:13.507Z</time></trkpt><trkpt lat="39.7559267" lon="9.2093083"><ele>370.0</ele><time>2026-04-24T09:05:14.506Z</time></trkpt><trkpt lat="39.7559617" lon="9.2094017"><ele>370.0</ele><time>2026-04-24T09:05:15.506Z</time></trkpt><trkpt lat="39.7559683" lon="9.2095233"><ele>370.0</ele><time>2026-04-24T09:05:16.506Z</time></trkpt><trkpt lat="39.75594" lon="9.209665"><ele>370.0</ele><time>2026-04-24T09:05:17.507Z</time></trkpt><trkpt lat="39.755905" lon="9.2098083"><ele>370.0</ele><time>2026-04-24T09:05:18.506Z</time></trkpt><trkpt lat="39.7558767" lon="9.2099533"><ele>370.0</ele><time>2026-04-24T09:05:19.507Z</time></trkpt><trkpt lat="39.7558617" lon="9.21009"><ele>370.0</ele><time>2026-04-24T09:05:20.506Z</time></trkpt><trkpt lat="39.7558567" lon="9.2102233"><ele>370.0</ele><time>2026-04-24T09:05:21.507Z</time></trkpt><trkpt lat="39.755875" lon="9.2103333"><ele>369.0</ele><time>2026-04-24T09:05:22.507Z</time></trkpt><trkpt lat="39.7559283" lon="9.21042"><ele>368.0</ele><time>2026-04-24T09:05:23.507Z</time></trkpt><trkpt lat="39.7560083" lon="9.21047"><ele>367.0</ele><time>2026-04-24T09:05:24.506Z</time></trkpt><trkpt lat="39.7562267" lon="9.210475"><ele>366.0</ele><time>2026-04-24T09:05:26.506Z</time></trkpt><trkpt lat="39.7563617" lon="9.210455"><ele>369.75</ele><time>2026-04-24T09:05:27.506Z</time></trkpt><trkpt lat="39.756495" lon="9.210445"><ele>373.5</ele><time>2026-04-24T09:05:28.507Z</time></trkpt><trkpt lat="39.756635" lon="9.2104567"><ele>377.25</ele><time>2026-04-24T09:05:29.506Z</time></trkpt><trkpt lat="39.7567783" lon="9.2104983"><ele>381.0</ele><time>2026-04-24T09:05:30.507Z</time></trkpt><trkpt lat="39.7569133" lon="9.2105733"><ele>379.6666666666667</ele><time>2026-04-24T09:05:31.507Z</time></trkpt><trkpt lat="39.7570467" lon="9.2106733"><ele>378.33333333333337</ele><time>2026-04-24T09:05:32.507Z</time></trkpt><trkpt lat="39.7571617" lon="9.2108033"><ele>377.0</ele><time>2026-04-24T09:05:33.507Z</time></trkpt><trkpt lat="39.757265" lon="9.2109533"><ele>377.0</ele><time>2026-04-24T09:05:34.507Z</time></trkpt><trkpt lat="39.7573517" lon="9.2110933"><ele>377.0</ele><time>2026-04-24T09:05:35.506Z</time></trkpt><trkpt lat="39.757425" lon="9.21123"><ele>377.0</ele><time>2026-04-24T09:05:36.506Z</time></trkpt><trkpt lat="39.7574917" lon="9.211365"><ele>377.0</ele><time>2026-04-24T09:05:37.507Z</time></trkpt><trkpt lat="39.75757" lon="9.2114783"><ele>373.5</ele><time>2026-04-24T09:05:38.507Z</time></trkpt><trkpt lat="39.7576733" lon="9.2115517"><ele>370.0</ele><time>2026-04-24T09:05:39.507Z</time></trkpt><trkpt lat="39.7578017" lon="9.21158"><ele>366.5</ele><time>2026-04-24T09:05:40.507Z</time></trkpt><trkpt lat="39.7579233" lon="9.2115683"><ele>363.0</ele><time>2026-04-24T09:05:41.507Z</time></trkpt><trkpt lat="39.7580633" lon="9.211525"><ele>365.5</ele><time>2026-04-24T09:05:42.507Z</time></trkpt><trkpt lat="39.758195" lon="9.2114833"><ele>368.0</ele><time>2026-04-24T09:05:43.506Z</time></trkpt><trkpt lat="39.7583333" lon="9.2114667"><ele>370.5</ele><time>2026-04-24T09:05:44.507Z</time></trkpt><trkpt lat="39.7584767" lon="9.2114883"><ele>373.0</ele><time>2026-04-24T09:05:45.506Z</time></trkpt><trkpt lat="39.75875" lon="9.2116083"><ele>373.0</ele><time>2026-04-24T09:05:47.506Z</time></trkpt><trkpt lat="39.758875" lon="9.21167"><ele>373.0</ele><time>2026-04-24T09:05:48.507Z</time></trkpt><trkpt lat="39.7589867" lon="9.2117367"><ele>373.0</ele><time>2026-04-24T09:05:49.506Z</time></trkpt><trkpt lat="39.759095" lon="9.2118283"><ele>373.0</ele><time>2026-04-24T09:05:50.507Z</time></trkpt><trkpt lat="39.7591767" lon="9.21195"><ele>373.0</ele><time>2026-04-24T09:05:51.506Z</time></trkpt><trkpt lat="39.7592417" lon="9.212095"><ele>373.0</ele><time>2026-04-24T09:05:52.506Z</time></trkpt><trkpt lat="39.7592933" lon="9.2122533"><ele>373.0</ele><time>2026-04-24T09:05:53.507Z</time></trkpt><trkpt lat="39.7593183" lon="9.2124167"><ele>373.0</ele><time>2026-04-24T09:05:54.506Z</time></trkpt><trkpt lat="39.7593383" lon="9.212575"><ele>370.25</ele><time>2026-04-24T09:05:55.506Z</time></trkpt><trkpt lat="39.75938" lon="9.21272"><ele>367.5</ele><time>2026-04-24T09:05:56.506Z</time></trkpt><trkpt lat="39.759445" lon="9.2128517"><ele>364.75</ele><time>2026-04-24T09:05:57.506Z</time></trkpt><trkpt lat="39.7595467" lon="9.21294"><ele>362.0</ele><time>2026-04-24T09:05:58.507Z</time></trkpt><trkpt lat="39.7596533" lon="9.2130017"><ele>362.0</ele><time>2026-04-24T09:05:59.507Z</time></trkpt><trkpt lat="39.7597633" lon="9.213"><ele>362.0</ele><time>2026-04-24T09:06:00.507Z</time></trkpt><trkpt lat="39.7598733" lon="9.2129617"><ele>362.0</ele><time>2026-04-24T09:06:01.506Z</time></trkpt><trkpt lat="39.7599517" lon="9.2128667"><ele>362.0</ele><time>2026-04-24T09:06:02.507Z</time></trkpt><trkpt lat="39.7600117" lon="9.21273"><ele>362.0</ele><time>2026-04-24T09:06:03.506Z</time></trkpt><trkpt lat="39.76006" lon="9.212575"><ele>362.0</ele><time>2026-04-24T09:06:04.506Z</time></trkpt><trkpt lat="39.7601083" lon="9.2124067"><ele>362.0</ele><time>2026-04-24T09:06:05.506Z</time></trkpt><trkpt lat="39.7601583" lon="9.21222"><ele>362.0</ele><time>2026-04-24T09:06:06.506Z</time></trkpt><trkpt lat="39.760265" lon="9.2118083"><ele>360.0</ele><time>2026-04-24T09:06:08.506Z</time></trkpt><trkpt lat="39.760315" lon="9.211595"><ele>358.0</ele><time>2026-04-24T09:06:09.506Z</time></trkpt><trkpt lat="39.7603683" lon="9.2113817"><ele>356.0</ele><time>2026-04-24T09:06:10.507Z</time></trkpt><trkpt lat="39.760425" lon="9.211175"><ele>356.0</ele><time>2026-04-24T09:06:11.507Z</time></trkpt><trkpt lat="39.7604983" lon="9.2109867"><ele>356.0</ele><time>2026-04-24T09:06:12.507Z</time></trkpt><trkpt lat="39.7605883" lon="9.2108217"><ele>356.0</ele><time>2026-04-24T09:06:13.506Z</time></trkpt><trkpt lat="39.7606817" lon="9.2106633"><ele>357.25</ele><time>2026-04-24T09:06:14.506Z</time></trkpt><trkpt lat="39.7607683" lon="9.2105217"><ele>358.5</ele><time>2026-04-24T09:06:15.506Z</time></trkpt><trkpt lat="39.7608633" lon="9.2103917"><ele>359.75</ele><time>2026-04-24T09:06:16.507Z</time></trkpt><trkpt lat="39.760965" lon="9.2102883"><ele>361.0</ele><time>2026-04-24T09:06:17.506Z</time></trkpt><trkpt lat="39.7610883" lon="9.2102167"><ele>361.0</ele><time>2026-04-24T09:06:18.507Z</time></trkpt><trkpt lat="39.7612067" lon="9.2101717"><ele>361.0</ele><time>2026-04-24T09:06:19.506Z</time></trkpt><trkpt lat="39.7613233" lon="9.210155"><ele>361.0</ele><time>2026-04-24T09:06:20.507Z</time></trkpt><trkpt lat="39.7614367" lon="9.210185"><ele>361.0</ele><time>2026-04-24T09:06:21.506Z</time></trkpt><trkpt lat="39.7615383" lon="9.2102567"><ele>361.0</ele><time>2026-04-24T09:06:22.507Z</time></trkpt><trkpt lat="39.7616167" lon="9.2103583"><ele>361.0</ele><time>2026-04-24T09:06:23.507Z</time></trkpt><trkpt lat="39.7616717" lon="9.2105017"><ele>361.0</ele><time>2026-04-24T09:06:24.507Z</time></trkpt><trkpt lat="39.7616967" lon="9.210655"><ele>361.0</ele><time>2026-04-24T09:06:25.506Z</time></trkpt><trkpt lat="39.76171" lon="9.2108183"><ele>359.0</ele><time>2026-04-24T09:06:26.506Z</time></trkpt><trkpt lat="39.76172" lon="9.2110033"><ele>357.0</ele><time>2026-04-24T09:06:27.506Z</time></trkpt><trkpt lat="39.7617617" lon="9.21138"><ele>355.0</ele><time>2026-04-24T09:06:29.506Z</time></trkpt><trkpt lat="39.761775" lon="9.211545"><ele>355.0</ele><time>2026-04-24T09:06:30.506Z</time></trkpt><trkpt lat="39.7617867" lon="9.2117017"><ele>355.0</ele><time>2026-04-24T09:06:31.506Z</time></trkpt><trkpt lat="39.76182" lon="9.21184"><ele>355.0</ele><time>2026-04-24T09:06:32.506Z</time></trkpt><trkpt lat="39.7618817" lon="9.2119683"><ele>355.0</ele><time>2026-04-24T09:06:33.506Z</time></trkpt><trkpt lat="39.7619683" lon="9.2120833"><ele>357.0</ele><time>2026-04-24T09:06:34.506Z</time></trkpt><trkpt lat="39.7620783" lon="9.2121817"><ele>359.0</ele><time>2026-04-24T09:06:35.506Z</time></trkpt><trkpt lat="39.762205" lon="9.2122767"><ele>361.0</ele><time>2026-04-24T09:06:36.507Z</time></trkpt><trkpt lat="39.7623167" lon="9.2123783"><ele>363.0</ele><time>2026-04-24T09:06:37.506Z</time></trkpt><trkpt lat="39.7624183" lon="9.2124917"><ele>363.0</ele><time>2026-04-24T09:06:38.506Z</time></trkpt><trkpt lat="39.762505" lon="9.21263"><ele>363.0</ele><time>2026-04-24T09:06:39.507Z</time></trkpt><trkpt lat="39.7625733" lon="9.2127867"><ele>363.0</ele><time>2026-04-24T09:06:40.507Z</time></trkpt><trkpt lat="39.7626383" lon="9.21295"><ele>363.0</ele><time>2026-04-24T09:06:41.506Z</time></trkpt><trkpt lat="39.762705" lon="9.2131217"><ele>366.25</ele><time>2026-04-24T09:06:42.506Z</time></trkpt><trkpt lat="39.76277" lon="9.213295"><ele>369.5</ele><time>2026-04-24T09:06:43.506Z</time></trkpt><trkpt lat="39.76283" lon="9.2134667"><ele>372.75</ele><time>2026-04-24T09:06:44.506Z</time></trkpt><trkpt lat="39.7628817" lon="9.213645"><ele>376.0</ele><time>2026-04-24T09:06:45.507Z</time></trkpt><trkpt lat="39.7629067" lon="9.213835"><ele>375.0</ele><time>2026-04-24T09:06:46.507Z</time></trkpt><trkpt lat="39.762915" lon="9.21402"><ele>374.0</ele><time>2026-04-24T09:06:47.506Z</time></trkpt><trkpt lat="39.7629217" lon="9.2142017"><ele>373.0</ele><time>2026-04-24T09:06:48.506Z</time></trkpt><trkpt lat="39.7629833" lon="9.2145583"><ele>373.0</ele><time>2026-04-24T09:06:50.506Z</time></trkpt><trkpt lat="39.763045" lon="9.21473"><ele>373.0</ele><time>2026-04-24T09:06:51.506Z</time></trkpt><trkpt lat="39.76313" lon="9.2148833"><ele>373.0</ele><time>2026-04-24T09:06:52.507Z</time></trkpt><trkpt lat="39.76322" lon="9.2150333"><ele>373.0</ele><time>2026-04-24T09:06:53.507Z</time></trkpt><trkpt lat="39.7633033" lon="9.2151783"><ele>373.75</ele><time>2026-04-24T09:06:54.507Z</time></trkpt><trkpt lat="39.7633817" lon="9.2153217"><ele>374.5</ele><time>2026-04-24T09:06:55.507Z</time></trkpt><trkpt lat="39.7634617" lon="9.2154567"><ele>375.25</ele><time>2026-04-24T09:06:56.507Z</time></trkpt><trkpt lat="39.7635383" lon="9.215595"><ele>376.0</ele><time>2026-04-24T09:06:57.506Z</time></trkpt><trkpt lat="39.7636117" lon="9.215735"><ele>376.0</ele><time>2026-04-24T09:06:58.507Z</time></trkpt><trkpt lat="39.7636767" lon="9.21588"><ele>376.0</ele><time>2026-04-24T09:06:59.506Z</time></trkpt><trkpt lat="39.7637483" lon="9.2160283"><ele>376.0</ele><time>2026-04-24T09:07:00.506Z</time></trkpt><trkpt lat="39.7638083" lon="9.2161767"><ele>376.0</ele><time>2026-04-24T09:07:01.506Z</time></trkpt><trkpt lat="39.763865" lon="9.2163167"><ele>376.0</ele><time>2026-04-24T09:07:02.506Z</time></trkpt><trkpt lat="39.7639217" lon="9.2164483"><ele>376.0</ele><time>2026-04-24T09:07:03.507Z</time></trkpt><trkpt lat="39.7639783" lon="9.2165767"><ele>376.0</ele><time>2026-04-24T09:07:04.506Z</time></trkpt><trkpt lat="39.7640367" lon="9.216695"><ele>376.0</ele><time>2026-04-24T09:07:05.507Z</time></trkpt><trkpt lat="39.7641133" lon="9.2168033"><ele>375.0</ele><time>2026-04-24T09:07:06.507Z</time></trkpt><trkpt lat="39.764205" lon="9.21689"><ele>374.0</ele><time>2026-04-24T09:07:07.507Z</time></trkpt><trkpt lat="39.7643017" lon="9.2169517"><ele>373.0</ele><time>2026-04-24T09:07:08.506Z</time></trkpt><trkpt lat="39.764405" lon="9.216985"><ele>372.0</ele><time>2026-04-24T09:07:09.507Z</time></trkpt><trkpt lat="39.7646117" lon="9.2169233"><ele>370.75</ele><time>2026-04-24T09:07:11.506Z</time></trkpt><trkpt lat="39.7647133" lon="9.2168483"><ele>369.5</ele><time>2026-04-24T09:07:12.506Z</time></trkpt><trkpt lat="39.7648183" lon="9.2167483"><ele>368.25</ele><time>2026-04-24T09:07:13.506Z</time></trkpt><trkpt lat="39.76493" lon="9.21665"><ele>367.0</ele><time>2026-04-24T09:07:14.507Z</time></trkpt><trkpt lat="39.76505" lon="9.216565"><ele>367.0</ele><time>2026-04-24T09:07:15.507Z</time></trkpt><trkpt lat="39.7651717" lon="9.2165"><ele>367.0</ele><time>2026-04-24T09:07:16.506Z</time></trkpt><trkpt lat="39.7652967" lon="9.21645"><ele>367.0</ele><time>2026-04-24T09:07:17.507Z</time></trkpt><trkpt lat="39.7654133" lon="9.2164233"><ele>367.0</ele><time>2026-04-24T09:07:18.506Z</time></trkpt><trkpt lat="39.7655317" lon="9.2163967"><ele>367.8</ele><time>2026-04-24T09:07:19.507Z</time></trkpt><trkpt lat="39.7656367" lon="9.21633"><ele>368.6</ele><time>2026-04-24T09:07:20.507Z</time></trkpt><trkpt lat="39.7657167" lon="9.2162333"><ele>369.40000000000003</ele><time>2026-04-24T09:07:21.507Z</time></trkpt><trkpt lat="39.765775" lon="9.216125"><ele>370.20000000000005</ele><time>2026-04-24T09:07:22.506Z</time></trkpt><trkpt lat="39.7658083" lon="9.21601"><ele>371.0</ele><time>2026-04-24T09:07:23.506Z</time></trkpt><trkpt lat="39.7658483" lon="9.215915"><ele>371.0</ele><time>2026-04-24T09:07:24.506Z</time></trkpt><trkpt lat="39.7659133" lon="9.215875"><ele>371.0</ele><time>2026-04-24T09:07:25.507Z</time></trkpt><trkpt lat="39.76599" lon="9.2158867"><ele>371.0</ele><time>2026-04-24T09:07:26.506Z</time></trkpt><trkpt lat="39.7660617" lon="9.215935"><ele>371.0</ele><time>2026-04-24T09:07:27.506Z</time></trkpt><trkpt lat="39.7661117" lon="9.2160333"><ele>371.0</ele><time>2026-04-24T09:07:28.506Z</time></trkpt><trkpt lat="39.7661317" lon="9.2161983"><ele>371.0</ele><time>2026-04-24T09:07:29.507Z</time></trkpt><trkpt lat="39.766145" lon="9.21636"><ele>369.33333333333337</ele><time>2026-04-24T09:07:30.507Z</time></trkpt><trkpt lat="39.7661033" lon="9.2166683"><ele>367.6666666666667</ele><time>2026-04-24T09:07:32.506Z</time></trkpt><trkpt lat="39.766055" lon="9.2168033"><ele>366.0</ele><time>2026-04-24T09:07:33.506Z</time></trkpt><trkpt lat="39.7660033" lon="9.2169283"><ele>366.0</ele><time>2026-04-24T09:07:34.507Z</time></trkpt><trkpt lat="39.7659683" lon="9.217055"><ele>366.0</ele><time>2026-04-24T09:07:35.506Z</time></trkpt><trkpt lat="39.7659833" lon="9.2171617"><ele>366.0</ele><time>2026-04-24T09:07:36.507Z</time></trkpt><trkpt lat="39.766035" lon="9.2172617"><ele>366.0</ele><time>2026-04-24T09:07:37.506Z</time></trkpt><trkpt lat="39.7661267" lon="9.21734"><ele>366.0</ele><time>2026-04-24T09:07:38.507Z</time></trkpt><trkpt lat="39.7662483" lon="9.2174"><ele>363.25</ele><time>2026-04-24T09:07:39.507Z</time></trkpt><trkpt lat="39.7663667" lon="9.21747"><ele>360.5</ele><time>2026-04-24T09:07:40.507Z</time></trkpt><trkpt lat="39.7664767" lon="9.2175567"><ele>357.75</ele><time>2026-04-24T09:07:41.506Z</time></trkpt><trkpt lat="39.766595" lon="9.2176483"><ele>355.0</ele><time>2026-04-24T09:07:42.506Z</time></trkpt><trkpt lat="39.7667317" lon="9.2177183"><ele>355.0</ele><time>2026-04-24T09:07:43.507Z</time></trkpt><trkpt lat="39.7668683" lon="9.217755"><ele>355.0</ele><time>2026-04-24T09:07:44.507Z</time></trkpt><trkpt lat="39.7669983" lon="9.2178"><ele>355.0</ele><time>2026-04-24T09:07:45.507Z</time></trkpt><trkpt lat="39.7671233" lon="9.2178733"><ele>355.0</ele><time>2026-04-24T09:07:46.506Z</time></trkpt><trkpt lat="39.7672533" lon="9.2179467"><ele>355.0</ele><time>2026-04-24T09:07:47.507Z</time></trkpt><trkpt lat="39.767375" lon="9.2180167"><ele>355.0</ele><time>2026-04-24T09:07:48.506Z</time></trkpt><trkpt lat="39.7674983" lon="9.2180617"><ele>355.0</ele><time>2026-04-24T09:07:49.507Z</time></trkpt><trkpt lat="39.7676233" lon="9.21808"><ele>355.0</ele><time>2026-04-24T09:07:50.507Z</time></trkpt><trkpt lat="39.7677433" lon="9.218085"><ele>352.66666666666663</ele><time>2026-04-24T09:07:51.507Z</time></trkpt><trkpt lat="39.7679767" lon="9.2180233"><ele>350.3333333333333</ele><time>2026-04-24T09:07:53.507Z</time></trkpt><trkpt lat="39.768085" lon="9.217955"><ele>348.0</ele><time>2026-04-24T09:07:54.506Z</time></trkpt><trkpt lat="39.7681833" lon="9.2178717"><ele>348.0</ele><time>2026-04-24T09:07:55.506Z</time></trkpt><trkpt lat="39.7682783" lon="9.2177883"><ele>348.0</ele><time>2026-04-24T09:07:56.507Z</time></trkpt><trkpt lat="39.7683783" lon="9.217715"><ele>348.0</ele><time>2026-04-24T09:07:57.506Z</time></trkpt><trkpt lat="39.7684917" lon="9.2176667"><ele>348.0</ele><time>2026-04-24T09:07:58.507Z</time></trkpt><trkpt lat="39.7686233" lon="9.217645"><ele>346.6666666666667</ele><time>2026-04-24T09:07:59.507Z</time></trkpt><trkpt lat="39.7687733" lon="9.2176417"><ele>345.33333333333337</ele><time>2026-04-24T09:08:00.506Z</time></trkpt><trkpt lat="39.7689333" lon="9.2176617"><ele>344.0</ele><time>2026-04-24T09:08:01.507Z</time></trkpt><trkpt lat="39.7690867" lon="9.21769"><ele>344.0</ele><time>2026-04-24T09:08:02.506Z</time></trkpt><trkpt lat="39.76924" lon="9.2177167"><ele>344.0</ele><time>2026-04-24T09:08:03.507Z</time></trkpt><trkpt lat="39.7693883" lon="9.2177383"><ele>344.0</ele><time>2026-04-24T09:08:04.506Z</time></trkpt><trkpt lat="39.76952" lon="9.2177617"><ele>344.0</ele><time>2026-04-24T09:08:05.507Z</time></trkpt><trkpt lat="39.7696383" lon="9.2178"><ele>344.0</ele><time>2026-04-24T09:08:06.507Z</time></trkpt><trkpt lat="39.7697383" lon="9.21787"><ele>344.0</ele><time>2026-04-24T09:08:07.506Z</time></trkpt><trkpt lat="39.76982" lon="9.2179817"><ele>344.0</ele><time>2026-04-24T09:08:08.506Z</time></trkpt><trkpt lat="39.7698883" lon="9.2181317"><ele>344.0</ele><time>2026-04-24T09:08:09.507Z</time></trkpt><trkpt lat="39.7699467" lon="9.2183033"><ele>341.33333333333337</ele><time>2026-04-24T09:08:10.507Z</time></trkpt><trkpt lat="39.7700067" lon="9.2184833"><ele>338.6666666666667</ele><time>2026-04-24T09:08:11.506Z</time></trkpt><trkpt lat="39.7700667" lon="9.2186567"><ele>336.0</ele><time>2026-04-24T09:08:12.506Z</time></trkpt><trkpt lat="39.77015" lon="9.2190117"><ele>333.3333333333333</ele><time>2026-04-24T09:08:14.506Z</time></trkpt><trkpt lat="39.7701533" lon="9.2192083"><ele>330.66666666666663</ele><time>2026-04-24T09:08:15.506Z</time></trkpt><trkpt lat="39.7701467" lon="9.2194233"><ele>328.0</ele><time>2026-04-24T09:08:16.507Z</time></trkpt><trkpt lat="39.7701583" lon="9.2196233"><ele>329.0</ele><time>2026-04-24T09:08:17.507Z</time></trkpt><trkpt lat="39.770175" lon="9.2198183"><ele>330.0</ele><time>2026-04-24T09:08:18.506Z</time></trkpt><trkpt lat="39.7702033" lon="9.219995"><ele>331.0</ele><time>2026-04-24T09:08:19.506Z</time></trkpt><trkpt lat="39.7702333" lon="9.220155"><ele>332.0</ele><time>2026-04-24T09:08:20.507Z</time></trkpt><trkpt lat="39.7702583" lon="9.2203133"><ele>332.0</ele><time>2026-04-24T09:08:21.507Z</time></trkpt><trkpt lat="39.77028" lon="9.220465"><ele>332.0</ele><time>2026-04-24T09:08:22.507Z</time></trkpt><trkpt lat="39.7703133" lon="9.2205983"><ele>332.0</ele><time>2026-04-24T09:08:23.506Z</time></trkpt><trkpt lat="39.7703633" lon="9.220715"><ele>332.0</ele><time>2026-04-24T09:08:24.506Z</time></trkpt><trkpt lat="39.770425" lon="9.2208117"><ele>332.0</ele><time>2026-04-24T09:08:25.507Z</time></trkpt><trkpt lat="39.77051" lon="9.2208683"><ele>329.0</ele><time>2026-04-24T09:08:26.506Z</time></trkpt><trkpt lat="39.7706067" lon="9.2208717"><ele>326.0</ele><time>2026-04-24T09:08:27.507Z</time></trkpt><trkpt lat="39.770695" lon="9.2208317"><ele>323.0</ele><time>2026-04-24T09:08:28.506Z</time></trkpt><trkpt lat="39.77077" lon="9.22076"><ele>320.0</ele><time>2026-04-24T09:08:29.507Z</time></trkpt><trkpt lat="39.7708467" lon="9.22069"><ele>317.0</ele><time>2026-04-24T09:08:30.506Z</time></trkpt><trkpt lat="39.7709167" lon="9.2206617"><ele>317.0</ele><time>2026-04-24T09:08:31.507Z</time></trkpt><trkpt lat="39.770985" lon="9.220675"><ele>317.0</ele><time>2026-04-24T09:08:32.507Z</time></trkpt><trkpt lat="39.77104" lon="9.2207267"><ele>317.0</ele><time>2026-04-24T09:08:33.506Z</time></trkpt><trkpt lat="39.7710233" lon="9.2208917"><ele>317.0</ele><time>2026-04-24T09:08:35.506Z</time></trkpt><trkpt lat="39.7709083" lon="9.2209767"><ele>317.0</ele><time>2026-04-24T09:08:36.507Z</time></trkpt><trkpt lat="39.7707933" lon="9.221025"><ele>317.0</ele><time>2026-04-24T09:08:37.507Z</time></trkpt><trkpt lat="39.7706833" lon="9.221065"><ele>317.0</ele><time>2026-04-24T09:08:38.506Z</time></trkpt><trkpt lat="39.7705667" lon="9.2211133"><ele>317.0</ele><time>2026-04-24T09:08:39.506Z</time></trkpt><trkpt lat="39.770445" lon="9.2211517"><ele>317.0</ele><time>2026-04-24T09:08:40.507Z</time></trkpt><trkpt lat="39.77031" lon="9.2211717"><ele>316.5</ele><time>2026-04-24T09:08:41.506Z</time></trkpt><trkpt lat="39.7701667" lon="9.2211717"><ele>316.0</ele><time>2026-04-24T09:08:42.506Z</time></trkpt><trkpt lat="39.7700233" lon="9.2211583"><ele>315.5</ele><time>2026-04-24T09:08:43.506Z</time></trkpt><trkpt lat="39.769885" lon="9.22115"><ele>315.0</ele><time>2026-04-24T09:08:44.506Z</time></trkpt><trkpt lat="39.7697517" lon="9.2211383"><ele>315.0</ele><time>2026-04-24T09:08:45.507Z</time></trkpt><trkpt lat="39.7696217" lon="9.2211317"><ele>315.0</ele><time>2026-04-24T09:08:46.506Z</time></trkpt><trkpt lat="39.7695067" lon="9.2211183"><ele>315.0</ele><time>2026-04-24T09:08:47.506Z</time></trkpt><trkpt lat="39.7693933" lon="9.2211117"><ele>315.0</ele><time>2026-04-24T09:08:48.507Z</time></trkpt><trkpt lat="39.769295" lon="9.2211083"><ele>313.8</ele><time>2026-04-24T09:08:49.507Z</time></trkpt><trkpt lat="39.7692017" lon="9.221135"><ele>312.6</ele><time>2026-04-24T09:08:50.507Z</time></trkpt><trkpt lat="39.7691017" lon="9.2211917"><ele>311.4</ele><time>2026-04-24T09:08:51.506Z</time></trkpt><trkpt lat="39.7690333" lon="9.2212783"><ele>310.2</ele><time>2026-04-24T09:08:52.506Z</time></trkpt><trkpt lat="39.769" lon="9.2213817"><ele>309.0</ele><time>2026-04-24T09:08:53.506Z</time></trkpt><trkpt lat="39.768995" lon="9.2215033"><ele>306.3333333333333</ele><time>2026-04-24T09:08:54.507Z</time></trkpt><trkpt lat="39.7691233" lon="9.22172"><ele>303.66666666666663</ele><time>2026-04-24T09:08:56.506Z</time></trkpt><trkpt lat="39.7692233" lon="9.2218183"><ele>301.0</ele><time>2026-04-24T09:08:57.506Z</time></trkpt><trkpt lat="39.769335" lon="9.221905"><ele>301.75</ele><time>2026-04-24T09:08:58.507Z</time></trkpt><trkpt lat="39.7694567" lon="9.2219983"><ele>302.5</ele><time>2026-04-24T09:08:59.507Z</time></trkpt><trkpt lat="39.7695683" lon="9.2220833"><ele>303.25</ele><time>2026-04-24T09:09:00.507Z</time></trkpt><trkpt lat="39.7696767" lon="9.22217"><ele>304.0</ele><time>2026-04-24T09:09:01.506Z</time></trkpt><trkpt lat="39.7697817" lon="9.2222533"><ele>302.59999999999997</ele><time>2026-04-24T09:09:02.506Z</time></trkpt><trkpt lat="39.7698917" lon="9.2223267"><ele>301.2</ele><time>2026-04-24T09:09:03.506Z</time></trkpt><trkpt lat="39.7699867" lon="9.2223933"><ele>299.79999999999995</ele><time>2026-04-24T09:09:04.506Z</time></trkpt><trkpt lat="39.77007" lon="9.2224467"><ele>298.4</ele><time>2026-04-24T09:09:05.507Z</time></trkpt><trkpt lat="39.7701383" lon="9.222505"><ele>297.0</ele><time>2026-04-24T09:09:06.507Z</time></trkpt><trkpt lat="39.7701833" lon="9.2225783"><ele>297.0</ele><time>2026-04-24T09:09:07.507Z</time></trkpt><trkpt lat="39.7702083" lon="9.22266"><ele>297.0</ele><time>2026-04-24T09:09:08.506Z</time></trkpt><trkpt lat="39.7702" lon="9.2227483"><ele>297.0</ele><time>2026-04-24T09:09:09.506Z</time></trkpt><trkpt lat="39.770135" lon="9.2228267"><ele>297.0</ele><time>2026-04-24T09:09:10.506Z</time></trkpt><trkpt lat="39.770045" lon="9.2228583"><ele>297.0</ele><time>2026-04-24T09:09:11.507Z</time></trkpt><trkpt lat="39.7699417" lon="9.22286"><ele>297.0</ele><time>2026-04-24T09:09:12.506Z</time></trkpt><trkpt lat="39.7698267" lon="9.2228533"><ele>297.0</ele><time>2026-04-24T09:09:13.507Z</time></trkpt><trkpt lat="39.7696917" lon="9.2228533"><ele>297.0</ele><time>2026-04-24T09:09:14.507Z</time></trkpt><trkpt lat="39.7695633" lon="9.2228517"><ele>297.0</ele><time>2026-04-24T09:09:15.507Z</time></trkpt><trkpt lat="39.7693467" lon="9.2229533"><ele>296.0</ele><time>2026-04-24T09:09:17.507Z</time></trkpt><trkpt lat="39.76926" lon="9.2230583"><ele>295.0</ele><time>2026-04-24T09:09:18.507Z</time></trkpt><trkpt lat="39.7691833" lon="9.2231833"><ele>294.0</ele><time>2026-04-24T09:09:19.506Z</time></trkpt><trkpt lat="39.7691183" lon="9.2233067"><ele>293.0</ele><time>2026-04-24T09:09:20.506Z</time></trkpt><trkpt lat="39.769055" lon="9.22343"><ele>291.6</ele><time>2026-04-24T09:09:21.507Z</time></trkpt><trkpt lat="39.7689983" lon="9.2235467"><ele>290.20000000000005</ele><time>2026-04-24T09:09:22.506Z</time></trkpt><trkpt lat="39.7689367" lon="9.2236567"><ele>288.8</ele><time>2026-04-24T09:09:23.506Z</time></trkpt><trkpt lat="39.7688783" lon="9.2237733"><ele>287.40000000000003</ele><time>2026-04-24T09:09:24.507Z</time></trkpt><trkpt lat="39.7688233" lon="9.2238933"><ele>286.0</ele><time>2026-04-24T09:09:25.507Z</time></trkpt><trkpt lat="39.76878" lon="9.2240233"><ele>284.5</ele><time>2026-04-24T09:09:26.507Z</time></trkpt><trkpt lat="39.7687533" lon="9.22417"><ele>283.0</ele><time>2026-04-24T09:09:27.506Z</time></trkpt><trkpt lat="39.7687567" lon="9.2243133"><ele>281.5</ele><time>2026-04-24T09:09:28.506Z</time></trkpt><trkpt lat="39.7688017" lon="9.2244533"><ele>280.0</ele><time>2026-04-24T09:09:29.507Z</time></trkpt><trkpt lat="39.7688717" lon="9.2245767"><ele>280.0</ele><time>2026-04-24T09:09:30.506Z</time></trkpt><trkpt lat="39.7689633" lon="9.22467"><ele>280.0</ele><time>2026-04-24T09:09:31.506Z</time></trkpt><trkpt lat="39.769065" lon="9.224725"><ele>280.0</ele><time>2026-04-24T09:09:32.507Z</time></trkpt><trkpt lat="39.7691833" lon="9.22474"><ele>280.0</ele><time>2026-04-24T09:09:33.507Z</time></trkpt><trkpt lat="39.769305" lon="9.2247267"><ele>280.0</ele><time>2026-04-24T09:09:34.506Z</time></trkpt><trkpt lat="39.76944" lon="9.2246783"><ele>280.0</ele><time>2026-04-24T09:09:35.507Z</time></trkpt><trkpt lat="39.7695767" lon="9.22461"><ele>280.0</ele><time>2026-04-24T09:09:36.506Z</time></trkpt><trkpt lat="39.769845" lon="9.22447"><ele>280.0</ele><time>2026-04-24T09:09:38.506Z</time></trkpt><trkpt lat="39.76997" lon="9.2244133"><ele>280.0</ele><time>2026-04-24T09:09:39.506Z</time></trkpt><trkpt lat="39.7700983" lon="9.2243583"><ele>280.0</ele><time>2026-04-24T09:09:40.507Z</time></trkpt><trkpt lat="39.7702217" lon="9.2243183"><ele>280.0</ele><time>2026-04-24T09:09:41.506Z</time></trkpt><trkpt lat="39.77035" lon="9.2242983"><ele>279.25</ele><time>2026-04-24T09:09:42.506Z</time></trkpt><trkpt lat="39.77048" lon="9.2243033"><ele>278.5</ele><time>2026-04-24T09:09:43.507Z</time></trkpt><trkpt lat="39.7706083" lon="9.2243467"><ele>277.75</ele><time>2026-04-24T09:09:44.507Z</time></trkpt><trkpt lat="39.7707233" lon="9.2244217"><ele>277.0</ele><time>2026-04-24T09:09:45.506Z</time></trkpt><trkpt lat="39.7708283" lon="9.2245217"><ele>277.0</ele><time>2026-04-24T09:09:46.506Z</time></trkpt><trkpt lat="39.7709183" lon="9.2246417"><ele>277.0</ele><time>2026-04-24T09:09:47.507Z</time></trkpt><trkpt lat="39.7709883" lon="9.2247833"><ele>277.0</ele><time>2026-04-24T09:09:48.506Z</time></trkpt><trkpt lat="39.7710383" lon="9.2249383"><ele>277.0</ele><time>2026-04-24T09:09:49.507Z</time></trkpt><trkpt lat="39.7710717" lon="9.2250967"><ele>280.0</ele><time>2026-04-24T09:09:50.507Z</time></trkpt><trkpt lat="39.771105" lon="9.22526"><ele>283.0</ele><time>2026-04-24T09:09:51.507Z</time></trkpt><trkpt lat="39.7711383" lon="9.22542"><ele>286.0</ele><time>2026-04-24T09:09:52.507Z</time></trkpt><trkpt lat="39.77117" lon="9.2255783"><ele>289.0</ele><time>2026-04-24T09:09:53.506Z</time></trkpt><trkpt lat="39.7712017" lon="9.225735"><ele>289.0</ele><time>2026-04-24T09:09:54.507Z</time></trkpt><trkpt lat="39.77123" lon="9.2258883"><ele>289.0</ele><time>2026-04-24T09:09:55.506Z</time></trkpt><trkpt lat="39.7712567" lon="9.226035"><ele>289.0</ele><time>2026-04-24T09:09:56.506Z</time></trkpt><trkpt lat="39.771275" lon="9.226165"><ele>289.0</ele><time>2026-04-24T09:09:57.506Z</time></trkpt><trkpt lat="39.7713133" lon="9.226385"><ele>288.66666666666663</ele><time>2026-04-24T09:09:59.507Z</time></trkpt><trkpt lat="39.77134" lon="9.22648"><ele>288.3333333333333</ele><time>2026-04-24T09:10:00.507Z</time></trkpt><trkpt lat="39.7713667" lon="9.22657"><ele>288.0</ele><time>2026-04-24T09:10:01.506Z</time></trkpt><trkpt lat="39.7714" lon="9.2266983"><ele>287.6666666666667</ele><time>2026-04-24T09:10:03.507Z</time></trkpt><trkpt lat="39.7714133" lon="9.2267833"><ele>287.33333333333337</ele><time>2026-04-24T09:10:05.506Z</time></trkpt><trkpt lat="39.7714267" lon="9.2268783"><ele>287.0</ele><time>2026-04-24T09:10:08.506Z</time></trkpt><trkpt lat="39.77144" lon="9.22696"><ele>287.0</ele><time>2026-04-24T09:10:11.507Z</time></trkpt><trkpt lat="39.771385" lon="9.2269033"><ele>287.0</ele><time>2026-04-24T09:10:29.506Z</time></trkpt><trkpt lat="39.7713817" lon="9.227065"><ele>287.0</ele><time>2026-04-24T09:34:56.501Z</time></trkpt><trkpt lat="39.77141" lon="9.2271467"><ele>287.0</ele><time>2026-04-24T09:34:58.5Z</time></trkpt><trkpt lat="39.7714533" lon="9.22727"><ele>287.0</ele><time>2026-04-24T09:35:00.5Z</time></trkpt><trkpt lat="39.7715033" lon="9.2273967"><ele>289.1666666666667</ele><time>2026-04-24T09:35:02.5Z</time></trkpt><trkpt lat="39.7715667" lon="9.2275017"><ele>291.33333333333337</ele><time>2026-04-24T09:35:04.501Z</time></trkpt><trkpt lat="39.77164" lon="9.2275683"><ele>293.5</ele><time>2026-04-24T09:35:06.5Z</time></trkpt><trkpt lat="39.7717283" lon="9.22761"><ele>295.6666666666667</ele><time>2026-04-24T09:35:08.501Z</time></trkpt><trkpt lat="39.7717933" lon="9.2276383"><ele>297.8333333333333</ele><time>2026-04-24T09:35:09.5Z</time></trkpt><trkpt lat="39.7718667" lon="9.2276817"><ele>300.0</ele><time>2026-04-24T09:35:10.501Z</time></trkpt><trkpt lat="39.7719433" lon="9.2277267"><ele>300.0</ele><time>2026-04-24T09:35:11.5Z</time></trkpt><trkpt lat="39.772075" lon="9.2277783"><ele>300.0</ele><time>2026-04-24T09:35:13.5Z</time></trkpt><trkpt lat="39.7721433" lon="9.2277967"><ele>300.0</ele><time>2026-04-24T09:35:14.5Z</time></trkpt><trkpt lat="39.7722083" lon="9.22782"><ele>300.0</ele><time>2026-04-24T09:35:15.501Z</time></trkpt><trkpt lat="39.77232" lon="9.2278583"><ele>300.0</ele><time>2026-04-24T09:35:17.5Z</time></trkpt><trkpt lat="39.7724267" lon="9.227885"><ele>300.0</ele><time>2026-04-24T09:35:19.5Z</time></trkpt><trkpt lat="39.77253" lon="9.2279333"><ele>300.0</ele><time>2026-04-24T09:35:22.501Z</time></trkpt><trkpt lat="39.7726133" lon="9.2280217"><ele>300.0</ele><time>2026-04-24T09:35:24.5Z</time></trkpt><trkpt lat="39.7726767" lon="9.228135"><ele>300.0</ele><time>2026-04-24T09:35:26.501Z</time></trkpt><trkpt lat="39.772705" lon="9.2282133"><ele>300.0</ele><time>2026-04-24T09:35:27.501Z</time></trkpt><trkpt lat="39.77275" lon="9.2283567"><ele>300.75</ele><time>2026-04-24T09:35:29.5Z</time></trkpt><trkpt lat="39.7727733" lon="9.2285"><ele>301.5</ele><time>2026-04-24T09:35:31.501Z</time></trkpt><trkpt lat="39.7728167" lon="9.2286167"><ele>302.25</ele><time>2026-04-24T09:35:33.5Z</time></trkpt><trkpt lat="39.77293" lon="9.2288133"><ele>303.0</ele><time>2026-04-24T09:35:36.501Z</time></trkpt><trkpt lat="39.7729733" lon="9.2288767"><ele>303.0</ele><time>2026-04-24T09:35:37.5Z</time></trkpt><trkpt lat="39.7730133" lon="9.2289417"><ele>303.0</ele><time>2026-04-24T09:35:38.5Z</time></trkpt><trkpt lat="39.773055" lon="9.22901"><ele>303.0</ele><time>2026-04-24T09:35:39.501Z</time></trkpt><trkpt lat="39.773095" lon="9.2290767"><ele>303.0</ele><time>2026-04-24T09:35:40.5Z</time></trkpt><trkpt lat="39.7731867" lon="9.2291817"><ele>303.0</ele><time>2026-04-24T09:35:42.501Z</time></trkpt><trkpt lat="39.7732933" lon="9.229215"><ele>303.0</ele><time>2026-04-24T09:35:44.5Z</time></trkpt><trkpt lat="39.7734167" lon="9.2291767"><ele>303.0</ele><time>2026-04-24T09:35:46.5Z</time></trkpt><trkpt lat="39.7734867" lon="9.2291383"><ele>303.0</ele><time>2026-04-24T09:35:47.501Z</time></trkpt><trkpt lat="39.7735633" lon="9.2290883"><ele>303.0</ele><time>2026-04-24T09:35:48.501Z</time></trkpt><trkpt lat="39.7736367" lon="9.2290417"><ele>303.0</ele><time>2026-04-24T09:35:49.501Z</time></trkpt><trkpt lat="39.7737183" lon="9.2290083"><ele>303.0</ele><time>2026-04-24T09:35:50.501Z</time></trkpt><trkpt lat="39.7738" lon="9.2289767"><ele>303.0</ele><time>2026-04-24T09:35:51.5Z</time></trkpt><trkpt lat="39.7738717" lon="9.2289633"><ele>303.0</ele><time>2026-04-24T09:35:52.501Z</time></trkpt><trkpt lat="39.77394" lon="9.2289533"><ele>303.0</ele><time>2026-04-24T09:35:53.501Z</time></trkpt><trkpt lat="39.7740117" lon="9.2289417"><ele>303.0</ele><time>2026-04-24T09:35:54.501Z</time></trkpt><trkpt lat="39.77415" lon="9.2289033"><ele>303.0</ele><time>2026-04-24T09:35:56.501Z</time></trkpt><trkpt lat="39.7742217" lon="9.2288667"><ele>303.0</ele><time>2026-04-24T09:35:57.501Z</time></trkpt><trkpt lat="39.7743117" lon="9.2288283"><ele>297.6</ele><time>2026-04-24T09:35:58.501Z</time></trkpt><trkpt lat="39.7744067" lon="9.22879"><ele>292.20000000000005</ele><time>2026-04-24T09:35:59.501Z</time></trkpt><trkpt lat="39.774495" lon="9.2287567"><ele>286.8</ele><time>2026-04-24T09:36:00.5Z</time></trkpt><trkpt lat="39.774575" lon="9.2287283"><ele>281.40000000000003</ele><time>2026-04-24T09:36:01.501Z</time></trkpt><trkpt lat="39.7746433" lon="9.228695"><ele>276.0</ele><time>2026-04-24T09:36:02.501Z</time></trkpt><trkpt lat="39.774745" lon="9.228595"><ele>276.0</ele><time>2026-04-24T09:36:04.501Z</time></trkpt><trkpt lat="39.7747867" lon="9.2285217"><ele>276.0</ele><time>2026-04-24T09:36:05.5Z</time></trkpt><trkpt lat="39.7748117" lon="9.228445"><ele>276.0</ele><time>2026-04-24T09:36:06.501Z</time></trkpt><trkpt lat="39.7748417" lon="9.2283667"><ele>276.0</ele><time>2026-04-24T09:36:07.501Z</time></trkpt><trkpt lat="39.7748617" lon="9.22828"><ele>276.0</ele><time>2026-04-24T09:36:08.5Z</time></trkpt><trkpt lat="39.7748783" lon="9.2281833"><ele>276.0</ele><time>2026-04-24T09:36:09.501Z</time></trkpt><trkpt lat="39.774895" lon="9.228095"><ele>276.0</ele><time>2026-04-24T09:36:10.501Z</time></trkpt><trkpt lat="39.77491" lon="9.2280067"><ele>275.6</ele><time>2026-04-24T09:36:11.501Z</time></trkpt><trkpt lat="39.7749333" lon="9.2279233"><ele>275.20000000000005</ele><time>2026-04-24T09:36:12.501Z</time></trkpt><trkpt lat="39.77497" lon="9.2278517"><ele>274.79999999999995</ele><time>2026-04-24T09:36:13.5Z</time></trkpt><trkpt lat="39.7750617" lon="9.2277433"><ele>274.4</ele><time>2026-04-24T09:36:15.501Z</time></trkpt><trkpt lat="39.775155" lon="9.2276033"><ele>274.0</ele><time>2026-04-24T09:36:17.5Z</time></trkpt><trkpt lat="39.7752067" lon="9.2275367"><ele>274.0</ele><time>2026-04-24T09:36:18.501Z</time></trkpt><trkpt lat="39.7752583" lon="9.2274783"><ele>274.0</ele><time>2026-04-24T09:36:19.501Z</time></trkpt><trkpt lat="39.77532" lon="9.22743"><ele>274.0</ele><time>2026-04-24T09:36:20.5Z</time></trkpt><trkpt lat="39.7753817" lon="9.22739"><ele>274.0</ele><time>2026-04-24T09:36:21.501Z</time></trkpt><trkpt lat="39.7754433" lon="9.2273433"><ele>274.0</ele><time>2026-04-24T09:36:22.501Z</time></trkpt><trkpt lat="39.7754967" lon="9.2272933"><ele>274.0</ele><time>2026-04-24T09:36:23.501Z</time></trkpt><trkpt lat="39.7755917" lon="9.227205"><ele>275.7142857142857</ele><time>2026-04-24T09:36:25.5Z</time></trkpt><trkpt lat="39.7756517" lon="9.22718"><ele>277.42857142857144</ele><time>2026-04-24T09:36:26.5Z</time></trkpt><trkpt lat="39.7757133" lon="9.227155"><ele>279.1428571428571</ele><time>2026-04-24T09:36:27.501Z</time></trkpt><trkpt lat="39.7757783" lon="9.2271083"><ele>280.8571428571429</ele><time>2026-04-24T09:36:28.5Z</time></trkpt><trkpt lat="39.7758367" lon="9.2270517"><ele>282.57142857142856</ele><time>2026-04-24T09:36:29.5Z</time></trkpt><trkpt lat="39.7759017" lon="9.2269933"><ele>284.2857142857143</ele><time>2026-04-24T09:36:30.5Z</time></trkpt><trkpt lat="39.7759733" lon="9.226935"><ele>286.0</ele><time>2026-04-24T09:36:31.501Z</time></trkpt><trkpt lat="39.7760467" lon="9.2268733"><ele>286.0</ele><time>2026-04-24T09:36:32.501Z</time></trkpt><trkpt lat="39.7761133" lon="9.2268117"><ele>286.0</ele><time>2026-04-24T09:36:33.5Z</time></trkpt><trkpt lat="39.776185" lon="9.22675"><ele>286.0</ele><time>2026-04-24T09:36:34.501Z</time></trkpt><trkpt lat="39.7762567" lon="9.226685"><ele>286.0</ele><time>2026-04-24T09:36:35.501Z</time></trkpt><trkpt lat="39.7763333" lon="9.2266183"><ele>286.0</ele><time>2026-04-24T09:36:36.501Z</time></trkpt><trkpt lat="39.7764817" lon="9.2265017"><ele>289.5</ele><time>2026-04-24T09:36:38.501Z</time></trkpt><trkpt lat="39.7765617" lon="9.2264517"><ele>293.0</ele><time>2026-04-24T09:36:39.501Z</time></trkpt><trkpt lat="39.77664" lon="9.2263983"><ele>296.5</ele><time>2026-04-24T09:36:40.5Z</time></trkpt><trkpt lat="39.77672" lon="9.2263467"><ele>300.0</ele><time>2026-04-24T09:36:41.501Z</time></trkpt><trkpt lat="39.7768017" lon="9.2262983"><ele>303.5</ele><time>2026-04-24T09:36:42.501Z</time></trkpt><trkpt lat="39.77688" lon="9.226255"><ele>307.0</ele><time>2026-04-24T09:36:43.5Z</time></trkpt><trkpt lat="39.7769633" lon="9.226215"><ele>307.0</ele><time>2026-04-24T09:36:44.501Z</time></trkpt><trkpt lat="39.7770483" lon="9.2261767"><ele>307.0</ele><time>2026-04-24T09:36:45.5Z</time></trkpt><trkpt lat="39.7771283" lon="9.2261383"><ele>307.0</ele><time>2026-04-24T09:36:46.501Z</time></trkpt><trkpt lat="39.777205" lon="9.2261017"><ele>307.0</ele><time>2026-04-24T09:36:47.501Z</time></trkpt><trkpt lat="39.7772733" lon="9.2260667"><ele>307.0</ele><time>2026-04-24T09:36:48.501Z</time></trkpt><trkpt lat="39.777335" lon="9.2260183"><ele>307.0</ele><time>2026-04-24T09:36:49.5Z</time></trkpt><trkpt lat="39.7773933" lon="9.2259633"><ele>307.0</ele><time>2026-04-24T09:36:50.5Z</time></trkpt><trkpt lat="39.777445" lon="9.225895"><ele>307.0</ele><time>2026-04-24T09:36:51.5Z</time></trkpt><trkpt lat="39.7775" lon="9.2258217"><ele>307.0</ele><time>2026-04-24T09:36:52.501Z</time></trkpt><trkpt lat="39.77756" lon="9.2257433"><ele>307.0</ele><time>2026-04-24T09:36:53.5Z</time></trkpt><trkpt lat="39.7776217" lon="9.2256633"><ele>307.0</ele><time>2026-04-24T09:36:54.501Z</time></trkpt><trkpt lat="39.7776817" lon="9.22558"><ele>307.0</ele><time>2026-04-24T09:36:55.5Z</time></trkpt><trkpt lat="39.777735" lon="9.2255117"><ele>310.0</ele><time>2026-04-24T09:36:56.501Z</time></trkpt><trkpt lat="39.777795" lon="9.2254467"><ele>313.0</ele><time>2026-04-24T09:36:57.5Z</time></trkpt><trkpt lat="39.777905" lon="9.2253583"><ele>316.0</ele><time>2026-04-24T09:36:59.5Z</time></trkpt><trkpt lat="39.7779983" lon="9.2253283"><ele>319.0</ele><time>2026-04-24T09:37:01.501Z</time></trkpt><trkpt lat="39.778065" lon="9.2253867"><ele>322.0</ele><time>2026-04-24T09:37:03.5Z</time></trkpt><trkpt lat="39.7781017" lon="9.2255017"><ele>322.0</ele><time>2026-04-24T09:37:05.5Z</time></trkpt><trkpt lat="39.7781833" lon="9.22559"><ele>322.0</ele><time>2026-04-24T09:37:07.5Z</time></trkpt><trkpt lat="39.7782467" lon="9.2256133"><ele>322.0</ele><time>2026-04-24T09:37:08.501Z</time></trkpt><trkpt lat="39.7783167" lon="9.2256383"><ele>322.0</ele><time>2026-04-24T09:37:09.499Z</time></trkpt><trkpt lat="39.778395" lon="9.2256717"><ele>322.0</ele><time>2026-04-24T09:37:10.499Z</time></trkpt><trkpt lat="39.7784667" lon="9.2257117"><ele>322.0</ele><time>2026-04-24T09:37:11.5Z</time></trkpt><trkpt lat="39.7785383" lon="9.2257433"><ele>323.0</ele><time>2026-04-24T09:37:12.499Z</time></trkpt><trkpt lat="39.778605" lon="9.22576"><ele>324.0</ele><time>2026-04-24T09:37:13.5Z</time></trkpt><trkpt lat="39.7786733" lon="9.2257667"><ele>325.0</ele><time>2026-04-24T09:37:14.499Z</time></trkpt><trkpt lat="39.778795" lon="9.225815"><ele>326.0</ele><time>2026-04-24T09:37:16.5Z</time></trkpt><trkpt lat="39.7788617" lon="9.2258483"><ele>327.0</ele><time>2026-04-24T09:37:17.499Z</time></trkpt><trkpt lat="39.77893" lon="9.2258867"><ele>328.0</ele><time>2026-04-24T09:37:18.5Z</time></trkpt><trkpt lat="39.7790683" lon="9.2259733"><ele>327.99999999999994</ele><time>2026-04-24T09:37:20.499Z</time></trkpt><trkpt lat="39.7791333" lon="9.2260167"><ele>328.0</ele><time>2026-04-24T09:37:21.499Z</time></trkpt><trkpt lat="39.779195" lon="9.2260583"><ele>328.0</ele><time>2026-04-24T09:37:22.499Z</time></trkpt><trkpt lat="39.779265" lon="9.22609"><ele>328.0</ele><time>2026-04-24T09:37:23.5Z</time></trkpt><trkpt lat="39.7793317" lon="9.22612"><ele>328.0</ele><time>2026-04-24T09:37:24.499Z</time></trkpt><trkpt lat="39.7794083" lon="9.2261333"><ele>327.99999999999994</ele><time>2026-04-24T09:37:25.499Z</time></trkpt><trkpt lat="39.779475" lon="9.2261633"><ele>328.0</ele><time>2026-04-24T09:37:26.5Z</time></trkpt><trkpt lat="39.7795333" lon="9.2261967"><ele>325.71428571428567</ele><time>2026-04-24T09:37:27.5Z</time></trkpt><trkpt lat="39.7795917" lon="9.2262383"><ele>323.42857142857144</ele><time>2026-04-24T09:37:28.5Z</time></trkpt><trkpt lat="39.77964" lon="9.2262967"><ele>321.1428571428571</ele><time>2026-04-24T09:37:29.499Z</time></trkpt><trkpt lat="39.779685" lon="9.2263583"><ele>318.85714285714283</ele><time>2026-04-24T09:37:30.5Z</time></trkpt><trkpt lat="39.77974" lon="9.226415"><ele>316.57142857142856</ele><time>2026-04-24T09:37:31.499Z</time></trkpt><trkpt lat="39.7797967" lon="9.226465"><ele>314.2857142857143</ele><time>2026-04-24T09:37:32.5Z</time></trkpt><trkpt lat="39.7798617" lon="9.2265083"><ele>312.0</ele><time>2026-04-24T09:37:33.5Z</time></trkpt><trkpt lat="39.7799333" lon="9.2265367"><ele>312.0</ele><time>2026-04-24T09:37:34.499Z</time></trkpt><trkpt lat="39.7799983" lon="9.2265467"><ele>312.0</ele><time>2026-04-24T09:37:35.499Z</time></trkpt><trkpt lat="39.7801083" lon="9.2265083"><ele>312.0</ele><time>2026-04-24T09:37:37.499Z</time></trkpt><trkpt lat="39.7801633" lon="9.2264667"><ele>312.0</ele><time>2026-04-24T09:37:38.499Z</time></trkpt><trkpt lat="39.78028" lon="9.2264117"><ele>312.0</ele><time>2026-04-24T09:37:40.5Z</time></trkpt><trkpt lat="39.7804167" lon="9.2264133"><ele>314.5</ele><time>2026-04-24T09:37:42.499Z</time></trkpt><trkpt lat="39.78049" lon="9.2264267"><ele>317.0</ele><time>2026-04-24T09:37:43.499Z</time></trkpt><trkpt lat="39.7806" lon="9.2264767"><ele>319.5</ele><time>2026-04-24T09:37:45.499Z</time></trkpt><trkpt lat="39.7806883" lon="9.2265633"><ele>322.0</ele><time>2026-04-24T09:37:47.5Z</time></trkpt><trkpt lat="39.7807367" lon="9.2266217"><ele>324.5</ele><time>2026-04-24T09:37:48.5Z</time></trkpt><trkpt lat="39.7807883" lon="9.22668"><ele>327.0</ele><time>2026-04-24T09:37:49.5Z</time></trkpt><trkpt lat="39.7808533" lon="9.2267233"><ele>327.0</ele><time>2026-04-24T09:37:50.5Z</time></trkpt><trkpt lat="39.7809283" lon="9.226745"><ele>327.0</ele><time>2026-04-24T09:37:51.499Z</time></trkpt><trkpt lat="39.7810117" lon="9.22675"><ele>327.0</ele><time>2026-04-24T09:37:52.499Z</time></trkpt><trkpt lat="39.7810967" lon="9.226755"><ele>327.0</ele><time>2026-04-24T09:37:53.5Z</time></trkpt><trkpt lat="39.7811883" lon="9.2267717"><ele>327.0</ele><time>2026-04-24T09:37:54.499Z</time></trkpt><trkpt lat="39.78128" lon="9.22679"><ele>327.0</ele><time>2026-04-24T09:37:55.5Z</time></trkpt><trkpt lat="39.78137" lon="9.226815"><ele>329.6666666666667</ele><time>2026-04-24T09:37:56.499Z</time></trkpt><trkpt lat="39.7814517" lon="9.2268383"><ele>332.3333333333333</ele><time>2026-04-24T09:37:57.499Z</time></trkpt><trkpt lat="39.7815367" lon="9.2268633"><ele>335.0</ele><time>2026-04-24T09:37:58.5Z</time></trkpt><trkpt lat="39.78162" lon="9.2268933"><ele>337.66666666666663</ele><time>2026-04-24T09:37:59.5Z</time></trkpt><trkpt lat="39.7817033" lon="9.226915"><ele>340.3333333333333</ele><time>2026-04-24T09:38:00.499Z</time></trkpt><trkpt lat="39.78178" lon="9.2269383"><ele>343.0</ele><time>2026-04-24T09:38:01.5Z</time></trkpt><trkpt lat="39.7819767" lon="9.2268867"><ele>343.3333333333333</ele><time>2026-04-24T09:38:04.499Z</time></trkpt><trkpt lat="39.7820483" lon="9.2268417"><ele>343.66666666666663</ele><time>2026-04-24T09:38:05.499Z</time></trkpt><trkpt lat="39.7821233" lon="9.2268033"><ele>344.0</ele><time>2026-04-24T09:38:06.499Z</time></trkpt><trkpt lat="39.782195" lon="9.2267767"><ele>344.3333333333333</ele><time>2026-04-24T09:38:07.499Z</time></trkpt><trkpt lat="39.7822733" lon="9.22676"><ele>344.6666666666667</ele><time>2026-04-24T09:38:08.499Z</time></trkpt><trkpt lat="39.7823533" lon="9.2267583"><ele>345.0</ele><time>2026-04-24T09:38:09.5Z</time></trkpt><trkpt lat="39.7824267" lon="9.226775"><ele>345.0</ele><time>2026-04-24T09:38:10.5Z</time></trkpt><trkpt lat="39.782495" lon="9.2268033"><ele>345.0</ele><time>2026-04-24T09:38:11.499Z</time></trkpt><trkpt lat="39.78256" lon="9.2268333"><ele>345.0</ele><time>2026-04-24T09:38:12.5Z</time></trkpt><trkpt lat="39.7826233" lon="9.2268617"><ele>345.0</ele><time>2026-04-24T09:38:13.499Z</time></trkpt><trkpt lat="39.782695" lon="9.2268717"><ele>345.0</ele><time>2026-04-24T09:38:14.499Z</time></trkpt><trkpt lat="39.782765" lon="9.2268667"><ele>345.0</ele><time>2026-04-24T09:38:15.5Z</time></trkpt><trkpt lat="39.7828367" lon="9.22684"><ele>345.0</ele><time>2026-04-24T09:38:16.499Z</time></trkpt><trkpt lat="39.782915" lon="9.2268033"><ele>345.6</ele><time>2026-04-24T09:38:17.5Z</time></trkpt><trkpt lat="39.783005" lon="9.226775"><ele>346.2</ele><time>2026-04-24T09:38:18.499Z</time></trkpt><trkpt lat="39.7830917" lon="9.2267617"><ele>346.79999999999995</ele><time>2026-04-24T09:38:19.5Z</time></trkpt><trkpt lat="39.7831767" lon="9.2267583"><ele>347.4</ele><time>2026-04-24T09:38:20.5Z</time></trkpt><trkpt lat="39.7832717" lon="9.2267583"><ele>348.0</ele><time>2026-04-24T09:38:21.499Z</time></trkpt><trkpt lat="39.7833633" lon="9.22676"><ele>350.79999999999995</ele><time>2026-04-24T09:38:22.499Z</time></trkpt><trkpt lat="39.7835333" lon="9.2267367"><ele>353.6</ele><time>2026-04-24T09:38:24.499Z</time></trkpt><trkpt lat="39.7836067" lon="9.2267183"><ele>356.4</ele><time>2026-04-24T09:38:25.5Z</time></trkpt><trkpt lat="39.78368" lon="9.22671"><ele>359.20000000000005</ele><time>2026-04-24T09:38:26.5Z</time></trkpt><trkpt lat="39.78375" lon="9.2267133"><ele>362.0</ele><time>2026-04-24T09:38:27.499Z</time></trkpt><trkpt lat="39.7838183" lon="9.22673"><ele>362.0</ele><time>2026-04-24T09:38:28.5Z</time></trkpt><trkpt lat="39.783895" lon="9.2267667"><ele>362.0</ele><time>2026-04-24T09:38:29.5Z</time></trkpt><trkpt lat="39.78396" lon="9.2268083"><ele>362.0</ele><time>2026-04-24T09:38:30.5Z</time></trkpt><trkpt lat="39.7840233" lon="9.2268617"><ele>362.0</ele><time>2026-04-24T09:38:31.5Z</time></trkpt><trkpt lat="39.784085" lon="9.226925"><ele>362.0</ele><time>2026-04-24T09:38:32.5Z</time></trkpt><trkpt lat="39.784145" lon="9.2269883"><ele>362.0</ele><time>2026-04-24T09:38:33.5Z</time></trkpt><trkpt lat="39.784195" lon="9.2270467"><ele>362.0</ele><time>2026-04-24T09:38:34.5Z</time></trkpt><trkpt lat="39.7842917" lon="9.2271033"><ele>362.0</ele><time>2026-04-24T09:38:36.499Z</time></trkpt><trkpt lat="39.7844117" lon="9.2270617"><ele>362.0</ele><time>2026-04-24T09:38:38.5Z</time></trkpt><trkpt lat="39.7844833" lon="9.227015"><ele>362.0</ele><time>2026-04-24T09:38:39.5Z</time></trkpt><trkpt lat="39.7845633" lon="9.2269517"><ele>362.0</ele><time>2026-04-24T09:38:40.499Z</time></trkpt><trkpt lat="39.7846483" lon="9.2268833"><ele>359.5</ele><time>2026-04-24T09:38:41.5Z</time></trkpt><trkpt lat="39.7847417" lon="9.2268133"><ele>357.0</ele><time>2026-04-24T09:38:42.5Z</time></trkpt><trkpt lat="39.784835" lon="9.2267583"><ele>354.5</ele><time>2026-04-24T09:38:43.5Z</time></trkpt><trkpt lat="39.7850133" lon="9.226665"><ele>352.0</ele><time>2026-04-24T09:38:45.499Z</time></trkpt><trkpt lat="39.7851033" lon="9.226625"><ele>347.20000000000005</ele><time>2026-04-24T09:38:46.499Z</time></trkpt><trkpt lat="39.7851817" lon="9.2265683"><ele>342.4</ele><time>2026-04-24T09:38:47.5Z</time></trkpt><trkpt lat="39.7852567" lon="9.2265117"><ele>337.6</ele><time>2026-04-24T09:38:48.5Z</time></trkpt><trkpt lat="39.7853417" lon="9.2264517"><ele>332.79999999999995</ele><time>2026-04-24T09:38:49.5Z</time></trkpt><trkpt lat="39.7854333" lon="9.2264"><ele>328.0</ele><time>2026-04-24T09:38:50.499Z</time></trkpt><trkpt lat="39.7855333" lon="9.2263433"><ele>336.3333333333333</ele><time>2026-04-24T09:38:51.499Z</time></trkpt><trkpt lat="39.7856233" lon="9.22629"><ele>344.66666666666663</ele><time>2026-04-24T09:38:52.499Z</time></trkpt><trkpt lat="39.7857" lon="9.2262467"><ele>353.0</ele><time>2026-04-24T09:38:53.499Z</time></trkpt><trkpt lat="39.7857667" lon="9.2262"><ele>361.3333333333333</ele><time>2026-04-24T09:38:54.499Z</time></trkpt><trkpt lat="39.7858433" lon="9.22614"><ele>369.6666666666667</ele><time>2026-04-24T09:38:55.5Z</time></trkpt><trkpt lat="39.7859217" lon="9.226075"><ele>378.0</ele><time>2026-04-24T09:38:56.5Z</time></trkpt><trkpt lat="39.786005" lon="9.2260183"><ele>373.3333333333333</ele><time>2026-04-24T09:38:57.499Z</time></trkpt><trkpt lat="39.7860867" lon="9.2259617"><ele>368.6666666666667</ele><time>2026-04-24T09:38:58.499Z</time></trkpt><trkpt lat="39.7861617" lon="9.2259133"><ele>364.0</ele><time>2026-04-24T09:38:59.5Z</time></trkpt><trkpt lat="39.7862283" lon="9.2258617"><ele>359.33333333333337</ele><time>2026-04-24T09:39:00.5Z</time></trkpt><trkpt lat="39.7862933" lon="9.22582"><ele>354.6666666666667</ele><time>2026-04-24T09:39:01.499Z</time></trkpt><trkpt lat="39.7863533" lon="9.2257933"><ele>350.0</ele><time>2026-04-24T09:39:02.499Z</time></trkpt><trkpt lat="39.7864183" lon="9.2257783"><ele>350.0</ele><time>2026-04-24T09:39:03.5Z</time></trkpt><trkpt lat="39.78649" lon="9.2257783"><ele>350.0</ele><time>2026-04-24T09:39:04.499Z</time></trkpt><trkpt lat="39.7866183" lon="9.2258267"><ele>350.0</ele><time>2026-04-24T09:39:06.499Z</time></trkpt><trkpt lat="39.7867317" lon="9.2259033"><ele>350.0</ele><time>2026-04-24T09:39:08.499Z</time></trkpt><trkpt lat="39.7867917" lon="9.2259367"><ele>350.0</ele><time>2026-04-24T09:39:09.499Z</time></trkpt><trkpt lat="39.78691" lon="9.225955"><ele>349.0</ele><time>2026-04-24T09:39:11.499Z</time></trkpt><trkpt lat="39.7869733" lon="9.2259367"><ele>348.0</ele><time>2026-04-24T09:39:12.499Z</time></trkpt><trkpt lat="39.7870317" lon="9.2258983"><ele>347.0</ele><time>2026-04-24T09:39:13.499Z</time></trkpt><trkpt lat="39.787095" lon="9.225845"><ele>346.0</ele><time>2026-04-24T09:39:14.499Z</time></trkpt><trkpt lat="39.78715" lon="9.2257933"><ele>345.0</ele><time>2026-04-24T09:39:15.5Z</time></trkpt><trkpt lat="39.7872033" lon="9.2257483"><ele>344.0</ele><time>2026-04-24T09:39:16.5Z</time></trkpt><trkpt lat="39.7872933" lon="9.2256617"><ele>343.0</ele><time>2026-04-24T09:39:18.499Z</time></trkpt><trkpt lat="39.7873567" lon="9.2256133"><ele>343.0</ele><time>2026-04-24T09:39:20.499Z</time></trkpt><trkpt lat="39.78739" lon="9.2255383"><ele>343.0</ele><time>2026-04-24T09:39:30.499Z</time></trkpt><trkpt lat="39.7874333" lon="9.2252767"><ele>343.0</ele><time>2026-04-24T09:39:34.5Z</time></trkpt><trkpt lat="39.7874683" lon="9.2252067"><ele>343.0</ele><time>2026-04-24T09:39:35.499Z</time></trkpt><trkpt lat="39.78753" lon="9.2251367"><ele>343.0</ele><time>2026-04-24T09:39:36.5Z</time></trkpt><trkpt lat="39.7875833" lon="9.2250667"><ele>343.0</ele><time>2026-04-24T09:39:37.499Z</time></trkpt><trkpt lat="39.787645" lon="9.2249917"><ele>343.0</ele><time>2026-04-24T09:39:38.5Z</time></trkpt><trkpt lat="39.78772" lon="9.2249133"><ele>343.0</ele><time>2026-04-24T09:39:39.499Z</time></trkpt><trkpt lat="39.7877933" lon="9.224835"><ele>343.0</ele><time>2026-04-24T09:39:40.499Z</time></trkpt><trkpt lat="39.7878717" lon="9.22476"><ele>343.0</ele><time>2026-04-24T09:39:41.5Z</time></trkpt><trkpt lat="39.7879617" lon="9.2246883"><ele>339.0</ele><time>2026-04-24T09:39:42.499Z</time></trkpt><trkpt lat="39.78805" lon="9.22462"><ele>335.0</ele><time>2026-04-24T09:39:43.5Z</time></trkpt><trkpt lat="39.7881333" lon="9.2245417"><ele>331.0</ele><time>2026-04-24T09:39:44.5Z</time></trkpt><trkpt lat="39.7882183" lon="9.2244683"><ele>327.0</ele><time>2026-04-24T09:39:45.5Z</time></trkpt><trkpt lat="39.7883067" lon="9.22439"><ele>323.0</ele><time>2026-04-24T09:39:46.499Z</time></trkpt><trkpt lat="39.78839" lon="9.2243183"><ele>323.0</ele><time>2026-04-24T09:39:47.499Z</time></trkpt><trkpt lat="39.7884633" lon="9.22424"><ele>323.0</ele><time>2026-04-24T09:39:48.499Z</time></trkpt><trkpt lat="39.788535" lon="9.22415"><ele>323.0</ele><time>2026-04-24T09:39:49.499Z</time></trkpt><trkpt lat="39.7885967" lon="9.2240483"><ele>323.0</ele><time>2026-04-24T09:39:50.499Z</time></trkpt><trkpt lat="39.7886533" lon="9.2239533"><ele>323.0</ele><time>2026-04-24T09:39:51.499Z</time></trkpt><trkpt lat="39.788745" lon="9.2238017"><ele>320.83333333333337</ele><time>2026-04-24T09:39:53.5Z</time></trkpt><trkpt lat="39.7888033" lon="9.2237433"><ele>318.6666666666667</ele><time>2026-04-24T09:39:54.499Z</time></trkpt><trkpt lat="39.7888917" lon="9.22366"><ele>316.5</ele><time>2026-04-24T09:39:56.499Z</time></trkpt><trkpt lat="39.7889633" lon="9.2235517"><ele>314.3333333333333</ele><time>2026-04-24T09:39:58.499Z</time></trkpt><trkpt lat="39.7890067" lon="9.2234883"><ele>312.16666666666663</ele><time>2026-04-24T09:39:59.499Z</time></trkpt><trkpt lat="39.7890583" lon="9.2234183"><ele>310.0</ele><time>2026-04-24T09:40:00.499Z</time></trkpt><trkpt lat="39.78911" lon="9.2233533"><ele>310.0</ele><time>2026-04-24T09:40:01.499Z</time></trkpt><trkpt lat="39.789175" lon="9.2233"><ele>310.0</ele><time>2026-04-24T09:40:02.5Z</time></trkpt><trkpt lat="39.7892517" lon="9.2232533"><ele>310.0</ele><time>2026-04-24T09:40:03.499Z</time></trkpt><trkpt lat="39.7893283" lon="9.2232217"><ele>310.0</ele><time>2026-04-24T09:40:04.499Z</time></trkpt><trkpt lat="39.7894117" lon="9.2232"><ele>310.0</ele><time>2026-04-24T09:40:05.499Z</time></trkpt><trkpt lat="39.789495" lon="9.2231967"><ele>310.0</ele><time>2026-04-24T09:40:06.5Z</time></trkpt><trkpt lat="39.7895867" lon="9.2231883"><ele>308.3333333333333</ele><time>2026-04-24T09:40:07.499Z</time></trkpt><trkpt lat="39.789675" lon="9.2231867"><ele>306.66666666666663</ele><time>2026-04-24T09:40:08.5Z</time></trkpt><trkpt lat="39.7897583" lon="9.223165"><ele>305.0</ele><time>2026-04-24T09:40:09.5Z</time></trkpt><trkpt lat="39.789845" lon="9.2231317"><ele>303.3333333333333</ele><time>2026-04-24T09:40:10.499Z</time></trkpt><trkpt lat="39.78993" lon="9.2230867"><ele>301.6666666666667</ele><time>2026-04-24T09:40:11.5Z</time></trkpt><trkpt lat="39.790015" lon="9.2230367"><ele>300.0</ele><time>2026-04-24T09:40:12.499Z</time></trkpt><trkpt lat="39.7901867" lon="9.2229333"><ele>300.0</ele><time>2026-04-24T09:40:14.5Z</time></trkpt><trkpt lat="39.7902583" lon="9.222885"><ele>300.0</ele><time>2026-04-24T09:40:15.5Z</time></trkpt><trkpt lat="39.7903183" lon="9.22282"><ele>300.0</ele><time>2026-04-24T09:40:16.5Z</time></trkpt><trkpt lat="39.7903717" lon="9.2227517"><ele>300.0</ele><time>2026-04-24T09:40:17.499Z</time></trkpt><trkpt lat="39.79042" lon="9.2226783"><ele>300.0</ele><time>2026-04-24T09:40:18.5Z</time></trkpt><trkpt lat="39.7904633" lon="9.2225967"><ele>300.0</ele><time>2026-04-24T09:40:19.5Z</time></trkpt><trkpt lat="39.7905017" lon="9.2225017"><ele>300.0</ele><time>2026-04-24T09:40:20.499Z</time></trkpt><trkpt lat="39.7905333" lon="9.2224267"><ele>300.0</ele><time>2026-04-24T09:40:21.499Z</time></trkpt><trkpt lat="39.7906283" lon="9.2223467"><ele>300.0</ele><time>2026-04-24T09:40:23.499Z</time></trkpt><trkpt lat="39.7907467" lon="9.22235"><ele>300.0</ele><time>2026-04-24T09:40:25.5Z</time></trkpt><trkpt lat="39.7908183" lon="9.2223567"><ele>300.0</ele><time>2026-04-24T09:40:26.499Z</time></trkpt><trkpt lat="39.790885" lon="9.2223483"><ele>300.0</ele><time>2026-04-24T09:40:27.499Z</time></trkpt><trkpt lat="39.790955" lon="9.2223283"><ele>300.0</ele><time>2026-04-24T09:40:28.499Z</time></trkpt><trkpt lat="39.791025" lon="9.2223017"><ele>300.0</ele><time>2026-04-24T09:40:29.5Z</time></trkpt><trkpt lat="39.791095" lon="9.2222583"><ele>300.0</ele><time>2026-04-24T09:40:30.5Z</time></trkpt><trkpt lat="39.7911583" lon="9.2221967"><ele>300.0</ele><time>2026-04-24T09:40:31.5Z</time></trkpt><trkpt lat="39.7912083" lon="9.2221267"><ele>300.0</ele><time>2026-04-24T09:40:32.5Z</time></trkpt><trkpt lat="39.79125" lon="9.2220633"><ele>300.0</ele><time>2026-04-24T09:40:33.5Z</time></trkpt><trkpt lat="39.791355" lon="9.2217733"><ele>300.0</ele><time>2026-04-24T09:40:37.5Z</time></trkpt><trkpt lat="39.7913683" lon="9.22168"><ele>300.0</ele><time>2026-04-24T09:40:38.5Z</time></trkpt><trkpt lat="39.7913783" lon="9.2215917"><ele>300.0</ele><time>2026-04-24T09:40:39.5Z</time></trkpt><trkpt lat="39.7914" lon="9.2215117"><ele>300.0</ele><time>2026-04-24T09:40:40.5Z</time></trkpt><trkpt lat="39.791415" lon="9.2213733"><ele>300.0</ele><time>2026-04-24T09:40:42.499Z</time></trkpt><trkpt lat="39.7914767" lon="9.2212417"><ele>300.0</ele><time>2026-04-24T09:40:44.5Z</time></trkpt><trkpt lat="39.7915267" lon="9.2211783"><ele>306.2</ele><time>2026-04-24T09:40:45.5Z</time></trkpt><trkpt lat="39.7915917" lon="9.2211283"><ele>312.4</ele><time>2026-04-24T09:40:46.499Z</time></trkpt><trkpt lat="39.7916567" lon="9.2211117"><ele>318.6</ele><time>2026-04-24T09:40:47.499Z</time></trkpt><trkpt lat="39.79175" lon="9.2211383"><ele>324.8</ele><time>2026-04-24T09:40:49.5Z</time></trkpt><trkpt lat="39.79183" lon="9.2212217"><ele>331.0</ele><time>2026-04-24T09:40:51.5Z</time></trkpt><trkpt lat="39.7919283" lon="9.2212983"><ele>331.20000000000005</ele><time>2026-04-24T09:40:53.5Z</time></trkpt><trkpt lat="39.7919983" lon="9.2213183"><ele>331.40000000000003</ele><time>2026-04-24T09:40:54.5Z</time></trkpt><trkpt lat="39.7921567" lon="9.2213333"><ele>331.6</ele><time>2026-04-24T09:40:56.499Z</time></trkpt><trkpt lat="39.7922283" lon="9.2213333"><ele>331.8</ele><time>2026-04-24T09:40:57.5Z</time></trkpt><trkpt lat="39.7922967" lon="9.2213233"><ele>332.0</ele><time>2026-04-24T09:40:58.499Z</time></trkpt><trkpt lat="39.7924067" lon="9.2212433"><ele>332.0</ele><time>2026-04-24T09:41:00.499Z</time></trkpt><trkpt lat="39.79247" lon="9.2211867"><ele>332.0</ele><time>2026-04-24T09:41:01.5Z</time></trkpt><trkpt lat="39.7925317" lon="9.221145"><ele>332.0</ele><time>2026-04-24T09:41:02.5Z</time></trkpt><trkpt lat="39.792605" lon="9.2211233"><ele>332.0</ele><time>2026-04-24T09:41:03.5Z</time></trkpt><trkpt lat="39.7926817" lon="9.2211233"><ele>332.0</ele><time>2026-04-24T09:41:04.498Z</time></trkpt><trkpt lat="39.7927583" lon="9.22112"><ele>332.0</ele><time>2026-04-24T09:41:05.498Z</time></trkpt><trkpt lat="39.7928333" lon="9.221115"><ele>332.6666666666667</ele><time>2026-04-24T09:41:06.499Z</time></trkpt><trkpt lat="39.7929083" lon="9.2210967"><ele>333.33333333333337</ele><time>2026-04-24T09:41:07.498Z</time></trkpt><trkpt lat="39.7929833" lon="9.2210667"><ele>334.0</ele><time>2026-04-24T09:41:08.498Z</time></trkpt><trkpt lat="39.793055" lon="9.2210233"><ele>334.6666666666667</ele><time>2026-04-24T09:41:09.498Z</time></trkpt><trkpt lat="39.79312" lon="9.220985"><ele>335.3333333333333</ele><time>2026-04-24T09:41:10.498Z</time></trkpt><trkpt lat="39.793235" lon="9.220955"><ele>336.0</ele><time>2026-04-24T09:41:12.498Z</time></trkpt><trkpt lat="39.7933083" lon="9.2209533"><ele>336.0</ele><time>2026-04-24T09:41:13.499Z</time></trkpt><trkpt lat="39.7933767" lon="9.2209633"><ele>336.0</ele><time>2026-04-24T09:41:14.498Z</time></trkpt><trkpt lat="39.79351" lon="9.2210083"><ele>336.0</ele><time>2026-04-24T09:41:16.498Z</time></trkpt><trkpt lat="39.7936567" lon="9.221045"><ele>336.0</ele><time>2026-04-24T09:41:18.498Z</time></trkpt><trkpt lat="39.7937433" lon="9.2210467"><ele>336.0</ele><time>2026-04-24T09:41:19.498Z</time></trkpt><trkpt lat="39.7938333" lon="9.2210333"><ele>337.0</ele><time>2026-04-24T09:41:20.498Z</time></trkpt><trkpt lat="39.7939183" lon="9.2210233"><ele>338.0</ele><time>2026-04-24T09:41:21.499Z</time></trkpt><trkpt lat="39.79401" lon="9.2210117"><ele>339.0</ele><time>2026-04-24T09:41:22.498Z</time></trkpt><trkpt lat="39.794095" lon="9.2210133"><ele>340.0</ele><time>2026-04-24T09:41:23.498Z</time></trkpt><trkpt lat="39.7941733" lon="9.2210167"><ele>341.0</ele><time>2026-04-24T09:41:24.498Z</time></trkpt><trkpt lat="39.7942517" lon="9.2210167"><ele>342.0</ele><time>2026-04-24T09:41:25.498Z</time></trkpt><trkpt lat="39.7943333" lon="9.2210067"><ele>343.1666666666667</ele><time>2026-04-24T09:41:26.498Z</time></trkpt><trkpt lat="39.7944117" lon="9.220995"><ele>344.3333333333333</ele><time>2026-04-24T09:41:27.498Z</time></trkpt><trkpt lat="39.7944883" lon="9.220965"><ele>345.5</ele><time>2026-04-24T09:41:28.499Z</time></trkpt><trkpt lat="39.7945667" lon="9.220925"><ele>346.66666666666663</ele><time>2026-04-24T09:41:29.498Z</time></trkpt><trkpt lat="39.7946333" lon="9.220895"><ele>347.8333333333333</ele><time>2026-04-24T09:41:30.499Z</time></trkpt><trkpt lat="39.7947483" lon="9.2208767"><ele>349.0</ele><time>2026-04-24T09:41:32.498Z</time></trkpt><trkpt lat="39.7948283" lon="9.22096"><ele>349.0</ele><time>2026-04-24T09:41:34.498Z</time></trkpt><trkpt lat="39.7948717" lon="9.22112"><ele>349.0</ele><time>2026-04-24T09:41:36.498Z</time></trkpt><trkpt lat="39.7949017" lon="9.2212"><ele>349.0</ele><time>2026-04-24T09:41:37.498Z</time></trkpt><trkpt lat="39.795005" lon="9.2213167"><ele>349.0</ele><time>2026-04-24T09:41:39.498Z</time></trkpt><trkpt lat="39.79507" lon="9.2213517"><ele>349.0</ele><time>2026-04-24T09:41:40.498Z</time></trkpt><trkpt lat="39.795205" lon="9.2213433"><ele>349.5</ele><time>2026-04-24T09:41:42.498Z</time></trkpt><trkpt lat="39.7952733" lon="9.2213183"><ele>350.0</ele><time>2026-04-24T09:41:43.498Z</time></trkpt><trkpt lat="39.7953467" lon="9.2212933"><ele>350.5</ele><time>2026-04-24T09:41:44.499Z</time></trkpt><trkpt lat="39.7954183" lon="9.2212683"><ele>351.0</ele><time>2026-04-24T09:41:45.499Z</time></trkpt><trkpt lat="39.7954883" lon="9.2212533"><ele>351.5</ele><time>2026-04-24T09:41:46.498Z</time></trkpt><trkpt lat="39.7955667" lon="9.2212533"><ele>352.0</ele><time>2026-04-24T09:41:47.499Z</time></trkpt><trkpt lat="39.7956483" lon="9.221265"><ele>352.0</ele><time>2026-04-24T09:41:48.499Z</time></trkpt><trkpt lat="39.7957217" lon="9.221285"><ele>352.0</ele><time>2026-04-24T09:41:49.499Z</time></trkpt><trkpt lat="39.7957983" lon="9.2212917"><ele>352.0</ele><time>2026-04-24T09:41:50.498Z</time></trkpt><trkpt lat="39.7958733" lon="9.2212883"><ele>352.0</ele><time>2026-04-24T09:41:51.498Z</time></trkpt><trkpt lat="39.7959383" lon="9.2212833"><ele>352.0</ele><time>2026-04-24T09:41:52.499Z</time></trkpt><trkpt lat="39.7960633" lon="9.2213017"><ele>352.0</ele><time>2026-04-24T09:41:54.499Z</time></trkpt><trkpt lat="39.7961433" lon="9.2213367"><ele>352.40000000000003</ele><time>2026-04-24T09:41:55.499Z</time></trkpt><trkpt lat="39.7962117" lon="9.22137"><ele>352.8</ele><time>2026-04-24T09:41:56.499Z</time></trkpt><trkpt lat="39.796335" lon="9.221395"><ele>353.2</ele><time>2026-04-24T09:41:58.498Z</time></trkpt><trkpt lat="39.7964633" lon="9.2213417"><ele>353.6</ele><time>2026-04-24T09:42:00.498Z</time></trkpt><trkpt lat="39.7965317" lon="9.2213"><ele>354.0</ele><time>2026-04-24T09:42:01.498Z</time></trkpt><trkpt lat="39.7966" lon="9.22125"><ele>354.0</ele><time>2026-04-24T09:42:02.499Z</time></trkpt><trkpt lat="39.796665" lon="9.2211967"><ele>354.0</ele><time>2026-04-24T09:42:03.499Z</time></trkpt><trkpt lat="39.796735" lon="9.2211533"><ele>354.0</ele><time>2026-04-24T09:42:04.498Z</time></trkpt><trkpt lat="39.7968083" lon="9.221115"><ele>354.0</ele><time>2026-04-24T09:42:05.498Z</time></trkpt><trkpt lat="39.79687" lon="9.2210917"><ele>354.0</ele><time>2026-04-24T09:42:06.499Z</time></trkpt><trkpt lat="39.796935" lon="9.221095"><ele>354.0</ele><time>2026-04-24T09:42:07.499Z</time></trkpt><trkpt lat="39.7970033" lon="9.221105"><ele>354.0</ele><time>2026-04-24T09:42:08.499Z</time></trkpt><trkpt lat="39.7970717" lon="9.2211117"><ele>353.5</ele><time>2026-04-24T09:42:09.499Z</time></trkpt><trkpt lat="39.7971467" lon="9.2211067"><ele>353.0</ele><time>2026-04-24T09:42:10.498Z</time></trkpt><trkpt lat="39.797225" lon="9.2210883"><ele>352.5</ele><time>2026-04-24T09:42:11.499Z</time></trkpt><trkpt lat="39.7973117" lon="9.2210567"><ele>352.0</ele><time>2026-04-24T09:42:12.499Z</time></trkpt><trkpt lat="39.79741" lon="9.2210233"><ele>351.5</ele><time>2026-04-24T09:42:13.499Z</time></trkpt><trkpt lat="39.79751" lon="9.220995"><ele>351.0</ele><time>2026-04-24T09:42:14.499Z</time></trkpt><trkpt lat="39.7976117" lon="9.2209667"><ele>346.8</ele><time>2026-04-24T09:42:15.499Z</time></trkpt><trkpt lat="39.7977133" lon="9.220945"><ele>342.6</ele><time>2026-04-24T09:42:16.498Z</time></trkpt><trkpt lat="39.7978083" lon="9.2209183"><ele>338.4</ele><time>2026-04-24T09:42:17.498Z</time></trkpt><trkpt lat="39.797895" lon="9.22089"><ele>334.2</ele><time>2026-04-24T09:42:18.498Z</time></trkpt><trkpt lat="39.7979717" lon="9.220865"><ele>330.0</ele><time>2026-04-24T09:42:19.499Z</time></trkpt><trkpt lat="39.79813" lon="9.2207817"><ele>330.0</ele><time>2026-04-24T09:42:21.498Z</time></trkpt><trkpt lat="39.7982083" lon="9.2207367"><ele>330.0</ele><time>2026-04-24T09:42:22.498Z</time></trkpt><trkpt lat="39.7982783" lon="9.220695"><ele>330.0</ele><time>2026-04-24T09:42:23.498Z</time></trkpt><trkpt lat="39.7983517" lon="9.2206467"><ele>330.0</ele><time>2026-04-24T09:42:24.498Z</time></trkpt><trkpt lat="39.79843" lon="9.2206117"><ele>330.0</ele><time>2026-04-24T09:42:25.499Z</time></trkpt><trkpt lat="39.7985117" lon="9.22059"><ele>330.0</ele><time>2026-04-24T09:42:26.498Z</time></trkpt><trkpt lat="39.79859" lon="9.220585"><ele>333.8333333333333</ele><time>2026-04-24T09:42:27.499Z</time></trkpt><trkpt lat="39.7986683" lon="9.2205783"><ele>337.6666666666667</ele><time>2026-04-24T09:42:28.499Z</time></trkpt><trkpt lat="39.7987433" lon="9.2205717"><ele>341.5</ele><time>2026-04-24T09:42:29.499Z</time></trkpt><trkpt lat="39.798815" lon="9.2205733"><ele>345.33333333333337</ele><time>2026-04-24T09:42:30.499Z</time></trkpt><trkpt lat="39.798885" lon="9.2205567"><ele>349.1666666666667</ele><time>2026-04-24T09:42:31.498Z</time></trkpt><trkpt lat="39.79896" lon="9.220525"><ele>353.0</ele><time>2026-04-24T09:42:32.499Z</time></trkpt><trkpt lat="39.79903" lon="9.22049"><ele>353.0</ele><time>2026-04-24T09:42:33.499Z</time></trkpt><trkpt lat="39.7991" lon="9.2204583"><ele>353.0</ele><time>2026-04-24T09:42:34.499Z</time></trkpt><trkpt lat="39.7991667" lon="9.220455"><ele>353.0</ele><time>2026-04-24T09:42:35.499Z</time></trkpt><trkpt lat="39.7992333" lon="9.2204767"><ele>353.0</ele><time>2026-04-24T09:42:36.498Z</time></trkpt><trkpt lat="39.7993" lon="9.2204933"><ele>353.0</ele><time>2026-04-24T09:42:37.498Z</time></trkpt><trkpt lat="39.7993883" lon="9.2204933"><ele>353.0</ele><time>2026-04-24T09:42:38.498Z</time></trkpt><trkpt lat="39.7994783" lon="9.2204883"><ele>352.25</ele><time>2026-04-24T09:42:39.498Z</time></trkpt><trkpt lat="39.7995683" lon="9.2204933"><ele>351.5</ele><time>2026-04-24T09:42:40.499Z</time></trkpt><trkpt lat="39.7997733" lon="9.2205"><ele>350.75</ele><time>2026-04-24T09:42:42.499Z</time></trkpt><trkpt lat="39.79987" lon="9.22051"><ele>350.0</ele><time>2026-04-24T09:42:43.499Z</time></trkpt><trkpt lat="39.7999633" lon="9.220515"><ele>350.0</ele><time>2026-04-24T09:42:44.498Z</time></trkpt><trkpt lat="39.8000567" lon="9.2205217"><ele>350.0</ele><time>2026-04-24T09:42:45.498Z</time></trkpt><trkpt lat="39.8001517" lon="9.220515"><ele>350.0</ele><time>2026-04-24T09:42:46.499Z</time></trkpt><trkpt lat="39.80024" lon="9.220505"><ele>350.0</ele><time>2026-04-24T09:42:47.498Z</time></trkpt><trkpt lat="39.80033" lon="9.2204933"><ele>350.0</ele><time>2026-04-24T09:42:48.499Z</time></trkpt><trkpt lat="39.80042" lon="9.22048"><ele>346.33333333333337</ele><time>2026-04-24T09:42:49.499Z</time></trkpt><trkpt lat="39.800495" lon="9.2204583"><ele>342.6666666666667</ele><time>2026-04-24T09:42:50.498Z</time></trkpt><trkpt lat="39.800565" lon="9.220425"><ele>339.0</ele><time>2026-04-24T09:42:51.499Z</time></trkpt><trkpt lat="39.8006233" lon="9.220375"><ele>335.3333333333333</ele><time>2026-04-24T09:42:52.498Z</time></trkpt><trkpt lat="39.8006883" lon="9.2203"><ele>331.66666666666663</ele><time>2026-04-24T09:42:53.499Z</time></trkpt><trkpt lat="39.80076" lon="9.220225"><ele>328.0</ele><time>2026-04-24T09:42:54.499Z</time></trkpt><trkpt lat="39.8008317" lon="9.22016"><ele>328.0</ele><time>2026-04-24T09:42:55.498Z</time></trkpt><trkpt lat="39.8009067" lon="9.22011"><ele>328.0</ele><time>2026-04-24T09:42:56.498Z</time></trkpt><trkpt lat="39.8009833" lon="9.2200667"><ele>328.0</ele><time>2026-04-24T09:42:57.499Z</time></trkpt><trkpt lat="39.8010567" lon="9.2200317"><ele>328.0</ele><time>2026-04-24T09:42:58.499Z</time></trkpt><trkpt lat="39.80113" lon="9.2199967"><ele>328.0</ele><time>2026-04-24T09:42:59.499Z</time></trkpt><trkpt lat="39.8012033" lon="9.2199517"><ele>328.0</ele><time>2026-04-24T09:43:00.498Z</time></trkpt><trkpt lat="39.8012783" lon="9.2199117"><ele>327.8333333333333</ele><time>2026-04-24T09:43:01.498Z</time></trkpt><trkpt lat="39.8014183" lon="9.219805"><ele>327.66666666666663</ele><time>2026-04-24T09:43:03.498Z</time></trkpt><trkpt lat="39.8014683" lon="9.2197467"><ele>327.5</ele><time>2026-04-24T09:43:04.498Z</time></trkpt><trkpt lat="39.8015133" lon="9.219685"><ele>327.3333333333333</ele><time>2026-04-24T09:43:05.498Z</time></trkpt><trkpt lat="39.8015667" lon="9.2196383"><ele>327.1666666666667</ele><time>2026-04-24T09:43:06.498Z</time></trkpt><trkpt lat="39.80163" lon="9.2196017"><ele>327.0</ele><time>2026-04-24T09:43:07.498Z</time></trkpt><trkpt lat="39.8016983" lon="9.2195633"><ele>327.0</ele><time>2026-04-24T09:43:08.498Z</time></trkpt><trkpt lat="39.8017617" lon="9.21952"><ele>327.0</ele><time>2026-04-24T09:43:09.498Z</time></trkpt><trkpt lat="39.8018233" lon="9.2194683"><ele>327.0</ele><time>2026-04-24T09:43:10.498Z</time></trkpt><trkpt lat="39.8018917" lon="9.2194133"><ele>327.0</ele><time>2026-04-24T09:43:11.499Z</time></trkpt><trkpt lat="39.8019583" lon="9.21936"><ele>327.0</ele><time>2026-04-24T09:43:12.498Z</time></trkpt><trkpt lat="39.8020267" lon="9.2193183"><ele>327.0</ele><time>2026-04-24T09:43:13.498Z</time></trkpt><trkpt lat="39.8021017" lon="9.21929"><ele>324.0</ele><time>2026-04-24T09:43:14.499Z</time></trkpt><trkpt lat="39.80218" lon="9.2192733"><ele>321.0</ele><time>2026-04-24T09:43:15.498Z</time></trkpt><trkpt lat="39.802265" lon="9.21927"><ele>318.0</ele><time>2026-04-24T09:43:16.498Z</time></trkpt><trkpt lat="39.8023583" lon="9.219265"><ele>315.0</ele><time>2026-04-24T09:43:17.499Z</time></trkpt><trkpt lat="39.802455" lon="9.2192567"><ele>312.0</ele><time>2026-04-24T09:43:18.498Z</time></trkpt><trkpt lat="39.8025483" lon="9.219255"><ele>309.0</ele><time>2026-04-24T09:43:19.498Z</time></trkpt><trkpt lat="39.80264" lon="9.2192533"><ele>305.0</ele><time>2026-04-24T09:43:20.498Z</time></trkpt><trkpt lat="39.8027383" lon="9.219255"><ele>301.0</ele><time>2026-04-24T09:43:21.499Z</time></trkpt><trkpt lat="39.8028317" lon="9.2192583"><ele>297.0</ele><time>2026-04-24T09:43:22.499Z</time></trkpt><trkpt lat="39.803015" lon="9.21925"><ele>293.0</ele><time>2026-04-24T09:43:24.499Z</time></trkpt><trkpt lat="39.8030917" lon="9.219235"><ele>293.0</ele><time>2026-04-24T09:43:25.498Z</time></trkpt><trkpt lat="39.80316" lon="9.2192183"><ele>293.0</ele><time>2026-04-24T09:43:26.498Z</time></trkpt><trkpt lat="39.8032467" lon="9.2191433"><ele>293.0</ele><time>2026-04-24T09:43:28.498Z</time></trkpt><trkpt lat="39.8032933" lon="9.2190033"><ele>293.0</ele><time>2026-04-24T09:43:30.498Z</time></trkpt><trkpt lat="39.8033083" lon="9.218865"><ele>293.0</ele><time>2026-04-24T09:43:32.498Z</time></trkpt><trkpt lat="39.8034017" lon="9.21879"><ele>295.6666666666667</ele><time>2026-04-24T09:43:34.498Z</time></trkpt><trkpt lat="39.8034667" lon="9.2187767"><ele>298.33333333333337</ele><time>2026-04-24T09:43:35.499Z</time></trkpt><trkpt lat="39.80357" lon="9.2187533"><ele>301.0</ele><time>2026-04-24T09:43:37.498Z</time></trkpt><trkpt lat="39.8036367" lon="9.2187417"><ele>303.6666666666667</ele><time>2026-04-24T09:43:38.499Z</time></trkpt><trkpt lat="39.803705" lon="9.218735"><ele>306.3333333333333</ele><time>2026-04-24T09:43:39.499Z</time></trkpt><trkpt lat="39.80378" lon="9.2187383"><ele>309.0</ele><time>2026-04-24T09:43:40.498Z</time></trkpt><trkpt lat="39.8038567" lon="9.2187583"><ele>309.0</ele><time>2026-04-24T09:43:41.499Z</time></trkpt><trkpt lat="39.80394" lon="9.2187817"><ele>309.0</ele><time>2026-04-24T09:43:42.498Z</time></trkpt><trkpt lat="39.80402" lon="9.2188117"><ele>309.0</ele><time>2026-04-24T09:43:43.499Z</time></trkpt><trkpt lat="39.804175" lon="9.2188583"><ele>309.0</ele><time>2026-04-24T09:43:45.498Z</time></trkpt><trkpt lat="39.804255" lon="9.2188783"><ele>309.0</ele><time>2026-04-24T09:43:46.499Z</time></trkpt><trkpt lat="39.8043417" lon="9.218905"><ele>310.8333333333333</ele><time>2026-04-24T09:43:47.498Z</time></trkpt><trkpt lat="39.804425" lon="9.218925"><ele>312.6666666666667</ele><time>2026-04-24T09:43:48.499Z</time></trkpt><trkpt lat="39.8045033" lon="9.2189617"><ele>314.5</ele><time>2026-04-24T09:43:49.498Z</time></trkpt><trkpt lat="39.8045767" lon="9.2189933"><ele>316.33333333333337</ele><time>2026-04-24T09:43:50.499Z</time></trkpt><trkpt lat="39.8046433" lon="9.21901"><ele>318.1666666666667</ele><time>2026-04-24T09:43:51.498Z</time></trkpt><trkpt lat="39.804715" lon="9.2190133"><ele>320.0</ele><time>2026-04-24T09:43:52.498Z</time></trkpt><trkpt lat="39.80478" lon="9.2190067"><ele>320.0</ele><time>2026-04-24T09:43:53.498Z</time></trkpt><trkpt lat="39.804885" lon="9.2189817"><ele>320.0</ele><time>2026-04-24T09:43:55.498Z</time></trkpt><trkpt lat="39.8049733" lon="9.219"><ele>320.0</ele><time>2026-04-24T09:43:57.498Z</time></trkpt><trkpt lat="39.8050533" lon="9.21907"><ele>320.0</ele><time>2026-04-24T09:43:59.498Z</time></trkpt><trkpt lat="39.805135" lon="9.2191583"><ele>320.0</ele><time>2026-04-24T09:44:01.498Z</time></trkpt><trkpt lat="39.805195" lon="9.2191833"><ele>315.4</ele><time>2026-04-24T09:44:02.499Z</time></trkpt><trkpt lat="39.8052667" lon="9.2192067"><ele>310.8</ele><time>2026-04-24T09:44:03.499Z</time></trkpt><trkpt lat="39.8053383" lon="9.2192167"><ele>306.2</ele><time>2026-04-24T09:44:04.499Z</time></trkpt><trkpt lat="39.8054967" lon="9.2192083"><ele>301.6</ele><time>2026-04-24T09:44:06.499Z</time></trkpt><trkpt lat="39.8055717" lon="9.2191917"><ele>297.0</ele><time>2026-04-24T09:44:07.499Z</time></trkpt><trkpt lat="39.805655" lon="9.21916"><ele>297.0</ele><time>2026-04-24T09:44:08.498Z</time></trkpt><trkpt lat="39.8057367" lon="9.2191317"><ele>297.0</ele><time>2026-04-24T09:44:09.498Z</time></trkpt><trkpt lat="39.80583" lon="9.2190967"><ele>297.0</ele><time>2026-04-24T09:44:10.498Z</time></trkpt><trkpt lat="39.8059167" lon="9.21906"><ele>297.0</ele><time>2026-04-24T09:44:11.499Z</time></trkpt><trkpt lat="39.8060017" lon="9.21901"><ele>297.0</ele><time>2026-04-24T09:44:12.498Z</time></trkpt><trkpt lat="39.8060917" lon="9.218955"><ele>299.8333333333333</ele><time>2026-04-24T09:44:13.498Z</time></trkpt><trkpt lat="39.8061783" lon="9.2188983"><ele>302.6666666666667</ele><time>2026-04-24T09:44:14.498Z</time></trkpt><trkpt lat="39.8062533" lon="9.2188317"><ele>305.5</ele><time>2026-04-24T09:44:15.499Z</time></trkpt><trkpt lat="39.8063217" lon="9.21877"><ele>308.33333333333337</ele><time>2026-04-24T09:44:16.499Z</time></trkpt><trkpt lat="39.806395" lon="9.2187167"><ele>311.1666666666667</ele><time>2026-04-24T09:44:17.498Z</time></trkpt><trkpt lat="39.8064617" lon="9.21868"><ele>314.0</ele><time>2026-04-24T09:44:18.499Z</time></trkpt><trkpt lat="39.80653" lon="9.2186617"><ele>314.0</ele><time>2026-04-24T09:44:19.498Z</time></trkpt><trkpt lat="39.8065983" lon="9.2186517"><ele>314.0</ele><time>2026-04-24T09:44:20.498Z</time></trkpt><trkpt lat="39.8066767" lon="9.2186383"><ele>314.0</ele><time>2026-04-24T09:44:21.499Z</time></trkpt><trkpt lat="39.8067667" lon="9.2186233"><ele>314.0</ele><time>2026-04-24T09:44:22.498Z</time></trkpt><trkpt lat="39.8068533" lon="9.2186033"><ele>314.0</ele><time>2026-04-24T09:44:23.498Z</time></trkpt><trkpt lat="39.8069417" lon="9.2185883"><ele>314.0</ele><time>2026-04-24T09:44:24.498Z</time></trkpt><trkpt lat="39.8070283" lon="9.218575"><ele>312.25</ele><time>2026-04-24T09:44:25.499Z</time></trkpt><trkpt lat="39.8072167" lon="9.218595"><ele>310.5</ele><time>2026-04-24T09:44:27.499Z</time></trkpt><trkpt lat="39.807305" lon="9.21862"><ele>308.75</ele><time>2026-04-24T09:44:28.498Z</time></trkpt><trkpt lat="39.8073917" lon="9.2186467"><ele>307.0</ele><time>2026-04-24T09:44:29.499Z</time></trkpt><trkpt lat="39.8074717" lon="9.2186767"><ele>307.0</ele><time>2026-04-24T09:44:30.499Z</time></trkpt><trkpt lat="39.8075467" lon="9.2187067"><ele>307.0</ele><time>2026-04-24T09:44:31.499Z</time></trkpt><trkpt lat="39.80762" lon="9.21874"><ele>307.0</ele><time>2026-04-24T09:44:32.498Z</time></trkpt><trkpt lat="39.807685" lon="9.2187717"><ele>307.0</ele><time>2026-04-24T09:44:33.498Z</time></trkpt><trkpt lat="39.8077533" lon="9.2188117"><ele>307.0</ele><time>2026-04-24T09:44:34.499Z</time></trkpt><trkpt lat="39.8078133" lon="9.2188717"><ele>307.0</ele><time>2026-04-24T09:44:35.498Z</time></trkpt><trkpt lat="39.8078733" lon="9.218935"><ele>305.0</ele><time>2026-04-24T09:44:36.499Z</time></trkpt><trkpt lat="39.80793" lon="9.21901"><ele>303.0</ele><time>2026-04-24T09:44:37.499Z</time></trkpt><trkpt lat="39.8079883" lon="9.2190867"><ele>301.0</ele><time>2026-04-24T09:44:38.498Z</time></trkpt><trkpt lat="39.8080483" lon="9.2191617"><ele>299.0</ele><time>2026-04-24T09:44:39.498Z</time></trkpt><trkpt lat="39.808105" lon="9.2192267"><ele>297.0</ele><time>2026-04-24T09:44:40.499Z</time></trkpt><trkpt lat="39.8081683" lon="9.219275"><ele>295.0</ele><time>2026-04-24T09:44:41.499Z</time></trkpt><trkpt lat="39.80821" lon="9.21934"><ele>295.0</ele><time>2026-04-24T09:44:42.498Z</time></trkpt><trkpt lat="39.80826" lon="9.2195"><ele>295.0</ele><time>2026-04-24T09:44:44.498Z</time></trkpt><trkpt lat="39.80827" lon="9.2195967"><ele>295.0</ele><time>2026-04-24T09:44:45.499Z</time></trkpt><trkpt lat="39.8082817" lon="9.21969"><ele>295.0</ele><time>2026-04-24T09:44:46.499Z</time></trkpt><trkpt lat="39.8083467" lon="9.2199067"><ele>292.2</ele><time>2026-04-24T09:44:49.499Z</time></trkpt><trkpt lat="39.8084367" lon="9.2199817"><ele>289.4</ele><time>2026-04-24T09:44:51.498Z</time></trkpt><trkpt lat="39.8085433" lon="9.2200117"><ele>286.6</ele><time>2026-04-24T09:44:53.499Z</time></trkpt><trkpt lat="39.8086067" lon="9.2200117"><ele>283.8</ele><time>2026-04-24T09:44:54.499Z</time></trkpt><trkpt lat="39.8087183" lon="9.22004"><ele>281.0</ele><time>2026-04-24T09:44:56.498Z</time></trkpt><trkpt lat="39.808805" lon="9.2200483"><ele>281.0</ele><time>2026-04-24T09:45:14.499Z</time></trkpt><trkpt lat="39.8086717" lon="9.2200083"><ele>281.0</ele><time>2026-04-24T09:45:20.498Z</time></trkpt><trkpt lat="39.8086817" lon="9.2201083"><ele>281.0</ele><time>2026-04-24T09:45:26.498Z</time></trkpt><trkpt lat="39.8087283" lon="9.2201717"><ele>281.0</ele><time>2026-04-24T09:45:29.498Z</time></trkpt><trkpt lat="39.8087983" lon="9.2202233"><ele>281.0</ele><time>2026-04-24T09:45:33.498Z</time></trkpt><trkpt lat="39.80885" lon="9.22028"><ele>281.0</ele><time>2026-04-24T09:45:36.498Z</time></trkpt><trkpt lat="39.8088" lon="9.2204133"><ele>281.0</ele><time>2026-04-24T09:45:44.498Z</time></trkpt><trkpt lat="39.8087317" lon="9.2204483"><ele>281.0</ele><time>2026-04-24T09:45:48.498Z</time></trkpt><trkpt lat="39.8086683" lon="9.2204267"><ele>281.0</ele><time>2026-04-24T09:54:26.496Z</time></trkpt><trkpt lat="39.8087483" lon="9.22029"><ele>281.0</ele><time>2026-04-24T09:54:44.496Z</time></trkpt><trkpt lat="39.8088183" lon="9.220325"><ele>281.0</ele><time>2026-04-24T09:54:50.497Z</time></trkpt><trkpt lat="39.8087967" lon="9.2202233"><ele>281.0</ele><time>2026-04-24T09:55:06.496Z</time></trkpt><trkpt lat="39.8087317" lon="9.220175"><ele>281.0</ele><time>2026-04-24T09:55:09.497Z</time></trkpt><trkpt lat="39.8086783" lon="9.220125"><ele>281.0</ele><time>2026-04-24T09:55:11.497Z</time></trkpt><trkpt lat="39.808695" lon="9.2200217"><ele>281.0</ele><time>2026-04-24T09:55:17.496Z</time></trkpt><trkpt lat="39.8087633" lon="9.2200583"><ele>281.0</ele><time>2026-04-24T09:55:19.496Z</time></trkpt><trkpt lat="39.8088483" lon="9.22002"><ele>281.0</ele><time>2026-04-24T09:56:50.497Z</time></trkpt><trkpt lat="39.808995" lon="9.2198717"><ele>283.6</ele><time>2026-04-24T09:56:53.496Z</time></trkpt><trkpt lat="39.80908" lon="9.21977"><ele>286.20000000000005</ele><time>2026-04-24T09:56:55.496Z</time></trkpt><trkpt lat="39.8091567" lon="9.21965"><ele>288.79999999999995</ele><time>2026-04-24T09:56:57.496Z</time></trkpt><trkpt lat="39.8091883" lon="9.2195767"><ele>291.4</ele><time>2026-04-24T09:56:58.497Z</time></trkpt><trkpt lat="39.8092233" lon="9.219495"><ele>294.0</ele><time>2026-04-24T09:56:59.497Z</time></trkpt><trkpt lat="39.8092617" lon="9.219405"><ele>294.0</ele><time>2026-04-24T09:57:00.497Z</time></trkpt><trkpt lat="39.8093" lon="9.21932"><ele>294.0</ele><time>2026-04-24T09:57:01.497Z</time></trkpt><trkpt lat="39.8093383" lon="9.2192367"><ele>294.0</ele><time>2026-04-24T09:57:02.496Z</time></trkpt><trkpt lat="39.8093717" lon="9.219155"><ele>294.0</ele><time>2026-04-24T09:57:03.497Z</time></trkpt><trkpt lat="39.80941" lon="9.2190783"><ele>294.0</ele><time>2026-04-24T09:57:04.496Z</time></trkpt><trkpt lat="39.8094583" lon="9.2190033"><ele>294.0</ele><time>2026-04-24T09:57:05.496Z</time></trkpt><trkpt lat="39.8095033" lon="9.2189317"><ele>294.0</ele><time>2026-04-24T09:57:06.496Z</time></trkpt><trkpt lat="39.809545" lon="9.2188667"><ele>291.8</ele><time>2026-04-24T09:57:07.496Z</time></trkpt><trkpt lat="39.8096083" lon="9.2187367"><ele>289.59999999999997</ele><time>2026-04-24T09:57:09.496Z</time></trkpt><trkpt lat="39.809635" lon="9.218655"><ele>287.4</ele><time>2026-04-24T09:57:10.495Z</time></trkpt><trkpt lat="39.8096767" lon="9.218575"><ele>285.2</ele><time>2026-04-24T09:57:11.495Z</time></trkpt><trkpt lat="39.8097483" lon="9.2183867"><ele>283.0</ele><time>2026-04-24T09:57:13.496Z</time></trkpt><trkpt lat="39.8097767" lon="9.2182933"><ele>283.0</ele><time>2026-04-24T09:57:14.496Z</time></trkpt><trkpt lat="39.8097917" lon="9.218205"><ele>283.0</ele><time>2026-04-24T09:57:15.496Z</time></trkpt><trkpt lat="39.809795" lon="9.218115"><ele>283.0</ele><time>2026-04-24T09:57:16.495Z</time></trkpt><trkpt lat="39.8098" lon="9.2180217"><ele>283.0</ele><time>2026-04-24T09:57:17.496Z</time></trkpt><trkpt lat="39.80981" lon="9.2179283"><ele>283.0</ele><time>2026-04-24T09:57:18.495Z</time></trkpt><trkpt lat="39.8098033" lon="9.2178183"><ele>283.0</ele><time>2026-04-24T09:57:19.496Z</time></trkpt><trkpt lat="39.8098" lon="9.2177083"><ele>283.5</ele><time>2026-04-24T09:57:20.496Z</time></trkpt><trkpt lat="39.8097917" lon="9.2175967"><ele>284.0</ele><time>2026-04-24T09:57:21.496Z</time></trkpt><trkpt lat="39.80978" lon="9.2174867"><ele>284.5</ele><time>2026-04-24T09:57:22.495Z</time></trkpt><trkpt lat="39.8097667" lon="9.2173833"><ele>285.0</ele><time>2026-04-24T09:57:23.495Z</time></trkpt><trkpt lat="39.8097583" lon="9.2172883"><ele>285.5</ele><time>2026-04-24T09:57:24.495Z</time></trkpt><trkpt lat="39.80974" lon="9.2171967"><ele>286.0</ele><time>2026-04-24T09:57:25.496Z</time></trkpt><trkpt lat="39.8097133" lon="9.21711"><ele>286.5</ele><time>2026-04-24T09:57:26.496Z</time></trkpt><trkpt lat="39.8096817" lon="9.217015"><ele>287.0</ele><time>2026-04-24T09:57:27.495Z</time></trkpt><trkpt lat="39.8096483" lon="9.2169233"><ele>287.5</ele><time>2026-04-24T09:57:28.495Z</time></trkpt><trkpt lat="39.80962" lon="9.2168283"><ele>288.0</ele><time>2026-04-24T09:57:29.495Z</time></trkpt><trkpt lat="39.8095967" lon="9.21674"><ele>288.5</ele><time>2026-04-24T09:57:30.495Z</time></trkpt><trkpt lat="39.8095617" lon="9.2166567"><ele>289.0</ele><time>2026-04-24T09:57:31.495Z</time></trkpt><trkpt lat="39.8095083" lon="9.21658"><ele>287.4</ele><time>2026-04-24T09:57:32.496Z</time></trkpt><trkpt lat="39.80939" lon="9.216425"><ele>285.79999999999995</ele><time>2026-04-24T09:57:34.496Z</time></trkpt><trkpt lat="39.8093533" lon="9.2163367"><ele>284.20000000000005</ele><time>2026-04-24T09:57:35.495Z</time></trkpt><trkpt lat="39.8093217" lon="9.2162383"><ele>282.6</ele><time>2026-04-24T09:57:36.495Z</time></trkpt><trkpt lat="39.809295" lon="9.21615"><ele>281.0</ele><time>2026-04-24T09:57:37.495Z</time></trkpt><trkpt lat="39.8092683" lon="9.2160067"><ele>281.0</ele><time>2026-04-24T09:57:39.495Z</time></trkpt><trkpt lat="39.8092967" lon="9.21586"><ele>281.0</ele><time>2026-04-24T09:57:41.496Z</time></trkpt><trkpt lat="39.8093333" lon="9.215785"><ele>281.0</ele><time>2026-04-24T09:57:42.496Z</time></trkpt><trkpt lat="39.8093667" lon="9.2157067"><ele>281.0</ele><time>2026-04-24T09:57:43.495Z</time></trkpt><trkpt lat="39.80939" lon="9.21561"><ele>281.0</ele><time>2026-04-24T09:57:44.496Z</time></trkpt><trkpt lat="39.8094017" lon="9.2155083"><ele>281.0</ele><time>2026-04-24T09:57:45.495Z</time></trkpt><trkpt lat="39.8094117" lon="9.2154067"><ele>282.0</ele><time>2026-04-24T09:57:46.496Z</time></trkpt><trkpt lat="39.8094283" lon="9.21531"><ele>283.0</ele><time>2026-04-24T09:57:47.495Z</time></trkpt><trkpt lat="39.8094433" lon="9.2152283"><ele>284.0</ele><time>2026-04-24T09:57:48.496Z</time></trkpt><trkpt lat="39.8094567" lon="9.2151"><ele>285.0</ele><time>2026-04-24T09:57:50.495Z</time></trkpt><trkpt lat="39.809425" lon="9.2149567"><ele>286.0</ele><time>2026-04-24T09:57:52.495Z</time></trkpt><trkpt lat="39.8094017" lon="9.21486"><ele>287.0</ele><time>2026-04-24T09:57:53.496Z</time></trkpt><trkpt lat="39.8094017" lon="9.2145967"><ele>291.0</ele><time>2026-04-24T09:57:56.495Z</time></trkpt><trkpt lat="39.8094333" lon="9.2144533"><ele>295.0</ele><time>2026-04-24T09:57:58.496Z</time></trkpt><trkpt lat="39.8094983" lon="9.2143583"><ele>299.0</ele><time>2026-04-24T09:58:00.495Z</time></trkpt><trkpt lat="39.809595" lon="9.2142817"><ele>303.0</ele><time>2026-04-24T09:58:02.495Z</time></trkpt><trkpt lat="39.8096533" lon="9.214195"><ele>307.0</ele><time>2026-04-24T09:58:04.495Z</time></trkpt><trkpt lat="39.8096583" lon="9.21408"><ele>310.8333333333333</ele><time>2026-04-24T09:58:06.495Z</time></trkpt><trkpt lat="39.8096183" lon="9.2139767"><ele>314.66666666666663</ele><time>2026-04-24T09:58:08.495Z</time></trkpt><trkpt lat="39.8096417" lon="9.21388"><ele>318.5</ele><time>2026-04-24T09:58:10.495Z</time></trkpt><trkpt lat="39.8097167" lon="9.2138067"><ele>322.3333333333333</ele><time>2026-04-24T09:58:12.495Z</time></trkpt><trkpt lat="39.80978" lon="9.2137867"><ele>326.1666666666667</ele><time>2026-04-24T09:58:13.495Z</time></trkpt><trkpt lat="39.8098567" lon="9.21378"><ele>330.0</ele><time>2026-04-24T09:58:14.496Z</time></trkpt><trkpt lat="39.8099883" lon="9.21374"><ele>330.0</ele><time>2026-04-24T09:58:16.495Z</time></trkpt><trkpt lat="39.8100583" lon="9.2136883"><ele>330.0</ele><time>2026-04-24T09:58:17.495Z</time></trkpt><trkpt lat="39.8101383" lon="9.2136233"><ele>330.0</ele><time>2026-04-24T09:58:18.495Z</time></trkpt><trkpt lat="39.8102" lon="9.21355"><ele>330.0</ele><time>2026-04-24T09:58:19.496Z</time></trkpt><trkpt lat="39.8102583" lon="9.2134617"><ele>330.0</ele><time>2026-04-24T09:58:20.495Z</time></trkpt><trkpt lat="39.8103033" lon="9.2133617"><ele>330.0</ele><time>2026-04-24T09:58:21.495Z</time></trkpt><trkpt lat="39.810335" lon="9.2132633"><ele>328.2</ele><time>2026-04-24T09:58:22.496Z</time></trkpt><trkpt lat="39.8103667" lon="9.2131917"><ele>326.4</ele><time>2026-04-24T09:58:23.495Z</time></trkpt><trkpt lat="39.810455" lon="9.2130967"><ele>324.6</ele><time>2026-04-24T09:58:25.495Z</time></trkpt><trkpt lat="39.810565" lon="9.2130283"><ele>322.8</ele><time>2026-04-24T09:58:27.495Z</time></trkpt><trkpt lat="39.8106217" lon="9.2129733"><ele>321.0</ele><time>2026-04-24T09:58:28.496Z</time></trkpt><trkpt lat="39.8106717" lon="9.2128583"><ele>321.0</ele><time>2026-04-24T09:58:30.496Z</time></trkpt><trkpt lat="39.81067" lon="9.2126883"><ele>321.0</ele><time>2026-04-24T09:58:32.496Z</time></trkpt><trkpt lat="39.8106633" lon="9.2125867"><ele>321.0</ele><time>2026-04-24T09:58:33.496Z</time></trkpt><trkpt lat="39.8106917" lon="9.21245"><ele>321.0</ele><time>2026-04-24T09:58:35.495Z</time></trkpt><trkpt lat="39.810785" lon="9.212285"><ele>323.6666666666667</ele><time>2026-04-24T09:58:39.495Z</time></trkpt><trkpt lat="39.8107717" lon="9.212145"><ele>326.3333333333333</ele><time>2026-04-24T09:58:41.495Z</time></trkpt><trkpt lat="39.8107533" lon="9.2120517"><ele>329.0</ele><time>2026-04-24T09:58:42.495Z</time></trkpt><trkpt lat="39.8107367" lon="9.2119517"><ele>331.66666666666663</ele><time>2026-04-24T09:58:43.496Z</time></trkpt><trkpt lat="39.8107167" lon="9.21186"><ele>334.3333333333333</ele><time>2026-04-24T09:58:44.496Z</time></trkpt><trkpt lat="39.8106917" lon="9.2117517"><ele>337.0</ele><time>2026-04-24T09:58:45.495Z</time></trkpt><trkpt lat="39.810665" lon="9.2116333"><ele>337.0</ele><time>2026-04-24T09:58:46.495Z</time></trkpt><trkpt lat="39.81064" lon="9.2115183"><ele>337.0</ele><time>2026-04-24T09:58:47.496Z</time></trkpt><trkpt lat="39.8106217" lon="9.2114"><ele>337.0</ele><time>2026-04-24T09:58:48.495Z</time></trkpt><trkpt lat="39.8106133" lon="9.2112817"><ele>337.0</ele><time>2026-04-24T09:58:49.495Z</time></trkpt><trkpt lat="39.81061" lon="9.2111583"><ele>337.0</ele><time>2026-04-24T09:58:50.496Z</time></trkpt><trkpt lat="39.8106133" lon="9.2110267"><ele>339.8</ele><time>2026-04-24T09:58:51.496Z</time></trkpt><trkpt lat="39.8106183" lon="9.210895"><ele>342.6</ele><time>2026-04-24T09:58:52.496Z</time></trkpt><trkpt lat="39.8106183" lon="9.21077"><ele>345.40000000000003</ele><time>2026-04-24T09:58:53.496Z</time></trkpt><trkpt lat="39.8106133" lon="9.2106517"><ele>348.20000000000005</ele><time>2026-04-24T09:58:54.496Z</time></trkpt><trkpt lat="39.8106067" lon="9.2105433"><ele>351.0</ele><time>2026-04-24T09:58:55.496Z</time></trkpt><trkpt lat="39.8105967" lon="9.21044"><ele>354.20000000000005</ele><time>2026-04-24T09:58:56.496Z</time></trkpt><trkpt lat="39.810555" lon="9.21023"><ele>357.40000000000003</ele><time>2026-04-24T09:58:59.496Z</time></trkpt><trkpt lat="39.8104917" lon="9.21019"><ele>360.6</ele><time>2026-04-24T09:59:02.496Z</time></trkpt><trkpt lat="39.8104367" lon="9.2102483"><ele>363.8</ele><time>2026-04-24T09:59:04.495Z</time></trkpt><trkpt lat="39.8104067" lon="9.2104033"><ele>367.0</ele><time>2026-04-24T09:59:06.496Z</time></trkpt><trkpt lat="39.8103883" lon="9.2105083"><ele>367.0</ele><time>2026-04-24T09:59:07.496Z</time></trkpt><trkpt lat="39.8103583" lon="9.2106183"><ele>367.0</ele><time>2026-04-24T09:59:08.495Z</time></trkpt><trkpt lat="39.8103283" lon="9.2107133"><ele>367.0</ele><time>2026-04-24T09:59:09.496Z</time></trkpt><trkpt lat="39.8102967" lon="9.210795"><ele>367.0</ele><time>2026-04-24T09:59:10.496Z</time></trkpt><trkpt lat="39.81025" lon="9.21088"><ele>367.0</ele><time>2026-04-24T09:59:11.495Z</time></trkpt><trkpt lat="39.8102017" lon="9.2109567"><ele>367.0</ele><time>2026-04-24T09:59:12.496Z</time></trkpt><trkpt lat="39.8101383" lon="9.2110333"><ele>367.40000000000003</ele><time>2026-04-24T09:59:13.496Z</time></trkpt><trkpt lat="39.8100733" lon="9.2111267"><ele>367.8</ele><time>2026-04-24T09:59:14.495Z</time></trkpt><trkpt lat="39.8100067" lon="9.2112233"><ele>368.2</ele><time>2026-04-24T09:59:15.495Z</time></trkpt><trkpt lat="39.809945" lon="9.2113333"><ele>368.6</ele><time>2026-04-24T09:59:16.496Z</time></trkpt><trkpt lat="39.8098967" lon="9.2114467"><ele>369.0</ele><time>2026-04-24T09:59:17.496Z</time></trkpt><trkpt lat="39.8098117" lon="9.2116317"><ele>366.2</ele><time>2026-04-24T09:59:19.496Z</time></trkpt><trkpt lat="39.809715" lon="9.211705"><ele>363.4</ele><time>2026-04-24T09:59:21.496Z</time></trkpt><trkpt lat="39.809585" lon="9.2117267"><ele>360.6</ele><time>2026-04-24T09:59:23.495Z</time></trkpt><trkpt lat="39.8095117" lon="9.2117383"><ele>357.8</ele><time>2026-04-24T09:59:24.496Z</time></trkpt><trkpt lat="39.8094333" lon="9.2117383"><ele>355.0</ele><time>2026-04-24T09:59:25.495Z</time></trkpt><trkpt lat="39.8093433" lon="9.2117417"><ele>357.5</ele><time>2026-04-24T09:59:26.495Z</time></trkpt><trkpt lat="39.8092617" lon="9.2117267"><ele>360.0</ele><time>2026-04-24T09:59:27.495Z</time></trkpt><trkpt lat="39.8091883" lon="9.21169"><ele>362.5</ele><time>2026-04-24T09:59:28.496Z</time></trkpt><trkpt lat="39.8091117" lon="9.2116417"><ele>365.0</ele><time>2026-04-24T09:59:29.495Z</time></trkpt><trkpt lat="39.8090367" lon="9.2115967"><ele>367.5</ele><time>2026-04-24T09:59:30.495Z</time></trkpt><trkpt lat="39.8089567" lon="9.2115567"><ele>370.0</ele><time>2026-04-24T09:59:31.495Z</time></trkpt><trkpt lat="39.80888" lon="9.21152"><ele>372.5</ele><time>2026-04-24T09:59:32.496Z</time></trkpt><trkpt lat="39.808805" lon="9.2114883"><ele>375.0</ele><time>2026-04-24T09:59:33.495Z</time></trkpt><trkpt lat="39.8087267" lon="9.2114683"><ele>377.5</ele><time>2026-04-24T09:59:34.495Z</time></trkpt><trkpt lat="39.80865" lon="9.21146"><ele>380.0</ele><time>2026-04-24T09:59:35.496Z</time></trkpt><trkpt lat="39.80858" lon="9.2114533"><ele>382.50000000000006</ele><time>2026-04-24T09:59:36.495Z</time></trkpt><trkpt lat="39.8084967" lon="9.2114533"><ele>385.0</ele><time>2026-04-24T09:59:37.496Z</time></trkpt><trkpt lat="39.8084167" lon="9.21146"><ele>383.2</ele><time>2026-04-24T09:59:38.495Z</time></trkpt><trkpt lat="39.80827" lon="9.2115333"><ele>381.4</ele><time>2026-04-24T09:59:40.495Z</time></trkpt><trkpt lat="39.808185" lon="9.2115783"><ele>379.6</ele><time>2026-04-24T09:59:41.495Z</time></trkpt><trkpt lat="39.808105" lon="9.2115917"><ele>377.8</ele><time>2026-04-24T09:59:42.495Z</time></trkpt><trkpt lat="39.8080183" lon="9.2115867"><ele>376.0</ele><time>2026-04-24T09:59:43.495Z</time></trkpt><trkpt lat="39.8079367" lon="9.2115733"><ele>376.0</ele><time>2026-04-24T09:59:44.496Z</time></trkpt><trkpt lat="39.8078517" lon="9.2115567"><ele>376.0</ele><time>2026-04-24T09:59:45.496Z</time></trkpt><trkpt lat="39.80777" lon="9.2115483"><ele>376.0</ele><time>2026-04-24T09:59:46.495Z</time></trkpt><trkpt lat="39.8076933" lon="9.2115433"><ele>376.0</ele><time>2026-04-24T09:59:47.496Z</time></trkpt><trkpt lat="39.8076167" lon="9.2115417"><ele>376.0</ele><time>2026-04-24T09:59:48.495Z</time></trkpt><trkpt lat="39.8075383" lon="9.2115367"><ele>376.0</ele><time>2026-04-24T09:59:49.496Z</time></trkpt><trkpt lat="39.8074633" lon="9.2115233"><ele>377.66666666666663</ele><time>2026-04-24T09:59:50.496Z</time></trkpt><trkpt lat="39.807385" lon="9.2115017"><ele>379.3333333333333</ele><time>2026-04-24T09:59:51.496Z</time></trkpt><trkpt lat="39.80731" lon="9.2114683"><ele>381.0</ele><time>2026-04-24T09:59:52.495Z</time></trkpt><trkpt lat="39.807235" lon="9.2114167"><ele>382.66666666666663</ele><time>2026-04-24T09:59:53.496Z</time></trkpt><trkpt lat="39.8071583" lon="9.2113533"><ele>384.3333333333333</ele><time>2026-04-24T09:59:54.495Z</time></trkpt><trkpt lat="39.80708" lon="9.2113033"><ele>386.0</ele><time>2026-04-24T09:59:55.496Z</time></trkpt><trkpt lat="39.8070083" lon="9.211265"><ele>387.4</ele><time>2026-04-24T09:59:56.496Z</time></trkpt><trkpt lat="39.8069217" lon="9.2112483"><ele>388.8</ele><time>2026-04-24T09:59:57.495Z</time></trkpt><trkpt lat="39.8068367" lon="9.21125"><ele>390.2</ele><time>2026-04-24T09:59:58.496Z</time></trkpt><trkpt lat="39.8067517" lon="9.2112533"><ele>391.59999999999997</ele><time>2026-04-24T09:59:59.495Z</time></trkpt><trkpt lat="39.8065917" lon="9.2112733"><ele>393.0</ele><time>2026-04-24T10:00:01.495Z</time></trkpt><trkpt lat="39.80652" lon="9.2112967"><ele>393.8333333333333</ele><time>2026-04-24T10:00:02.496Z</time></trkpt><trkpt lat="39.8064633" lon="9.2113483"><ele>394.66666666666663</ele><time>2026-04-24T10:00:03.495Z</time></trkpt><trkpt lat="39.8064067" lon="9.2114167"><ele>395.5</ele><time>2026-04-24T10:00:04.495Z</time></trkpt><trkpt lat="39.8063467" lon="9.2114883"><ele>396.3333333333333</ele><time>2026-04-24T10:00:05.495Z</time></trkpt><trkpt lat="39.8062867" lon="9.211545"><ele>397.16666666666663</ele><time>2026-04-24T10:00:06.495Z</time></trkpt><trkpt lat="39.8062183" lon="9.211595"><ele>398.0</ele><time>2026-04-24T10:00:07.495Z</time></trkpt><trkpt lat="39.8061433" lon="9.211635"><ele>397.99999999999994</ele><time>2026-04-24T10:00:08.495Z</time></trkpt><trkpt lat="39.80607" lon="9.21168"><ele>398.0</ele><time>2026-04-24T10:00:09.495Z</time></trkpt><trkpt lat="39.8060067" lon="9.2117183"><ele>398.0</ele><time>2026-04-24T10:00:10.495Z</time></trkpt><trkpt lat="39.805945" lon="9.211765"><ele>398.0</ele><time>2026-04-24T10:00:11.496Z</time></trkpt><trkpt lat="39.80589" lon="9.211815"><ele>398.0</ele><time>2026-04-24T10:00:12.495Z</time></trkpt><trkpt lat="39.8058333" lon="9.2118683"><ele>397.99999999999994</ele><time>2026-04-24T10:00:13.496Z</time></trkpt><trkpt lat="39.80578" lon="9.2119367"><ele>398.0</ele><time>2026-04-24T10:00:14.496Z</time></trkpt><trkpt lat="39.8057233" lon="9.2120133"><ele>398.8333333333333</ele><time>2026-04-24T10:00:15.496Z</time></trkpt><trkpt lat="39.80567" lon="9.2120867"><ele>399.66666666666663</ele><time>2026-04-24T10:00:16.496Z</time></trkpt><trkpt lat="39.805615" lon="9.212165"><ele>400.5</ele><time>2026-04-24T10:00:17.496Z</time></trkpt><trkpt lat="39.8055617" lon="9.2122417"><ele>401.33333333333337</ele><time>2026-04-24T10:00:18.496Z</time></trkpt><trkpt lat="39.8055067" lon="9.2123217"><ele>402.1666666666667</ele><time>2026-04-24T10:00:19.495Z</time></trkpt><trkpt lat="39.8054583" lon="9.2124233"><ele>403.0</ele><time>2026-04-24T10:00:20.495Z</time></trkpt><trkpt lat="39.8053583" lon="9.2125917"><ele>403.0</ele><time>2026-04-24T10:00:22.495Z</time></trkpt><trkpt lat="39.80531" lon="9.2126583"><ele>403.0</ele><time>2026-04-24T10:00:23.496Z</time></trkpt><trkpt lat="39.8052617" lon="9.2127283"><ele>403.0</ele><time>2026-04-24T10:00:24.496Z</time></trkpt><trkpt lat="39.80517" lon="9.2128367"><ele>403.0</ele><time>2026-04-24T10:00:26.496Z</time></trkpt><trkpt lat="39.8051133" lon="9.2128867"><ele>403.0</ele><time>2026-04-24T10:00:27.495Z</time></trkpt><trkpt lat="39.804995" lon="9.2129333"><ele>404.50000000000006</ele><time>2026-04-24T10:00:29.495Z</time></trkpt><trkpt lat="39.80493" lon="9.2129483"><ele>406.0</ele><time>2026-04-24T10:00:30.495Z</time></trkpt><trkpt lat="39.8048483" lon="9.2129617"><ele>407.5</ele><time>2026-04-24T10:00:31.496Z</time></trkpt><trkpt lat="39.8047617" lon="9.2129767"><ele>409.0</ele><time>2026-04-24T10:00:32.496Z</time></trkpt><trkpt lat="39.8046733" lon="9.2129917"><ele>410.50000000000006</ele><time>2026-04-24T10:00:33.495Z</time></trkpt><trkpt lat="39.8046" lon="9.213"><ele>412.0</ele><time>2026-04-24T10:00:34.495Z</time></trkpt><trkpt lat="39.80453" lon="9.2130033"><ele>412.00000000000006</ele><time>2026-04-24T10:00:35.496Z</time></trkpt><trkpt lat="39.8044517" lon="9.2130017"><ele>412.0</ele><time>2026-04-24T10:00:36.495Z</time></trkpt><trkpt lat="39.804365" lon="9.2130117"><ele>412.0</ele><time>2026-04-24T10:00:37.495Z</time></trkpt><trkpt lat="39.8042867" lon="9.21304"><ele>412.0</ele><time>2026-04-24T10:00:38.496Z</time></trkpt><trkpt lat="39.8042067" lon="9.21309"><ele>412.00000000000006</ele><time>2026-04-24T10:00:39.496Z</time></trkpt><trkpt lat="39.8041267" lon="9.21315"><ele>412.0</ele><time>2026-04-24T10:00:40.496Z</time></trkpt><trkpt lat="39.8040417" lon="9.213205"><ele>411.0</ele><time>2026-04-24T10:00:41.496Z</time></trkpt><trkpt lat="39.8038783" lon="9.21331"><ele>410.0</ele><time>2026-04-24T10:00:43.496Z</time></trkpt><trkpt lat="39.803805" lon="9.21335"><ele>409.0</ele><time>2026-04-24T10:00:44.496Z</time></trkpt><trkpt lat="39.80374" lon="9.2133817"><ele>408.0</ele><time>2026-04-24T10:00:45.495Z</time></trkpt><trkpt lat="39.8036467" lon="9.2134433"><ele>407.0</ele><time>2026-04-24T10:00:47.495Z</time></trkpt><trkpt lat="39.8035667" lon="9.2134583"><ele>407.0</ele><time>2026-04-24T10:00:50.496Z</time></trkpt><trkpt lat="39.8035633" lon="9.2133667"><ele>407.0</ele><time>2026-04-24T10:00:52.495Z</time></trkpt><trkpt lat="39.803615" lon="9.2132133"><ele>407.0</ele><time>2026-04-24T10:00:54.496Z</time></trkpt><trkpt lat="39.8036617" lon="9.2131367"><ele>407.0</ele><time>2026-04-24T10:00:55.495Z</time></trkpt><trkpt lat="39.8037183" lon="9.2130517"><ele>407.0</ele><time>2026-04-24T10:00:56.496Z</time></trkpt><trkpt lat="39.8037767" lon="9.2129533"><ele>408.66666666666663</ele><time>2026-04-24T10:00:57.496Z</time></trkpt><trkpt lat="39.8038267" lon="9.21286"><ele>410.3333333333333</ele><time>2026-04-24T10:00:58.495Z</time></trkpt><trkpt lat="39.8038567" lon="9.2127567"><ele>412.0</ele><time>2026-04-24T10:00:59.496Z</time></trkpt><trkpt lat="39.8038783" lon="9.2126417"><ele>413.66666666666663</ele><time>2026-04-24T10:01:00.495Z</time></trkpt><trkpt lat="39.8038983" lon="9.21253"><ele>415.3333333333333</ele><time>2026-04-24T10:01:01.496Z</time></trkpt><trkpt lat="39.8039233" lon="9.2124383"><ele>417.0</ele><time>2026-04-24T10:01:02.496Z</time></trkpt><trkpt lat="39.8039983" lon="9.21229"><ele>417.6</ele><time>2026-04-24T10:01:04.495Z</time></trkpt><trkpt lat="39.8040617" lon="9.21222"><ele>418.20000000000005</ele><time>2026-04-24T10:01:05.495Z</time></trkpt><trkpt lat="39.8041333" lon="9.212145"><ele>418.8</ele><time>2026-04-24T10:01:06.495Z</time></trkpt><trkpt lat="39.804215" lon="9.2120733"><ele>419.4</ele><time>2026-04-24T10:01:07.496Z</time></trkpt><trkpt lat="39.80429" lon="9.2119783"><ele>420.0</ele><time>2026-04-24T10:01:08.495Z</time></trkpt><trkpt lat="39.80436" lon="9.2118833"><ele>420.0</ele><time>2026-04-24T10:01:09.495Z</time></trkpt><trkpt lat="39.80442" lon="9.211785"><ele>420.0</ele><time>2026-04-24T10:01:10.495Z</time></trkpt><trkpt lat="39.8044767" lon="9.2116817"><ele>420.0</ele><time>2026-04-24T10:01:11.495Z</time></trkpt><trkpt lat="39.8045517" lon="9.2115683"><ele>420.0</ele><time>2026-04-24T10:01:12.495Z</time></trkpt><trkpt lat="39.80463" lon="9.21146"><ele>420.0</ele><time>2026-04-24T10:01:13.496Z</time></trkpt><trkpt lat="39.80471" lon="9.2113517"><ele>423.0</ele><time>2026-04-24T10:01:14.496Z</time></trkpt><trkpt lat="39.8047867" lon="9.2112433"><ele>426.0</ele><time>2026-04-24T10:01:15.495Z</time></trkpt><trkpt lat="39.8048617" lon="9.2111267"><ele>429.0</ele><time>2026-04-24T10:01:16.496Z</time></trkpt><trkpt lat="39.8049367" lon="9.2110067"><ele>432.0</ele><time>2026-04-24T10:01:17.495Z</time></trkpt><trkpt lat="39.805005" lon="9.2108883"><ele>432.0</ele><time>2026-04-24T10:01:18.496Z</time></trkpt><trkpt lat="39.80507" lon="9.2107783"><ele>432.00000000000006</ele><time>2026-04-24T10:01:19.495Z</time></trkpt><trkpt lat="39.80513" lon="9.2106667"><ele>432.00000000000006</ele><time>2026-04-24T10:01:20.495Z</time></trkpt><trkpt lat="39.8051833" lon="9.2105517"><ele>432.0</ele><time>2026-04-24T10:01:21.496Z</time></trkpt><trkpt lat="39.80522" lon="9.2104283"><ele>432.0</ele><time>2026-04-24T10:01:22.495Z</time></trkpt><trkpt lat="39.80526" lon="9.210295"><ele>430.25</ele><time>2026-04-24T10:01:23.495Z</time></trkpt><trkpt lat="39.8053283" lon="9.2100283"><ele>428.5</ele><time>2026-04-24T10:01:25.495Z</time></trkpt><trkpt lat="39.805365" lon="9.2099083"><ele>426.75</ele><time>2026-04-24T10:01:26.496Z</time></trkpt><trkpt lat="39.8053917" lon="9.2097967"><ele>425.0</ele><time>2026-04-24T10:01:27.496Z</time></trkpt><trkpt lat="39.80543" lon="9.2096933"><ele>428.4</ele><time>2026-04-24T10:01:28.495Z</time></trkpt><trkpt lat="39.80547" lon="9.2096117"><ele>431.8</ele><time>2026-04-24T10:01:29.496Z</time></trkpt><trkpt lat="39.8055217" lon="9.209535"><ele>435.20000000000005</ele><time>2026-04-24T10:01:30.495Z</time></trkpt><trkpt lat="39.8055967" lon="9.2094717"><ele>438.6</ele><time>2026-04-24T10:01:31.495Z</time></trkpt><trkpt lat="39.8056867" lon="9.20941"><ele>442.0</ele><time>2026-04-24T10:01:32.496Z</time></trkpt><trkpt lat="39.8057883" lon="9.2093533"><ele>442.0</ele><time>2026-04-24T10:01:33.496Z</time></trkpt><trkpt lat="39.805885" lon="9.2093"><ele>442.00000000000006</ele><time>2026-04-24T10:01:34.495Z</time></trkpt><trkpt lat="39.8059783" lon="9.2092583"><ele>442.00000000000006</ele><time>2026-04-24T10:01:35.496Z</time></trkpt><trkpt lat="39.8060817" lon="9.2092067"><ele>442.0</ele><time>2026-04-24T10:01:36.495Z</time></trkpt><trkpt lat="39.8061817" lon="9.2091733"><ele>442.0</ele><time>2026-04-24T10:01:37.495Z</time></trkpt><trkpt lat="39.806275" lon="9.2091467"><ele>442.0</ele><time>2026-04-24T10:01:38.496Z</time></trkpt><trkpt lat="39.8063617" lon="9.2090983"><ele>442.00000000000006</ele><time>2026-04-24T10:01:39.495Z</time></trkpt><trkpt lat="39.8064483" lon="9.2090383"><ele>442.00000000000006</ele><time>2026-04-24T10:01:40.496Z</time></trkpt><trkpt lat="39.8065283" lon="9.2089817"><ele>442.0</ele><time>2026-04-24T10:01:41.495Z</time></trkpt><trkpt lat="39.8066083" lon="9.2089383"><ele>442.0</ele><time>2026-04-24T10:01:42.495Z</time></trkpt><trkpt lat="39.8066867" lon="9.2089133"><ele>444.6</ele><time>2026-04-24T10:01:43.496Z</time></trkpt><trkpt lat="39.8067583" lon="9.2088933"><ele>447.20000000000005</ele><time>2026-04-24T10:01:44.496Z</time></trkpt><trkpt lat="39.8069083" lon="9.2088467"><ele>449.8</ele><time>2026-04-24T10:01:46.495Z</time></trkpt><trkpt lat="39.8069817" lon="9.2087967"><ele>452.4</ele><time>2026-04-24T10:01:47.496Z</time></trkpt><trkpt lat="39.8070417" lon="9.2087233"><ele>455.0</ele><time>2026-04-24T10:01:48.496Z</time></trkpt><trkpt lat="39.8070967" lon="9.20864"><ele>455.0</ele><time>2026-04-24T10:01:49.495Z</time></trkpt><trkpt lat="39.8071417" lon="9.208565"><ele>455.0</ele><time>2026-04-24T10:01:50.496Z</time></trkpt><trkpt lat="39.807185" lon="9.2084417"><ele>455.0</ele><time>2026-04-24T10:01:52.495Z</time></trkpt><trkpt lat="39.8071483" lon="9.20828"><ele>455.0</ele><time>2026-04-24T10:01:54.496Z</time></trkpt><trkpt lat="39.8071067" lon="9.2081817"><ele>455.0</ele><time>2026-04-24T10:01:55.495Z</time></trkpt><trkpt lat="39.80707" lon="9.2080717"><ele>455.0</ele><time>2026-04-24T10:01:56.495Z</time></trkpt><trkpt lat="39.8070233" lon="9.2079517"><ele>455.0</ele><time>2026-04-24T10:01:57.495Z</time></trkpt><trkpt lat="39.806975" lon="9.2078283"><ele>455.0</ele><time>2026-04-24T10:01:58.496Z</time></trkpt><trkpt lat="39.8069233" lon="9.2077167"><ele>455.0</ele><time>2026-04-24T10:01:59.495Z</time></trkpt><trkpt lat="39.8068833" lon="9.2076183"><ele>455.0</ele><time>2026-04-24T10:02:00.495Z</time></trkpt><trkpt lat="39.806855" lon="9.2075333"><ele>455.0</ele><time>2026-04-24T10:02:01.496Z</time></trkpt><trkpt lat="39.8068417" lon="9.2074433"><ele>455.0</ele><time>2026-04-24T10:02:02.495Z</time></trkpt><trkpt lat="39.8068517" lon="9.2073583"><ele>455.0</ele><time>2026-04-24T10:02:03.495Z</time></trkpt><trkpt lat="39.8068867" lon="9.2072733"><ele>455.0</ele><time>2026-04-24T10:02:04.496Z</time></trkpt><trkpt lat="39.8069383" lon="9.2071917"><ele>455.0</ele><time>2026-04-24T10:02:05.495Z</time></trkpt><trkpt lat="39.8070233" lon="9.2070167"><ele>455.57142857142856</ele><time>2026-04-24T10:02:07.496Z</time></trkpt><trkpt lat="39.80706" lon="9.2069283"><ele>456.1428571428571</ele><time>2026-04-24T10:02:08.495Z</time></trkpt><trkpt lat="39.8071017" lon="9.20684"><ele>456.7142857142857</ele><time>2026-04-24T10:02:09.496Z</time></trkpt><trkpt lat="39.8071367" lon="9.2067467"><ele>457.2857142857143</ele><time>2026-04-24T10:02:10.495Z</time></trkpt><trkpt lat="39.8071583" lon="9.2066683"><ele>457.85714285714283</ele><time>2026-04-24T10:02:11.496Z</time></trkpt><trkpt lat="39.8071933" lon="9.2066"><ele>458.42857142857144</ele><time>2026-04-24T10:02:12.496Z</time></trkpt><trkpt lat="39.8072467" lon="9.206555"><ele>459.0</ele><time>2026-04-24T10:02:13.496Z</time></trkpt><trkpt lat="39.80736" lon="9.206535"><ele>459.0</ele><time>2026-04-24T10:02:15.495Z</time></trkpt><trkpt lat="39.8074867" lon="9.206575"><ele>459.0</ele><time>2026-04-24T10:02:17.496Z</time></trkpt><trkpt lat="39.8075617" lon="9.2066133"><ele>459.0</ele><time>2026-04-24T10:02:18.496Z</time></trkpt><trkpt lat="39.8076333" lon="9.2066583"><ele>459.0</ele><time>2026-04-24T10:02:19.496Z</time></trkpt><trkpt lat="39.807705" lon="9.2066967"><ele>459.0</ele><time>2026-04-24T10:02:20.495Z</time></trkpt><trkpt lat="39.8077817" lon="9.206725"><ele>459.0</ele><time>2026-04-24T10:02:21.496Z</time></trkpt><trkpt lat="39.807855" lon="9.20674"><ele>458.0</ele><time>2026-04-24T10:02:22.495Z</time></trkpt><trkpt lat="39.8079283" lon="9.2067267"><ele>457.0</ele><time>2026-04-24T10:02:23.495Z</time></trkpt><trkpt lat="39.8080033" lon="9.2066867"><ele>456.0</ele><time>2026-04-24T10:02:24.495Z</time></trkpt><trkpt lat="39.8080817" lon="9.2066317"><ele>455.0</ele><time>2026-04-24T10:02:25.495Z</time></trkpt><trkpt lat="39.8081567" lon="9.2065617"><ele>454.0</ele><time>2026-04-24T10:02:26.495Z</time></trkpt><trkpt lat="39.8082783" lon="9.2063717"><ele>453.75</ele><time>2026-04-24T10:02:28.496Z</time></trkpt><trkpt lat="39.8083333" lon="9.206255"><ele>453.5</ele><time>2026-04-24T10:02:29.495Z</time></trkpt><trkpt lat="39.8083983" lon="9.20613"><ele>453.25</ele><time>2026-04-24T10:02:30.496Z</time></trkpt><trkpt lat="39.8084667" lon="9.206"><ele>453.0</ele><time>2026-04-24T10:02:31.495Z</time></trkpt><trkpt lat="39.80853" lon="9.2058867"><ele>453.0</ele><time>2026-04-24T10:02:32.495Z</time></trkpt><trkpt lat="39.8085617" lon="9.2057817"><ele>452.99999999999994</ele><time>2026-04-24T10:02:33.496Z</time></trkpt><trkpt lat="39.8085883" lon="9.20569"><ele>452.99999999999994</ele><time>2026-04-24T10:02:34.496Z</time></trkpt><trkpt lat="39.8086333" lon="9.2055983"><ele>453.0</ele><time>2026-04-24T10:02:36.496Z</time></trkpt><trkpt lat="39.80872" lon="9.2055317"><ele>453.0</ele><time>2026-04-24T10:02:39.495Z</time></trkpt><trkpt lat="39.8088417" lon="9.2055067"><ele>456.2</ele><time>2026-04-24T10:02:41.495Z</time></trkpt><trkpt lat="39.8089283" lon="9.20548"><ele>459.4</ele><time>2026-04-24T10:02:42.495Z</time></trkpt><trkpt lat="39.809025" lon="9.2054417"><ele>462.59999999999997</ele><time>2026-04-24T10:02:43.496Z</time></trkpt><trkpt lat="39.8091283" lon="9.2053933"><ele>465.79999999999995</ele><time>2026-04-24T10:02:44.495Z</time></trkpt><trkpt lat="39.80924" lon="9.20534"><ele>469.0</ele><time>2026-04-24T10:02:45.496Z</time></trkpt><trkpt lat="39.8093617" lon="9.205285"><ele>469.0</ele><time>2026-04-24T10:02:46.495Z</time></trkpt><trkpt lat="39.80948" lon="9.2052483"><ele>469.0</ele><time>2026-04-24T10:02:47.495Z</time></trkpt><trkpt lat="39.8097133" lon="9.2052183"><ele>469.0</ele><time>2026-04-24T10:02:49.496Z</time></trkpt><trkpt lat="39.8098217" lon="9.205245"><ele>469.0</ele><time>2026-04-24T10:02:50.495Z</time></trkpt><trkpt lat="39.80992" lon="9.20531"><ele>469.0</ele><time>2026-04-24T10:02:51.496Z</time></trkpt><trkpt lat="39.810005" lon="9.2053967"><ele>469.0</ele><time>2026-04-24T10:02:52.495Z</time></trkpt><trkpt lat="39.8100667" lon="9.2055167"><ele>469.0</ele><time>2026-04-24T10:02:53.496Z</time></trkpt><trkpt lat="39.8101117" lon="9.2056617"><ele>469.0</ele><time>2026-04-24T10:02:54.495Z</time></trkpt><trkpt lat="39.8101417" lon="9.20581"><ele>472.25</ele><time>2026-04-24T10:02:55.496Z</time></trkpt><trkpt lat="39.8101617" lon="9.2059583"><ele>475.5</ele><time>2026-04-24T10:02:56.496Z</time></trkpt><trkpt lat="39.8101967" lon="9.20611"><ele>478.75</ele><time>2026-04-24T10:02:57.495Z</time></trkpt><trkpt lat="39.810255" lon="9.206255"><ele>482.0</ele><time>2026-04-24T10:02:58.495Z</time></trkpt><trkpt lat="39.8103333" lon="9.2063933"><ele>474.3333333333333</ele><time>2026-04-24T10:02:59.495Z</time></trkpt><trkpt lat="39.8104283" lon="9.2065317"><ele>466.66666666666663</ele><time>2026-04-24T10:03:00.496Z</time></trkpt><trkpt lat="39.81053" lon="9.2066733"><ele>459.0</ele><time>2026-04-24T10:03:01.495Z</time></trkpt><trkpt lat="39.8106367" lon="9.2068333"><ele>459.0</ele><time>2026-04-24T10:03:02.495Z</time></trkpt><trkpt lat="39.810735" lon="9.2069833"><ele>459.0</ele><time>2026-04-24T10:03:03.496Z</time></trkpt><trkpt lat="39.81083" lon="9.20713"><ele>459.0</ele><time>2026-04-24T10:03:04.495Z</time></trkpt><trkpt lat="39.810925" lon="9.2072733"><ele>459.0</ele><time>2026-04-24T10:03:05.496Z</time></trkpt><trkpt lat="39.8110117" lon="9.2074017"><ele>456.33333333333337</ele><time>2026-04-24T10:03:06.496Z</time></trkpt><trkpt lat="39.8110967" lon="9.207525"><ele>453.6666666666667</ele><time>2026-04-24T10:03:07.495Z</time></trkpt><trkpt lat="39.8111767" lon="9.2076467"><ele>451.0</ele><time>2026-04-24T10:03:08.495Z</time></trkpt><trkpt lat="39.8113467" lon="9.207845"><ele>451.0</ele><time>2026-04-24T10:03:10.495Z</time></trkpt><trkpt lat="39.81145" lon="9.2079183"><ele>451.0</ele><time>2026-04-24T10:03:11.496Z</time></trkpt><trkpt lat="39.8115667" lon="9.2079667"><ele>451.0</ele><time>2026-04-24T10:03:12.495Z</time></trkpt><trkpt lat="39.8116967" lon="9.20799"><ele>451.0</ele><time>2026-04-24T10:03:13.496Z</time></trkpt><trkpt lat="39.8118183" lon="9.20801"><ele>451.75</ele><time>2026-04-24T10:03:14.495Z</time></trkpt><trkpt lat="39.8119333" lon="9.2080433"><ele>452.5</ele><time>2026-04-24T10:03:15.496Z</time></trkpt><trkpt lat="39.8120417" lon="9.2080983"><ele>453.25</ele><time>2026-04-24T10:03:16.495Z</time></trkpt><trkpt lat="39.81214" lon="9.20817"><ele>454.0</ele><time>2026-04-24T10:03:17.495Z</time></trkpt><trkpt lat="39.8122317" lon="9.2082567"><ele>449.2</ele><time>2026-04-24T10:03:18.495Z</time></trkpt><trkpt lat="39.8123217" lon="9.2083383"><ele>444.4</ele><time>2026-04-24T10:03:19.496Z</time></trkpt><trkpt lat="39.8124183" lon="9.2083967"><ele>439.6</ele><time>2026-04-24T10:03:20.495Z</time></trkpt><trkpt lat="39.812525" lon="9.2084367"><ele>434.8</ele><time>2026-04-24T10:03:21.496Z</time></trkpt><trkpt lat="39.812635" lon="9.2084383"><ele>430.0</ele><time>2026-04-24T10:03:22.495Z</time></trkpt><trkpt lat="39.8127533" lon="9.208395"><ele>431.5</ele><time>2026-04-24T10:03:23.495Z</time></trkpt><trkpt lat="39.81287" lon="9.2083167"><ele>433.0</ele><time>2026-04-24T10:03:24.495Z</time></trkpt><trkpt lat="39.8129867" lon="9.2082233"><ele>434.5</ele><time>2026-04-24T10:03:25.496Z</time></trkpt><trkpt lat="39.8131083" lon="9.2081183"><ele>436.0</ele><time>2026-04-24T10:03:26.496Z</time></trkpt><trkpt lat="39.813235" lon="9.2080183"><ele>436.0</ele><time>2026-04-24T10:03:27.495Z</time></trkpt><trkpt lat="39.8133517" lon="9.2079333"><ele>436.0</ele><time>2026-04-24T10:03:28.496Z</time></trkpt><trkpt lat="39.8134633" lon="9.2078433"><ele>436.0</ele><time>2026-04-24T10:03:29.496Z</time></trkpt><trkpt lat="39.8136967" lon="9.207675"><ele>431.0</ele><time>2026-04-24T10:03:31.495Z</time></trkpt><trkpt lat="39.8138117" lon="9.2075933"><ele>426.0</ele><time>2026-04-24T10:03:32.496Z</time></trkpt><trkpt lat="39.8139267" lon="9.2075317"><ele>421.0</ele><time>2026-04-24T10:03:33.495Z</time></trkpt><trkpt lat="39.8140483" lon="9.2075117"><ele>416.0</ele><time>2026-04-24T10:03:34.496Z</time></trkpt><trkpt lat="39.8141683" lon="9.2075317"><ele>416.0</ele><time>2026-04-24T10:03:35.495Z</time></trkpt><trkpt lat="39.8142883" lon="9.2075883"><ele>416.0</ele><time>2026-04-24T10:03:36.495Z</time></trkpt><trkpt lat="39.814415" lon="9.20765"><ele>416.0</ele><time>2026-04-24T10:03:37.495Z</time></trkpt><trkpt lat="39.8145517" lon="9.207685"><ele>416.0</ele><time>2026-04-24T10:03:38.496Z</time></trkpt><trkpt lat="39.8146967" lon="9.207685"><ele>414.5</ele><time>2026-04-24T10:03:39.495Z</time></trkpt><trkpt lat="39.8148483" lon="9.207675"><ele>413.0</ele><time>2026-04-24T10:03:40.495Z</time></trkpt><trkpt lat="39.8149933" lon="9.2076933"><ele>411.5</ele><time>2026-04-24T10:03:41.495Z</time></trkpt><trkpt lat="39.8151317" lon="9.2077383"><ele>410.0</ele><time>2026-04-24T10:03:42.495Z</time></trkpt><trkpt lat="39.815275" lon="9.207785"><ele>409.0</ele><time>2026-04-24T10:03:43.496Z</time></trkpt><trkpt lat="39.815415" lon="9.20783"><ele>408.0</ele><time>2026-04-24T10:03:44.496Z</time></trkpt><trkpt lat="39.8155467" lon="9.2078733"><ele>407.0</ele><time>2026-04-24T10:03:45.496Z</time></trkpt><trkpt lat="39.8156717" lon="9.207895"><ele>406.0</ele><time>2026-04-24T10:03:46.495Z</time></trkpt><trkpt lat="39.81581" lon="9.2078917"><ele>406.0</ele><time>2026-04-24T10:03:47.496Z</time></trkpt><trkpt lat="39.8159517" lon="9.2078667"><ele>406.0</ele><time>2026-04-24T10:03:48.496Z</time></trkpt><trkpt lat="39.8161" lon="9.20782"><ele>406.0</ele><time>2026-04-24T10:03:49.495Z</time></trkpt><trkpt lat="39.8162367" lon="9.20776"><ele>406.0</ele><time>2026-04-24T10:03:50.496Z</time></trkpt><trkpt lat="39.816485" lon="9.2076033"><ele>406.75</ele><time>2026-04-24T10:03:52.496Z</time></trkpt><trkpt lat="39.8165933" lon="9.2074883"><ele>407.5</ele><time>2026-04-24T10:03:53.495Z</time></trkpt><trkpt lat="39.8166833" lon="9.20737"><ele>408.25</ele><time>2026-04-24T10:03:54.495Z</time></trkpt><trkpt lat="39.81676" lon="9.207255"><ele>409.0</ele><time>2026-04-24T10:03:55.495Z</time></trkpt><trkpt lat="39.8168533" lon="9.20717"><ele>409.0</ele><time>2026-04-24T10:03:56.496Z</time></trkpt><trkpt lat="39.816955" lon="9.2071067"><ele>409.0</ele><time>2026-04-24T10:03:57.496Z</time></trkpt><trkpt lat="39.8170633" lon="9.2070767"><ele>409.0</ele><time>2026-04-24T10:03:58.496Z</time></trkpt><trkpt lat="39.8171783" lon="9.2070883"><ele>409.0</ele><time>2026-04-24T10:03:59.496Z</time></trkpt><trkpt lat="39.8172883" lon="9.20713"><ele>409.0</ele><time>2026-04-24T10:04:00.496Z</time></trkpt><trkpt lat="39.817395" lon="9.20719"><ele>409.0</ele><time>2026-04-24T10:04:01.495Z</time></trkpt><trkpt lat="39.8175117" lon="9.2072467"><ele>409.0</ele><time>2026-04-24T10:04:02.496Z</time></trkpt><trkpt lat="39.81763" lon="9.2072683"><ele>409.0</ele><time>2026-04-24T10:04:03.495Z</time></trkpt><trkpt lat="39.8177733" lon="9.20725"><ele>407.25</ele><time>2026-04-24T10:04:04.495Z</time></trkpt><trkpt lat="39.8179233" lon="9.207215"><ele>405.5</ele><time>2026-04-24T10:04:05.495Z</time></trkpt><trkpt lat="39.8180633" lon="9.2071733"><ele>403.75</ele><time>2026-04-24T10:04:06.495Z</time></trkpt><trkpt lat="39.8181917" lon="9.2071367"><ele>402.0</ele><time>2026-04-24T10:04:07.496Z</time></trkpt><trkpt lat="39.8183217" lon="9.20711"><ele>402.0</ele><time>2026-04-24T10:04:08.495Z</time></trkpt><trkpt lat="39.81844" lon="9.207105"><ele>402.0</ele><time>2026-04-24T10:04:09.495Z</time></trkpt><trkpt lat="39.8185567" lon="9.2071267"><ele>402.0</ele><time>2026-04-24T10:04:10.495Z</time></trkpt><trkpt lat="39.818675" lon="9.2071767"><ele>402.0</ele><time>2026-04-24T10:04:11.495Z</time></trkpt><trkpt lat="39.8188917" lon="9.207365"><ele>394.25</ele><time>2026-04-24T10:04:13.495Z</time></trkpt><trkpt lat="39.8189917" lon="9.2074717"><ele>386.5</ele><time>2026-04-24T10:04:14.495Z</time></trkpt><trkpt lat="39.8191017" lon="9.2075783"><ele>378.75</ele><time>2026-04-24T10:04:15.496Z</time></trkpt><trkpt lat="39.8192183" lon="9.20767"><ele>371.0</ele><time>2026-04-24T10:04:16.495Z</time></trkpt><trkpt lat="39.81933" lon="9.2077417"><ele>371.0</ele><time>2026-04-24T10:04:17.495Z</time></trkpt><trkpt lat="39.81946" lon="9.2078017"><ele>371.0</ele><time>2026-04-24T10:04:18.495Z</time></trkpt><trkpt lat="39.8195933" lon="9.20785"><ele>371.0</ele><time>2026-04-24T10:04:19.495Z</time></trkpt><trkpt lat="39.8197283" lon="9.2078933"><ele>371.0</ele><time>2026-04-24T10:04:20.494Z</time></trkpt><trkpt lat="39.81985" lon="9.2079333"><ele>371.0</ele><time>2026-04-24T10:04:21.494Z</time></trkpt><trkpt lat="39.8199767" lon="9.2079517"><ele>371.0</ele><time>2026-04-24T10:04:22.494Z</time></trkpt><trkpt lat="39.8201033" lon="9.20796"><ele>371.0</ele><time>2026-04-24T10:04:23.495Z</time></trkpt><trkpt lat="39.8202167" lon="9.2079667"><ele>371.0</ele><time>2026-04-24T10:04:24.494Z</time></trkpt><trkpt lat="39.8203183" lon="9.2079817"><ele>368.20000000000005</ele><time>2026-04-24T10:04:25.495Z</time></trkpt><trkpt lat="39.8204167" lon="9.208035"><ele>365.40000000000003</ele><time>2026-04-24T10:04:26.495Z</time></trkpt><trkpt lat="39.820495" lon="9.2081133"><ele>362.6</ele><time>2026-04-24T10:04:27.495Z</time></trkpt><trkpt lat="39.82056" lon="9.208205"><ele>359.8</ele><time>2026-04-24T10:04:28.494Z</time></trkpt><trkpt lat="39.8206267" lon="9.2083033"><ele>357.0</ele><time>2026-04-24T10:04:29.494Z</time></trkpt><trkpt lat="39.8207117" lon="9.2083867"><ele>349.3333333333333</ele><time>2026-04-24T10:04:30.495Z</time></trkpt><trkpt lat="39.820825" lon="9.2084317"><ele>341.66666666666663</ele><time>2026-04-24T10:04:31.494Z</time></trkpt><trkpt lat="39.82095" lon="9.2084417"><ele>334.0</ele><time>2026-04-24T10:04:32.494Z</time></trkpt><trkpt lat="39.8211883" lon="9.2084033"><ele>328.25</ele><time>2026-04-24T10:04:34.495Z</time></trkpt><trkpt lat="39.8213083" lon="9.2083883"><ele>322.5</ele><time>2026-04-24T10:04:35.495Z</time></trkpt><trkpt lat="39.8214183" lon="9.2083667"><ele>316.75</ele><time>2026-04-24T10:04:36.494Z</time></trkpt><trkpt lat="39.821535" lon="9.2083517"><ele>311.0</ele><time>2026-04-24T10:04:37.495Z</time></trkpt><trkpt lat="39.8216617" lon="9.2083283"><ele>311.0</ele><time>2026-04-24T10:04:38.494Z</time></trkpt><trkpt lat="39.8217817" lon="9.2083033"><ele>311.0</ele><time>2026-04-24T10:04:39.494Z</time></trkpt><trkpt lat="39.8219017" lon="9.2082817"><ele>311.0</ele><time>2026-04-24T10:04:40.495Z</time></trkpt><trkpt lat="39.8220317" lon="9.20827"><ele>311.0</ele><time>2026-04-24T10:04:41.495Z</time></trkpt><trkpt lat="39.8221783" lon="9.2082517"><ele>311.0</ele><time>2026-04-24T10:04:42.495Z</time></trkpt><trkpt lat="39.8223333" lon="9.2082267"><ele>311.0</ele><time>2026-04-24T10:04:43.495Z</time></trkpt><trkpt lat="39.82249" lon="9.2082017"><ele>311.0</ele><time>2026-04-24T10:04:44.495Z</time></trkpt><trkpt lat="39.82265" lon="9.2081817"><ele>311.0</ele><time>2026-04-24T10:04:45.494Z</time></trkpt><trkpt lat="39.82282" lon="9.2081633"><ele>311.0</ele><time>2026-04-24T10:04:46.494Z</time></trkpt><trkpt lat="39.8229967" lon="9.2081367"><ele>311.0</ele><time>2026-04-24T10:04:47.494Z</time></trkpt><trkpt lat="39.8231717" lon="9.2081133"><ele>309.25</ele><time>2026-04-24T10:04:48.495Z</time></trkpt><trkpt lat="39.8233267" lon="9.20809"><ele>307.5</ele><time>2026-04-24T10:04:49.495Z</time></trkpt><trkpt lat="39.8234683" lon="9.2080717"><ele>305.75</ele><time>2026-04-24T10:04:50.495Z</time></trkpt><trkpt lat="39.8235983" lon="9.2080517"><ele>304.0</ele><time>2026-04-24T10:04:51.494Z</time></trkpt><trkpt lat="39.823715" lon="9.2080033"><ele>316.66666666666663</ele><time>2026-04-24T10:04:52.495Z</time></trkpt><trkpt lat="39.823805" lon="9.207925"><ele>329.3333333333333</ele><time>2026-04-24T10:04:53.495Z</time></trkpt><trkpt lat="39.8239367" lon="9.2076533"><ele>342.0</ele><time>2026-04-24T10:04:55.494Z</time></trkpt><trkpt lat="39.82399" lon="9.20751"><ele>342.0</ele><time>2026-04-24T10:04:56.495Z</time></trkpt><trkpt lat="39.8240567" lon="9.20738"><ele>342.0</ele><time>2026-04-24T10:04:57.494Z</time></trkpt><trkpt lat="39.8241483" lon="9.2072583"><ele>342.0</ele><time>2026-04-24T10:04:58.494Z</time></trkpt><trkpt lat="39.8242433" lon="9.207145"><ele>342.0</ele><time>2026-04-24T10:04:59.494Z</time></trkpt><trkpt lat="39.8243317" lon="9.2070483"><ele>347.3333333333333</ele><time>2026-04-24T10:05:00.495Z</time></trkpt><trkpt lat="39.8244033" lon="9.206975"><ele>352.6666666666667</ele><time>2026-04-24T10:05:01.494Z</time></trkpt><trkpt lat="39.824465" lon="9.2069033"><ele>358.0</ele><time>2026-04-24T10:05:02.494Z</time></trkpt><trkpt lat="39.82451" lon="9.2068233"><ele>363.33333333333337</ele><time>2026-04-24T10:05:03.494Z</time></trkpt><trkpt lat="39.8245483" lon="9.2067383"><ele>368.6666666666667</ele><time>2026-04-24T10:05:04.494Z</time></trkpt><trkpt lat="39.82458" lon="9.2066567"><ele>374.0</ele><time>2026-04-24T10:05:05.494Z</time></trkpt><trkpt lat="39.8246017" lon="9.2065467"><ele>374.0</ele><time>2026-04-24T10:05:07.494Z</time></trkpt><trkpt lat="39.8245933" lon="9.2064233"><ele>374.0</ele><time>2026-04-24T10:05:10.494Z</time></trkpt><trkpt lat="39.8245633" lon="9.2065117"><ele>374.0</ele><time>2026-04-24T10:05:15.494Z</time></trkpt><trkpt lat="39.82452" lon="9.2067867"><ele>374.0</ele><time>2026-04-24T10:05:18.495Z</time></trkpt><trkpt lat="39.82447" lon="9.206875"><ele>374.0</ele><time>2026-04-24T10:05:19.495Z</time></trkpt><trkpt lat="39.82441" lon="9.2069433"><ele>374.0</ele><time>2026-04-24T10:05:20.495Z</time></trkpt><trkpt lat="39.8243267" lon="9.2070317"><ele>374.0</ele><time>2026-04-24T10:05:22.495Z</time></trkpt><trkpt lat="39.82426" lon="9.2070467"><ele>374.0</ele><time>2026-04-24T10:05:25.495Z</time></trkpt><trkpt lat="39.8242717" lon="9.2069467"><ele>374.0</ele><time>2026-04-24T10:05:28.495Z</time></trkpt><trkpt lat="39.8243183" lon="9.20683"><ele>374.0</ele><time>2026-04-24T10:05:31.495Z</time></trkpt><trkpt lat="39.8243483" lon="9.20672"><ele>374.0</ele><time>2026-04-24T10:05:33.494Z</time></trkpt><trkpt lat="39.82435" lon="9.2065833"><ele>374.0</ele><time>2026-04-24T10:05:35.495Z</time></trkpt><trkpt lat="39.8243017" lon="9.2064867"><ele>374.0</ele><time>2026-04-24T10:05:37.494Z</time></trkpt><trkpt lat="39.8241733" lon="9.2066"><ele>374.0</ele><time>2026-04-24T10:05:41.494Z</time></trkpt><trkpt lat="39.8241433" lon="9.20674"><ele>365.0</ele><time>2026-04-24T10:05:43.495Z</time></trkpt><trkpt lat="39.824075" lon="9.2068567"><ele>356.0</ele><time>2026-04-24T10:05:45.495Z</time></trkpt><trkpt lat="39.823965" lon="9.2069367"><ele>347.0</ele><time>2026-04-24T10:05:47.494Z</time></trkpt><trkpt lat="39.82386" lon="9.2070217"><ele>338.0</ele><time>2026-04-24T10:05:49.494Z</time></trkpt><trkpt lat="39.8238117" lon="9.207085"><ele>329.0</ele><time>2026-04-24T10:05:50.494Z</time></trkpt><trkpt lat="39.8237683" lon="9.20716"><ele>329.0</ele><time>2026-04-24T10:05:51.494Z</time></trkpt><trkpt lat="39.8237167" lon="9.2072433"><ele>329.0</ele><time>2026-04-24T10:05:52.494Z</time></trkpt><trkpt lat="39.8236667" lon="9.2073267"><ele>329.0</ele><time>2026-04-24T10:05:53.495Z</time></trkpt><trkpt lat="39.8236133" lon="9.20741"><ele>329.0</ele><time>2026-04-24T10:05:54.494Z</time></trkpt><trkpt lat="39.82357" lon="9.207495"><ele>329.0</ele><time>2026-04-24T10:05:55.495Z</time></trkpt><trkpt lat="39.82354" lon="9.20758"><ele>329.0</ele><time>2026-04-24T10:05:56.495Z</time></trkpt><trkpt lat="39.823505" lon="9.2076633"><ele>322.75</ele><time>2026-04-24T10:05:57.495Z</time></trkpt><trkpt lat="39.8234583" lon="9.2077933"><ele>316.5</ele><time>2026-04-24T10:05:59.494Z</time></trkpt><trkpt lat="39.8233517" lon="9.2079633"><ele>310.25</ele><time>2026-04-24T10:06:03.495Z</time></trkpt><trkpt lat="39.8233033" lon="9.2080183"><ele>304.0</ele><time>2026-04-24T10:06:04.495Z</time></trkpt><trkpt lat="39.82322" lon="9.2081183"><ele>305.4</ele><time>2026-04-24T10:06:06.494Z</time></trkpt><trkpt lat="39.823165" lon="9.20823"><ele>306.79999999999995</ele><time>2026-04-24T10:06:08.495Z</time></trkpt><trkpt lat="39.8231233" lon="9.2083417"><ele>308.20000000000005</ele><time>2026-04-24T10:06:10.495Z</time></trkpt><trkpt lat="39.823075" lon="9.2084617"><ele>309.6</ele><time>2026-04-24T10:06:12.495Z</time></trkpt><trkpt lat="39.8229817" lon="9.208575"><ele>311.0</ele><time>2026-04-24T10:06:14.495Z</time></trkpt><trkpt lat="39.8229433" lon="9.208645"><ele>311.0</ele><time>2026-04-24T10:06:15.495Z</time></trkpt><trkpt lat="39.8229117" lon="9.2087217"><ele>311.0</ele><time>2026-04-24T10:06:16.495Z</time></trkpt><trkpt lat="39.82288" lon="9.208865"><ele>311.0</ele><time>2026-04-24T10:06:18.495Z</time></trkpt><trkpt lat="39.8228483" lon="9.2089717"><ele>311.0</ele><time>2026-04-24T10:06:20.494Z</time></trkpt><trkpt lat="39.8227383" lon="9.2090617"><ele>311.0</ele><time>2026-04-24T10:06:24.495Z</time></trkpt><trkpt lat="39.8226717" lon="9.209075"><ele>311.2</ele><time>2026-04-24T10:06:26.494Z</time></trkpt><trkpt lat="39.822625" lon="9.2091667"><ele>311.40000000000003</ele><time>2026-04-24T10:06:29.494Z</time></trkpt><trkpt lat="39.8225783" lon="9.20929"><ele>311.6</ele><time>2026-04-24T10:06:32.495Z</time></trkpt><trkpt lat="39.8225217" lon="9.2093517"><ele>311.8</ele><time>2026-04-24T10:06:34.494Z</time></trkpt><trkpt lat="39.8225133" lon="9.2094333"><ele>312.0</ele><time>2026-04-24T10:08:11.495Z</time></trkpt><trkpt lat="39.8226717" lon="9.209465"><ele>312.0</ele><time>2026-04-24T10:08:17.494Z</time></trkpt><trkpt lat="39.8227533" lon="9.2094783"><ele>312.0</ele><time>2026-04-24T10:08:19.494Z</time></trkpt><trkpt lat="39.8228267" lon="9.20953"><ele>312.0</ele><time>2026-04-24T10:22:47.492Z</time></trkpt><trkpt lat="39.822975" lon="9.2096167"><ele>312.0</ele><time>2026-04-24T10:22:51.493Z</time></trkpt><trkpt lat="39.8230383" lon="9.2096467"><ele>312.0</ele><time>2026-04-24T10:22:54.493Z</time></trkpt><trkpt lat="39.8231183" lon="9.2097267"><ele>311.3333333333333</ele><time>2026-04-24T10:22:57.492Z</time></trkpt><trkpt lat="39.823165" lon="9.20983"><ele>310.6666666666667</ele><time>2026-04-24T10:22:59.492Z</time></trkpt><trkpt lat="39.8231983" lon="9.2099783"><ele>310.0</ele><time>2026-04-24T10:23:01.493Z</time></trkpt><trkpt lat="39.823215" lon="9.210065"><ele>309.33333333333337</ele><time>2026-04-24T10:23:02.492Z</time></trkpt><trkpt lat="39.8232317" lon="9.21016"><ele>308.6666666666667</ele><time>2026-04-24T10:23:03.492Z</time></trkpt><trkpt lat="39.8232517" lon="9.2102683"><ele>308.0</ele><time>2026-04-24T10:23:04.493Z</time></trkpt><trkpt lat="39.8232733" lon="9.2103767"><ele>308.0</ele><time>2026-04-24T10:23:05.493Z</time></trkpt><trkpt lat="39.8232983" lon="9.2104767"><ele>308.0</ele><time>2026-04-24T10:23:06.493Z</time></trkpt><trkpt lat="39.8233133" lon="9.2105633"><ele>308.0</ele><time>2026-04-24T10:23:07.493Z</time></trkpt><trkpt lat="39.823325" lon="9.2107033"><ele>308.0</ele><time>2026-04-24T10:23:09.493Z</time></trkpt><trkpt lat="39.8233633" lon="9.21098"><ele>310.0</ele><time>2026-04-24T10:23:13.492Z</time></trkpt><trkpt lat="39.8233817" lon="9.2110617"><ele>312.0</ele><time>2026-04-24T10:23:14.492Z</time></trkpt><trkpt lat="39.8234033" lon="9.2111567"><ele>314.0</ele><time>2026-04-24T10:23:15.493Z</time></trkpt><trkpt lat="39.8234333" lon="9.21125"><ele>316.0</ele><time>2026-04-24T10:23:16.492Z</time></trkpt><trkpt lat="39.8234667" lon="9.2113333"><ele>318.0</ele><time>2026-04-24T10:23:17.493Z</time></trkpt><trkpt lat="39.8234983" lon="9.2114067"><ele>320.0</ele><time>2026-04-24T10:23:18.493Z</time></trkpt><trkpt lat="39.8235367" lon="9.21156"><ele>320.25</ele><time>2026-04-24T10:23:20.493Z</time></trkpt><trkpt lat="39.823545" lon="9.2116983"><ele>320.5</ele><time>2026-04-24T10:23:22.492Z</time></trkpt><trkpt lat="39.823545" lon="9.21185"><ele>320.75</ele><time>2026-04-24T10:23:24.492Z</time></trkpt><trkpt lat="39.8235217" lon="9.2120317"><ele>321.0</ele><time>2026-04-24T10:23:26.492Z</time></trkpt><trkpt lat="39.8235033" lon="9.21214"><ele>321.0</ele><time>2026-04-24T10:23:27.493Z</time></trkpt><trkpt lat="39.8234833" lon="9.21223"><ele>321.0</ele><time>2026-04-24T10:23:28.492Z</time></trkpt><trkpt lat="39.8234367" lon="9.21233"><ele>321.0</ele><time>2026-04-24T10:23:30.493Z</time></trkpt><trkpt lat="39.8233583" lon="9.212155"><ele>321.0</ele><time>2026-04-24T10:23:35.493Z</time></trkpt><trkpt lat="39.8233633" lon="9.2120417"><ele>321.0</ele><time>2026-04-24T10:23:37.493Z</time></trkpt><trkpt lat="39.823335" lon="9.2119267"><ele>323.8</ele><time>2026-04-24T10:23:39.493Z</time></trkpt><trkpt lat="39.823275" lon="9.2118133"><ele>326.6</ele><time>2026-04-24T10:23:41.492Z</time></trkpt><trkpt lat="39.8232033" lon="9.21174"><ele>329.4</ele><time>2026-04-24T10:23:43.493Z</time></trkpt><trkpt lat="39.8231283" lon="9.2116867"><ele>332.2</ele><time>2026-04-24T10:23:45.493Z</time></trkpt><trkpt lat="39.8230317" lon="9.2116767"><ele>335.0</ele><time>2026-04-24T10:23:47.493Z</time></trkpt><trkpt lat="39.8229283" lon="9.2116767"><ele>335.0</ele><time>2026-04-24T10:23:49.493Z</time></trkpt><trkpt lat="39.8228433" lon="9.211615"><ele>335.0</ele><time>2026-04-24T10:23:51.492Z</time></trkpt><trkpt lat="39.8227167" lon="9.2114883"><ele>335.0</ele><time>2026-04-24T10:23:55.493Z</time></trkpt><trkpt lat="39.8226483" lon="9.2115583"><ele>335.0</ele><time>2026-04-24T10:23:57.492Z</time></trkpt><trkpt lat="39.8226083" lon="9.2116767"><ele>335.0</ele><time>2026-04-24T10:23:59.493Z</time></trkpt><trkpt lat="39.8225817" lon="9.2118217"><ele>336.57142857142856</ele><time>2026-04-24T10:24:01.492Z</time></trkpt><trkpt lat="39.8225817" lon="9.2119083"><ele>338.1428571428571</ele><time>2026-04-24T10:24:02.493Z</time></trkpt><trkpt lat="39.82259" lon="9.2120033"><ele>339.71428571428567</ele><time>2026-04-24T10:24:03.493Z</time></trkpt><trkpt lat="39.8226083" lon="9.2121017"><ele>341.2857142857143</ele><time>2026-04-24T10:24:04.493Z</time></trkpt><trkpt lat="39.8226317" lon="9.2122"><ele>342.8571428571429</ele><time>2026-04-24T10:24:05.492Z</time></trkpt><trkpt lat="39.822645" lon="9.2122983"><ele>344.4285714285714</ele><time>2026-04-24T10:24:06.493Z</time></trkpt><trkpt lat="39.8226533" lon="9.21238"><ele>346.0</ele><time>2026-04-24T10:24:07.493Z</time></trkpt><trkpt lat="39.822655" lon="9.21247"><ele>353.20000000000005</ele><time>2026-04-24T10:24:08.492Z</time></trkpt><trkpt lat="39.8226467" lon="9.2125667"><ele>360.40000000000003</ele><time>2026-04-24T10:24:09.493Z</time></trkpt><trkpt lat="39.822645" lon="9.2126683"><ele>367.6</ele><time>2026-04-24T10:24:10.492Z</time></trkpt><trkpt lat="39.822645" lon="9.212765"><ele>374.8</ele><time>2026-04-24T10:24:11.492Z</time></trkpt><trkpt lat="39.822645" lon="9.2128633"><ele>382.0</ele><time>2026-04-24T10:24:12.492Z</time></trkpt><trkpt lat="39.8226317" lon="9.2130633"><ele>382.0</ele><time>2026-04-24T10:24:15.492Z</time></trkpt><trkpt lat="39.82258" lon="9.213135"><ele>382.0</ele><time>2026-04-24T10:24:17.492Z</time></trkpt><trkpt lat="39.82255" lon="9.2132167"><ele>382.0</ele><time>2026-04-24T10:24:19.493Z</time></trkpt><trkpt lat="39.82257" lon="9.2133517"><ele>382.0</ele><time>2026-04-24T10:24:21.492Z</time></trkpt><trkpt lat="39.822595" lon="9.213435"><ele>382.0</ele><time>2026-04-24T10:24:22.493Z</time></trkpt><trkpt lat="39.8226283" lon="9.2135267"><ele>382.0</ele><time>2026-04-24T10:24:23.492Z</time></trkpt><trkpt lat="39.8226583" lon="9.2136117"><ele>379.8</ele><time>2026-04-24T10:24:24.493Z</time></trkpt><trkpt lat="39.8226667" lon="9.2137583"><ele>377.6</ele><time>2026-04-24T10:24:26.492Z</time></trkpt><trkpt lat="39.8226667" lon="9.2139267"><ele>375.40000000000003</ele><time>2026-04-24T10:24:28.493Z</time></trkpt><trkpt lat="39.82268" lon="9.214015"><ele>373.20000000000005</ele><time>2026-04-24T10:24:29.493Z</time></trkpt><trkpt lat="39.82271" lon="9.2140933"><ele>371.0</ele><time>2026-04-24T10:24:30.492Z</time></trkpt><trkpt lat="39.8227417" lon="9.2141817"><ele>371.0</ele><time>2026-04-24T10:24:31.493Z</time></trkpt><trkpt lat="39.8227733" lon="9.214275"><ele>371.0</ele><time>2026-04-24T10:24:32.492Z</time></trkpt><trkpt lat="39.822795" lon="9.21437"><ele>371.0</ele><time>2026-04-24T10:24:33.492Z</time></trkpt><trkpt lat="39.8227967" lon="9.2145567"><ele>371.0</ele><time>2026-04-24T10:24:35.493Z</time></trkpt><trkpt lat="39.8227917" lon="9.2146567"><ele>371.0</ele><time>2026-04-24T10:24:36.493Z</time></trkpt><trkpt lat="39.8227867" lon="9.214755"><ele>375.6666666666667</ele><time>2026-04-24T10:24:37.492Z</time></trkpt><trkpt lat="39.8227933" lon="9.2148383"><ele>380.33333333333337</ele><time>2026-04-24T10:24:38.492Z</time></trkpt><trkpt lat="39.8228333" lon="9.2149617"><ele>385.0</ele><time>2026-04-24T10:24:40.492Z</time></trkpt><trkpt lat="39.8229317" lon="9.2150217"><ele>389.6666666666667</ele><time>2026-04-24T10:24:42.492Z</time></trkpt><trkpt lat="39.8229983" lon="9.2150217"><ele>394.3333333333333</ele><time>2026-04-24T10:24:43.493Z</time></trkpt><trkpt lat="39.8230683" lon="9.2150117"><ele>399.0</ele><time>2026-04-24T10:24:44.492Z</time></trkpt><trkpt lat="39.823145" lon="9.2150117"><ele>399.0</ele><time>2026-04-24T10:24:45.492Z</time></trkpt><trkpt lat="39.8232217" lon="9.215025"><ele>399.0</ele><time>2026-04-24T10:24:46.493Z</time></trkpt><trkpt lat="39.8232983" lon="9.2150467"><ele>399.0</ele><time>2026-04-24T10:24:47.492Z</time></trkpt><trkpt lat="39.8233833" lon="9.2150767"><ele>399.0</ele><time>2026-04-24T10:24:48.492Z</time></trkpt><trkpt lat="39.8234717" lon="9.2151033"><ele>399.0</ele><time>2026-04-24T10:24:49.493Z</time></trkpt><trkpt lat="39.8235617" lon="9.2151317"><ele>399.0</ele><time>2026-04-24T10:24:50.492Z</time></trkpt><trkpt lat="39.8236517" lon="9.215145"><ele>398.0</ele><time>2026-04-24T10:24:51.492Z</time></trkpt><trkpt lat="39.8237467" lon="9.21515"><ele>397.0</ele><time>2026-04-24T10:24:52.492Z</time></trkpt><trkpt lat="39.823835" lon="9.21515"><ele>396.0</ele><time>2026-04-24T10:24:53.492Z</time></trkpt><trkpt lat="39.82392" lon="9.215135"><ele>395.0</ele><time>2026-04-24T10:24:54.492Z</time></trkpt><trkpt lat="39.8240683" lon="9.2151467"><ele>394.0</ele><time>2026-04-24T10:24:56.493Z</time></trkpt><trkpt lat="39.8241367" lon="9.2151867"><ele>394.00000000000006</ele><time>2026-04-24T10:24:57.492Z</time></trkpt><trkpt lat="39.82419" lon="9.215245"><ele>394.0</ele><time>2026-04-24T10:24:58.493Z</time></trkpt><trkpt lat="39.8242433" lon="9.215315"><ele>394.0</ele><time>2026-04-24T10:24:59.493Z</time></trkpt><trkpt lat="39.8243" lon="9.21538"><ele>394.0</ele><time>2026-04-24T10:25:00.492Z</time></trkpt><trkpt lat="39.8243667" lon="9.2154233"><ele>394.00000000000006</ele><time>2026-04-24T10:25:01.493Z</time></trkpt><trkpt lat="39.82444" lon="9.2154517"><ele>394.0</ele><time>2026-04-24T10:25:02.493Z</time></trkpt><trkpt lat="39.8245183" lon="9.2154667"><ele>391.1666666666667</ele><time>2026-04-24T10:25:03.492Z</time></trkpt><trkpt lat="39.8246017" lon="9.2154683"><ele>388.33333333333337</ele><time>2026-04-24T10:25:04.492Z</time></trkpt><trkpt lat="39.8246767" lon="9.215465"><ele>385.5</ele><time>2026-04-24T10:25:05.493Z</time></trkpt><trkpt lat="39.8247567" lon="9.2154867"><ele>382.6666666666667</ele><time>2026-04-24T10:25:06.493Z</time></trkpt><trkpt lat="39.82483" lon="9.2155133"><ele>379.83333333333337</ele><time>2026-04-24T10:25:07.493Z</time></trkpt><trkpt lat="39.8249033" lon="9.21557"><ele>377.0</ele><time>2026-04-24T10:25:08.493Z</time></trkpt><trkpt lat="39.8249717" lon="9.215635"><ele>379.20000000000005</ele><time>2026-04-24T10:25:09.492Z</time></trkpt><trkpt lat="39.8250417" lon="9.21572"><ele>381.4</ele><time>2026-04-24T10:25:10.492Z</time></trkpt><trkpt lat="39.825115" lon="9.215815"><ele>383.6</ele><time>2026-04-24T10:25:11.492Z</time></trkpt><trkpt lat="39.8251867" lon="9.21591"><ele>385.79999999999995</ele><time>2026-04-24T10:25:12.493Z</time></trkpt><trkpt lat="39.825245" lon="9.2160017"><ele>388.0</ele><time>2026-04-24T10:25:13.492Z</time></trkpt><trkpt lat="39.825295" lon="9.216095"><ele>388.0</ele><time>2026-04-24T10:25:14.493Z</time></trkpt><trkpt lat="39.8253333" lon="9.2161933"><ele>388.0</ele><time>2026-04-24T10:25:15.492Z</time></trkpt><trkpt lat="39.82539" lon="9.2164083"><ele>388.0</ele><time>2026-04-24T10:25:17.492Z</time></trkpt><trkpt lat="39.82542" lon="9.2165133"><ele>388.0</ele><time>2026-04-24T10:25:18.492Z</time></trkpt><trkpt lat="39.825435" lon="9.216615"><ele>388.0</ele><time>2026-04-24T10:25:19.493Z</time></trkpt><trkpt lat="39.8254417" lon="9.2167283"><ele>391.83333333333337</ele><time>2026-04-24T10:25:20.492Z</time></trkpt><trkpt lat="39.8254517" lon="9.2168383"><ele>395.6666666666667</ele><time>2026-04-24T10:25:21.493Z</time></trkpt><trkpt lat="39.825465" lon="9.2169417"><ele>399.5</ele><time>2026-04-24T10:25:22.492Z</time></trkpt><trkpt lat="39.8254917" lon="9.2170367"><ele>403.33333333333337</ele><time>2026-04-24T10:25:23.492Z</time></trkpt><trkpt lat="39.825545" lon="9.217125"><ele>407.1666666666667</ele><time>2026-04-24T10:25:24.493Z</time></trkpt><trkpt lat="39.8256117" lon="9.2172133"><ele>411.0</ele><time>2026-04-24T10:25:25.492Z</time></trkpt><trkpt lat="39.8256933" lon="9.2172867"><ele>410.0</ele><time>2026-04-24T10:25:26.493Z</time></trkpt><trkpt lat="39.8257767" lon="9.2173667"><ele>409.0</ele><time>2026-04-24T10:25:27.492Z</time></trkpt><trkpt lat="39.8258617" lon="9.2174517"><ele>408.0</ele><time>2026-04-24T10:25:28.492Z</time></trkpt><trkpt lat="39.8259367" lon="9.2175383"><ele>407.0</ele><time>2026-04-24T10:25:29.493Z</time></trkpt><trkpt lat="39.82601" lon="9.2176317"><ele>406.0</ele><time>2026-04-24T10:25:30.492Z</time></trkpt><trkpt lat="39.8260833" lon="9.217735"><ele>406.0</ele><time>2026-04-24T10:25:31.493Z</time></trkpt><trkpt lat="39.826155" lon="9.21784"><ele>406.0</ele><time>2026-04-24T10:25:32.492Z</time></trkpt><trkpt lat="39.8262183" lon="9.21795"><ele>406.0</ele><time>2026-04-24T10:25:33.493Z</time></trkpt><trkpt lat="39.8262817" lon="9.2180517"><ele>406.0</ele><time>2026-04-24T10:25:34.492Z</time></trkpt><trkpt lat="39.826335" lon="9.2181433"><ele>406.0</ele><time>2026-04-24T10:25:35.492Z</time></trkpt><trkpt lat="39.826375" lon="9.2182267"><ele>409.8</ele><time>2026-04-24T10:25:36.493Z</time></trkpt><trkpt lat="39.826425" lon="9.2183917"><ele>413.6</ele><time>2026-04-24T10:25:38.492Z</time></trkpt><trkpt lat="39.826435" lon="9.2184883"><ele>417.4</ele><time>2026-04-24T10:25:39.493Z</time></trkpt><trkpt lat="39.826445" lon="9.2185967"><ele>421.2</ele><time>2026-04-24T10:25:40.492Z</time></trkpt><trkpt lat="39.82646" lon="9.2187067"><ele>425.0</ele><time>2026-04-24T10:25:41.493Z</time></trkpt><trkpt lat="39.8264783" lon="9.2188133"><ele>424.99999999999994</ele><time>2026-04-24T10:25:42.493Z</time></trkpt><trkpt lat="39.8264867" lon="9.218895"><ele>425.0</ele><time>2026-04-24T10:25:43.492Z</time></trkpt><trkpt lat="39.8264483" lon="9.2189817"><ele>425.0</ele><time>2026-04-24T10:25:45.492Z</time></trkpt><trkpt lat="39.8263633" lon="9.2189483"><ele>425.0</ele><time>2026-04-24T10:25:47.492Z</time></trkpt><trkpt lat="39.826315" lon="9.2188083"><ele>424.99999999999994</ele><time>2026-04-24T10:25:49.492Z</time></trkpt><trkpt lat="39.8262933" lon="9.2187217"><ele>425.0</ele><time>2026-04-24T10:25:50.493Z</time></trkpt><trkpt lat="39.8262667" lon="9.218635"><ele>424.99999999999994</ele><time>2026-04-24T10:25:51.493Z</time></trkpt><trkpt lat="39.826225" lon="9.21855"><ele>425.0</ele><time>2026-04-24T10:25:52.493Z</time></trkpt><trkpt lat="39.8261883" lon="9.21846"><ele>425.0</ele><time>2026-04-24T10:25:53.493Z</time></trkpt><trkpt lat="39.8261483" lon="9.2183867"><ele>425.0</ele><time>2026-04-24T10:25:54.493Z</time></trkpt><trkpt lat="39.8260517" lon="9.218265"><ele>424.99999999999994</ele><time>2026-04-24T10:25:56.492Z</time></trkpt><trkpt lat="39.82599" lon="9.21821"><ele>425.0</ele><time>2026-04-24T10:25:57.492Z</time></trkpt><trkpt lat="39.825845" lon="9.2180967"><ele>426.6</ele><time>2026-04-24T10:25:59.493Z</time></trkpt><trkpt lat="39.825765" lon="9.2180283"><ele>428.2</ele><time>2026-04-24T10:26:00.493Z</time></trkpt><trkpt lat="39.825685" lon="9.21796"><ele>429.79999999999995</ele><time>2026-04-24T10:26:01.493Z</time></trkpt><trkpt lat="39.8256033" lon="9.2179"><ele>431.4</ele><time>2026-04-24T10:26:02.492Z</time></trkpt><trkpt lat="39.82552" lon="9.2178383"><ele>433.0</ele><time>2026-04-24T10:26:03.492Z</time></trkpt><trkpt lat="39.8254317" lon="9.2177833"><ele>433.00000000000006</ele><time>2026-04-24T10:26:04.493Z</time></trkpt><trkpt lat="39.82534" lon="9.217735"><ele>433.0</ele><time>2026-04-24T10:26:05.493Z</time></trkpt><trkpt lat="39.8252533" lon="9.2176783"><ele>433.0</ele><time>2026-04-24T10:26:06.493Z</time></trkpt><trkpt lat="39.8251783" lon="9.2176183"><ele>433.0</ele><time>2026-04-24T10:26:07.492Z</time></trkpt><trkpt lat="39.8251183" lon="9.2175483"><ele>433.00000000000006</ele><time>2026-04-24T10:26:08.492Z</time></trkpt><trkpt lat="39.8250617" lon="9.217475"><ele>433.0</ele><time>2026-04-24T10:26:09.493Z</time></trkpt><trkpt lat="39.82501" lon="9.2174083"><ele>434.4285714285714</ele><time>2026-04-24T10:26:10.493Z</time></trkpt><trkpt lat="39.8249533" lon="9.2173583"><ele>435.85714285714283</ele><time>2026-04-24T10:26:11.492Z</time></trkpt><trkpt lat="39.8248867" lon="9.2173183"><ele>437.2857142857143</ele><time>2026-04-24T10:26:12.493Z</time></trkpt><trkpt lat="39.8248217" lon="9.2172833"><ele>438.71428571428567</ele><time>2026-04-24T10:26:13.493Z</time></trkpt><trkpt lat="39.8247483" lon="9.217255"><ele>440.14285714285717</ele><time>2026-04-24T10:26:14.492Z</time></trkpt><trkpt lat="39.8246667" lon="9.2172267"><ele>441.57142857142856</ele><time>2026-04-24T10:26:15.492Z</time></trkpt><trkpt lat="39.8246033" lon="9.21719"><ele>443.0</ele><time>2026-04-24T10:26:16.493Z</time></trkpt><trkpt lat="39.8245533" lon="9.2171333"><ele>443.0</ele><time>2026-04-24T10:26:17.492Z</time></trkpt><trkpt lat="39.8245117" lon="9.217055"><ele>442.99999999999994</ele><time>2026-04-24T10:26:18.492Z</time></trkpt><trkpt lat="39.8244533" lon="9.21689"><ele>442.99999999999994</ele><time>2026-04-24T10:26:20.493Z</time></trkpt><trkpt lat="39.8243867" lon="9.2168233"><ele>443.0</ele><time>2026-04-24T10:26:22.493Z</time></trkpt><trkpt lat="39.8243117" lon="9.2168783"><ele>443.0</ele><time>2026-04-24T10:26:24.493Z</time></trkpt><trkpt lat="39.824325" lon="9.2170183"><ele>442.99999999999994</ele><time>2026-04-24T10:26:26.492Z</time></trkpt><trkpt lat="39.8243617" lon="9.2171"><ele>443.0</ele><time>2026-04-24T10:26:27.492Z</time></trkpt><trkpt lat="39.8244017" lon="9.217185"><ele>443.0</ele><time>2026-04-24T10:26:28.493Z</time></trkpt><trkpt lat="39.82445" lon="9.21727"><ele>443.0</ele><time>2026-04-24T10:26:29.493Z</time></trkpt><trkpt lat="39.8245117" lon="9.2173483"><ele>442.99999999999994</ele><time>2026-04-24T10:26:30.492Z</time></trkpt><trkpt lat="39.82459" lon="9.217415"><ele>443.0</ele><time>2026-04-24T10:26:31.492Z</time></trkpt><trkpt lat="39.824665" lon="9.21747"><ele>446.8333333333333</ele><time>2026-04-24T10:26:32.493Z</time></trkpt><trkpt lat="39.82474" lon="9.2175233"><ele>450.66666666666663</ele><time>2026-04-24T10:26:33.492Z</time></trkpt><trkpt lat="39.8248117" lon="9.2175867"><ele>454.5</ele><time>2026-04-24T10:26:34.492Z</time></trkpt><trkpt lat="39.8248683" lon="9.2176633"><ele>458.33333333333337</ele><time>2026-04-24T10:26:35.493Z</time></trkpt><trkpt lat="39.824915" lon="9.2177467"><ele>462.1666666666667</ele><time>2026-04-24T10:26:36.492Z</time></trkpt><trkpt lat="39.8249583" lon="9.2178433"><ele>466.0</ele><time>2026-04-24T10:26:37.492Z</time></trkpt><trkpt lat="39.824995" lon="9.217945"><ele>466.0</ele><time>2026-04-24T10:26:38.493Z</time></trkpt><trkpt lat="39.825035" lon="9.218055"><ele>466.0</ele><time>2026-04-24T10:26:39.492Z</time></trkpt><trkpt lat="39.8251317" lon="9.218275"><ele>466.0</ele><time>2026-04-24T10:26:41.492Z</time></trkpt><trkpt lat="39.8251767" lon="9.2183867"><ele>466.0</ele><time>2026-04-24T10:26:42.492Z</time></trkpt><trkpt lat="39.8252167" lon="9.2185"><ele>467.20000000000005</ele><time>2026-04-24T10:26:43.492Z</time></trkpt><trkpt lat="39.825245" lon="9.21861"><ele>468.40000000000003</ele><time>2026-04-24T10:26:44.493Z</time></trkpt><trkpt lat="39.82527" lon="9.2187233"><ele>469.6</ele><time>2026-04-24T10:26:45.492Z</time></trkpt><trkpt lat="39.8252933" lon="9.2188383"><ele>470.8</ele><time>2026-04-24T10:26:46.492Z</time></trkpt><trkpt lat="39.8253183" lon="9.2189617"><ele>472.0</ele><time>2026-04-24T10:26:47.493Z</time></trkpt><trkpt lat="39.8253417" lon="9.219085"><ele>472.0</ele><time>2026-04-24T10:26:48.492Z</time></trkpt><trkpt lat="39.8253567" lon="9.2192167"><ele>472.00000000000006</ele><time>2026-04-24T10:26:49.492Z</time></trkpt><trkpt lat="39.8253683" lon="9.21935"><ele>472.00000000000006</ele><time>2026-04-24T10:26:50.492Z</time></trkpt><trkpt lat="39.8253833" lon="9.2194833"><ele>472.0</ele><time>2026-04-24T10:26:51.492Z</time></trkpt><trkpt lat="39.8254" lon="9.2196"><ele>472.0</ele><time>2026-04-24T10:26:52.492Z</time></trkpt><trkpt lat="39.8254133" lon="9.2197083"><ele>472.0</ele><time>2026-04-24T10:26:53.493Z</time></trkpt><trkpt lat="39.8254233" lon="9.21979"><ele>472.00000000000006</ele><time>2026-04-24T10:26:54.492Z</time></trkpt><trkpt lat="39.82541" lon="9.2199017"><ele>472.00000000000006</ele><time>2026-04-24T10:26:56.492Z</time></trkpt><trkpt lat="39.825345" lon="9.2199233"><ele>472.0</ele><time>2026-04-24T10:26:58.492Z</time></trkpt><trkpt lat="39.8252817" lon="9.2198067"><ele>472.0</ele><time>2026-04-24T10:27:00.493Z</time></trkpt><trkpt lat="39.8252567" lon="9.219625"><ele>472.00000000000006</ele><time>2026-04-24T10:27:02.493Z</time></trkpt><trkpt lat="39.82522" lon="9.2195233"><ele>472.0</ele><time>2026-04-24T10:27:03.492Z</time></trkpt><trkpt lat="39.8251883" lon="9.2194317"><ele>472.0</ele><time>2026-04-24T10:27:04.493Z</time></trkpt><trkpt lat="39.825135" lon="9.2193417"><ele>472.0</ele><time>2026-04-24T10:27:05.493Z</time></trkpt><trkpt lat="39.8250767" lon="9.219255"><ele>472.00000000000006</ele><time>2026-04-24T10:27:06.493Z</time></trkpt><trkpt lat="39.8250067" lon="9.2191783"><ele>472.0</ele><time>2026-04-24T10:27:07.492Z</time></trkpt><trkpt lat="39.8249333" lon="9.219095"><ele>475.0</ele><time>2026-04-24T10:27:08.492Z</time></trkpt><trkpt lat="39.82486" lon="9.219015"><ele>478.00000000000006</ele><time>2026-04-24T10:27:09.493Z</time></trkpt><trkpt lat="39.82478" lon="9.218935"><ele>481.00000000000006</ele><time>2026-04-24T10:27:10.493Z</time></trkpt><trkpt lat="39.8247" lon="9.2188533"><ele>484.0</ele><time>2026-04-24T10:27:11.493Z</time></trkpt><trkpt lat="39.8246167" lon="9.2187867"><ele>487.0</ele><time>2026-04-24T10:27:12.492Z</time></trkpt><trkpt lat="39.824525" lon="9.2187183"><ele>487.0</ele><time>2026-04-24T10:27:13.493Z</time></trkpt><trkpt lat="39.8244283" lon="9.2186533"><ele>487.00000000000006</ele><time>2026-04-24T10:27:14.492Z</time></trkpt><trkpt lat="39.8243317" lon="9.218585"><ele>487.00000000000006</ele><time>2026-04-24T10:27:15.492Z</time></trkpt><trkpt lat="39.8242367" lon="9.218515"><ele>487.0</ele><time>2026-04-24T10:27:16.493Z</time></trkpt><trkpt lat="39.82414" lon="9.2184417"><ele>487.0</ele><time>2026-04-24T10:27:17.492Z</time></trkpt><trkpt lat="39.8240483" lon="9.2183667"><ele>488.6</ele><time>2026-04-24T10:27:18.491Z</time></trkpt><trkpt lat="39.8239633" lon="9.2183033"><ele>490.20000000000005</ele><time>2026-04-24T10:27:19.491Z</time></trkpt><trkpt lat="39.8238883" lon="9.218235"><ele>491.8</ele><time>2026-04-24T10:27:20.491Z</time></trkpt><trkpt lat="39.8238233" lon="9.21817"><ele>493.4</ele><time>2026-04-24T10:27:21.492Z</time></trkpt><trkpt lat="39.8237467" lon="9.2180333"><ele>495.0</ele><time>2026-04-24T10:27:23.492Z</time></trkpt><trkpt lat="39.8236917" lon="9.2179183"><ele>495.0</ele><time>2026-04-24T10:27:25.491Z</time></trkpt><trkpt lat="39.82362" lon="9.2179117"><ele>495.0</ele><time>2026-04-24T10:27:27.491Z</time></trkpt><trkpt lat="39.8235883" lon="9.2180367"><ele>495.0</ele><time>2026-04-24T10:27:29.491Z</time></trkpt><trkpt lat="39.823595" lon="9.218135"><ele>495.0</ele><time>2026-04-24T10:27:30.492Z</time></trkpt><trkpt lat="39.8236083" lon="9.2182483"><ele>495.0</ele><time>2026-04-24T10:27:31.492Z</time></trkpt><trkpt lat="39.82363" lon="9.2183617"><ele>495.0</ele><time>2026-04-24T10:27:32.491Z</time></trkpt><trkpt lat="39.8236667" lon="9.2184733"><ele>498.8</ele><time>2026-04-24T10:27:33.491Z</time></trkpt><trkpt lat="39.82371" lon="9.2185917"><ele>502.6</ele><time>2026-04-24T10:27:34.491Z</time></trkpt><trkpt lat="39.823745" lon="9.2187217"><ele>506.4</ele><time>2026-04-24T10:27:35.492Z</time></trkpt><trkpt lat="39.8237717" lon="9.21885"><ele>510.2</ele><time>2026-04-24T10:27:36.491Z</time></trkpt><trkpt lat="39.8238033" lon="9.2189767"><ele>514.0</ele><time>2026-04-24T10:27:37.491Z</time></trkpt><trkpt lat="39.8238267" lon="9.2191067"><ele>516.2</ele><time>2026-04-24T10:27:38.491Z</time></trkpt><trkpt lat="39.8238517" lon="9.2192333"><ele>518.4</ele><time>2026-04-24T10:27:39.491Z</time></trkpt><trkpt lat="39.823875" lon="9.2193633"><ele>520.6</ele><time>2026-04-24T10:27:40.492Z</time></trkpt><trkpt lat="39.8238867" lon="9.219495"><ele>522.8</ele><time>2026-04-24T10:27:41.491Z</time></trkpt><trkpt lat="39.82389" lon="9.219625"><ele>525.0</ele><time>2026-04-24T10:27:42.491Z</time></trkpt><trkpt lat="39.8238983" lon="9.2198983"><ele>527.0</ele><time>2026-04-24T10:27:44.491Z</time></trkpt><trkpt lat="39.82391" lon="9.2200267"><ele>529.0</ele><time>2026-04-24T10:27:45.492Z</time></trkpt><trkpt lat="39.8239267" lon="9.2201517"><ele>531.0</ele><time>2026-04-24T10:27:46.491Z</time></trkpt><trkpt lat="39.8239517" lon="9.22026"><ele>533.0</ele><time>2026-04-24T10:27:47.492Z</time></trkpt><trkpt lat="39.8239667" lon="9.22035"><ele>535.0</ele><time>2026-04-24T10:27:48.492Z</time></trkpt><trkpt lat="39.8239867" lon="9.22049"><ele>535.0</ele><time>2026-04-24T10:27:50.492Z</time></trkpt><trkpt lat="39.8239533" lon="9.2205733"><ele>535.0</ele><time>2026-04-24T10:27:52.491Z</time></trkpt><trkpt lat="39.823885" lon="9.2205617"><ele>535.0</ele><time>2026-04-24T10:27:54.492Z</time></trkpt><trkpt lat="39.8238383" lon="9.2205067"><ele>535.0</ele><time>2026-04-24T10:27:55.491Z</time></trkpt><trkpt lat="39.8237867" lon="9.220435"><ele>535.0</ele><time>2026-04-24T10:27:56.491Z</time></trkpt><trkpt lat="39.8237367" lon="9.2203583"><ele>535.0</ele><time>2026-04-24T10:27:57.491Z</time></trkpt><trkpt lat="39.8236767" lon="9.220295"><ele>535.0</ele><time>2026-04-24T10:27:58.492Z</time></trkpt><trkpt lat="39.8236217" lon="9.220235"><ele>535.0</ele><time>2026-04-24T10:27:59.491Z</time></trkpt><trkpt lat="39.8235667" lon="9.2201583"><ele>535.0</ele><time>2026-04-24T10:28:00.492Z</time></trkpt><trkpt lat="39.823515" lon="9.2200767"><ele>535.0</ele><time>2026-04-24T10:28:01.491Z</time></trkpt><trkpt lat="39.8234683" lon="9.219985"><ele>535.0</ele><time>2026-04-24T10:28:02.492Z</time></trkpt><trkpt lat="39.8234283" lon="9.21988"><ele>535.0</ele><time>2026-04-24T10:28:03.492Z</time></trkpt><trkpt lat="39.8233583" lon="9.2196567"><ele>538.0</ele><time>2026-04-24T10:28:05.491Z</time></trkpt><trkpt lat="39.82333" lon="9.21955"><ele>541.0</ele><time>2026-04-24T10:28:06.491Z</time></trkpt><trkpt lat="39.823305" lon="9.2194467"><ele>544.0</ele><time>2026-04-24T10:28:07.491Z</time></trkpt><trkpt lat="39.823275" lon="9.21936"><ele>547.0</ele><time>2026-04-24T10:28:08.491Z</time></trkpt><trkpt lat="39.8232317" lon="9.2192917"><ele>550.0</ele><time>2026-04-24T10:28:09.492Z</time></trkpt><trkpt lat="39.8231633" lon="9.21923"><ele>553.0</ele><time>2026-04-24T10:28:10.491Z</time></trkpt><trkpt lat="39.8230917" lon="9.2191667"><ele>553.0</ele><time>2026-04-24T10:28:11.491Z</time></trkpt><trkpt lat="39.8230333" lon="9.2190983"><ele>553.0</ele><time>2026-04-24T10:28:12.491Z</time></trkpt><trkpt lat="39.8229817" lon="9.2190083"><ele>553.0</ele><time>2026-04-24T10:28:13.492Z</time></trkpt><trkpt lat="39.8229433" lon="9.218915"><ele>553.0</ele><time>2026-04-24T10:28:14.491Z</time></trkpt><trkpt lat="39.8229233" lon="9.218835"><ele>553.0</ele><time>2026-04-24T10:28:15.492Z</time></trkpt><trkpt lat="39.8228717" lon="9.2186967"><ele>553.0</ele><time>2026-04-24T10:28:17.491Z</time></trkpt><trkpt lat="39.8227833" lon="9.2186533"><ele>552.3333333333334</ele><time>2026-04-24T10:28:19.491Z</time></trkpt><trkpt lat="39.8227183" lon="9.2186733"><ele>551.6666666666667</ele><time>2026-04-24T10:28:20.491Z</time></trkpt><trkpt lat="39.82265" lon="9.21871"><ele>551.0</ele><time>2026-04-24T10:28:21.491Z</time></trkpt><trkpt lat="39.8225733" lon="9.21876"><ele>550.3333333333334</ele><time>2026-04-24T10:28:22.492Z</time></trkpt><trkpt lat="39.8225017" lon="9.2188183"><ele>549.6666666666666</ele><time>2026-04-24T10:28:23.492Z</time></trkpt><trkpt lat="39.82243" lon="9.21887"><ele>549.0</ele><time>2026-04-24T10:28:24.491Z</time></trkpt><trkpt lat="39.822285" lon="9.218945"><ele>549.0</ele><time>2026-04-24T10:28:26.491Z</time></trkpt><trkpt lat="39.8222033" lon="9.2189583"><ele>549.0</ele><time>2026-04-24T10:28:27.491Z</time></trkpt><trkpt lat="39.8221167" lon="9.21896"><ele>549.0</ele><time>2026-04-24T10:28:28.491Z</time></trkpt><trkpt lat="39.8220317" lon="9.218945"><ele>549.0</ele><time>2026-04-24T10:28:29.492Z</time></trkpt><trkpt lat="39.8219467" lon="9.2189183"><ele>549.0</ele><time>2026-04-24T10:28:30.491Z</time></trkpt><trkpt lat="39.8218533" lon="9.2188933"><ele>549.0</ele><time>2026-04-24T10:28:31.491Z</time></trkpt><trkpt lat="39.82176" lon="9.21887"><ele>550.8</ele><time>2026-04-24T10:28:32.492Z</time></trkpt><trkpt lat="39.8216633" lon="9.2188467"><ele>552.5999999999999</ele><time>2026-04-24T10:28:33.491Z</time></trkpt><trkpt lat="39.8215683" lon="9.2188183"><ele>554.4</ele><time>2026-04-24T10:28:34.492Z</time></trkpt><trkpt lat="39.8214733" lon="9.2187917"><ele>556.1999999999999</ele><time>2026-04-24T10:28:35.492Z</time></trkpt><trkpt lat="39.8213883" lon="9.2187567"><ele>558.0</ele><time>2026-04-24T10:28:36.492Z</time></trkpt><trkpt lat="39.8213033" lon="9.2187133"><ele>558.0</ele><time>2026-04-24T10:28:37.492Z</time></trkpt><trkpt lat="39.8212217" lon="9.2186683"><ele>558.0</ele><time>2026-04-24T10:28:38.492Z</time></trkpt><trkpt lat="39.8211383" lon="9.2186183"><ele>558.0</ele><time>2026-04-24T10:28:39.492Z</time></trkpt><trkpt lat="39.821055" lon="9.2185667"><ele>558.0</ele><time>2026-04-24T10:28:40.491Z</time></trkpt><trkpt lat="39.82098" lon="9.21851"><ele>558.0</ele><time>2026-04-24T10:28:41.492Z</time></trkpt><trkpt lat="39.8209033" lon="9.2184433"><ele>563.4</ele><time>2026-04-24T10:28:42.491Z</time></trkpt><trkpt lat="39.8208467" lon="9.2183817"><ele>568.8</ele><time>2026-04-24T10:28:43.491Z</time></trkpt><trkpt lat="39.82079" lon="9.2183217"><ele>574.2</ele><time>2026-04-24T10:28:44.491Z</time></trkpt><trkpt lat="39.8206983" lon="9.21826"><ele>579.6</ele><time>2026-04-24T10:28:46.491Z</time></trkpt><trkpt lat="39.820655" lon="9.2184333"><ele>585.0</ele><time>2026-04-24T10:28:50.491Z</time></trkpt><trkpt lat="39.820705" lon="9.2184967"><ele>585.0</ele><time>2026-04-24T10:28:51.491Z</time></trkpt><trkpt lat="39.82077" lon="9.218555"><ele>585.0</ele><time>2026-04-24T10:28:52.491Z</time></trkpt><trkpt lat="39.82083" lon="9.2186033"><ele>585.0</ele><time>2026-04-24T10:28:53.491Z</time></trkpt><trkpt lat="39.8208867" lon="9.218665"><ele>585.0</ele><time>2026-04-24T10:28:54.491Z</time></trkpt><trkpt lat="39.8209417" lon="9.21873"><ele>585.0</ele><time>2026-04-24T10:28:55.492Z</time></trkpt><trkpt lat="39.8209967" lon="9.2188017"><ele>585.0</ele><time>2026-04-24T10:28:56.491Z</time></trkpt><trkpt lat="39.8210583" lon="9.2188817"><ele>587.2</ele><time>2026-04-24T10:28:57.491Z</time></trkpt><trkpt lat="39.82112" lon="9.218965"><ele>589.4</ele><time>2026-04-24T10:28:58.491Z</time></trkpt><trkpt lat="39.8211883" lon="9.2190483"><ele>591.6</ele><time>2026-04-24T10:28:59.492Z</time></trkpt><trkpt lat="39.8212567" lon="9.2191233"><ele>593.8</ele><time>2026-04-24T10:29:00.491Z</time></trkpt><trkpt lat="39.8213317" lon="9.2191933"><ele>596.0</ele><time>2026-04-24T10:29:01.491Z</time></trkpt><trkpt lat="39.8214033" lon="9.2192567"><ele>596.0</ele><time>2026-04-24T10:29:02.491Z</time></trkpt><trkpt lat="39.82148" lon="9.2193183"><ele>596.0</ele><time>2026-04-24T10:29:03.491Z</time></trkpt><trkpt lat="39.8215667" lon="9.21938"><ele>596.0</ele><time>2026-04-24T10:29:04.491Z</time></trkpt><trkpt lat="39.82165" lon="9.219445"><ele>596.0</ele><time>2026-04-24T10:29:05.492Z</time></trkpt><trkpt lat="39.8217383" lon="9.219505"><ele>596.0</ele><time>2026-04-24T10:29:06.492Z</time></trkpt><trkpt lat="39.821835" lon="9.2195683"><ele>598.75</ele><time>2026-04-24T10:29:07.492Z</time></trkpt><trkpt lat="39.8220233" lon="9.2197033"><ele>601.5</ele><time>2026-04-24T10:29:09.492Z</time></trkpt><trkpt lat="39.822105" lon="9.2197733"><ele>604.25</ele><time>2026-04-24T10:29:10.491Z</time></trkpt><trkpt lat="39.82218" lon="9.2198467"><ele>607.0</ele><time>2026-04-24T10:29:11.492Z</time></trkpt><trkpt lat="39.8222567" lon="9.219925"><ele>607.0</ele><time>2026-04-24T10:29:12.492Z</time></trkpt><trkpt lat="39.822325" lon="9.2200133"><ele>607.0</ele><time>2026-04-24T10:29:13.492Z</time></trkpt><trkpt lat="39.822385" lon="9.2201067"><ele>607.0</ele><time>2026-04-24T10:29:14.491Z</time></trkpt><trkpt lat="39.8224433" lon="9.22021"><ele>607.0</ele><time>2026-04-24T10:29:15.492Z</time></trkpt><trkpt lat="39.8224867" lon="9.22032"><ele>607.0</ele><time>2026-04-24T10:29:16.492Z</time></trkpt><trkpt lat="39.82253" lon="9.2204217"><ele>607.0</ele><time>2026-04-24T10:29:17.491Z</time></trkpt><trkpt lat="39.8225783" lon="9.2205333"><ele>607.0</ele><time>2026-04-24T10:29:18.491Z</time></trkpt><trkpt lat="39.8226167" lon="9.2206567"><ele>607.0</ele><time>2026-04-24T10:29:19.492Z</time></trkpt><trkpt lat="39.8226367" lon="9.2207617"><ele>607.0</ele><time>2026-04-24T10:29:20.492Z</time></trkpt><trkpt lat="39.8226433" lon="9.2208633"><ele>607.0</ele><time>2026-04-24T10:29:21.492Z</time></trkpt><trkpt lat="39.8226517" lon="9.2209683"><ele>607.0</ele><time>2026-04-24T10:29:22.491Z</time></trkpt><trkpt lat="39.8226533" lon="9.2210783"><ele>610.1666666666667</ele><time>2026-04-24T10:29:23.491Z</time></trkpt><trkpt lat="39.8226467" lon="9.22119"><ele>613.3333333333334</ele><time>2026-04-24T10:29:24.491Z</time></trkpt><trkpt lat="39.8226317" lon="9.2213083"><ele>616.5</ele><time>2026-04-24T10:29:25.491Z</time></trkpt><trkpt lat="39.822605" lon="9.221425"><ele>619.6666666666666</ele><time>2026-04-24T10:29:26.492Z</time></trkpt><trkpt lat="39.8225883" lon="9.2215333"><ele>622.8333333333333</ele><time>2026-04-24T10:29:27.491Z</time></trkpt><trkpt lat="39.8225867" lon="9.22165"><ele>626.0</ele><time>2026-04-24T10:29:28.492Z</time></trkpt><trkpt lat="39.8226017" lon="9.2218917"><ele>627.6</ele><time>2026-04-24T10:29:30.491Z</time></trkpt><trkpt lat="39.8226083" lon="9.22201"><ele>629.2</ele><time>2026-04-24T10:29:31.492Z</time></trkpt><trkpt lat="39.8226083" lon="9.2221333"><ele>630.8</ele><time>2026-04-24T10:29:32.492Z</time></trkpt><trkpt lat="39.8226083" lon="9.2222567"><ele>632.4</ele><time>2026-04-24T10:29:33.492Z</time></trkpt><trkpt lat="39.8225967" lon="9.222375"><ele>634.0</ele><time>2026-04-24T10:29:34.491Z</time></trkpt><trkpt lat="39.8225933" lon="9.2224883"><ele>634.6666666666667</ele><time>2026-04-24T10:29:35.492Z</time></trkpt><trkpt lat="39.8225917" lon="9.2225733"><ele>635.3333333333334</ele><time>2026-04-24T10:29:36.491Z</time></trkpt><trkpt lat="39.8225533" lon="9.2226817"><ele>636.0</ele><time>2026-04-24T10:29:38.492Z</time></trkpt><trkpt lat="39.8224817" lon="9.2227017"><ele>636.6666666666666</ele><time>2026-04-24T10:29:40.491Z</time></trkpt><trkpt lat="39.8224483" lon="9.2225933"><ele>637.3333333333333</ele><time>2026-04-24T10:29:42.491Z</time></trkpt><trkpt lat="39.822455" lon="9.2225033"><ele>638.0</ele><time>2026-04-24T10:29:43.492Z</time></trkpt><trkpt lat="39.822465" lon="9.2224"><ele>637.3333333333333</ele><time>2026-04-24T10:29:44.492Z</time></trkpt><trkpt lat="39.8224717" lon="9.2222917"><ele>636.6666666666666</ele><time>2026-04-24T10:29:45.491Z</time></trkpt><trkpt lat="39.8224667" lon="9.222185"><ele>636.0</ele><time>2026-04-24T10:29:46.491Z</time></trkpt><trkpt lat="39.822445" lon="9.2220883"><ele>635.3333333333334</ele><time>2026-04-24T10:29:47.491Z</time></trkpt><trkpt lat="39.8224133" lon="9.22199"><ele>634.6666666666667</ele><time>2026-04-24T10:29:48.491Z</time></trkpt><trkpt lat="39.822365" lon="9.2219033"><ele>634.0</ele><time>2026-04-24T10:29:49.491Z</time></trkpt><trkpt lat="39.8222467" lon="9.2217283"><ele>634.0</ele><time>2026-04-24T10:29:51.491Z</time></trkpt><trkpt lat="39.822195" lon="9.22164"><ele>634.0</ele><time>2026-04-24T10:29:52.491Z</time></trkpt><trkpt lat="39.82216" lon="9.2215417"><ele>634.0</ele><time>2026-04-24T10:29:53.491Z</time></trkpt><trkpt lat="39.8221333" lon="9.22143"><ele>634.0</ele><time>2026-04-24T10:29:54.492Z</time></trkpt><trkpt lat="39.8221" lon="9.2213217"><ele>634.0</ele><time>2026-04-24T10:29:55.491Z</time></trkpt><trkpt lat="39.82206" lon="9.2212167"><ele>634.0</ele><time>2026-04-24T10:29:56.492Z</time></trkpt><trkpt lat="39.822005" lon="9.2211217"><ele>632.6666666666667</ele><time>2026-04-24T10:29:57.492Z</time></trkpt><trkpt lat="39.82194" lon="9.2210383"><ele>631.3333333333334</ele><time>2026-04-24T10:29:58.491Z</time></trkpt><trkpt lat="39.8218683" lon="9.220955"><ele>630.0</ele><time>2026-04-24T10:29:59.492Z</time></trkpt><trkpt lat="39.8217917" lon="9.2208767"><ele>628.6666666666666</ele><time>2026-04-24T10:30:00.492Z</time></trkpt><trkpt lat="39.821725" lon="9.2208"><ele>627.3333333333333</ele><time>2026-04-24T10:30:01.492Z</time></trkpt><trkpt lat="39.8216683" lon="9.220735"><ele>626.0</ele><time>2026-04-24T10:30:02.491Z</time></trkpt><trkpt lat="39.821615" lon="9.2206817"><ele>631.6</ele><time>2026-04-24T10:30:03.492Z</time></trkpt><trkpt lat="39.8215183" lon="9.22066"><ele>637.2</ele><time>2026-04-24T10:30:05.492Z</time></trkpt><trkpt lat="39.82146" lon="9.2207533"><ele>642.8000000000001</ele><time>2026-04-24T10:30:07.491Z</time></trkpt><trkpt lat="39.821515" lon="9.22089"><ele>648.4000000000001</ele><time>2026-04-24T10:30:09.492Z</time></trkpt><trkpt lat="39.8215633" lon="9.2209683"><ele>654.0</ele><time>2026-04-24T10:30:10.491Z</time></trkpt><trkpt lat="39.8216383" lon="9.22114"><ele>654.0</ele><time>2026-04-24T10:30:12.491Z</time></trkpt><trkpt lat="39.8216533" lon="9.2212433"><ele>654.0</ele><time>2026-04-24T10:30:13.492Z</time></trkpt><trkpt lat="39.82166" lon="9.2213533"><ele>654.0</ele><time>2026-04-24T10:30:14.491Z</time></trkpt><trkpt lat="39.8216517" lon="9.2214667"><ele>654.0</ele><time>2026-04-24T10:30:15.492Z</time></trkpt><trkpt lat="39.8216433" lon="9.22158"><ele>654.0</ele><time>2026-04-24T10:30:16.491Z</time></trkpt><trkpt lat="39.821635" lon="9.2217017"><ele>654.0</ele><time>2026-04-24T10:30:17.492Z</time></trkpt><trkpt lat="39.821615" lon="9.221825"><ele>656.2</ele><time>2026-04-24T10:30:18.491Z</time></trkpt><trkpt lat="39.8216017" lon="9.22195"><ele>658.4000000000001</ele><time>2026-04-24T10:30:19.491Z</time></trkpt><trkpt lat="39.8215917" lon="9.2220867"><ele>660.6</ele><time>2026-04-24T10:30:20.492Z</time></trkpt><trkpt lat="39.82159" lon="9.222215"><ele>662.8</ele><time>2026-04-24T10:30:21.491Z</time></trkpt><trkpt lat="39.8215917" lon="9.2223333"><ele>665.0</ele><time>2026-04-24T10:30:22.491Z</time></trkpt><trkpt lat="39.8215883" lon="9.2224383"><ele>666.0</ele><time>2026-04-24T10:30:23.492Z</time></trkpt><trkpt lat="39.8215667" lon="9.22253"><ele>667.0</ele><time>2026-04-24T10:30:24.492Z</time></trkpt><trkpt lat="39.8215383" lon="9.2226183"><ele>668.0</ele><time>2026-04-24T10:30:25.492Z</time></trkpt><trkpt lat="39.8214933" lon="9.2227"><ele>669.0</ele><time>2026-04-24T10:30:26.492Z</time></trkpt><trkpt lat="39.8214433" lon="9.2227717"><ele>670.0</ele><time>2026-04-24T10:30:27.492Z</time></trkpt><trkpt lat="39.8213767" lon="9.22284"><ele>671.0</ele><time>2026-04-24T10:30:28.491Z</time></trkpt><trkpt lat="39.8213067" lon="9.2229183"><ele>671.0</ele><time>2026-04-24T10:30:29.491Z</time></trkpt><trkpt lat="39.8212417" lon="9.2230067"><ele>671.0</ele><time>2026-04-24T10:30:30.491Z</time></trkpt><trkpt lat="39.821175" lon="9.2231"><ele>671.0</ele><time>2026-04-24T10:30:31.491Z</time></trkpt><trkpt lat="39.821045" lon="9.223315"><ele>671.0</ele><time>2026-04-24T10:30:33.491Z</time></trkpt><trkpt lat="39.8209867" lon="9.2234267"><ele>674.3333333333333</ele><time>2026-04-24T10:30:34.492Z</time></trkpt><trkpt lat="39.82093" lon="9.2235117"><ele>677.6666666666666</ele><time>2026-04-24T10:30:35.491Z</time></trkpt><trkpt lat="39.8208867" lon="9.2235733"><ele>681.0</ele><time>2026-04-24T10:30:36.491Z</time></trkpt><trkpt lat="39.8208067" lon="9.223595"><ele>684.3333333333334</ele><time>2026-04-24T10:30:38.492Z</time></trkpt><trkpt lat="39.8207767" lon="9.223505"><ele>687.6666666666667</ele><time>2026-04-24T10:30:40.491Z</time></trkpt><trkpt lat="39.8208367" lon="9.223355"><ele>691.0</ele><time>2026-04-24T10:30:42.492Z</time></trkpt><trkpt lat="39.8208683" lon="9.2232617"><ele>691.0</ele><time>2026-04-24T10:30:43.492Z</time></trkpt><trkpt lat="39.8209" lon="9.2231633"><ele>691.0</ele><time>2026-04-24T10:30:44.491Z</time></trkpt><trkpt lat="39.8209233" lon="9.2230583"><ele>691.0</ele><time>2026-04-24T10:30:45.491Z</time></trkpt><trkpt lat="39.82093" lon="9.22296"><ele>691.0</ele><time>2026-04-24T10:30:46.492Z</time></trkpt><trkpt lat="39.820885" lon="9.2228333"><ele>691.0</ele><time>2026-04-24T10:30:48.491Z</time></trkpt><trkpt lat="39.8207617" lon="9.2228367"><ele>690.25</ele><time>2026-04-24T10:30:50.491Z</time></trkpt><trkpt lat="39.8206783" lon="9.2228717"><ele>689.5</ele><time>2026-04-24T10:30:51.492Z</time></trkpt><trkpt lat="39.8205967" lon="9.2229117"><ele>688.75</ele><time>2026-04-24T10:30:52.491Z</time></trkpt><trkpt lat="39.82042" lon="9.222995"><ele>688.0</ele><time>2026-04-24T10:30:54.491Z</time></trkpt><trkpt lat="39.8203317" lon="9.22304"><ele>688.0</ele><time>2026-04-24T10:30:55.492Z</time></trkpt><trkpt lat="39.82025" lon="9.2230817"><ele>688.0</ele><time>2026-04-24T10:30:56.491Z</time></trkpt><trkpt lat="39.820165" lon="9.223135"><ele>688.0</ele><time>2026-04-24T10:30:57.491Z</time></trkpt><trkpt lat="39.8200817" lon="9.2232"><ele>688.0</ele><time>2026-04-24T10:30:58.492Z</time></trkpt><trkpt lat="39.8200017" lon="9.223275"><ele>688.0</ele><time>2026-04-24T10:30:59.492Z</time></trkpt><trkpt lat="39.8199233" lon="9.22336"><ele>691.2</ele><time>2026-04-24T10:31:00.491Z</time></trkpt><trkpt lat="39.819845" lon="9.2234383"><ele>694.4</ele><time>2026-04-24T10:31:01.491Z</time></trkpt><trkpt lat="39.81976" lon="9.22352"><ele>697.6</ele><time>2026-04-24T10:31:02.492Z</time></trkpt><trkpt lat="39.8196767" lon="9.2235983"><ele>700.8000000000001</ele><time>2026-04-24T10:31:03.491Z</time></trkpt><trkpt lat="39.8195933" lon="9.2236817"><ele>704.0</ele><time>2026-04-24T10:31:04.492Z</time></trkpt><trkpt lat="39.819505" lon="9.22377"><ele>704.0</ele><time>2026-04-24T10:31:05.491Z</time></trkpt><trkpt lat="39.8194333" lon="9.2238617"><ele>704.0</ele><time>2026-04-24T10:31:06.492Z</time></trkpt><trkpt lat="39.8193583" lon="9.223965"><ele>704.0</ele><time>2026-04-24T10:31:07.492Z</time></trkpt><trkpt lat="39.81929" lon="9.2240767"><ele>704.0</ele><time>2026-04-24T10:31:08.492Z</time></trkpt><trkpt lat="39.81922" lon="9.22419"><ele>704.0</ele><time>2026-04-24T10:31:09.491Z</time></trkpt><trkpt lat="39.8191583" lon="9.2243133"><ele>706.25</ele><time>2026-04-24T10:31:10.491Z</time></trkpt><trkpt lat="39.819095" lon="9.22444"><ele>708.5</ele><time>2026-04-24T10:31:11.491Z</time></trkpt><trkpt lat="39.8190283" lon="9.2245667"><ele>710.75</ele><time>2026-04-24T10:31:12.491Z</time></trkpt><trkpt lat="39.8189667" lon="9.2246683"><ele>713.0</ele><time>2026-04-24T10:31:13.492Z</time></trkpt><trkpt lat="39.818845" lon="9.22486"><ele>714.0</ele><time>2026-04-24T10:31:15.492Z</time></trkpt><trkpt lat="39.8187717" lon="9.224955"><ele>715.0</ele><time>2026-04-24T10:31:16.491Z</time></trkpt><trkpt lat="39.8186917" lon="9.2250567"><ele>716.0</ele><time>2026-04-24T10:31:17.491Z</time></trkpt><trkpt lat="39.8186067" lon="9.225165"><ele>717.0</ele><time>2026-04-24T10:31:18.491Z</time></trkpt><trkpt lat="39.8185283" lon="9.225265"><ele>718.0</ele><time>2026-04-24T10:31:19.491Z</time></trkpt><trkpt lat="39.8184533" lon="9.2253617"><ele>718.2</ele><time>2026-04-24T10:31:20.492Z</time></trkpt><trkpt lat="39.8183767" lon="9.2254567"><ele>718.4</ele><time>2026-04-24T10:31:21.492Z</time></trkpt><trkpt lat="39.8183017" lon="9.2255567"><ele>718.6</ele><time>2026-04-24T10:31:22.492Z</time></trkpt><trkpt lat="39.8182417" lon="9.2256733"><ele>718.8000000000001</ele><time>2026-04-24T10:31:23.491Z</time></trkpt><trkpt lat="39.8181817" lon="9.2257983"><ele>719.0</ele><time>2026-04-24T10:31:24.491Z</time></trkpt><trkpt lat="39.8181283" lon="9.2259233"><ele>721.75</ele><time>2026-04-24T10:31:25.492Z</time></trkpt><trkpt lat="39.818075" lon="9.2260517"><ele>724.5</ele><time>2026-04-24T10:31:26.491Z</time></trkpt><trkpt lat="39.8180233" lon="9.2261833"><ele>727.25</ele><time>2026-04-24T10:31:27.492Z</time></trkpt><trkpt lat="39.8179667" lon="9.2263167"><ele>730.0</ele><time>2026-04-24T10:31:28.491Z</time></trkpt><trkpt lat="39.8179167" lon="9.2264567"><ele>730.75</ele><time>2026-04-24T10:31:29.491Z</time></trkpt><trkpt lat="39.81786" lon="9.2266017"><ele>731.5</ele><time>2026-04-24T10:31:30.492Z</time></trkpt><trkpt lat="39.8178" lon="9.2267533"><ele>732.25</ele><time>2026-04-24T10:31:31.491Z</time></trkpt><trkpt lat="39.817735" lon="9.2269017"><ele>733.0</ele><time>2026-04-24T10:31:32.492Z</time></trkpt><trkpt lat="39.81766" lon="9.2270383"><ele>734.0</ele><time>2026-04-24T10:31:33.491Z</time></trkpt><trkpt lat="39.8175833" lon="9.2271767"><ele>735.0</ele><time>2026-04-24T10:31:34.492Z</time></trkpt><trkpt lat="39.817415" lon="9.2274317"><ele>736.0</ele><time>2026-04-24T10:31:36.492Z</time></trkpt><trkpt lat="39.817325" lon="9.2275483"><ele>737.5</ele><time>2026-04-24T10:31:37.492Z</time></trkpt><trkpt lat="39.8172317" lon="9.22767"><ele>739.0</ele><time>2026-04-24T10:31:38.492Z</time></trkpt><trkpt lat="39.8171333" lon="9.227795"><ele>740.5</ele><time>2026-04-24T10:31:39.492Z</time></trkpt><trkpt lat="39.8170333" lon="9.2279233"><ele>742.0</ele><time>2026-04-24T10:31:40.491Z</time></trkpt><trkpt lat="39.8169433" lon="9.2280467"><ele>743.6</ele><time>2026-04-24T10:31:41.492Z</time></trkpt><trkpt lat="39.8168633" lon="9.2281583"><ele>745.2</ele><time>2026-04-24T10:31:42.492Z</time></trkpt><trkpt lat="39.81679" lon="9.2282717"><ele>746.8</ele><time>2026-04-24T10:31:43.491Z</time></trkpt><trkpt lat="39.8167267" lon="9.2283817"><ele>748.4</ele><time>2026-04-24T10:31:44.491Z</time></trkpt><trkpt lat="39.8166667" lon="9.22849"><ele>750.0</ele><time>2026-04-24T10:31:45.491Z</time></trkpt><trkpt lat="39.8166183" lon="9.2285933"><ele>750.1666666666666</ele><time>2026-04-24T10:31:46.491Z</time></trkpt><trkpt lat="39.8165767" lon="9.2287017"><ele>750.3333333333334</ele><time>2026-04-24T10:31:47.491Z</time></trkpt><trkpt lat="39.8165483" lon="9.2287983"><ele>750.5</ele><time>2026-04-24T10:31:48.491Z</time></trkpt><trkpt lat="39.81652" lon="9.228885"><ele>750.6666666666667</ele><time>2026-04-24T10:31:49.491Z</time></trkpt><trkpt lat="39.8165017" lon="9.228975"><ele>750.8333333333334</ele><time>2026-04-24T10:31:50.491Z</time></trkpt><trkpt lat="39.8164833" lon="9.2290667"><ele>751.0</ele><time>2026-04-24T10:31:51.491Z</time></trkpt><trkpt lat="39.8164683" lon="9.2291633"><ele>752.5</ele><time>2026-04-24T10:31:52.492Z</time></trkpt><trkpt lat="39.81645" lon="9.2292617"><ele>754.0</ele><time>2026-04-24T10:31:53.491Z</time></trkpt><trkpt lat="39.816435" lon="9.2293717"><ele>755.5</ele><time>2026-04-24T10:31:54.491Z</time></trkpt><trkpt lat="39.81643" lon="9.2294983"><ele>757.0</ele><time>2026-04-24T10:31:55.491Z</time></trkpt><trkpt lat="39.8164267" lon="9.2297767"><ele>757.25</ele><time>2026-04-24T10:31:57.491Z</time></trkpt><trkpt lat="39.8164283" lon="9.2299317"><ele>757.5</ele><time>2026-04-24T10:31:58.492Z</time></trkpt><trkpt lat="39.816425" lon="9.23008"><ele>757.75</ele><time>2026-04-24T10:31:59.492Z</time></trkpt><trkpt lat="39.8164117" lon="9.2302167"><ele>758.0</ele><time>2026-04-24T10:32:00.491Z</time></trkpt><trkpt lat="39.8163833" lon="9.2303567"><ele>758.0</ele><time>2026-04-24T10:32:01.491Z</time></trkpt><trkpt lat="39.8163417" lon="9.2304917"><ele>758.0</ele><time>2026-04-24T10:32:02.491Z</time></trkpt><trkpt lat="39.8162917" lon="9.2306383"><ele>758.0</ele><time>2026-04-24T10:32:03.492Z</time></trkpt><trkpt lat="39.8162483" lon="9.2307883"><ele>758.0</ele><time>2026-04-24T10:32:04.491Z</time></trkpt><trkpt lat="39.81621" lon="9.23095"><ele>758.0</ele><time>2026-04-24T10:32:05.491Z</time></trkpt><trkpt lat="39.8161767" lon="9.2311067"><ele>758.0</ele><time>2026-04-24T10:32:06.492Z</time></trkpt><trkpt lat="39.8161467" lon="9.2312483"><ele>758.0</ele><time>2026-04-24T10:32:07.492Z</time></trkpt><trkpt lat="39.8161067" lon="9.2313917"><ele>758.0</ele><time>2026-04-24T10:32:08.491Z</time></trkpt><trkpt lat="39.8160683" lon="9.23153"><ele>757.75</ele><time>2026-04-24T10:32:09.492Z</time></trkpt><trkpt lat="39.8160367" lon="9.2316733"><ele>757.5</ele><time>2026-04-24T10:32:10.491Z</time></trkpt><trkpt lat="39.8160133" lon="9.2318283"><ele>757.25</ele><time>2026-04-24T10:32:11.491Z</time></trkpt><trkpt lat="39.8160033" lon="9.2319733"><ele>757.0</ele><time>2026-04-24T10:32:12.492Z</time></trkpt><trkpt lat="39.8160067" lon="9.2321217"><ele>757.0</ele><time>2026-04-24T10:32:13.492Z</time></trkpt><trkpt lat="39.81602" lon="9.2322617"><ele>757.0</ele><time>2026-04-24T10:32:14.492Z</time></trkpt><trkpt lat="39.81604" lon="9.2323967"><ele>757.0</ele><time>2026-04-24T10:32:15.492Z</time></trkpt><trkpt lat="39.8160617" lon="9.2325233"><ele>757.0</ele><time>2026-04-24T10:32:16.491Z</time></trkpt><trkpt lat="39.816045" lon="9.2327667"><ele>757.0</ele><time>2026-04-24T10:32:18.491Z</time></trkpt><trkpt lat="39.816015" lon="9.2328933"><ele>757.0</ele><time>2026-04-24T10:32:19.491Z</time></trkpt><trkpt lat="39.8159783" lon="9.2330383"><ele>757.0</ele><time>2026-04-24T10:32:20.491Z</time></trkpt><trkpt lat="39.815945" lon="9.233195"><ele>757.0</ele><time>2026-04-24T10:32:21.491Z</time></trkpt><trkpt lat="39.8159117" lon="9.2333583"><ele>755.5</ele><time>2026-04-24T10:32:22.492Z</time></trkpt><trkpt lat="39.8158917" lon="9.2335217"><ele>754.0</ele><time>2026-04-24T10:32:23.492Z</time></trkpt><trkpt lat="39.815875" lon="9.2336967"><ele>752.5</ele><time>2026-04-24T10:32:24.491Z</time></trkpt><trkpt lat="39.81586" lon="9.2338833"><ele>751.0</ele><time>2026-04-24T10:32:25.492Z</time></trkpt><trkpt lat="39.81585" lon="9.2340683"><ele>751.0</ele><time>2026-04-24T10:32:26.492Z</time></trkpt><trkpt lat="39.8158417" lon="9.2342417"><ele>751.0</ele><time>2026-04-24T10:32:27.492Z</time></trkpt><trkpt lat="39.815835" lon="9.2344033"><ele>751.0</ele><time>2026-04-24T10:32:28.491Z</time></trkpt><trkpt lat="39.81582" lon="9.234555"><ele>751.0</ele><time>2026-04-24T10:32:29.492Z</time></trkpt><trkpt lat="39.8158033" lon="9.2346933"><ele>751.0</ele><time>2026-04-24T10:32:30.492Z</time></trkpt><trkpt lat="39.8157783" lon="9.2348333"><ele>751.0</ele><time>2026-04-24T10:32:31.491Z</time></trkpt><trkpt lat="39.8157717" lon="9.234975"><ele>751.0</ele><time>2026-04-24T10:32:32.491Z</time></trkpt><trkpt lat="39.81578" lon="9.23513"><ele>751.0</ele><time>2026-04-24T10:32:33.492Z</time></trkpt><trkpt lat="39.8158033" lon="9.2352933"><ele>751.0</ele><time>2026-04-24T10:32:34.492Z</time></trkpt><trkpt lat="39.8158067" lon="9.235465"><ele>751.0</ele><time>2026-04-24T10:32:35.492Z</time></trkpt><trkpt lat="39.8158017" lon="9.2356517"><ele>751.0</ele><time>2026-04-24T10:32:36.491Z</time></trkpt><trkpt lat="39.8157917" lon="9.23585"><ele>751.0</ele><time>2026-04-24T10:32:37.492Z</time></trkpt><trkpt lat="39.8157683" lon="9.2362617"><ele>753.3333333333334</ele><time>2026-04-24T10:32:39.492Z</time></trkpt><trkpt lat="39.8157533" lon="9.236475"><ele>755.6666666666666</ele><time>2026-04-24T10:32:40.492Z</time></trkpt><trkpt lat="39.8157417" lon="9.23668"><ele>758.0</ele><time>2026-04-24T10:32:41.491Z</time></trkpt><trkpt lat="39.8157283" lon="9.2368717"><ele>758.0</ele><time>2026-04-24T10:32:42.491Z</time></trkpt><trkpt lat="39.81572" lon="9.2370367"><ele>758.0</ele><time>2026-04-24T10:32:43.491Z</time></trkpt><trkpt lat="39.8157183" lon="9.237195"><ele>758.0</ele><time>2026-04-24T10:32:44.492Z</time></trkpt><trkpt lat="39.81573" lon="9.23736"><ele>758.0</ele><time>2026-04-24T10:32:45.491Z</time></trkpt><trkpt lat="39.815755" lon="9.2375233"><ele>758.75</ele><time>2026-04-24T10:32:46.491Z</time></trkpt><trkpt lat="39.8157917" lon="9.237675"><ele>759.5</ele><time>2026-04-24T10:32:47.492Z</time></trkpt><trkpt lat="39.8158483" lon="9.23782"><ele>760.25</ele><time>2026-04-24T10:32:48.491Z</time></trkpt><trkpt lat="39.815915" lon="9.23796"><ele>761.0</ele><time>2026-04-24T10:32:49.491Z</time></trkpt><trkpt lat="39.815995" lon="9.238105"><ele>762.0</ele><time>2026-04-24T10:32:50.491Z</time></trkpt><trkpt lat="39.8160717" lon="9.2382667"><ele>763.0</ele><time>2026-04-24T10:32:51.491Z</time></trkpt><trkpt lat="39.816145" lon="9.2384333"><ele>764.0</ele><time>2026-04-24T10:32:52.491Z</time></trkpt><trkpt lat="39.8162183" lon="9.2386133"><ele>764.0</ele><time>2026-04-24T10:32:53.492Z</time></trkpt><trkpt lat="39.8162867" lon="9.2387917"><ele>764.0</ele><time>2026-04-24T10:32:54.491Z</time></trkpt><trkpt lat="39.8163483" lon="9.238955"><ele>764.0</ele><time>2026-04-24T10:32:55.492Z</time></trkpt><trkpt lat="39.8164033" lon="9.2391133"><ele>764.0</ele><time>2026-04-24T10:32:56.491Z</time></trkpt><trkpt lat="39.81645" lon="9.2392667"><ele>762.0</ele><time>2026-04-24T10:32:57.491Z</time></trkpt><trkpt lat="39.8164983" lon="9.2394267"><ele>760.0</ele><time>2026-04-24T10:32:58.492Z</time></trkpt><trkpt lat="39.8165767" lon="9.2397383"><ele>758.0</ele><time>2026-04-24T10:33:00.491Z</time></trkpt><trkpt lat="39.8166083" lon="9.2398933"><ele>757.0</ele><time>2026-04-24T10:33:01.491Z</time></trkpt><trkpt lat="39.816645" lon="9.2400517"><ele>756.0</ele><time>2026-04-24T10:33:02.492Z</time></trkpt><trkpt lat="39.8166767" lon="9.2402117"><ele>755.0</ele><time>2026-04-24T10:33:03.491Z</time></trkpt><trkpt lat="39.8167117" lon="9.2403633"><ele>754.0</ele><time>2026-04-24T10:33:04.492Z</time></trkpt><trkpt lat="39.8167567" lon="9.2405"><ele>753.75</ele><time>2026-04-24T10:33:05.492Z</time></trkpt><trkpt lat="39.8168067" lon="9.24064"><ele>753.5</ele><time>2026-04-24T10:33:06.492Z</time></trkpt><trkpt lat="39.8168633" lon="9.240785"><ele>753.25</ele><time>2026-04-24T10:33:07.491Z</time></trkpt><trkpt lat="39.816915" lon="9.24093"><ele>753.0</ele><time>2026-04-24T10:33:08.491Z</time></trkpt><trkpt lat="39.816955" lon="9.24108"><ele>753.0</ele><time>2026-04-24T10:33:09.492Z</time></trkpt><trkpt lat="39.8169917" lon="9.2412333"><ele>753.0</ele><time>2026-04-24T10:33:10.492Z</time></trkpt><trkpt lat="39.8170183" lon="9.241395"><ele>753.0</ele><time>2026-04-24T10:33:11.491Z</time></trkpt><trkpt lat="39.8170383" lon="9.24155"><ele>753.0</ele><time>2026-04-24T10:33:12.491Z</time></trkpt><trkpt lat="39.8170517" lon="9.2416967"><ele>752.5999999999999</ele><time>2026-04-24T10:33:13.491Z</time></trkpt><trkpt lat="39.8170617" lon="9.2418433"><ele>752.1999999999999</ele><time>2026-04-24T10:33:14.492Z</time></trkpt><trkpt lat="39.8170767" lon="9.2419733"><ele>751.8</ele><time>2026-04-24T10:33:15.491Z</time></trkpt><trkpt lat="39.81709" lon="9.2421017"><ele>751.4</ele><time>2026-04-24T10:33:16.491Z</time></trkpt><trkpt lat="39.8170967" lon="9.2422283"><ele>751.0</ele><time>2026-04-24T10:33:17.492Z</time></trkpt><trkpt lat="39.8171067" lon="9.2423617"><ele>750.1999999999999</ele><time>2026-04-24T10:33:18.491Z</time></trkpt><trkpt lat="39.8171083" lon="9.2424767"><ele>749.4</ele><time>2026-04-24T10:33:19.491Z</time></trkpt><trkpt lat="39.8171033" lon="9.2426883"><ele>748.6</ele><time>2026-04-24T10:33:21.492Z</time></trkpt><trkpt lat="39.8170967" lon="9.24279"><ele>747.8</ele><time>2026-04-24T10:33:22.492Z</time></trkpt><trkpt lat="39.8170933" lon="9.2429083"><ele>747.0</ele><time>2026-04-24T10:33:23.492Z</time></trkpt><trkpt lat="39.81709" lon="9.2430417"><ele>746.6</ele><time>2026-04-24T10:33:24.492Z</time></trkpt><trkpt lat="39.8170667" lon="9.2431783"><ele>746.2</ele><time>2026-04-24T10:33:25.491Z</time></trkpt><trkpt lat="39.81704" lon="9.24331"><ele>745.8</ele><time>2026-04-24T10:33:26.491Z</time></trkpt><trkpt lat="39.8170133" lon="9.24345"><ele>745.4</ele><time>2026-04-24T10:33:27.492Z</time></trkpt><trkpt lat="39.8169817" lon="9.2435917"><ele>745.0</ele><time>2026-04-24T10:33:28.491Z</time></trkpt><trkpt lat="39.8169433" lon="9.2437383"><ele>745.0</ele><time>2026-04-24T10:33:29.491Z</time></trkpt><trkpt lat="39.8168983" lon="9.2438733"><ele>745.0</ele><time>2026-04-24T10:33:30.491Z</time></trkpt><trkpt lat="39.816855" lon="9.24401"><ele>745.0</ele><time>2026-04-24T10:33:31.492Z</time></trkpt><trkpt lat="39.81681" lon="9.2441533"><ele>745.0</ele><time>2026-04-24T10:33:32.492Z</time></trkpt><trkpt lat="39.8167567" lon="9.2442917"><ele>745.0</ele><time>2026-04-24T10:33:33.491Z</time></trkpt><trkpt lat="39.8167083" lon="9.2444317"><ele>745.0</ele><time>2026-04-24T10:33:34.492Z</time></trkpt><trkpt lat="39.816655" lon="9.2445817"><ele>745.0</ele><time>2026-04-24T10:33:35.492Z</time></trkpt><trkpt lat="39.816605" lon="9.2447217"><ele>745.0</ele><time>2026-04-24T10:33:36.491Z</time></trkpt><trkpt lat="39.8165517" lon="9.2448517"><ele>745.0</ele><time>2026-04-24T10:33:37.491Z</time></trkpt><trkpt lat="39.8164983" lon="9.2449667"><ele>745.0</ele><time>2026-04-24T10:33:38.492Z</time></trkpt><trkpt lat="39.8164467" lon="9.24508"><ele>745.0</ele><time>2026-04-24T10:33:39.492Z</time></trkpt><trkpt lat="39.8163733" lon="9.2451733"><ele>745.0</ele><time>2026-04-24T10:33:40.492Z</time></trkpt><trkpt lat="39.816195" lon="9.2453617"><ele>745.0</ele><time>2026-04-24T10:33:42.492Z</time></trkpt><trkpt lat="39.8161" lon="9.2454567"><ele>745.0</ele><time>2026-04-24T10:33:43.492Z</time></trkpt><trkpt lat="39.816005" lon="9.24556"><ele>745.0</ele><time>2026-04-24T10:33:44.492Z</time></trkpt><trkpt lat="39.8159083" lon="9.245665"><ele>745.0</ele><time>2026-04-24T10:33:45.492Z</time></trkpt><trkpt lat="39.8158117" lon="9.245765"><ele>746.5</ele><time>2026-04-24T10:33:46.492Z</time></trkpt><trkpt lat="39.8157133" lon="9.24586"><ele>748.0</ele><time>2026-04-24T10:33:47.491Z</time></trkpt><trkpt lat="39.81562" lon="9.2459533"><ele>749.5</ele><time>2026-04-24T10:33:48.491Z</time></trkpt><trkpt lat="39.8155233" lon="9.2460517"><ele>751.0</ele><time>2026-04-24T10:33:49.492Z</time></trkpt><trkpt lat="39.815425" lon="9.246155"><ele>751.0</ele><time>2026-04-24T10:33:50.492Z</time></trkpt><trkpt lat="39.815335" lon="9.246265"><ele>751.0</ele><time>2026-04-24T10:33:51.492Z</time></trkpt><trkpt lat="39.8152517" lon="9.246385"><ele>751.0</ele><time>2026-04-24T10:33:52.491Z</time></trkpt><trkpt lat="39.8151783" lon="9.2465133"><ele>751.0</ele><time>2026-04-24T10:33:53.492Z</time></trkpt><trkpt lat="39.8151033" lon="9.24665"><ele>753.25</ele><time>2026-04-24T10:33:54.491Z</time></trkpt><trkpt lat="39.8150283" lon="9.2467967"><ele>755.5</ele><time>2026-04-24T10:33:55.492Z</time></trkpt><trkpt lat="39.8149533" lon="9.2469417"><ele>757.75</ele><time>2026-04-24T10:33:56.492Z</time></trkpt><trkpt lat="39.8148783" lon="9.2470967"><ele>760.0</ele><time>2026-04-24T10:33:57.491Z</time></trkpt><trkpt lat="39.814795" lon="9.24726"><ele>760.75</ele><time>2026-04-24T10:33:58.492Z</time></trkpt><trkpt lat="39.8147117" lon="9.2474233"><ele>761.5</ele><time>2026-04-24T10:33:59.492Z</time></trkpt><trkpt lat="39.8146283" lon="9.2475867"><ele>762.25</ele><time>2026-04-24T10:34:00.491Z</time></trkpt><trkpt lat="39.8145433" lon="9.2477417"><ele>763.0</ele><time>2026-04-24T10:34:01.491Z</time></trkpt><trkpt lat="39.8144" lon="9.2479983"><ele>763.0</ele><time>2026-04-24T10:34:03.491Z</time></trkpt><trkpt lat="39.8143383" lon="9.2481067"><ele>763.0</ele><time>2026-04-24T10:34:04.492Z</time></trkpt><trkpt lat="39.8142883" lon="9.24821"><ele>763.0</ele><time>2026-04-24T10:34:05.491Z</time></trkpt><trkpt lat="39.8142483" lon="9.24832"><ele>763.0</ele><time>2026-04-24T10:34:06.492Z</time></trkpt><trkpt lat="39.81422" lon="9.2484383"><ele>763.0</ele><time>2026-04-24T10:34:07.491Z</time></trkpt><trkpt lat="39.814205" lon="9.2485617"><ele>765.2</ele><time>2026-04-24T10:34:08.491Z</time></trkpt><trkpt lat="39.8142" lon="9.2486833"><ele>767.4</ele><time>2026-04-24T10:34:09.491Z</time></trkpt><trkpt lat="39.8142033" lon="9.2488133"><ele>769.6</ele><time>2026-04-24T10:34:10.492Z</time></trkpt><trkpt lat="39.8142067" lon="9.2489417"><ele>771.8000000000001</ele><time>2026-04-24T10:34:11.492Z</time></trkpt><trkpt lat="39.8142133" lon="9.2490783"><ele>774.0</ele><time>2026-04-24T10:34:12.492Z</time></trkpt><trkpt lat="39.814225" lon="9.249215"><ele>775.6</ele><time>2026-04-24T10:34:13.491Z</time></trkpt><trkpt lat="39.8142417" lon="9.249355"><ele>777.2</ele><time>2026-04-24T10:34:14.492Z</time></trkpt><trkpt lat="39.8142567" lon="9.249485"><ele>778.8000000000001</ele><time>2026-04-24T10:34:15.492Z</time></trkpt><trkpt lat="39.8142683" lon="9.249615"><ele>780.4000000000001</ele><time>2026-04-24T10:34:16.492Z</time></trkpt><trkpt lat="39.814285" lon="9.2497433"><ele>782.0</ele><time>2026-04-24T10:34:17.492Z</time></trkpt><trkpt lat="39.8143117" lon="9.249885"><ele>781.75</ele><time>2026-04-24T10:34:18.492Z</time></trkpt><trkpt lat="39.814345" lon="9.2500383"><ele>781.5</ele><time>2026-04-24T10:34:19.491Z</time></trkpt><trkpt lat="39.81438" lon="9.2501867"><ele>781.25</ele><time>2026-04-24T10:34:20.491Z</time></trkpt><trkpt lat="39.8144083" lon="9.2503283"><ele>781.0</ele><time>2026-04-24T10:34:21.491Z</time></trkpt><trkpt lat="39.8144367" lon="9.2504567"><ele>780.75</ele><time>2026-04-24T10:34:22.491Z</time></trkpt><trkpt lat="39.8145017" lon="9.2507217"><ele>780.5</ele><time>2026-04-24T10:34:24.491Z</time></trkpt><trkpt lat="39.81453" lon="9.2508533"><ele>780.25</ele><time>2026-04-24T10:34:25.492Z</time></trkpt><trkpt lat="39.8145533" lon="9.250985"><ele>780.0</ele><time>2026-04-24T10:34:26.492Z</time></trkpt><trkpt lat="39.8145833" lon="9.251115"><ele>780.0</ele><time>2026-04-24T10:34:27.492Z</time></trkpt><trkpt lat="39.8146167" lon="9.2512483"><ele>780.0</ele><time>2026-04-24T10:34:28.491Z</time></trkpt><trkpt lat="39.8146633" lon="9.2513933"><ele>780.0</ele><time>2026-04-24T10:34:29.491Z</time></trkpt><trkpt lat="39.8147133" lon="9.2515483"><ele>780.0</ele><time>2026-04-24T10:34:30.492Z</time></trkpt><trkpt lat="39.814755" lon="9.2517083"><ele>780.25</ele><time>2026-04-24T10:34:31.492Z</time></trkpt><trkpt lat="39.8147983" lon="9.2518817"><ele>780.5</ele><time>2026-04-24T10:34:32.492Z</time></trkpt><trkpt lat="39.81485" lon="9.2520683"><ele>780.75</ele><time>2026-04-24T10:34:33.491Z</time></trkpt><trkpt lat="39.8149067" lon="9.2522483"><ele>781.0</ele><time>2026-04-24T10:34:34.491Z</time></trkpt><trkpt lat="39.8149633" lon="9.25243"><ele>780.5</ele><time>2026-04-24T10:34:35.492Z</time></trkpt><trkpt lat="39.8150133" lon="9.25261"><ele>780.0</ele><time>2026-04-24T10:34:36.492Z</time></trkpt><trkpt lat="39.8150583" lon="9.2527783"><ele>779.5</ele><time>2026-04-24T10:34:37.492Z</time></trkpt><trkpt lat="39.8151033" lon="9.2529433"><ele>779.0</ele><time>2026-04-24T10:34:38.492Z</time></trkpt><trkpt lat="39.81516" lon="9.2531133"><ele>778.25</ele><time>2026-04-24T10:34:39.492Z</time></trkpt><trkpt lat="39.81521" lon="9.25328"><ele>777.5</ele><time>2026-04-24T10:34:40.491Z</time></trkpt><trkpt lat="39.8152567" lon="9.25343"><ele>776.75</ele><time>2026-04-24T10:34:41.491Z</time></trkpt><trkpt lat="39.8153" lon="9.25357"><ele>776.0</ele><time>2026-04-24T10:34:42.491Z</time></trkpt><trkpt lat="39.8153383" lon="9.2537017"><ele>776.0</ele><time>2026-04-24T10:34:43.491Z</time></trkpt><trkpt lat="39.81542" lon="9.253945"><ele>776.0</ele><time>2026-04-24T10:34:45.491Z</time></trkpt><trkpt lat="39.815455" lon="9.254055"><ele>776.0</ele><time>2026-04-24T10:34:46.491Z</time></trkpt><trkpt lat="39.8154867" lon="9.2541633"><ele>776.0</ele><time>2026-04-24T10:34:47.492Z</time></trkpt><trkpt lat="39.8155167" lon="9.254265"><ele>775.8333333333334</ele><time>2026-04-24T10:34:48.492Z</time></trkpt><trkpt lat="39.8155467" lon="9.2543633"><ele>775.6666666666667</ele><time>2026-04-24T10:34:49.491Z</time></trkpt><trkpt lat="39.81558" lon="9.2544683"><ele>775.5</ele><time>2026-04-24T10:34:50.491Z</time></trkpt><trkpt lat="39.815615" lon="9.2545817"><ele>775.3333333333333</ele><time>2026-04-24T10:34:51.492Z</time></trkpt><trkpt lat="39.8156483" lon="9.2547017"><ele>775.1666666666666</ele><time>2026-04-24T10:34:52.492Z</time></trkpt><trkpt lat="39.8156817" lon="9.2548083"><ele>775.0</ele><time>2026-04-24T10:34:53.492Z</time></trkpt><trkpt lat="39.8157117" lon="9.25491"><ele>774.75</ele><time>2026-04-24T10:34:54.491Z</time></trkpt><trkpt lat="39.8157367" lon="9.2549967"><ele>774.5</ele><time>2026-04-24T10:34:55.491Z</time></trkpt><trkpt lat="39.8157733" lon="9.255145"><ele>774.25</ele><time>2026-04-24T10:34:57.492Z</time></trkpt><trkpt lat="39.8158183" lon="9.255265"><ele>774.0</ele><time>2026-04-24T10:36:06.492Z</time></trkpt><trkpt lat="39.815885" lon="9.255485"><ele>774.0</ele><time>2026-04-24T10:36:09.492Z</time></trkpt><trkpt lat="39.8159133" lon="9.2555767"><ele>774.0</ele><time>2026-04-24T10:36:10.491Z</time></trkpt><trkpt lat="39.81594" lon="9.2556717"><ele>774.0</ele><time>2026-04-24T10:36:11.491Z</time></trkpt><trkpt lat="39.8159683" lon="9.2557717"><ele>774.0</ele><time>2026-04-24T10:36:12.491Z</time></trkpt><trkpt lat="39.8159933" lon="9.2558683"><ele>774.0</ele><time>2026-04-24T10:36:13.491Z</time></trkpt><trkpt lat="39.8160217" lon="9.255965"><ele>774.0</ele><time>2026-04-24T10:36:14.492Z</time></trkpt><trkpt lat="39.8160533" lon="9.256065"><ele>774.1666666666666</ele><time>2026-04-24T10:36:15.491Z</time></trkpt><trkpt lat="39.8160867" lon="9.2561683"><ele>774.3333333333333</ele><time>2026-04-24T10:36:16.492Z</time></trkpt><trkpt lat="39.8161233" lon="9.2562717"><ele>774.5</ele><time>2026-04-24T10:36:17.492Z</time></trkpt><trkpt lat="39.81616" lon="9.2563783"><ele>774.6666666666666</ele><time>2026-04-24T10:36:18.492Z</time></trkpt><trkpt lat="39.8161933" lon="9.2564833"><ele>774.8333333333333</ele><time>2026-04-24T10:36:19.492Z</time></trkpt><trkpt lat="39.81622" lon="9.2566033"><ele>775.0</ele><time>2026-04-24T10:36:20.491Z</time></trkpt><trkpt lat="39.8162417" lon="9.2567533"><ele>774.5</ele><time>2026-04-24T10:36:21.492Z</time></trkpt><trkpt lat="39.81626" lon="9.2569083"><ele>774.0</ele><time>2026-04-24T10:36:22.492Z</time></trkpt><trkpt lat="39.8162567" lon="9.2570767"><ele>773.5</ele><time>2026-04-24T10:36:23.492Z</time></trkpt><trkpt lat="39.816245" lon="9.25725"><ele>773.0</ele><time>2026-04-24T10:36:24.491Z</time></trkpt><trkpt lat="39.8162233" lon="9.2574183"><ele>771.6666666666667</ele><time>2026-04-24T10:36:25.492Z</time></trkpt><trkpt lat="39.8161883" lon="9.2575867"><ele>770.3333333333333</ele><time>2026-04-24T10:36:26.492Z</time></trkpt><trkpt lat="39.8161517" lon="9.257755"><ele>769.0</ele><time>2026-04-24T10:36:27.491Z</time></trkpt><trkpt lat="39.81606" lon="9.25808"><ele>769.0</ele><time>2026-04-24T10:36:29.492Z</time></trkpt><trkpt lat="39.8159967" lon="9.2582417"><ele>769.0</ele><time>2026-04-24T10:36:30.491Z</time></trkpt><trkpt lat="39.8159233" lon="9.2584067"><ele>769.0</ele><time>2026-04-24T10:36:31.491Z</time></trkpt><trkpt lat="39.8158383" lon="9.2585783"><ele>769.0</ele><time>2026-04-24T10:36:32.492Z</time></trkpt><trkpt lat="39.815755" lon="9.258755"><ele>769.0</ele><time>2026-04-24T10:36:33.492Z</time></trkpt><trkpt lat="39.8156683" lon="9.2589317"><ele>769.0</ele><time>2026-04-24T10:36:34.492Z</time></trkpt><trkpt lat="39.8155817" lon="9.2591133"><ele>769.0</ele><time>2026-04-24T10:36:35.491Z</time></trkpt><trkpt lat="39.8154933" lon="9.2592917"><ele>769.0</ele><time>2026-04-24T10:36:36.491Z</time></trkpt><trkpt lat="39.815405" lon="9.25947"><ele>769.0</ele><time>2026-04-24T10:36:37.491Z</time></trkpt><trkpt lat="39.81532" lon="9.2596583"><ele>769.0</ele><time>2026-04-24T10:36:38.491Z</time></trkpt><trkpt lat="39.8152317" lon="9.2598367"><ele>768.3333333333333</ele><time>2026-04-24T10:36:39.492Z</time></trkpt><trkpt lat="39.8151433" lon="9.2600067"><ele>767.6666666666666</ele><time>2026-04-24T10:36:40.491Z</time></trkpt><trkpt lat="39.8150617" lon="9.260175"><ele>767.0</ele><time>2026-04-24T10:36:41.491Z</time></trkpt><trkpt lat="39.8149967" lon="9.260345"><ele>767.0</ele><time>2026-04-24T10:36:42.492Z</time></trkpt><trkpt lat="39.8149533" lon="9.2605117"><ele>767.0</ele><time>2026-04-24T10:36:43.491Z</time></trkpt><trkpt lat="39.8149267" lon="9.260685"><ele>767.0</ele><time>2026-04-24T10:36:44.492Z</time></trkpt><trkpt lat="39.8149017" lon="9.260875"><ele>767.0</ele><time>2026-04-24T10:36:45.492Z</time></trkpt><trkpt lat="39.8148783" lon="9.2610667"><ele>766.6666666666666</ele><time>2026-04-24T10:36:46.491Z</time></trkpt><trkpt lat="39.8148517" lon="9.2612667"><ele>766.3333333333334</ele><time>2026-04-24T10:36:47.491Z</time></trkpt><trkpt lat="39.8148217" lon="9.2614717"><ele>766.0</ele><time>2026-04-24T10:36:48.492Z</time></trkpt><trkpt lat="39.8147533" lon="9.2618967"><ele>765.3333333333334</ele><time>2026-04-24T10:36:50.491Z</time></trkpt><trkpt lat="39.8147183" lon="9.2621183"><ele>764.6666666666666</ele><time>2026-04-24T10:36:51.491Z</time></trkpt><trkpt lat="39.8146917" lon="9.2623383"><ele>764.0</ele><time>2026-04-24T10:36:52.491Z</time></trkpt><trkpt lat="39.8146583" lon="9.262555"><ele>763.6666666666666</ele><time>2026-04-24T10:36:53.492Z</time></trkpt><trkpt lat="39.8146267" lon="9.2627683"><ele>763.3333333333334</ele><time>2026-04-24T10:36:54.491Z</time></trkpt><trkpt lat="39.8145917" lon="9.2629833"><ele>763.0</ele><time>2026-04-24T10:36:55.491Z</time></trkpt><trkpt lat="39.81456" lon="9.263195"><ele>763.0</ele><time>2026-04-24T10:36:56.491Z</time></trkpt><trkpt lat="39.8145283" lon="9.2634"><ele>763.0</ele><time>2026-04-24T10:36:57.491Z</time></trkpt><trkpt lat="39.8144983" lon="9.2636067"><ele>763.0</ele><time>2026-04-24T10:36:58.491Z</time></trkpt><trkpt lat="39.8144667" lon="9.2638167"><ele>763.6666666666667</ele><time>2026-04-24T10:36:59.492Z</time></trkpt><trkpt lat="39.8144333" lon="9.2640217"><ele>764.3333333333334</ele><time>2026-04-24T10:37:00.492Z</time></trkpt><trkpt lat="39.8144033" lon="9.2642233"><ele>765.0</ele><time>2026-04-24T10:37:01.492Z</time></trkpt><trkpt lat="39.8143733" lon="9.2644183"><ele>765.0</ele><time>2026-04-24T10:37:02.492Z</time></trkpt><trkpt lat="39.814345" lon="9.2646017"><ele>765.0</ele><time>2026-04-24T10:37:03.491Z</time></trkpt><trkpt lat="39.8143317" lon="9.2647867"><ele>765.0</ele><time>2026-04-24T10:37:04.491Z</time></trkpt><trkpt lat="39.814335" lon="9.2649667"><ele>765.0</ele><time>2026-04-24T10:37:05.491Z</time></trkpt><trkpt lat="39.81434" lon="9.2651417"><ele>765.0</ele><time>2026-04-24T10:37:06.492Z</time></trkpt><trkpt lat="39.8143517" lon="9.2653217"><ele>765.0</ele><time>2026-04-24T10:37:07.492Z</time></trkpt><trkpt lat="39.8143783" lon="9.2654983"><ele>765.0</ele><time>2026-04-24T10:37:08.492Z</time></trkpt><trkpt lat="39.8144033" lon="9.2656933"><ele>765.0</ele><time>2026-04-24T10:37:09.491Z</time></trkpt><trkpt lat="39.8144417" lon="9.2660783"><ele>764.75</ele><time>2026-04-24T10:37:11.491Z</time></trkpt><trkpt lat="39.814455" lon="9.26626"><ele>764.5</ele><time>2026-04-24T10:37:12.492Z</time></trkpt><trkpt lat="39.8144717" lon="9.2664433"><ele>764.25</ele><time>2026-04-24T10:37:13.491Z</time></trkpt><trkpt lat="39.8144867" lon="9.2666167"><ele>764.0</ele><time>2026-04-24T10:37:14.492Z</time></trkpt><trkpt lat="39.8145" lon="9.2667683"><ele>764.0</ele><time>2026-04-24T10:37:15.491Z</time></trkpt><trkpt lat="39.8145117" lon="9.2669"><ele>764.0</ele><time>2026-04-24T10:37:16.491Z</time></trkpt><trkpt lat="39.8145117" lon="9.267015"><ele>764.0</ele><time>2026-04-24T10:37:17.492Z</time></trkpt><trkpt lat="39.8144983" lon="9.2671167"><ele>764.0</ele><time>2026-04-24T10:37:18.492Z</time></trkpt><trkpt lat="39.814475" lon="9.2672017"><ele>764.0</ele><time>2026-04-24T10:37:19.491Z</time></trkpt><trkpt lat="39.814425" lon="9.2672633"><ele>764.0</ele><time>2026-04-24T10:37:20.492Z</time></trkpt><trkpt lat="39.8143317" lon="9.2673517"><ele>764.0</ele><time>2026-04-24T10:37:22.491Z</time></trkpt><trkpt lat="39.814285" lon="9.2674233"><ele>764.0</ele><time>2026-04-24T10:37:24.491Z</time></trkpt><trkpt lat="39.814285" lon="9.26751"><ele>764.0</ele><time>2026-04-24T10:37:26.492Z</time></trkpt><trkpt lat="39.814365" lon="9.26762"><ele>764.0</ele><time>2026-04-24T10:37:28.491Z</time></trkpt><trkpt lat="39.8144233" lon="9.2676767"><ele>764.0</ele><time>2026-04-24T10:37:29.491Z</time></trkpt><trkpt lat="39.81449" lon="9.2677483"><ele>764.0</ele><time>2026-04-24T10:37:30.492Z</time></trkpt><trkpt lat="39.814645" lon="9.2679067"><ele>764.25</ele><time>2026-04-24T10:37:32.492Z</time></trkpt><trkpt lat="39.8147267" lon="9.267995"><ele>764.5</ele><time>2026-04-24T10:37:33.491Z</time></trkpt><trkpt lat="39.8148233" lon="9.2680983"><ele>764.75</ele><time>2026-04-24T10:37:34.491Z</time></trkpt><trkpt lat="39.8149217" lon="9.268205"><ele>765.0</ele><time>2026-04-24T10:37:35.492Z</time></trkpt><trkpt lat="39.8150233" lon="9.2683067"><ele>765.0</ele><time>2026-04-24T10:37:36.492Z</time></trkpt><trkpt lat="39.8151267" lon="9.26842"><ele>765.0</ele><time>2026-04-24T10:37:37.492Z</time></trkpt><trkpt lat="39.8152333" lon="9.2685317"><ele>765.0</ele><time>2026-04-24T10:37:38.491Z</time></trkpt><trkpt lat="39.8153483" lon="9.2686533"><ele>765.0</ele><time>2026-04-24T10:37:39.491Z</time></trkpt><trkpt lat="39.8154617" lon="9.268765"><ele>765.25</ele><time>2026-04-24T10:37:40.492Z</time></trkpt><trkpt lat="39.8155733" lon="9.268875"><ele>765.5</ele><time>2026-04-24T10:37:41.492Z</time></trkpt><trkpt lat="39.81568" lon="9.2689833"><ele>765.75</ele><time>2026-04-24T10:37:42.492Z</time></trkpt><trkpt lat="39.815785" lon="9.2690983"><ele>766.0</ele><time>2026-04-24T10:37:43.491Z</time></trkpt><trkpt lat="39.8158883" lon="9.2692033"><ele>766.0</ele><time>2026-04-24T10:37:44.491Z</time></trkpt><trkpt lat="39.815995" lon="9.26931"><ele>766.0</ele><time>2026-04-24T10:37:45.491Z</time></trkpt><trkpt lat="39.8160983" lon="9.2694167"><ele>766.0</ele><time>2026-04-24T10:37:46.492Z</time></trkpt><trkpt lat="39.8162" lon="9.26952"><ele>766.0</ele><time>2026-04-24T10:37:47.492Z</time></trkpt><trkpt lat="39.8162917" lon="9.26961"><ele>766.0</ele><time>2026-04-24T10:37:48.491Z</time></trkpt><trkpt lat="39.8163767" lon="9.269695"><ele>766.0</ele><time>2026-04-24T10:37:49.491Z</time></trkpt><trkpt lat="39.816455" lon="9.2697733"><ele>766.0</ele><time>2026-04-24T10:37:50.492Z</time></trkpt><trkpt lat="39.8165267" lon="9.26984"><ele>766.0</ele><time>2026-04-24T10:37:51.491Z</time></trkpt><trkpt lat="39.81661" lon="9.27"><ele>766.0</ele><time>2026-04-24T10:37:53.492Z</time></trkpt><trkpt lat="39.8166167" lon="9.2700933"><ele>766.1999999999999</ele><time>2026-04-24T10:37:54.491Z</time></trkpt><trkpt lat="39.8165933" lon="9.2701967"><ele>766.4</ele><time>2026-04-24T10:37:55.491Z</time></trkpt><trkpt lat="39.81655" lon="9.27029"><ele>766.6</ele><time>2026-04-24T10:37:56.491Z</time></trkpt><trkpt lat="39.816485" lon="9.27039"><ele>766.8</ele><time>2026-04-24T10:37:57.491Z</time></trkpt><trkpt lat="39.81641" lon="9.2704883"><ele>767.0</ele><time>2026-04-24T10:37:58.492Z</time></trkpt><trkpt lat="39.8163333" lon="9.27058"><ele>767.2</ele><time>2026-04-24T10:37:59.492Z</time></trkpt><trkpt lat="39.8162567" lon="9.2706733"><ele>767.4000000000001</ele><time>2026-04-24T10:38:00.491Z</time></trkpt><trkpt lat="39.8161817" lon="9.2707733"><ele>767.5999999999999</ele><time>2026-04-24T10:38:01.491Z</time></trkpt><trkpt lat="39.8161017" lon="9.2708733"><ele>767.8</ele><time>2026-04-24T10:38:02.492Z</time></trkpt><trkpt lat="39.8160217" lon="9.2709717"><ele>768.0</ele><time>2026-04-24T10:38:03.491Z</time></trkpt><trkpt lat="39.8159483" lon="9.27106"><ele>768.0</ele><time>2026-04-24T10:38:04.491Z</time></trkpt><trkpt lat="39.81588" lon="9.2711517"><ele>768.0</ele><time>2026-04-24T10:38:05.492Z</time></trkpt><trkpt lat="39.8158067" lon="9.271245"><ele>768.0</ele><time>2026-04-24T10:38:06.491Z</time></trkpt><trkpt lat="39.8157383" lon="9.27133"><ele>768.0</ele><time>2026-04-24T10:38:07.491Z</time></trkpt><trkpt lat="39.8156733" lon="9.271425"><ele>768.0</ele><time>2026-04-24T10:38:08.491Z</time></trkpt><trkpt lat="39.8156067" lon="9.2715233"><ele>768.0</ele><time>2026-04-24T10:38:09.492Z</time></trkpt><trkpt lat="39.8155267" lon="9.2716217"><ele>768.0</ele><time>2026-04-24T10:38:10.491Z</time></trkpt><trkpt lat="39.8154517" lon="9.2717217"><ele>768.0</ele><time>2026-04-24T10:38:11.491Z</time></trkpt><trkpt lat="39.815375" lon="9.271825"><ele>768.0</ele><time>2026-04-24T10:38:12.492Z</time></trkpt><trkpt lat="39.81521" lon="9.2720333"><ele>768.0</ele><time>2026-04-24T10:38:14.491Z</time></trkpt><trkpt lat="39.81513" lon="9.2721367"><ele>768.0</ele><time>2026-04-24T10:38:15.491Z</time></trkpt><trkpt lat="39.8150467" lon="9.27224"><ele>768.0</ele><time>2026-04-24T10:38:16.492Z</time></trkpt><trkpt lat="39.8149667" lon="9.2723483"><ele>768.0</ele><time>2026-04-24T10:38:17.492Z</time></trkpt><trkpt lat="39.8148867" lon="9.2724533"><ele>768.0</ele><time>2026-04-24T10:38:18.491Z</time></trkpt><trkpt lat="39.8148117" lon="9.2725517"><ele>768.0</ele><time>2026-04-24T10:38:19.491Z</time></trkpt><trkpt lat="39.81474" lon="9.2726467"><ele>768.0</ele><time>2026-04-24T10:38:20.492Z</time></trkpt><trkpt lat="39.8146683" lon="9.272735"><ele>768.0</ele><time>2026-04-24T10:38:21.492Z</time></trkpt><trkpt lat="39.814595" lon="9.2728217"><ele>768.0</ele><time>2026-04-24T10:38:22.491Z</time></trkpt><trkpt lat="39.8145317" lon="9.2729"><ele>768.0</ele><time>2026-04-24T10:38:23.492Z</time></trkpt><trkpt lat="39.8144733" lon="9.2729667"><ele>768.0</ele><time>2026-04-24T10:38:24.491Z</time></trkpt><trkpt lat="39.8144267" lon="9.2730317"><ele>768.0</ele><time>2026-04-24T10:38:25.492Z</time></trkpt><trkpt lat="39.8143817" lon="9.27309"><ele>768.0</ele><time>2026-04-24T10:38:26.492Z</time></trkpt><trkpt lat="39.8143417" lon="9.273155"><ele>768.0</ele><time>2026-04-24T10:38:27.491Z</time></trkpt><trkpt lat="39.814325" lon="9.273325"><ele>768.0</ele><time>2026-04-24T10:38:29.492Z</time></trkpt><trkpt lat="39.8143533" lon="9.27342"><ele>767.25</ele><time>2026-04-24T10:38:30.491Z</time></trkpt><trkpt lat="39.8144" lon="9.2735233"><ele>766.5</ele><time>2026-04-24T10:38:31.491Z</time></trkpt><trkpt lat="39.8144517" lon="9.273635"><ele>765.75</ele><time>2026-04-24T10:38:32.491Z</time></trkpt><trkpt lat="39.8145017" lon="9.2737533"><ele>765.0</ele><time>2026-04-24T10:38:33.492Z</time></trkpt><trkpt lat="39.8146167" lon="9.2740033"><ele>763.75</ele><time>2026-04-24T10:38:35.491Z</time></trkpt><trkpt lat="39.8146767" lon="9.2741283"><ele>762.5</ele><time>2026-04-24T10:38:36.492Z</time></trkpt><trkpt lat="39.814735" lon="9.2742617"><ele>761.25</ele><time>2026-04-24T10:38:37.492Z</time></trkpt><trkpt lat="39.8147917" lon="9.2743933"><ele>760.0</ele><time>2026-04-24T10:38:38.491Z</time></trkpt><trkpt lat="39.81485" lon="9.274515"><ele>760.0</ele><time>2026-04-24T10:38:39.491Z</time></trkpt><trkpt lat="39.8149133" lon="9.27464"><ele>760.0</ele><time>2026-04-24T10:38:40.492Z</time></trkpt><trkpt lat="39.8149667" lon="9.2747567"><ele>760.0</ele><time>2026-04-24T10:38:41.491Z</time></trkpt><trkpt lat="39.8150133" lon="9.2748767"><ele>760.0</ele><time>2026-04-24T10:38:42.492Z</time></trkpt><trkpt lat="39.8150617" lon="9.2749883"><ele>760.0</ele><time>2026-04-24T10:38:43.491Z</time></trkpt><trkpt lat="39.8151033" lon="9.275105"><ele>759.6666666666667</ele><time>2026-04-24T10:38:44.491Z</time></trkpt><trkpt lat="39.8151283" lon="9.2752217"><ele>759.3333333333334</ele><time>2026-04-24T10:38:45.491Z</time></trkpt><trkpt lat="39.8151533" lon="9.275335"><ele>759.0</ele><time>2026-04-24T10:38:46.491Z</time></trkpt><trkpt lat="39.8151817" lon="9.275445"><ele>758.6666666666666</ele><time>2026-04-24T10:38:47.492Z</time></trkpt><trkpt lat="39.8152067" lon="9.2755567"><ele>758.3333333333333</ele><time>2026-04-24T10:38:48.491Z</time></trkpt><trkpt lat="39.815225" lon="9.27566"><ele>758.0</ele><time>2026-04-24T10:38:49.491Z</time></trkpt><trkpt lat="39.81524" lon="9.27576"><ele>757.25</ele><time>2026-04-24T10:38:50.492Z</time></trkpt><trkpt lat="39.815255" lon="9.275845"><ele>756.5</ele><time>2026-04-24T10:38:51.491Z</time></trkpt><trkpt lat="39.815295" lon="9.2759867"><ele>755.75</ele><time>2026-04-24T10:38:53.491Z</time></trkpt><trkpt lat="39.8153217" lon="9.2760833"><ele>755.0</ele><time>2026-04-24T10:38:55.491Z</time></trkpt><trkpt lat="39.81538" lon="9.2764217"><ele>752.2</ele><time>2026-04-24T10:39:22.491Z</time></trkpt><trkpt lat="39.81541" lon="9.276545"><ele>749.4</ele><time>2026-04-24T10:39:24.492Z</time></trkpt><trkpt lat="39.8154683" lon="9.2766433"><ele>746.5999999999999</ele><time>2026-04-24T10:39:26.492Z</time></trkpt><trkpt lat="39.815565" lon="9.2766933"><ele>743.8</ele><time>2026-04-24T10:39:28.491Z</time></trkpt><trkpt lat="39.8156717" lon="9.2767567"><ele>741.0</ele><time>2026-04-24T10:39:30.491Z</time></trkpt><trkpt lat="39.815785" lon="9.2768233"><ele>741.0</ele><time>2026-04-24T10:39:32.491Z</time></trkpt><trkpt lat="39.8158483" lon="9.27685"><ele>741.0</ele><time>2026-04-24T10:39:33.491Z</time></trkpt><trkpt lat="39.815965" lon="9.2769067"><ele>741.0</ele><time>2026-04-24T10:39:35.491Z</time></trkpt><trkpt lat="39.8160867" lon="9.2769617"><ele>741.0</ele><time>2026-04-24T10:39:37.491Z</time></trkpt><trkpt lat="39.8162117" lon="9.2769633"><ele>741.0</ele><time>2026-04-24T10:39:39.491Z</time></trkpt><trkpt lat="39.8163383" lon="9.2769333"><ele>740.6666666666666</ele><time>2026-04-24T10:39:41.492Z</time></trkpt><trkpt lat="39.8164617" lon="9.2769167"><ele>740.3333333333334</ele><time>2026-04-24T10:39:43.492Z</time></trkpt><trkpt lat="39.8165317" lon="9.2769067"><ele>740.0</ele><time>2026-04-24T10:39:44.491Z</time></trkpt><trkpt lat="39.8165983" lon="9.2768883"><ele>739.6666666666667</ele><time>2026-04-24T10:39:45.492Z</time></trkpt><trkpt lat="39.8166617" lon="9.276865"><ele>739.3333333333334</ele><time>2026-04-24T10:39:46.492Z</time></trkpt><trkpt lat="39.8167283" lon="9.2768583"><ele>739.0</ele><time>2026-04-24T10:39:47.492Z</time></trkpt><trkpt lat="39.8168017" lon="9.2768633"><ele>737.8333333333334</ele><time>2026-04-24T10:39:48.491Z</time></trkpt><trkpt lat="39.8168717" lon="9.2768583"><ele>736.6666666666667</ele><time>2026-04-24T10:39:49.492Z</time></trkpt><trkpt lat="39.8169417" lon="9.276855"><ele>735.5</ele><time>2026-04-24T10:39:50.491Z</time></trkpt><trkpt lat="39.8170117" lon="9.2768583"><ele>734.3333333333334</ele><time>2026-04-24T10:39:51.492Z</time></trkpt><trkpt lat="39.817075" lon="9.276865"><ele>733.1666666666666</ele><time>2026-04-24T10:39:52.491Z</time></trkpt><trkpt lat="39.8171933" lon="9.2768633"><ele>732.0</ele><time>2026-04-24T10:39:54.492Z</time></trkpt><trkpt lat="39.8173017" lon="9.27687"><ele>732.0</ele><time>2026-04-24T10:39:56.492Z</time></trkpt><trkpt lat="39.8174133" lon="9.27688"><ele>732.0</ele><time>2026-04-24T10:39:58.492Z</time></trkpt><trkpt lat="39.8175133" lon="9.2768833"><ele>732.0</ele><time>2026-04-24T10:40:00.491Z</time></trkpt><trkpt lat="39.8176967" lon="9.27695"><ele>732.0</ele><time>2026-04-24T10:40:04.491Z</time></trkpt><trkpt lat="39.8177433" lon="9.27706"><ele>731.8</ele><time>2026-04-24T10:40:06.491Z</time></trkpt><trkpt lat="39.8177467" lon="9.2771767"><ele>731.6</ele><time>2026-04-24T10:40:08.491Z</time></trkpt><trkpt lat="39.8177133" lon="9.27729"><ele>731.4</ele><time>2026-04-24T10:40:10.492Z</time></trkpt><trkpt lat="39.817715" lon="9.27739"><ele>731.1999999999999</ele><time>2026-04-24T10:40:12.491Z</time></trkpt><trkpt lat="39.8177917" lon="9.2774483"><ele>731.0</ele><time>2026-04-24T10:40:14.492Z</time></trkpt><trkpt lat="39.817895" lon="9.27752"><ele>726.5999999999999</ele><time>2026-04-24T10:40:16.492Z</time></trkpt><trkpt lat="39.8179433" lon="9.277575"><ele>722.2</ele><time>2026-04-24T10:40:17.492Z</time></trkpt><trkpt lat="39.8179933" lon="9.277635"><ele>717.8</ele><time>2026-04-24T10:40:18.491Z</time></trkpt><trkpt lat="39.81804" lon="9.2776933"><ele>713.4000000000001</ele><time>2026-04-24T10:40:19.492Z</time></trkpt><trkpt lat="39.8181067" lon="9.2778217"><ele>709.0</ele><time>2026-04-24T10:40:21.492Z</time></trkpt><trkpt lat="39.8183083" lon="9.277975"><ele>709.0</ele><time>2026-04-24T10:40:25.491Z</time></trkpt><trkpt lat="39.8184383" lon="9.2779867"><ele>709.0</ele><time>2026-04-24T10:40:27.491Z</time></trkpt><trkpt lat="39.8185133" lon="9.2779783"><ele>709.0</ele><time>2026-04-24T10:40:28.491Z</time></trkpt><trkpt lat="39.8185917" lon="9.277965"><ele>709.0</ele><time>2026-04-24T10:40:29.491Z</time></trkpt><trkpt lat="39.818665" lon="9.2779667"><ele>709.0</ele><time>2026-04-24T10:40:30.491Z</time></trkpt><trkpt lat="39.8187467" lon="9.2779667"><ele>709.0</ele><time>2026-04-24T10:40:31.492Z</time></trkpt><trkpt lat="39.81882" lon="9.2779667"><ele>708.8333333333334</ele><time>2026-04-24T10:40:32.492Z</time></trkpt><trkpt lat="39.8188883" lon="9.2779783"><ele>708.6666666666667</ele><time>2026-04-24T10:40:33.491Z</time></trkpt><trkpt lat="39.8189633" lon="9.27802"><ele>708.5</ele><time>2026-04-24T10:40:34.492Z</time></trkpt><trkpt lat="39.8190317" lon="9.2780717"><ele>708.3333333333334</ele><time>2026-04-24T10:40:35.491Z</time></trkpt><trkpt lat="39.8190983" lon="9.278125"><ele>708.1666666666666</ele><time>2026-04-24T10:40:36.492Z</time></trkpt><trkpt lat="39.819165" lon="9.278175"><ele>708.0</ele><time>2026-04-24T10:40:37.491Z</time></trkpt><trkpt lat="39.8192333" lon="9.278195"><ele>708.0</ele><time>2026-04-24T10:40:38.491Z</time></trkpt><trkpt lat="39.8192967" lon="9.278185"><ele>708.0</ele><time>2026-04-24T10:40:39.492Z</time></trkpt><trkpt lat="39.8193617" lon="9.2781617"><ele>708.0</ele><time>2026-04-24T10:40:40.492Z</time></trkpt><trkpt lat="39.819425" lon="9.2781333"><ele>708.0</ele><time>2026-04-24T10:40:41.491Z</time></trkpt><trkpt lat="39.8194917" lon="9.2781033"><ele>708.0</ele><time>2026-04-24T10:40:42.491Z</time></trkpt><trkpt lat="39.8196233" lon="9.278055"><ele>708.0</ele><time>2026-04-24T10:40:44.492Z</time></trkpt><trkpt lat="39.819695" lon="9.2780433"><ele>708.8</ele><time>2026-04-24T10:40:45.492Z</time></trkpt><trkpt lat="39.81977" lon="9.2780317"><ele>709.5999999999999</ele><time>2026-04-24T10:40:46.491Z</time></trkpt><trkpt lat="39.8198383" lon="9.2780317"><ele>710.4000000000001</ele><time>2026-04-24T10:40:47.491Z</time></trkpt><trkpt lat="39.819955" lon="9.2780467"><ele>711.2</ele><time>2026-04-24T10:40:49.491Z</time></trkpt><trkpt lat="39.820075" lon="9.2780667"><ele>712.0</ele><time>2026-04-24T10:40:51.492Z</time></trkpt><trkpt lat="39.8201483" lon="9.27813"><ele>712.6666666666667</ele><time>2026-04-24T10:40:53.491Z</time></trkpt><trkpt lat="39.8201783" lon="9.2782583"><ele>713.3333333333334</ele><time>2026-04-24T10:40:55.492Z</time></trkpt><trkpt lat="39.8201867" lon="9.27834"><ele>714.0</ele><time>2026-04-24T10:40:56.492Z</time></trkpt><trkpt lat="39.8201967" lon="9.2784233"><ele>714.6666666666666</ele><time>2026-04-24T10:40:57.492Z</time></trkpt><trkpt lat="39.820245" lon="9.2785633"><ele>715.3333333333333</ele><time>2026-04-24T10:40:59.492Z</time></trkpt><trkpt lat="39.820315" lon="9.27865"><ele>716.0</ele><time>2026-04-24T10:41:01.491Z</time></trkpt><trkpt lat="39.8204183" lon="9.2786867"><ele>716.0</ele><time>2026-04-24T10:41:03.492Z</time></trkpt><trkpt lat="39.8205983" lon="9.278725"><ele>716.0</ele><time>2026-04-24T10:41:06.491Z</time></trkpt><trkpt lat="39.8206667" lon="9.2787383"><ele>716.0</ele><time>2026-04-24T10:41:07.491Z</time></trkpt><trkpt lat="39.8207383" lon="9.2787517"><ele>716.0</ele><time>2026-04-24T10:41:08.491Z</time></trkpt><trkpt lat="39.8208167" lon="9.278755"><ele>716.0</ele><time>2026-04-24T10:41:09.492Z</time></trkpt><trkpt lat="39.8209067" lon="9.2787567"><ele>717.8</ele><time>2026-04-24T10:41:10.491Z</time></trkpt><trkpt lat="39.8210067" lon="9.2787683"><ele>719.5999999999999</ele><time>2026-04-24T10:41:11.491Z</time></trkpt><trkpt lat="39.8211033" lon="9.2787767"><ele>721.4</ele><time>2026-04-24T10:41:12.491Z</time></trkpt><trkpt lat="39.8212" lon="9.2787767"><ele>723.2</ele><time>2026-04-24T10:41:13.491Z</time></trkpt><trkpt lat="39.8212867" lon="9.278765"><ele>725.0</ele><time>2026-04-24T10:41:14.491Z</time></trkpt><trkpt lat="39.82137" lon="9.2787617"><ele>725.0</ele><time>2026-04-24T10:41:15.492Z</time></trkpt><trkpt lat="39.821455" lon="9.2787517"><ele>725.0</ele><time>2026-04-24T10:41:16.491Z</time></trkpt><trkpt lat="39.821535" lon="9.27875"><ele>725.0</ele><time>2026-04-24T10:41:17.491Z</time></trkpt><trkpt lat="39.8216117" lon="9.2787583"><ele>725.0</ele><time>2026-04-24T10:41:18.491Z</time></trkpt><trkpt lat="39.821685" lon="9.2787733"><ele>725.0</ele><time>2026-04-24T10:41:19.491Z</time></trkpt><trkpt lat="39.8217567" lon="9.2787917"><ele>725.0</ele><time>2026-04-24T10:41:20.491Z</time></trkpt><trkpt lat="39.821825" lon="9.2788217"><ele>724.4</ele><time>2026-04-24T10:41:21.491Z</time></trkpt><trkpt lat="39.8218917" lon="9.2788633"><ele>723.8</ele><time>2026-04-24T10:41:22.491Z</time></trkpt><trkpt lat="39.8219567" lon="9.278915"><ele>723.2</ele><time>2026-04-24T10:41:23.491Z</time></trkpt><trkpt lat="39.8220133" lon="9.2789833"><ele>722.6</ele><time>2026-04-24T10:41:24.491Z</time></trkpt><trkpt lat="39.8220883" lon="9.27913"><ele>722.0</ele><time>2026-04-24T10:41:26.491Z</time></trkpt><trkpt lat="39.8221417" lon="9.2792483"><ele>722.0</ele><time>2026-04-24T10:41:28.491Z</time></trkpt><trkpt lat="39.8221933" lon="9.2793733"><ele>722.0</ele><time>2026-04-24T10:41:30.492Z</time></trkpt><trkpt lat="39.8222717" lon="9.279475"><ele>722.0</ele><time>2026-04-24T10:41:32.491Z</time></trkpt><trkpt lat="39.822365" lon="9.27952"><ele>722.0</ele><time>2026-04-24T10:41:34.491Z</time></trkpt><trkpt lat="39.8224433" lon="9.2794817"><ele>722.0</ele><time>2026-04-24T10:41:36.492Z</time></trkpt><trkpt lat="39.8225267" lon="9.279445"><ele>722.0</ele><time>2026-04-24T10:41:38.491Z</time></trkpt><trkpt lat="39.822615" lon="9.2794133"><ele>722.0</ele><time>2026-04-24T10:41:40.491Z</time></trkpt><trkpt lat="39.8227217" lon="9.2793317"><ele>722.0</ele><time>2026-04-24T10:41:42.492Z</time></trkpt><trkpt lat="39.8227767" lon="9.2792783"><ele>722.0</ele><time>2026-04-24T10:41:43.492Z</time></trkpt><trkpt lat="39.82283" lon="9.2792283"><ele>722.0</ele><time>2026-04-24T10:41:44.491Z</time></trkpt><trkpt lat="39.822895" lon="9.27918"><ele>722.0</ele><time>2026-04-24T10:41:45.491Z</time></trkpt><trkpt lat="39.82302" lon="9.2791"><ele>723.8333333333333</ele><time>2026-04-24T10:41:47.492Z</time></trkpt><trkpt lat="39.8231433" lon="9.279065"><ele>725.6666666666666</ele><time>2026-04-24T10:41:49.492Z</time></trkpt><trkpt lat="39.82321" lon="9.2790467"><ele>727.5</ele><time>2026-04-24T10:41:50.492Z</time></trkpt><trkpt lat="39.8232833" lon="9.279025"><ele>729.3333333333334</ele><time>2026-04-24T10:41:51.492Z</time></trkpt><trkpt lat="39.8233667" lon="9.2790067"><ele>731.1666666666667</ele><time>2026-04-24T10:41:52.492Z</time></trkpt><trkpt lat="39.8234483" lon="9.2789817"><ele>733.0</ele><time>2026-04-24T10:41:53.492Z</time></trkpt><trkpt lat="39.823525" lon="9.2789667"><ele>736.1666666666667</ele><time>2026-04-24T10:41:54.491Z</time></trkpt><trkpt lat="39.8236033" lon="9.278955"><ele>739.3333333333334</ele><time>2026-04-24T10:41:55.491Z</time></trkpt><trkpt lat="39.8236833" lon="9.2789433"><ele>742.5</ele><time>2026-04-24T10:41:56.491Z</time></trkpt><trkpt lat="39.82376" lon="9.2789467"><ele>745.6666666666666</ele><time>2026-04-24T10:41:57.492Z</time></trkpt><trkpt lat="39.823835" lon="9.2789517"><ele>748.8333333333333</ele><time>2026-04-24T10:41:58.492Z</time></trkpt><trkpt lat="39.8239183" lon="9.278965"><ele>752.0</ele><time>2026-04-24T10:41:59.492Z</time></trkpt><trkpt lat="39.824005" lon="9.2789633"><ele>752.0</ele><time>2026-04-24T10:42:00.492Z</time></trkpt><trkpt lat="39.8240883" lon="9.2789733"><ele>752.0</ele><time>2026-04-24T10:42:01.492Z</time></trkpt><trkpt lat="39.8241683" lon="9.2789867"><ele>752.0</ele><time>2026-04-24T10:42:02.491Z</time></trkpt><trkpt lat="39.8242417" lon="9.278995"><ele>752.0</ele><time>2026-04-24T10:42:03.491Z</time></trkpt><trkpt lat="39.8243183" lon="9.2790133"><ele>752.0</ele><time>2026-04-24T10:42:04.491Z</time></trkpt><trkpt lat="39.8243933" lon="9.2790283"><ele>752.0</ele><time>2026-04-24T10:42:05.492Z</time></trkpt><trkpt lat="39.8244733" lon="9.279055"><ele>755.2</ele><time>2026-04-24T10:42:06.492Z</time></trkpt><trkpt lat="39.8246367" lon="9.2790817"><ele>758.4000000000001</ele><time>2026-04-24T10:42:08.492Z</time></trkpt><trkpt lat="39.82472" lon="9.2790933"><ele>761.5999999999999</ele><time>2026-04-24T10:42:09.491Z</time></trkpt><trkpt lat="39.8247983" lon="9.279115"><ele>764.8</ele><time>2026-04-24T10:42:10.492Z</time></trkpt><trkpt lat="39.8248817" lon="9.2791267"><ele>768.0</ele><time>2026-04-24T10:42:11.492Z</time></trkpt><trkpt lat="39.8249617" lon="9.2791267"><ele>768.0</ele><time>2026-04-24T10:42:12.492Z</time></trkpt><trkpt lat="39.8250433" lon="9.279115"><ele>768.0</ele><time>2026-04-24T10:42:13.492Z</time></trkpt><trkpt lat="39.8251233" lon="9.2790967"><ele>768.0</ele><time>2026-04-24T10:42:14.492Z</time></trkpt><trkpt lat="39.8252067" lon="9.2790817"><ele>768.0</ele><time>2026-04-24T10:42:15.492Z</time></trkpt><trkpt lat="39.8252917" lon="9.2790633"><ele>768.0</ele><time>2026-04-24T10:42:16.492Z</time></trkpt><trkpt lat="39.825375" lon="9.27907"><ele>768.0</ele><time>2026-04-24T10:42:17.491Z</time></trkpt><trkpt lat="39.8254617" lon="9.279075"><ele>768.5999999999999</ele><time>2026-04-24T10:42:18.492Z</time></trkpt><trkpt lat="39.8255367" lon="9.2790733"><ele>769.1999999999999</ele><time>2026-04-24T10:42:19.491Z</time></trkpt><trkpt lat="39.8256" lon="9.2790683"><ele>769.8</ele><time>2026-04-24T10:42:20.492Z</time></trkpt><trkpt lat="39.82566" lon="9.2790133"><ele>770.4</ele><time>2026-04-24T10:42:35.491Z</time></trkpt><trkpt lat="39.8257733" lon="9.2787867"><ele>771.0</ele><time>2026-04-24T10:42:39.492Z</time></trkpt><trkpt lat="39.8258567" lon="9.2787067"><ele>772.1999999999999</ele><time>2026-04-24T10:42:41.492Z</time></trkpt><trkpt lat="39.8259483" lon="9.2786"><ele>773.4</ele><time>2026-04-24T10:42:43.491Z</time></trkpt><trkpt lat="39.825995" lon="9.2785433"><ele>774.6</ele><time>2026-04-24T10:42:44.491Z</time></trkpt><trkpt lat="39.826075" lon="9.2784783"><ele>775.8</ele><time>2026-04-24T10:42:46.492Z</time></trkpt><trkpt lat="39.8261717" lon="9.2784533"><ele>777.0</ele><time>2026-04-24T10:42:48.492Z</time></trkpt><trkpt lat="39.8262883" lon="9.2784467"><ele>778.4000000000001</ele><time>2026-04-24T10:42:50.492Z</time></trkpt><trkpt lat="39.8264117" lon="9.2784617"><ele>779.8000000000001</ele><time>2026-04-24T10:42:52.492Z</time></trkpt><trkpt lat="39.82654" lon="9.27849"><ele>781.2</ele><time>2026-04-24T10:42:54.492Z</time></trkpt><trkpt lat="39.8266083" lon="9.2784933"><ele>782.6</ele><time>2026-04-24T10:42:55.491Z</time></trkpt><trkpt lat="39.8267333" lon="9.27847"><ele>784.0</ele><time>2026-04-24T10:42:57.491Z</time></trkpt><trkpt lat="39.8268683" lon="9.278405"><ele>785.1666666666666</ele><time>2026-04-24T10:42:59.491Z</time></trkpt><trkpt lat="39.826925" lon="9.2783667"><ele>786.3333333333333</ele><time>2026-04-24T10:43:00.492Z</time></trkpt><trkpt lat="39.82703" lon="9.2783183"><ele>787.5</ele><time>2026-04-24T10:43:02.491Z</time></trkpt><trkpt lat="39.8271533" lon="9.27832"><ele>788.6666666666667</ele><time>2026-04-24T10:43:04.491Z</time></trkpt><trkpt lat="39.8272217" lon="9.2783317"><ele>789.8333333333334</ele><time>2026-04-24T10:43:05.492Z</time></trkpt><trkpt lat="39.82729" lon="9.2783367"><ele>791.0</ele><time>2026-04-24T10:43:06.491Z</time></trkpt><trkpt lat="39.8273533" lon="9.27834"><ele>791.0</ele><time>2026-04-24T10:43:07.491Z</time></trkpt><trkpt lat="39.8274167" lon="9.27833"><ele>791.0</ele><time>2026-04-24T10:43:08.492Z</time></trkpt><trkpt lat="39.82748" lon="9.2783267"><ele>791.0</ele><time>2026-04-24T10:43:09.491Z</time></trkpt><trkpt lat="39.8275483" lon="9.2783233"><ele>791.0</ele><time>2026-04-24T10:43:10.491Z</time></trkpt><trkpt lat="39.8276167" lon="9.2783267"><ele>791.0</ele><time>2026-04-24T10:43:11.492Z</time></trkpt><trkpt lat="39.8276883" lon="9.2783317"><ele>791.0</ele><time>2026-04-24T10:43:12.491Z</time></trkpt><trkpt lat="39.8277583" lon="9.2783367"><ele>791.0</ele><time>2026-04-24T10:43:13.492Z</time></trkpt><trkpt lat="39.82783" lon="9.27835"><ele>792.5000000000001</ele><time>2026-04-24T10:43:14.492Z</time></trkpt><trkpt lat="39.827905" lon="9.27837"><ele>794.0</ele><time>2026-04-24T10:43:15.492Z</time></trkpt><trkpt lat="39.82797" lon="9.2783867"><ele>795.5</ele><time>2026-04-24T10:43:16.491Z</time></trkpt><trkpt lat="39.8280383" lon="9.2783933"><ele>797.0</ele><time>2026-04-24T10:43:17.491Z</time></trkpt><trkpt lat="39.82811" lon="9.278395"><ele>798.5000000000001</ele><time>2026-04-24T10:43:18.491Z</time></trkpt><trkpt lat="39.8282617" lon="9.2784"><ele>800.0</ele><time>2026-04-24T10:43:20.492Z</time></trkpt><trkpt lat="39.8283467" lon="9.2784167"><ele>800.0</ele><time>2026-04-24T10:43:21.492Z</time></trkpt><trkpt lat="39.8284317" lon="9.278435"><ele>800.0</ele><time>2026-04-24T10:43:22.491Z</time></trkpt><trkpt lat="39.8285283" lon="9.27845"><ele>800.0</ele><time>2026-04-24T10:43:23.491Z</time></trkpt><trkpt lat="39.8286217" lon="9.2784617"><ele>800.0</ele><time>2026-04-24T10:43:24.492Z</time></trkpt><trkpt lat="39.8287067" lon="9.2784767"><ele>800.0</ele><time>2026-04-24T10:43:25.491Z</time></trkpt><trkpt lat="39.8287933" lon="9.2784717"><ele>799.8333333333334</ele><time>2026-04-24T10:43:26.492Z</time></trkpt><trkpt lat="39.8288883" lon="9.278455"><ele>799.6666666666667</ele><time>2026-04-24T10:43:27.491Z</time></trkpt><trkpt lat="39.8289783" lon="9.278445"><ele>799.5</ele><time>2026-04-24T10:43:28.491Z</time></trkpt><trkpt lat="39.82905" lon="9.2784367"><ele>799.3333333333333</ele><time>2026-04-24T10:43:29.492Z</time></trkpt><trkpt lat="39.8291217" lon="9.2784317"><ele>799.1666666666666</ele><time>2026-04-24T10:43:30.492Z</time></trkpt><trkpt lat="39.82919" lon="9.2784317"><ele>799.0</ele><time>2026-04-24T10:43:31.491Z</time></trkpt><trkpt lat="39.8292583" lon="9.278435"><ele>799.4000000000001</ele><time>2026-04-24T10:43:32.491Z</time></trkpt><trkpt lat="39.829325" lon="9.2784467"><ele>799.8</ele><time>2026-04-24T10:43:33.491Z</time></trkpt><trkpt lat="39.82939" lon="9.2784583"><ele>800.2</ele><time>2026-04-24T10:43:34.492Z</time></trkpt><trkpt lat="39.829455" lon="9.2784717"><ele>800.5999999999999</ele><time>2026-04-24T10:43:35.491Z</time></trkpt><trkpt lat="39.8295717" lon="9.27849"><ele>801.0</ele><time>2026-04-24T10:43:37.492Z</time></trkpt><trkpt lat="39.8297" lon="9.27854"><ele>801.0</ele><time>2026-04-24T10:43:39.492Z</time></trkpt><trkpt lat="39.829855" lon="9.2786183"><ele>801.0</ele><time>2026-04-24T10:43:41.491Z</time></trkpt><trkpt lat="39.8299333" lon="9.2786567"><ele>801.0</ele><time>2026-04-24T10:43:42.491Z</time></trkpt><trkpt lat="39.83001" lon="9.2787"><ele>801.0</ele><time>2026-04-24T10:43:43.491Z</time></trkpt><trkpt lat="39.830075" lon="9.278735"><ele>801.0</ele><time>2026-04-24T10:43:44.491Z</time></trkpt><trkpt lat="39.83015" lon="9.2787667"><ele>802.5</ele><time>2026-04-24T10:43:45.492Z</time></trkpt><trkpt lat="39.8302283" lon="9.2788067"><ele>804.0</ele><time>2026-04-24T10:43:46.492Z</time></trkpt><trkpt lat="39.8303" lon="9.2788383"><ele>805.5</ele><time>2026-04-24T10:43:47.491Z</time></trkpt><trkpt lat="39.8303767" lon="9.27885"><ele>807.0</ele><time>2026-04-24T10:43:48.491Z</time></trkpt><trkpt lat="39.83045" lon="9.2788483"><ele>808.5</ele><time>2026-04-24T10:43:49.491Z</time></trkpt><trkpt lat="39.8305217" lon="9.278845"><ele>810.0</ele><time>2026-04-24T10:43:50.491Z</time></trkpt><trkpt lat="39.83059" lon="9.2788333"><ele>810.0</ele><time>2026-04-24T10:43:51.492Z</time></trkpt><trkpt lat="39.8306917" lon="9.278785"><ele>810.0</ele><time>2026-04-24T10:43:53.492Z</time></trkpt><trkpt lat="39.830775" lon="9.2787717"><ele>810.0</ele><time>2026-04-24T10:43:56.492Z</time></trkpt><trkpt lat="39.83085" lon="9.2788483"><ele>810.0</ele><time>2026-04-24T10:43:59.491Z</time></trkpt><trkpt lat="39.83093" lon="9.278895"><ele>810.0</ele><time>2026-04-24T10:44:01.491Z</time></trkpt><trkpt lat="39.8310967" lon="9.2789033"><ele>811.1666666666666</ele><time>2026-04-24T10:44:05.491Z</time></trkpt><trkpt lat="39.831175" lon="9.27889"><ele>812.3333333333333</ele><time>2026-04-24T10:44:07.492Z</time></trkpt><trkpt lat="39.8312617" lon="9.2788483"><ele>813.5</ele><time>2026-04-24T10:44:09.491Z</time></trkpt><trkpt lat="39.8313333" lon="9.2787683"><ele>814.6666666666666</ele><time>2026-04-24T10:44:11.491Z</time></trkpt><trkpt lat="39.8313917" lon="9.2787067"><ele>815.8333333333333</ele><time>2026-04-24T10:44:13.492Z</time></trkpt><trkpt lat="39.8314067" lon="9.2787967"><ele>817.0</ele><time>2026-04-24T10:49:11.491Z</time></trkpt><trkpt lat="39.83136" lon="9.279065"><ele>819.2</ele><time>2026-04-24T10:49:15.491Z</time></trkpt><trkpt lat="39.8313283" lon="9.27921"><ele>821.4000000000001</ele><time>2026-04-24T10:49:17.492Z</time></trkpt><trkpt lat="39.83127" lon="9.2793433"><ele>823.5999999999999</ele><time>2026-04-24T10:49:19.491Z</time></trkpt><trkpt lat="39.831225" lon="9.279405"><ele>825.8</ele><time>2026-04-24T10:49:20.492Z</time></trkpt><trkpt lat="39.8311317" lon="9.2795"><ele>828.0</ele><time>2026-04-24T10:49:22.491Z</time></trkpt><trkpt lat="39.831055" lon="9.2795667"><ele>828.0</ele><time>2026-04-24T10:49:24.491Z</time></trkpt><trkpt lat="39.8310233" lon="9.279665"><ele>828.0</ele><time>2026-04-24T10:49:26.492Z</time></trkpt><trkpt lat="39.8310633" lon="9.27975"><ele>828.0</ele><time>2026-04-24T10:49:28.492Z</time></trkpt><trkpt lat="39.8311633" lon="9.2797817"><ele>828.0</ele><time>2026-04-24T10:49:30.492Z</time></trkpt><trkpt lat="39.8312717" lon="9.2797483"><ele>828.0</ele><time>2026-04-24T10:49:32.491Z</time></trkpt><trkpt lat="39.83146" lon="9.2797267"><ele>828.0</ele><time>2026-04-24T10:49:35.491Z</time></trkpt><trkpt lat="39.8315833" lon="9.2797433"><ele>828.0</ele><time>2026-04-24T10:49:37.492Z</time></trkpt><trkpt lat="39.8316483" lon="9.2797533"><ele>828.0</ele><time>2026-04-24T10:49:38.491Z</time></trkpt><trkpt lat="39.8317217" lon="9.2797633"><ele>828.0</ele><time>2026-04-24T10:49:39.491Z</time></trkpt><trkpt lat="39.8317967" lon="9.2797717"><ele>828.0</ele><time>2026-04-24T10:49:40.491Z</time></trkpt><trkpt lat="39.8318767" lon="9.2797867"><ele>828.0</ele><time>2026-04-24T10:49:41.491Z</time></trkpt><trkpt lat="39.8319533" lon="9.2797983"><ele>830.8333333333334</ele><time>2026-04-24T10:49:42.492Z</time></trkpt><trkpt lat="39.832025" lon="9.2798133"><ele>833.6666666666667</ele><time>2026-04-24T10:49:43.491Z</time></trkpt><trkpt lat="39.832105" lon="9.2798283"><ele>836.5</ele><time>2026-04-24T10:49:44.491Z</time></trkpt><trkpt lat="39.8321783" lon="9.2798383"><ele>839.3333333333334</ele><time>2026-04-24T10:49:45.491Z</time></trkpt><trkpt lat="39.832255" lon="9.279855"><ele>842.1666666666667</ele><time>2026-04-24T10:49:46.491Z</time></trkpt><trkpt lat="39.8323433" lon="9.2798783"><ele>845.0</ele><time>2026-04-24T10:49:47.492Z</time></trkpt><trkpt lat="39.8324267" lon="9.2798967"><ele>845.0000000000001</ele><time>2026-04-24T10:49:48.491Z</time></trkpt><trkpt lat="39.83251" lon="9.279915"><ele>845.0</ele><time>2026-04-24T10:49:49.491Z</time></trkpt><trkpt lat="39.8325933" lon="9.2799433"><ele>845.0</ele><time>2026-04-24T10:49:50.491Z</time></trkpt><trkpt lat="39.83268" lon="9.2799767"><ele>845.0</ele><time>2026-04-24T10:49:51.491Z</time></trkpt><trkpt lat="39.832765" lon="9.2800167"><ele>845.0000000000001</ele><time>2026-04-24T10:49:52.491Z</time></trkpt><trkpt lat="39.8328517" lon="9.2800633"><ele>845.0</ele><time>2026-04-24T10:49:53.491Z</time></trkpt><trkpt lat="39.8330283" lon="9.2801267"><ele>846.0</ele><time>2026-04-24T10:49:55.491Z</time></trkpt><trkpt lat="39.8331317" lon="9.280155"><ele>847.0</ele><time>2026-04-24T10:49:56.491Z</time></trkpt><trkpt lat="39.8332317" lon="9.2801683"><ele>848.0</ele><time>2026-04-24T10:49:57.492Z</time></trkpt><trkpt lat="39.8333333" lon="9.2801817"><ele>849.0</ele><time>2026-04-24T10:49:58.491Z</time></trkpt><trkpt lat="39.8334317" lon="9.2801933"><ele>850.0</ele><time>2026-04-24T10:49:59.491Z</time></trkpt><trkpt lat="39.8335183" lon="9.2802133"><ele>851.8</ele><time>2026-04-24T10:50:00.491Z</time></trkpt><trkpt lat="39.8335983" lon="9.2802317"><ele>853.6</ele><time>2026-04-24T10:50:01.491Z</time></trkpt><trkpt lat="39.83368" lon="9.2802583"><ele>855.4000000000001</ele><time>2026-04-24T10:50:02.49Z</time></trkpt><trkpt lat="39.83377" lon="9.2802833"><ele>857.2</ele><time>2026-04-24T10:50:03.49Z</time></trkpt><trkpt lat="39.8338717" lon="9.2803067"><ele>859.0</ele><time>2026-04-24T10:50:04.49Z</time></trkpt><trkpt lat="39.8339783" lon="9.280325"><ele>859.0</ele><time>2026-04-24T10:50:05.491Z</time></trkpt><trkpt lat="39.834085" lon="9.280355"><ele>859.0000000000001</ele><time>2026-04-24T10:50:06.49Z</time></trkpt><trkpt lat="39.8341967" lon="9.2803867"><ele>859.0000000000001</ele><time>2026-04-24T10:50:07.49Z</time></trkpt><trkpt lat="39.8343033" lon="9.280405"><ele>859.0</ele><time>2026-04-24T10:50:08.49Z</time></trkpt><trkpt lat="39.83441" lon="9.2804333"><ele>859.0</ele><time>2026-04-24T10:50:09.491Z</time></trkpt><trkpt lat="39.8345133" lon="9.2804567"><ele>860.4000000000001</ele><time>2026-04-24T10:50:10.491Z</time></trkpt><trkpt lat="39.8346167" lon="9.28048"><ele>861.8000000000001</ele><time>2026-04-24T10:50:11.491Z</time></trkpt><trkpt lat="39.8347217" lon="9.2805167"><ele>863.1999999999999</ele><time>2026-04-24T10:50:12.491Z</time></trkpt><trkpt lat="39.8348317" lon="9.2805517"><ele>864.5999999999999</ele><time>2026-04-24T10:50:13.49Z</time></trkpt><trkpt lat="39.834935" lon="9.2805817"><ele>866.0</ele><time>2026-04-24T10:50:14.49Z</time></trkpt><trkpt lat="39.8351033" lon="9.280645"><ele>868.5000000000001</ele><time>2026-04-24T10:50:16.49Z</time></trkpt><trkpt lat="39.8351817" lon="9.2806917"><ele>871.0</ele><time>2026-04-24T10:50:17.491Z</time></trkpt><trkpt lat="39.8352567" lon="9.2807433"><ele>873.5</ele><time>2026-04-24T10:50:18.49Z</time></trkpt><trkpt lat="39.8353217" lon="9.2807967"><ele>876.0</ele><time>2026-04-24T10:50:19.491Z</time></trkpt><trkpt lat="39.8353833" lon="9.2808583"><ele>878.5000000000001</ele><time>2026-04-24T10:50:20.49Z</time></trkpt><trkpt lat="39.8354483" lon="9.2809217"><ele>881.0</ele><time>2026-04-24T10:50:21.491Z</time></trkpt><trkpt lat="39.835515" lon="9.2809883"><ele>881.0</ele><time>2026-04-24T10:50:22.491Z</time></trkpt><trkpt lat="39.8355783" lon="9.2810683"><ele>880.9999999999999</ele><time>2026-04-24T10:50:23.491Z</time></trkpt><trkpt lat="39.8356433" lon="9.2811533"><ele>880.9999999999999</ele><time>2026-04-24T10:50:24.49Z</time></trkpt><trkpt lat="39.83571" lon="9.28124"><ele>881.0</ele><time>2026-04-24T10:50:25.49Z</time></trkpt><trkpt lat="39.8357817" lon="9.2813233"><ele>881.0</ele><time>2026-04-24T10:50:26.49Z</time></trkpt><trkpt lat="39.83586" lon="9.2813983"><ele>880.1999999999999</ele><time>2026-04-24T10:50:27.491Z</time></trkpt><trkpt lat="39.83594" lon="9.281475"><ele>879.3999999999999</ele><time>2026-04-24T10:50:28.491Z</time></trkpt><trkpt lat="39.8360233" lon="9.2815533"><ele>878.6</ele><time>2026-04-24T10:50:29.49Z</time></trkpt><trkpt lat="39.8361167" lon="9.2816283"><ele>877.8</ele><time>2026-04-24T10:50:30.49Z</time></trkpt><trkpt lat="39.8362217" lon="9.28171"><ele>877.0</ele><time>2026-04-24T10:50:31.491Z</time></trkpt><trkpt lat="39.8363233" lon="9.2817883"><ele>880.5</ele><time>2026-04-24T10:50:32.49Z</time></trkpt><trkpt lat="39.8364267" lon="9.2818667"><ele>884.0</ele><time>2026-04-24T10:50:33.491Z</time></trkpt><trkpt lat="39.8365317" lon="9.2819417"><ele>887.5</ele><time>2026-04-24T10:50:34.491Z</time></trkpt><trkpt lat="39.8366333" lon="9.28201"><ele>891.0</ele><time>2026-04-24T10:50:35.491Z</time></trkpt><trkpt lat="39.8367983" lon="9.282125"><ele>890.6666666666666</ele><time>2026-04-24T10:50:37.49Z</time></trkpt><trkpt lat="39.83688" lon="9.28218"><ele>890.3333333333333</ele><time>2026-04-24T10:50:38.49Z</time></trkpt><trkpt lat="39.8369583" lon="9.2822317"><ele>890.0</ele><time>2026-04-24T10:50:39.491Z</time></trkpt><trkpt lat="39.837035" lon="9.2822733"><ele>889.6666666666666</ele><time>2026-04-24T10:50:40.49Z</time></trkpt><trkpt lat="39.8371033" lon="9.2823167"><ele>889.3333333333333</ele><time>2026-04-24T10:50:41.491Z</time></trkpt><trkpt lat="39.8371667" lon="9.2823583"><ele>889.0</ele><time>2026-04-24T10:50:42.49Z</time></trkpt><trkpt lat="39.83723" lon="9.2823933"><ele>889.9999999999999</ele><time>2026-04-24T10:50:43.491Z</time></trkpt><trkpt lat="39.8372917" lon="9.2824333"><ele>891.0</ele><time>2026-04-24T10:50:44.491Z</time></trkpt><trkpt lat="39.8373717" lon="9.2824933"><ele>892.0</ele><time>2026-04-24T10:50:46.491Z</time></trkpt><trkpt lat="39.83743" lon="9.2825317"><ele>893.0</ele><time>2026-04-24T10:50:48.491Z</time></trkpt><trkpt lat="39.8375083" lon="9.2825717"><ele>893.9999999999999</ele><time>2026-04-24T10:50:50.49Z</time></trkpt><trkpt lat="39.8375767" lon="9.2826033"><ele>895.0</ele><time>2026-04-24T10:50:52.49Z</time></trkpt><trkpt lat="39.837655" lon="9.2826867"><ele>896.3333333333333</ele><time>2026-04-24T10:51:09.491Z</time></trkpt><trkpt lat="39.83776" lon="9.2828"><ele>897.6666666666666</ele><time>2026-04-24T10:51:11.491Z</time></trkpt><trkpt lat="39.8378067" lon="9.2828583"><ele>899.0</ele><time>2026-04-24T10:51:12.49Z</time></trkpt><trkpt lat="39.8378617" lon="9.2829167"><ele>900.3333333333333</ele><time>2026-04-24T10:51:13.49Z</time></trkpt><trkpt lat="39.8379217" lon="9.2829683"><ele>901.6666666666666</ele><time>2026-04-24T10:51:14.491Z</time></trkpt><trkpt lat="39.837985" lon="9.28302"><ele>903.0</ele><time>2026-04-24T10:51:15.49Z</time></trkpt><trkpt lat="39.83805" lon="9.283075"><ele>905.2</ele><time>2026-04-24T10:51:16.491Z</time></trkpt><trkpt lat="39.8381233" lon="9.2831367"><ele>907.4</ele><time>2026-04-24T10:51:17.49Z</time></trkpt><trkpt lat="39.8382" lon="9.2832017"><ele>909.6000000000001</ele><time>2026-04-24T10:51:18.49Z</time></trkpt><trkpt lat="39.8382667" lon="9.28326"><ele>911.8000000000001</ele><time>2026-04-24T10:51:19.49Z</time></trkpt><trkpt lat="39.838375" lon="9.2833433"><ele>914.0</ele><time>2026-04-24T10:51:21.49Z</time></trkpt><trkpt lat="39.838435" lon="9.2833933"><ele>915.5000000000001</ele><time>2026-04-24T10:51:22.49Z</time></trkpt><trkpt lat="39.8384933" lon="9.28345"><ele>917.0</ele><time>2026-04-24T10:51:23.49Z</time></trkpt><trkpt lat="39.8385567" lon="9.2835067"><ele>918.5</ele><time>2026-04-24T10:51:24.491Z</time></trkpt><trkpt lat="39.8386183" lon="9.2835633"><ele>920.0</ele><time>2026-04-24T10:51:25.49Z</time></trkpt><trkpt lat="39.8386767" lon="9.28362"><ele>921.5000000000001</ele><time>2026-04-24T10:51:26.49Z</time></trkpt><trkpt lat="39.838735" lon="9.2836883"><ele>923.0</ele><time>2026-04-24T10:51:27.491Z</time></trkpt><trkpt lat="39.8388167" lon="9.283785"><ele>923.0</ele><time>2026-04-24T10:51:29.49Z</time></trkpt><trkpt lat="39.8388767" lon="9.283835"><ele>923.0</ele><time>2026-04-24T10:51:30.491Z</time></trkpt><trkpt lat="39.8390033" lon="9.2839567"><ele>923.0</ele><time>2026-04-24T10:51:32.49Z</time></trkpt><trkpt lat="39.8390767" lon="9.2840033"><ele>923.0</ele><time>2026-04-24T10:51:33.491Z</time></trkpt><trkpt lat="39.83915" lon="9.2840517"><ele>923.0</ele><time>2026-04-24T10:51:34.49Z</time></trkpt><trkpt lat="39.8392233" lon="9.2841067"><ele>924.5000000000001</ele><time>2026-04-24T10:51:35.491Z</time></trkpt><trkpt lat="39.839295" lon="9.2841633"><ele>926.0</ele><time>2026-04-24T10:51:36.491Z</time></trkpt><trkpt lat="39.8393583" lon="9.2842233"><ele>927.5</ele><time>2026-04-24T10:51:37.491Z</time></trkpt><trkpt lat="39.83942" lon="9.2842783"><ele>929.0</ele><time>2026-04-24T10:51:38.49Z</time></trkpt><trkpt lat="39.83948" lon="9.28434"><ele>930.5000000000001</ele><time>2026-04-24T10:51:39.491Z</time></trkpt><trkpt lat="39.8395333" lon="9.2843883"><ele>932.0</ele><time>2026-04-24T10:51:40.49Z</time></trkpt><trkpt lat="39.8396433" lon="9.284485"><ele>933.1666666666667</ele><time>2026-04-24T10:51:42.491Z</time></trkpt><trkpt lat="39.8397117" lon="9.28455"><ele>934.3333333333334</ele><time>2026-04-24T10:51:43.491Z</time></trkpt><trkpt lat="39.8397867" lon="9.28462"><ele>935.5</ele><time>2026-04-24T10:51:44.491Z</time></trkpt><trkpt lat="39.8398567" lon="9.2846967"><ele>936.6666666666667</ele><time>2026-04-24T10:51:45.49Z</time></trkpt><trkpt lat="39.83993" lon="9.2847683"><ele>937.8333333333334</ele><time>2026-04-24T10:51:46.49Z</time></trkpt><trkpt lat="39.8400017" lon="9.284835"><ele>939.0</ele><time>2026-04-24T10:51:47.49Z</time></trkpt><trkpt lat="39.8400633" lon="9.2848933"><ele>942.0</ele><time>2026-04-24T10:51:48.491Z</time></trkpt><trkpt lat="39.8401583" lon="9.284975"><ele>945.0000000000001</ele><time>2026-04-24T10:51:50.491Z</time></trkpt><trkpt lat="39.8402133" lon="9.2850217"><ele>948.0000000000001</ele><time>2026-04-24T10:51:51.49Z</time></trkpt><trkpt lat="39.84035" lon="9.2851467"><ele>951.0</ele><time>2026-04-24T10:51:53.491Z</time></trkpt><trkpt lat="39.8404283" lon="9.2852117"><ele>954.0</ele><time>2026-04-24T10:51:54.491Z</time></trkpt><trkpt lat="39.8404983" lon="9.2852767"><ele>954.0</ele><time>2026-04-24T10:51:55.49Z</time></trkpt><trkpt lat="39.840555" lon="9.285335"><ele>954.0</ele><time>2026-04-24T10:51:56.491Z</time></trkpt><trkpt lat="39.8406583" lon="9.2854167"><ele>954.0</ele><time>2026-04-24T10:51:58.49Z</time></trkpt><trkpt lat="39.8407117" lon="9.2854683"><ele>954.0</ele><time>2026-04-24T10:51:59.491Z</time></trkpt><trkpt lat="39.8407617" lon="9.28552"><ele>954.0</ele><time>2026-04-24T10:52:00.491Z</time></trkpt><trkpt lat="39.84082" lon="9.2855717"><ele>954.0</ele><time>2026-04-24T10:52:01.49Z</time></trkpt><trkpt lat="39.8408817" lon="9.2856283"><ele>955.3333333333334</ele><time>2026-04-24T10:52:02.49Z</time></trkpt><trkpt lat="39.8409433" lon="9.28569"><ele>956.6666666666667</ele><time>2026-04-24T10:52:03.49Z</time></trkpt><trkpt lat="39.841" lon="9.2857517"><ele>958.0</ele><time>2026-04-24T10:52:04.49Z</time></trkpt><trkpt lat="39.8410617" lon="9.2858117"><ele>959.3333333333334</ele><time>2026-04-24T10:52:05.49Z</time></trkpt><trkpt lat="39.84112" lon="9.285865"><ele>960.6666666666667</ele><time>2026-04-24T10:52:06.491Z</time></trkpt><trkpt lat="39.8411733" lon="9.2859167"><ele>962.0</ele><time>2026-04-24T10:52:07.49Z</time></trkpt><trkpt lat="39.8412817" lon="9.2859917"><ele>965.0</ele><time>2026-04-24T10:52:09.49Z</time></trkpt><trkpt lat="39.8414017" lon="9.286025"><ele>968.0</ele><time>2026-04-24T10:52:11.49Z</time></trkpt><trkpt lat="39.8414817" lon="9.2860883"><ele>971.0</ele><time>2026-04-24T10:52:13.49Z</time></trkpt><trkpt lat="39.8416583" lon="9.2862733"><ele>974.0</ele><time>2026-04-24T10:52:17.491Z</time></trkpt><trkpt lat="39.8417083" lon="9.2863333"><ele>974.0</ele><time>2026-04-24T10:52:19.49Z</time></trkpt><trkpt lat="39.841725" lon="9.286415"><ele>974.0000000000001</ele><time>2026-04-24T10:52:22.49Z</time></trkpt><trkpt lat="39.8417" lon="9.2865633"><ele>974.0000000000001</ele><time>2026-04-24T10:52:55.49Z</time></trkpt><trkpt lat="39.84168" lon="9.2867317"><ele>974.0</ele><time>2026-04-24T10:52:57.49Z</time></trkpt><trkpt lat="39.8416783" lon="9.2868217"><ele>974.0</ele><time>2026-04-24T10:52:58.49Z</time></trkpt><trkpt lat="39.841675" lon="9.2869133"><ele>975.2857142857143</ele><time>2026-04-24T10:52:59.491Z</time></trkpt><trkpt lat="39.8416733" lon="9.2870167"><ele>976.5714285714284</ele><time>2026-04-24T10:53:00.491Z</time></trkpt><trkpt lat="39.841665" lon="9.2871183"><ele>977.8571428571428</ele><time>2026-04-24T10:53:01.491Z</time></trkpt><trkpt lat="39.8416583" lon="9.2872133"><ele>979.1428571428571</ele><time>2026-04-24T10:53:02.49Z</time></trkpt><trkpt lat="39.8416567" lon="9.28731"><ele>980.4285714285713</ele><time>2026-04-24T10:53:03.491Z</time></trkpt><trkpt lat="39.8416517" lon="9.2874033"><ele>981.7142857142856</ele><time>2026-04-24T10:53:04.491Z</time></trkpt><trkpt lat="39.84165" lon="9.2874933"><ele>982.9999999999999</ele><time>2026-04-24T10:53:05.49Z</time></trkpt><trkpt lat="39.8416433" lon="9.28758"><ele>984.4285714285713</ele><time>2026-04-24T10:53:06.491Z</time></trkpt><trkpt lat="39.8416467" lon="9.287665"><ele>985.8571428571429</ele><time>2026-04-24T10:53:07.491Z</time></trkpt><trkpt lat="39.84166" lon="9.28775"><ele>987.2857142857142</ele><time>2026-04-24T10:53:08.49Z</time></trkpt><trkpt lat="39.84167" lon="9.2878433"><ele>988.7142857142857</ele><time>2026-04-24T10:53:09.491Z</time></trkpt><trkpt lat="39.8416733" lon="9.2879383"><ele>990.1428571428571</ele><time>2026-04-24T10:53:10.49Z</time></trkpt><trkpt lat="39.8416733" lon="9.2880383"><ele>991.5714285714286</ele><time>2026-04-24T10:53:11.491Z</time></trkpt><trkpt lat="39.8416683" lon="9.2881467"><ele>993.0</ele><time>2026-04-24T10:53:12.491Z</time></trkpt><trkpt lat="39.84166" lon="9.2882533"><ele>994.5999999999999</ele><time>2026-04-24T10:53:13.491Z</time></trkpt><trkpt lat="39.8416533" lon="9.28835"><ele>996.1999999999999</ele><time>2026-04-24T10:53:14.49Z</time></trkpt><trkpt lat="39.8416433" lon="9.28844"><ele>997.8</ele><time>2026-04-24T10:53:15.491Z</time></trkpt><trkpt lat="39.8416283" lon="9.288535"><ele>999.4</ele><time>2026-04-24T10:53:16.49Z</time></trkpt><trkpt lat="39.8415833" lon="9.28874"><ele>1001.0</ele><time>2026-04-24T10:53:18.49Z</time></trkpt><trkpt lat="39.84156" lon="9.2888367"><ele>1002.4285714285714</ele><time>2026-04-24T10:53:19.49Z</time></trkpt><trkpt lat="39.841535" lon="9.288935"><ele>1003.8571428571429</ele><time>2026-04-24T10:53:20.49Z</time></trkpt><trkpt lat="39.8415083" lon="9.2890317"><ele>1005.2857142857142</ele><time>2026-04-24T10:53:21.49Z</time></trkpt><trkpt lat="39.84148" lon="9.2891217"><ele>1006.7142857142857</ele><time>2026-04-24T10:53:22.491Z</time></trkpt><trkpt lat="39.8414583" lon="9.2892067"><ele>1008.1428571428571</ele><time>2026-04-24T10:53:23.49Z</time></trkpt><trkpt lat="39.8414383" lon="9.289285"><ele>1009.5714285714284</ele><time>2026-04-24T10:53:24.49Z</time></trkpt><trkpt lat="39.841415" lon="9.2893683"><ele>1010.9999999999999</ele><time>2026-04-24T10:53:25.49Z</time></trkpt><trkpt lat="39.8413883" lon="9.2894433"><ele>1010.9999999999999</ele><time>2026-04-24T10:53:26.49Z</time></trkpt><trkpt lat="39.8413567" lon="9.2895183"><ele>1011.0</ele><time>2026-04-24T10:53:27.49Z</time></trkpt><trkpt lat="39.841325" lon="9.2895933"><ele>1010.9999999999999</ele><time>2026-04-24T10:53:28.491Z</time></trkpt><trkpt lat="39.8412917" lon="9.2896717"><ele>1010.9999999999999</ele><time>2026-04-24T10:53:29.491Z</time></trkpt><trkpt lat="39.8412667" lon="9.2897517"><ele>1011.0</ele><time>2026-04-24T10:53:30.491Z</time></trkpt><trkpt lat="39.84125" lon="9.2898383"><ele>1010.9999999999999</ele><time>2026-04-24T10:53:31.49Z</time></trkpt><trkpt lat="39.8412417" lon="9.289925"><ele>1010.9999999999999</ele><time>2026-04-24T10:53:32.491Z</time></trkpt><trkpt lat="39.8412467" lon="9.29001"><ele>1012.4</ele><time>2026-04-24T10:53:33.491Z</time></trkpt><trkpt lat="39.8412583" lon="9.2900983"><ele>1013.8</ele><time>2026-04-24T10:53:34.491Z</time></trkpt><trkpt lat="39.8412883" lon="9.2902033"><ele>1015.1999999999999</ele><time>2026-04-24T10:53:36.491Z</time></trkpt><trkpt lat="39.8413133" lon="9.2902967"><ele>1016.5999999999999</ele><time>2026-04-24T10:53:39.491Z</time></trkpt><trkpt lat="39.8413717" lon="9.2904633"><ele>1018.0</ele><time>2026-04-24T10:53:44.49Z</time></trkpt><trkpt lat="39.84141" lon="9.290555"><ele>1017.4999999999999</ele><time>2026-04-24T10:53:46.491Z</time></trkpt><trkpt lat="39.8414483" lon="9.2906333"><ele>1017.0</ele><time>2026-04-24T10:53:48.491Z</time></trkpt><trkpt lat="39.841495" lon="9.290725"><ele>1016.5</ele><time>2026-04-24T10:53:51.491Z</time></trkpt><trkpt lat="39.84152" lon="9.290815"><ele>1016.0</ele><time>2026-04-24T10:53:53.491Z</time></trkpt><trkpt lat="39.8415483" lon="9.290935"><ele>1015.4999999999999</ele><time>2026-04-24T10:53:55.491Z</time></trkpt><trkpt lat="39.841585" lon="9.291055"><ele>1015.0</ele><time>2026-04-24T10:53:57.491Z</time></trkpt><trkpt lat="39.8416167" lon="9.29115"><ele>1015.0</ele><time>2026-04-24T10:53:59.491Z</time></trkpt><trkpt lat="39.8416467" lon="9.2912283"><ele>1015.0</ele><time>2026-04-24T10:54:01.491Z</time></trkpt><trkpt lat="39.8417033" lon="9.2914083"><ele>1015.0</ele><time>2026-04-24T10:54:05.491Z</time></trkpt><trkpt lat="39.8417417" lon="9.291525"><ele>1015.0</ele><time>2026-04-24T10:54:07.491Z</time></trkpt><trkpt lat="39.8417817" lon="9.2916517"><ele>1015.0</ele><time>2026-04-24T10:54:09.491Z</time></trkpt><trkpt lat="39.84183" lon="9.2917783"><ele>1014.1666666666666</ele><time>2026-04-24T10:54:11.49Z</time></trkpt><trkpt lat="39.841885" lon="9.291875"><ele>1013.3333333333333</ele><time>2026-04-24T10:54:13.491Z</time></trkpt><trkpt lat="39.841965" lon="9.2920017"><ele>1012.5</ele><time>2026-04-24T10:54:15.49Z</time></trkpt><trkpt lat="39.8420067" lon="9.292075"><ele>1011.6666666666667</ele><time>2026-04-24T10:54:16.491Z</time></trkpt><trkpt lat="39.8420533" lon="9.2921417"><ele>1010.8333333333334</ele><time>2026-04-24T10:54:17.49Z</time></trkpt><trkpt lat="39.8421" lon="9.2921983"><ele>1010.0</ele><time>2026-04-24T10:54:18.49Z</time></trkpt><trkpt lat="39.8421967" lon="9.292295"><ele>1010.0</ele><time>2026-04-24T10:54:20.49Z</time></trkpt><trkpt lat="39.8422483" lon="9.2923483"><ele>1010.0</ele><time>2026-04-24T10:54:21.49Z</time></trkpt><trkpt lat="39.8423017" lon="9.2924"><ele>1010.0</ele><time>2026-04-24T10:54:22.49Z</time></trkpt><trkpt lat="39.8423833" lon="9.2926317"><ele>1010.0</ele><time>2026-04-24T10:54:26.49Z</time></trkpt><trkpt lat="39.84241" lon="9.2927767"><ele>1010.0</ele><time>2026-04-24T10:54:28.491Z</time></trkpt><trkpt lat="39.8424533" lon="9.2928467"><ele>1010.0000000000001</ele><time>2026-04-24T10:54:29.491Z</time></trkpt><trkpt lat="39.8425067" lon="9.2928983"><ele>1010.0</ele><time>2026-04-24T10:54:30.49Z</time></trkpt><trkpt lat="39.8425617" lon="9.2929383"><ele>1010.0</ele><time>2026-04-24T10:54:31.491Z</time></trkpt><trkpt lat="39.8426583" lon="9.29302"><ele>1010.0</ele><time>2026-04-24T10:54:33.491Z</time></trkpt><trkpt lat="39.8427667" lon="9.2930733"><ele>1010.0000000000001</ele><time>2026-04-24T10:54:35.491Z</time></trkpt><trkpt lat="39.8428333" lon="9.293105"><ele>1010.0</ele><time>2026-04-24T10:54:36.491Z</time></trkpt><trkpt lat="39.8428917" lon="9.2931417"><ele>1012.2</ele><time>2026-04-24T10:54:37.491Z</time></trkpt><trkpt lat="39.8429533" lon="9.2931867"><ele>1014.4</ele><time>2026-04-24T10:54:39.49Z</time></trkpt><trkpt lat="39.8430417" lon="9.293165"><ele>1016.5999999999999</ele><time>2026-04-24T10:55:14.491Z</time></trkpt><trkpt lat="39.8432033" lon="9.2931483"><ele>1018.8</ele><time>2026-04-24T10:55:18.49Z</time></trkpt><trkpt lat="39.8433017" lon="9.293155"><ele>1021.0</ele><time>2026-04-24T10:55:20.491Z</time></trkpt><trkpt lat="39.8434233" lon="9.2931767"><ele>1021.8</ele><time>2026-04-24T10:55:22.49Z</time></trkpt><trkpt lat="39.8435433" lon="9.29322"><ele>1022.5999999999999</ele><time>2026-04-24T10:55:24.49Z</time></trkpt><trkpt lat="39.8436183" lon="9.2932533"><ele>1023.4</ele><time>2026-04-24T10:55:25.49Z</time></trkpt><trkpt lat="39.8437067" lon="9.2932867"><ele>1024.2</ele><time>2026-04-24T10:55:26.49Z</time></trkpt><trkpt lat="39.84381" lon="9.2933117"><ele>1025.0</ele><time>2026-04-24T10:55:27.49Z</time></trkpt><trkpt lat="39.8439133" lon="9.2933317"><ele>1025.0</ele><time>2026-04-24T10:55:28.49Z</time></trkpt><trkpt lat="39.8440067" lon="9.2933333"><ele>1025.0</ele><time>2026-04-24T10:55:29.49Z</time></trkpt><trkpt lat="39.844085" lon="9.293325"><ele>1025.0</ele><time>2026-04-24T10:55:30.49Z</time></trkpt><trkpt lat="39.84415" lon="9.2933"><ele>1025.0</ele><time>2026-04-24T10:55:31.49Z</time></trkpt><trkpt lat="39.8442117" lon="9.293245"><ele>1025.0</ele><time>2026-04-24T10:55:32.49Z</time></trkpt><trkpt lat="39.8442717" lon="9.293165"><ele>1025.0</ele><time>2026-04-24T10:55:33.491Z</time></trkpt><trkpt lat="39.84434" lon="9.2930733"><ele>1025.25</ele><time>2026-04-24T10:55:34.49Z</time></trkpt><trkpt lat="39.8444183" lon="9.292985"><ele>1025.5</ele><time>2026-04-24T10:55:35.491Z</time></trkpt><trkpt lat="39.8445717" lon="9.2928533"><ele>1025.75</ele><time>2026-04-24T10:55:37.491Z</time></trkpt><trkpt lat="39.844645" lon="9.292805"><ele>1026.0</ele><time>2026-04-24T10:55:38.491Z</time></trkpt><trkpt lat="39.8447217" lon="9.292765"><ele>1026.0</ele><time>2026-04-24T10:55:39.49Z</time></trkpt><trkpt lat="39.8448033" lon="9.2927283"><ele>1026.0</ele><time>2026-04-24T10:55:40.491Z</time></trkpt><trkpt lat="39.844885" lon="9.2927"><ele>1026.0</ele><time>2026-04-24T10:55:41.49Z</time></trkpt><trkpt lat="39.844965" lon="9.2926817"><ele>1026.0</ele><time>2026-04-24T10:55:42.491Z</time></trkpt><trkpt lat="39.845045" lon="9.2926783"><ele>1026.0</ele><time>2026-04-24T10:55:43.491Z</time></trkpt><trkpt lat="39.8451283" lon="9.2926967"><ele>1026.0</ele><time>2026-04-24T10:55:44.49Z</time></trkpt><trkpt lat="39.8452133" lon="9.2927317"><ele>1025.3999999999999</ele><time>2026-04-24T10:55:45.491Z</time></trkpt><trkpt lat="39.8453033" lon="9.2927767"><ele>1024.8</ele><time>2026-04-24T10:55:46.491Z</time></trkpt><trkpt lat="39.84539" lon="9.2928217"><ele>1024.1999999999998</ele><time>2026-04-24T10:55:47.491Z</time></trkpt><trkpt lat="39.8454783" lon="9.2928633"><ele>1023.5999999999999</ele><time>2026-04-24T10:55:48.49Z</time></trkpt><trkpt lat="39.8455717" lon="9.2929067"><ele>1023.0</ele><time>2026-04-24T10:55:49.491Z</time></trkpt><trkpt lat="39.8456683" lon="9.2929517"><ele>1023.0</ele><time>2026-04-24T10:55:50.49Z</time></trkpt><trkpt lat="39.8457717" lon="9.292995"><ele>1023.0</ele><time>2026-04-24T10:55:51.49Z</time></trkpt><trkpt lat="39.8458867" lon="9.293045"><ele>1023.0</ele><time>2026-04-24T10:55:52.49Z</time></trkpt><trkpt lat="39.846" lon="9.293085"><ele>1023.0</ele><time>2026-04-24T10:55:53.491Z</time></trkpt><trkpt lat="39.8461167" lon="9.2931233"><ele>1029.0</ele><time>2026-04-24T10:55:54.49Z</time></trkpt><trkpt lat="39.846225" lon="9.2931517"><ele>1035.0</ele><time>2026-04-24T10:55:55.491Z</time></trkpt><trkpt lat="39.8463333" lon="9.293175"><ele>1041.0</ele><time>2026-04-24T10:55:56.49Z</time></trkpt><trkpt lat="39.8465367" lon="9.293195"><ele>1047.0</ele><time>2026-04-24T10:55:58.49Z</time></trkpt><trkpt lat="39.8466417" lon="9.2931917"><ele>1047.0</ele><time>2026-04-24T10:55:59.49Z</time></trkpt><trkpt lat="39.8467517" lon="9.2931767"><ele>1047.0</ele><time>2026-04-24T10:56:00.49Z</time></trkpt><trkpt lat="39.8468567" lon="9.293155"><ele>1047.0</ele><time>2026-04-24T10:56:01.491Z</time></trkpt><trkpt lat="39.84695" lon="9.2931283"><ele>1047.0</ele><time>2026-04-24T10:56:02.491Z</time></trkpt><trkpt lat="39.847035" lon="9.29312"><ele>1047.0</ele><time>2026-04-24T10:56:03.49Z</time></trkpt><trkpt lat="39.8471283" lon="9.2931117"><ele>1048.2</ele><time>2026-04-24T10:56:04.491Z</time></trkpt><trkpt lat="39.84722" lon="9.2931"><ele>1049.4</ele><time>2026-04-24T10:56:05.49Z</time></trkpt><trkpt lat="39.847315" lon="9.293085"><ele>1050.6</ele><time>2026-04-24T10:56:06.49Z</time></trkpt><trkpt lat="39.8474117" lon="9.2930767"><ele>1051.8</ele><time>2026-04-24T10:56:07.49Z</time></trkpt><trkpt lat="39.8475033" lon="9.29307"><ele>1053.0</ele><time>2026-04-24T10:56:08.49Z</time></trkpt><trkpt lat="39.8475867" lon="9.2930733"><ele>1052.5</ele><time>2026-04-24T10:56:09.49Z</time></trkpt><trkpt lat="39.8476633" lon="9.293085"><ele>1052.0</ele><time>2026-04-24T10:56:10.491Z</time></trkpt><trkpt lat="39.8477433" lon="9.2931117"><ele>1051.5</ele><time>2026-04-24T10:56:11.491Z</time></trkpt><trkpt lat="39.8478167" lon="9.29314"><ele>1051.0</ele><time>2026-04-24T10:56:12.491Z</time></trkpt><trkpt lat="39.8478883" lon="9.2931667"><ele>1050.5</ele><time>2026-04-24T10:56:13.491Z</time></trkpt><trkpt lat="39.84796" lon="9.2932067"><ele>1050.0</ele><time>2026-04-24T10:56:14.491Z</time></trkpt><trkpt lat="39.8480317" lon="9.2932517"><ele>1052.5</ele><time>2026-04-24T10:56:15.491Z</time></trkpt><trkpt lat="39.8481267" lon="9.2933517"><ele>1055.0</ele><time>2026-04-24T10:56:17.491Z</time></trkpt><trkpt lat="39.8482633" lon="9.2935183"><ele>1057.5</ele><time>2026-04-24T10:56:22.491Z</time></trkpt><trkpt lat="39.8483683" lon="9.2934817"><ele>1060.0</ele><time>2026-04-24T10:56:24.49Z</time></trkpt><trkpt lat="39.8484817" lon="9.2934117"><ele>1062.1666666666665</ele><time>2026-04-24T10:56:26.49Z</time></trkpt><trkpt lat="39.8485417" lon="9.2933633"><ele>1064.3333333333333</ele><time>2026-04-24T10:56:27.491Z</time></trkpt><trkpt lat="39.848595" lon="9.293305"><ele>1066.5</ele><time>2026-04-24T10:56:28.491Z</time></trkpt><trkpt lat="39.8486467" lon="9.29323"><ele>1068.6666666666667</ele><time>2026-04-24T10:56:29.491Z</time></trkpt><trkpt lat="39.8486933" lon="9.293145"><ele>1070.8333333333335</ele><time>2026-04-24T10:56:30.49Z</time></trkpt><trkpt lat="39.8487433" lon="9.29306"><ele>1073.0</ele><time>2026-04-24T10:56:31.491Z</time></trkpt><trkpt lat="39.8487967" lon="9.2929683"><ele>1073.2</ele><time>2026-04-24T10:56:32.491Z</time></trkpt><trkpt lat="39.848855" lon="9.2928733"><ele>1073.4</ele><time>2026-04-24T10:56:33.491Z</time></trkpt><trkpt lat="39.84891" lon="9.29277"><ele>1073.6000000000001</ele><time>2026-04-24T10:56:34.491Z</time></trkpt><trkpt lat="39.8489633" lon="9.29266"><ele>1073.8</ele><time>2026-04-24T10:56:35.491Z</time></trkpt><trkpt lat="39.8490133" lon="9.2925533"><ele>1074.0</ele><time>2026-04-24T10:56:36.49Z</time></trkpt><trkpt lat="39.8490567" lon="9.292455"><ele>1074.0</ele><time>2026-04-24T10:56:37.49Z</time></trkpt><trkpt lat="39.8491" lon="9.29237"><ele>1074.0</ele><time>2026-04-24T10:56:38.49Z</time></trkpt><trkpt lat="39.8492" lon="9.2922417"><ele>1074.0</ele><time>2026-04-24T10:56:40.49Z</time></trkpt><trkpt lat="39.8492617" lon="9.29219"><ele>1074.0</ele><time>2026-04-24T10:56:41.491Z</time></trkpt><trkpt lat="39.84933" lon="9.29213"><ele>1074.0</ele><time>2026-04-24T10:56:42.491Z</time></trkpt><trkpt lat="39.8493933" lon="9.2920583"><ele>1077.8</ele><time>2026-04-24T10:56:43.49Z</time></trkpt><trkpt lat="39.849465" lon="9.29198"><ele>1081.6000000000001</ele><time>2026-04-24T10:56:44.49Z</time></trkpt><trkpt lat="39.8495367" lon="9.2918967"><ele>1085.4</ele><time>2026-04-24T10:56:45.49Z</time></trkpt><trkpt lat="39.8496067" lon="9.29181"><ele>1089.2</ele><time>2026-04-24T10:56:46.49Z</time></trkpt><trkpt lat="39.849675" lon="9.29172"><ele>1093.0</ele><time>2026-04-24T10:56:47.49Z</time></trkpt><trkpt lat="39.8497433" lon="9.291625"><ele>1093.0</ele><time>2026-04-24T10:56:48.491Z</time></trkpt><trkpt lat="39.8498133" lon="9.291525"><ele>1093.0</ele><time>2026-04-24T10:56:49.491Z</time></trkpt><trkpt lat="39.849875" lon="9.2914383"><ele>1093.0</ele><time>2026-04-24T10:56:50.491Z</time></trkpt><trkpt lat="39.849935" lon="9.2913517"><ele>1093.0</ele><time>2026-04-24T10:56:51.491Z</time></trkpt><trkpt lat="39.8499967" lon="9.29126"><ele>1093.0</ele><time>2026-04-24T10:56:52.491Z</time></trkpt><trkpt lat="39.8500533" lon="9.2911817"><ele>1093.3333333333333</ele><time>2026-04-24T10:56:53.491Z</time></trkpt><trkpt lat="39.8501117" lon="9.29111"><ele>1093.6666666666665</ele><time>2026-04-24T10:56:54.49Z</time></trkpt><trkpt lat="39.8501767" lon="9.29105"><ele>1094.0</ele><time>2026-04-24T10:56:55.49Z</time></trkpt><trkpt lat="39.8502417" lon="9.2909917"><ele>1094.3333333333333</ele><time>2026-04-24T10:56:56.491Z</time></trkpt><trkpt lat="39.850315" lon="9.2909417"><ele>1094.6666666666667</ele><time>2026-04-24T10:56:57.49Z</time></trkpt><trkpt lat="39.8503817" lon="9.290905"><ele>1095.0</ele><time>2026-04-24T10:56:58.49Z</time></trkpt><trkpt lat="39.85045" lon="9.2908883"><ele>1095.0</ele><time>2026-04-24T10:56:59.491Z</time></trkpt><trkpt lat="39.850605" lon="9.29091"><ele>1095.0</ele><time>2026-04-24T10:57:01.491Z</time></trkpt><trkpt lat="39.85069" lon="9.2909333"><ele>1095.0</ele><time>2026-04-24T10:57:02.49Z</time></trkpt><trkpt lat="39.85078" lon="9.290965"><ele>1095.0</ele><time>2026-04-24T10:57:03.49Z</time></trkpt><trkpt lat="39.850875" lon="9.291005"><ele>1095.0</ele><time>2026-04-24T10:57:04.491Z</time></trkpt><trkpt lat="39.8509683" lon="9.2910467"><ele>1096.0</ele><time>2026-04-24T10:57:05.491Z</time></trkpt><trkpt lat="39.85105" lon="9.29109"><ele>1097.0</ele><time>2026-04-24T10:57:06.49Z</time></trkpt><trkpt lat="39.8511183" lon="9.2911333"><ele>1098.0</ele><time>2026-04-24T10:57:07.49Z</time></trkpt><trkpt lat="39.851175" lon="9.291175"><ele>1099.0</ele><time>2026-04-24T10:57:08.491Z</time></trkpt><trkpt lat="39.8512433" lon="9.291285"><ele>1100.0</ele><time>2026-04-24T10:57:10.49Z</time></trkpt><trkpt lat="39.8512817" lon="9.291445"><ele>1100.0</ele><time>2026-04-24T10:57:12.491Z</time></trkpt><trkpt lat="39.8513017" lon="9.2915333"><ele>1100.0</ele><time>2026-04-24T10:57:13.491Z</time></trkpt><trkpt lat="39.851315" lon="9.2916167"><ele>1100.0</ele><time>2026-04-24T10:57:14.491Z</time></trkpt><trkpt lat="39.8513217" lon="9.2917617"><ele>1100.0</ele><time>2026-04-24T10:57:16.491Z</time></trkpt><trkpt lat="39.85129" lon="9.2919"><ele>1100.0</ele><time>2026-04-24T10:57:18.491Z</time></trkpt><trkpt lat="39.8512483" lon="9.291995"><ele>1100.0</ele><time>2026-04-24T10:57:20.491Z</time></trkpt><trkpt lat="39.85106" lon="9.292055"><ele>1100.0</ele><time>2026-04-24T10:57:24.491Z</time></trkpt><trkpt lat="39.850975" lon="9.2920583"><ele>1100.0</ele><time>2026-04-24T10:57:26.491Z</time></trkpt><trkpt lat="39.8509083" lon="9.2920283"><ele>1100.0</ele><time>2026-04-24T10:57:41.49Z</time></trkpt><trkpt lat="39.8507233" lon="9.2918917"><ele>1100.0</ele><time>2026-04-24T10:57:45.49Z</time></trkpt><trkpt lat="39.850675" lon="9.291815"><ele>1100.0</ele><time>2026-04-24T10:57:47.49Z</time></trkpt><trkpt lat="39.8506567" lon="9.29173"><ele>1100.0</ele><time>2026-04-24T10:57:49.49Z</time></trkpt><trkpt lat="39.8506833" lon="9.2918067"><ele>1100.0</ele><time>2026-04-24T11:42:00.485Z</time></trkpt><trkpt lat="39.8507817" lon="9.291925"><ele>1100.0</ele><time>2026-04-24T11:42:04.485Z</time></trkpt><trkpt lat="39.8508383" lon="9.2919667"><ele>1100.0</ele><time>2026-04-24T11:42:06.485Z</time></trkpt><trkpt lat="39.8509333" lon="9.2920117"><ele>1100.0</ele><time>2026-04-24T11:42:08.485Z</time></trkpt><trkpt lat="39.8510367" lon="9.2920317"><ele>1100.0</ele><time>2026-04-24T11:42:10.485Z</time></trkpt><trkpt lat="39.851125" lon="9.292025"><ele>1100.0</ele><time>2026-04-24T11:42:12.484Z</time></trkpt><trkpt lat="39.8512217" lon="9.2920267"><ele>1100.0</ele><time>2026-04-24T11:42:14.485Z</time></trkpt><trkpt lat="39.8513233" lon="9.2920817"><ele>1100.0</ele><time>2026-04-24T11:42:16.484Z</time></trkpt><trkpt lat="39.8514217" lon="9.292165"><ele>1100.0</ele><time>2026-04-24T11:42:18.485Z</time></trkpt><trkpt lat="39.851505" lon="9.2922617"><ele>1099.25</ele><time>2026-04-24T11:42:20.485Z</time></trkpt><trkpt lat="39.8515467" lon="9.2923267"><ele>1098.5</ele><time>2026-04-24T11:42:21.485Z</time></trkpt><trkpt lat="39.85168" lon="9.2925467"><ele>1097.75</ele><time>2026-04-24T11:42:25.484Z</time></trkpt><trkpt lat="39.851735" lon="9.29263"><ele>1097.0</ele><time>2026-04-24T11:42:27.484Z</time></trkpt><trkpt lat="39.8518167" lon="9.2927583"><ele>1097.0</ele><time>2026-04-24T11:42:29.484Z</time></trkpt><trkpt lat="39.85186" lon="9.2928267"><ele>1097.0</ele><time>2026-04-24T11:42:30.484Z</time></trkpt><trkpt lat="39.8519117" lon="9.2928933"><ele>1097.0</ele><time>2026-04-24T11:42:31.485Z</time></trkpt><trkpt lat="39.8519733" lon="9.29297"><ele>1097.0</ele><time>2026-04-24T11:42:32.484Z</time></trkpt><trkpt lat="39.8520333" lon="9.29305"><ele>1097.0</ele><time>2026-04-24T11:42:33.485Z</time></trkpt><trkpt lat="39.852095" lon="9.2931217"><ele>1097.0</ele><time>2026-04-24T11:42:34.485Z</time></trkpt><trkpt lat="39.85216" lon="9.2932"><ele>1096.5</ele><time>2026-04-24T11:42:35.485Z</time></trkpt><trkpt lat="39.8522233" lon="9.2932833"><ele>1096.0</ele><time>2026-04-24T11:42:36.484Z</time></trkpt><trkpt lat="39.85229" lon="9.29336"><ele>1095.5</ele><time>2026-04-24T11:42:37.485Z</time></trkpt><trkpt lat="39.852355" lon="9.2934467"><ele>1095.0</ele><time>2026-04-24T11:42:38.485Z</time></trkpt><trkpt lat="39.8524067" lon="9.29353"><ele>1094.5</ele><time>2026-04-24T11:42:39.485Z</time></trkpt><trkpt lat="39.8524633" lon="9.2936233"><ele>1094.0</ele><time>2026-04-24T11:42:40.484Z</time></trkpt><trkpt lat="39.852515" lon="9.2937083"><ele>1094.0</ele><time>2026-04-24T11:42:41.485Z</time></trkpt><trkpt lat="39.8525633" lon="9.2938"><ele>1094.0</ele><time>2026-04-24T11:42:42.485Z</time></trkpt><trkpt lat="39.85266" lon="9.2939833"><ele>1094.0</ele><time>2026-04-24T11:42:44.485Z</time></trkpt><trkpt lat="39.8527083" lon="9.29407"><ele>1094.0</ele><time>2026-04-24T11:42:45.484Z</time></trkpt><trkpt lat="39.8527583" lon="9.2941517"><ele>1094.0</ele><time>2026-04-24T11:42:46.485Z</time></trkpt><trkpt lat="39.8528067" lon="9.2942383"><ele>1091.8333333333335</ele><time>2026-04-24T11:42:47.484Z</time></trkpt><trkpt lat="39.8528617" lon="9.294325"><ele>1089.6666666666667</ele><time>2026-04-24T11:42:48.484Z</time></trkpt><trkpt lat="39.85291" lon="9.2944083"><ele>1087.5</ele><time>2026-04-24T11:42:49.485Z</time></trkpt><trkpt lat="39.8529533" lon="9.2944883"><ele>1085.3333333333333</ele><time>2026-04-24T11:42:50.484Z</time></trkpt><trkpt lat="39.852995" lon="9.294575"><ele>1083.1666666666665</ele><time>2026-04-24T11:42:51.484Z</time></trkpt><trkpt lat="39.8530283" lon="9.2946583"><ele>1081.0</ele><time>2026-04-24T11:42:52.484Z</time></trkpt><trkpt lat="39.853065" lon="9.29474"><ele>1079.8333333333333</ele><time>2026-04-24T11:42:53.484Z</time></trkpt><trkpt lat="39.853105" lon="9.2948183"><ele>1078.6666666666665</ele><time>2026-04-24T11:42:54.484Z</time></trkpt><trkpt lat="39.8531567" lon="9.29489"><ele>1077.5</ele><time>2026-04-24T11:42:55.485Z</time></trkpt><trkpt lat="39.8532183" lon="9.2949667"><ele>1076.3333333333333</ele><time>2026-04-24T11:42:56.485Z</time></trkpt><trkpt lat="39.8532817" lon="9.2950383"><ele>1075.1666666666667</ele><time>2026-04-24T11:42:57.484Z</time></trkpt><trkpt lat="39.8533433" lon="9.2951083"><ele>1074.0</ele><time>2026-04-24T11:42:58.484Z</time></trkpt><trkpt lat="39.8534" lon="9.2951767"><ele>1074.0</ele><time>2026-04-24T11:42:59.484Z</time></trkpt><trkpt lat="39.8534533" lon="9.2952483"><ele>1074.0</ele><time>2026-04-24T11:43:00.485Z</time></trkpt><trkpt lat="39.853505" lon="9.2953333"><ele>1074.0</ele><time>2026-04-24T11:43:01.484Z</time></trkpt><trkpt lat="39.8535583" lon="9.2954083"><ele>1074.0</ele><time>2026-04-24T11:43:02.485Z</time></trkpt><trkpt lat="39.85361" lon="9.2954717"><ele>1074.0</ele><time>2026-04-24T11:43:03.485Z</time></trkpt><trkpt lat="39.8537533" lon="9.2955767"><ele>1072.1666666666667</ele><time>2026-04-24T11:43:05.485Z</time></trkpt><trkpt lat="39.8538383" lon="9.29563"><ele>1070.3333333333333</ele><time>2026-04-24T11:43:06.484Z</time></trkpt><trkpt lat="39.8539283" lon="9.2956767"><ele>1068.5</ele><time>2026-04-24T11:43:07.485Z</time></trkpt><trkpt lat="39.85401" lon="9.2957167"><ele>1066.6666666666665</ele><time>2026-04-24T11:43:08.485Z</time></trkpt><trkpt lat="39.8540867" lon="9.295735"><ele>1064.8333333333333</ele><time>2026-04-24T11:43:09.484Z</time></trkpt><trkpt lat="39.8541683" lon="9.2957367"><ele>1063.0</ele><time>2026-04-24T11:43:10.484Z</time></trkpt><trkpt lat="39.8542517" lon="9.2957117"><ele>1063.0</ele><time>2026-04-24T11:43:11.484Z</time></trkpt><trkpt lat="39.8543317" lon="9.2956767"><ele>1063.0</ele><time>2026-04-24T11:43:12.484Z</time></trkpt><trkpt lat="39.8544217" lon="9.29565"><ele>1063.0</ele><time>2026-04-24T11:43:13.485Z</time></trkpt><trkpt lat="39.8545133" lon="9.29563"><ele>1063.0</ele><time>2026-04-24T11:43:14.485Z</time></trkpt><trkpt lat="39.8546083" lon="9.2956117"><ele>1063.0</ele><time>2026-04-24T11:43:15.485Z</time></trkpt><trkpt lat="39.854715" lon="9.2955867"><ele>1063.5</ele><time>2026-04-24T11:43:16.484Z</time></trkpt><trkpt lat="39.8548283" lon="9.2955633"><ele>1064.0</ele><time>2026-04-24T11:43:17.485Z</time></trkpt><trkpt lat="39.8549367" lon="9.2955433"><ele>1064.5</ele><time>2026-04-24T11:43:18.484Z</time></trkpt><trkpt lat="39.855045" lon="9.2955167"><ele>1065.0</ele><time>2026-04-24T11:43:19.484Z</time></trkpt><trkpt lat="39.85516" lon="9.2954683"><ele>1065.0</ele><time>2026-04-24T11:43:20.484Z</time></trkpt><trkpt lat="39.8552667" lon="9.2954083"><ele>1065.0</ele><time>2026-04-24T11:43:21.485Z</time></trkpt><trkpt lat="39.8553733" lon="9.2953483"><ele>1065.0</ele><time>2026-04-24T11:43:22.485Z</time></trkpt><trkpt lat="39.8554817" lon="9.295285"><ele>1065.0</ele><time>2026-04-24T11:43:23.485Z</time></trkpt><trkpt lat="39.8555933" lon="9.29522"><ele>1065.0</ele><time>2026-04-24T11:43:24.484Z</time></trkpt><trkpt lat="39.8557833" lon="9.2950667"><ele>1065.0</ele><time>2026-04-24T11:43:26.484Z</time></trkpt><trkpt lat="39.855875" lon="9.2949767"><ele>1065.0</ele><time>2026-04-24T11:43:27.484Z</time></trkpt><trkpt lat="39.8559683" lon="9.294885"><ele>1066.4</ele><time>2026-04-24T11:43:28.484Z</time></trkpt><trkpt lat="39.8560533" lon="9.2948033"><ele>1067.8</ele><time>2026-04-24T11:43:29.485Z</time></trkpt><trkpt lat="39.856135" lon="9.2947217"><ele>1069.2</ele><time>2026-04-24T11:43:30.485Z</time></trkpt><trkpt lat="39.8562183" lon="9.2946483"><ele>1070.6</ele><time>2026-04-24T11:43:31.484Z</time></trkpt><trkpt lat="39.8562833" lon="9.2945833"><ele>1072.0</ele><time>2026-04-24T11:43:32.485Z</time></trkpt><trkpt lat="39.856345" lon="9.294525"><ele>1072.0</ele><time>2026-04-24T11:43:33.484Z</time></trkpt><trkpt lat="39.8564083" lon="9.294475"><ele>1072.0</ele><time>2026-04-24T11:43:34.485Z</time></trkpt><trkpt lat="39.8564633" lon="9.2944333"><ele>1072.0</ele><time>2026-04-24T11:43:35.484Z</time></trkpt><trkpt lat="39.8565233" lon="9.2943817"><ele>1072.0</ele><time>2026-04-24T11:43:36.485Z</time></trkpt><trkpt lat="39.856585" lon="9.2943267"><ele>1072.0</ele><time>2026-04-24T11:43:37.485Z</time></trkpt><trkpt lat="39.856655" lon="9.2942683"><ele>1072.0</ele><time>2026-04-24T11:43:38.485Z</time></trkpt><trkpt lat="39.8567217" lon="9.2942167"><ele>1072.0</ele><time>2026-04-24T11:43:39.485Z</time></trkpt><trkpt lat="39.85679" lon="9.294175"><ele>1073.0</ele><time>2026-04-24T11:43:40.484Z</time></trkpt><trkpt lat="39.856865" lon="9.2941433"><ele>1074.0</ele><time>2026-04-24T11:43:41.484Z</time></trkpt><trkpt lat="39.8569417" lon="9.2941183"><ele>1075.0</ele><time>2026-04-24T11:43:42.484Z</time></trkpt><trkpt lat="39.8570233" lon="9.29408"><ele>1076.0</ele><time>2026-04-24T11:43:43.485Z</time></trkpt><trkpt lat="39.8570933" lon="9.29403"><ele>1077.0</ele><time>2026-04-24T11:43:44.485Z</time></trkpt><trkpt lat="39.8571633" lon="9.2939733"><ele>1078.0</ele><time>2026-04-24T11:43:45.484Z</time></trkpt><trkpt lat="39.857325" lon="9.2938517"><ele>1078.4</ele><time>2026-04-24T11:43:47.484Z</time></trkpt><trkpt lat="39.8574083" lon="9.293785"><ele>1078.8</ele><time>2026-04-24T11:43:48.485Z</time></trkpt><trkpt lat="39.85749" lon="9.293715"><ele>1079.2</ele><time>2026-04-24T11:43:49.484Z</time></trkpt><trkpt lat="39.85757" lon="9.293635"><ele>1079.6</ele><time>2026-04-24T11:43:50.485Z</time></trkpt><trkpt lat="39.85765" lon="9.2935567"><ele>1080.0</ele><time>2026-04-24T11:43:51.485Z</time></trkpt><trkpt lat="39.8577217" lon="9.2934933"><ele>1081.1666666666667</ele><time>2026-04-24T11:43:52.485Z</time></trkpt><trkpt lat="39.8577917" lon="9.2934433"><ele>1082.3333333333333</ele><time>2026-04-24T11:43:53.484Z</time></trkpt><trkpt lat="39.85786" lon="9.293395"><ele>1083.5</ele><time>2026-04-24T11:43:54.484Z</time></trkpt><trkpt lat="39.8579217" lon="9.2933617"><ele>1084.6666666666665</ele><time>2026-04-24T11:43:55.485Z</time></trkpt><trkpt lat="39.8580483" lon="9.293305"><ele>1085.8333333333333</ele><time>2026-04-24T11:43:57.485Z</time></trkpt><trkpt lat="39.8581267" lon="9.2932617"><ele>1087.0</ele><time>2026-04-24T11:43:58.484Z</time></trkpt><trkpt lat="39.8582133" lon="9.2932283"><ele>1087.0</ele><time>2026-04-24T11:43:59.485Z</time></trkpt><trkpt lat="39.858285" lon="9.2931967"><ele>1087.0</ele><time>2026-04-24T11:44:00.484Z</time></trkpt><trkpt lat="39.8583583" lon="9.2931667"><ele>1087.0</ele><time>2026-04-24T11:44:01.484Z</time></trkpt><trkpt lat="39.8584217" lon="9.2931183"><ele>1087.0</ele><time>2026-04-24T11:44:02.485Z</time></trkpt><trkpt lat="39.8584833" lon="9.2930633"><ele>1087.0</ele><time>2026-04-24T11:44:03.484Z</time></trkpt><trkpt lat="39.8585417" lon="9.292995"><ele>1087.0</ele><time>2026-04-24T11:44:04.484Z</time></trkpt><trkpt lat="39.8585933" lon="9.2929167"><ele>1086.0</ele><time>2026-04-24T11:44:05.485Z</time></trkpt><trkpt lat="39.8586367" lon="9.2928267"><ele>1085.0</ele><time>2026-04-24T11:44:06.484Z</time></trkpt><trkpt lat="39.8587167" lon="9.2926517"><ele>1084.0</ele><time>2026-04-24T11:44:08.485Z</time></trkpt><trkpt lat="39.8587583" lon="9.2925683"><ele>1083.0</ele><time>2026-04-24T11:44:09.484Z</time></trkpt><trkpt lat="39.858815" lon="9.2924917"><ele>1082.0</ele><time>2026-04-24T11:44:10.485Z</time></trkpt><trkpt lat="39.8588733" lon="9.29241"><ele>1082.0</ele><time>2026-04-24T11:44:11.485Z</time></trkpt><trkpt lat="39.8589267" lon="9.29233"><ele>1082.0</ele><time>2026-04-24T11:44:12.484Z</time></trkpt><trkpt lat="39.8589633" lon="9.2922517"><ele>1082.0</ele><time>2026-04-24T11:44:13.485Z</time></trkpt><trkpt lat="39.8589883" lon="9.2921683"><ele>1082.0</ele><time>2026-04-24T11:44:14.485Z</time></trkpt><trkpt lat="39.859015" lon="9.2920867"><ele>1082.0</ele><time>2026-04-24T11:44:15.485Z</time></trkpt><trkpt lat="39.8590467" lon="9.292015"><ele>1082.0</ele><time>2026-04-24T11:44:16.484Z</time></trkpt><trkpt lat="39.8591417" lon="9.2918867"><ele>1082.5</ele><time>2026-04-24T11:44:18.485Z</time></trkpt><trkpt lat="39.859195" lon="9.2918183"><ele>1083.0</ele><time>2026-04-24T11:44:19.485Z</time></trkpt><trkpt lat="39.859245" lon="9.2917433"><ele>1083.5</ele><time>2026-04-24T11:44:20.485Z</time></trkpt><trkpt lat="39.8593033" lon="9.2916783"><ele>1084.0</ele><time>2026-04-24T11:44:21.484Z</time></trkpt><trkpt lat="39.8593583" lon="9.2916267"><ele>1084.5</ele><time>2026-04-24T11:44:22.484Z</time></trkpt><trkpt lat="39.85941" lon="9.291575"><ele>1085.0</ele><time>2026-04-24T11:44:23.485Z</time></trkpt><trkpt lat="39.859505" lon="9.2914983"><ele>1085.75</ele><time>2026-04-24T11:44:25.484Z</time></trkpt><trkpt lat="39.8596133" lon="9.2914267"><ele>1086.5</ele><time>2026-04-24T11:44:27.485Z</time></trkpt><trkpt lat="39.859785" lon="9.29129"><ele>1087.25</ele><time>2026-04-24T11:44:30.484Z</time></trkpt><trkpt lat="39.85984" lon="9.291225"><ele>1088.0</ele><time>2026-04-24T11:44:31.484Z</time></trkpt><trkpt lat="39.85989" lon="9.2911533"><ele>1088.0</ele><time>2026-04-24T11:44:32.485Z</time></trkpt><trkpt lat="39.8599333" lon="9.2910733"><ele>1088.0</ele><time>2026-04-24T11:44:33.485Z</time></trkpt><trkpt lat="39.85998" lon="9.290995"><ele>1088.0</ele><time>2026-04-24T11:44:34.485Z</time></trkpt><trkpt lat="39.8600333" lon="9.290915"><ele>1088.0</ele><time>2026-04-24T11:44:35.484Z</time></trkpt><trkpt lat="39.8600967" lon="9.29084"><ele>1088.0</ele><time>2026-04-24T11:44:36.485Z</time></trkpt><trkpt lat="39.8601733" lon="9.2907767"><ele>1088.0</ele><time>2026-04-24T11:44:37.484Z</time></trkpt><trkpt lat="39.8602433" lon="9.29071"><ele>1088.2857142857142</ele><time>2026-04-24T11:44:38.485Z</time></trkpt><trkpt lat="39.8602933" lon="9.290645"><ele>1088.5714285714284</ele><time>2026-04-24T11:44:39.485Z</time></trkpt><trkpt lat="39.86033" lon="9.2905717"><ele>1088.857142857143</ele><time>2026-04-24T11:44:40.485Z</time></trkpt><trkpt lat="39.8603567" lon="9.29049"><ele>1089.142857142857</ele><time>2026-04-24T11:44:41.484Z</time></trkpt><trkpt lat="39.8603633" lon="9.2904033"><ele>1089.4285714285716</ele><time>2026-04-24T11:44:42.484Z</time></trkpt><trkpt lat="39.8603733" lon="9.290315"><ele>1089.7142857142858</ele><time>2026-04-24T11:44:43.485Z</time></trkpt><trkpt lat="39.860395" lon="9.2902183"><ele>1090.0</ele><time>2026-04-24T11:44:44.484Z</time></trkpt><trkpt lat="39.8604367" lon="9.2901333"><ele>1090.0</ele><time>2026-04-24T11:44:45.484Z</time></trkpt><trkpt lat="39.86049" lon="9.2900417"><ele>1090.0</ele><time>2026-04-24T11:44:46.485Z</time></trkpt><trkpt lat="39.8605533" lon="9.28995"><ele>1090.0</ele><time>2026-04-24T11:44:47.484Z</time></trkpt><trkpt lat="39.8606217" lon="9.289885"><ele>1090.0</ele><time>2026-04-24T11:44:48.485Z</time></trkpt><trkpt lat="39.8607783" lon="9.2897617"><ele>1090.0</ele><time>2026-04-24T11:44:50.485Z</time></trkpt><trkpt lat="39.860845" lon="9.2896933"><ele>1090.0</ele><time>2026-04-24T11:44:51.485Z</time></trkpt><trkpt lat="39.8608967" lon="9.2896083"><ele>1090.0</ele><time>2026-04-24T11:44:52.484Z</time></trkpt><trkpt lat="39.8609317" lon="9.2895333"><ele>1090.0</ele><time>2026-04-24T11:44:53.485Z</time></trkpt><trkpt lat="39.8609767" lon="9.289475"><ele>1090.0</ele><time>2026-04-24T11:44:54.485Z</time></trkpt><trkpt lat="39.8610317" lon="9.2894317"><ele>1090.0</ele><time>2026-04-24T11:44:55.484Z</time></trkpt><trkpt lat="39.861105" lon="9.2894083"><ele>1090.0</ele><time>2026-04-24T11:44:56.484Z</time></trkpt><trkpt lat="39.8611883" lon="9.2893833"><ele>1090.0</ele><time>2026-04-24T11:44:57.485Z</time></trkpt><trkpt lat="39.8612633" lon="9.2893483"><ele>1090.0</ele><time>2026-04-24T11:44:58.484Z</time></trkpt><trkpt lat="39.8613317" lon="9.2893"><ele>1090.0</ele><time>2026-04-24T11:44:59.484Z</time></trkpt><trkpt lat="39.8614" lon="9.2892367"><ele>1090.0</ele><time>2026-04-24T11:45:00.484Z</time></trkpt><trkpt lat="39.86146" lon="9.28916"><ele>1090.0</ele><time>2026-04-24T11:45:01.484Z</time></trkpt><trkpt lat="39.861525" lon="9.2890783"><ele>1090.0</ele><time>2026-04-24T11:45:02.484Z</time></trkpt><trkpt lat="39.8615867" lon="9.289015"><ele>1090.0</ele><time>2026-04-24T11:45:03.485Z</time></trkpt><trkpt lat="39.8616517" lon="9.2889617"><ele>1090.0</ele><time>2026-04-24T11:45:04.484Z</time></trkpt><trkpt lat="39.86172" lon="9.2889283"><ele>1090.0</ele><time>2026-04-24T11:45:05.485Z</time></trkpt><trkpt lat="39.861795" lon="9.2889"><ele>1090.0</ele><time>2026-04-24T11:45:06.484Z</time></trkpt><trkpt lat="39.8618733" lon="9.288885"><ele>1090.0</ele><time>2026-04-24T11:45:07.485Z</time></trkpt><trkpt lat="39.861945" lon="9.28888"><ele>1090.0</ele><time>2026-04-24T11:45:08.484Z</time></trkpt><trkpt lat="39.8620067" lon="9.28886"><ele>1090.0</ele><time>2026-04-24T11:45:09.484Z</time></trkpt><trkpt lat="39.8622133" lon="9.2887267"><ele>1089.5</ele><time>2026-04-24T11:45:13.484Z</time></trkpt><trkpt lat="39.862335" lon="9.2887233"><ele>1089.0</ele><time>2026-04-24T11:45:15.484Z</time></trkpt><trkpt lat="39.862405" lon="9.2887183"><ele>1088.5</ele><time>2026-04-24T11:45:16.485Z</time></trkpt><trkpt lat="39.862475" lon="9.2887067"><ele>1088.0</ele><time>2026-04-24T11:45:17.484Z</time></trkpt><trkpt lat="39.8625517" lon="9.2886833"><ele>1087.5</ele><time>2026-04-24T11:45:18.484Z</time></trkpt><trkpt lat="39.8626333" lon="9.2886583"><ele>1087.0</ele><time>2026-04-24T11:45:19.484Z</time></trkpt><trkpt lat="39.8627067" lon="9.2886333"><ele>1087.0</ele><time>2026-04-24T11:45:20.485Z</time></trkpt><trkpt lat="39.862775" lon="9.2886017"><ele>1087.0</ele><time>2026-04-24T11:45:21.485Z</time></trkpt><trkpt lat="39.8628383" lon="9.2885717"><ele>1087.0</ele><time>2026-04-24T11:45:22.484Z</time></trkpt><trkpt lat="39.862945" lon="9.2885267"><ele>1087.0</ele><time>2026-04-24T11:45:24.484Z</time></trkpt><trkpt lat="39.86306" lon="9.2885033"><ele>1087.0</ele><time>2026-04-24T11:45:26.485Z</time></trkpt><trkpt lat="39.8631267" lon="9.2884967"><ele>1087.0</ele><time>2026-04-24T11:45:27.485Z</time></trkpt><trkpt lat="39.863195" lon="9.2884883"><ele>1087.0</ele><time>2026-04-24T11:45:28.484Z</time></trkpt><trkpt lat="39.863265" lon="9.2884683"><ele>1087.0</ele><time>2026-04-24T11:45:29.484Z</time></trkpt><trkpt lat="39.8633317" lon="9.2884417"><ele>1087.0</ele><time>2026-04-24T11:45:30.485Z</time></trkpt><trkpt lat="39.863465" lon="9.2884067"><ele>1087.0</ele><time>2026-04-24T11:45:32.484Z</time></trkpt><trkpt lat="39.8635333" lon="9.2884067"><ele>1087.0</ele><time>2026-04-24T11:45:33.484Z</time></trkpt><trkpt lat="39.8636033" lon="9.2884083"><ele>1087.0</ele><time>2026-04-24T11:45:34.485Z</time></trkpt><trkpt lat="39.8636867" lon="9.288415"><ele>1085.8333333333333</ele><time>2026-04-24T11:45:35.484Z</time></trkpt><trkpt lat="39.8637717" lon="9.288415"><ele>1084.6666666666665</ele><time>2026-04-24T11:45:36.485Z</time></trkpt><trkpt lat="39.8638533" lon="9.2884083"><ele>1083.5</ele><time>2026-04-24T11:45:37.484Z</time></trkpt><trkpt lat="39.86393" lon="9.288405"><ele>1082.3333333333333</ele><time>2026-04-24T11:45:38.484Z</time></trkpt><trkpt lat="39.864005" lon="9.2883983"><ele>1081.1666666666667</ele><time>2026-04-24T11:45:39.485Z</time></trkpt><trkpt lat="39.8640733" lon="9.2883883"><ele>1080.0</ele><time>2026-04-24T11:45:40.485Z</time></trkpt><trkpt lat="39.8641383" lon="9.2883883"><ele>1080.0</ele><time>2026-04-24T11:45:41.484Z</time></trkpt><trkpt lat="39.8642067" lon="9.2884"><ele>1080.0</ele><time>2026-04-24T11:45:42.485Z</time></trkpt><trkpt lat="39.8642833" lon="9.2884217"><ele>1080.0</ele><time>2026-04-24T11:45:43.485Z</time></trkpt><trkpt lat="39.8643567" lon="9.2884467"><ele>1080.0</ele><time>2026-04-24T11:45:44.485Z</time></trkpt><trkpt lat="39.86443" lon="9.2884733"><ele>1080.0</ele><time>2026-04-24T11:45:45.484Z</time></trkpt><trkpt lat="39.8645017" lon="9.2884983"><ele>1080.0</ele><time>2026-04-24T11:45:46.484Z</time></trkpt><trkpt lat="39.8645667" lon="9.2885233"><ele>1080.0</ele><time>2026-04-24T11:45:47.485Z</time></trkpt><trkpt lat="39.8646767" lon="9.28856"><ele>1080.2</ele><time>2026-04-24T11:45:49.484Z</time></trkpt><trkpt lat="39.86477" lon="9.2886067"><ele>1080.4</ele><time>2026-04-24T11:45:51.485Z</time></trkpt><trkpt lat="39.8649217" lon="9.2887083"><ele>1080.6</ele><time>2026-04-24T11:45:55.483Z</time></trkpt><trkpt lat="39.8649883" lon="9.28875"><ele>1080.8</ele><time>2026-04-24T11:45:57.483Z</time></trkpt><trkpt lat="39.8650783" lon="9.2887833"><ele>1081.0</ele><time>2026-04-24T11:45:59.483Z</time></trkpt><trkpt lat="39.8651667" lon="9.2888067"><ele>1083.3999999999999</ele><time>2026-04-24T11:46:01.484Z</time></trkpt><trkpt lat="39.8652733" lon="9.288815"><ele>1085.8</ele><time>2026-04-24T11:46:03.483Z</time></trkpt><trkpt lat="39.865395" lon="9.2888317"><ele>1088.1999999999998</ele><time>2026-04-24T11:46:05.484Z</time></trkpt><trkpt lat="39.865465" lon="9.288845"><ele>1090.6</ele><time>2026-04-24T11:46:06.484Z</time></trkpt><trkpt lat="39.8655417" lon="9.2888667"><ele>1093.0</ele><time>2026-04-24T11:46:07.483Z</time></trkpt><trkpt lat="39.8656133" lon="9.2888967"><ele>1091.3333333333333</ele><time>2026-04-24T11:46:08.484Z</time></trkpt><trkpt lat="39.8656817" lon="9.28893"><ele>1089.6666666666665</ele><time>2026-04-24T11:46:09.484Z</time></trkpt><trkpt lat="39.8657533" lon="9.28896"><ele>1088.0</ele><time>2026-04-24T11:46:10.484Z</time></trkpt><trkpt lat="39.8658233" lon="9.2889833"><ele>1086.3333333333333</ele><time>2026-04-24T11:46:11.483Z</time></trkpt><trkpt lat="39.8658933" lon="9.289"><ele>1084.6666666666667</ele><time>2026-04-24T11:46:12.484Z</time></trkpt><trkpt lat="39.86603" lon="9.2890467"><ele>1083.0</ele><time>2026-04-24T11:46:14.483Z</time></trkpt><trkpt lat="39.8660967" lon="9.2890667"><ele>1083.0</ele><time>2026-04-24T11:46:15.484Z</time></trkpt><trkpt lat="39.8661633" lon="9.2890817"><ele>1083.0</ele><time>2026-04-24T11:46:16.484Z</time></trkpt><trkpt lat="39.8662317" lon="9.289085"><ele>1083.0</ele><time>2026-04-24T11:46:17.483Z</time></trkpt><trkpt lat="39.8663017" lon="9.289075"><ele>1083.0</ele><time>2026-04-24T11:46:18.483Z</time></trkpt><trkpt lat="39.8663733" lon="9.2890583"><ele>1083.0</ele><time>2026-04-24T11:46:19.484Z</time></trkpt><trkpt lat="39.8664433" lon="9.2890333"><ele>1083.0</ele><time>2026-04-24T11:46:20.483Z</time></trkpt><trkpt lat="39.86652" lon="9.2890117"><ele>1083.0</ele><time>2026-04-24T11:46:21.484Z</time></trkpt><trkpt lat="39.8665983" lon="9.289005"><ele>1083.0</ele><time>2026-04-24T11:46:22.484Z</time></trkpt><trkpt lat="39.8666867" lon="9.2890033"><ele>1083.0</ele><time>2026-04-24T11:46:23.484Z</time></trkpt><trkpt lat="39.8667783" lon="9.288995"><ele>1083.0</ele><time>2026-04-24T11:46:24.484Z</time></trkpt><trkpt lat="39.8668683" lon="9.288975"><ele>1083.0</ele><time>2026-04-24T11:46:25.483Z</time></trkpt><trkpt lat="39.8669533" lon="9.2889533"><ele>1083.0</ele><time>2026-04-24T11:46:26.483Z</time></trkpt><trkpt lat="39.86703" lon="9.2889183"><ele>1083.0</ele><time>2026-04-24T11:46:27.483Z</time></trkpt><trkpt lat="39.8671167" lon="9.2888733"><ele>1083.3333333333333</ele><time>2026-04-24T11:46:28.483Z</time></trkpt><trkpt lat="39.8671983" lon="9.288835"><ele>1083.6666666666667</ele><time>2026-04-24T11:46:29.484Z</time></trkpt><trkpt lat="39.8672817" lon="9.2888017"><ele>1084.0</ele><time>2026-04-24T11:46:30.484Z</time></trkpt><trkpt lat="39.8673567" lon="9.2887717"><ele>1084.3333333333335</ele><time>2026-04-24T11:46:31.484Z</time></trkpt><trkpt lat="39.8674233" lon="9.288745"><ele>1084.6666666666667</ele><time>2026-04-24T11:46:32.483Z</time></trkpt><trkpt lat="39.8674917" lon="9.2887183"><ele>1085.0</ele><time>2026-04-24T11:46:33.484Z</time></trkpt><trkpt lat="39.8676617" lon="9.2886233"><ele>1085.0</ele><time>2026-04-24T11:46:36.484Z</time></trkpt><trkpt lat="39.867755" lon="9.2885467"><ele>1085.0</ele><time>2026-04-24T11:46:38.483Z</time></trkpt><trkpt lat="39.867845" lon="9.288475"><ele>1085.0</ele><time>2026-04-24T11:46:40.483Z</time></trkpt><trkpt lat="39.8679433" lon="9.2884"><ele>1085.0</ele><time>2026-04-24T11:46:42.484Z</time></trkpt><trkpt lat="39.8680417" lon="9.2883133"><ele>1085.0</ele><time>2026-04-24T11:46:44.484Z</time></trkpt><trkpt lat="39.8681467" lon="9.288225"><ele>1085.0</ele><time>2026-04-24T11:46:46.483Z</time></trkpt><trkpt lat="39.8682" lon="9.2881767"><ele>1085.0</ele><time>2026-04-24T11:46:47.483Z</time></trkpt><trkpt lat="39.8682567" lon="9.288125"><ele>1085.0</ele><time>2026-04-24T11:46:48.484Z</time></trkpt><trkpt lat="39.8683167" lon="9.2880733"><ele>1085.0</ele><time>2026-04-24T11:46:49.484Z</time></trkpt><trkpt lat="39.86838" lon="9.2880183"><ele>1085.0</ele><time>2026-04-24T11:46:50.484Z</time></trkpt><trkpt lat="39.86844" lon="9.2879683"><ele>1085.0</ele><time>2026-04-24T11:46:51.484Z</time></trkpt><trkpt lat="39.868495" lon="9.287925"><ele>1085.0</ele><time>2026-04-24T11:46:52.484Z</time></trkpt><trkpt lat="39.8685567" lon="9.2878783"><ele>1087.2</ele><time>2026-04-24T11:46:53.484Z</time></trkpt><trkpt lat="39.8686217" lon="9.287835"><ele>1089.4</ele><time>2026-04-24T11:46:54.483Z</time></trkpt><trkpt lat="39.8687417" lon="9.287765"><ele>1091.6</ele><time>2026-04-24T11:46:56.483Z</time></trkpt><trkpt lat="39.8688583" lon="9.2877033"><ele>1093.8</ele><time>2026-04-24T11:46:58.483Z</time></trkpt><trkpt lat="39.8689217" lon="9.2876683"><ele>1096.0</ele><time>2026-04-24T11:46:59.484Z</time></trkpt><trkpt lat="39.8689867" lon="9.28763"><ele>1096.0</ele><time>2026-04-24T11:47:00.483Z</time></trkpt><trkpt lat="39.8690467" lon="9.287595"><ele>1096.0</ele><time>2026-04-24T11:47:01.484Z</time></trkpt><trkpt lat="39.8691467" lon="9.287555"><ele>1096.0</ele><time>2026-04-24T11:47:03.483Z</time></trkpt><trkpt lat="39.8692367" lon="9.2875283"><ele>1096.0</ele><time>2026-04-24T11:47:05.484Z</time></trkpt><trkpt lat="39.8693233" lon="9.2875"><ele>1096.0</ele><time>2026-04-24T11:47:07.484Z</time></trkpt><trkpt lat="39.8694133" lon="9.287465"><ele>1096.0</ele><time>2026-04-24T11:47:09.484Z</time></trkpt><trkpt lat="39.869495" lon="9.2874283"><ele>1096.2</ele><time>2026-04-24T11:47:11.484Z</time></trkpt><trkpt lat="39.8695717" lon="9.2873883"><ele>1096.3999999999999</ele><time>2026-04-24T11:47:13.484Z</time></trkpt><trkpt lat="39.869645" lon="9.2873517"><ele>1096.6</ele><time>2026-04-24T11:47:15.483Z</time></trkpt><trkpt lat="39.8697917" lon="9.2872983"><ele>1096.8</ele><time>2026-04-24T11:47:20.483Z</time></trkpt><trkpt lat="39.8698683" lon="9.2872567"><ele>1097.0</ele><time>2026-04-24T11:47:24.484Z</time></trkpt><trkpt lat="39.86995" lon="9.2872383"><ele>1097.0</ele><time>2026-04-24T11:47:28.484Z</time></trkpt><trkpt lat="39.8700133" lon="9.2872367"><ele>1097.0</ele><time>2026-04-24T11:47:31.484Z</time></trkpt><trkpt lat="39.8700783" lon="9.2872317"><ele>1097.0</ele><time>2026-04-24T11:47:34.483Z</time></trkpt><trkpt lat="39.870155" lon="9.2872367"><ele>1097.0</ele><time>2026-04-24T11:47:38.483Z</time></trkpt><trkpt lat="39.8703033" lon="9.28722"><ele>1097.0</ele><time>2026-04-24T11:47:45.483Z</time></trkpt><trkpt lat="39.8703933" lon="9.2872133"><ele>1097.0</ele><time>2026-04-24T11:47:47.483Z</time></trkpt><trkpt lat="39.8704933" lon="9.2872117"><ele>1098.2</ele><time>2026-04-24T11:47:49.484Z</time></trkpt><trkpt lat="39.8705933" lon="9.2872083"><ele>1099.4</ele><time>2026-04-24T11:47:51.484Z</time></trkpt><trkpt lat="39.870695" lon="9.2871983"><ele>1100.6</ele><time>2026-04-24T11:47:53.484Z</time></trkpt><trkpt lat="39.8707983" lon="9.28718"><ele>1101.8</ele><time>2026-04-24T11:47:55.483Z</time></trkpt><trkpt lat="39.870885" lon="9.2871433"><ele>1103.0</ele><time>2026-04-24T11:47:57.484Z</time></trkpt><trkpt lat="39.8709717" lon="9.2871233"><ele>1103.0000000000002</ele><time>2026-04-24T11:47:59.483Z</time></trkpt><trkpt lat="39.8709817" lon="9.2872033"><ele>1103.0</ele><time>2026-04-24T11:48:06.484Z</time></trkpt><trkpt lat="39.8709117" lon="9.2872283"><ele>1103.0</ele><time>2026-04-24T11:48:08.483Z</time></trkpt><trkpt lat="39.8708367" lon="9.28727"><ele>1103.0</ele><time>2026-04-24T11:48:10.484Z</time></trkpt><trkpt lat="39.87077" lon="9.2873067"><ele>1103.0</ele><time>2026-04-24T11:48:12.484Z</time></trkpt><trkpt lat="39.870695" lon="9.28736"><ele>1103.0000000000002</ele><time>2026-04-24T11:48:15.484Z</time></trkpt><trkpt lat="39.870635" lon="9.2874033"><ele>1103.0</ele><time>2026-04-24T11:48:38.484Z</time></trkpt><trkpt lat="39.8704533" lon="9.2875117"><ele>1100.8333333333335</ele><time>2026-04-24T11:48:41.483Z</time></trkpt><trkpt lat="39.87038" lon="9.2875533"><ele>1098.6666666666667</ele><time>2026-04-24T11:48:42.484Z</time></trkpt><trkpt lat="39.8703067" lon="9.2875983"><ele>1096.5</ele><time>2026-04-24T11:48:43.483Z</time></trkpt><trkpt lat="39.8702367" lon="9.28765"><ele>1094.3333333333333</ele><time>2026-04-24T11:48:44.483Z</time></trkpt><trkpt lat="39.87017" lon="9.2876933"><ele>1092.1666666666665</ele><time>2026-04-24T11:48:45.484Z</time></trkpt><trkpt lat="39.8701033" lon="9.287735"><ele>1090.0</ele><time>2026-04-24T11:48:46.484Z</time></trkpt><trkpt lat="39.87004" lon="9.2877633"><ele>1090.0</ele><time>2026-04-24T11:48:47.484Z</time></trkpt><trkpt lat="39.8699733" lon="9.28779"><ele>1090.0</ele><time>2026-04-24T11:48:48.484Z</time></trkpt><trkpt lat="39.8699017" lon="9.28782"><ele>1090.0</ele><time>2026-04-24T11:48:49.484Z</time></trkpt><trkpt lat="39.8698183" lon="9.2878517"><ele>1090.0</ele><time>2026-04-24T11:48:50.483Z</time></trkpt><trkpt lat="39.8697333" lon="9.28788"><ele>1090.0</ele><time>2026-04-24T11:48:51.484Z</time></trkpt><trkpt lat="39.86964" lon="9.2879017"><ele>1090.0</ele><time>2026-04-24T11:48:52.484Z</time></trkpt><trkpt lat="39.8695433" lon="9.2879383"><ele>1090.0</ele><time>2026-04-24T11:48:53.483Z</time></trkpt><trkpt lat="39.8694367" lon="9.28798"><ele>1090.0</ele><time>2026-04-24T11:48:54.484Z</time></trkpt><trkpt lat="39.8693317" lon="9.2880267"><ele>1090.0</ele><time>2026-04-24T11:48:55.483Z</time></trkpt><trkpt lat="39.8692367" lon="9.288065"><ele>1090.0</ele><time>2026-04-24T11:48:56.483Z</time></trkpt><trkpt lat="39.86914" lon="9.2880983"><ele>1090.0</ele><time>2026-04-24T11:48:57.484Z</time></trkpt><trkpt lat="39.86904" lon="9.2881283"><ele>1085.5</ele><time>2026-04-24T11:48:58.484Z</time></trkpt><trkpt lat="39.8689433" lon="9.2881567"><ele>1081.0</ele><time>2026-04-24T11:48:59.484Z</time></trkpt><trkpt lat="39.8687583" lon="9.2882633"><ele>1076.5</ele><time>2026-04-24T11:49:01.484Z</time></trkpt><trkpt lat="39.868675" lon="9.2883417"><ele>1072.0</ele><time>2026-04-24T11:49:02.483Z</time></trkpt><trkpt lat="39.86859" lon="9.2884283"><ele>1072.0</ele><time>2026-04-24T11:49:03.483Z</time></trkpt><trkpt lat="39.868515" lon="9.28852"><ele>1072.0</ele><time>2026-04-24T11:49:04.483Z</time></trkpt><trkpt lat="39.8684417" lon="9.2886167"><ele>1072.0</ele><time>2026-04-24T11:49:05.483Z</time></trkpt><trkpt lat="39.8683733" lon="9.2887183"><ele>1072.0</ele><time>2026-04-24T11:49:06.483Z</time></trkpt><trkpt lat="39.8683" lon="9.28882"><ele>1072.0</ele><time>2026-04-24T11:49:07.484Z</time></trkpt><trkpt lat="39.8682233" lon="9.2889167"><ele>1070.2</ele><time>2026-04-24T11:49:08.483Z</time></trkpt><trkpt lat="39.8681433" lon="9.2890083"><ele>1068.4</ele><time>2026-04-24T11:49:09.483Z</time></trkpt><trkpt lat="39.8680633" lon="9.2891067"><ele>1066.6</ele><time>2026-04-24T11:49:10.483Z</time></trkpt><trkpt lat="39.867985" lon="9.289195"><ele>1064.8</ele><time>2026-04-24T11:49:11.484Z</time></trkpt><trkpt lat="39.867905" lon="9.2892933"><ele>1063.0</ele><time>2026-04-24T11:49:12.483Z</time></trkpt><trkpt lat="39.8678233" lon="9.2893917"><ele>1063.0</ele><time>2026-04-24T11:49:13.484Z</time></trkpt><trkpt lat="39.8677417" lon="9.2894767"><ele>1063.0</ele><time>2026-04-24T11:49:14.483Z</time></trkpt><trkpt lat="39.8676567" lon="9.28956"><ele>1063.0</ele><time>2026-04-24T11:49:15.483Z</time></trkpt><trkpt lat="39.8675717" lon="9.2896283"><ele>1063.0</ele><time>2026-04-24T11:49:16.484Z</time></trkpt><trkpt lat="39.867475" lon="9.2896833"><ele>1063.0</ele><time>2026-04-24T11:49:17.483Z</time></trkpt><trkpt lat="39.8673783" lon="9.2897267"><ele>1061.25</ele><time>2026-04-24T11:49:18.483Z</time></trkpt><trkpt lat="39.8672833" lon="9.28977"><ele>1059.5</ele><time>2026-04-24T11:49:19.484Z</time></trkpt><trkpt lat="39.86719" lon="9.2898183"><ele>1057.75</ele><time>2026-04-24T11:49:20.483Z</time></trkpt><trkpt lat="39.8670233" lon="9.2898983"><ele>1056.0</ele><time>2026-04-24T11:49:22.484Z</time></trkpt><trkpt lat="39.8669317" lon="9.28991"><ele>1056.0</ele><time>2026-04-24T11:49:23.484Z</time></trkpt><trkpt lat="39.8668433" lon="9.289885"><ele>1056.0</ele><time>2026-04-24T11:49:24.483Z</time></trkpt><trkpt lat="39.8667633" lon="9.28983"><ele>1056.0</ele><time>2026-04-24T11:49:25.484Z</time></trkpt><trkpt lat="39.8666867" lon="9.289785"><ele>1056.0</ele><time>2026-04-24T11:49:26.483Z</time></trkpt><trkpt lat="39.8666067" lon="9.2897733"><ele>1056.0</ele><time>2026-04-24T11:49:27.483Z</time></trkpt><trkpt lat="39.8665283" lon="9.2897967"><ele>1056.0</ele><time>2026-04-24T11:49:28.484Z</time></trkpt><trkpt lat="39.8664467" lon="9.28985"><ele>1055.6666666666667</ele><time>2026-04-24T11:49:29.483Z</time></trkpt><trkpt lat="39.8663633" lon="9.2899033"><ele>1055.3333333333333</ele><time>2026-04-24T11:49:30.484Z</time></trkpt><trkpt lat="39.86628" lon="9.2899383"><ele>1055.0</ele><time>2026-04-24T11:49:31.483Z</time></trkpt><trkpt lat="39.8661967" lon="9.2899583"><ele>1054.6666666666665</ele><time>2026-04-24T11:49:32.483Z</time></trkpt><trkpt lat="39.8661117" lon="9.2899617"><ele>1054.3333333333333</ele><time>2026-04-24T11:49:33.483Z</time></trkpt><trkpt lat="39.8660233" lon="9.28994"><ele>1054.0</ele><time>2026-04-24T11:49:34.484Z</time></trkpt><trkpt lat="39.8659467" lon="9.289895"><ele>1052.6000000000001</ele><time>2026-04-24T11:49:35.484Z</time></trkpt><trkpt lat="39.8658733" lon="9.2898183"><ele>1051.2</ele><time>2026-04-24T11:49:36.484Z</time></trkpt><trkpt lat="39.8657983" lon="9.28975"><ele>1049.8000000000002</ele><time>2026-04-24T11:49:37.483Z</time></trkpt><trkpt lat="39.8657167" lon="9.2897"><ele>1048.4</ele><time>2026-04-24T11:49:38.483Z</time></trkpt><trkpt lat="39.8656183" lon="9.28969"><ele>1047.0</ele><time>2026-04-24T11:49:39.484Z</time></trkpt><trkpt lat="39.8655233" lon="9.2896983"><ele>1047.0</ele><time>2026-04-24T11:49:40.484Z</time></trkpt><trkpt lat="39.8654217" lon="9.2897183"><ele>1047.0</ele><time>2026-04-24T11:49:41.483Z</time></trkpt><trkpt lat="39.8651967" lon="9.28977"><ele>1047.0</ele><time>2026-04-24T11:49:43.483Z</time></trkpt><trkpt lat="39.8650817" lon="9.2898017"><ele>1047.0</ele><time>2026-04-24T11:49:44.483Z</time></trkpt><trkpt lat="39.86496" lon="9.28984"><ele>1046.25</ele><time>2026-04-24T11:49:45.483Z</time></trkpt><trkpt lat="39.86483" lon="9.289885"><ele>1045.5</ele><time>2026-04-24T11:49:46.483Z</time></trkpt><trkpt lat="39.8646983" lon="9.2899383"><ele>1044.75</ele><time>2026-04-24T11:49:47.483Z</time></trkpt><trkpt lat="39.8645733" lon="9.2899817"><ele>1044.0</ele><time>2026-04-24T11:49:48.484Z</time></trkpt><trkpt lat="39.86445" lon="9.2900267"><ele>1044.0</ele><time>2026-04-24T11:49:49.483Z</time></trkpt><trkpt lat="39.8643383" lon="9.2900483"><ele>1044.0</ele><time>2026-04-24T11:49:50.483Z</time></trkpt><trkpt lat="39.8642283" lon="9.290055"><ele>1044.0</ele><time>2026-04-24T11:49:51.484Z</time></trkpt><trkpt lat="39.8641133" lon="9.2900467"><ele>1044.0</ele><time>2026-04-24T11:49:52.484Z</time></trkpt><trkpt lat="39.86401" lon="9.2900317"><ele>1044.0</ele><time>2026-04-24T11:49:53.484Z</time></trkpt><trkpt lat="39.8639117" lon="9.2900233"><ele>1044.3333333333333</ele><time>2026-04-24T11:49:54.484Z</time></trkpt><trkpt lat="39.8638217" lon="9.2900433"><ele>1044.6666666666667</ele><time>2026-04-24T11:49:55.483Z</time></trkpt><trkpt lat="39.86375" lon="9.2900833"><ele>1045.0</ele><time>2026-04-24T11:49:56.483Z</time></trkpt><trkpt lat="39.86369" lon="9.2901533"><ele>1045.3333333333335</ele><time>2026-04-24T11:49:57.483Z</time></trkpt><trkpt lat="39.86364" lon="9.2902567"><ele>1045.6666666666667</ele><time>2026-04-24T11:49:58.484Z</time></trkpt><trkpt lat="39.86359" lon="9.290365"><ele>1046.0</ele><time>2026-04-24T11:49:59.484Z</time></trkpt><trkpt lat="39.8635367" lon="9.2904833"><ele>1041.6666666666667</ele><time>2026-04-24T11:50:00.484Z</time></trkpt><trkpt lat="39.86348" lon="9.2906"><ele>1037.3333333333333</ele><time>2026-04-24T11:50:01.483Z</time></trkpt><trkpt lat="39.863425" lon="9.290725"><ele>1033.0</ele><time>2026-04-24T11:50:02.483Z</time></trkpt><trkpt lat="39.863295" lon="9.2909783"><ele>1033.0</ele><time>2026-04-24T11:50:04.483Z</time></trkpt><trkpt lat="39.8632283" lon="9.2910967"><ele>1033.0</ele><time>2026-04-24T11:50:05.483Z</time></trkpt><trkpt lat="39.863155" lon="9.291215"><ele>1033.0</ele><time>2026-04-24T11:50:06.483Z</time></trkpt><trkpt lat="39.86309" lon="9.2913283"><ele>1033.0</ele><time>2026-04-24T11:50:07.483Z</time></trkpt><trkpt lat="39.8630167" lon="9.291435"><ele>1033.0</ele><time>2026-04-24T11:50:08.483Z</time></trkpt><trkpt lat="39.8629383" lon="9.2915317"><ele>1032.0</ele><time>2026-04-24T11:50:09.484Z</time></trkpt><trkpt lat="39.86285" lon="9.2916217"><ele>1031.0</ele><time>2026-04-24T11:50:10.483Z</time></trkpt><trkpt lat="39.8627567" lon="9.2917"><ele>1030.0</ele><time>2026-04-24T11:50:11.483Z</time></trkpt><trkpt lat="39.86266" lon="9.2917717"><ele>1029.0</ele><time>2026-04-24T11:50:12.484Z</time></trkpt><trkpt lat="39.8625667" lon="9.291825"><ele>1028.0</ele><time>2026-04-24T11:50:13.484Z</time></trkpt><trkpt lat="39.8624667" lon="9.29186"><ele>1028.0</ele><time>2026-04-24T11:50:14.484Z</time></trkpt><trkpt lat="39.8623533" lon="9.2918717"><ele>1028.0</ele><time>2026-04-24T11:50:15.483Z</time></trkpt><trkpt lat="39.86224" lon="9.2918617"><ele>1028.0</ele><time>2026-04-24T11:50:16.484Z</time></trkpt><trkpt lat="39.8621367" lon="9.2918367"><ele>1028.0</ele><time>2026-04-24T11:50:17.483Z</time></trkpt><trkpt lat="39.8620467" lon="9.2918183"><ele>1028.0</ele><time>2026-04-24T11:50:18.484Z</time></trkpt><trkpt lat="39.861965" lon="9.291815"><ele>1028.0</ele><time>2026-04-24T11:50:19.483Z</time></trkpt><trkpt lat="39.8618567" lon="9.2918917"><ele>1028.0</ele><time>2026-04-24T11:50:21.484Z</time></trkpt><trkpt lat="39.8618283" lon="9.2919783"><ele>1028.0</ele><time>2026-04-24T11:50:22.483Z</time></trkpt><trkpt lat="39.861815" lon="9.292085"><ele>1028.0</ele><time>2026-04-24T11:50:23.484Z</time></trkpt><trkpt lat="39.8618167" lon="9.2923483"><ele>1026.8</ele><time>2026-04-24T11:50:25.484Z</time></trkpt><trkpt lat="39.86182" lon="9.2924967"><ele>1025.6</ele><time>2026-04-24T11:50:26.484Z</time></trkpt><trkpt lat="39.8618067" lon="9.2926383"><ele>1024.4</ele><time>2026-04-24T11:50:27.484Z</time></trkpt><trkpt lat="39.8617683" lon="9.29277"><ele>1023.2</ele><time>2026-04-24T11:50:28.483Z</time></trkpt><trkpt lat="39.86171" lon="9.2928933"><ele>1022.0</ele><time>2026-04-24T11:50:29.484Z</time></trkpt><trkpt lat="39.8616283" lon="9.2930083"><ele>1018.25</ele><time>2026-04-24T11:50:30.484Z</time></trkpt><trkpt lat="39.8615417" lon="9.2931217"><ele>1014.5</ele><time>2026-04-24T11:50:31.483Z</time></trkpt><trkpt lat="39.8614633" lon="9.2932333"><ele>1010.75</ele><time>2026-04-24T11:50:32.483Z</time></trkpt><trkpt lat="39.861385" lon="9.29335"><ele>1007.0</ele><time>2026-04-24T11:50:33.483Z</time></trkpt><trkpt lat="39.8613017" lon="9.2934617"><ele>1007.0</ele><time>2026-04-24T11:50:34.483Z</time></trkpt><trkpt lat="39.8612117" lon="9.2935683"><ele>1007.0</ele><time>2026-04-24T11:50:35.483Z</time></trkpt><trkpt lat="39.86111" lon="9.2936767"><ele>1007.0</ele><time>2026-04-24T11:50:36.483Z</time></trkpt><trkpt lat="39.8610017" lon="9.2937883"><ele>1007.0</ele><time>2026-04-24T11:50:37.483Z</time></trkpt><trkpt lat="39.8608967" lon="9.293905"><ele>1006.5</ele><time>2026-04-24T11:50:38.484Z</time></trkpt><trkpt lat="39.86079" lon="9.2940217"><ele>1006.0</ele><time>2026-04-24T11:50:39.484Z</time></trkpt><trkpt lat="39.8606883" lon="9.2941483"><ele>1005.5</ele><time>2026-04-24T11:50:40.483Z</time></trkpt><trkpt lat="39.8605817" lon="9.2942867"><ele>1005.0</ele><time>2026-04-24T11:50:41.484Z</time></trkpt><trkpt lat="39.8604833" lon="9.2944317"><ele>1005.0</ele><time>2026-04-24T11:50:42.484Z</time></trkpt><trkpt lat="39.8603933" lon="9.294575"><ele>1005.0</ele><time>2026-04-24T11:50:43.483Z</time></trkpt><trkpt lat="39.8603017" lon="9.29471"><ele>1005.0</ele><time>2026-04-24T11:50:44.484Z</time></trkpt><trkpt lat="39.8601417" lon="9.2949767"><ele>1005.25</ele><time>2026-04-24T11:50:46.483Z</time></trkpt><trkpt lat="39.8600617" lon="9.2951"><ele>1005.5</ele><time>2026-04-24T11:50:47.484Z</time></trkpt><trkpt lat="39.8599967" lon="9.29522"><ele>1005.75</ele><time>2026-04-24T11:50:48.483Z</time></trkpt><trkpt lat="39.859935" lon="9.29536"><ele>1006.0</ele><time>2026-04-24T11:50:49.483Z</time></trkpt><trkpt lat="39.8598883" lon="9.295505"><ele>1002.5999999999999</ele><time>2026-04-24T11:50:50.483Z</time></trkpt><trkpt lat="39.8598467" lon="9.295645"><ele>999.1999999999999</ele><time>2026-04-24T11:50:51.483Z</time></trkpt><trkpt lat="39.85981" lon="9.2957733"><ele>995.8000000000001</ele><time>2026-04-24T11:50:52.483Z</time></trkpt><trkpt lat="39.85977" lon="9.2958933"><ele>992.4000000000001</ele><time>2026-04-24T11:50:53.484Z</time></trkpt><trkpt lat="39.859725" lon="9.2960067"><ele>989.0</ele><time>2026-04-24T11:50:54.484Z</time></trkpt><trkpt lat="39.8596633" lon="9.2961233"><ele>989.0</ele><time>2026-04-24T11:50:55.483Z</time></trkpt><trkpt lat="39.85959" lon="9.29624"><ele>989.0</ele><time>2026-04-24T11:50:56.483Z</time></trkpt><trkpt lat="39.8595033" lon="9.2963483"><ele>989.0</ele><time>2026-04-24T11:50:57.483Z</time></trkpt><trkpt lat="39.8594183" lon="9.2964567"><ele>989.0</ele><time>2026-04-24T11:50:58.484Z</time></trkpt><trkpt lat="39.8593417" lon="9.2965667"><ele>989.75</ele><time>2026-04-24T11:50:59.483Z</time></trkpt><trkpt lat="39.8592483" lon="9.2966817"><ele>990.5</ele><time>2026-04-24T11:51:00.483Z</time></trkpt><trkpt lat="39.8591533" lon="9.29678"><ele>991.25</ele><time>2026-04-24T11:51:01.484Z</time></trkpt><trkpt lat="39.8590483" lon="9.29686"><ele>992.0</ele><time>2026-04-24T11:51:02.483Z</time></trkpt><trkpt lat="39.858945" lon="9.296945"><ele>992.0</ele><time>2026-04-24T11:51:03.484Z</time></trkpt><trkpt lat="39.858845" lon="9.2970367"><ele>992.0</ele><time>2026-04-24T11:51:04.483Z</time></trkpt><trkpt lat="39.858755" lon="9.29714"><ele>992.0</ele><time>2026-04-24T11:51:05.483Z</time></trkpt><trkpt lat="39.8585967" lon="9.2973783"><ele>992.5</ele><time>2026-04-24T11:51:07.483Z</time></trkpt><trkpt lat="39.8585267" lon="9.2975183"><ele>993.0</ele><time>2026-04-24T11:51:08.483Z</time></trkpt><trkpt lat="39.8584617" lon="9.2976583"><ele>993.5</ele><time>2026-04-24T11:51:09.484Z</time></trkpt><trkpt lat="39.8583967" lon="9.297805"><ele>994.0</ele><time>2026-04-24T11:51:10.484Z</time></trkpt><trkpt lat="39.8583333" lon="9.29794"><ele>994.0</ele><time>2026-04-24T11:51:11.483Z</time></trkpt><trkpt lat="39.85827" lon="9.2980733"><ele>994.0</ele><time>2026-04-24T11:51:12.483Z</time></trkpt><trkpt lat="39.8582283" lon="9.2982183"><ele>994.0</ele><time>2026-04-24T11:51:13.483Z</time></trkpt><trkpt lat="39.858195" lon="9.29837"><ele>994.0</ele><time>2026-04-24T11:51:14.484Z</time></trkpt><trkpt lat="39.858165" lon="9.29853"><ele>990.25</ele><time>2026-04-24T11:51:15.483Z</time></trkpt><trkpt lat="39.8581367" lon="9.2986867"><ele>986.5</ele><time>2026-04-24T11:51:16.483Z</time></trkpt><trkpt lat="39.8581067" lon="9.298835"><ele>982.75</ele><time>2026-04-24T11:51:17.484Z</time></trkpt><trkpt lat="39.858075" lon="9.2989883"><ele>979.0</ele><time>2026-04-24T11:51:18.483Z</time></trkpt><trkpt lat="39.8580417" lon="9.2991483"><ele>976.0</ele><time>2026-04-24T11:51:19.484Z</time></trkpt><trkpt lat="39.8580133" lon="9.2993033"><ele>973.0</ele><time>2026-04-24T11:51:20.483Z</time></trkpt><trkpt lat="39.857985" lon="9.2994583"><ele>970.0</ele><time>2026-04-24T11:51:21.483Z</time></trkpt><trkpt lat="39.8579567" lon="9.2996067"><ele>967.0</ele><time>2026-04-24T11:51:22.483Z</time></trkpt><trkpt lat="39.857925" lon="9.2997533"><ele>964.0</ele><time>2026-04-24T11:51:23.484Z</time></trkpt><trkpt lat="39.8578883" lon="9.2998967"><ele>961.0</ele><time>2026-04-24T11:51:24.484Z</time></trkpt><trkpt lat="39.8578467" lon="9.3000233"><ele>958.0</ele><time>2026-04-24T11:51:25.483Z</time></trkpt><trkpt lat="39.8578" lon="9.3001333"><ele>955.0</ele><time>2026-04-24T11:51:26.484Z</time></trkpt><trkpt lat="39.8576833" lon="9.3003"><ele>959.0</ele><time>2026-04-24T11:51:28.483Z</time></trkpt><trkpt lat="39.8576083" lon="9.3003633"><ele>963.0</ele><time>2026-04-24T11:51:29.484Z</time></trkpt><trkpt lat="39.857535" lon="9.3003967"><ele>967.0</ele><time>2026-04-24T11:51:30.483Z</time></trkpt><trkpt lat="39.85745" lon="9.3004017"><ele>971.0</ele><time>2026-04-24T11:51:31.483Z</time></trkpt><trkpt lat="39.8573533" lon="9.3003783"><ele>975.0</ele><time>2026-04-24T11:51:32.483Z</time></trkpt><trkpt lat="39.8572467" lon="9.300335"><ele>975.0</ele><time>2026-04-24T11:51:33.483Z</time></trkpt><trkpt lat="39.8571383" lon="9.300295"><ele>975.0</ele><time>2026-04-24T11:51:34.483Z</time></trkpt><trkpt lat="39.8570333" lon="9.3002683"><ele>975.0</ele><time>2026-04-24T11:51:35.483Z</time></trkpt><trkpt lat="39.8569417" lon="9.3002283"><ele>975.0</ele><time>2026-04-24T11:51:36.483Z</time></trkpt><trkpt lat="39.8568667" lon="9.3001733"><ele>975.0</ele><time>2026-04-24T11:51:37.484Z</time></trkpt><trkpt lat="39.8568017" lon="9.3000917"><ele>973.2</ele><time>2026-04-24T11:51:38.484Z</time></trkpt><trkpt lat="39.85673" lon="9.2999983"><ele>971.4</ele><time>2026-04-24T11:51:39.484Z</time></trkpt><trkpt lat="39.8566517" lon="9.2999117"><ele>969.5999999999999</ele><time>2026-04-24T11:51:40.483Z</time></trkpt><trkpt lat="39.856565" lon="9.299845"><ele>967.8</ele><time>2026-04-24T11:51:41.484Z</time></trkpt><trkpt lat="39.8564867" lon="9.2998"><ele>966.0</ele><time>2026-04-24T11:51:42.483Z</time></trkpt><trkpt lat="39.856405" lon="9.2997733"><ele>966.0</ele><time>2026-04-24T11:51:43.483Z</time></trkpt><trkpt lat="39.8563283" lon="9.299765"><ele>966.0</ele><time>2026-04-24T11:51:44.483Z</time></trkpt><trkpt lat="39.85622" lon="9.2998283"><ele>966.0</ele><time>2026-04-24T11:51:46.484Z</time></trkpt><trkpt lat="39.8561833" lon="9.29998"><ele>966.0</ele><time>2026-04-24T11:51:48.483Z</time></trkpt><trkpt lat="39.85616" lon="9.3001583"><ele>966.0</ele><time>2026-04-24T11:51:50.484Z</time></trkpt><trkpt lat="39.8561417" lon="9.3002517"><ele>965.9999999999999</ele><time>2026-04-24T11:51:51.483Z</time></trkpt><trkpt lat="39.8561117" lon="9.30036"><ele>965.9999999999999</ele><time>2026-04-24T11:51:52.484Z</time></trkpt><trkpt lat="39.8560683" lon="9.3004783"><ele>966.0</ele><time>2026-04-24T11:51:53.484Z</time></trkpt><trkpt lat="39.85602" lon="9.3006033"><ele>966.0</ele><time>2026-04-24T11:51:54.483Z</time></trkpt><trkpt lat="39.855965" lon="9.3007433"><ele>964.25</ele><time>2026-04-24T11:51:55.483Z</time></trkpt><trkpt lat="39.855915" lon="9.30088"><ele>962.5</ele><time>2026-04-24T11:51:56.483Z</time></trkpt><trkpt lat="39.8558517" lon="9.3010317"><ele>960.75</ele><time>2026-04-24T11:51:57.483Z</time></trkpt><trkpt lat="39.8557933" lon="9.3011767"><ele>959.0</ele><time>2026-04-24T11:51:58.483Z</time></trkpt><trkpt lat="39.8557417" lon="9.3013217"><ele>957.0</ele><time>2026-04-24T11:51:59.483Z</time></trkpt><trkpt lat="39.855695" lon="9.301455"><ele>955.0</ele><time>2026-04-24T11:52:00.484Z</time></trkpt><trkpt lat="39.85563" lon="9.3015867"><ele>953.0</ele><time>2026-04-24T11:52:01.484Z</time></trkpt><trkpt lat="39.8555617" lon="9.3017133"><ele>951.0</ele><time>2026-04-24T11:52:02.483Z</time></trkpt><trkpt lat="39.8554833" lon="9.3018317"><ele>951.0</ele><time>2026-04-24T11:52:03.483Z</time></trkpt><trkpt lat="39.855395" lon="9.3019567"><ele>951.0</ele><time>2026-04-24T11:52:04.484Z</time></trkpt><trkpt lat="39.8553067" lon="9.3020767"><ele>951.0</ele><time>2026-04-24T11:52:05.484Z</time></trkpt><trkpt lat="39.8552283" lon="9.3021983"><ele>951.0</ele><time>2026-04-24T11:52:06.483Z</time></trkpt><trkpt lat="39.8551567" lon="9.3023183"><ele>950.75</ele><time>2026-04-24T11:52:07.483Z</time></trkpt><trkpt lat="39.8550883" lon="9.30243"><ele>950.5</ele><time>2026-04-24T11:52:08.483Z</time></trkpt><trkpt lat="39.8550167" lon="9.302535"><ele>950.25</ele><time>2026-04-24T11:52:09.483Z</time></trkpt><trkpt lat="39.8548417" lon="9.3027133"><ele>950.0</ele><time>2026-04-24T11:52:11.484Z</time></trkpt><trkpt lat="39.8547533" lon="9.3027617"><ele>950.0000000000001</ele><time>2026-04-24T11:52:12.483Z</time></trkpt><trkpt lat="39.8546583" lon="9.3027767"><ele>950.0</ele><time>2026-04-24T11:52:13.484Z</time></trkpt><trkpt lat="39.854565" lon="9.3027733"><ele>950.0</ele><time>2026-04-24T11:52:14.483Z</time></trkpt><trkpt lat="39.8544733" lon="9.30276"><ele>950.0</ele><time>2026-04-24T11:52:15.484Z</time></trkpt><trkpt lat="39.8543983" lon="9.30275"><ele>950.0000000000001</ele><time>2026-04-24T11:52:16.483Z</time></trkpt><trkpt lat="39.8543317" lon="9.3027617"><ele>950.0</ele><time>2026-04-24T11:52:17.483Z</time></trkpt><trkpt lat="39.8542433" lon="9.3028517"><ele>949.0000000000001</ele><time>2026-04-24T11:52:19.483Z</time></trkpt><trkpt lat="39.85422" lon="9.302935"><ele>948.0</ele><time>2026-04-24T11:52:20.483Z</time></trkpt><trkpt lat="39.8542017" lon="9.3030383"><ele>947.0</ele><time>2026-04-24T11:52:21.484Z</time></trkpt><trkpt lat="39.854185" lon="9.3031467"><ele>946.0</ele><time>2026-04-24T11:52:22.484Z</time></trkpt><trkpt lat="39.85417" lon="9.3032717"><ele>945.0000000000001</ele><time>2026-04-24T11:52:23.484Z</time></trkpt><trkpt lat="39.8541533" lon="9.3034017"><ele>944.0</ele><time>2026-04-24T11:52:24.484Z</time></trkpt><trkpt lat="39.8541367" lon="9.30354"><ele>942.4000000000001</ele><time>2026-04-24T11:52:25.484Z</time></trkpt><trkpt lat="39.8541217" lon="9.3036717"><ele>940.8000000000001</ele><time>2026-04-24T11:52:26.483Z</time></trkpt><trkpt lat="39.8541183" lon="9.3038083"><ele>939.1999999999999</ele><time>2026-04-24T11:52:27.483Z</time></trkpt><trkpt lat="39.8541167" lon="9.3039383"><ele>937.5999999999999</ele><time>2026-04-24T11:52:28.484Z</time></trkpt><trkpt lat="39.8541183" lon="9.3040683"><ele>936.0</ele><time>2026-04-24T11:52:29.483Z</time></trkpt><trkpt lat="39.8541233" lon="9.3041983"><ele>935.0</ele><time>2026-04-24T11:52:30.483Z</time></trkpt><trkpt lat="39.85412" lon="9.304475"><ele>934.0</ele><time>2026-04-24T11:52:32.484Z</time></trkpt><trkpt lat="39.85412" lon="9.3046033"><ele>933.0</ele><time>2026-04-24T11:52:33.484Z</time></trkpt><trkpt lat="39.8541183" lon="9.3047267"><ele>932.0</ele><time>2026-04-24T11:52:34.484Z</time></trkpt><trkpt lat="39.85411" lon="9.3048383"><ele>931.8333333333334</ele><time>2026-04-24T11:52:35.483Z</time></trkpt><trkpt lat="39.8540917" lon="9.3049583"><ele>931.6666666666667</ele><time>2026-04-24T11:52:36.484Z</time></trkpt><trkpt lat="39.8540783" lon="9.3050567"><ele>931.5</ele><time>2026-04-24T11:52:37.483Z</time></trkpt><trkpt lat="39.8540567" lon="9.3051567"><ele>931.3333333333333</ele><time>2026-04-24T11:52:38.484Z</time></trkpt><trkpt lat="39.85404" lon="9.3052383"><ele>931.1666666666666</ele><time>2026-04-24T11:52:39.483Z</time></trkpt><trkpt lat="39.8540233" lon="9.3053583"><ele>931.0</ele><time>2026-04-24T11:52:41.484Z</time></trkpt><trkpt lat="39.854085" lon="9.3054"><ele>931.0</ele><time>2026-04-24T11:52:43.483Z</time></trkpt><trkpt lat="39.854175" lon="9.30537"><ele>930.9999999999999</ele><time>2026-04-24T11:52:45.483Z</time></trkpt><trkpt lat="39.8543067" lon="9.30535"><ele>930.9999999999999</ele><time>2026-04-24T11:52:47.484Z</time></trkpt><trkpt lat="39.854375" lon="9.3053517"><ele>931.0</ele><time>2026-04-24T11:52:48.483Z</time></trkpt><trkpt lat="39.8544533" lon="9.305375"><ele>931.0</ele><time>2026-04-24T11:52:49.483Z</time></trkpt><trkpt lat="39.854535" lon="9.305415"><ele>929.25</ele><time>2026-04-24T11:52:50.484Z</time></trkpt><trkpt lat="39.85462" lon="9.3054617"><ele>927.5</ele><time>2026-04-24T11:52:51.484Z</time></trkpt><trkpt lat="39.8548167" lon="9.3055317"><ele>925.75</ele><time>2026-04-24T11:52:53.483Z</time></trkpt><trkpt lat="39.8549133" lon="9.3055267"><ele>924.0</ele><time>2026-04-24T11:52:54.484Z</time></trkpt><trkpt lat="39.8550167" lon="9.3055033"><ele>924.0</ele><time>2026-04-24T11:52:55.483Z</time></trkpt><trkpt lat="39.855115" lon="9.3054683"><ele>924.0</ele><time>2026-04-24T11:52:56.483Z</time></trkpt><trkpt lat="39.855205" lon="9.3054367"><ele>924.0</ele><time>2026-04-24T11:52:57.484Z</time></trkpt><trkpt lat="39.8552917" lon="9.305395"><ele>924.0</ele><time>2026-04-24T11:52:58.483Z</time></trkpt><trkpt lat="39.85537" lon="9.3053633"><ele>924.0</ele><time>2026-04-24T11:52:59.483Z</time></trkpt><trkpt lat="39.8554483" lon="9.3053483"><ele>924.0</ele><time>2026-04-24T11:53:00.484Z</time></trkpt><trkpt lat="39.8555217" lon="9.3053367"><ele>922.0</ele><time>2026-04-24T11:53:01.483Z</time></trkpt><trkpt lat="39.8556217" lon="9.3053467"><ele>920.0000000000001</ele><time>2026-04-24T11:53:03.483Z</time></trkpt><trkpt lat="39.8557367" lon="9.3053867"><ele>918.0000000000001</ele><time>2026-04-24T11:53:05.484Z</time></trkpt><trkpt lat="39.8558117" lon="9.305425"><ele>916.0</ele><time>2026-04-24T11:53:06.484Z</time></trkpt><trkpt lat="39.8558967" lon="9.30547"><ele>914.0</ele><time>2026-04-24T11:53:07.484Z</time></trkpt><trkpt lat="39.8559817" lon="9.3055167"><ele>912.4000000000001</ele><time>2026-04-24T11:53:08.484Z</time></trkpt><trkpt lat="39.8560733" lon="9.3055483"><ele>910.8000000000001</ele><time>2026-04-24T11:53:09.484Z</time></trkpt><trkpt lat="39.85616" lon="9.3055667"><ele>909.1999999999999</ele><time>2026-04-24T11:53:10.483Z</time></trkpt><trkpt lat="39.856245" lon="9.3055883"><ele>907.5999999999999</ele><time>2026-04-24T11:53:11.483Z</time></trkpt><trkpt lat="39.8563417" lon="9.3056167"><ele>906.0</ele><time>2026-04-24T11:53:12.483Z</time></trkpt><trkpt lat="39.8565317" lon="9.3056767"><ele>906.0</ele><time>2026-04-24T11:53:14.483Z</time></trkpt><trkpt lat="39.85662" lon="9.3056933"><ele>905.9999999999999</ele><time>2026-04-24T11:53:15.483Z</time></trkpt><trkpt lat="39.8567067" lon="9.30572"><ele>905.9999999999999</ele><time>2026-04-24T11:53:16.484Z</time></trkpt><trkpt lat="39.85679" lon="9.3057567"><ele>906.0</ele><time>2026-04-24T11:53:17.483Z</time></trkpt><trkpt lat="39.8568767" lon="9.3058083"><ele>906.0</ele><time>2026-04-24T11:53:18.483Z</time></trkpt><trkpt lat="39.85697" lon="9.3058633"><ele>903.0</ele><time>2026-04-24T11:53:19.484Z</time></trkpt><trkpt lat="39.85705" lon="9.3059283"><ele>899.9999999999999</ele><time>2026-04-24T11:53:20.483Z</time></trkpt><trkpt lat="39.8571217" lon="9.306"><ele>896.9999999999999</ele><time>2026-04-24T11:53:21.484Z</time></trkpt><trkpt lat="39.8571833" lon="9.30609"><ele>894.0</ele><time>2026-04-24T11:53:22.483Z</time></trkpt><trkpt lat="39.8572417" lon="9.30619"><ele>891.0</ele><time>2026-04-24T11:53:23.484Z</time></trkpt><trkpt lat="39.85731" lon="9.3062867"><ele>891.0</ele><time>2026-04-24T11:53:24.484Z</time></trkpt><trkpt lat="39.857375" lon="9.3063667"><ele>891.0</ele><time>2026-04-24T11:53:25.483Z</time></trkpt><trkpt lat="39.85744" lon="9.3064267"><ele>891.0</ele><time>2026-04-24T11:53:26.484Z</time></trkpt><trkpt lat="39.8575033" lon="9.3064783"><ele>891.0</ele><time>2026-04-24T11:53:27.483Z</time></trkpt><trkpt lat="39.85758" lon="9.3065067"><ele>891.0</ele><time>2026-04-24T11:53:28.484Z</time></trkpt><trkpt lat="39.8576517" lon="9.3065183"><ele>891.0</ele><time>2026-04-24T11:53:29.483Z</time></trkpt><trkpt lat="39.85772" lon="9.3065117"><ele>887.1999999999999</ele><time>2026-04-24T11:53:30.483Z</time></trkpt><trkpt lat="39.85778" lon="9.3064867"><ele>883.3999999999999</ele><time>2026-04-24T11:53:31.484Z</time></trkpt><trkpt lat="39.8578883" lon="9.3064333"><ele>879.6</ele><time>2026-04-24T11:53:33.484Z</time></trkpt><trkpt lat="39.858025" lon="9.3065517"><ele>875.8</ele><time>2026-04-24T11:53:36.483Z</time></trkpt><trkpt lat="39.8580517" lon="9.3066417"><ele>872.0</ele><time>2026-04-24T11:53:37.483Z</time></trkpt><trkpt lat="39.858075" lon="9.3067483"><ele>872.0</ele><time>2026-04-24T11:53:38.483Z</time></trkpt><trkpt lat="39.858095" lon="9.3068567"><ele>872.0</ele><time>2026-04-24T11:53:39.484Z</time></trkpt><trkpt lat="39.858115" lon="9.3069683"><ele>872.0</ele><time>2026-04-24T11:53:40.483Z</time></trkpt><trkpt lat="39.8581433" lon="9.3070967"><ele>872.0</ele><time>2026-04-24T11:53:41.483Z</time></trkpt><trkpt lat="39.858175" lon="9.3072317"><ele>872.0</ele><time>2026-04-24T11:53:42.484Z</time></trkpt><trkpt lat="39.8582117" lon="9.30735"><ele>871.5000000000001</ele><time>2026-04-24T11:53:43.483Z</time></trkpt><trkpt lat="39.8582567" lon="9.3074483"><ele>871.0</ele><time>2026-04-24T11:53:44.483Z</time></trkpt><trkpt lat="39.8582817" lon="9.3075383"><ele>870.5</ele><time>2026-04-24T11:53:45.484Z</time></trkpt><trkpt lat="39.858295" lon="9.30764"><ele>870.0</ele><time>2026-04-24T11:53:46.483Z</time></trkpt><trkpt lat="39.8583017" lon="9.3077367"><ele>869.5000000000001</ele><time>2026-04-24T11:53:47.484Z</time></trkpt><trkpt lat="39.8583" lon="9.3078383"><ele>869.0</ele><time>2026-04-24T11:53:48.483Z</time></trkpt><trkpt lat="39.8582867" lon="9.30796"><ele>868.5000000000001</ele><time>2026-04-24T11:53:49.483Z</time></trkpt><trkpt lat="39.8582817" lon="9.30808"><ele>868.0</ele><time>2026-04-24T11:53:50.483Z</time></trkpt><trkpt lat="39.858285" lon="9.3082"><ele>867.5</ele><time>2026-04-24T11:53:51.483Z</time></trkpt><trkpt lat="39.858315" lon="9.30829"><ele>867.0</ele><time>2026-04-24T11:53:52.484Z</time></trkpt><trkpt lat="39.858325" lon="9.3084117"><ele>866.5000000000001</ele><time>2026-04-24T11:53:53.483Z</time></trkpt><trkpt lat="39.8583317" lon="9.30853"><ele>866.0</ele><time>2026-04-24T11:53:54.483Z</time></trkpt><trkpt lat="39.8583433" lon="9.308765"><ele>866.0000000000001</ele><time>2026-04-24T11:53:56.483Z</time></trkpt><trkpt lat="39.8583617" lon="9.3088783"><ele>866.0</ele><time>2026-04-24T11:53:57.483Z</time></trkpt><trkpt lat="39.8583767" lon="9.308985"><ele>866.0</ele><time>2026-04-24T11:53:58.483Z</time></trkpt><trkpt lat="39.8583983" lon="9.3090767"><ele>866.0</ele><time>2026-04-24T11:53:59.483Z</time></trkpt><trkpt lat="39.8584117" lon="9.3091583"><ele>866.0000000000001</ele><time>2026-04-24T11:54:00.483Z</time></trkpt><trkpt lat="39.8584567" lon="9.3092883"><ele>866.0</ele><time>2026-04-24T11:54:02.484Z</time></trkpt><trkpt lat="39.858535" lon="9.3093567"><ele>864.5999999999999</ele><time>2026-04-24T11:54:04.483Z</time></trkpt><trkpt lat="39.8586483" lon="9.3093867"><ele>863.1999999999999</ele><time>2026-04-24T11:54:06.484Z</time></trkpt><trkpt lat="39.8587033" lon="9.30948"><ele>861.8000000000001</ele><time>2026-04-24T11:54:08.483Z</time></trkpt><trkpt lat="39.8586883" lon="9.3096367"><ele>860.4000000000001</ele><time>2026-04-24T11:54:10.484Z</time></trkpt><trkpt lat="39.8586783" lon="9.30972"><ele>859.0</ele><time>2026-04-24T11:54:11.484Z</time></trkpt><trkpt lat="39.8586733" lon="9.3098033"><ele>858.4000000000001</ele><time>2026-04-24T11:54:12.483Z</time></trkpt><trkpt lat="39.8587167" lon="9.3099567"><ele>857.8000000000001</ele><time>2026-04-24T11:54:14.483Z</time></trkpt><trkpt lat="39.8587683" lon="9.310035"><ele>857.1999999999999</ele><time>2026-04-24T11:54:15.484Z</time></trkpt><trkpt lat="39.8588467" lon="9.3102233"><ele>856.5999999999999</ele><time>2026-04-24T11:54:17.484Z</time></trkpt><trkpt lat="39.8588833" lon="9.3103133"><ele>856.0</ele><time>2026-04-24T11:54:18.483Z</time></trkpt><trkpt lat="39.85891" lon="9.3104117"><ele>856.0</ele><time>2026-04-24T11:54:19.483Z</time></trkpt><trkpt lat="39.85894" lon="9.3105133"><ele>855.9999999999999</ele><time>2026-04-24T11:54:20.483Z</time></trkpt><trkpt lat="39.8589783" lon="9.3106033"><ele>855.9999999999999</ele><time>2026-04-24T11:54:21.484Z</time></trkpt><trkpt lat="39.8590083" lon="9.3106917"><ele>856.0</ele><time>2026-04-24T11:54:22.483Z</time></trkpt><trkpt lat="39.85906" lon="9.3108267"><ele>856.0</ele><time>2026-04-24T11:54:24.484Z</time></trkpt><trkpt lat="39.859065" lon="9.3109717"><ele>856.3333333333333</ele><time>2026-04-24T11:54:26.484Z</time></trkpt><trkpt lat="39.8590467" lon="9.3111167"><ele>856.6666666666666</ele><time>2026-04-24T11:54:28.483Z</time></trkpt><trkpt lat="39.859015" lon="9.3112717"><ele>857.0</ele><time>2026-04-24T11:54:30.484Z</time></trkpt><trkpt lat="39.8590033" lon="9.3113583"><ele>857.3333333333333</ele><time>2026-04-24T11:54:31.484Z</time></trkpt><trkpt lat="39.8589917" lon="9.3114517"><ele>857.6666666666666</ele><time>2026-04-24T11:54:32.483Z</time></trkpt><trkpt lat="39.858975" lon="9.3115433"><ele>858.0</ele><time>2026-04-24T11:54:33.483Z</time></trkpt><trkpt lat="39.8589583" lon="9.31164"><ele>860.0</ele><time>2026-04-24T11:54:34.483Z</time></trkpt><trkpt lat="39.8589433" lon="9.3117433"><ele>862.0</ele><time>2026-04-24T11:54:35.483Z</time></trkpt><trkpt lat="39.8589133" lon="9.3118367"><ele>864.0</ele><time>2026-04-24T11:54:36.484Z</time></trkpt><trkpt lat="39.8588167" lon="9.3119933"><ele>866.0</ele><time>2026-04-24T11:54:38.484Z</time></trkpt><trkpt lat="39.8587683" lon="9.3120633"><ele>868.0</ele><time>2026-04-24T11:54:39.484Z</time></trkpt><trkpt lat="39.858725" lon="9.3121367"><ele>868.0</ele><time>2026-04-24T11:54:40.483Z</time></trkpt><trkpt lat="39.8586733" lon="9.3122017"><ele>868.0</ele><time>2026-04-24T11:54:41.483Z</time></trkpt><trkpt lat="39.85861" lon="9.31225"><ele>868.0</ele><time>2026-04-24T11:54:42.484Z</time></trkpt><trkpt lat="39.8585417" lon="9.3122817"><ele>868.0</ele><time>2026-04-24T11:54:43.484Z</time></trkpt><trkpt lat="39.8584767" lon="9.3123067"><ele>868.0</ele><time>2026-04-24T11:54:44.484Z</time></trkpt><trkpt lat="39.8584117" lon="9.3123433"><ele>868.0</ele><time>2026-04-24T11:54:45.484Z</time></trkpt><trkpt lat="39.8583633" lon="9.31241"><ele>868.0</ele><time>2026-04-24T11:54:46.483Z</time></trkpt><trkpt lat="39.858325" lon="9.3125033"><ele>868.4999999999999</ele><time>2026-04-24T11:54:47.483Z</time></trkpt><trkpt lat="39.8582833" lon="9.3125933"><ele>869.0</ele><time>2026-04-24T11:54:48.483Z</time></trkpt><trkpt lat="39.8582417" lon="9.312685"><ele>869.5</ele><time>2026-04-24T11:54:49.483Z</time></trkpt><trkpt lat="39.8582033" lon="9.312775"><ele>870.0</ele><time>2026-04-24T11:54:50.483Z</time></trkpt><trkpt lat="39.8581683" lon="9.31287"><ele>870.4999999999999</ele><time>2026-04-24T11:54:51.484Z</time></trkpt><trkpt lat="39.8581383" lon="9.3129717"><ele>871.0</ele><time>2026-04-24T11:54:52.483Z</time></trkpt><trkpt lat="39.8581083" lon="9.3130733"><ele>871.0</ele><time>2026-04-24T11:54:53.484Z</time></trkpt><trkpt lat="39.8580817" lon="9.3131883"><ele>870.9999999999999</ele><time>2026-04-24T11:54:54.483Z</time></trkpt><trkpt lat="39.85804" lon="9.313305"><ele>870.9999999999999</ele><time>2026-04-24T11:54:55.484Z</time></trkpt><trkpt lat="39.8579833" lon="9.3134217"><ele>871.0</ele><time>2026-04-24T11:54:56.483Z</time></trkpt><trkpt lat="39.8579417" lon="9.3135383"><ele>871.0</ele><time>2026-04-24T11:54:57.483Z</time></trkpt><trkpt lat="39.85787" lon="9.3137383"><ele>871.0</ele><time>2026-04-24T11:54:59.483Z</time></trkpt><trkpt lat="39.85784" lon="9.3138133"><ele>871.0</ele><time>2026-04-24T11:55:00.483Z</time></trkpt><trkpt lat="39.8578" lon="9.3138783"><ele>871.0</ele><time>2026-04-24T11:55:01.483Z</time></trkpt><trkpt lat="39.857745" lon="9.3139367"><ele>871.0</ele><time>2026-04-24T11:55:02.483Z</time></trkpt><trkpt lat="39.8576817" lon="9.3139967"><ele>871.0</ele><time>2026-04-24T11:55:03.483Z</time></trkpt><trkpt lat="39.8576183" lon="9.3140517"><ele>871.0</ele><time>2026-04-24T11:55:04.483Z</time></trkpt><trkpt lat="39.8575667" lon="9.3141167"><ele>871.0</ele><time>2026-04-24T11:55:05.484Z</time></trkpt><trkpt lat="39.8575267" lon="9.3141983"><ele>868.4999999999999</ele><time>2026-04-24T11:55:06.483Z</time></trkpt><trkpt lat="39.8574833" lon="9.3142767"><ele>866.0</ele><time>2026-04-24T11:55:07.483Z</time></trkpt><trkpt lat="39.8574283" lon="9.31435"><ele>863.5</ele><time>2026-04-24T11:55:08.483Z</time></trkpt><trkpt lat="39.857355" lon="9.3144067"><ele>861.0</ele><time>2026-04-24T11:55:09.483Z</time></trkpt><trkpt lat="39.8572733" lon="9.3144517"><ele>858.4999999999999</ele><time>2026-04-24T11:55:10.484Z</time></trkpt><trkpt lat="39.857185" lon="9.314495"><ele>856.0</ele><time>2026-04-24T11:55:11.483Z</time></trkpt><trkpt lat="39.8570867" lon="9.3145333"><ele>856.0</ele><time>2026-04-24T11:55:12.483Z</time></trkpt><trkpt lat="39.85698" lon="9.314565"><ele>855.9999999999999</ele><time>2026-04-24T11:55:13.483Z</time></trkpt><trkpt lat="39.8568733" lon="9.31459"><ele>855.9999999999999</ele><time>2026-04-24T11:55:14.484Z</time></trkpt><trkpt lat="39.8567683" lon="9.3146167"><ele>856.0</ele><time>2026-04-24T11:55:15.483Z</time></trkpt><trkpt lat="39.8566617" lon="9.31464"><ele>856.0</ele><time>2026-04-24T11:55:16.483Z</time></trkpt><trkpt lat="39.8565583" lon="9.3146633"><ele>858.75</ele><time>2026-04-24T11:55:17.483Z</time></trkpt><trkpt lat="39.85646" lon="9.3146917"><ele>861.5</ele><time>2026-04-24T11:55:18.484Z</time></trkpt><trkpt lat="39.856275" lon="9.3147733"><ele>864.25</ele><time>2026-04-24T11:55:20.483Z</time></trkpt><trkpt lat="39.856195" lon="9.3148317"><ele>867.0</ele><time>2026-04-24T11:55:21.484Z</time></trkpt><trkpt lat="39.8561233" lon="9.314895"><ele>867.0</ele><time>2026-04-24T11:55:22.484Z</time></trkpt><trkpt lat="39.8560617" lon="9.3149717"><ele>867.0</ele><time>2026-04-24T11:55:23.483Z</time></trkpt><trkpt lat="39.8560017" lon="9.315045"><ele>867.0</ele><time>2026-04-24T11:55:24.484Z</time></trkpt><trkpt lat="39.8559383" lon="9.3151233"><ele>867.0</ele><time>2026-04-24T11:55:25.483Z</time></trkpt><trkpt lat="39.85589" lon="9.3152067"><ele>867.0</ele><time>2026-04-24T11:55:26.483Z</time></trkpt><trkpt lat="39.8558683" lon="9.3153067"><ele>867.0</ele><time>2026-04-24T11:55:27.484Z</time></trkpt><trkpt lat="39.8558633" lon="9.31543"><ele>864.6</ele><time>2026-04-24T11:55:28.483Z</time></trkpt><trkpt lat="39.85588" lon="9.3155483"><ele>862.2</ele><time>2026-04-24T11:55:29.484Z</time></trkpt><trkpt lat="39.8559167" lon="9.3156717"><ele>859.8</ele><time>2026-04-24T11:55:30.483Z</time></trkpt><trkpt lat="39.8559633" lon="9.3158067"><ele>857.4</ele><time>2026-04-24T11:55:31.484Z</time></trkpt><trkpt lat="39.8560117" lon="9.3159467"><ele>855.0</ele><time>2026-04-24T11:55:32.484Z</time></trkpt><trkpt lat="39.8560667" lon="9.3161017"><ele>862.75</ele><time>2026-04-24T11:55:33.483Z</time></trkpt><trkpt lat="39.85611" lon="9.31626"><ele>870.5</ele><time>2026-04-24T11:55:34.483Z</time></trkpt><trkpt lat="39.85615" lon="9.3164267"><ele>878.25</ele><time>2026-04-24T11:55:35.483Z</time></trkpt><trkpt lat="39.8561783" lon="9.31659"><ele>886.0</ele><time>2026-04-24T11:55:36.483Z</time></trkpt><trkpt lat="39.8562017" lon="9.31676"><ele>886.0</ele><time>2026-04-24T11:55:37.484Z</time></trkpt><trkpt lat="39.85621" lon="9.31693"><ele>886.0</ele><time>2026-04-24T11:55:38.484Z</time></trkpt><trkpt lat="39.85622" lon="9.3170917"><ele>886.0</ele><time>2026-04-24T11:55:39.484Z</time></trkpt><trkpt lat="39.8562517" lon="9.3173717"><ele>884.4</ele><time>2026-04-24T11:55:41.484Z</time></trkpt><trkpt lat="39.85627" lon="9.3175033"><ele>882.8</ele><time>2026-04-24T11:55:42.483Z</time></trkpt><trkpt lat="39.8562967" lon="9.317625"><ele>881.1999999999999</ele><time>2026-04-24T11:55:43.483Z</time></trkpt><trkpt lat="39.856335" lon="9.31774"><ele>879.5999999999999</ele><time>2026-04-24T11:55:44.484Z</time></trkpt><trkpt lat="39.85638" lon="9.317855"><ele>878.0</ele><time>2026-04-24T11:55:45.483Z</time></trkpt><trkpt lat="39.8564317" lon="9.3179567"><ele>878.0000000000001</ele><time>2026-04-24T11:55:46.484Z</time></trkpt><trkpt lat="39.8564883" lon="9.3180433"><ele>878.0</ele><time>2026-04-24T11:55:47.484Z</time></trkpt><trkpt lat="39.8565533" lon="9.3181133"><ele>878.0</ele><time>2026-04-24T11:55:48.483Z</time></trkpt><trkpt lat="39.85663" lon="9.3181617"><ele>878.0</ele><time>2026-04-24T11:55:49.483Z</time></trkpt><trkpt lat="39.85671" lon="9.3181867"><ele>878.0000000000001</ele><time>2026-04-24T11:55:50.484Z</time></trkpt><trkpt lat="39.856815" lon="9.3182"><ele>878.0</ele><time>2026-04-24T11:55:51.484Z</time></trkpt><trkpt lat="39.8569183" lon="9.3182267"><ele>877.2</ele><time>2026-04-24T11:55:52.483Z</time></trkpt><trkpt lat="39.85702" lon="9.3182583"><ele>876.4</ele><time>2026-04-24T11:55:53.484Z</time></trkpt><trkpt lat="39.85713" lon="9.3182683"><ele>875.6000000000001</ele><time>2026-04-24T11:55:54.483Z</time></trkpt><trkpt lat="39.85724" lon="9.3182683"><ele>874.8000000000001</ele><time>2026-04-24T11:55:55.484Z</time></trkpt><trkpt lat="39.857345" lon="9.3182733"><ele>874.0</ele><time>2026-04-24T11:55:56.483Z</time></trkpt><trkpt lat="39.8574467" lon="9.3182733"><ele>874.0</ele><time>2026-04-24T11:55:57.484Z</time></trkpt><trkpt lat="39.8575367" lon="9.3182917"><ele>874.0000000000001</ele><time>2026-04-24T11:55:58.483Z</time></trkpt><trkpt lat="39.8576167" lon="9.31832"><ele>874.0000000000001</ele><time>2026-04-24T11:55:59.483Z</time></trkpt><trkpt lat="39.8576783" lon="9.3183567"><ele>874.0</ele><time>2026-04-24T11:56:00.483Z</time></trkpt><trkpt lat="39.857725" lon="9.31856"><ele>874.0</ele><time>2026-04-24T11:56:04.483Z</time></trkpt><trkpt lat="39.8576467" lon="9.3186717"><ele>874.0</ele><time>2026-04-24T11:56:06.484Z</time></trkpt><trkpt lat="39.857595" lon="9.318745"><ele>874.0000000000001</ele><time>2026-04-24T11:56:07.483Z</time></trkpt><trkpt lat="39.8575383" lon="9.3188367"><ele>874.0000000000001</ele><time>2026-04-24T11:56:08.484Z</time></trkpt><trkpt lat="39.8574817" lon="9.318935"><ele>874.0</ele><time>2026-04-24T11:56:09.483Z</time></trkpt><trkpt lat="39.8574283" lon="9.3190483"><ele>874.0</ele><time>2026-04-24T11:56:10.483Z</time></trkpt><trkpt lat="39.8573717" lon="9.3191683"><ele>873.75</ele><time>2026-04-24T11:56:11.483Z</time></trkpt><trkpt lat="39.857315" lon="9.31929"><ele>873.5</ele><time>2026-04-24T11:56:12.484Z</time></trkpt><trkpt lat="39.85725" lon="9.3194167"><ele>873.25</ele><time>2026-04-24T11:56:13.484Z</time></trkpt><trkpt lat="39.8571767" lon="9.3195483"><ele>873.0</ele><time>2026-04-24T11:56:14.484Z</time></trkpt><trkpt lat="39.8571067" lon="9.3196683"><ele>876.5999999999999</ele><time>2026-04-24T11:56:15.484Z</time></trkpt><trkpt lat="39.8570367" lon="9.3197883"><ele>880.1999999999999</ele><time>2026-04-24T11:56:16.484Z</time></trkpt><trkpt lat="39.85698" lon="9.3199033"><ele>883.8</ele><time>2026-04-24T11:56:17.484Z</time></trkpt><trkpt lat="39.8569317" lon="9.320035"><ele>887.4</ele><time>2026-04-24T11:56:18.483Z</time></trkpt><trkpt lat="39.8569" lon="9.32017"><ele>891.0</ele><time>2026-04-24T11:56:19.483Z</time></trkpt><trkpt lat="39.8568783" lon="9.3203217"><ele>891.0</ele><time>2026-04-24T11:56:20.483Z</time></trkpt><trkpt lat="39.8568567" lon="9.320465"><ele>891.0</ele><time>2026-04-24T11:56:21.484Z</time></trkpt><trkpt lat="39.8568183" lon="9.3207617"><ele>891.0</ele><time>2026-04-24T11:56:23.483Z</time></trkpt><trkpt lat="39.8568167" lon="9.3209083"><ele>894.5</ele><time>2026-04-24T11:56:24.484Z</time></trkpt><trkpt lat="39.856815" lon="9.321065"><ele>898.0</ele><time>2026-04-24T11:56:25.483Z</time></trkpt><trkpt lat="39.8568117" lon="9.3212"><ele>901.5</ele><time>2026-04-24T11:56:26.483Z</time></trkpt><trkpt lat="39.8568" lon="9.321345"><ele>905.0</ele><time>2026-04-24T11:56:27.483Z</time></trkpt><trkpt lat="39.8567833" lon="9.321495"><ele>896.75</ele><time>2026-04-24T11:56:28.484Z</time></trkpt><trkpt lat="39.8567517" lon="9.3216617"><ele>888.5</ele><time>2026-04-24T11:56:29.483Z</time></trkpt><trkpt lat="39.856715" lon="9.321815"><ele>880.25</ele><time>2026-04-24T11:56:30.484Z</time></trkpt><trkpt lat="39.8566717" lon="9.3219683"><ele>872.0</ele><time>2026-04-24T11:56:31.483Z</time></trkpt><trkpt lat="39.8566283" lon="9.3221033"><ele>875.0</ele><time>2026-04-24T11:56:32.484Z</time></trkpt><trkpt lat="39.856585" lon="9.3222417"><ele>878.0</ele><time>2026-04-24T11:56:33.483Z</time></trkpt><trkpt lat="39.8565433" lon="9.3223833"><ele>881.0</ele><time>2026-04-24T11:56:34.484Z</time></trkpt><trkpt lat="39.85651" lon="9.3225317"><ele>884.0</ele><time>2026-04-24T11:56:35.483Z</time></trkpt><trkpt lat="39.8564767" lon="9.3226783"><ele>884.0</ele><time>2026-04-24T11:56:36.483Z</time></trkpt><trkpt lat="39.8564517" lon="9.3228333"><ele>884.0</ele><time>2026-04-24T11:56:37.484Z</time></trkpt><trkpt lat="39.8564283" lon="9.3229983"><ele>884.0</ele><time>2026-04-24T11:56:38.484Z</time></trkpt><trkpt lat="39.8564067" lon="9.32316"><ele>884.0</ele><time>2026-04-24T11:56:39.483Z</time></trkpt><trkpt lat="39.8563867" lon="9.3233283"><ele>883.3333333333334</ele><time>2026-04-24T11:56:40.484Z</time></trkpt><trkpt lat="39.8563767" lon="9.3235017"><ele>882.6666666666667</ele><time>2026-04-24T11:56:41.484Z</time></trkpt><trkpt lat="39.85637" lon="9.32368"><ele>882.0</ele><time>2026-04-24T11:56:42.483Z</time></trkpt><trkpt lat="39.8563583" lon="9.3239833"><ele>882.0</ele><time>2026-04-24T11:56:44.483Z</time></trkpt><trkpt lat="39.8563633" lon="9.3240867"><ele>882.0</ele><time>2026-04-24T11:56:45.484Z</time></trkpt><trkpt lat="39.8563717" lon="9.3241717"><ele>882.0</ele><time>2026-04-24T11:56:46.483Z</time></trkpt><trkpt lat="39.8563933" lon="9.324275"><ele>882.0</ele><time>2026-04-24T11:56:48.484Z</time></trkpt><trkpt lat="39.8564633" lon="9.3243333"><ele>882.0</ele><time>2026-04-24T11:56:51.484Z</time></trkpt><trkpt lat="39.8565283" lon="9.32429"><ele>882.0</ele><time>2026-04-24T11:56:53.484Z</time></trkpt><trkpt lat="39.8566167" lon="9.3242383"><ele>882.0</ele><time>2026-04-24T11:56:55.483Z</time></trkpt><trkpt lat="39.85673" lon="9.3241867"><ele>882.0</ele><time>2026-04-24T11:56:57.483Z</time></trkpt><trkpt lat="39.8567933" lon="9.32417"><ele>882.0</ele><time>2026-04-24T11:56:58.483Z</time></trkpt><trkpt lat="39.8568617" lon="9.324155"><ele>882.0</ele><time>2026-04-24T11:56:59.483Z</time></trkpt><trkpt lat="39.8569367" lon="9.3241383"><ele>882.0</ele><time>2026-04-24T11:57:00.484Z</time></trkpt><trkpt lat="39.8570167" lon="9.3241317"><ele>882.0</ele><time>2026-04-24T11:57:01.484Z</time></trkpt><trkpt lat="39.8571" lon="9.324125"><ele>882.25</ele><time>2026-04-24T11:57:02.484Z</time></trkpt><trkpt lat="39.85718" lon="9.3241233"><ele>882.5</ele><time>2026-04-24T11:57:03.483Z</time></trkpt><trkpt lat="39.8573633" lon="9.3241217"><ele>882.75</ele><time>2026-04-24T11:57:05.484Z</time></trkpt><trkpt lat="39.8574633" lon="9.3240967"><ele>883.0</ele><time>2026-04-24T11:57:06.484Z</time></trkpt><trkpt lat="39.85756" lon="9.32407"><ele>881.0</ele><time>2026-04-24T11:57:07.483Z</time></trkpt><trkpt lat="39.8576617" lon="9.324045"><ele>879.0</ele><time>2026-04-24T11:57:08.484Z</time></trkpt><trkpt lat="39.8577667" lon="9.3240117"><ele>877.0</ele><time>2026-04-24T11:57:09.484Z</time></trkpt><trkpt lat="39.8578817" lon="9.3239667"><ele>875.0</ele><time>2026-04-24T11:57:10.484Z</time></trkpt><trkpt lat="39.8579933" lon="9.3239167"><ele>879.25</ele><time>2026-04-24T11:57:11.483Z</time></trkpt><trkpt lat="39.858105" lon="9.3238733"><ele>883.5</ele><time>2026-04-24T11:57:12.484Z</time></trkpt><trkpt lat="39.8582217" lon="9.32383"><ele>887.75</ele><time>2026-04-24T11:57:13.483Z</time></trkpt><trkpt lat="39.858345" lon="9.32378"><ele>892.0</ele><time>2026-04-24T11:57:14.483Z</time></trkpt><trkpt lat="39.858465" lon="9.3237417"><ele>892.0</ele><time>2026-04-24T11:57:15.483Z</time></trkpt><trkpt lat="39.8585817" lon="9.3237"><ele>892.0</ele><time>2026-04-24T11:57:16.483Z</time></trkpt><trkpt lat="39.85869" lon="9.3236633"><ele>892.0</ele><time>2026-04-24T11:57:17.483Z</time></trkpt><trkpt lat="39.858805" lon="9.3236233"><ele>892.0</ele><time>2026-04-24T11:57:18.483Z</time></trkpt><trkpt lat="39.8589133" lon="9.3235783"><ele>892.0</ele><time>2026-04-24T11:57:19.483Z</time></trkpt><trkpt lat="39.85903" lon="9.3235267"><ele>892.0</ele><time>2026-04-24T11:57:20.483Z</time></trkpt><trkpt lat="39.8591383" lon="9.3234867"><ele>892.0</ele><time>2026-04-24T11:57:21.484Z</time></trkpt><trkpt lat="39.85924" lon="9.323455"><ele>892.0</ele><time>2026-04-24T11:57:22.483Z</time></trkpt><trkpt lat="39.8593483" lon="9.323415"><ele>892.5</ele><time>2026-04-24T11:57:23.483Z</time></trkpt><trkpt lat="39.85945" lon="9.3233967"><ele>893.0</ele><time>2026-04-24T11:57:24.484Z</time></trkpt><trkpt lat="39.8596567" lon="9.32343"><ele>893.5</ele><time>2026-04-24T11:57:26.484Z</time></trkpt><trkpt lat="39.85975" lon="9.3234733"><ele>894.0</ele><time>2026-04-24T11:57:27.483Z</time></trkpt><trkpt lat="39.8598367" lon="9.32352"><ele>894.0</ele><time>2026-04-24T11:57:28.484Z</time></trkpt><trkpt lat="39.8599283" lon="9.32354"><ele>894.0000000000001</ele><time>2026-04-24T11:57:29.483Z</time></trkpt><trkpt lat="39.8600167" lon="9.3235383"><ele>894.0000000000001</ele><time>2026-04-24T11:57:30.483Z</time></trkpt><trkpt lat="39.8601067" lon="9.3235083"><ele>894.0</ele><time>2026-04-24T11:57:31.483Z</time></trkpt><trkpt lat="39.860195" lon="9.3234783"><ele>894.0</ele><time>2026-04-24T11:57:32.484Z</time></trkpt><trkpt lat="39.860305" lon="9.32345"><ele>893.75</ele><time>2026-04-24T11:57:33.483Z</time></trkpt><trkpt lat="39.8604183" lon="9.3234333"><ele>893.5</ele><time>2026-04-24T11:57:34.483Z</time></trkpt><trkpt lat="39.8605483" lon="9.3234183"><ele>893.25</ele><time>2026-04-24T11:57:35.483Z</time></trkpt><trkpt lat="39.8606733" lon="9.3233833"><ele>893.0</ele><time>2026-04-24T11:57:36.483Z</time></trkpt><trkpt lat="39.8608083" lon="9.3233467"><ele>893.0</ele><time>2026-04-24T11:57:37.484Z</time></trkpt><trkpt lat="39.860935" lon="9.3233267"><ele>893.0</ele><time>2026-04-24T11:57:38.484Z</time></trkpt><trkpt lat="39.8610517" lon="9.32332"><ele>893.0</ele><time>2026-04-24T11:57:39.483Z</time></trkpt><trkpt lat="39.8611767" lon="9.3233133"><ele>893.0</ele><time>2026-04-24T11:57:40.484Z</time></trkpt><trkpt lat="39.8612983" lon="9.32329"><ele>891.4</ele><time>2026-04-24T11:57:41.483Z</time></trkpt><trkpt lat="39.8614117" lon="9.3232633"><ele>889.8</ele><time>2026-04-24T11:57:42.483Z</time></trkpt><trkpt lat="39.8615167" lon="9.3232333"><ele>888.2</ele><time>2026-04-24T11:57:43.483Z</time></trkpt><trkpt lat="39.8616183" lon="9.3232"><ele>886.6</ele><time>2026-04-24T11:57:44.484Z</time></trkpt><trkpt lat="39.8617133" lon="9.3231517"><ele>885.0</ele><time>2026-04-24T11:57:45.483Z</time></trkpt><trkpt lat="39.8618617" lon="9.3230267"><ele>888.6666666666666</ele><time>2026-04-24T11:57:47.483Z</time></trkpt><trkpt lat="39.8619367" lon="9.3229567"><ele>892.3333333333333</ele><time>2026-04-24T11:57:48.484Z</time></trkpt><trkpt lat="39.8620017" lon="9.3228983"><ele>896.0</ele><time>2026-04-24T11:57:49.483Z</time></trkpt><trkpt lat="39.8620667" lon="9.3228483"><ele>899.6666666666666</ele><time>2026-04-24T11:57:50.484Z</time></trkpt><trkpt lat="39.862135" lon="9.3228183"><ele>903.3333333333333</ele><time>2026-04-24T11:57:51.483Z</time></trkpt><trkpt lat="39.86224" lon="9.3228467"><ele>907.0</ele><time>2026-04-24T11:57:53.484Z</time></trkpt><trkpt lat="39.8622867" lon="9.322965"><ele>907.0</ele><time>2026-04-24T11:57:55.483Z</time></trkpt><trkpt lat="39.8622783" lon="9.3230533"><ele>907.0</ele><time>2026-04-24T11:57:56.484Z</time></trkpt><trkpt lat="39.862255" lon="9.3231617"><ele>907.0</ele><time>2026-04-24T11:57:57.483Z</time></trkpt><trkpt lat="39.8622233" lon="9.3232817"><ele>907.0</ele><time>2026-04-24T11:57:58.483Z</time></trkpt><trkpt lat="39.8621817" lon="9.3234033"><ele>907.0</ele><time>2026-04-24T11:57:59.483Z</time></trkpt><trkpt lat="39.8621433" lon="9.3235183"><ele>906.1666666666666</ele><time>2026-04-24T11:58:00.484Z</time></trkpt><trkpt lat="39.8621117" lon="9.32362"><ele>905.3333333333333</ele><time>2026-04-24T11:58:01.483Z</time></trkpt><trkpt lat="39.8620983" lon="9.3237067"><ele>904.5</ele><time>2026-04-24T11:58:02.484Z</time></trkpt><trkpt lat="39.8621367" lon="9.323855"><ele>903.6666666666667</ele><time>2026-04-24T11:58:04.483Z</time></trkpt><trkpt lat="39.862185" lon="9.3239217"><ele>902.8333333333334</ele><time>2026-04-24T11:58:05.484Z</time></trkpt><trkpt lat="39.8622367" lon="9.3239733"><ele>902.0</ele><time>2026-04-24T11:58:06.483Z</time></trkpt><trkpt lat="39.8622083" lon="9.3241433"><ele>902.0</ele><time>2026-04-24T11:58:10.484Z</time></trkpt><trkpt lat="39.8621333" lon="9.32417"><ele>902.0</ele><time>2026-04-24T11:58:11.484Z</time></trkpt><trkpt lat="39.8620483" lon="9.3242117"><ele>902.0</ele><time>2026-04-24T11:58:12.483Z</time></trkpt><trkpt lat="39.86196" lon="9.3242717"><ele>902.0</ele><time>2026-04-24T11:58:13.484Z</time></trkpt><trkpt lat="39.8618767" lon="9.3243483"><ele>902.0</ele><time>2026-04-24T11:58:14.483Z</time></trkpt><trkpt lat="39.8617917" lon="9.3244267"><ele>903.25</ele><time>2026-04-24T11:58:15.484Z</time></trkpt><trkpt lat="39.8616983" lon="9.3245183"><ele>904.5</ele><time>2026-04-24T11:58:16.484Z</time></trkpt><trkpt lat="39.861605" lon="9.324615"><ele>905.75</ele><time>2026-04-24T11:58:17.483Z</time></trkpt><trkpt lat="39.8615117" lon="9.3247083"><ele>907.0</ele><time>2026-04-24T11:58:18.484Z</time></trkpt><trkpt lat="39.86141" lon="9.3248167"><ele>907.0</ele><time>2026-04-24T11:58:19.483Z</time></trkpt><trkpt lat="39.861305" lon="9.3249233"><ele>907.0</ele><time>2026-04-24T11:58:20.484Z</time></trkpt><trkpt lat="39.8612017" lon="9.3250333"><ele>907.0</ele><time>2026-04-24T11:58:21.483Z</time></trkpt><trkpt lat="39.8611" lon="9.325135"><ele>907.0</ele><time>2026-04-24T11:58:22.483Z</time></trkpt><trkpt lat="39.8609883" lon="9.32523"><ele>903.25</ele><time>2026-04-24T11:58:23.483Z</time></trkpt><trkpt lat="39.8608783" lon="9.3253183"><ele>899.5</ele><time>2026-04-24T11:58:24.484Z</time></trkpt><trkpt lat="39.8607717" lon="9.325415"><ele>895.75</ele><time>2026-04-24T11:58:25.483Z</time></trkpt><trkpt lat="39.8606667" lon="9.32551"><ele>892.0</ele><time>2026-04-24T11:58:26.483Z</time></trkpt><trkpt lat="39.86058" lon="9.325605"><ele>903.3333333333333</ele><time>2026-04-24T11:58:27.483Z</time></trkpt><trkpt lat="39.860435" lon="9.3258267"><ele>914.6666666666667</ele><time>2026-04-24T11:58:29.483Z</time></trkpt><trkpt lat="39.8603683" lon="9.3259433"><ele>926.0</ele><time>2026-04-24T11:58:30.483Z</time></trkpt><trkpt lat="39.86031" lon="9.3260733"><ele>926.0</ele><time>2026-04-24T11:58:31.484Z</time></trkpt><trkpt lat="39.86026" lon="9.3262133"><ele>926.0</ele><time>2026-04-24T11:58:32.484Z</time></trkpt><trkpt lat="39.860215" lon="9.3263517"><ele>926.0</ele><time>2026-04-24T11:58:33.484Z</time></trkpt><trkpt lat="39.8601683" lon="9.3264933"><ele>926.0</ele><time>2026-04-24T11:58:34.483Z</time></trkpt><trkpt lat="39.860125" lon="9.3266267"><ele>925.0</ele><time>2026-04-24T11:58:35.483Z</time></trkpt><trkpt lat="39.8600767" lon="9.3267483"><ele>923.9999999999999</ele><time>2026-04-24T11:58:36.484Z</time></trkpt><trkpt lat="39.860015" lon="9.3268667"><ele>922.9999999999999</ele><time>2026-04-24T11:58:37.484Z</time></trkpt><trkpt lat="39.8599583" lon="9.32699"><ele>922.0</ele><time>2026-04-24T11:58:38.484Z</time></trkpt><trkpt lat="39.8599017" lon="9.3271217"><ele>921.0</ele><time>2026-04-24T11:58:39.483Z</time></trkpt><trkpt lat="39.8598467" lon="9.327255"><ele>926.1999999999999</ele><time>2026-04-24T11:58:40.484Z</time></trkpt><trkpt lat="39.8597983" lon="9.3273917"><ele>931.3999999999999</ele><time>2026-04-24T11:58:41.483Z</time></trkpt><trkpt lat="39.85977" lon="9.3275233"><ele>936.6</ele><time>2026-04-24T11:58:42.483Z</time></trkpt><trkpt lat="39.8597517" lon="9.3276417"><ele>941.8</ele><time>2026-04-24T11:58:43.483Z</time></trkpt><trkpt lat="39.85974" lon="9.327755"><ele>947.0</ele><time>2026-04-24T11:58:44.483Z</time></trkpt><trkpt lat="39.859735" lon="9.3278683"><ele>947.0</ele><time>2026-04-24T11:58:45.484Z</time></trkpt><trkpt lat="39.8597417" lon="9.3279767"><ele>947.0</ele><time>2026-04-24T11:58:46.483Z</time></trkpt><trkpt lat="39.8597617" lon="9.3280883"><ele>947.0</ele><time>2026-04-24T11:58:47.483Z</time></trkpt><trkpt lat="39.859795" lon="9.328195"><ele>947.0</ele><time>2026-04-24T11:58:48.483Z</time></trkpt><trkpt lat="39.8599133" lon="9.328385"><ele>947.0</ele><time>2026-04-24T11:58:50.484Z</time></trkpt><trkpt lat="39.8599833" lon="9.3284817"><ele>947.5000000000001</ele><time>2026-04-24T11:58:51.483Z</time></trkpt><trkpt lat="39.8600517" lon="9.3285617"><ele>948.0</ele><time>2026-04-24T11:58:52.483Z</time></trkpt><trkpt lat="39.8601183" lon="9.3286267"><ele>948.5</ele><time>2026-04-24T11:58:53.483Z</time></trkpt><trkpt lat="39.8601883" lon="9.328675"><ele>949.0</ele><time>2026-04-24T11:58:54.483Z</time></trkpt><trkpt lat="39.8602583" lon="9.3287183"><ele>949.5000000000001</ele><time>2026-04-24T11:58:55.484Z</time></trkpt><trkpt lat="39.860315" lon="9.3287667"><ele>950.0</ele><time>2026-04-24T11:58:56.484Z</time></trkpt><trkpt lat="39.86036" lon="9.3288283"><ele>954.0000000000001</ele><time>2026-04-24T11:58:57.484Z</time></trkpt><trkpt lat="39.8604083" lon="9.3289733"><ele>958.0</ele><time>2026-04-24T11:58:59.483Z</time></trkpt><trkpt lat="39.8604167" lon="9.3290667"><ele>962.0</ele><time>2026-04-24T11:59:00.484Z</time></trkpt><trkpt lat="39.8604183" lon="9.329175"><ele>966.0</ele><time>2026-04-24T11:59:01.483Z</time></trkpt><trkpt lat="39.8604283" lon="9.3292783"><ele>970.0000000000001</ele><time>2026-04-24T11:59:02.484Z</time></trkpt><trkpt lat="39.8604517" lon="9.3293833"><ele>974.0</ele><time>2026-04-24T11:59:03.484Z</time></trkpt><trkpt lat="39.8604817" lon="9.3294883"><ele>974.0</ele><time>2026-04-24T11:59:04.484Z</time></trkpt><trkpt lat="39.8605267" lon="9.329595"><ele>974.0000000000001</ele><time>2026-04-24T11:59:05.484Z</time></trkpt><trkpt lat="39.8605733" lon="9.3297033"><ele>974.0000000000001</ele><time>2026-04-24T11:59:06.483Z</time></trkpt><trkpt lat="39.860625" lon="9.32981"><ele>974.0</ele><time>2026-04-24T11:59:07.483Z</time></trkpt><trkpt lat="39.8606683" lon="9.3299217"><ele>974.0</ele><time>2026-04-24T11:59:08.483Z</time></trkpt><trkpt lat="39.8607017" lon="9.33004"><ele>974.0</ele><time>2026-04-24T11:59:09.483Z</time></trkpt><trkpt lat="39.8607483" lon="9.330245"><ele>974.0000000000001</ele><time>2026-04-24T11:59:11.483Z</time></trkpt><trkpt lat="39.8607283" lon="9.3304017"><ele>974.0000000000001</ele><time>2026-04-24T11:59:13.483Z</time></trkpt><trkpt lat="39.8606783" lon="9.3304667"><ele>974.0</ele><time>2026-04-24T11:59:14.484Z</time></trkpt><trkpt lat="39.8606117" lon="9.33053"><ele>974.0</ele><time>2026-04-24T11:59:15.483Z</time></trkpt><trkpt lat="39.86055" lon="9.3306117"><ele>974.0000000000001</ele><time>2026-04-24T11:59:16.484Z</time></trkpt><trkpt lat="39.8605017" lon="9.3306983"><ele>974.0</ele><time>2026-04-24T11:59:17.484Z</time></trkpt><trkpt lat="39.8604583" lon="9.3307633"><ele>974.0</ele><time>2026-04-24T11:59:18.484Z</time></trkpt><trkpt lat="39.86037" lon="9.3308533"><ele>974.0</ele><time>2026-04-24T11:59:20.483Z</time></trkpt><trkpt lat="39.8603517" lon="9.33094"><ele>974.0000000000001</ele><time>2026-04-24T11:59:26.483Z</time></trkpt><trkpt lat="39.8604433" lon="9.3310017"><ele>974.0</ele><time>2026-04-24T11:59:28.484Z</time></trkpt><trkpt lat="39.8605133" lon="9.3310117"><ele>974.0</ele><time>2026-04-24T11:59:29.484Z</time></trkpt><trkpt lat="39.8605867" lon="9.3310083"><ele>974.0</ele><time>2026-04-24T11:59:30.483Z</time></trkpt><trkpt lat="39.8607633" lon="9.330975"><ele>974.0</ele><time>2026-04-24T11:59:32.483Z</time></trkpt><trkpt lat="39.8608633" lon="9.330965"><ele>974.0</ele><time>2026-04-24T11:59:33.484Z</time></trkpt><trkpt lat="39.860965" lon="9.330965"><ele>976.2</ele><time>2026-04-24T11:59:34.483Z</time></trkpt><trkpt lat="39.86107" lon="9.3309683"><ele>978.4000000000001</ele><time>2026-04-24T11:59:35.484Z</time></trkpt><trkpt lat="39.8611717" lon="9.330975"><ele>980.6</ele><time>2026-04-24T11:59:36.483Z</time></trkpt><trkpt lat="39.8612567" lon="9.33099"><ele>982.8</ele><time>2026-04-24T11:59:37.483Z</time></trkpt><trkpt lat="39.861345" lon="9.3310167"><ele>985.0</ele><time>2026-04-24T11:59:38.483Z</time></trkpt><trkpt lat="39.8614317" lon="9.331045"><ele>985.0</ele><time>2026-04-24T11:59:39.484Z</time></trkpt><trkpt lat="39.861515" lon="9.3310717"><ele>985.0</ele><time>2026-04-24T11:59:40.483Z</time></trkpt><trkpt lat="39.8615967" lon="9.3310917"><ele>985.0</ele><time>2026-04-24T11:59:41.484Z</time></trkpt><trkpt lat="39.8616683" lon="9.3311133"><ele>985.0</ele><time>2026-04-24T11:59:42.483Z</time></trkpt><trkpt lat="39.8617417" lon="9.3311283"><ele>985.0</ele><time>2026-04-24T11:59:43.484Z</time></trkpt><trkpt lat="39.8618767" lon="9.3311117"><ele>985.4</ele><time>2026-04-24T11:59:45.483Z</time></trkpt><trkpt lat="39.8619567" lon="9.3310767"><ele>985.8</ele><time>2026-04-24T11:59:46.483Z</time></trkpt><trkpt lat="39.8620417" lon="9.3310383"><ele>986.2</ele><time>2026-04-24T11:59:47.483Z</time></trkpt><trkpt lat="39.862135" lon="9.3309883"><ele>986.6</ele><time>2026-04-24T11:59:48.483Z</time></trkpt><trkpt lat="39.862235" lon="9.33095"><ele>987.0</ele><time>2026-04-24T11:59:49.484Z</time></trkpt><trkpt lat="39.86233" lon="9.33091"><ele>987.0</ele><time>2026-04-24T11:59:50.483Z</time></trkpt><trkpt lat="39.8624217" lon="9.3308683"><ele>987.0</ele><time>2026-04-24T11:59:51.484Z</time></trkpt><trkpt lat="39.8625817" lon="9.330795"><ele>987.0</ele><time>2026-04-24T11:59:53.483Z</time></trkpt><trkpt lat="39.86265" lon="9.3307667"><ele>987.0</ele><time>2026-04-24T11:59:54.483Z</time></trkpt><trkpt lat="39.862725" lon="9.3307517"><ele>987.0</ele><time>2026-04-24T11:59:55.484Z</time></trkpt><trkpt lat="39.862805" lon="9.33074"><ele>986.1666666666666</ele><time>2026-04-24T11:59:56.483Z</time></trkpt><trkpt lat="39.8628767" lon="9.3307433"><ele>985.3333333333333</ele><time>2026-04-24T11:59:57.483Z</time></trkpt><trkpt lat="39.8629583" lon="9.330745"><ele>984.5</ele><time>2026-04-24T11:59:58.483Z</time></trkpt><trkpt lat="39.863035" lon="9.3307433"><ele>983.6666666666666</ele><time>2026-04-24T11:59:59.483Z</time></trkpt><trkpt lat="39.8631167" lon="9.3307383"><ele>982.8333333333333</ele><time>2026-04-24T12:00:00.484Z</time></trkpt><trkpt lat="39.8632017" lon="9.3307317"><ele>982.0</ele><time>2026-04-24T12:00:01.483Z</time></trkpt><trkpt lat="39.8632917" lon="9.330735"><ele>982.0</ele><time>2026-04-24T12:00:02.483Z</time></trkpt><trkpt lat="39.8633833" lon="9.33075"><ele>982.0</ele><time>2026-04-24T12:00:03.483Z</time></trkpt><trkpt lat="39.86347" lon="9.33077"><ele>982.0</ele><time>2026-04-24T12:00:04.483Z</time></trkpt><trkpt lat="39.8635417" lon="9.3307933"><ele>982.0</ele><time>2026-04-24T12:00:05.484Z</time></trkpt><trkpt lat="39.8636583" lon="9.3308283"><ele>982.0</ele><time>2026-04-24T12:00:07.484Z</time></trkpt><trkpt lat="39.8637567" lon="9.3308567"><ele>982.0</ele><time>2026-04-24T12:00:09.484Z</time></trkpt><trkpt lat="39.8638533" lon="9.33088"><ele>982.0</ele><time>2026-04-24T12:00:11.483Z</time></trkpt><trkpt lat="39.86396" lon="9.3309"><ele>982.0</ele><time>2026-04-24T12:00:13.484Z</time></trkpt><trkpt lat="39.8641533" lon="9.3309467"><ele>982.0</ele><time>2026-04-24T12:00:16.483Z</time></trkpt><trkpt lat="39.8642267" lon="9.3309517"><ele>982.6666666666666</ele><time>2026-04-24T12:00:17.484Z</time></trkpt><trkpt lat="39.8643" lon="9.330955"><ele>983.3333333333333</ele><time>2026-04-24T12:00:18.483Z</time></trkpt><trkpt lat="39.8643833" lon="9.3309533"><ele>984.0</ele><time>2026-04-24T12:00:19.483Z</time></trkpt><trkpt lat="39.86447" lon="9.3309567"><ele>984.6666666666667</ele><time>2026-04-24T12:00:20.484Z</time></trkpt><trkpt lat="39.864555" lon="9.3309683"><ele>985.3333333333334</ele><time>2026-04-24T12:00:21.483Z</time></trkpt><trkpt lat="39.864635" lon="9.3309867"><ele>986.0</ele><time>2026-04-24T12:00:22.484Z</time></trkpt><trkpt lat="39.8647167" lon="9.3310117"><ele>986.0</ele><time>2026-04-24T12:00:23.484Z</time></trkpt><trkpt lat="39.86481" lon="9.3310367"><ele>985.9999999999999</ele><time>2026-04-24T12:00:24.483Z</time></trkpt><trkpt lat="39.8649183" lon="9.33107"><ele>985.9999999999999</ele><time>2026-04-24T12:00:25.483Z</time></trkpt><trkpt lat="39.8650317" lon="9.33111"><ele>986.0</ele><time>2026-04-24T12:00:26.483Z</time></trkpt><trkpt lat="39.8651317" lon="9.3311467"><ele>986.0</ele><time>2026-04-24T12:00:27.484Z</time></trkpt><trkpt lat="39.8652217" lon="9.3311817"><ele>985.8333333333334</ele><time>2026-04-24T12:00:28.483Z</time></trkpt><trkpt lat="39.8653033" lon="9.3312217"><ele>985.6666666666667</ele><time>2026-04-24T12:00:29.483Z</time></trkpt><trkpt lat="39.86537" lon="9.3312817"><ele>985.5</ele><time>2026-04-24T12:00:30.484Z</time></trkpt><trkpt lat="39.8654267" lon="9.3313633"><ele>985.3333333333333</ele><time>2026-04-24T12:00:31.484Z</time></trkpt><trkpt lat="39.8654733" lon="9.3314633"><ele>985.1666666666666</ele><time>2026-04-24T12:00:32.484Z</time></trkpt><trkpt lat="39.8655133" lon="9.3315633"><ele>985.0</ele><time>2026-04-24T12:00:33.483Z</time></trkpt><trkpt lat="39.8655517" lon="9.3316767"><ele>985.0</ele><time>2026-04-24T12:00:34.483Z</time></trkpt><trkpt lat="39.8656517" lon="9.3319183"><ele>985.0</ele><time>2026-04-24T12:00:36.483Z</time></trkpt><trkpt lat="39.8657083" lon="9.3320267"><ele>985.0</ele><time>2026-04-24T12:00:37.484Z</time></trkpt><trkpt lat="39.8657583" lon="9.33213"><ele>985.0</ele><time>2026-04-24T12:00:38.484Z</time></trkpt><trkpt lat="39.8658067" lon="9.33222"><ele>984.6</ele><time>2026-04-24T12:00:39.483Z</time></trkpt><trkpt lat="39.8658467" lon="9.3322983"><ele>984.2</ele><time>2026-04-24T12:00:40.483Z</time></trkpt><trkpt lat="39.865915" lon="9.3324183"><ele>983.8</ele><time>2026-04-24T12:00:42.484Z</time></trkpt><trkpt lat="39.8659733" lon="9.3325033"><ele>983.4</ele><time>2026-04-24T12:00:49.484Z</time></trkpt><trkpt lat="39.8660367" lon="9.3324717"><ele>983.0</ele><time>2026-04-24T12:00:54.483Z</time></trkpt><trkpt lat="39.86614" lon="9.332415"><ele>983.0</ele><time>2026-04-24T12:00:56.483Z</time></trkpt><trkpt lat="39.8662817" lon="9.3323433"><ele>983.0</ele><time>2026-04-24T12:00:58.484Z</time></trkpt><trkpt lat="39.8663583" lon="9.3323183"><ele>983.0</ele><time>2026-04-24T12:00:59.483Z</time></trkpt><trkpt lat="39.8664333" lon="9.3323"><ele>983.0</ele><time>2026-04-24T12:01:00.483Z</time></trkpt><trkpt lat="39.8665" lon="9.3322933"><ele>983.0</ele><time>2026-04-24T12:01:01.484Z</time></trkpt><trkpt lat="39.8666233" lon="9.33232"><ele>983.0000000000001</ele><time>2026-04-24T12:01:03.484Z</time></trkpt><trkpt lat="39.8666783" lon="9.3323733"><ele>983.0</ele><time>2026-04-24T12:01:04.483Z</time></trkpt><trkpt lat="39.8667283" lon="9.3324533"><ele>983.0</ele><time>2026-04-24T12:01:05.483Z</time></trkpt><trkpt lat="39.8667833" lon="9.33254"><ele>983.0</ele><time>2026-04-24T12:01:06.483Z</time></trkpt><trkpt lat="39.866855" lon="9.3326317"><ele>983.0000000000001</ele><time>2026-04-24T12:01:07.483Z</time></trkpt><trkpt lat="39.866935" lon="9.3327133"><ele>983.0</ele><time>2026-04-24T12:01:08.484Z</time></trkpt><trkpt lat="39.8670217" lon="9.3327883"><ele>984.5</ele><time>2026-04-24T12:01:09.484Z</time></trkpt><trkpt lat="39.8671267" lon="9.33285"><ele>986.0</ele><time>2026-04-24T12:01:10.484Z</time></trkpt><trkpt lat="39.867235" lon="9.3329233"><ele>987.5</ele><time>2026-04-24T12:01:11.484Z</time></trkpt><trkpt lat="39.8673333" lon="9.3329933"><ele>989.0</ele><time>2026-04-24T12:01:12.483Z</time></trkpt><trkpt lat="39.8674317" lon="9.3330517"><ele>987.6</ele><time>2026-04-24T12:01:13.483Z</time></trkpt><trkpt lat="39.8675333" lon="9.3330833"><ele>986.2</ele><time>2026-04-24T12:01:14.483Z</time></trkpt><trkpt lat="39.8676317" lon="9.3331"><ele>984.8000000000001</ele><time>2026-04-24T12:01:15.484Z</time></trkpt><trkpt lat="39.86773" lon="9.3331017"><ele>983.4000000000001</ele><time>2026-04-24T12:01:16.484Z</time></trkpt><trkpt lat="39.8678233" lon="9.333085"><ele>982.0</ele><time>2026-04-24T12:01:17.483Z</time></trkpt><trkpt lat="39.86804" lon="9.3330033"><ele>982.0</ele><time>2026-04-24T12:01:19.484Z</time></trkpt><trkpt lat="39.8681633" lon="9.3329567"><ele>982.0</ele><time>2026-04-24T12:01:20.483Z</time></trkpt><trkpt lat="39.86829" lon="9.3329033"><ele>982.0</ele><time>2026-04-24T12:01:21.484Z</time></trkpt><trkpt lat="39.8684117" lon="9.3328567"><ele>982.0</ele><time>2026-04-24T12:01:22.484Z</time></trkpt><trkpt lat="39.86853" lon="9.33281"><ele>980.0</ele><time>2026-04-24T12:01:23.483Z</time></trkpt><trkpt lat="39.8686433" lon="9.3327717"><ele>978.0</ele><time>2026-04-24T12:01:24.483Z</time></trkpt><trkpt lat="39.8687533" lon="9.3327333"><ele>976.0</ele><time>2026-04-24T12:01:25.484Z</time></trkpt><trkpt lat="39.8688567" lon="9.3327067"><ele>974.0</ele><time>2026-04-24T12:01:26.483Z</time></trkpt><trkpt lat="39.8689467" lon="9.3326867"><ele>972.0</ele><time>2026-04-24T12:01:27.484Z</time></trkpt><trkpt lat="39.869025" lon="9.3326567"><ele>972.0</ele><time>2026-04-24T12:01:28.483Z</time></trkpt><trkpt lat="39.869095" lon="9.3326167"><ele>972.0</ele><time>2026-04-24T12:01:29.483Z</time></trkpt><trkpt lat="39.86915" lon="9.3325533"><ele>972.0</ele><time>2026-04-24T12:01:30.483Z</time></trkpt><trkpt lat="39.8692033" lon="9.332465"><ele>972.0</ele><time>2026-04-24T12:01:31.483Z</time></trkpt><trkpt lat="39.8692417" lon="9.3323633"><ele>972.0</ele><time>2026-04-24T12:01:32.484Z</time></trkpt><trkpt lat="39.8692783" lon="9.3322533"><ele>972.0</ele><time>2026-04-24T12:01:33.483Z</time></trkpt><trkpt lat="39.8693267" lon="9.3321583"><ele>969.6</ele><time>2026-04-24T12:01:34.483Z</time></trkpt><trkpt lat="39.8693883" lon="9.3320567"><ele>967.2</ele><time>2026-04-24T12:01:35.483Z</time></trkpt><trkpt lat="39.8694533" lon="9.3319533"><ele>964.8</ele><time>2026-04-24T12:01:36.484Z</time></trkpt><trkpt lat="39.8695217" lon="9.331845"><ele>962.4</ele><time>2026-04-24T12:01:37.483Z</time></trkpt><trkpt lat="39.8695867" lon="9.3317383"><ele>960.0</ele><time>2026-04-24T12:01:38.484Z</time></trkpt><trkpt lat="39.8697" lon="9.331525"><ele>960.0</ele><time>2026-04-24T12:01:40.483Z</time></trkpt><trkpt lat="39.8697417" lon="9.3314117"><ele>960.0</ele><time>2026-04-24T12:01:41.483Z</time></trkpt><trkpt lat="39.8697867" lon="9.3313"><ele>960.0</ele><time>2026-04-24T12:01:42.484Z</time></trkpt><trkpt lat="39.8698217" lon="9.3311967"><ele>960.0</ele><time>2026-04-24T12:01:43.484Z</time></trkpt><trkpt lat="39.8698567" lon="9.3310867"><ele>960.0</ele><time>2026-04-24T12:01:44.484Z</time></trkpt><trkpt lat="39.8698783" lon="9.3309733"><ele>959.4</ele><time>2026-04-24T12:01:45.484Z</time></trkpt><trkpt lat="39.8698933" lon="9.330855"><ele>958.8</ele><time>2026-04-24T12:01:46.483Z</time></trkpt><trkpt lat="39.8699033" lon="9.330725"><ele>958.2</ele><time>2026-04-24T12:01:47.483Z</time></trkpt><trkpt lat="39.8699117" lon="9.3305867"><ele>957.6</ele><time>2026-04-24T12:01:48.484Z</time></trkpt><trkpt lat="39.8699183" lon="9.3304467"><ele>957.0</ele><time>2026-04-24T12:01:49.483Z</time></trkpt><trkpt lat="39.8699183" lon="9.3303017"><ele>955.6</ele><time>2026-04-24T12:01:50.484Z</time></trkpt><trkpt lat="39.86992" lon="9.3301683"><ele>954.2</ele><time>2026-04-24T12:01:51.483Z</time></trkpt><trkpt lat="39.869925" lon="9.330035"><ele>952.8</ele><time>2026-04-24T12:01:52.484Z</time></trkpt><trkpt lat="39.8699317" lon="9.329905"><ele>951.4</ele><time>2026-04-24T12:01:53.484Z</time></trkpt><trkpt lat="39.869935" lon="9.32978"><ele>950.0</ele><time>2026-04-24T12:01:54.484Z</time></trkpt><trkpt lat="39.8699333" lon="9.329665"><ele>950.0</ele><time>2026-04-24T12:01:55.484Z</time></trkpt><trkpt lat="39.8699267" lon="9.32956"><ele>950.0</ele><time>2026-04-24T12:01:56.484Z</time></trkpt><trkpt lat="39.86991" lon="9.3294633"><ele>950.0</ele><time>2026-04-24T12:01:57.484Z</time></trkpt><trkpt lat="39.8698867" lon="9.32938"><ele>950.0</ele><time>2026-04-24T12:01:58.483Z</time></trkpt><trkpt lat="39.8698733" lon="9.3292367"><ele>950.0</ele><time>2026-04-24T12:02:00.483Z</time></trkpt><trkpt lat="39.8700617" lon="9.3291567"><ele>951.0000000000001</ele><time>2026-04-24T12:02:04.483Z</time></trkpt><trkpt lat="39.8701333" lon="9.3291783"><ele>952.0</ele><time>2026-04-24T12:02:05.483Z</time></trkpt><trkpt lat="39.8702117" lon="9.32921"><ele>953.0</ele><time>2026-04-24T12:02:06.483Z</time></trkpt><trkpt lat="39.87029" lon="9.3292467"><ele>954.0</ele><time>2026-04-24T12:02:07.483Z</time></trkpt><trkpt lat="39.8703567" lon="9.32928"><ele>955.0000000000001</ele><time>2026-04-24T12:02:08.483Z</time></trkpt><trkpt lat="39.8704117" lon="9.3293267"><ele>956.0</ele><time>2026-04-24T12:02:09.483Z</time></trkpt><trkpt lat="39.8704767" lon="9.32945"><ele>956.0000000000001</ele><time>2026-04-24T12:02:11.483Z</time></trkpt><trkpt lat="39.8704983" lon="9.32961"><ele>956.0</ele><time>2026-04-24T12:02:13.484Z</time></trkpt><trkpt lat="39.87051" lon="9.3297"><ele>956.0</ele><time>2026-04-24T12:02:14.483Z</time></trkpt><trkpt lat="39.8705333" lon="9.3297867"><ele>956.0</ele><time>2026-04-24T12:02:15.483Z</time></trkpt><trkpt lat="39.8705783" lon="9.329855"><ele>956.0000000000001</ele><time>2026-04-24T12:02:16.483Z</time></trkpt><trkpt lat="39.8706383" lon="9.3299117"><ele>956.0</ele><time>2026-04-24T12:02:17.483Z</time></trkpt><trkpt lat="39.8707083" lon="9.3299683"><ele>954.5999999999999</ele><time>2026-04-24T12:02:18.483Z</time></trkpt><trkpt lat="39.8707867" lon="9.33002"><ele>953.1999999999999</ele><time>2026-04-24T12:02:19.483Z</time></trkpt><trkpt lat="39.870865" lon="9.3300633"><ele>951.8000000000001</ele><time>2026-04-24T12:02:20.483Z</time></trkpt><trkpt lat="39.8709417" lon="9.33009"><ele>950.4000000000001</ele><time>2026-04-24T12:02:21.484Z</time></trkpt><trkpt lat="39.8711067" lon="9.330145"><ele>949.0</ele><time>2026-04-24T12:02:23.483Z</time></trkpt><trkpt lat="39.8711833" lon="9.3301983"><ele>950.4000000000001</ele><time>2026-04-24T12:02:24.484Z</time></trkpt><trkpt lat="39.8712533" lon="9.3302567"><ele>951.8000000000001</ele><time>2026-04-24T12:02:25.484Z</time></trkpt><trkpt lat="39.8713283" lon="9.3303267"><ele>953.1999999999999</ele><time>2026-04-24T12:02:26.483Z</time></trkpt><trkpt lat="39.8713967" lon="9.3304083"><ele>954.5999999999999</ele><time>2026-04-24T12:02:27.483Z</time></trkpt><trkpt lat="39.8714583" lon="9.3304933"><ele>956.0</ele><time>2026-04-24T12:02:28.483Z</time></trkpt><trkpt lat="39.8715133" lon="9.3305917"><ele>956.0</ele><time>2026-04-24T12:02:29.483Z</time></trkpt><trkpt lat="39.87158" lon="9.3306933"><ele>955.9999999999999</ele><time>2026-04-24T12:02:30.483Z</time></trkpt><trkpt lat="39.8716433" lon="9.3308033"><ele>955.9999999999999</ele><time>2026-04-24T12:02:31.484Z</time></trkpt><trkpt lat="39.8717183" lon="9.330915"><ele>956.0</ele><time>2026-04-24T12:02:32.483Z</time></trkpt><trkpt lat="39.8717933" lon="9.3310283"><ele>956.0</ele><time>2026-04-24T12:02:33.484Z</time></trkpt><trkpt lat="39.8718617" lon="9.3311433"><ele>959.5</ele><time>2026-04-24T12:02:34.484Z</time></trkpt><trkpt lat="39.87193" lon="9.331265"><ele>963.0</ele><time>2026-04-24T12:02:35.483Z</time></trkpt><trkpt lat="39.8719967" lon="9.3313967"><ele>966.5</ele><time>2026-04-24T12:02:36.483Z</time></trkpt><trkpt lat="39.8720633" lon="9.331525"><ele>970.0</ele><time>2026-04-24T12:02:37.483Z</time></trkpt><trkpt lat="39.87213" lon="9.3316567"><ele>970.0</ele><time>2026-04-24T12:02:38.483Z</time></trkpt><trkpt lat="39.8721917" lon="9.3317817"><ele>970.0</ele><time>2026-04-24T12:02:39.484Z</time></trkpt><trkpt lat="39.87225" lon="9.3319167"><ele>970.0</ele><time>2026-04-24T12:02:40.484Z</time></trkpt><trkpt lat="39.872305" lon="9.3320533"><ele>970.0</ele><time>2026-04-24T12:02:41.483Z</time></trkpt><trkpt lat="39.872355" lon="9.3321883"><ele>968.0</ele><time>2026-04-24T12:02:42.483Z</time></trkpt><trkpt lat="39.8724333" lon="9.3324217"><ele>966.0</ele><time>2026-04-24T12:02:44.483Z</time></trkpt><trkpt lat="39.8724667" lon="9.3325167"><ele>964.0</ele><time>2026-04-24T12:02:45.483Z</time></trkpt><trkpt lat="39.8724933" lon="9.3325983"><ele>962.0</ele><time>2026-04-24T12:02:46.484Z</time></trkpt><trkpt lat="39.8725267" lon="9.3326717"><ele>960.0</ele><time>2026-04-24T12:02:47.484Z</time></trkpt><trkpt lat="39.8725783" lon="9.3327267"><ele>960.1666666666666</ele><time>2026-04-24T12:02:48.484Z</time></trkpt><trkpt lat="39.8726367" lon="9.332765"><ele>960.3333333333333</ele><time>2026-04-24T12:02:49.484Z</time></trkpt><trkpt lat="39.872705" lon="9.3327833"><ele>960.5</ele><time>2026-04-24T12:02:50.484Z</time></trkpt><trkpt lat="39.8727767" lon="9.3327883"><ele>960.6666666666666</ele><time>2026-04-24T12:02:51.483Z</time></trkpt><trkpt lat="39.8728517" lon="9.3327633"><ele>960.8333333333333</ele><time>2026-04-24T12:02:52.483Z</time></trkpt><trkpt lat="39.8729367" lon="9.3327167"><ele>961.0</ele><time>2026-04-24T12:02:53.483Z</time></trkpt><trkpt lat="39.8730283" lon="9.33266"><ele>961.0</ele><time>2026-04-24T12:02:54.483Z</time></trkpt><trkpt lat="39.87312" lon="9.3325917"><ele>960.9999999999999</ele><time>2026-04-24T12:02:55.484Z</time></trkpt><trkpt lat="39.873225" lon="9.33252"><ele>960.9999999999999</ele><time>2026-04-24T12:02:56.484Z</time></trkpt><trkpt lat="39.87333" lon="9.3324483"><ele>961.0</ele><time>2026-04-24T12:02:57.483Z</time></trkpt><trkpt lat="39.87342" lon="9.3323917"><ele>961.0</ele><time>2026-04-24T12:02:58.484Z</time></trkpt><trkpt lat="39.8735133" lon="9.3323483"><ele>959.8</ele><time>2026-04-24T12:02:59.483Z</time></trkpt><trkpt lat="39.8736017" lon="9.3323317"><ele>958.5999999999999</ele><time>2026-04-24T12:03:00.484Z</time></trkpt><trkpt lat="39.873685" lon="9.3323417"><ele>957.4</ele><time>2026-04-24T12:03:01.483Z</time></trkpt><trkpt lat="39.87376" lon="9.33239"><ele>956.2</ele><time>2026-04-24T12:03:02.484Z</time></trkpt><trkpt lat="39.8738333" lon="9.3324567"><ele>955.0</ele><time>2026-04-24T12:03:03.483Z</time></trkpt><trkpt lat="39.8739617" lon="9.332595"><ele>955.0</ele><time>2026-04-24T12:03:05.484Z</time></trkpt><trkpt lat="39.87407" lon="9.332645"><ele>955.0</ele><time>2026-04-24T12:03:07.484Z</time></trkpt><trkpt lat="39.87414" lon="9.3326233"><ele>955.0</ele><time>2026-04-24T12:03:08.483Z</time></trkpt><trkpt lat="39.8742117" lon="9.3325767"><ele>955.0</ele><time>2026-04-24T12:03:09.483Z</time></trkpt><trkpt lat="39.8742933" lon="9.3325033"><ele>955.0</ele><time>2026-04-24T12:03:10.484Z</time></trkpt><trkpt lat="39.8743717" lon="9.3324133"><ele>954.25</ele><time>2026-04-24T12:03:11.484Z</time></trkpt><trkpt lat="39.8744467" lon="9.3323167"><ele>953.5</ele><time>2026-04-24T12:03:12.483Z</time></trkpt><trkpt lat="39.8745233" lon="9.33221"><ele>952.75</ele><time>2026-04-24T12:03:13.483Z</time></trkpt><trkpt lat="39.874605" lon="9.3320867"><ele>952.0</ele><time>2026-04-24T12:03:14.484Z</time></trkpt><trkpt lat="39.874685" lon="9.3319567"><ele>952.0</ele><time>2026-04-24T12:03:15.484Z</time></trkpt><trkpt lat="39.874765" lon="9.3318283"><ele>952.0</ele><time>2026-04-24T12:03:16.483Z</time></trkpt><trkpt lat="39.874845" lon="9.3317083"><ele>952.0</ele><time>2026-04-24T12:03:17.483Z</time></trkpt><trkpt lat="39.87493" lon="9.3315933"><ele>952.0</ele><time>2026-04-24T12:03:18.483Z</time></trkpt><trkpt lat="39.8750233" lon="9.3314917"><ele>954.0</ele><time>2026-04-24T12:03:19.483Z</time></trkpt><trkpt lat="39.8751183" lon="9.3313883"><ele>956.0</ele><time>2026-04-24T12:03:20.483Z</time></trkpt><trkpt lat="39.8752083" lon="9.3312867"><ele>958.0</ele><time>2026-04-24T12:03:21.483Z</time></trkpt><trkpt lat="39.8752833" lon="9.331185"><ele>960.0</ele><time>2026-04-24T12:03:22.483Z</time></trkpt><trkpt lat="39.8753417" lon="9.331085"><ele>962.0</ele><time>2026-04-24T12:03:23.483Z</time></trkpt><trkpt lat="39.875385" lon="9.331"><ele>962.0</ele><time>2026-04-24T12:03:24.484Z</time></trkpt><trkpt lat="39.8755483" lon="9.330945"><ele>962.0</ele><time>2026-04-24T12:03:28.484Z</time></trkpt><trkpt lat="39.87561" lon="9.3310767"><ele>962.0</ele><time>2026-04-24T12:03:30.483Z</time></trkpt><trkpt lat="39.875615" lon="9.3311733"><ele>962.0</ele><time>2026-04-24T12:03:31.484Z</time></trkpt><trkpt lat="39.875605" lon="9.3312817"><ele>962.0</ele><time>2026-04-24T12:03:32.483Z</time></trkpt><trkpt lat="39.8756017" lon="9.3314"><ele>961.6</ele><time>2026-04-24T12:03:33.483Z</time></trkpt><trkpt lat="39.8756" lon="9.3315283"><ele>961.2</ele><time>2026-04-24T12:03:34.483Z</time></trkpt><trkpt lat="39.8756017" lon="9.3316533"><ele>960.8</ele><time>2026-04-24T12:03:35.484Z</time></trkpt><trkpt lat="39.8755983" lon="9.3317817"><ele>960.4</ele><time>2026-04-24T12:03:36.484Z</time></trkpt><trkpt lat="39.8755967" lon="9.33191"><ele>960.0</ele><time>2026-04-24T12:03:37.484Z</time></trkpt><trkpt lat="39.8755967" lon="9.3320317"><ele>960.0</ele><time>2026-04-24T12:03:38.484Z</time></trkpt><trkpt lat="39.8755917" lon="9.3321517"><ele>960.0</ele><time>2026-04-24T12:03:39.483Z</time></trkpt><trkpt lat="39.8755967" lon="9.33227"><ele>960.0</ele><time>2026-04-24T12:03:40.483Z</time></trkpt><trkpt lat="39.8756017" lon="9.33239"><ele>960.0</ele><time>2026-04-24T12:03:41.484Z</time></trkpt><trkpt lat="39.8756083" lon="9.33251"><ele>960.0</ele><time>2026-04-24T12:03:42.484Z</time></trkpt><trkpt lat="39.8756167" lon="9.3326333"><ele>960.0</ele><time>2026-04-24T12:03:43.483Z</time></trkpt><trkpt lat="39.875625" lon="9.3327483"><ele>960.0</ele><time>2026-04-24T12:03:44.484Z</time></trkpt><trkpt lat="39.875625" lon="9.3328683"><ele>960.0</ele><time>2026-04-24T12:03:45.484Z</time></trkpt><trkpt lat="39.8756383" lon="9.33309"><ele>960.0</ele><time>2026-04-24T12:03:47.483Z</time></trkpt><trkpt lat="39.8756533" lon="9.3332017"><ele>960.0</ele><time>2026-04-24T12:03:48.484Z</time></trkpt><trkpt lat="39.87567" lon="9.3333067"><ele>960.0</ele><time>2026-04-24T12:03:49.483Z</time></trkpt><trkpt lat="39.8756933" lon="9.333405"><ele>960.0</ele><time>2026-04-24T12:03:50.484Z</time></trkpt><trkpt lat="39.875725" lon="9.3334917"><ele>960.0</ele><time>2026-04-24T12:03:51.483Z</time></trkpt><trkpt lat="39.8757617" lon="9.33356"><ele>960.0</ele><time>2026-04-24T12:03:52.483Z</time></trkpt><trkpt lat="39.8758117" lon="9.3336167"><ele>960.0</ele><time>2026-04-24T12:03:53.483Z</time></trkpt><trkpt lat="39.8758733" lon="9.3336617"><ele>960.0</ele><time>2026-04-24T12:03:54.483Z</time></trkpt><trkpt lat="39.876" lon="9.333685"><ele>960.0</ele><time>2026-04-24T12:03:56.484Z</time></trkpt><trkpt lat="39.876075" lon="9.3336617"><ele>960.0</ele><time>2026-04-24T12:03:57.484Z</time></trkpt><trkpt lat="39.8761483" lon="9.3336217"><ele>960.0</ele><time>2026-04-24T12:03:58.484Z</time></trkpt><trkpt lat="39.87622" lon="9.3335533"><ele>960.0</ele><time>2026-04-24T12:03:59.484Z</time></trkpt><trkpt lat="39.8762933" lon="9.3334767"><ele>960.0</ele><time>2026-04-24T12:04:00.484Z</time></trkpt><trkpt lat="39.8763617" lon="9.3334"><ele>960.0</ele><time>2026-04-24T12:04:01.484Z</time></trkpt><trkpt lat="39.87643" lon="9.3333217"><ele>960.0</ele><time>2026-04-24T12:04:02.484Z</time></trkpt><trkpt lat="39.8764967" lon="9.3332467"><ele>960.0</ele><time>2026-04-24T12:04:03.484Z</time></trkpt><trkpt lat="39.876565" lon="9.3331683"><ele>960.0</ele><time>2026-04-24T12:04:04.483Z</time></trkpt><trkpt lat="39.87664" lon="9.3330967"><ele>960.0</ele><time>2026-04-24T12:04:05.483Z</time></trkpt><trkpt lat="39.8767183" lon="9.3330233"><ele>960.0</ele><time>2026-04-24T12:04:06.483Z</time></trkpt><trkpt lat="39.876865" lon="9.3328883"><ele>962.3333333333334</ele><time>2026-04-24T12:04:08.483Z</time></trkpt><trkpt lat="39.8769317" lon="9.332815"><ele>964.6666666666667</ele><time>2026-04-24T12:04:09.484Z</time></trkpt><trkpt lat="39.877" lon="9.3327333"><ele>967.0</ele><time>2026-04-24T12:04:10.483Z</time></trkpt><trkpt lat="39.877065" lon="9.33264"><ele>969.3333333333334</ele><time>2026-04-24T12:04:11.484Z</time></trkpt><trkpt lat="39.8771233" lon="9.3325517"><ele>971.6666666666667</ele><time>2026-04-24T12:04:12.483Z</time></trkpt><trkpt lat="39.8771683" lon="9.3324817"><ele>974.0</ele><time>2026-04-24T12:04:13.483Z</time></trkpt><trkpt lat="39.877275" lon="9.3323983"><ele>974.0000000000001</ele><time>2026-04-24T12:04:15.484Z</time></trkpt><trkpt lat="39.87739" lon="9.3324283"><ele>974.0</ele><time>2026-04-24T12:04:17.484Z</time></trkpt><trkpt lat="39.8774433" lon="9.3324767"><ele>974.0</ele><time>2026-04-24T12:04:18.483Z</time></trkpt><trkpt lat="39.8774967" lon="9.3325317"><ele>974.0</ele><time>2026-04-24T12:04:19.483Z</time></trkpt><trkpt lat="39.8775517" lon="9.3325917"><ele>974.0000000000001</ele><time>2026-04-24T12:04:20.483Z</time></trkpt><trkpt lat="39.8776083" lon="9.3326533"><ele>974.0</ele><time>2026-04-24T12:04:21.484Z</time></trkpt><trkpt lat="39.87767" lon="9.3327217"><ele>976.6666666666667</ele><time>2026-04-24T12:04:22.484Z</time></trkpt><trkpt lat="39.8777283" lon="9.332785"><ele>979.3333333333334</ele><time>2026-04-24T12:04:23.483Z</time></trkpt><trkpt lat="39.8777783" lon="9.33285"><ele>982.0</ele><time>2026-04-24T12:04:24.483Z</time></trkpt><trkpt lat="39.8778167" lon="9.33292"><ele>984.6666666666667</ele><time>2026-04-24T12:04:25.483Z</time></trkpt><trkpt lat="39.8778417" lon="9.333"><ele>987.3333333333334</ele><time>2026-04-24T12:04:26.484Z</time></trkpt><trkpt lat="39.8778517" lon="9.3330933"><ele>990.0</ele><time>2026-04-24T12:04:27.484Z</time></trkpt><trkpt lat="39.87783" lon="9.3333083"><ele>990.0</ele><time>2026-04-24T12:04:29.484Z</time></trkpt><trkpt lat="39.8778233" lon="9.333395"><ele>990.0</ele><time>2026-04-24T12:04:30.483Z</time></trkpt><trkpt lat="39.8778233" lon="9.3335217"><ele>990.0</ele><time>2026-04-24T12:04:32.484Z</time></trkpt><trkpt lat="39.8778383" lon="9.3336217"><ele>990.0</ele><time>2026-04-24T12:04:34.483Z</time></trkpt><trkpt lat="39.877875" lon="9.3337183"><ele>990.0</ele><time>2026-04-24T12:04:36.484Z</time></trkpt><trkpt lat="39.8779317" lon="9.333825"><ele>990.0</ele><time>2026-04-24T12:04:38.484Z</time></trkpt><trkpt lat="39.878015" lon="9.333945"><ele>989.0</ele><time>2026-04-24T12:04:40.483Z</time></trkpt><trkpt lat="39.878065" lon="9.3340233"><ele>988.0</ele><time>2026-04-24T12:04:41.483Z</time></trkpt><trkpt lat="39.87812" lon="9.334115"><ele>987.0</ele><time>2026-04-24T12:04:42.483Z</time></trkpt><trkpt lat="39.8781733" lon="9.3342183"><ele>986.0</ele><time>2026-04-24T12:04:43.484Z</time></trkpt><trkpt lat="39.8782267" lon="9.3343383"><ele>985.0</ele><time>2026-04-24T12:04:44.484Z</time></trkpt><trkpt lat="39.8782783" lon="9.3344667"><ele>985.0</ele><time>2026-04-24T12:04:45.484Z</time></trkpt><trkpt lat="39.878315" lon="9.3346"><ele>985.0</ele><time>2026-04-24T12:04:46.484Z</time></trkpt><trkpt lat="39.87834" lon="9.334735"><ele>985.0</ele><time>2026-04-24T12:04:47.483Z</time></trkpt><trkpt lat="39.8783567" lon="9.3348633"><ele>985.0</ele><time>2026-04-24T12:04:48.483Z</time></trkpt><trkpt lat="39.87842" lon="9.335135"><ele>985.8333333333333</ele><time>2026-04-24T12:04:50.484Z</time></trkpt><trkpt lat="39.8784667" lon="9.335255"><ele>986.6666666666666</ele><time>2026-04-24T12:04:51.483Z</time></trkpt><trkpt lat="39.8785133" lon="9.3353633"><ele>987.5</ele><time>2026-04-24T12:04:52.484Z</time></trkpt><trkpt lat="39.87856" lon="9.33546"><ele>988.3333333333333</ele><time>2026-04-24T12:04:53.484Z</time></trkpt><trkpt lat="39.878605" lon="9.3355417"><ele>989.1666666666666</ele><time>2026-04-24T12:04:54.483Z</time></trkpt><trkpt lat="39.8786633" lon="9.3356183"><ele>990.0</ele><time>2026-04-24T12:04:55.483Z</time></trkpt><trkpt lat="39.87873" lon="9.3356867"><ele>990.0</ele><time>2026-04-24T12:04:56.484Z</time></trkpt><trkpt lat="39.8788133" lon="9.33576"><ele>990.0</ele><time>2026-04-24T12:04:57.483Z</time></trkpt><trkpt lat="39.8789017" lon="9.3358283"><ele>990.0</ele><time>2026-04-24T12:04:58.484Z</time></trkpt><trkpt lat="39.878995" lon="9.335895"><ele>990.0</ele><time>2026-04-24T12:04:59.483Z</time></trkpt><trkpt lat="39.8790817" lon="9.3359517"><ele>990.0</ele><time>2026-04-24T12:05:00.483Z</time></trkpt><trkpt lat="39.879165" lon="9.3359983"><ele>990.0</ele><time>2026-04-24T12:05:01.484Z</time></trkpt><trkpt lat="39.8792517" lon="9.3360283"><ele>990.0</ele><time>2026-04-24T12:05:02.483Z</time></trkpt><trkpt lat="39.8793417" lon="9.3360417"><ele>990.0</ele><time>2026-04-24T12:05:03.483Z</time></trkpt><trkpt lat="39.8794233" lon="9.3360417"><ele>990.0</ele><time>2026-04-24T12:05:04.483Z</time></trkpt><trkpt lat="39.879505" lon="9.3360167"><ele>990.0</ele><time>2026-04-24T12:05:05.483Z</time></trkpt><trkpt lat="39.8795783" lon="9.3359767"><ele>990.0</ele><time>2026-04-24T12:05:06.483Z</time></trkpt><trkpt lat="39.8796467" lon="9.3359167"><ele>990.0</ele><time>2026-04-24T12:05:07.483Z</time></trkpt><trkpt lat="39.8797083" lon="9.3358483"><ele>990.0</ele><time>2026-04-24T12:05:08.484Z</time></trkpt><trkpt lat="39.8797683" lon="9.3357667"><ele>990.0</ele><time>2026-04-24T12:05:09.484Z</time></trkpt><trkpt lat="39.8798767" lon="9.3355783"><ele>990.0</ele><time>2026-04-24T12:05:11.483Z</time></trkpt><trkpt lat="39.8799167" lon="9.335475"><ele>990.0</ele><time>2026-04-24T12:05:12.484Z</time></trkpt><trkpt lat="39.8799433" lon="9.3353533"><ele>991.0</ele><time>2026-04-24T12:05:13.484Z</time></trkpt><trkpt lat="39.8799533" lon="9.33523"><ele>992.0</ele><time>2026-04-24T12:05:14.483Z</time></trkpt><trkpt lat="39.8799483" lon="9.3351017"><ele>993.0</ele><time>2026-04-24T12:05:15.484Z</time></trkpt><trkpt lat="39.8799383" lon="9.334955"><ele>994.0</ele><time>2026-04-24T12:05:16.483Z</time></trkpt><trkpt lat="39.87993" lon="9.3348083"><ele>995.0</ele><time>2026-04-24T12:05:17.484Z</time></trkpt><trkpt lat="39.879935" lon="9.3346567"><ele>996.2</ele><time>2026-04-24T12:05:18.484Z</time></trkpt><trkpt lat="39.879945" lon="9.33451"><ele>997.4</ele><time>2026-04-24T12:05:19.484Z</time></trkpt><trkpt lat="39.8799617" lon="9.33438"><ele>998.5999999999999</ele><time>2026-04-24T12:05:20.484Z</time></trkpt><trkpt lat="39.8799883" lon="9.334265"><ele>999.8</ele><time>2026-04-24T12:05:21.484Z</time></trkpt><trkpt lat="39.8800217" lon="9.3341683"><ele>1001.0</ele><time>2026-04-24T12:05:22.483Z</time></trkpt><trkpt lat="39.88007" lon="9.3340783"><ele>1000.5999999999999</ele><time>2026-04-24T12:05:23.483Z</time></trkpt><trkpt lat="39.880135" lon="9.333995"><ele>1000.1999999999999</ele><time>2026-04-24T12:05:24.484Z</time></trkpt><trkpt lat="39.8802067" lon="9.333925"><ele>999.8000000000001</ele><time>2026-04-24T12:05:25.483Z</time></trkpt><trkpt lat="39.8802883" lon="9.3338583"><ele>999.4000000000001</ele><time>2026-04-24T12:05:26.483Z</time></trkpt><trkpt lat="39.8803733" lon="9.333795"><ele>999.0</ele><time>2026-04-24T12:05:27.484Z</time></trkpt><trkpt lat="39.88045" lon="9.33374"><ele>1002.5</ele><time>2026-04-24T12:05:28.483Z</time></trkpt><trkpt lat="39.8805283" lon="9.3336817"><ele>1006.0</ele><time>2026-04-24T12:05:29.483Z</time></trkpt><trkpt lat="39.8806233" lon="9.3336433"><ele>1009.5</ele><time>2026-04-24T12:05:30.483Z</time></trkpt><trkpt lat="39.88084" lon="9.3336183"><ele>1013.0</ele><time>2026-04-24T12:05:32.483Z</time></trkpt><trkpt lat="39.880965" lon="9.333615"><ele>1014.0</ele><time>2026-04-24T12:05:33.483Z</time></trkpt><trkpt lat="39.881105" lon="9.3336133"><ele>1015.0</ele><time>2026-04-24T12:05:34.484Z</time></trkpt><trkpt lat="39.8812517" lon="9.3336067"><ele>1016.0</ele><time>2026-04-24T12:05:35.484Z</time></trkpt><trkpt lat="39.8814033" lon="9.333605"><ele>1017.0</ele><time>2026-04-24T12:05:36.483Z</time></trkpt><trkpt lat="39.881565" lon="9.3336017"><ele>1017.0</ele><time>2026-04-24T12:05:37.484Z</time></trkpt><trkpt lat="39.8817267" lon="9.333605"><ele>1017.0</ele><time>2026-04-24T12:05:38.483Z</time></trkpt><trkpt lat="39.8818933" lon="9.3335983"><ele>1017.0</ele><time>2026-04-24T12:05:39.483Z</time></trkpt><trkpt lat="39.882045" lon="9.3335783"><ele>1017.0</ele><time>2026-04-24T12:05:40.484Z</time></trkpt><trkpt lat="39.8821733" lon="9.3335583"><ele>1017.0</ele><time>2026-04-24T12:05:41.484Z</time></trkpt><trkpt lat="39.8822717" lon="9.3335383"><ele>1017.0</ele><time>2026-04-24T12:05:42.484Z</time></trkpt><trkpt lat="39.882345" lon="9.333515"><ele>1017.0</ele><time>2026-04-24T12:05:43.484Z</time></trkpt><trkpt lat="39.8824317" lon="9.3334533"><ele>1017.0</ele><time>2026-04-24T12:05:45.483Z</time></trkpt><trkpt lat="39.8825533" lon="9.3334467"><ele>1015.4000000000001</ele><time>2026-04-24T12:05:47.483Z</time></trkpt><trkpt lat="39.8826333" lon="9.33348"><ele>1013.8000000000001</ele><time>2026-04-24T12:05:48.483Z</time></trkpt><trkpt lat="39.8827317" lon="9.333505"><ele>1012.2</ele><time>2026-04-24T12:05:49.483Z</time></trkpt><trkpt lat="39.8828333" lon="9.3335283"><ele>1010.6</ele><time>2026-04-24T12:05:50.483Z</time></trkpt><trkpt lat="39.8829283" lon="9.3335567"><ele>1009.0</ele><time>2026-04-24T12:05:51.483Z</time></trkpt><trkpt lat="39.8831067" lon="9.3336183"><ele>1009.0</ele><time>2026-04-24T12:05:53.483Z</time></trkpt><trkpt lat="39.88319" lon="9.3336467"><ele>1009.0000000000001</ele><time>2026-04-24T12:05:54.483Z</time></trkpt><trkpt lat="39.8832817" lon="9.333675"><ele>1009.0000000000001</ele><time>2026-04-24T12:05:55.483Z</time></trkpt><trkpt lat="39.883385" lon="9.3337067"><ele>1009.0</ele><time>2026-04-24T12:05:56.484Z</time></trkpt><trkpt lat="39.88349" lon="9.333735"><ele>1009.0</ele><time>2026-04-24T12:05:57.483Z</time></trkpt><trkpt lat="39.8836083" lon="9.3337683"><ele>1007.75</ele><time>2026-04-24T12:05:58.483Z</time></trkpt><trkpt lat="39.883735" lon="9.3338017"><ele>1006.5</ele><time>2026-04-24T12:05:59.484Z</time></trkpt><trkpt lat="39.8838583" lon="9.33384"><ele>1005.25</ele><time>2026-04-24T12:06:00.483Z</time></trkpt><trkpt lat="39.8839783" lon="9.333875"><ele>1004.0</ele><time>2026-04-24T12:06:01.483Z</time></trkpt><trkpt lat="39.8841" lon="9.3339117"><ele>1002.5</ele><time>2026-04-24T12:06:02.483Z</time></trkpt><trkpt lat="39.8842067" lon="9.3339567"><ele>1001.0</ele><time>2026-04-24T12:06:03.484Z</time></trkpt><trkpt lat="39.8843133" lon="9.3340017"><ele>999.5</ele><time>2026-04-24T12:06:04.484Z</time></trkpt><trkpt lat="39.8844267" lon="9.3340467"><ele>998.0</ele><time>2026-04-24T12:06:05.484Z</time></trkpt><trkpt lat="39.8845433" lon="9.33408"><ele>997.0</ele><time>2026-04-24T12:06:06.483Z</time></trkpt><trkpt lat="39.8846533" lon="9.33412"><ele>996.0</ele><time>2026-04-24T12:06:07.484Z</time></trkpt><trkpt lat="39.8847667" lon="9.33416"><ele>995.0</ele><time>2026-04-24T12:06:08.484Z</time></trkpt><trkpt lat="39.8848767" lon="9.3342"><ele>994.0</ele><time>2026-04-24T12:06:09.484Z</time></trkpt><trkpt lat="39.8849867" lon="9.3342467"><ele>994.0</ele><time>2026-04-24T12:06:10.484Z</time></trkpt><trkpt lat="39.8850867" lon="9.3343183"><ele>994.0</ele><time>2026-04-24T12:06:11.484Z</time></trkpt><trkpt lat="39.88518" lon="9.3344067"><ele>994.0</ele><time>2026-04-24T12:06:12.484Z</time></trkpt><trkpt lat="39.8853517" lon="9.3346067"><ele>993.6</ele><time>2026-04-24T12:06:14.483Z</time></trkpt><trkpt lat="39.885425" lon="9.334705"><ele>993.2</ele><time>2026-04-24T12:06:15.483Z</time></trkpt><trkpt lat="39.8854917" lon="9.3347967"><ele>992.8000000000001</ele><time>2026-04-24T12:06:16.484Z</time></trkpt><trkpt lat="39.8855483" lon="9.3348917"><ele>992.4000000000001</ele><time>2026-04-24T12:06:17.483Z</time></trkpt><trkpt lat="39.885585" lon="9.334975"><ele>992.0</ele><time>2026-04-24T12:06:18.483Z</time></trkpt><trkpt lat="39.8856333" lon="9.33511"><ele>992.0000000000001</ele><time>2026-04-24T12:06:20.483Z</time></trkpt><trkpt lat="39.8856717" lon="9.3351933"><ele>992.0</ele><time>2026-04-24T12:06:22.484Z</time></trkpt><trkpt lat="39.8857617" lon="9.33523"><ele>992.0</ele><time>2026-04-24T12:06:24.484Z</time></trkpt><trkpt lat="39.8858283" lon="9.33522"><ele>992.0</ele><time>2026-04-24T12:06:25.483Z</time></trkpt><trkpt lat="39.8859083" lon="9.3352033"><ele>992.0000000000001</ele><time>2026-04-24T12:06:26.484Z</time></trkpt><trkpt lat="39.8859967" lon="9.3351917"><ele>992.0</ele><time>2026-04-24T12:06:27.483Z</time></trkpt><trkpt lat="39.886095" lon="9.3351883"><ele>991.75</ele><time>2026-04-24T12:06:28.483Z</time></trkpt><trkpt lat="39.8861967" lon="9.33519"><ele>991.5</ele><time>2026-04-24T12:06:29.484Z</time></trkpt><trkpt lat="39.8863133" lon="9.3351883"><ele>991.25</ele><time>2026-04-24T12:06:30.484Z</time></trkpt><trkpt lat="39.8864317" lon="9.3351833"><ele>991.0</ele><time>2026-04-24T12:06:31.483Z</time></trkpt><trkpt lat="39.88655" lon="9.335185"><ele>991.0</ele><time>2026-04-24T12:06:32.483Z</time></trkpt><trkpt lat="39.8866667" lon="9.33519"><ele>991.0</ele><time>2026-04-24T12:06:33.484Z</time></trkpt><trkpt lat="39.8868733" lon="9.3352533"><ele>991.0</ele><time>2026-04-24T12:06:35.483Z</time></trkpt><trkpt lat="39.88697" lon="9.3353267"><ele>991.0</ele><time>2026-04-24T12:06:36.484Z</time></trkpt><trkpt lat="39.8870767" lon="9.3354083"><ele>989.75</ele><time>2026-04-24T12:06:37.484Z</time></trkpt><trkpt lat="39.8871867" lon="9.335495"><ele>988.5</ele><time>2026-04-24T12:06:38.484Z</time></trkpt><trkpt lat="39.8873067" lon="9.3355817"><ele>987.25</ele><time>2026-04-24T12:06:39.483Z</time></trkpt><trkpt lat="39.8874317" lon="9.33567"><ele>986.0</ele><time>2026-04-24T12:06:40.483Z</time></trkpt><trkpt lat="39.8875567" lon="9.33576"><ele>985.3333333333334</ele><time>2026-04-24T12:06:41.483Z</time></trkpt><trkpt lat="39.8876883" lon="9.335855"><ele>984.6666666666667</ele><time>2026-04-24T12:06:42.484Z</time></trkpt><trkpt lat="39.8878217" lon="9.335955"><ele>984.0</ele><time>2026-04-24T12:06:43.484Z</time></trkpt><trkpt lat="39.8879617" lon="9.3360567"><ele>984.0</ele><time>2026-04-24T12:06:44.483Z</time></trkpt><trkpt lat="39.8881033" lon="9.336165"><ele>984.0</ele><time>2026-04-24T12:06:45.483Z</time></trkpt><trkpt lat="39.8882467" lon="9.3362783"><ele>984.0</ele><time>2026-04-24T12:06:46.483Z</time></trkpt><trkpt lat="39.8883883" lon="9.33639"><ele>983.0</ele><time>2026-04-24T12:06:47.483Z</time></trkpt><trkpt lat="39.8885367" lon="9.3365017"><ele>982.0</ele><time>2026-04-24T12:06:48.484Z</time></trkpt><trkpt lat="39.8886767" lon="9.33662"><ele>981.0</ele><time>2026-04-24T12:06:49.484Z</time></trkpt><trkpt lat="39.888825" lon="9.336735"><ele>981.0</ele><time>2026-04-24T12:06:50.483Z</time></trkpt><trkpt lat="39.8889667" lon="9.3368533"><ele>981.0</ele><time>2026-04-24T12:06:51.484Z</time></trkpt><trkpt lat="39.8891067" lon="9.3369583"><ele>981.0</ele><time>2026-04-24T12:06:52.484Z</time></trkpt><trkpt lat="39.889245" lon="9.33706"><ele>986.0</ele><time>2026-04-24T12:06:53.483Z</time></trkpt><trkpt lat="39.8893867" lon="9.337165"><ele>991.0</ele><time>2026-04-24T12:06:54.483Z</time></trkpt><trkpt lat="39.889685" lon="9.337365"><ele>991.0</ele><time>2026-04-24T12:06:56.483Z</time></trkpt><trkpt lat="39.8898217" lon="9.3374567"><ele>991.0</ele><time>2026-04-24T12:06:57.484Z</time></trkpt><trkpt lat="39.88995" lon="9.337545"><ele>991.0</ele><time>2026-04-24T12:06:58.483Z</time></trkpt><trkpt lat="39.890075" lon="9.337625"><ele>991.0</ele><time>2026-04-24T12:06:59.483Z</time></trkpt><trkpt lat="39.8902" lon="9.337705"><ele>992.25</ele><time>2026-04-24T12:07:00.483Z</time></trkpt><trkpt lat="39.89033" lon="9.3377967"><ele>993.5</ele><time>2026-04-24T12:07:01.484Z</time></trkpt><trkpt lat="39.89046" lon="9.3378967"><ele>994.75</ele><time>2026-04-24T12:07:02.484Z</time></trkpt><trkpt lat="39.8905817" lon="9.3379967"><ele>996.0</ele><time>2026-04-24T12:07:03.484Z</time></trkpt><trkpt lat="39.8906983" lon="9.3381"><ele>996.0</ele><time>2026-04-24T12:07:04.484Z</time></trkpt><trkpt lat="39.8908083" lon="9.3382133"><ele>996.0</ele><time>2026-04-24T12:07:05.483Z</time></trkpt><trkpt lat="39.8909083" lon="9.3383417"><ele>996.0</ele><time>2026-04-24T12:07:06.483Z</time></trkpt><trkpt lat="39.8910067" lon="9.3384833"><ele>996.0</ele><time>2026-04-24T12:07:07.484Z</time></trkpt><trkpt lat="39.8911" lon="9.3386283"><ele>993.25</ele><time>2026-04-24T12:07:08.483Z</time></trkpt><trkpt lat="39.8911983" lon="9.3387717"><ele>990.5</ele><time>2026-04-24T12:07:09.483Z</time></trkpt><trkpt lat="39.8912933" lon="9.3389033"><ele>987.75</ele><time>2026-04-24T12:07:10.483Z</time></trkpt><trkpt lat="39.8913833" lon="9.339035"><ele>985.0</ele><time>2026-04-24T12:07:11.483Z</time></trkpt><trkpt lat="39.8914617" lon="9.3391767"><ele>985.0</ele><time>2026-04-24T12:07:12.483Z</time></trkpt><trkpt lat="39.8915533" lon="9.339305"><ele>985.0</ele><time>2026-04-24T12:07:13.483Z</time></trkpt><trkpt lat="39.8916433" lon="9.339435"><ele>985.0</ele><time>2026-04-24T12:07:14.483Z</time></trkpt><trkpt lat="39.8917367" lon="9.3395483"><ele>985.0</ele><time>2026-04-24T12:07:15.483Z</time></trkpt><trkpt lat="39.891945" lon="9.3397333"><ele>986.4</ele><time>2026-04-24T12:07:17.483Z</time></trkpt><trkpt lat="39.892055" lon="9.3397883"><ele>987.8</ele><time>2026-04-24T12:07:18.483Z</time></trkpt><trkpt lat="39.89215" lon="9.3398233"><ele>989.2</ele><time>2026-04-24T12:07:19.484Z</time></trkpt><trkpt lat="39.8922333" lon="9.33986"><ele>990.6</ele><time>2026-04-24T12:07:20.483Z</time></trkpt><trkpt lat="39.8922933" lon="9.33989"><ele>992.0</ele><time>2026-04-24T12:07:21.484Z</time></trkpt><trkpt lat="39.8924017" lon="9.33995"><ele>992.0</ele><time>2026-04-24T12:07:23.483Z</time></trkpt><trkpt lat="39.8925083" lon="9.3400167"><ele>992.0</ele><time>2026-04-24T12:07:25.484Z</time></trkpt><trkpt lat="39.892565" lon="9.340055"><ele>992.0</ele><time>2026-04-24T12:07:26.483Z</time></trkpt><trkpt lat="39.8926167" lon="9.3401033"><ele>992.0</ele><time>2026-04-24T12:07:27.484Z</time></trkpt><trkpt lat="39.892685" lon="9.3402267"><ele>992.0</ele><time>2026-04-24T12:07:29.483Z</time></trkpt><trkpt lat="39.89269" lon="9.3403683"><ele>991.25</ele><time>2026-04-24T12:07:31.484Z</time></trkpt><trkpt lat="39.8926617" lon="9.34052"><ele>990.5</ele><time>2026-04-24T12:07:33.483Z</time></trkpt><trkpt lat="39.8926083" lon="9.3406583"><ele>989.75</ele><time>2026-04-24T12:07:35.483Z</time></trkpt><trkpt lat="39.892535" lon="9.3407967"><ele>989.0</ele><time>2026-04-24T12:07:37.484Z</time></trkpt><trkpt lat="39.89246" lon="9.3409317"><ele>989.0000000000001</ele><time>2026-04-24T12:07:39.484Z</time></trkpt><trkpt lat="39.89242" lon="9.3409983"><ele>989.0</ele><time>2026-04-24T12:07:40.484Z</time></trkpt><trkpt lat="39.8923617" lon="9.3411083"><ele>989.0</ele><time>2026-04-24T12:07:42.484Z</time></trkpt><trkpt lat="39.892325" lon="9.3411933"><ele>989.0</ele><time>2026-04-24T12:07:44.484Z</time></trkpt><trkpt lat="39.8923133" lon="9.3413017"><ele>989.0000000000001</ele><time>2026-04-24T12:07:47.483Z</time></trkpt><trkpt lat="39.892295" lon="9.3414117"><ele>989.0</ele><time>2026-04-24T12:07:49.484Z</time></trkpt><trkpt lat="39.8922667" lon="9.3415783"><ele>986.8000000000001</ele><time>2026-04-24T12:07:51.484Z</time></trkpt><trkpt lat="39.8922517" lon="9.34168"><ele>984.6000000000001</ele><time>2026-04-24T12:07:52.483Z</time></trkpt><trkpt lat="39.8922317" lon="9.3417883"><ele>982.4</ele><time>2026-04-24T12:07:53.483Z</time></trkpt><trkpt lat="39.89221" lon="9.3419117"><ele>980.2</ele><time>2026-04-24T12:07:54.483Z</time></trkpt><trkpt lat="39.8921783" lon="9.34204"><ele>978.0</ele><time>2026-04-24T12:07:55.484Z</time></trkpt><trkpt lat="39.8921583" lon="9.34217"><ele>973.3333333333333</ele><time>2026-04-24T12:07:56.483Z</time></trkpt><trkpt lat="39.8921417" lon="9.3423133"><ele>968.6666666666666</ele><time>2026-04-24T12:07:57.483Z</time></trkpt><trkpt lat="39.8921217" lon="9.34246"><ele>964.0</ele><time>2026-04-24T12:07:58.483Z</time></trkpt><trkpt lat="39.8920467" lon="9.3427583"><ele>964.0</ele><time>2026-04-24T12:08:00.483Z</time></trkpt><trkpt lat="39.8920083" lon="9.3428967"><ele>964.0</ele><time>2026-04-24T12:08:01.483Z</time></trkpt><trkpt lat="39.8919683" lon="9.343035"><ele>964.0</ele><time>2026-04-24T12:08:02.484Z</time></trkpt><trkpt lat="39.8919233" lon="9.3431767"><ele>964.0</ele><time>2026-04-24T12:08:03.483Z</time></trkpt><trkpt lat="39.8918667" lon="9.3433217"><ele>966.5</ele><time>2026-04-24T12:08:04.483Z</time></trkpt><trkpt lat="39.8918133" lon="9.3434667"><ele>969.0</ele><time>2026-04-24T12:08:05.484Z</time></trkpt><trkpt lat="39.8917617" lon="9.343615"><ele>971.5</ele><time>2026-04-24T12:08:06.483Z</time></trkpt><trkpt lat="39.8917033" lon="9.343775"><ele>974.0</ele><time>2026-04-24T12:08:07.484Z</time></trkpt><trkpt lat="39.8916583" lon="9.3439283"><ele>974.0</ele><time>2026-04-24T12:08:08.483Z</time></trkpt><trkpt lat="39.8916083" lon="9.3440833"><ele>974.0</ele><time>2026-04-24T12:08:09.484Z</time></trkpt><trkpt lat="39.8915617" lon="9.3442233"><ele>974.0</ele><time>2026-04-24T12:08:10.483Z</time></trkpt><trkpt lat="39.8915067" lon="9.3443733"><ele>974.0</ele><time>2026-04-24T12:08:11.483Z</time></trkpt><trkpt lat="39.89146" lon="9.3445233"><ele>974.0</ele><time>2026-04-24T12:08:12.483Z</time></trkpt><trkpt lat="39.891405" lon="9.3446617"><ele>974.0</ele><time>2026-04-24T12:08:13.484Z</time></trkpt><trkpt lat="39.8913567" lon="9.3447917"><ele>974.0</ele><time>2026-04-24T12:08:14.484Z</time></trkpt><trkpt lat="39.8913217" lon="9.344925"><ele>974.0</ele><time>2026-04-24T12:08:15.483Z</time></trkpt><trkpt lat="39.8912833" lon="9.3450633"><ele>972.25</ele><time>2026-04-24T12:08:16.484Z</time></trkpt><trkpt lat="39.89126" lon="9.345205"><ele>970.5</ele><time>2026-04-24T12:08:17.483Z</time></trkpt><trkpt lat="39.8912367" lon="9.3453483"><ele>968.75</ele><time>2026-04-24T12:08:18.483Z</time></trkpt><trkpt lat="39.8912117" lon="9.345495"><ele>967.0</ele><time>2026-04-24T12:08:19.484Z</time></trkpt><trkpt lat="39.8911567" lon="9.345795"><ele>967.0</ele><time>2026-04-24T12:08:21.484Z</time></trkpt><trkpt lat="39.8911333" lon="9.3459467"><ele>967.0</ele><time>2026-04-24T12:08:22.484Z</time></trkpt><trkpt lat="39.89111" lon="9.3460983"><ele>967.0</ele><time>2026-04-24T12:08:23.483Z</time></trkpt><trkpt lat="39.8911067" lon="9.3462433"><ele>967.0</ele><time>2026-04-24T12:08:24.484Z</time></trkpt><trkpt lat="39.8910983" lon="9.34638"><ele>966.4000000000001</ele><time>2026-04-24T12:08:25.483Z</time></trkpt><trkpt lat="39.891085" lon="9.3465117"><ele>965.8000000000001</ele><time>2026-04-24T12:08:26.483Z</time></trkpt><trkpt lat="39.8910783" lon="9.3466383"><ele>965.2</ele><time>2026-04-24T12:08:27.483Z</time></trkpt><trkpt lat="39.891065" lon="9.3467733"><ele>964.6</ele><time>2026-04-24T12:08:28.483Z</time></trkpt><trkpt lat="39.89105" lon="9.346915"><ele>964.0</ele><time>2026-04-24T12:08:29.483Z</time></trkpt><trkpt lat="39.89103" lon="9.347055"><ele>964.0</ele><time>2026-04-24T12:08:30.484Z</time></trkpt><trkpt lat="39.8909983" lon="9.3471867"><ele>964.0</ele><time>2026-04-24T12:08:31.484Z</time></trkpt><trkpt lat="39.8909783" lon="9.347355"><ele>964.0</ele><time>2026-04-24T12:08:32.483Z</time></trkpt><trkpt lat="39.8909517" lon="9.3475167"><ele>964.0</ele><time>2026-04-24T12:08:33.483Z</time></trkpt><trkpt lat="39.8909183" lon="9.3476767"><ele>968.25</ele><time>2026-04-24T12:08:34.483Z</time></trkpt><trkpt lat="39.8908933" lon="9.3478417"><ele>972.5</ele><time>2026-04-24T12:08:35.483Z</time></trkpt><trkpt lat="39.8908717" lon="9.348005"><ele>976.75</ele><time>2026-04-24T12:08:36.483Z</time></trkpt><trkpt lat="39.89085" lon="9.34816"><ele>981.0</ele><time>2026-04-24T12:08:37.483Z</time></trkpt><trkpt lat="39.89082" lon="9.3483317"><ele>981.0</ele><time>2026-04-24T12:08:38.483Z</time></trkpt><trkpt lat="39.8907867" lon="9.348505"><ele>981.0</ele><time>2026-04-24T12:08:39.483Z</time></trkpt><trkpt lat="39.8907617" lon="9.3486867"><ele>981.0</ele><time>2026-04-24T12:08:40.484Z</time></trkpt><trkpt lat="39.890705" lon="9.3490783"><ele>978.75</ele><time>2026-04-24T12:08:42.484Z</time></trkpt><trkpt lat="39.890675" lon="9.3492817"><ele>976.5</ele><time>2026-04-24T12:08:43.483Z</time></trkpt><trkpt lat="39.8906533" lon="9.349465"><ele>974.25</ele><time>2026-04-24T12:08:44.484Z</time></trkpt><trkpt lat="39.89063" lon="9.34964"><ele>972.0</ele><time>2026-04-24T12:08:45.484Z</time></trkpt><trkpt lat="39.8906083" lon="9.349805"><ele>971.75</ele><time>2026-04-24T12:08:46.483Z</time></trkpt><trkpt lat="39.890585" lon="9.3499817"><ele>971.5</ele><time>2026-04-24T12:08:47.484Z</time></trkpt><trkpt lat="39.890555" lon="9.3501617"><ele>971.25</ele><time>2026-04-24T12:08:48.484Z</time></trkpt><trkpt lat="39.8905317" lon="9.3503483"><ele>971.0</ele><time>2026-04-24T12:08:49.484Z</time></trkpt><trkpt lat="39.8905133" lon="9.3505283"><ele>970.75</ele><time>2026-04-24T12:08:50.484Z</time></trkpt><trkpt lat="39.8905117" lon="9.35071"><ele>970.5</ele><time>2026-04-24T12:08:51.484Z</time></trkpt><trkpt lat="39.8905183" lon="9.350875"><ele>970.25</ele><time>2026-04-24T12:08:52.484Z</time></trkpt><trkpt lat="39.8905367" lon="9.35103"><ele>970.0</ele><time>2026-04-24T12:08:53.483Z</time></trkpt><trkpt lat="39.8905533" lon="9.3511767"><ele>970.0</ele><time>2026-04-24T12:08:54.483Z</time></trkpt><trkpt lat="39.890575" lon="9.3513283"><ele>970.0</ele><time>2026-04-24T12:08:55.483Z</time></trkpt><trkpt lat="39.8905917" lon="9.3514767"><ele>970.0</ele><time>2026-04-24T12:08:56.484Z</time></trkpt><trkpt lat="39.8905983" lon="9.3516283"><ele>970.0</ele><time>2026-04-24T12:08:57.483Z</time></trkpt><trkpt lat="39.8905933" lon="9.351775"><ele>970.5</ele><time>2026-04-24T12:08:58.484Z</time></trkpt><trkpt lat="39.8905833" lon="9.3519167"><ele>971.0</ele><time>2026-04-24T12:08:59.484Z</time></trkpt><trkpt lat="39.8905533" lon="9.3520533"><ele>971.5</ele><time>2026-04-24T12:09:00.484Z</time></trkpt><trkpt lat="39.8905083" lon="9.3521767"><ele>972.0</ele><time>2026-04-24T12:09:01.483Z</time></trkpt><trkpt lat="39.890365" lon="9.352395"><ele>972.8</ele><time>2026-04-24T12:09:03.483Z</time></trkpt><trkpt lat="39.8902683" lon="9.3524767"><ele>973.6</ele><time>2026-04-24T12:09:04.483Z</time></trkpt><trkpt lat="39.89017" lon="9.3525317"><ele>974.3999999999999</ele><time>2026-04-24T12:09:05.483Z</time></trkpt><trkpt lat="39.89007" lon="9.35257"><ele>975.1999999999999</ele><time>2026-04-24T12:09:06.484Z</time></trkpt><trkpt lat="39.8899633" lon="9.3526117"><ele>976.0</ele><time>2026-04-24T12:09:07.483Z</time></trkpt><trkpt lat="39.8898667" lon="9.3526567"><ele>976.0</ele><time>2026-04-24T12:09:08.484Z</time></trkpt><trkpt lat="39.8897783" lon="9.3527133"><ele>975.9999999999999</ele><time>2026-04-24T12:09:09.483Z</time></trkpt><trkpt lat="39.8897083" lon="9.3527883"><ele>975.9999999999999</ele><time>2026-04-24T12:09:10.484Z</time></trkpt><trkpt lat="39.88965" lon="9.3529033"><ele>976.0</ele><time>2026-04-24T12:09:11.483Z</time></trkpt><trkpt lat="39.889615" lon="9.353045"><ele>976.0</ele><time>2026-04-24T12:09:12.483Z</time></trkpt><trkpt lat="39.8895983" lon="9.35319"><ele>970.5</ele><time>2026-04-24T12:09:13.483Z</time></trkpt><trkpt lat="39.8895767" lon="9.3533433"><ele>965.0</ele><time>2026-04-24T12:09:14.484Z</time></trkpt><trkpt lat="39.8895533" lon="9.3534933"><ele>959.5</ele><time>2026-04-24T12:09:15.484Z</time></trkpt><trkpt lat="39.8895167" lon="9.3536383"><ele>954.0</ele><time>2026-04-24T12:09:16.484Z</time></trkpt><trkpt lat="39.889465" lon="9.3537917"><ele>949.75</ele><time>2026-04-24T12:09:17.484Z</time></trkpt><trkpt lat="39.8893983" lon="9.3539317"><ele>945.5</ele><time>2026-04-24T12:09:18.484Z</time></trkpt><trkpt lat="39.8893217" lon="9.3540667"><ele>941.25</ele><time>2026-04-24T12:09:19.483Z</time></trkpt><trkpt lat="39.889245" lon="9.3541917"><ele>937.0</ele><time>2026-04-24T12:09:20.483Z</time></trkpt><trkpt lat="39.8891733" lon="9.3542967"><ele>943.5</ele><time>2026-04-24T12:09:21.484Z</time></trkpt><trkpt lat="39.8891183" lon="9.3543967"><ele>950.0</ele><time>2026-04-24T12:09:22.483Z</time></trkpt><trkpt lat="39.8890433" lon="9.3546067"><ele>956.5</ele><time>2026-04-24T12:09:24.484Z</time></trkpt><trkpt lat="39.8890283" lon="9.3547317"><ele>963.0</ele><time>2026-04-24T12:09:25.483Z</time></trkpt><trkpt lat="39.889015" lon="9.3548633"><ele>963.0</ele><time>2026-04-24T12:09:26.484Z</time></trkpt><trkpt lat="39.8890067" lon="9.3549983"><ele>963.0</ele><time>2026-04-24T12:09:27.483Z</time></trkpt><trkpt lat="39.8890017" lon="9.3551283"><ele>963.0</ele><time>2026-04-24T12:09:28.484Z</time></trkpt><trkpt lat="39.8889983" lon="9.35525"><ele>963.0</ele><time>2026-04-24T12:09:29.484Z</time></trkpt><trkpt lat="39.8889867" lon="9.3553667"><ele>963.0</ele><time>2026-04-24T12:09:30.484Z</time></trkpt><trkpt lat="39.8889467" lon="9.3554783"><ele>960.4</ele><time>2026-04-24T12:09:31.484Z</time></trkpt><trkpt lat="39.888885" lon="9.355585"><ele>957.8</ele><time>2026-04-24T12:09:32.484Z</time></trkpt><trkpt lat="39.8888133" lon="9.3556783"><ele>955.2</ele><time>2026-04-24T12:09:33.483Z</time></trkpt><trkpt lat="39.888745" lon="9.3557783"><ele>952.6</ele><time>2026-04-24T12:09:34.484Z</time></trkpt><trkpt lat="39.8886917" lon="9.355895"><ele>950.0</ele><time>2026-04-24T12:09:35.484Z</time></trkpt><trkpt lat="39.8886517" lon="9.35604"><ele>950.0</ele><time>2026-04-24T12:09:36.483Z</time></trkpt><trkpt lat="39.8886217" lon="9.3562017"><ele>950.0</ele><time>2026-04-24T12:09:37.483Z</time></trkpt><trkpt lat="39.8886017" lon="9.3563667"><ele>950.0</ele><time>2026-04-24T12:09:38.484Z</time></trkpt><trkpt lat="39.8885917" lon="9.3565333"><ele>950.0</ele><time>2026-04-24T12:09:39.483Z</time></trkpt><trkpt lat="39.8885833" lon="9.3566933"><ele>949.0</ele><time>2026-04-24T12:09:40.483Z</time></trkpt><trkpt lat="39.8885733" lon="9.35684"><ele>948.0</ele><time>2026-04-24T12:09:41.483Z</time></trkpt><trkpt lat="39.88856" lon="9.3569717"><ele>947.0</ele><time>2026-04-24T12:09:42.483Z</time></trkpt><trkpt lat="39.8885633" lon="9.3570983"><ele>946.0</ele><time>2026-04-24T12:09:43.484Z</time></trkpt><trkpt lat="39.88863" lon="9.3573167"><ele>948.4</ele><time>2026-04-24T12:09:45.484Z</time></trkpt><trkpt lat="39.8886833" lon="9.35742"><ele>950.8</ele><time>2026-04-24T12:09:46.483Z</time></trkpt><trkpt lat="39.888725" lon="9.35752"><ele>953.1999999999999</ele><time>2026-04-24T12:09:47.483Z</time></trkpt><trkpt lat="39.8888" lon="9.3576267"><ele>955.5999999999999</ele><time>2026-04-24T12:09:48.483Z</time></trkpt><trkpt lat="39.888875" lon="9.357735"><ele>958.0</ele><time>2026-04-24T12:09:49.484Z</time></trkpt><trkpt lat="39.8889583" lon="9.357835"><ele>958.0</ele><time>2026-04-24T12:09:50.484Z</time></trkpt><trkpt lat="39.8890433" lon="9.3579267"><ele>958.0</ele><time>2026-04-24T12:09:51.484Z</time></trkpt><trkpt lat="39.889135" lon="9.3580117"><ele>958.0</ele><time>2026-04-24T12:09:52.483Z</time></trkpt><trkpt lat="39.8892467" lon="9.358085"><ele>958.0</ele><time>2026-04-24T12:09:53.483Z</time></trkpt><trkpt lat="39.88936" lon="9.3581617"><ele>959.0</ele><time>2026-04-24T12:09:54.484Z</time></trkpt><trkpt lat="39.8894767" lon="9.35823"><ele>960.0</ele><time>2026-04-24T12:09:55.484Z</time></trkpt><trkpt lat="39.8895883" lon="9.358295"><ele>961.0</ele><time>2026-04-24T12:09:56.483Z</time></trkpt><trkpt lat="39.8896917" lon="9.3583633"><ele>962.0</ele><time>2026-04-24T12:09:57.483Z</time></trkpt><trkpt lat="39.8897817" lon="9.358445"><ele>962.0</ele><time>2026-04-24T12:09:58.484Z</time></trkpt><trkpt lat="39.8898533" lon="9.3585533"><ele>962.0</ele><time>2026-04-24T12:09:59.483Z</time></trkpt><trkpt lat="39.8899133" lon="9.3586883"><ele>962.0</ele><time>2026-04-24T12:10:00.484Z</time></trkpt><trkpt lat="39.889965" lon="9.35884"><ele>962.0</ele><time>2026-04-24T12:10:01.483Z</time></trkpt><trkpt lat="39.8900183" lon="9.3589833"><ele>962.3333333333334</ele><time>2026-04-24T12:10:02.483Z</time></trkpt><trkpt lat="39.89008" lon="9.3591083"><ele>962.6666666666667</ele><time>2026-04-24T12:10:03.484Z</time></trkpt><trkpt lat="39.89015" lon="9.3592217"><ele>963.0</ele><time>2026-04-24T12:10:04.483Z</time></trkpt><trkpt lat="39.890325" lon="9.3594117"><ele>963.0</ele><time>2026-04-24T12:10:06.484Z</time></trkpt><trkpt lat="39.8904267" lon="9.3594833"><ele>963.0</ele><time>2026-04-24T12:10:07.483Z</time></trkpt><trkpt lat="39.8905617" lon="9.3595267"><ele>963.0</ele><time>2026-04-24T12:10:08.484Z</time></trkpt><trkpt lat="39.890695" lon="9.359555"><ele>963.0</ele><time>2026-04-24T12:10:09.483Z</time></trkpt><trkpt lat="39.8908283" lon="9.3595817"><ele>963.5</ele><time>2026-04-24T12:10:10.484Z</time></trkpt><trkpt lat="39.8909483" lon="9.35961"><ele>964.0</ele><time>2026-04-24T12:10:11.483Z</time></trkpt><trkpt lat="39.8910617" lon="9.3596683"><ele>964.5</ele><time>2026-04-24T12:10:12.484Z</time></trkpt><trkpt lat="39.891165" lon="9.35975"><ele>965.0</ele><time>2026-04-24T12:10:13.483Z</time></trkpt><trkpt lat="39.8912533" lon="9.3598583"><ele>965.0</ele><time>2026-04-24T12:10:14.483Z</time></trkpt><trkpt lat="39.8913233" lon="9.3599883"><ele>965.0</ele><time>2026-04-24T12:10:15.484Z</time></trkpt><trkpt lat="39.8913817" lon="9.3601233"><ele>965.0</ele><time>2026-04-24T12:10:16.483Z</time></trkpt><trkpt lat="39.8914333" lon="9.3602483"><ele>965.0</ele><time>2026-04-24T12:10:17.483Z</time></trkpt><trkpt lat="39.8914667" lon="9.3603833"><ele>965.0000000000001</ele><time>2026-04-24T12:10:18.484Z</time></trkpt><trkpt lat="39.89149" lon="9.3605"><ele>965.0</ele><time>2026-04-24T12:10:19.483Z</time></trkpt><trkpt lat="39.8914917" lon="9.3606083"><ele>965.0</ele><time>2026-04-24T12:10:20.483Z</time></trkpt><trkpt lat="39.8914667" lon="9.3607133"><ele>965.0</ele><time>2026-04-24T12:10:21.484Z</time></trkpt><trkpt lat="39.8914117" lon="9.360805"><ele>965.0000000000001</ele><time>2026-04-24T12:10:22.484Z</time></trkpt><trkpt lat="39.8913333" lon="9.3608733"><ele>965.0</ele><time>2026-04-24T12:10:23.483Z</time></trkpt><trkpt lat="39.8912383" lon="9.3609083"><ele>963.5</ele><time>2026-04-24T12:10:24.483Z</time></trkpt><trkpt lat="39.8911317" lon="9.360945"><ele>962.0</ele><time>2026-04-24T12:10:25.483Z</time></trkpt><trkpt lat="39.8909283" lon="9.3610583"><ele>960.5</ele><time>2026-04-24T12:10:27.484Z</time></trkpt><trkpt lat="39.89085" lon="9.3611583"><ele>959.0</ele><time>2026-04-24T12:10:28.484Z</time></trkpt><trkpt lat="39.8907983" lon="9.3612717"><ele>963.25</ele><time>2026-04-24T12:10:29.483Z</time></trkpt><trkpt lat="39.8907733" lon="9.361415"><ele>967.5</ele><time>2026-04-24T12:10:30.484Z</time></trkpt><trkpt lat="39.8907717" lon="9.361555"><ele>971.75</ele><time>2026-04-24T12:10:31.483Z</time></trkpt><trkpt lat="39.8907833" lon="9.361715"><ele>976.0</ele><time>2026-04-24T12:10:32.484Z</time></trkpt><trkpt lat="39.8908067" lon="9.361875"><ele>976.0</ele><time>2026-04-24T12:10:33.483Z</time></trkpt><trkpt lat="39.8908383" lon="9.3620233"><ele>976.0</ele><time>2026-04-24T12:10:34.483Z</time></trkpt><trkpt lat="39.8908567" lon="9.3621683"><ele>976.0</ele><time>2026-04-24T12:10:35.484Z</time></trkpt><trkpt lat="39.8908717" lon="9.3623083"><ele>976.0</ele><time>2026-04-24T12:10:36.484Z</time></trkpt><trkpt lat="39.8908883" lon="9.3624533"><ele>976.0</ele><time>2026-04-24T12:10:37.484Z</time></trkpt><trkpt lat="39.890905" lon="9.362605"><ele>975.9999999999999</ele><time>2026-04-24T12:10:38.484Z</time></trkpt><trkpt lat="39.890925" lon="9.36275"><ele>975.9999999999999</ele><time>2026-04-24T12:10:39.484Z</time></trkpt><trkpt lat="39.89095" lon="9.3628867"><ele>976.0</ele><time>2026-04-24T12:10:40.484Z</time></trkpt><trkpt lat="39.89099" lon="9.36301"><ele>976.0</ele><time>2026-04-24T12:10:41.483Z</time></trkpt><trkpt lat="39.89105" lon="9.3631033"><ele>973.8</ele><time>2026-04-24T12:10:42.484Z</time></trkpt><trkpt lat="39.89113" lon="9.363175"><ele>971.5999999999999</ele><time>2026-04-24T12:10:43.483Z</time></trkpt><trkpt lat="39.8912317" lon="9.363215"><ele>969.4</ele><time>2026-04-24T12:10:44.483Z</time></trkpt><trkpt lat="39.8913417" lon="9.3632333"><ele>967.2</ele><time>2026-04-24T12:10:45.484Z</time></trkpt><trkpt lat="39.8914583" lon="9.363235"><ele>965.0</ele><time>2026-04-24T12:10:46.484Z</time></trkpt><trkpt lat="39.89169" lon="9.3632183"><ele>960.6</ele><time>2026-04-24T12:10:48.484Z</time></trkpt><trkpt lat="39.8917983" lon="9.3632233"><ele>956.2</ele><time>2026-04-24T12:10:49.483Z</time></trkpt><trkpt lat="39.8919083" lon="9.363245"><ele>951.8</ele><time>2026-04-24T12:10:50.484Z</time></trkpt><trkpt lat="39.8920133" lon="9.3632883"><ele>947.4</ele><time>2026-04-24T12:10:51.483Z</time></trkpt><trkpt lat="39.892105" lon="9.3633533"><ele>943.0</ele><time>2026-04-24T12:10:52.483Z</time></trkpt><trkpt lat="39.89218" lon="9.3634383"><ele>942.9999999999999</ele><time>2026-04-24T12:10:53.483Z</time></trkpt><trkpt lat="39.8922383" lon="9.3635267"><ele>943.0</ele><time>2026-04-24T12:10:54.483Z</time></trkpt><trkpt lat="39.8922633" lon="9.3636167"><ele>943.0</ele><time>2026-04-24T12:10:55.484Z</time></trkpt><trkpt lat="39.89225" lon="9.3637133"><ele>943.0</ele><time>2026-04-24T12:10:56.483Z</time></trkpt><trkpt lat="39.89221" lon="9.36381"><ele>942.9999999999999</ele><time>2026-04-24T12:10:57.483Z</time></trkpt><trkpt lat="39.8921333" lon="9.3639117"><ele>943.0</ele><time>2026-04-24T12:10:58.484Z</time></trkpt><trkpt lat="39.8920483" lon="9.3640067"><ele>943.5999999999999</ele><time>2026-04-24T12:10:59.484Z</time></trkpt><trkpt lat="39.891965" lon="9.3641"><ele>944.1999999999999</ele><time>2026-04-24T12:11:00.484Z</time></trkpt><trkpt lat="39.8918867" lon="9.36419"><ele>944.8</ele><time>2026-04-24T12:11:01.484Z</time></trkpt><trkpt lat="39.8918117" lon="9.36427"><ele>945.4</ele><time>2026-04-24T12:11:02.483Z</time></trkpt><trkpt lat="39.8917367" lon="9.3643567"><ele>946.0</ele><time>2026-04-24T12:11:03.483Z</time></trkpt><trkpt lat="39.8916867" lon="9.3644633"><ele>944.75</ele><time>2026-04-24T12:11:04.483Z</time></trkpt><trkpt lat="39.8916617" lon="9.3645867"><ele>943.5</ele><time>2026-04-24T12:11:05.483Z</time></trkpt><trkpt lat="39.8916683" lon="9.364725"><ele>942.25</ele><time>2026-04-24T12:11:06.484Z</time></trkpt><trkpt lat="39.8917017" lon="9.3648667"><ele>941.0</ele><time>2026-04-24T12:11:07.484Z</time></trkpt><trkpt lat="39.8918167" lon="9.3651783"><ele>941.0</ele><time>2026-04-24T12:11:09.483Z</time></trkpt><trkpt lat="39.891875" lon="9.365345"><ele>941.0</ele><time>2026-04-24T12:11:10.484Z</time></trkpt><trkpt lat="39.8919417" lon="9.3655267"><ele>941.0</ele><time>2026-04-24T12:11:11.483Z</time></trkpt><trkpt lat="39.8920067" lon="9.3657117"><ele>942.0</ele><time>2026-04-24T12:11:12.483Z</time></trkpt><trkpt lat="39.8920783" lon="9.3659017"><ele>943.0</ele><time>2026-04-24T12:11:13.483Z</time></trkpt><trkpt lat="39.892145" lon="9.36609"><ele>944.0</ele><time>2026-04-24T12:11:14.484Z</time></trkpt><trkpt lat="39.8922117" lon="9.3662717"><ele>945.75</ele><time>2026-04-24T12:11:15.484Z</time></trkpt><trkpt lat="39.892265" lon="9.3664483"><ele>947.5</ele><time>2026-04-24T12:11:16.483Z</time></trkpt><trkpt lat="39.89231" lon="9.3666133"><ele>949.25</ele><time>2026-04-24T12:11:17.484Z</time></trkpt><trkpt lat="39.8923617" lon="9.3667867"><ele>951.0</ele><time>2026-04-24T12:11:18.484Z</time></trkpt><trkpt lat="39.8924167" lon="9.366965"><ele>951.0</ele><time>2026-04-24T12:11:19.483Z</time></trkpt><trkpt lat="39.8924867" lon="9.367145"><ele>951.0</ele><time>2026-04-24T12:11:20.484Z</time></trkpt><trkpt lat="39.892535" lon="9.3673333"><ele>951.0</ele><time>2026-04-24T12:11:21.483Z</time></trkpt><trkpt lat="39.8925767" lon="9.3675333"><ele>945.25</ele><time>2026-04-24T12:11:22.483Z</time></trkpt><trkpt lat="39.8926167" lon="9.3677233"><ele>939.5</ele><time>2026-04-24T12:11:23.483Z</time></trkpt><trkpt lat="39.8926533" lon="9.3678883"><ele>933.75</ele><time>2026-04-24T12:11:24.484Z</time></trkpt><trkpt lat="39.8926683" lon="9.3680367"><ele>928.0</ele><time>2026-04-24T12:11:25.484Z</time></trkpt><trkpt lat="39.8926717" lon="9.3681783"><ele>925.75</ele><time>2026-04-24T12:11:26.483Z</time></trkpt><trkpt lat="39.8926567" lon="9.3683033"><ele>923.5</ele><time>2026-04-24T12:11:27.483Z</time></trkpt><trkpt lat="39.892615" lon="9.36842"><ele>921.25</ele><time>2026-04-24T12:11:28.484Z</time></trkpt><trkpt lat="39.8924783" lon="9.36862"><ele>919.0</ele><time>2026-04-24T12:11:30.483Z</time></trkpt><trkpt lat="39.8924383" lon="9.3687367"><ele>917.4999999999999</ele><time>2026-04-24T12:11:31.483Z</time></trkpt><trkpt lat="39.8924217" lon="9.368855"><ele>916.0</ele><time>2026-04-24T12:11:32.484Z</time></trkpt><trkpt lat="39.892425" lon="9.368965"><ele>914.5</ele><time>2026-04-24T12:11:33.483Z</time></trkpt><trkpt lat="39.89245" lon="9.3690667"><ele>913.0</ele><time>2026-04-24T12:11:34.484Z</time></trkpt><trkpt lat="39.8924933" lon="9.36917"><ele>911.4999999999999</ele><time>2026-04-24T12:11:35.483Z</time></trkpt><trkpt lat="39.8925583" lon="9.3692667"><ele>910.0</ele><time>2026-04-24T12:11:36.484Z</time></trkpt><trkpt lat="39.8926417" lon="9.36937"><ele>910.0</ele><time>2026-04-24T12:11:37.483Z</time></trkpt><trkpt lat="39.8927333" lon="9.36948"><ele>910.0</ele><time>2026-04-24T12:11:38.484Z</time></trkpt><trkpt lat="39.89282" lon="9.3696017"><ele>910.0</ele><time>2026-04-24T12:11:39.484Z</time></trkpt><trkpt lat="39.8929183" lon="9.3697217"><ele>910.0</ele><time>2026-04-24T12:11:40.483Z</time></trkpt><trkpt lat="39.8930067" lon="9.3698483"><ele>913.2</ele><time>2026-04-24T12:11:41.483Z</time></trkpt><trkpt lat="39.893085" lon="9.3699683"><ele>916.4</ele><time>2026-04-24T12:11:42.484Z</time></trkpt><trkpt lat="39.89316" lon="9.3700817"><ele>919.5999999999999</ele><time>2026-04-24T12:11:43.483Z</time></trkpt><trkpt lat="39.89322" lon="9.3701967"><ele>922.8</ele><time>2026-04-24T12:11:44.484Z</time></trkpt><trkpt lat="39.893255" lon="9.3703133"><ele>926.0</ele><time>2026-04-24T12:11:45.484Z</time></trkpt><trkpt lat="39.8932767" lon="9.3704417"><ele>927.0</ele><time>2026-04-24T12:11:46.483Z</time></trkpt><trkpt lat="39.89327" lon="9.3705717"><ele>928.0</ele><time>2026-04-24T12:11:47.483Z</time></trkpt><trkpt lat="39.8932467" lon="9.3707133"><ele>929.0</ele><time>2026-04-24T12:11:48.484Z</time></trkpt><trkpt lat="39.8932217" lon="9.3708667"><ele>930.0</ele><time>2026-04-24T12:11:49.484Z</time></trkpt><trkpt lat="39.893165" lon="9.3711767"><ele>930.0</ele><time>2026-04-24T12:11:51.483Z</time></trkpt><trkpt lat="39.89313" lon="9.37133"><ele>930.0</ele><time>2026-04-24T12:11:52.483Z</time></trkpt><trkpt lat="39.8930983" lon="9.3714817"><ele>930.0</ele><time>2026-04-24T12:11:53.483Z</time></trkpt><trkpt lat="39.89309" lon="9.3716267"><ele>930.0</ele><time>2026-04-24T12:11:54.484Z</time></trkpt><trkpt lat="39.893105" lon="9.371775"><ele>930.5</ele><time>2026-04-24T12:11:55.484Z</time></trkpt><trkpt lat="39.8931367" lon="9.3719167"><ele>931.0</ele><time>2026-04-24T12:11:56.483Z</time></trkpt><trkpt lat="39.8931867" lon="9.372045"><ele>931.5</ele><time>2026-04-24T12:11:57.483Z</time></trkpt><trkpt lat="39.8932517" lon="9.3721633"><ele>932.0</ele><time>2026-04-24T12:11:58.483Z</time></trkpt><trkpt lat="39.8933317" lon="9.3722783"><ele>926.0</ele><time>2026-04-24T12:11:59.483Z</time></trkpt><trkpt lat="39.89343" lon="9.3723967"><ele>920.0</ele><time>2026-04-24T12:12:00.483Z</time></trkpt><trkpt lat="39.89352" lon="9.3725233"><ele>914.0</ele><time>2026-04-24T12:12:01.484Z</time></trkpt><trkpt lat="39.89361" lon="9.372665"><ele>908.0</ele><time>2026-04-24T12:12:02.483Z</time></trkpt><trkpt lat="39.893695" lon="9.3728033"><ele>908.0</ele><time>2026-04-24T12:12:03.483Z</time></trkpt><trkpt lat="39.8937767" lon="9.3729367"><ele>908.0</ele><time>2026-04-24T12:12:04.483Z</time></trkpt><trkpt lat="39.8938633" lon="9.3730667"><ele>908.0</ele><time>2026-04-24T12:12:05.484Z</time></trkpt><trkpt lat="39.89395" lon="9.3731883"><ele>908.0</ele><time>2026-04-24T12:12:06.483Z</time></trkpt><trkpt lat="39.8940383" lon="9.373305"><ele>907.75</ele><time>2026-04-24T12:12:07.484Z</time></trkpt><trkpt lat="39.8941283" lon="9.373405"><ele>907.5</ele><time>2026-04-24T12:12:08.484Z</time></trkpt><trkpt lat="39.894215" lon="9.373505"><ele>907.25</ele><time>2026-04-24T12:12:09.484Z</time></trkpt><trkpt lat="39.8943167" lon="9.3735767"><ele>907.0</ele><time>2026-04-24T12:12:10.484Z</time></trkpt><trkpt lat="39.8945083" lon="9.3736883"><ele>907.0</ele><time>2026-04-24T12:12:12.483Z</time></trkpt><trkpt lat="39.8946283" lon="9.3737217"><ele>907.0</ele><time>2026-04-24T12:12:13.483Z</time></trkpt><trkpt lat="39.894755" lon="9.3737583"><ele>907.0</ele><time>2026-04-24T12:12:14.484Z</time></trkpt><trkpt lat="39.89489" lon="9.37379"><ele>907.0</ele><time>2026-04-24T12:12:15.484Z</time></trkpt><trkpt lat="39.8950217" lon="9.3738183"><ele>906.5</ele><time>2026-04-24T12:12:16.483Z</time></trkpt><trkpt lat="39.895145" lon="9.3738367"><ele>906.0</ele><time>2026-04-24T12:12:17.484Z</time></trkpt><trkpt lat="39.8952533" lon="9.373855"><ele>905.5</ele><time>2026-04-24T12:12:18.483Z</time></trkpt><trkpt lat="39.8953567" lon="9.373895"><ele>905.0</ele><time>2026-04-24T12:12:19.484Z</time></trkpt><trkpt lat="39.895465" lon="9.373955"><ele>905.0</ele><time>2026-04-24T12:12:20.483Z</time></trkpt><trkpt lat="39.8955467" lon="9.37404"><ele>905.0</ele><time>2026-04-24T12:12:21.483Z</time></trkpt><trkpt lat="39.8955983" lon="9.3741383"><ele>905.0</ele><time>2026-04-24T12:12:22.484Z</time></trkpt><trkpt lat="39.895625" lon="9.3742467"><ele>905.0</ele><time>2026-04-24T12:12:23.483Z</time></trkpt><trkpt lat="39.8956367" lon="9.3743667"><ele>905.0</ele><time>2026-04-24T12:12:24.483Z</time></trkpt><trkpt lat="39.895615" lon="9.374505"><ele>905.0</ele><time>2026-04-24T12:12:25.483Z</time></trkpt><trkpt lat="39.89559" lon="9.3746483"><ele>905.0</ele><time>2026-04-24T12:12:26.483Z</time></trkpt><trkpt lat="39.8955617" lon="9.374795"><ele>905.0</ele><time>2026-04-24T12:12:27.483Z</time></trkpt><trkpt lat="39.89553" lon="9.374945"><ele>905.0</ele><time>2026-04-24T12:12:28.483Z</time></trkpt><trkpt lat="39.8955033" lon="9.3751017"><ele>904.8</ele><time>2026-04-24T12:12:29.483Z</time></trkpt><trkpt lat="39.8954833" lon="9.37524"><ele>904.6</ele><time>2026-04-24T12:12:30.483Z</time></trkpt><trkpt lat="39.8954683" lon="9.3753617"><ele>904.4000000000001</ele><time>2026-04-24T12:12:31.483Z</time></trkpt><trkpt lat="39.8954883" lon="9.375565"><ele>904.2</ele><time>2026-04-24T12:12:33.484Z</time></trkpt><trkpt lat="39.8955317" lon="9.37566"><ele>904.0</ele><time>2026-04-24T12:12:34.483Z</time></trkpt><trkpt lat="39.89559" lon="9.37574"><ele>906.0</ele><time>2026-04-24T12:12:35.483Z</time></trkpt><trkpt lat="39.8956667" lon="9.3758033"><ele>908.0</ele><time>2026-04-24T12:12:36.484Z</time></trkpt><trkpt lat="39.89579" lon="9.3758333"><ele>910.0</ele><time>2026-04-24T12:12:37.483Z</time></trkpt><trkpt lat="39.895925" lon="9.37585"><ele>912.0</ele><time>2026-04-24T12:12:38.483Z</time></trkpt><trkpt lat="39.8960683" lon="9.37585"><ele>912.0</ele><time>2026-04-24T12:12:39.483Z</time></trkpt><trkpt lat="39.8962267" lon="9.375855"><ele>912.0</ele><time>2026-04-24T12:12:40.483Z</time></trkpt><trkpt lat="39.8963683" lon="9.3758733"><ele>912.0</ele><time>2026-04-24T12:12:41.483Z</time></trkpt><trkpt lat="39.8965017" lon="9.375885"><ele>912.0</ele><time>2026-04-24T12:12:42.483Z</time></trkpt><trkpt lat="39.8966317" lon="9.3759133"><ele>912.0</ele><time>2026-04-24T12:12:43.484Z</time></trkpt><trkpt lat="39.8967467" lon="9.375955"><ele>912.0</ele><time>2026-04-24T12:12:44.483Z</time></trkpt><trkpt lat="39.89686" lon="9.37601"><ele>912.0</ele><time>2026-04-24T12:12:45.483Z</time></trkpt><trkpt lat="39.89696" lon="9.3761"><ele>912.0</ele><time>2026-04-24T12:12:46.483Z</time></trkpt><trkpt lat="39.89705" lon="9.3762133"><ele>910.0</ele><time>2026-04-24T12:12:47.484Z</time></trkpt><trkpt lat="39.8971317" lon="9.37635"><ele>908.0</ele><time>2026-04-24T12:12:48.484Z</time></trkpt><trkpt lat="39.897195" lon="9.3765"><ele>906.0</ele><time>2026-04-24T12:12:49.484Z</time></trkpt><trkpt lat="39.8972533" lon="9.3766483"><ele>904.0</ele><time>2026-04-24T12:12:50.484Z</time></trkpt><trkpt lat="39.8972967" lon="9.376805"><ele>904.0</ele><time>2026-04-24T12:12:51.483Z</time></trkpt><trkpt lat="39.8973217" lon="9.37695"><ele>904.0</ele><time>2026-04-24T12:12:52.484Z</time></trkpt><trkpt lat="39.897415" lon="9.3772117"><ele>904.0</ele><time>2026-04-24T12:12:54.483Z</time></trkpt><trkpt lat="39.897475" lon="9.37732"><ele>904.0</ele><time>2026-04-24T12:12:55.484Z</time></trkpt><trkpt lat="39.89757" lon="9.3774133"><ele>903.5</ele><time>2026-04-24T12:12:56.484Z</time></trkpt><trkpt lat="39.8976917" lon="9.3774967"><ele>903.0</ele><time>2026-04-24T12:12:57.483Z</time></trkpt><trkpt lat="39.8978283" lon="9.3775767"><ele>902.5</ele><time>2026-04-24T12:12:58.484Z</time></trkpt><trkpt lat="39.89796" lon="9.37766"><ele>902.0</ele><time>2026-04-24T12:12:59.484Z</time></trkpt><trkpt lat="39.8981017" lon="9.3777433"><ele>902.0</ele><time>2026-04-24T12:13:00.483Z</time></trkpt><trkpt lat="39.8982333" lon="9.3778167"><ele>902.0</ele><time>2026-04-24T12:13:01.483Z</time></trkpt><trkpt lat="39.8983583" lon="9.3778783"><ele>902.0</ele><time>2026-04-24T12:13:02.484Z</time></trkpt><trkpt lat="39.898495" lon="9.3779133"><ele>902.0</ele><time>2026-04-24T12:13:03.484Z</time></trkpt><trkpt lat="39.8985783" lon="9.3779517"><ele>903.0</ele><time>2026-04-24T12:13:04.484Z</time></trkpt><trkpt lat="39.898695" lon="9.3779917"><ele>904.0</ele><time>2026-04-24T12:13:05.484Z</time></trkpt><trkpt lat="39.898805" lon="9.3780533"><ele>905.0</ele><time>2026-04-24T12:13:06.483Z</time></trkpt><trkpt lat="39.8989167" lon="9.37814"><ele>906.0</ele><time>2026-04-24T12:13:07.484Z</time></trkpt><trkpt lat="39.8990267" lon="9.37826"><ele>906.0</ele><time>2026-04-24T12:13:08.484Z</time></trkpt><trkpt lat="39.8991467" lon="9.3783833"><ele>906.0</ele><time>2026-04-24T12:13:09.483Z</time></trkpt><trkpt lat="39.8992633" lon="9.3785183"><ele>906.0</ele><time>2026-04-24T12:13:10.483Z</time></trkpt><trkpt lat="39.8993783" lon="9.3786633"><ele>903.0</ele><time>2026-04-24T12:13:11.484Z</time></trkpt><trkpt lat="39.8994883" lon="9.3787983"><ele>900.0</ele><time>2026-04-24T12:13:12.483Z</time></trkpt><trkpt lat="39.8996017" lon="9.3789367"><ele>897.0</ele><time>2026-04-24T12:13:13.484Z</time></trkpt><trkpt lat="39.899805" lon="9.3791783"><ele>897.0</ele><time>2026-04-24T12:13:15.484Z</time></trkpt><trkpt lat="39.8999017" lon="9.3792883"><ele>897.0</ele><time>2026-04-24T12:13:16.483Z</time></trkpt><trkpt lat="39.8999917" lon="9.3793917"><ele>897.0</ele><time>2026-04-24T12:13:17.484Z</time></trkpt><trkpt lat="39.9000517" lon="9.379515"><ele>897.0</ele><time>2026-04-24T12:13:18.483Z</time></trkpt><trkpt lat="39.9000767" lon="9.3796367"><ele>897.75</ele><time>2026-04-24T12:13:19.483Z</time></trkpt><trkpt lat="39.90007" lon="9.3797633"><ele>898.5</ele><time>2026-04-24T12:13:20.484Z</time></trkpt><trkpt lat="39.90003" lon="9.3799"><ele>899.25</ele><time>2026-04-24T12:13:21.484Z</time></trkpt><trkpt lat="39.8999583" lon="9.3800283"><ele>900.0</ele><time>2026-04-24T12:13:22.483Z</time></trkpt><trkpt lat="39.8998817" lon="9.3801517"><ele>900.0</ele><time>2026-04-24T12:13:23.483Z</time></trkpt><trkpt lat="39.899825" lon="9.380265"><ele>900.0</ele><time>2026-04-24T12:13:24.483Z</time></trkpt><trkpt lat="39.899785" lon="9.3803783"><ele>900.0</ele><time>2026-04-24T12:13:25.483Z</time></trkpt><trkpt lat="39.8997883" lon="9.3804967"><ele>900.0</ele><time>2026-04-24T12:13:26.483Z</time></trkpt><trkpt lat="39.8998117" lon="9.380605"><ele>900.0</ele><time>2026-04-24T12:13:27.484Z</time></trkpt><trkpt lat="39.8998467" lon="9.3807067"><ele>901.0</ele><time>2026-04-24T12:13:28.484Z</time></trkpt><trkpt lat="39.89992" lon="9.38081"><ele>902.0</ele><time>2026-04-24T12:13:29.483Z</time></trkpt><trkpt lat="39.9000133" lon="9.3809267"><ele>903.0</ele><time>2026-04-24T12:13:30.484Z</time></trkpt><trkpt lat="39.9001133" lon="9.3810467"><ele>904.0</ele><time>2026-04-24T12:13:31.484Z</time></trkpt><trkpt lat="39.9002283" lon="9.381165"><ele>904.0</ele><time>2026-04-24T12:13:32.483Z</time></trkpt><trkpt lat="39.9003333" lon="9.38128"><ele>904.0</ele><time>2026-04-24T12:13:33.483Z</time></trkpt><trkpt lat="39.90045" lon="9.3813767"><ele>904.0</ele><time>2026-04-24T12:13:34.483Z</time></trkpt><trkpt lat="39.9007167" lon="9.3815"><ele>904.0</ele><time>2026-04-24T12:13:36.484Z</time></trkpt><trkpt lat="39.9008867" lon="9.3815367"><ele>904.0</ele><time>2026-04-24T12:13:37.484Z</time></trkpt><trkpt lat="39.9010533" lon="9.3815617"><ele>904.0</ele><time>2026-04-24T12:13:38.484Z</time></trkpt><trkpt lat="39.9012033" lon="9.381595"><ele>902.25</ele><time>2026-04-24T12:13:39.483Z</time></trkpt><trkpt lat="39.9013433" lon="9.3816267"><ele>900.5</ele><time>2026-04-24T12:13:40.483Z</time></trkpt><trkpt lat="39.9014483" lon="9.38166"><ele>898.75</ele><time>2026-04-24T12:13:41.483Z</time></trkpt><trkpt lat="39.901555" lon="9.3816983"><ele>897.0</ele><time>2026-04-24T12:13:42.483Z</time></trkpt><trkpt lat="39.9016433" lon="9.3817667"><ele>897.0</ele><time>2026-04-24T12:13:43.484Z</time></trkpt><trkpt lat="39.9017117" lon="9.38187"><ele>897.0</ele><time>2026-04-24T12:13:44.484Z</time></trkpt><trkpt lat="39.9017617" lon="9.381985"><ele>897.0</ele><time>2026-04-24T12:13:45.484Z</time></trkpt><trkpt lat="39.9017867" lon="9.3821133"><ele>897.0</ele><time>2026-04-24T12:13:46.483Z</time></trkpt><trkpt lat="39.9017867" lon="9.38226"><ele>897.0</ele><time>2026-04-24T12:13:47.483Z</time></trkpt><trkpt lat="39.9017767" lon="9.3824167"><ele>893.25</ele><time>2026-04-24T12:13:48.483Z</time></trkpt><trkpt lat="39.9017817" lon="9.38258"><ele>889.5</ele><time>2026-04-24T12:13:49.483Z</time></trkpt><trkpt lat="39.9017933" lon="9.3827383"><ele>885.75</ele><time>2026-04-24T12:13:50.483Z</time></trkpt><trkpt lat="39.901795" lon="9.382875"><ele>882.0</ele><time>2026-04-24T12:13:51.484Z</time></trkpt><trkpt lat="39.901785" lon="9.3830033"><ele>887.75</ele><time>2026-04-24T12:13:52.484Z</time></trkpt><trkpt lat="39.9017433" lon="9.3831317"><ele>893.5</ele><time>2026-04-24T12:13:53.483Z</time></trkpt><trkpt lat="39.9016767" lon="9.3832533"><ele>899.25</ele><time>2026-04-24T12:13:54.484Z</time></trkpt><trkpt lat="39.901605" lon="9.3833883"><ele>905.0</ele><time>2026-04-24T12:13:55.484Z</time></trkpt><trkpt lat="39.9014833" lon="9.3836433"><ele>905.0</ele><time>2026-04-24T12:13:57.484Z</time></trkpt><trkpt lat="39.901425" lon="9.383785"><ele>905.0</ele><time>2026-04-24T12:13:58.483Z</time></trkpt><trkpt lat="39.9013717" lon="9.383935"><ele>905.0</ele><time>2026-04-24T12:13:59.483Z</time></trkpt><trkpt lat="39.9013233" lon="9.384095"><ele>905.0</ele><time>2026-04-24T12:14:00.484Z</time></trkpt><trkpt lat="39.9012733" lon="9.384255"><ele>903.75</ele><time>2026-04-24T12:14:01.483Z</time></trkpt><trkpt lat="39.9012317" lon="9.3844133"><ele>902.5</ele><time>2026-04-24T12:14:02.484Z</time></trkpt><trkpt lat="39.9011967" lon="9.3845767"><ele>901.25</ele><time>2026-04-24T12:14:03.483Z</time></trkpt><trkpt lat="39.9011617" lon="9.384735"><ele>900.0</ele><time>2026-04-24T12:14:04.483Z</time></trkpt><trkpt lat="39.9011367" lon="9.3848917"><ele>899.0</ele><time>2026-04-24T12:14:05.483Z</time></trkpt><trkpt lat="39.9010967" lon="9.3850367"><ele>898.0</ele><time>2026-04-24T12:14:06.484Z</time></trkpt><trkpt lat="39.90105" lon="9.385175"><ele>897.0</ele><time>2026-04-24T12:14:07.483Z</time></trkpt><trkpt lat="39.9009783" lon="9.3852933"><ele>896.0</ele><time>2026-04-24T12:14:08.484Z</time></trkpt><trkpt lat="39.9008917" lon="9.385395"><ele>899.25</ele><time>2026-04-24T12:14:09.484Z</time></trkpt><trkpt lat="39.90078" lon="9.38549"><ele>902.5</ele><time>2026-04-24T12:14:10.484Z</time></trkpt><trkpt lat="39.9006517" lon="9.3855767"><ele>905.75</ele><time>2026-04-24T12:14:11.484Z</time></trkpt><trkpt lat="39.9005333" lon="9.3856617"><ele>909.0</ele><time>2026-04-24T12:14:12.484Z</time></trkpt><trkpt lat="39.9004317" lon="9.3857367"><ele>909.0</ele><time>2026-04-24T12:14:13.484Z</time></trkpt><trkpt lat="39.9003383" lon="9.3858167"><ele>909.0</ele><time>2026-04-24T12:14:14.483Z</time></trkpt><trkpt lat="39.9002533" lon="9.38591"><ele>909.0</ele><time>2026-04-24T12:14:15.483Z</time></trkpt><trkpt lat="39.9001983" lon="9.3860267"><ele>909.0</ele><time>2026-04-24T12:14:16.483Z</time></trkpt><trkpt lat="39.9001267" lon="9.3863233"><ele>905.5</ele><time>2026-04-24T12:14:18.484Z</time></trkpt><trkpt lat="39.9000933" lon="9.38649"><ele>902.0</ele><time>2026-04-24T12:14:19.484Z</time></trkpt><trkpt lat="39.9000583" lon="9.3866617"><ele>898.5</ele><time>2026-04-24T12:14:20.483Z</time></trkpt><trkpt lat="39.900025" lon="9.386835"><ele>895.0</ele><time>2026-04-24T12:14:21.484Z</time></trkpt><trkpt lat="39.8999917" lon="9.38701"><ele>902.5</ele><time>2026-04-24T12:14:22.484Z</time></trkpt><trkpt lat="39.8999567" lon="9.3871883"><ele>910.0</ele><time>2026-04-24T12:14:23.483Z</time></trkpt><trkpt lat="39.8999267" lon="9.387375"><ele>917.5</ele><time>2026-04-24T12:14:24.483Z</time></trkpt><trkpt lat="39.8998967" lon="9.3875667"><ele>925.0</ele><time>2026-04-24T12:14:25.483Z</time></trkpt><trkpt lat="39.8998617" lon="9.3877667"><ele>925.0</ele><time>2026-04-24T12:14:26.484Z</time></trkpt><trkpt lat="39.8998267" lon="9.3879467"><ele>925.0</ele><time>2026-04-24T12:14:27.484Z</time></trkpt><trkpt lat="39.8997917" lon="9.388115"><ele>925.0</ele><time>2026-04-24T12:14:28.483Z</time></trkpt><trkpt lat="39.899765" lon="9.3882617"><ele>925.0</ele><time>2026-04-24T12:14:29.484Z</time></trkpt><trkpt lat="39.8997533" lon="9.3883967"><ele>925.6</ele><time>2026-04-24T12:14:30.483Z</time></trkpt><trkpt lat="39.89976" lon="9.3885233"><ele>926.2</ele><time>2026-04-24T12:14:31.483Z</time></trkpt><trkpt lat="39.8997967" lon="9.3886483"><ele>926.8</ele><time>2026-04-24T12:14:32.484Z</time></trkpt><trkpt lat="39.89986" lon="9.3887633"><ele>927.4</ele><time>2026-04-24T12:14:33.483Z</time></trkpt><trkpt lat="39.89994" lon="9.388865"><ele>928.0</ele><time>2026-04-24T12:14:34.483Z</time></trkpt><trkpt lat="39.9000283" lon="9.38897"><ele>925.75</ele><time>2026-04-24T12:14:35.484Z</time></trkpt><trkpt lat="39.9001083" lon="9.3890817"><ele>923.5</ele><time>2026-04-24T12:14:36.484Z</time></trkpt><trkpt lat="39.9001367" lon="9.3891883"><ele>921.25</ele><time>2026-04-24T12:14:37.483Z</time></trkpt><trkpt lat="39.9000933" lon="9.3894233"><ele>919.0</ele><time>2026-04-24T12:14:39.483Z</time></trkpt><trkpt lat="39.90002" lon="9.3895367"><ele>923.25</ele><time>2026-04-24T12:14:40.484Z</time></trkpt><trkpt lat="39.899935" lon="9.3896533"><ele>927.5</ele><time>2026-04-24T12:14:41.484Z</time></trkpt><trkpt lat="39.8998433" lon="9.3897767"><ele>931.75</ele><time>2026-04-24T12:14:42.483Z</time></trkpt><trkpt lat="39.899755" lon="9.389905"><ele>936.0</ele><time>2026-04-24T12:14:43.483Z</time></trkpt><trkpt lat="39.8996733" lon="9.3900217"><ele>936.0</ele><time>2026-04-24T12:14:44.483Z</time></trkpt><trkpt lat="39.8996067" lon="9.39013"><ele>936.0</ele><time>2026-04-24T12:14:45.484Z</time></trkpt><trkpt lat="39.899545" lon="9.390225"><ele>936.0</ele><time>2026-04-24T12:14:46.484Z</time></trkpt><trkpt lat="39.8994983" lon="9.3903017"><ele>936.0</ele><time>2026-04-24T12:14:47.483Z</time></trkpt><trkpt lat="39.89945" lon="9.3903733"><ele>936.0</ele><time>2026-04-24T12:14:48.484Z</time></trkpt><trkpt lat="39.8994" lon="9.390445"><ele>936.0</ele><time>2026-04-24T12:14:49.484Z</time></trkpt><trkpt lat="39.8993533" lon="9.3905067"><ele>936.0</ele><time>2026-04-24T12:14:50.484Z</time></trkpt><trkpt lat="39.8992833" lon="9.3906283"><ele>936.0</ele><time>2026-04-24T12:14:52.483Z</time></trkpt><trkpt lat="39.8992417" lon="9.390715"><ele>936.0</ele><time>2026-04-24T12:14:54.483Z</time></trkpt><trkpt lat="39.8992267" lon="9.39083"><ele>936.0</ele><time>2026-04-24T12:15:32.483Z</time></trkpt><trkpt lat="39.8993033" lon="9.3912233"><ele>936.0</ele><time>2026-04-24T12:33:19.485Z</time></trkpt><trkpt lat="39.8993217" lon="9.3913033"><ele>936.0000000000001</ele><time>2026-04-24T12:33:20.485Z</time></trkpt><trkpt lat="39.8993467" lon="9.3913867"><ele>936.0</ele><time>2026-04-24T12:33:21.485Z</time></trkpt><trkpt lat="39.8993733" lon="9.3914783"><ele>936.0</ele><time>2026-04-24T12:33:22.485Z</time></trkpt><trkpt lat="39.8994017" lon="9.391575"><ele>936.0000000000001</ele><time>2026-04-24T12:33:23.484Z</time></trkpt><trkpt lat="39.89942" lon="9.39167"><ele>936.0</ele><time>2026-04-24T12:33:24.484Z</time></trkpt><trkpt lat="39.899435" lon="9.3917717"><ele>936.0</ele><time>2026-04-24T12:33:25.484Z</time></trkpt><trkpt lat="39.8994417" lon="9.39188"><ele>936.5999999999999</ele><time>2026-04-24T12:33:26.485Z</time></trkpt><trkpt lat="39.899445" lon="9.39199"><ele>937.1999999999999</ele><time>2026-04-24T12:33:27.484Z</time></trkpt><trkpt lat="39.89945" lon="9.3921017"><ele>937.8000000000001</ele><time>2026-04-24T12:33:28.485Z</time></trkpt><trkpt lat="39.8994567" lon="9.3922167"><ele>938.4000000000001</ele><time>2026-04-24T12:33:29.484Z</time></trkpt><trkpt lat="39.8994733" lon="9.392335"><ele>939.0</ele><time>2026-04-24T12:33:30.485Z</time></trkpt><trkpt lat="39.89949" lon="9.3924633"><ele>941.2</ele><time>2026-04-24T12:33:31.485Z</time></trkpt><trkpt lat="39.8995267" lon="9.39258"><ele>943.4000000000001</ele><time>2026-04-24T12:33:32.485Z</time></trkpt><trkpt lat="39.8995667" lon="9.3926983"><ele>945.6</ele><time>2026-04-24T12:33:33.485Z</time></trkpt><trkpt lat="39.89961" lon="9.392825"><ele>947.8</ele><time>2026-04-24T12:33:34.485Z</time></trkpt><trkpt lat="39.8996533" lon="9.3929417"><ele>950.0</ele><time>2026-04-24T12:33:35.484Z</time></trkpt><trkpt lat="39.8997067" lon="9.39304"><ele>953.4</ele><time>2026-04-24T12:33:36.484Z</time></trkpt><trkpt lat="39.8998183" lon="9.3931983"><ele>956.8</ele><time>2026-04-24T12:33:38.484Z</time></trkpt><trkpt lat="39.899885" lon="9.3932567"><ele>960.2</ele><time>2026-04-24T12:33:39.484Z</time></trkpt><trkpt lat="39.8999533" lon="9.3932867"><ele>963.6</ele><time>2026-04-24T12:33:40.485Z</time></trkpt><trkpt lat="39.9000383" lon="9.393285"><ele>967.0</ele><time>2026-04-24T12:33:41.484Z</time></trkpt><trkpt lat="39.9001267" lon="9.3932433"><ele>969.25</ele><time>2026-04-24T12:33:42.485Z</time></trkpt><trkpt lat="39.90022" lon="9.3931733"><ele>971.5</ele><time>2026-04-24T12:33:43.484Z</time></trkpt><trkpt lat="39.9003133" lon="9.3930933"><ele>973.75</ele><time>2026-04-24T12:33:44.485Z</time></trkpt><trkpt lat="39.9004117" lon="9.3930133"><ele>976.0</ele><time>2026-04-24T12:33:45.485Z</time></trkpt><trkpt lat="39.9005167" lon="9.3929367"><ele>972.25</ele><time>2026-04-24T12:33:46.485Z</time></trkpt><trkpt lat="39.90062" lon="9.39288"><ele>968.5</ele><time>2026-04-24T12:33:47.485Z</time></trkpt><trkpt lat="39.900735" lon="9.3928433"><ele>964.75</ele><time>2026-04-24T12:33:48.485Z</time></trkpt><trkpt lat="39.9008533" lon="9.3928233"><ele>961.0</ele><time>2026-04-24T12:33:49.484Z</time></trkpt><trkpt lat="39.9009817" lon="9.3928117"><ele>961.0</ele><time>2026-04-24T12:33:50.484Z</time></trkpt><trkpt lat="39.9011117" lon="9.3928033"><ele>961.0</ele><time>2026-04-24T12:33:51.484Z</time></trkpt><trkpt lat="39.9012367" lon="9.392785"><ele>961.0</ele><time>2026-04-24T12:33:52.484Z</time></trkpt><trkpt lat="39.9013567" lon="9.3927567"><ele>961.0</ele><time>2026-04-24T12:33:53.484Z</time></trkpt><trkpt lat="39.9014833" lon="9.3927183"><ele>961.0</ele><time>2026-04-24T12:33:54.485Z</time></trkpt><trkpt lat="39.9016167" lon="9.3926633"><ele>961.0</ele><time>2026-04-24T12:33:55.485Z</time></trkpt><trkpt lat="39.901745" lon="9.3925983"><ele>961.0</ele><time>2026-04-24T12:33:56.484Z</time></trkpt><trkpt lat="39.90187" lon="9.3925233"><ele>961.0</ele><time>2026-04-24T12:33:57.484Z</time></trkpt><trkpt lat="39.9021283" lon="9.3923683"><ele>961.75</ele><time>2026-04-24T12:33:59.484Z</time></trkpt><trkpt lat="39.9022633" lon="9.3922883"><ele>962.5</ele><time>2026-04-24T12:34:00.484Z</time></trkpt><trkpt lat="39.9023983" lon="9.3922067"><ele>963.25</ele><time>2026-04-24T12:34:01.484Z</time></trkpt><trkpt lat="39.902525" lon="9.392135"><ele>964.0</ele><time>2026-04-24T12:34:02.484Z</time></trkpt><trkpt lat="39.9026483" lon="9.39207"><ele>964.0</ele><time>2026-04-24T12:34:03.485Z</time></trkpt><trkpt lat="39.9027633" lon="9.3920033"><ele>964.0</ele><time>2026-04-24T12:34:04.485Z</time></trkpt><trkpt lat="39.902875" lon="9.3919467"><ele>964.0</ele><time>2026-04-24T12:34:05.485Z</time></trkpt><trkpt lat="39.9029767" lon="9.3918917"><ele>964.0</ele><time>2026-04-24T12:34:06.484Z</time></trkpt><trkpt lat="39.9030633" lon="9.391845"><ele>963.9999999999999</ele><time>2026-04-24T12:34:07.484Z</time></trkpt><trkpt lat="39.9031433" lon="9.3918133"><ele>964.0</ele><time>2026-04-24T12:34:08.485Z</time></trkpt><trkpt lat="39.9032267" lon="9.391805"><ele>964.0</ele><time>2026-04-24T12:34:09.484Z</time></trkpt><trkpt lat="39.9033083" lon="9.391835"><ele>964.0</ele><time>2026-04-24T12:34:10.484Z</time></trkpt><trkpt lat="39.9033733" lon="9.3918933"><ele>963.9999999999999</ele><time>2026-04-24T12:34:11.485Z</time></trkpt><trkpt lat="39.9034133" lon="9.3920183"><ele>964.0</ele><time>2026-04-24T12:34:13.485Z</time></trkpt><trkpt lat="39.9033767" lon="9.3921633"><ele>963.25</ele><time>2026-04-24T12:34:15.485Z</time></trkpt><trkpt lat="39.9033333" lon="9.3922417"><ele>962.5</ele><time>2026-04-24T12:34:16.485Z</time></trkpt><trkpt lat="39.9032717" lon="9.3923217"><ele>961.75</ele><time>2026-04-24T12:34:17.484Z</time></trkpt><trkpt lat="39.9031983" lon="9.3924033"><ele>961.0</ele><time>2026-04-24T12:34:18.484Z</time></trkpt><trkpt lat="39.9030267" lon="9.3925867"><ele>961.0</ele><time>2026-04-24T12:34:20.484Z</time></trkpt><trkpt lat="39.9029367" lon="9.3926967"><ele>961.0</ele><time>2026-04-24T12:34:21.485Z</time></trkpt><trkpt lat="39.9028383" lon="9.3928117"><ele>961.0</ele><time>2026-04-24T12:34:22.484Z</time></trkpt><trkpt lat="39.9027383" lon="9.3929283"><ele>961.0</ele><time>2026-04-24T12:34:23.485Z</time></trkpt><trkpt lat="39.9026433" lon="9.39304"><ele>963.0</ele><time>2026-04-24T12:34:24.484Z</time></trkpt><trkpt lat="39.9025567" lon="9.3931533"><ele>965.0</ele><time>2026-04-24T12:34:25.485Z</time></trkpt><trkpt lat="39.9024817" lon="9.393275"><ele>967.0</ele><time>2026-04-24T12:34:26.484Z</time></trkpt><trkpt lat="39.9024167" lon="9.3934017"><ele>969.0</ele><time>2026-04-24T12:34:27.484Z</time></trkpt><trkpt lat="39.9023467" lon="9.393545"><ele>969.0</ele><time>2026-04-24T12:34:28.485Z</time></trkpt><trkpt lat="39.9022833" lon="9.3937017"><ele>969.0</ele><time>2026-04-24T12:34:29.484Z</time></trkpt><trkpt lat="39.9022183" lon="9.3938783"><ele>969.0</ele><time>2026-04-24T12:34:30.485Z</time></trkpt><trkpt lat="39.9021617" lon="9.3940617"><ele>969.0</ele><time>2026-04-24T12:34:31.485Z</time></trkpt><trkpt lat="39.9021033" lon="9.3942483"><ele>963.0</ele><time>2026-04-24T12:34:32.485Z</time></trkpt><trkpt lat="39.902035" lon="9.3944433"><ele>957.0</ele><time>2026-04-24T12:34:33.484Z</time></trkpt><trkpt lat="39.901965" lon="9.3946467"><ele>951.0</ele><time>2026-04-24T12:34:34.485Z</time></trkpt><trkpt lat="39.9019017" lon="9.39484"><ele>948.3333333333333</ele><time>2026-04-24T12:34:35.484Z</time></trkpt><trkpt lat="39.901835" lon="9.39503"><ele>945.6666666666666</ele><time>2026-04-24T12:34:36.485Z</time></trkpt><trkpt lat="39.901775" lon="9.3952133"><ele>943.0</ele><time>2026-04-24T12:34:37.484Z</time></trkpt><trkpt lat="39.9017133" lon="9.3953833"><ele>949.6666666666666</ele><time>2026-04-24T12:34:38.485Z</time></trkpt><trkpt lat="39.9016617" lon="9.3955467"><ele>956.3333333333333</ele><time>2026-04-24T12:34:39.485Z</time></trkpt><trkpt lat="39.901555" lon="9.3958467"><ele>963.0</ele><time>2026-04-24T12:34:41.485Z</time></trkpt><trkpt lat="39.90151" lon="9.395985"><ele>963.0</ele><time>2026-04-24T12:34:42.484Z</time></trkpt><trkpt lat="39.9014833" lon="9.3961217"><ele>963.0</ele><time>2026-04-24T12:34:43.485Z</time></trkpt><trkpt lat="39.9014783" lon="9.396255"><ele>963.0</ele><time>2026-04-24T12:34:44.485Z</time></trkpt><trkpt lat="39.9014967" lon="9.3963917"><ele>963.0</ele><time>2026-04-24T12:34:45.484Z</time></trkpt><trkpt lat="39.9015283" lon="9.3965083"><ele>963.0</ele><time>2026-04-24T12:34:46.484Z</time></trkpt><trkpt lat="39.9015633" lon="9.3966117"><ele>962.6666666666666</ele><time>2026-04-24T12:34:47.485Z</time></trkpt><trkpt lat="39.9016017" lon="9.3967033"><ele>962.3333333333333</ele><time>2026-04-24T12:34:48.484Z</time></trkpt><trkpt lat="39.9016467" lon="9.3967783"><ele>962.0</ele><time>2026-04-24T12:34:49.485Z</time></trkpt><trkpt lat="39.9017" lon="9.3968383"><ele>961.6666666666666</ele><time>2026-04-24T12:34:50.484Z</time></trkpt><trkpt lat="39.90177" lon="9.3968733"><ele>961.3333333333333</ele><time>2026-04-24T12:34:51.484Z</time></trkpt><trkpt lat="39.9018583" lon="9.396865"><ele>961.0</ele><time>2026-04-24T12:34:52.485Z</time></trkpt><trkpt lat="39.9019517" lon="9.3968333"><ele>960.25</ele><time>2026-04-24T12:34:53.484Z</time></trkpt><trkpt lat="39.9020567" lon="9.3967817"><ele>959.5</ele><time>2026-04-24T12:34:54.485Z</time></trkpt><trkpt lat="39.90217" lon="9.3967217"><ele>958.75</ele><time>2026-04-24T12:34:55.484Z</time></trkpt><trkpt lat="39.9022883" lon="9.39666"><ele>958.0</ele><time>2026-04-24T12:34:56.484Z</time></trkpt><trkpt lat="39.902415" lon="9.3966017"><ele>958.0</ele><time>2026-04-24T12:34:57.484Z</time></trkpt><trkpt lat="39.9025533" lon="9.3965467"><ele>958.0</ele><time>2026-04-24T12:34:58.485Z</time></trkpt><trkpt lat="39.9026917" lon="9.3964833"><ele>958.0</ele><time>2026-04-24T12:34:59.485Z</time></trkpt><trkpt lat="39.9028283" lon="9.3964217"><ele>958.0</ele><time>2026-04-24T12:35:00.484Z</time></trkpt><trkpt lat="39.9031133" lon="9.39629"><ele>956.5</ele><time>2026-04-24T12:35:02.485Z</time></trkpt><trkpt lat="39.903255" lon="9.3962267"><ele>955.0</ele><time>2026-04-24T12:35:03.484Z</time></trkpt><trkpt lat="39.903395" lon="9.3961567"><ele>953.5</ele><time>2026-04-24T12:35:04.484Z</time></trkpt><trkpt lat="39.9035333" lon="9.3960867"><ele>952.0</ele><time>2026-04-24T12:35:05.484Z</time></trkpt><trkpt lat="39.9036717" lon="9.3960233"><ele>952.0</ele><time>2026-04-24T12:35:06.485Z</time></trkpt><trkpt lat="39.9038017" lon="9.3959683"><ele>952.0</ele><time>2026-04-24T12:35:07.484Z</time></trkpt><trkpt lat="39.9039317" lon="9.3959133"><ele>952.0</ele><time>2026-04-24T12:35:08.484Z</time></trkpt><trkpt lat="39.9040633" lon="9.39586"><ele>952.0</ele><time>2026-04-24T12:35:09.484Z</time></trkpt><trkpt lat="39.9042017" lon="9.3958017"><ele>952.25</ele><time>2026-04-24T12:35:10.484Z</time></trkpt><trkpt lat="39.9043333" lon="9.395745"><ele>952.5</ele><time>2026-04-24T12:35:11.484Z</time></trkpt><trkpt lat="39.9044617" lon="9.3957017"><ele>952.75</ele><time>2026-04-24T12:35:12.485Z</time></trkpt><trkpt lat="39.904595" lon="9.3956617"><ele>953.0</ele><time>2026-04-24T12:35:13.485Z</time></trkpt><trkpt lat="39.9047267" lon="9.3956317"><ele>953.0</ele><time>2026-04-24T12:35:14.484Z</time></trkpt><trkpt lat="39.9048583" lon="9.3956"><ele>953.0</ele><time>2026-04-24T12:35:15.485Z</time></trkpt><trkpt lat="39.9049833" lon="9.3955667"><ele>953.0</ele><time>2026-04-24T12:35:16.485Z</time></trkpt><trkpt lat="39.9051033" lon="9.3955417"><ele>953.0</ele><time>2026-04-24T12:35:17.484Z</time></trkpt><trkpt lat="39.905215" lon="9.3955167"><ele>950.2</ele><time>2026-04-24T12:35:18.485Z</time></trkpt><trkpt lat="39.9053117" lon="9.395495"><ele>947.4</ele><time>2026-04-24T12:35:19.485Z</time></trkpt><trkpt lat="39.905405" lon="9.3954733"><ele>944.6000000000001</ele><time>2026-04-24T12:35:20.485Z</time></trkpt><trkpt lat="39.9054867" lon="9.395475"><ele>941.8000000000001</ele><time>2026-04-24T12:35:21.485Z</time></trkpt><trkpt lat="39.90564" lon="9.3955583"><ele>939.0</ele><time>2026-04-24T12:35:23.485Z</time></trkpt><trkpt lat="39.9056983" lon="9.395645"><ele>939.0</ele><time>2026-04-24T12:35:24.484Z</time></trkpt><trkpt lat="39.905735" lon="9.3957533"><ele>939.0000000000001</ele><time>2026-04-24T12:35:25.484Z</time></trkpt><trkpt lat="39.9057633" lon="9.395885"><ele>939.0000000000001</ele><time>2026-04-24T12:35:26.484Z</time></trkpt><trkpt lat="39.905785" lon="9.396025"><ele>939.0</ele><time>2026-04-24T12:35:27.484Z</time></trkpt><trkpt lat="39.9058067" lon="9.3961633"><ele>939.0</ele><time>2026-04-24T12:35:28.484Z</time></trkpt><trkpt lat="39.9058233" lon="9.3963017"><ele>939.8000000000001</ele><time>2026-04-24T12:35:29.484Z</time></trkpt><trkpt lat="39.9058317" lon="9.39643"><ele>940.6000000000001</ele><time>2026-04-24T12:35:30.485Z</time></trkpt><trkpt lat="39.9058283" lon="9.3965567"><ele>941.4</ele><time>2026-04-24T12:35:31.485Z</time></trkpt><trkpt lat="39.9058083" lon="9.396685"><ele>942.2</ele><time>2026-04-24T12:35:32.484Z</time></trkpt><trkpt lat="39.9057683" lon="9.396815"><ele>943.0</ele><time>2026-04-24T12:35:33.485Z</time></trkpt><trkpt lat="39.905715" lon="9.3969417"><ele>943.0</ele><time>2026-04-24T12:35:34.485Z</time></trkpt><trkpt lat="39.9056567" lon="9.397075"><ele>943.0</ele><time>2026-04-24T12:35:35.485Z</time></trkpt><trkpt lat="39.9056017" lon="9.3972117"><ele>943.0</ele><time>2026-04-24T12:35:36.484Z</time></trkpt><trkpt lat="39.9055617" lon="9.3973417"><ele>943.0</ele><time>2026-04-24T12:35:37.485Z</time></trkpt><trkpt lat="39.9055267" lon="9.3974733"><ele>943.8</ele><time>2026-04-24T12:35:38.484Z</time></trkpt><trkpt lat="39.9055017" lon="9.3975983"><ele>944.5999999999999</ele><time>2026-04-24T12:35:39.485Z</time></trkpt><trkpt lat="39.9054867" lon="9.39772"><ele>945.4000000000001</ele><time>2026-04-24T12:35:40.484Z</time></trkpt><trkpt lat="39.9054833" lon="9.397835"><ele>946.2</ele><time>2026-04-24T12:35:41.484Z</time></trkpt><trkpt lat="39.9055083" lon="9.3979333"><ele>947.0</ele><time>2026-04-24T12:35:42.484Z</time></trkpt><trkpt lat="39.905635" lon="9.39805"><ele>947.0</ele><time>2026-04-24T12:35:44.485Z</time></trkpt><trkpt lat="39.9057333" lon="9.3980417"><ele>947.0</ele><time>2026-04-24T12:35:45.484Z</time></trkpt><trkpt lat="39.9058267" lon="9.397995"><ele>947.0</ele><time>2026-04-24T12:35:46.484Z</time></trkpt><trkpt lat="39.9059083" lon="9.3979267"><ele>947.0</ele><time>2026-04-24T12:35:47.484Z</time></trkpt><trkpt lat="39.9059933" lon="9.3978383"><ele>947.0</ele><time>2026-04-24T12:35:48.485Z</time></trkpt><trkpt lat="39.9060783" lon="9.3977283"><ele>949.5</ele><time>2026-04-24T12:35:49.485Z</time></trkpt><trkpt lat="39.90616" lon="9.3976167"><ele>952.0</ele><time>2026-04-24T12:35:50.484Z</time></trkpt><trkpt lat="39.9062417" lon="9.3975133"><ele>954.5</ele><time>2026-04-24T12:35:51.484Z</time></trkpt><trkpt lat="39.9063183" lon="9.3974117"><ele>957.0</ele><time>2026-04-24T12:35:52.485Z</time></trkpt><trkpt lat="39.9063933" lon="9.3973083"><ele>957.0</ele><time>2026-04-24T12:35:53.485Z</time></trkpt><trkpt lat="39.9064767" lon="9.397195"><ele>957.0</ele><time>2026-04-24T12:35:54.484Z</time></trkpt><trkpt lat="39.9065617" lon="9.3970717"><ele>957.0</ele><time>2026-04-24T12:35:55.485Z</time></trkpt><trkpt lat="39.9066483" lon="9.3969383"><ele>957.0</ele><time>2026-04-24T12:35:56.485Z</time></trkpt><trkpt lat="39.906735" lon="9.3968"><ele>958.0</ele><time>2026-04-24T12:35:57.484Z</time></trkpt><trkpt lat="39.906825" lon="9.3966583"><ele>959.0</ele><time>2026-04-24T12:35:58.485Z</time></trkpt><trkpt lat="39.9069217" lon="9.3965067"><ele>960.0</ele><time>2026-04-24T12:35:59.485Z</time></trkpt><trkpt lat="39.90702" lon="9.3963533"><ele>961.0</ele><time>2026-04-24T12:36:00.484Z</time></trkpt><trkpt lat="39.9071183" lon="9.3962"><ele>955.0</ele><time>2026-04-24T12:36:01.485Z</time></trkpt><trkpt lat="39.907215" lon="9.3960533"><ele>949.0</ele><time>2026-04-24T12:36:02.484Z</time></trkpt><trkpt lat="39.907315" lon="9.39591"><ele>943.0</ele><time>2026-04-24T12:36:03.485Z</time></trkpt><trkpt lat="39.90752" lon="9.395635"><ele>941.5</ele><time>2026-04-24T12:36:05.485Z</time></trkpt><trkpt lat="39.9076217" lon="9.3955017"><ele>940.0</ele><time>2026-04-24T12:36:06.484Z</time></trkpt><trkpt lat="39.9077167" lon="9.39538"><ele>938.5</ele><time>2026-04-24T12:36:07.484Z</time></trkpt><trkpt lat="39.9078083" lon="9.3952667"><ele>937.0</ele><time>2026-04-24T12:36:08.484Z</time></trkpt><trkpt lat="39.9078983" lon="9.3951583"><ele>937.0</ele><time>2026-04-24T12:36:09.484Z</time></trkpt><trkpt lat="39.9079833" lon="9.3950583"><ele>937.0</ele><time>2026-04-24T12:36:10.484Z</time></trkpt><trkpt lat="39.90808" lon="9.3949667"><ele>937.0</ele><time>2026-04-24T12:36:11.485Z</time></trkpt><trkpt lat="39.9081833" lon="9.3948983"><ele>937.0</ele><time>2026-04-24T12:36:12.484Z</time></trkpt><trkpt lat="39.9082883" lon="9.3948467"><ele>937.0</ele><time>2026-04-24T12:36:13.484Z</time></trkpt><trkpt lat="39.9083883" lon="9.3948217"><ele>937.0</ele><time>2026-04-24T12:36:14.485Z</time></trkpt><trkpt lat="39.9084933" lon="9.39483"><ele>937.0</ele><time>2026-04-24T12:36:15.484Z</time></trkpt><trkpt lat="39.908595" lon="9.3948633"><ele>937.0</ele><time>2026-04-24T12:36:16.484Z</time></trkpt><trkpt lat="39.9086883" lon="9.39493"><ele>937.0</ele><time>2026-04-24T12:36:17.484Z</time></trkpt><trkpt lat="39.9087667" lon="9.3950217"><ele>935.0</ele><time>2026-04-24T12:36:18.485Z</time></trkpt><trkpt lat="39.9088267" lon="9.395135"><ele>933.0</ele><time>2026-04-24T12:36:19.485Z</time></trkpt><trkpt lat="39.9088717" lon="9.3952717"><ele>931.0</ele><time>2026-04-24T12:36:20.484Z</time></trkpt><trkpt lat="39.908895" lon="9.39544"><ele>929.0</ele><time>2026-04-24T12:36:21.485Z</time></trkpt><trkpt lat="39.90892" lon="9.3956083"><ele>929.0</ele><time>2026-04-24T12:36:22.485Z</time></trkpt><trkpt lat="39.908945" lon="9.3957633"><ele>929.0</ele><time>2026-04-24T12:36:23.484Z</time></trkpt><trkpt lat="39.9089767" lon="9.395905"><ele>929.0</ele><time>2026-04-24T12:36:24.484Z</time></trkpt><trkpt lat="39.9090283" lon="9.3961717"><ele>929.0</ele><time>2026-04-24T12:36:26.484Z</time></trkpt><trkpt lat="39.9090633" lon="9.3962817"><ele>929.5000000000001</ele><time>2026-04-24T12:36:27.484Z</time></trkpt><trkpt lat="39.9091167" lon="9.3963683"><ele>930.0</ele><time>2026-04-24T12:36:28.484Z</time></trkpt><trkpt lat="39.9091817" lon="9.3964317"><ele>930.5</ele><time>2026-04-24T12:36:29.484Z</time></trkpt><trkpt lat="39.909265" lon="9.3964633"><ele>931.0</ele><time>2026-04-24T12:36:30.485Z</time></trkpt><trkpt lat="39.90934" lon="9.39646"><ele>931.5000000000001</ele><time>2026-04-24T12:36:31.485Z</time></trkpt><trkpt lat="39.9094133" lon="9.396415"><ele>932.0</ele><time>2026-04-24T12:36:32.485Z</time></trkpt><trkpt lat="39.90949" lon="9.396335"><ele>932.0</ele><time>2026-04-24T12:36:33.484Z</time></trkpt><trkpt lat="39.909565" lon="9.3962367"><ele>932.0</ele><time>2026-04-24T12:36:34.485Z</time></trkpt><trkpt lat="39.909645" lon="9.3961333"><ele>932.0</ele><time>2026-04-24T12:36:35.484Z</time></trkpt><trkpt lat="39.90974" lon="9.396035"><ele>932.0</ele><time>2026-04-24T12:36:36.485Z</time></trkpt><trkpt lat="39.9098383" lon="9.395935"><ele>932.0</ele><time>2026-04-24T12:36:37.484Z</time></trkpt><trkpt lat="39.9099367" lon="9.3958333"><ele>932.0</ele><time>2026-04-24T12:36:38.484Z</time></trkpt><trkpt lat="39.9100383" lon="9.3957367"><ele>932.0</ele><time>2026-04-24T12:36:39.485Z</time></trkpt><trkpt lat="39.9101367" lon="9.3956467"><ele>932.0</ele><time>2026-04-24T12:36:40.484Z</time></trkpt><trkpt lat="39.91023" lon="9.3955533"><ele>934.0</ele><time>2026-04-24T12:36:41.485Z</time></trkpt><trkpt lat="39.9103167" lon="9.395445"><ele>936.0</ele><time>2026-04-24T12:36:42.485Z</time></trkpt><trkpt lat="39.9103883" lon="9.395325"><ele>938.0</ele><time>2026-04-24T12:36:43.485Z</time></trkpt><trkpt lat="39.9104517" lon="9.3951883"><ele>940.0</ele><time>2026-04-24T12:36:44.484Z</time></trkpt><trkpt lat="39.9105033" lon="9.3950517"><ele>940.0</ele><time>2026-04-24T12:36:45.484Z</time></trkpt><trkpt lat="39.9105683" lon="9.3947533"><ele>940.0</ele><time>2026-04-24T12:36:47.485Z</time></trkpt><trkpt lat="39.910595" lon="9.394585"><ele>940.0</ele><time>2026-04-24T12:36:48.485Z</time></trkpt><trkpt lat="39.9106217" lon="9.3944183"><ele>936.75</ele><time>2026-04-24T12:36:49.484Z</time></trkpt><trkpt lat="39.9106483" lon="9.39426"><ele>933.5</ele><time>2026-04-24T12:36:50.485Z</time></trkpt><trkpt lat="39.910675" lon="9.394105"><ele>930.25</ele><time>2026-04-24T12:36:51.484Z</time></trkpt><trkpt lat="39.9107017" lon="9.3939483"><ele>927.0</ele><time>2026-04-24T12:36:52.484Z</time></trkpt><trkpt lat="39.91073" lon="9.3937833"><ele>926.0</ele><time>2026-04-24T12:36:53.485Z</time></trkpt><trkpt lat="39.9107533" lon="9.3936317"><ele>925.0</ele><time>2026-04-24T12:36:54.484Z</time></trkpt><trkpt lat="39.910775" lon="9.3934833"><ele>924.0</ele><time>2026-04-24T12:36:55.485Z</time></trkpt><trkpt lat="39.9107883" lon="9.3933533"><ele>923.0</ele><time>2026-04-24T12:36:56.485Z</time></trkpt><trkpt lat="39.9107817" lon="9.3932367"><ele>922.0</ele><time>2026-04-24T12:36:57.484Z</time></trkpt><trkpt lat="39.9107517" lon="9.3931233"><ele>921.9999999999999</ele><time>2026-04-24T12:36:58.484Z</time></trkpt><trkpt lat="39.9106983" lon="9.3930167"><ele>922.0</ele><time>2026-04-24T12:36:59.485Z</time></trkpt><trkpt lat="39.9106483" lon="9.3929133"><ele>922.0</ele><time>2026-04-24T12:37:00.485Z</time></trkpt><trkpt lat="39.9105967" lon="9.3928267"><ele>922.0</ele><time>2026-04-24T12:37:01.484Z</time></trkpt><trkpt lat="39.9105583" lon="9.3927383"><ele>921.9999999999999</ele><time>2026-04-24T12:37:02.485Z</time></trkpt><trkpt lat="39.9105433" lon="9.3926333"><ele>922.0</ele><time>2026-04-24T12:37:03.484Z</time></trkpt><trkpt lat="39.9105567" lon="9.3925267"><ele>921.5</ele><time>2026-04-24T12:37:04.485Z</time></trkpt><trkpt lat="39.910595" lon="9.3924133"><ele>921.0</ele><time>2026-04-24T12:37:05.485Z</time></trkpt><trkpt lat="39.9106483" lon="9.3922967"><ele>920.5</ele><time>2026-04-24T12:37:06.484Z</time></trkpt><trkpt lat="39.9107783" lon="9.3920517"><ele>920.0</ele><time>2026-04-24T12:37:08.484Z</time></trkpt><trkpt lat="39.9108483" lon="9.3919183"><ele>919.75</ele><time>2026-04-24T12:37:09.484Z</time></trkpt><trkpt lat="39.910915" lon="9.3917767"><ele>919.5</ele><time>2026-04-24T12:37:10.485Z</time></trkpt><trkpt lat="39.9109767" lon="9.3916483"><ele>919.25</ele><time>2026-04-24T12:37:11.485Z</time></trkpt><trkpt lat="39.9110483" lon="9.39153"><ele>919.0</ele><time>2026-04-24T12:37:12.485Z</time></trkpt><trkpt lat="39.91112" lon="9.391415"><ele>914.75</ele><time>2026-04-24T12:37:13.484Z</time></trkpt><trkpt lat="39.911205" lon="9.3913183"><ele>910.5</ele><time>2026-04-24T12:37:14.485Z</time></trkpt><trkpt lat="39.9113183" lon="9.3912367"><ele>906.25</ele><time>2026-04-24T12:37:15.484Z</time></trkpt><trkpt lat="39.9114267" lon="9.3911633"><ele>902.0</ele><time>2026-04-24T12:37:16.485Z</time></trkpt><trkpt lat="39.91153" lon="9.3911017"><ele>902.0</ele><time>2026-04-24T12:37:17.484Z</time></trkpt><trkpt lat="39.9116417" lon="9.3910433"><ele>902.0</ele><time>2026-04-24T12:37:18.485Z</time></trkpt><trkpt lat="39.9117433" lon="9.3910033"><ele>902.0</ele><time>2026-04-24T12:37:19.485Z</time></trkpt><trkpt lat="39.9118483" lon="9.3909883"><ele>902.0</ele><time>2026-04-24T12:37:20.484Z</time></trkpt><trkpt lat="39.9119533" lon="9.3910067"><ele>902.0</ele><time>2026-04-24T12:37:21.485Z</time></trkpt><trkpt lat="39.91206" lon="9.39106"><ele>902.0</ele><time>2026-04-24T12:37:22.485Z</time></trkpt><trkpt lat="39.91216" lon="9.39113"><ele>902.0</ele><time>2026-04-24T12:37:23.485Z</time></trkpt><trkpt lat="39.9122517" lon="9.3912183"><ele>902.0</ele><time>2026-04-24T12:37:24.485Z</time></trkpt><trkpt lat="39.9123333" lon="9.391315"><ele>902.0</ele><time>2026-04-24T12:37:25.485Z</time></trkpt><trkpt lat="39.9124017" lon="9.391425"><ele>902.0</ele><time>2026-04-24T12:37:26.484Z</time></trkpt><trkpt lat="39.9124517" lon="9.391535"><ele>902.0</ele><time>2026-04-24T12:37:27.485Z</time></trkpt><trkpt lat="39.912485" lon="9.3917483"><ele>902.0</ele><time>2026-04-24T12:37:29.484Z</time></trkpt><trkpt lat="39.912465" lon="9.3918617"><ele>902.0</ele><time>2026-04-24T12:37:30.484Z</time></trkpt><trkpt lat="39.9124133" lon="9.3919683"><ele>902.0</ele><time>2026-04-24T12:37:31.484Z</time></trkpt><trkpt lat="39.91234" lon="9.39207"><ele>901.2</ele><time>2026-04-24T12:37:32.485Z</time></trkpt><trkpt lat="39.9122733" lon="9.3921833"><ele>900.4000000000001</ele><time>2026-04-24T12:37:33.485Z</time></trkpt><trkpt lat="39.9122117" lon="9.3922917"><ele>899.5999999999999</ele><time>2026-04-24T12:37:34.485Z</time></trkpt><trkpt lat="39.9121717" lon="9.3924083"><ele>898.8</ele><time>2026-04-24T12:37:35.484Z</time></trkpt><trkpt lat="39.91216" lon="9.392535"><ele>898.0</ele><time>2026-04-24T12:37:36.484Z</time></trkpt><trkpt lat="39.9121817" lon="9.392655"><ele>898.0</ele><time>2026-04-24T12:37:37.485Z</time></trkpt><trkpt lat="39.9122267" lon="9.3927683"><ele>898.0</ele><time>2026-04-24T12:37:38.485Z</time></trkpt><trkpt lat="39.9122883" lon="9.392875"><ele>898.0</ele><time>2026-04-24T12:37:39.485Z</time></trkpt><trkpt lat="39.9123567" lon="9.3929817"><ele>898.0</ele><time>2026-04-24T12:37:40.484Z</time></trkpt><trkpt lat="39.9124283" lon="9.3930983"><ele>898.0</ele><time>2026-04-24T12:37:41.485Z</time></trkpt><trkpt lat="39.912505" lon="9.393225"><ele>895.75</ele><time>2026-04-24T12:37:42.484Z</time></trkpt><trkpt lat="39.9125833" lon="9.3933567"><ele>893.5</ele><time>2026-04-24T12:37:43.484Z</time></trkpt><trkpt lat="39.9126617" lon="9.3934917"><ele>891.25</ele><time>2026-04-24T12:37:44.485Z</time></trkpt><trkpt lat="39.9127333" lon="9.39361"><ele>889.0</ele><time>2026-04-24T12:37:45.484Z</time></trkpt><trkpt lat="39.91281" lon="9.3937117"><ele>889.0</ele><time>2026-04-24T12:37:46.484Z</time></trkpt><trkpt lat="39.9128867" lon="9.3937967"><ele>889.0</ele><time>2026-04-24T12:37:47.484Z</time></trkpt><trkpt lat="39.9129683" lon="9.3938567"><ele>889.0</ele><time>2026-04-24T12:37:48.485Z</time></trkpt><trkpt lat="39.91315" lon="9.3939"><ele>889.0</ele><time>2026-04-24T12:37:50.484Z</time></trkpt><trkpt lat="39.91325" lon="9.3939033"><ele>888.6</ele><time>2026-04-24T12:37:51.485Z</time></trkpt><trkpt lat="39.9133583" lon="9.3939017"><ele>888.2</ele><time>2026-04-24T12:37:52.484Z</time></trkpt><trkpt lat="39.913465" lon="9.3939067"><ele>887.8000000000001</ele><time>2026-04-24T12:37:53.485Z</time></trkpt><trkpt lat="39.9135717" lon="9.3939367"><ele>887.4000000000001</ele><time>2026-04-24T12:37:54.484Z</time></trkpt><trkpt lat="39.913675" lon="9.3939867"><ele>887.0</ele><time>2026-04-24T12:37:55.485Z</time></trkpt><trkpt lat="39.9137667" lon="9.3940533"><ele>887.0</ele><time>2026-04-24T12:37:56.484Z</time></trkpt><trkpt lat="39.913835" lon="9.394145"><ele>887.0</ele><time>2026-04-24T12:37:57.485Z</time></trkpt><trkpt lat="39.9138817" lon="9.3942633"><ele>887.0</ele><time>2026-04-24T12:37:58.484Z</time></trkpt><trkpt lat="39.913915" lon="9.394395"><ele>887.0</ele><time>2026-04-24T12:37:59.484Z</time></trkpt><trkpt lat="39.9139317" lon="9.3945383"><ele>887.0</ele><time>2026-04-24T12:38:00.484Z</time></trkpt><trkpt lat="39.9139267" lon="9.394695"><ele>886.5</ele><time>2026-04-24T12:38:01.484Z</time></trkpt><trkpt lat="39.9139167" lon="9.3948583"><ele>886.0</ele><time>2026-04-24T12:38:02.485Z</time></trkpt><trkpt lat="39.9139067" lon="9.3950267"><ele>885.5</ele><time>2026-04-24T12:38:03.485Z</time></trkpt><trkpt lat="39.913895" lon="9.39519"><ele>885.0</ele><time>2026-04-24T12:38:04.485Z</time></trkpt><trkpt lat="39.9138817" lon="9.39535"><ele>885.0</ele><time>2026-04-24T12:38:05.484Z</time></trkpt><trkpt lat="39.9138617" lon="9.3954967"><ele>885.0</ele><time>2026-04-24T12:38:06.485Z</time></trkpt><trkpt lat="39.9138367" lon="9.3956367"><ele>885.0</ele><time>2026-04-24T12:38:07.484Z</time></trkpt><trkpt lat="39.9138133" lon="9.3957633"><ele>885.0</ele><time>2026-04-24T12:38:08.485Z</time></trkpt><trkpt lat="39.9138033" lon="9.3958883"><ele>885.0</ele><time>2026-04-24T12:38:09.485Z</time></trkpt><trkpt lat="39.91385" lon="9.3961117"><ele>885.6</ele><time>2026-04-24T12:38:11.485Z</time></trkpt><trkpt lat="39.9139117" lon="9.3962067"><ele>886.2</ele><time>2026-04-24T12:38:12.484Z</time></trkpt><trkpt lat="39.9139917" lon="9.3962783"><ele>886.8</ele><time>2026-04-24T12:38:13.485Z</time></trkpt><trkpt lat="39.914085" lon="9.3963517"><ele>887.4</ele><time>2026-04-24T12:38:14.484Z</time></trkpt><trkpt lat="39.9141733" lon="9.39644"><ele>888.0</ele><time>2026-04-24T12:38:15.485Z</time></trkpt><trkpt lat="39.9142583" lon="9.3965433"><ele>884.75</ele><time>2026-04-24T12:38:16.484Z</time></trkpt><trkpt lat="39.9143367" lon="9.3966567"><ele>881.5</ele><time>2026-04-24T12:38:17.485Z</time></trkpt><trkpt lat="39.914415" lon="9.3967783"><ele>878.25</ele><time>2026-04-24T12:38:18.484Z</time></trkpt><trkpt lat="39.9144883" lon="9.396905"><ele>875.0</ele><time>2026-04-24T12:38:19.485Z</time></trkpt><trkpt lat="39.9145617" lon="9.3970317"><ele>875.0</ele><time>2026-04-24T12:38:20.485Z</time></trkpt><trkpt lat="39.9146317" lon="9.39715"><ele>875.0</ele><time>2026-04-24T12:38:21.484Z</time></trkpt><trkpt lat="39.9147" lon="9.3972667"><ele>875.0</ele><time>2026-04-24T12:38:22.485Z</time></trkpt><trkpt lat="39.91476" lon="9.397385"><ele>875.0</ele><time>2026-04-24T12:38:23.485Z</time></trkpt><trkpt lat="39.9148083" lon="9.39751"><ele>875.0</ele><time>2026-04-24T12:38:24.484Z</time></trkpt><trkpt lat="39.9148417" lon="9.3976517"><ele>877.75</ele><time>2026-04-24T12:38:25.485Z</time></trkpt><trkpt lat="39.9148667" lon="9.3978"><ele>880.5</ele><time>2026-04-24T12:38:26.484Z</time></trkpt><trkpt lat="39.9148833" lon="9.3979533"><ele>883.25</ele><time>2026-04-24T12:38:27.485Z</time></trkpt><trkpt lat="39.9148917" lon="9.3980967"><ele>886.0</ele><time>2026-04-24T12:38:28.484Z</time></trkpt><trkpt lat="39.914905" lon="9.3982433"><ele>888.0</ele><time>2026-04-24T12:38:29.485Z</time></trkpt><trkpt lat="39.91492" lon="9.3983867"><ele>890.0</ele><time>2026-04-24T12:38:30.484Z</time></trkpt><trkpt lat="39.91496" lon="9.3986533"><ele>892.0</ele><time>2026-04-24T12:38:32.484Z</time></trkpt><trkpt lat="39.914995" lon="9.39877"><ele>894.0</ele><time>2026-04-24T12:38:33.484Z</time></trkpt><trkpt lat="39.9150417" lon="9.3988833"><ele>893.0</ele><time>2026-04-24T12:38:34.485Z</time></trkpt><trkpt lat="39.9151067" lon="9.39899"><ele>892.0</ele><time>2026-04-24T12:38:35.484Z</time></trkpt><trkpt lat="39.9151983" lon="9.3990967"><ele>891.0</ele><time>2026-04-24T12:38:36.484Z</time></trkpt><trkpt lat="39.9153" lon="9.39921"><ele>890.0</ele><time>2026-04-24T12:38:37.484Z</time></trkpt><trkpt lat="39.915415" lon="9.3993333"><ele>890.0</ele><time>2026-04-24T12:38:38.484Z</time></trkpt><trkpt lat="39.915525" lon="9.3994583"><ele>890.0</ele><time>2026-04-24T12:38:39.484Z</time></trkpt><trkpt lat="39.9156333" lon="9.39958"><ele>890.0</ele><time>2026-04-24T12:38:40.485Z</time></trkpt><trkpt lat="39.91574" lon="9.3996933"><ele>890.0</ele><time>2026-04-24T12:38:41.485Z</time></trkpt><trkpt lat="39.9158433" lon="9.3998117"><ele>893.25</ele><time>2026-04-24T12:38:42.484Z</time></trkpt><trkpt lat="39.91594" lon="9.3999267"><ele>896.5</ele><time>2026-04-24T12:38:43.485Z</time></trkpt><trkpt lat="39.9160233" lon="9.4000417"><ele>899.75</ele><time>2026-04-24T12:38:44.484Z</time></trkpt><trkpt lat="39.9160967" lon="9.4001567"><ele>903.0</ele><time>2026-04-24T12:38:45.485Z</time></trkpt><trkpt lat="39.9161567" lon="9.4002717"><ele>903.0</ele><time>2026-04-24T12:38:46.485Z</time></trkpt><trkpt lat="39.9162083" lon="9.4003667"><ele>903.0</ele><time>2026-04-24T12:38:47.485Z</time></trkpt><trkpt lat="39.916265" lon="9.4004367"><ele>903.0</ele><time>2026-04-24T12:38:48.484Z</time></trkpt><trkpt lat="39.916335" lon="9.40048"><ele>903.0</ele><time>2026-04-24T12:38:49.485Z</time></trkpt><trkpt lat="39.916415" lon="9.40048"><ele>903.0</ele><time>2026-04-24T12:38:50.485Z</time></trkpt><trkpt lat="39.9164983" lon="9.400425"><ele>903.0</ele><time>2026-04-24T12:38:51.484Z</time></trkpt><trkpt lat="39.9166167" lon="9.4002417"><ele>903.0</ele><time>2026-04-24T12:38:53.484Z</time></trkpt><trkpt lat="39.916645" lon="9.4001217"><ele>903.0</ele><time>2026-04-24T12:38:54.484Z</time></trkpt><trkpt lat="39.9166567" lon="9.399985"><ele>903.0</ele><time>2026-04-24T12:38:55.485Z</time></trkpt><trkpt lat="39.916655" lon="9.3998417"><ele>903.0</ele><time>2026-04-24T12:38:56.485Z</time></trkpt><trkpt lat="39.91665" lon="9.3997"><ele>903.0</ele><time>2026-04-24T12:38:57.485Z</time></trkpt><trkpt lat="39.9166383" lon="9.39955"><ele>904.75</ele><time>2026-04-24T12:38:58.485Z</time></trkpt><trkpt lat="39.916615" lon="9.3993983"><ele>906.5</ele><time>2026-04-24T12:38:59.484Z</time></trkpt><trkpt lat="39.9165767" lon="9.3992517"><ele>908.25</ele><time>2026-04-24T12:39:00.484Z</time></trkpt><trkpt lat="39.9165183" lon="9.399105"><ele>910.0</ele><time>2026-04-24T12:39:01.484Z</time></trkpt><trkpt lat="39.9164517" lon="9.39896"><ele>911.8</ele><time>2026-04-24T12:39:02.484Z</time></trkpt><trkpt lat="39.916395" lon="9.39883"><ele>913.6</ele><time>2026-04-24T12:39:03.485Z</time></trkpt><trkpt lat="39.91634" lon="9.3987033"><ele>915.4000000000001</ele><time>2026-04-24T12:39:04.484Z</time></trkpt><trkpt lat="39.9163017" lon="9.3985767"><ele>917.2</ele><time>2026-04-24T12:39:05.485Z</time></trkpt><trkpt lat="39.9162833" lon="9.3984433"><ele>919.0</ele><time>2026-04-24T12:39:06.485Z</time></trkpt><trkpt lat="39.9162783" lon="9.3983083"><ele>919.0</ele><time>2026-04-24T12:39:07.484Z</time></trkpt><trkpt lat="39.9162983" lon="9.3981667"><ele>919.0</ele><time>2026-04-24T12:39:08.484Z</time></trkpt><trkpt lat="39.9163317" lon="9.3980167"><ele>919.0</ele><time>2026-04-24T12:39:09.485Z</time></trkpt><trkpt lat="39.9163617" lon="9.397855"><ele>919.0</ele><time>2026-04-24T12:39:10.485Z</time></trkpt><trkpt lat="39.9163933" lon="9.3976917"><ele>919.0</ele><time>2026-04-24T12:39:11.484Z</time></trkpt><trkpt lat="39.9164233" lon="9.3975167"><ele>919.0</ele><time>2026-04-24T12:39:12.485Z</time></trkpt><trkpt lat="39.916465" lon="9.3971683"><ele>919.0</ele><time>2026-04-24T12:39:14.484Z</time></trkpt><trkpt lat="39.9164817" lon="9.3970017"><ele>918.0</ele><time>2026-04-24T12:39:15.485Z</time></trkpt><trkpt lat="39.9164967" lon="9.3968517"><ele>917.0</ele><time>2026-04-24T12:39:16.484Z</time></trkpt><trkpt lat="39.916525" lon="9.3967083"><ele>916.0</ele><time>2026-04-24T12:39:17.484Z</time></trkpt><trkpt lat="39.9165633" lon="9.3965733"><ele>915.0</ele><time>2026-04-24T12:39:18.485Z</time></trkpt><trkpt lat="39.9166233" lon="9.3964467"><ele>914.0</ele><time>2026-04-24T12:39:19.484Z</time></trkpt><trkpt lat="39.9167" lon="9.3963333"><ele>913.0</ele><time>2026-04-24T12:39:20.484Z</time></trkpt><trkpt lat="39.9167817" lon="9.396235"><ele>912.0</ele><time>2026-04-24T12:39:21.485Z</time></trkpt><trkpt lat="39.916865" lon="9.3961633"><ele>911.0</ele><time>2026-04-24T12:39:22.484Z</time></trkpt><trkpt lat="39.91695" lon="9.39613"><ele>910.0</ele><time>2026-04-24T12:39:23.485Z</time></trkpt><trkpt lat="39.9170383" lon="9.39612"><ele>910.0</ele><time>2026-04-24T12:39:24.484Z</time></trkpt><trkpt lat="39.9171233" lon="9.3961367"><ele>910.0</ele><time>2026-04-24T12:39:25.484Z</time></trkpt><trkpt lat="39.9172017" lon="9.3961883"><ele>910.0</ele><time>2026-04-24T12:39:26.485Z</time></trkpt><trkpt lat="39.9172733" lon="9.3962767"><ele>910.0</ele><time>2026-04-24T12:39:27.485Z</time></trkpt><trkpt lat="39.917335" lon="9.3963917"><ele>910.0</ele><time>2026-04-24T12:39:28.485Z</time></trkpt><trkpt lat="39.9173983" lon="9.396505"><ele>909.5</ele><time>2026-04-24T12:39:29.485Z</time></trkpt><trkpt lat="39.9174683" lon="9.3966267"><ele>909.0</ele><time>2026-04-24T12:39:30.484Z</time></trkpt><trkpt lat="39.9175383" lon="9.396755"><ele>908.5</ele><time>2026-04-24T12:39:31.484Z</time></trkpt><trkpt lat="39.9176117" lon="9.39688"><ele>908.0</ele><time>2026-04-24T12:39:32.485Z</time></trkpt><trkpt lat="39.9176917" lon="9.39701"><ele>913.0</ele><time>2026-04-24T12:39:33.485Z</time></trkpt><trkpt lat="39.9178567" lon="9.3972617"><ele>918.0</ele><time>2026-04-24T12:39:35.484Z</time></trkpt><trkpt lat="39.9179333" lon="9.3973917"><ele>923.0</ele><time>2026-04-24T12:39:36.485Z</time></trkpt><trkpt lat="39.9180167" lon="9.3975283"><ele>923.0</ele><time>2026-04-24T12:39:37.485Z</time></trkpt><trkpt lat="39.9181" lon="9.3976633"><ele>923.0</ele><time>2026-04-24T12:39:38.485Z</time></trkpt><trkpt lat="39.9181883" lon="9.3978017"><ele>923.0</ele><time>2026-04-24T12:39:39.484Z</time></trkpt><trkpt lat="39.91828" lon="9.3979467"><ele>923.0</ele><time>2026-04-24T12:39:40.485Z</time></trkpt><trkpt lat="39.918375" lon="9.398095"><ele>921.5</ele><time>2026-04-24T12:39:41.485Z</time></trkpt><trkpt lat="39.91847" lon="9.398245"><ele>920.0</ele><time>2026-04-24T12:39:42.484Z</time></trkpt><trkpt lat="39.9185633" lon="9.3984033"><ele>918.5</ele><time>2026-04-24T12:39:43.485Z</time></trkpt><trkpt lat="39.9186617" lon="9.398545"><ele>917.0</ele><time>2026-04-24T12:39:44.484Z</time></trkpt><trkpt lat="39.9187567" lon="9.398695"><ele>921.5</ele><time>2026-04-24T12:39:45.485Z</time></trkpt><trkpt lat="39.9188467" lon="9.3988417"><ele>926.0</ele><time>2026-04-24T12:39:46.485Z</time></trkpt><trkpt lat="39.9189333" lon="9.398985"><ele>930.5</ele><time>2026-04-24T12:39:47.484Z</time></trkpt><trkpt lat="39.9190133" lon="9.3991283"><ele>935.0</ele><time>2026-04-24T12:39:48.484Z</time></trkpt><trkpt lat="39.9190883" lon="9.3992683"><ele>935.0</ele><time>2026-04-24T12:39:49.485Z</time></trkpt><trkpt lat="39.9191583" lon="9.3994083"><ele>935.0</ele><time>2026-04-24T12:39:50.485Z</time></trkpt><trkpt lat="39.9192183" lon="9.39954"><ele>935.0</ele><time>2026-04-24T12:39:51.484Z</time></trkpt><trkpt lat="39.9192683" lon="9.3996633"><ele>935.0</ele><time>2026-04-24T12:39:52.485Z</time></trkpt><trkpt lat="39.9193117" lon="9.399785"><ele>931.3333333333334</ele><time>2026-04-24T12:39:53.484Z</time></trkpt><trkpt lat="39.9193483" lon="9.39991"><ele>927.6666666666667</ele><time>2026-04-24T12:39:54.485Z</time></trkpt><trkpt lat="39.9193817" lon="9.4002083"><ele>924.0</ele><time>2026-04-24T12:39:56.484Z</time></trkpt><trkpt lat="39.919375" lon="9.40037"><ele>923.75</ele><time>2026-04-24T12:39:57.485Z</time></trkpt><trkpt lat="39.91936" lon="9.4005367"><ele>923.5</ele><time>2026-04-24T12:39:58.485Z</time></trkpt><trkpt lat="39.9193483" lon="9.4007083"><ele>923.25</ele><time>2026-04-24T12:39:59.485Z</time></trkpt><trkpt lat="39.9193383" lon="9.4008717"><ele>923.0</ele><time>2026-04-24T12:40:00.484Z</time></trkpt><trkpt lat="39.91933" lon="9.401025"><ele>923.0</ele><time>2026-04-24T12:40:01.484Z</time></trkpt><trkpt lat="39.9193383" lon="9.401175"><ele>923.0</ele><time>2026-04-24T12:40:02.484Z</time></trkpt><trkpt lat="39.9193567" lon="9.4013267"><ele>923.0</ele><time>2026-04-24T12:40:03.484Z</time></trkpt><trkpt lat="39.91938" lon="9.40148"><ele>923.0</ele><time>2026-04-24T12:40:04.485Z</time></trkpt><trkpt lat="39.9194117" lon="9.4016333"><ele>924.75</ele><time>2026-04-24T12:40:05.485Z</time></trkpt><trkpt lat="39.9194467" lon="9.401785"><ele>926.5</ele><time>2026-04-24T12:40:06.484Z</time></trkpt><trkpt lat="39.91949" lon="9.4019367"><ele>928.25</ele><time>2026-04-24T12:40:07.484Z</time></trkpt><trkpt lat="39.9195367" lon="9.402095"><ele>930.0</ele><time>2026-04-24T12:40:08.484Z</time></trkpt><trkpt lat="39.9195833" lon="9.4022667"><ele>933.5</ele><time>2026-04-24T12:40:09.484Z</time></trkpt><trkpt lat="39.91963" lon="9.4024383"><ele>937.0</ele><time>2026-04-24T12:40:10.484Z</time></trkpt><trkpt lat="39.9196867" lon="9.4026117"><ele>940.5</ele><time>2026-04-24T12:40:11.485Z</time></trkpt><trkpt lat="39.9197433" lon="9.402785"><ele>944.0</ele><time>2026-04-24T12:40:12.485Z</time></trkpt><trkpt lat="39.9198033" lon="9.402965"><ele>948.6666666666667</ele><time>2026-04-24T12:40:13.484Z</time></trkpt><trkpt lat="39.9198683" lon="9.4031383"><ele>953.3333333333333</ele><time>2026-04-24T12:40:14.484Z</time></trkpt><trkpt lat="39.91994" lon="9.403315"><ele>958.0</ele><time>2026-04-24T12:40:15.485Z</time></trkpt><trkpt lat="39.9200867" lon="9.4036717"><ele>954.5</ele><time>2026-04-24T12:40:17.484Z</time></trkpt><trkpt lat="39.92015" lon="9.4038317"><ele>951.0</ele><time>2026-04-24T12:40:18.484Z</time></trkpt><trkpt lat="39.9202117" lon="9.4039833"><ele>947.5</ele><time>2026-04-24T12:40:19.484Z</time></trkpt><trkpt lat="39.9202717" lon="9.4041217"><ele>944.0</ele><time>2026-04-24T12:40:20.485Z</time></trkpt><trkpt lat="39.9203217" lon="9.4042483"><ele>944.0</ele><time>2026-04-24T12:40:21.484Z</time></trkpt><trkpt lat="39.9203667" lon="9.40438"><ele>944.0</ele><time>2026-04-24T12:40:22.485Z</time></trkpt><trkpt lat="39.9203983" lon="9.40452"><ele>944.0</ele><time>2026-04-24T12:40:23.485Z</time></trkpt><trkpt lat="39.92041" lon="9.404665"><ele>944.0</ele><time>2026-04-24T12:40:24.485Z</time></trkpt><trkpt lat="39.920395" lon="9.4048167"><ele>944.25</ele><time>2026-04-24T12:40:25.484Z</time></trkpt><trkpt lat="39.920365" lon="9.4049717"><ele>944.5</ele><time>2026-04-24T12:40:26.484Z</time></trkpt><trkpt lat="39.9203217" lon="9.4051233"><ele>944.75</ele><time>2026-04-24T12:40:27.484Z</time></trkpt><trkpt lat="39.92028" lon="9.4052617"><ele>945.0</ele><time>2026-04-24T12:40:28.485Z</time></trkpt><trkpt lat="39.9202333" lon="9.40539"><ele>942.25</ele><time>2026-04-24T12:40:29.485Z</time></trkpt><trkpt lat="39.92017" lon="9.4055067"><ele>939.5</ele><time>2026-04-24T12:40:30.484Z</time></trkpt><trkpt lat="39.9200917" lon="9.405615"><ele>936.75</ele><time>2026-04-24T12:40:31.485Z</time></trkpt><trkpt lat="39.9199983" lon="9.4057183"><ele>934.0</ele><time>2026-04-24T12:40:32.484Z</time></trkpt><trkpt lat="39.9199033" lon="9.4058267"><ele>939.75</ele><time>2026-04-24T12:40:33.485Z</time></trkpt><trkpt lat="39.91982" lon="9.4059283"><ele>945.5</ele><time>2026-04-24T12:40:34.484Z</time></trkpt><trkpt lat="39.9197517" lon="9.40604"><ele>951.25</ele><time>2026-04-24T12:40:35.484Z</time></trkpt><trkpt lat="39.9197017" lon="9.4061717"><ele>957.0</ele><time>2026-04-24T12:40:36.485Z</time></trkpt><trkpt lat="39.91964" lon="9.4064683"><ele>957.0</ele><time>2026-04-24T12:40:38.485Z</time></trkpt><trkpt lat="39.9196183" lon="9.4066333"><ele>957.0</ele><time>2026-04-24T12:40:39.485Z</time></trkpt><trkpt lat="39.9195917" lon="9.4068083"><ele>957.0</ele><time>2026-04-24T12:40:40.484Z</time></trkpt><trkpt lat="39.9195683" lon="9.4069817"><ele>957.0</ele><time>2026-04-24T12:40:41.485Z</time></trkpt><trkpt lat="39.9195333" lon="9.407165"><ele>954.6666666666667</ele><time>2026-04-24T12:40:42.484Z</time></trkpt><trkpt lat="39.9195033" lon="9.4073533"><ele>952.3333333333334</ele><time>2026-04-24T12:40:43.484Z</time></trkpt><trkpt lat="39.919465" lon="9.4075467"><ele>950.0</ele><time>2026-04-24T12:40:44.484Z</time></trkpt><trkpt lat="39.91942" lon="9.407735"><ele>950.0</ele><time>2026-04-24T12:40:45.485Z</time></trkpt><trkpt lat="39.9193667" lon="9.4079217"><ele>950.0</ele><time>2026-04-24T12:40:46.484Z</time></trkpt><trkpt lat="39.9193217" lon="9.4081083"><ele>950.0</ele><time>2026-04-24T12:40:47.484Z</time></trkpt><trkpt lat="39.9192867" lon="9.4083"><ele>947.75</ele><time>2026-04-24T12:40:48.485Z</time></trkpt><trkpt lat="39.9192567" lon="9.4084933"><ele>945.5</ele><time>2026-04-24T12:40:49.484Z</time></trkpt><trkpt lat="39.9192283" lon="9.4086783"><ele>943.25</ele><time>2026-04-24T12:40:50.484Z</time></trkpt><trkpt lat="39.9191983" lon="9.408855"><ele>941.0</ele><time>2026-04-24T12:40:51.485Z</time></trkpt><trkpt lat="39.919165" lon="9.4090317"><ele>947.5</ele><time>2026-04-24T12:40:52.484Z</time></trkpt><trkpt lat="39.9191217" lon="9.409205"><ele>954.0</ele><time>2026-04-24T12:40:53.485Z</time></trkpt><trkpt lat="39.9190717" lon="9.4093867"><ele>960.5</ele><time>2026-04-24T12:40:54.484Z</time></trkpt><trkpt lat="39.91901" lon="9.40956"><ele>967.0</ele><time>2026-04-24T12:40:55.485Z</time></trkpt><trkpt lat="39.91895" lon="9.4097267"><ele>967.0</ele><time>2026-04-24T12:40:56.484Z</time></trkpt><trkpt lat="39.9188983" lon="9.40989"><ele>967.0</ele><time>2026-04-24T12:40:57.484Z</time></trkpt><trkpt lat="39.9188383" lon="9.4102633"><ele>967.0</ele><time>2026-04-24T12:40:59.485Z</time></trkpt><trkpt lat="39.91883" lon="9.4104567"><ele>967.3333333333333</ele><time>2026-04-24T12:41:00.484Z</time></trkpt><trkpt lat="39.9188267" lon="9.4106567"><ele>967.6666666666667</ele><time>2026-04-24T12:41:01.485Z</time></trkpt><trkpt lat="39.9188233" lon="9.4108633"><ele>968.0</ele><time>2026-04-24T12:41:02.485Z</time></trkpt><trkpt lat="39.9188217" lon="9.4110633"><ele>968.0</ele><time>2026-04-24T12:41:03.485Z</time></trkpt><trkpt lat="39.91882" lon="9.4112467"><ele>968.0</ele><time>2026-04-24T12:41:04.485Z</time></trkpt><trkpt lat="39.9188167" lon="9.4114283"><ele>968.0</ele><time>2026-04-24T12:41:05.485Z</time></trkpt><trkpt lat="39.9188067" lon="9.4116"><ele>968.0</ele><time>2026-04-24T12:41:06.484Z</time></trkpt><trkpt lat="39.9188017" lon="9.4117717"><ele>970.0</ele><time>2026-04-24T12:41:07.484Z</time></trkpt><trkpt lat="39.9188" lon="9.4119417"><ele>972.0</ele><time>2026-04-24T12:41:08.485Z</time></trkpt><trkpt lat="39.91879" lon="9.4121033"><ele>974.0</ele><time>2026-04-24T12:41:09.484Z</time></trkpt><trkpt lat="39.9187783" lon="9.4122567"><ele>976.0</ele><time>2026-04-24T12:41:10.485Z</time></trkpt><trkpt lat="39.91877" lon="9.4124133"><ele>976.9999999999999</ele><time>2026-04-24T12:41:11.484Z</time></trkpt><trkpt lat="39.91877" lon="9.4125567"><ele>978.0</ele><time>2026-04-24T12:41:12.485Z</time></trkpt><trkpt lat="39.91878" lon="9.4126783"><ele>979.0</ele><time>2026-04-24T12:41:13.484Z</time></trkpt><trkpt lat="39.9188" lon="9.412775"><ele>980.0</ele><time>2026-04-24T12:41:14.484Z</time></trkpt><trkpt lat="39.9188483" lon="9.4128517"><ele>980.9999999999999</ele><time>2026-04-24T12:41:15.484Z</time></trkpt><trkpt lat="39.91892" lon="9.41292"><ele>982.0</ele><time>2026-04-24T12:41:16.484Z</time></trkpt><trkpt lat="39.9190183" lon="9.4129617"><ele>982.0</ele><time>2026-04-24T12:41:17.484Z</time></trkpt><trkpt lat="39.9191483" lon="9.4129517"><ele>982.0</ele><time>2026-04-24T12:41:18.484Z</time></trkpt><trkpt lat="39.9194267" lon="9.4129117"><ele>982.0</ele><time>2026-04-24T12:41:20.485Z</time></trkpt><trkpt lat="39.91958" lon="9.4128917"><ele>978.3333333333333</ele><time>2026-04-24T12:41:21.484Z</time></trkpt><trkpt lat="39.91974" lon="9.412875"><ele>974.6666666666667</ele><time>2026-04-24T12:41:22.484Z</time></trkpt><trkpt lat="39.9198983" lon="9.4128617"><ele>971.0</ele><time>2026-04-24T12:41:23.484Z</time></trkpt><trkpt lat="39.9200517" lon="9.4128467"><ele>970.5</ele><time>2026-04-24T12:41:24.485Z</time></trkpt><trkpt lat="39.9202017" lon="9.4128333"><ele>970.0</ele><time>2026-04-24T12:41:25.484Z</time></trkpt><trkpt lat="39.9203367" lon="9.4128217"><ele>969.5</ele><time>2026-04-24T12:41:26.484Z</time></trkpt><trkpt lat="39.9204583" lon="9.412815"><ele>969.0</ele><time>2026-04-24T12:41:27.484Z</time></trkpt><trkpt lat="39.9205783" lon="9.4128033"><ele>969.0</ele><time>2026-04-24T12:41:28.484Z</time></trkpt><trkpt lat="39.9206967" lon="9.4127867"><ele>969.0</ele><time>2026-04-24T12:41:29.485Z</time></trkpt><trkpt lat="39.9208033" lon="9.4127617"><ele>969.0</ele><time>2026-04-24T12:41:30.484Z</time></trkpt><trkpt lat="39.92091" lon="9.4127183"><ele>969.0</ele><time>2026-04-24T12:41:31.484Z</time></trkpt><trkpt lat="39.9210233" lon="9.4126633"><ele>969.75</ele><time>2026-04-24T12:41:32.485Z</time></trkpt><trkpt lat="39.9211383" lon="9.4126"><ele>970.5</ele><time>2026-04-24T12:41:33.485Z</time></trkpt><trkpt lat="39.92125" lon="9.4125333"><ele>971.25</ele><time>2026-04-24T12:41:34.485Z</time></trkpt><trkpt lat="39.921355" lon="9.41247"><ele>972.0</ele><time>2026-04-24T12:41:35.484Z</time></trkpt><trkpt lat="39.9214633" lon="9.412405"><ele>972.0</ele><time>2026-04-24T12:41:36.485Z</time></trkpt><trkpt lat="39.9215767" lon="9.4123383"><ele>972.0</ele><time>2026-04-24T12:41:37.485Z</time></trkpt><trkpt lat="39.9216917" lon="9.4122717"><ele>972.0</ele><time>2026-04-24T12:41:38.484Z</time></trkpt><trkpt lat="39.9218083" lon="9.4122033"><ele>972.0</ele><time>2026-04-24T12:41:39.484Z</time></trkpt><trkpt lat="39.9220383" lon="9.41207"><ele>966.5</ele><time>2026-04-24T12:41:41.485Z</time></trkpt><trkpt lat="39.9221567" lon="9.412"><ele>961.0</ele><time>2026-04-24T12:41:42.485Z</time></trkpt><trkpt lat="39.9222733" lon="9.4119267"><ele>955.5</ele><time>2026-04-24T12:41:43.485Z</time></trkpt><trkpt lat="39.92239" lon="9.411855"><ele>950.0</ele><time>2026-04-24T12:41:44.485Z</time></trkpt><trkpt lat="39.9225" lon="9.4117883"><ele>949.6</ele><time>2026-04-24T12:41:45.485Z</time></trkpt><trkpt lat="39.922605" lon="9.4117317"><ele>949.2</ele><time>2026-04-24T12:41:46.485Z</time></trkpt><trkpt lat="39.9226967" lon="9.4116733"><ele>948.8</ele><time>2026-04-24T12:41:47.485Z</time></trkpt><trkpt lat="39.9227867" lon="9.41163"><ele>948.4</ele><time>2026-04-24T12:41:48.485Z</time></trkpt><trkpt lat="39.922885" lon="9.4116067"><ele>948.0</ele><time>2026-04-24T12:41:49.485Z</time></trkpt><trkpt lat="39.9229883" lon="9.4116117"><ele>948.0</ele><time>2026-04-24T12:41:50.484Z</time></trkpt><trkpt lat="39.92309" lon="9.41163"><ele>948.0</ele><time>2026-04-24T12:41:51.484Z</time></trkpt><trkpt lat="39.9231983" lon="9.4116667"><ele>948.0</ele><time>2026-04-24T12:41:52.485Z</time></trkpt><trkpt lat="39.9232867" lon="9.4117117"><ele>948.0</ele><time>2026-04-24T12:41:53.484Z</time></trkpt><trkpt lat="39.9233717" lon="9.41177"><ele>948.0</ele><time>2026-04-24T12:41:54.485Z</time></trkpt><trkpt lat="39.9234417" lon="9.4118167"><ele>946.5999999999999</ele><time>2026-04-24T12:41:55.485Z</time></trkpt><trkpt lat="39.9235083" lon="9.4118567"><ele>945.1999999999999</ele><time>2026-04-24T12:41:56.485Z</time></trkpt><trkpt lat="39.9235633" lon="9.4118967"><ele>943.8</ele><time>2026-04-24T12:41:57.484Z</time></trkpt><trkpt lat="39.9236433" lon="9.41195"><ele>942.4</ele><time>2026-04-24T12:41:59.484Z</time></trkpt><trkpt lat="39.9236167" lon="9.41186"><ele>941.0</ele><time>2026-04-24T12:42:12.484Z</time></trkpt><trkpt lat="39.9234333" lon="9.4117917"><ele>941.0000000000001</ele><time>2026-04-24T12:42:16.484Z</time></trkpt><trkpt lat="39.9233783" lon="9.4117417"><ele>941.0</ele><time>2026-04-24T12:42:18.484Z</time></trkpt><trkpt lat="39.9233217" lon="9.4117883"><ele>941.0</ele><time>2026-04-24T12:42:24.485Z</time></trkpt><trkpt lat="39.923345" lon="9.4118717"><ele>941.0</ele><time>2026-04-24T12:42:26.485Z</time></trkpt><trkpt lat="39.9233983" lon="9.4119433"><ele>941.0000000000001</ele><time>2026-04-24T12:42:28.485Z</time></trkpt><trkpt lat="39.9234633" lon="9.411995"><ele>941.0</ele><time>2026-04-24T12:42:30.484Z</time></trkpt><trkpt lat="39.9234783" lon="9.412125"><ele>946.0</ele><time>2026-04-24T12:42:33.485Z</time></trkpt><trkpt lat="39.92348" lon="9.4123717"><ele>951.0</ele><time>2026-04-24T12:42:37.484Z</time></trkpt><trkpt lat="39.9234683" lon="9.4125267"><ele>956.0</ele><time>2026-04-24T12:42:39.484Z</time></trkpt><trkpt lat="39.923425" lon="9.4126667"><ele>961.0</ele><time>2026-04-24T12:42:41.484Z</time></trkpt><trkpt lat="39.9233967" lon="9.4127783"><ele>961.0</ele><time>2026-04-24T12:42:43.485Z</time></trkpt><trkpt lat="39.9234267" lon="9.41286"><ele>960.9999999999999</ele><time>2026-04-24T12:42:45.484Z</time></trkpt><trkpt lat="39.9235183" lon="9.4128483"><ele>960.9999999999999</ele><time>2026-04-24T12:42:48.485Z</time></trkpt><trkpt lat="39.9235967" lon="9.4127867"><ele>961.0</ele><time>2026-04-24T12:42:50.484Z</time></trkpt><trkpt lat="39.9237083" lon="9.412705"><ele>961.0</ele><time>2026-04-24T12:42:52.484Z</time></trkpt><trkpt lat="39.92381" lon="9.4126683"><ele>961.0</ele><time>2026-04-24T12:42:54.485Z</time></trkpt><trkpt lat="39.92404" lon="9.4127067"><ele>961.0</ele><time>2026-04-24T12:42:58.485Z</time></trkpt><trkpt lat="39.9241217" lon="9.41273"><ele>961.0</ele><time>2026-04-24T12:43:00.485Z</time></trkpt><trkpt lat="39.9242" lon="9.4127533"><ele>961.0</ele><time>2026-04-24T12:43:03.484Z</time></trkpt><trkpt lat="39.9242733" lon="9.4128083"><ele>960.4</ele><time>2026-04-24T12:43:06.485Z</time></trkpt><trkpt lat="39.92434" lon="9.4128667"><ele>959.8</ele><time>2026-04-24T12:43:09.485Z</time></trkpt><trkpt lat="39.9243917" lon="9.4129167"><ele>959.1999999999999</ele><time>2026-04-24T12:43:14.485Z</time></trkpt><trkpt lat="39.9244483" lon="9.4129533"><ele>958.5999999999999</ele><time>2026-04-24T12:43:17.485Z</time></trkpt><trkpt lat="39.9245967" lon="9.4130483"><ele>958.0</ele><time>2026-04-24T12:43:25.484Z</time></trkpt><trkpt lat="39.924665" lon="9.4130967"><ele>959.9999999999999</ele><time>2026-04-24T12:43:27.484Z</time></trkpt><trkpt lat="39.9247433" lon="9.413155"><ele>962.0</ele><time>2026-04-24T12:43:29.485Z</time></trkpt><trkpt lat="39.92481" lon="9.4131983"><ele>964.0</ele><time>2026-04-24T12:43:31.484Z</time></trkpt><trkpt lat="39.9248733" lon="9.4132533"><ele>966.0</ele><time>2026-04-24T12:43:33.485Z</time></trkpt><trkpt lat="39.9249383" lon="9.4133067"><ele>967.9999999999999</ele><time>2026-04-24T12:43:35.484Z</time></trkpt><trkpt lat="39.9250217" lon="9.413345"><ele>970.0</ele><time>2026-04-24T12:43:37.485Z</time></trkpt><trkpt lat="39.9250967" lon="9.4133683"><ele>970.0</ele><time>2026-04-24T12:43:40.484Z</time></trkpt><trkpt lat="39.9253167" lon="9.4135283"><ele>970.0</ele><time>2026-04-24T12:44:45.485Z</time></trkpt><trkpt lat="39.9253633" lon="9.4136"><ele>970.0</ele><time>2026-04-24T12:44:47.485Z</time></trkpt><trkpt lat="39.9253917" lon="9.413675"><ele>970.0</ele><time>2026-04-24T12:44:49.485Z</time></trkpt><trkpt lat="39.925445" lon="9.4137783"><ele>972.9999999999999</ele><time>2026-04-24T12:44:51.485Z</time></trkpt><trkpt lat="39.92551" lon="9.4138667"><ele>976.0</ele><time>2026-04-24T12:44:53.484Z</time></trkpt><trkpt lat="39.9255583" lon="9.41392"><ele>979.0</ele><time>2026-04-24T12:44:55.484Z</time></trkpt><trkpt lat="39.9256017" lon="9.4139933"><ele>982.0</ele><time>2026-04-24T12:44:57.484Z</time></trkpt><trkpt lat="39.9256133" lon="9.414125"><ele>984.9999999999999</ele><time>2026-04-24T12:44:59.485Z</time></trkpt><trkpt lat="39.92556" lon="9.41422"><ele>988.0</ele><time>2026-04-24T12:45:01.485Z</time></trkpt><trkpt lat="39.9254633" lon="9.41426"><ele>988.0</ele><time>2026-04-24T12:45:03.485Z</time></trkpt><trkpt lat="39.925265" lon="9.414265"><ele>988.0</ele><time>2026-04-24T12:45:06.484Z</time></trkpt><trkpt lat="39.9251867" lon="9.4142733"><ele>988.0</ele><time>2026-04-24T12:45:07.484Z</time></trkpt><trkpt lat="39.92511" lon="9.4142733"><ele>988.0</ele><time>2026-04-24T12:45:08.485Z</time></trkpt><trkpt lat="39.92504" lon="9.4142683"><ele>988.0</ele><time>2026-04-24T12:45:09.485Z</time></trkpt><trkpt lat="39.9249717" lon="9.4142583"><ele>991.2</ele><time>2026-04-24T12:45:10.484Z</time></trkpt><trkpt lat="39.9248467" lon="9.414245"><ele>994.4</ele><time>2026-04-24T12:45:12.484Z</time></trkpt><trkpt lat="39.9247333" lon="9.4142933"><ele>997.6000000000001</ele><time>2026-04-24T12:45:14.484Z</time></trkpt><trkpt lat="39.92467" lon="9.4143217"><ele>1000.8000000000001</ele><time>2026-04-24T12:45:15.484Z</time></trkpt><trkpt lat="39.9245967" lon="9.4143483"><ele>1004.0</ele><time>2026-04-24T12:45:16.485Z</time></trkpt><trkpt lat="39.924535" lon="9.4143867"><ele>1004.0</ele><time>2026-04-24T12:45:17.484Z</time></trkpt><trkpt lat="39.92445" lon="9.414475"><ele>1004.0000000000001</ele><time>2026-04-24T12:45:19.484Z</time></trkpt><trkpt lat="39.9244117" lon="9.4145883"><ele>1004.0000000000001</ele><time>2026-04-24T12:45:21.484Z</time></trkpt><trkpt lat="39.924405" lon="9.4147167"><ele>1004.0</ele><time>2026-04-24T12:45:23.484Z</time></trkpt><trkpt lat="39.92439" lon="9.4148567"><ele>1004.0</ele><time>2026-04-24T12:45:25.484Z</time></trkpt><trkpt lat="39.9243233" lon="9.4150833"><ele>1003.5000000000001</ele><time>2026-04-24T12:45:28.484Z</time></trkpt><trkpt lat="39.924295" lon="9.4151683"><ele>1003.0</ele><time>2026-04-24T12:45:29.484Z</time></trkpt><trkpt lat="39.924265" lon="9.41525"><ele>1002.5</ele><time>2026-04-24T12:45:30.484Z</time></trkpt><trkpt lat="39.924235" lon="9.4153383"><ele>1002.0</ele><time>2026-04-24T12:45:31.484Z</time></trkpt><trkpt lat="39.924205" lon="9.415445"><ele>1001.5000000000001</ele><time>2026-04-24T12:45:32.484Z</time></trkpt><trkpt lat="39.9241667" lon="9.4155517"><ele>1001.0</ele><time>2026-04-24T12:45:33.484Z</time></trkpt><trkpt lat="39.92413" lon="9.4156533"><ele>1005.8333333333334</ele><time>2026-04-24T12:45:34.485Z</time></trkpt><trkpt lat="39.9240883" lon="9.415765"><ele>1010.6666666666667</ele><time>2026-04-24T12:45:35.485Z</time></trkpt><trkpt lat="39.9240367" lon="9.4158767"><ele>1015.5</ele><time>2026-04-24T12:45:36.484Z</time></trkpt><trkpt lat="39.923985" lon="9.4159783"><ele>1020.3333333333333</ele><time>2026-04-24T12:45:37.485Z</time></trkpt><trkpt lat="39.9239367" lon="9.4160683"><ele>1025.1666666666665</ele><time>2026-04-24T12:45:38.484Z</time></trkpt><trkpt lat="39.923895" lon="9.41614"><ele>1030.0</ele><time>2026-04-24T12:45:39.484Z</time></trkpt><trkpt lat="39.9238683" lon="9.4162217"><ele>1030.0</ele><time>2026-04-24T12:45:40.485Z</time></trkpt><trkpt lat="39.92386" lon="9.4163083"><ele>1030.0</ele><time>2026-04-24T12:45:41.485Z</time></trkpt><trkpt lat="39.923855" lon="9.4164033"><ele>1030.0</ele><time>2026-04-24T12:45:42.484Z</time></trkpt><trkpt lat="39.9238567" lon="9.4164983"><ele>1030.0</ele><time>2026-04-24T12:45:43.485Z</time></trkpt><trkpt lat="39.923855" lon="9.4165917"><ele>1030.0</ele><time>2026-04-24T12:45:44.484Z</time></trkpt><trkpt lat="39.9238633" lon="9.4167417"><ele>1030.0</ele><time>2026-04-24T12:45:46.484Z</time></trkpt><trkpt lat="39.9239417" lon="9.4169983"><ele>1030.6666666666665</ele><time>2026-04-24T12:45:50.484Z</time></trkpt><trkpt lat="39.92398" lon="9.4170733"><ele>1031.3333333333333</ele><time>2026-04-24T12:45:51.485Z</time></trkpt><trkpt lat="39.9240133" lon="9.4171483"><ele>1032.0</ele><time>2026-04-24T12:45:52.485Z</time></trkpt><trkpt lat="39.924055" lon="9.4172983"><ele>1032.6666666666667</ele><time>2026-04-24T12:45:54.484Z</time></trkpt><trkpt lat="39.924065" lon="9.4173833"><ele>1033.3333333333335</ele><time>2026-04-24T12:45:55.484Z</time></trkpt><trkpt lat="39.9240783" lon="9.417475"><ele>1034.0</ele><time>2026-04-24T12:45:56.485Z</time></trkpt><trkpt lat="39.9240867" lon="9.4176283"><ele>1036.2</ele><time>2026-04-24T12:45:58.484Z</time></trkpt><trkpt lat="39.924065" lon="9.417775"><ele>1038.4</ele><time>2026-04-24T12:46:00.485Z</time></trkpt><trkpt lat="39.9240467" lon="9.4178583"><ele>1040.6</ele><time>2026-04-24T12:46:01.485Z</time></trkpt><trkpt lat="39.924025" lon="9.4180133"><ele>1042.8</ele><time>2026-04-24T12:46:03.484Z</time></trkpt><trkpt lat="39.92401" lon="9.4180933"><ele>1045.0</ele><time>2026-04-24T12:46:04.485Z</time></trkpt><trkpt lat="39.92398" lon="9.4182233"><ele>1046.6</ele><time>2026-04-24T12:46:06.484Z</time></trkpt><trkpt lat="39.9239733" lon="9.4183217"><ele>1048.2</ele><time>2026-04-24T12:46:08.485Z</time></trkpt><trkpt lat="39.9240433" lon="9.4184867"><ele>1049.8</ele><time>2026-04-24T12:46:12.485Z</time></trkpt><trkpt lat="39.9240667" lon="9.418585"><ele>1051.4</ele><time>2026-04-24T12:46:14.484Z</time></trkpt><trkpt lat="39.9240883" lon="9.4186917"><ele>1053.0</ele><time>2026-04-24T12:46:16.484Z</time></trkpt><trkpt lat="39.924115" lon="9.4188083"><ele>1056.25</ele><time>2026-04-24T12:46:18.484Z</time></trkpt><trkpt lat="39.9241467" lon="9.4189417"><ele>1059.5</ele><time>2026-04-24T12:46:20.485Z</time></trkpt><trkpt lat="39.9241667" lon="9.4190783"><ele>1062.75</ele><time>2026-04-24T12:46:22.485Z</time></trkpt><trkpt lat="39.92416" lon="9.4192283"><ele>1066.0</ele><time>2026-04-24T12:46:24.484Z</time></trkpt><trkpt lat="39.9241667" lon="9.41939"><ele>1066.0</ele><time>2026-04-24T12:46:26.484Z</time></trkpt><trkpt lat="39.9241733" lon="9.4195517"><ele>1066.0</ele><time>2026-04-24T12:46:28.485Z</time></trkpt><trkpt lat="39.92418" lon="9.419645"><ele>1066.0</ele><time>2026-04-24T12:46:29.484Z</time></trkpt><trkpt lat="39.9241967" lon="9.4198467"><ele>1066.0</ele><time>2026-04-24T12:46:31.485Z</time></trkpt><trkpt lat="39.924205" lon="9.4199367"><ele>1066.0</ele><time>2026-04-24T12:46:32.485Z</time></trkpt><trkpt lat="39.9242083" lon="9.4200833"><ele>1064.3999999999999</ele><time>2026-04-24T12:46:34.484Z</time></trkpt><trkpt lat="39.9242117" lon="9.4202033"><ele>1062.8</ele><time>2026-04-24T12:46:36.485Z</time></trkpt><trkpt lat="39.9242583" lon="9.4202933"><ele>1061.1999999999998</ele><time>2026-04-24T12:46:38.485Z</time></trkpt><trkpt lat="39.924305" lon="9.4203983"><ele>1059.6</ele><time>2026-04-24T12:46:40.484Z</time></trkpt><trkpt lat="39.9243217" lon="9.4205333"><ele>1058.0</ele><time>2026-04-24T12:46:42.484Z</time></trkpt><trkpt lat="39.9243333" lon="9.4206483"><ele>1063.8</ele><time>2026-04-24T12:46:44.485Z</time></trkpt><trkpt lat="39.9243783" lon="9.4207117"><ele>1069.6</ele><time>2026-04-24T12:46:46.484Z</time></trkpt><trkpt lat="39.92446" lon="9.42077"><ele>1075.4</ele><time>2026-04-24T12:46:49.484Z</time></trkpt><trkpt lat="39.9245183" lon="9.42082"><ele>1081.2</ele><time>2026-04-24T12:46:51.484Z</time></trkpt><trkpt lat="39.9246533" lon="9.4209833"><ele>1087.0</ele><time>2026-04-24T12:46:55.485Z</time></trkpt><trkpt lat="39.9247367" lon="9.4209767"><ele>1087.0</ele><time>2026-04-24T12:46:57.484Z</time></trkpt><trkpt lat="39.924845" lon="9.42094"><ele>1087.0</ele><time>2026-04-24T12:46:59.484Z</time></trkpt><trkpt lat="39.9249567" lon="9.4209017"><ele>1087.0</ele><time>2026-04-24T12:47:01.484Z</time></trkpt><trkpt lat="39.925075" lon="9.4209133"><ele>1087.0</ele><time>2026-04-24T12:47:03.485Z</time></trkpt><trkpt lat="39.9251467" lon="9.4209383"><ele>1087.0</ele><time>2026-04-24T12:47:04.485Z</time></trkpt><trkpt lat="39.9252133" lon="9.4209567"><ele>1087.5</ele><time>2026-04-24T12:47:05.485Z</time></trkpt><trkpt lat="39.92532" lon="9.4209817"><ele>1088.0</ele><time>2026-04-24T12:47:07.484Z</time></trkpt><trkpt lat="39.9254383" lon="9.42096"><ele>1088.5</ele><time>2026-04-24T12:47:09.484Z</time></trkpt><trkpt lat="39.92551" lon="9.4209683"><ele>1089.0</ele><time>2026-04-24T12:47:10.484Z</time></trkpt><trkpt lat="39.9255783" lon="9.420985"><ele>1089.5</ele><time>2026-04-24T12:47:11.485Z</time></trkpt><trkpt lat="39.9256533" lon="9.4210017"><ele>1090.0</ele><time>2026-04-24T12:47:12.484Z</time></trkpt><trkpt lat="39.9258" lon="9.42102"><ele>1090.0</ele><time>2026-04-24T12:47:14.484Z</time></trkpt><trkpt lat="39.9258933" lon="9.4210283"><ele>1090.0</ele><time>2026-04-24T12:47:15.484Z</time></trkpt><trkpt lat="39.9259817" lon="9.4210383"><ele>1090.0</ele><time>2026-04-24T12:47:16.484Z</time></trkpt><trkpt lat="39.92605" lon="9.4210383"><ele>1090.0</ele><time>2026-04-24T12:47:17.484Z</time></trkpt><trkpt lat="39.92615" lon="9.4210483"><ele>1090.0</ele><time>2026-04-24T12:47:19.485Z</time></trkpt><trkpt lat="39.9262517" lon="9.4210333"><ele>1091.6</ele><time>2026-04-24T12:47:21.485Z</time></trkpt><trkpt lat="39.9263533" lon="9.420995"><ele>1093.2</ele><time>2026-04-24T12:47:23.484Z</time></trkpt><trkpt lat="39.9264467" lon="9.42095"><ele>1094.8</ele><time>2026-04-24T12:47:25.484Z</time></trkpt><trkpt lat="39.9265317" lon="9.4209433"><ele>1096.4</ele><time>2026-04-24T12:47:28.484Z</time></trkpt><trkpt lat="39.92653" lon="9.4210333"><ele>1098.0</ele><time>2026-04-24T12:47:31.484Z</time></trkpt><trkpt lat="39.9264683" lon="9.42114"><ele>1097.25</ele><time>2026-04-24T12:47:33.484Z</time></trkpt><trkpt lat="39.9263733" lon="9.42134"><ele>1096.5</ele><time>2026-04-24T12:47:36.484Z</time></trkpt><trkpt lat="39.9263083" lon="9.4214533"><ele>1095.75</ele><time>2026-04-24T12:47:38.484Z</time></trkpt><trkpt lat="39.92622" lon="9.4215333"><ele>1095.0</ele><time>2026-04-24T12:47:40.484Z</time></trkpt><trkpt lat="39.926165" lon="9.4215783"><ele>1095.0</ele><time>2026-04-24T12:47:42.485Z</time></trkpt><trkpt lat="39.92612" lon="9.4216533"><ele>1095.0</ele><time>2026-04-24T12:47:44.485Z</time></trkpt><trkpt lat="39.9260883" lon="9.42175"><ele>1095.0</ele><time>2026-04-24T12:47:46.485Z</time></trkpt><trkpt lat="39.92603" lon="9.4218617"><ele>1095.0</ele><time>2026-04-24T12:47:48.484Z</time></trkpt><trkpt lat="39.9259733" lon="9.4219833"><ele>1095.0</ele><time>2026-04-24T12:47:50.484Z</time></trkpt><trkpt lat="39.9259333" lon="9.4220867"><ele>1098.8</ele><time>2026-04-24T12:47:52.485Z</time></trkpt><trkpt lat="39.9258817" lon="9.42221"><ele>1102.6</ele><time>2026-04-24T12:47:54.485Z</time></trkpt><trkpt lat="39.9258283" lon="9.4223833"><ele>1106.4</ele><time>2026-04-24T12:47:56.485Z</time></trkpt><trkpt lat="39.9257983" lon="9.42248"><ele>1110.2</ele><time>2026-04-24T12:47:57.485Z</time></trkpt><trkpt lat="39.9257717" lon="9.422585"><ele>1114.0</ele><time>2026-04-24T12:47:58.484Z</time></trkpt><trkpt lat="39.9257467" lon="9.4226917"><ele>1114.0</ele><time>2026-04-24T12:47:59.484Z</time></trkpt><trkpt lat="39.92573" lon="9.4228067"><ele>1114.0</ele><time>2026-04-24T12:48:00.484Z</time></trkpt><trkpt lat="39.925725" lon="9.42292"><ele>1114.0</ele><time>2026-04-24T12:48:01.484Z</time></trkpt><trkpt lat="39.9257267" lon="9.4230333"><ele>1114.0</ele><time>2026-04-24T12:48:02.484Z</time></trkpt><trkpt lat="39.92573" lon="9.423145"><ele>1114.0</ele><time>2026-04-24T12:48:03.485Z</time></trkpt><trkpt lat="39.925745" lon="9.423255"><ele>1114.0</ele><time>2026-04-24T12:48:04.485Z</time></trkpt><trkpt lat="39.9257667" lon="9.423365"><ele>1114.1666666666665</ele><time>2026-04-24T12:48:05.484Z</time></trkpt><trkpt lat="39.9257833" lon="9.4234667"><ele>1114.3333333333333</ele><time>2026-04-24T12:48:06.485Z</time></trkpt><trkpt lat="39.9257917" lon="9.42356"><ele>1114.5</ele><time>2026-04-24T12:48:07.485Z</time></trkpt><trkpt lat="39.9257983" lon="9.4236467"><ele>1114.6666666666667</ele><time>2026-04-24T12:48:08.484Z</time></trkpt><trkpt lat="39.9257917" lon="9.4237883"><ele>1114.8333333333335</ele><time>2026-04-24T12:48:10.484Z</time></trkpt><trkpt lat="39.9257533" lon="9.4238617"><ele>1115.0</ele><time>2026-04-24T12:48:12.484Z</time></trkpt><trkpt lat="39.925685" lon="9.4239467"><ele>1111.75</ele><time>2026-04-24T12:48:14.484Z</time></trkpt><trkpt lat="39.9255933" lon="9.4240167"><ele>1108.5</ele><time>2026-04-24T12:48:16.484Z</time></trkpt><trkpt lat="39.9253833" lon="9.4239833"><ele>1105.25</ele><time>2026-04-24T12:48:20.484Z</time></trkpt><trkpt lat="39.925305" lon="9.4239083"><ele>1102.0</ele><time>2026-04-24T12:48:22.484Z</time></trkpt><trkpt lat="39.9252533" lon="9.42385"><ele>1103.8571428571427</ele><time>2026-04-24T12:48:23.484Z</time></trkpt><trkpt lat="39.9251933" lon="9.4237783"><ele>1105.7142857142858</ele><time>2026-04-24T12:48:24.484Z</time></trkpt><trkpt lat="39.9251383" lon="9.42371"><ele>1107.5714285714284</ele><time>2026-04-24T12:48:25.484Z</time></trkpt><trkpt lat="39.9250833" lon="9.423635"><ele>1109.4285714285713</ele><time>2026-04-24T12:48:26.484Z</time></trkpt><trkpt lat="39.9250383" lon="9.42357"><ele>1111.2857142857142</ele><time>2026-04-24T12:48:27.484Z</time></trkpt><trkpt lat="39.924995" lon="9.4235067"><ele>1113.142857142857</ele><time>2026-04-24T12:48:28.485Z</time></trkpt><trkpt lat="39.92495" lon="9.4234433"><ele>1115.0</ele><time>2026-04-24T12:48:29.485Z</time></trkpt><trkpt lat="39.9249067" lon="9.4233733"><ele>1115.5</ele><time>2026-04-24T12:48:30.485Z</time></trkpt><trkpt lat="39.924855" lon="9.4233067"><ele>1116.0</ele><time>2026-04-24T12:48:31.485Z</time></trkpt><trkpt lat="39.9248033" lon="9.4232433"><ele>1116.5</ele><time>2026-04-24T12:48:32.485Z</time></trkpt><trkpt lat="39.9246983" lon="9.4231867"><ele>1117.0</ele><time>2026-04-24T12:48:34.485Z</time></trkpt><trkpt lat="39.9246" lon="9.4232"><ele>1117.5</ele><time>2026-04-24T12:48:36.484Z</time></trkpt><trkpt lat="39.9245417" lon="9.4232383"><ele>1118.0</ele><time>2026-04-24T12:48:37.484Z</time></trkpt><trkpt lat="39.9244083" lon="9.42331"><ele>1118.0</ele><time>2026-04-24T12:48:39.484Z</time></trkpt><trkpt lat="39.9243317" lon="9.4233517"><ele>1118.0</ele><time>2026-04-24T12:48:40.485Z</time></trkpt><trkpt lat="39.9242517" lon="9.4233883"><ele>1118.0</ele><time>2026-04-24T12:48:41.485Z</time></trkpt><trkpt lat="39.9241767" lon="9.4234083"><ele>1118.0</ele><time>2026-04-24T12:48:42.484Z</time></trkpt><trkpt lat="39.924105" lon="9.42343"><ele>1118.0</ele><time>2026-04-24T12:48:43.485Z</time></trkpt><trkpt lat="39.924035" lon="9.4234483"><ele>1118.0</ele><time>2026-04-24T12:48:44.484Z</time></trkpt><trkpt lat="39.9239717" lon="9.423455"><ele>1116.8</ele><time>2026-04-24T12:48:45.484Z</time></trkpt><trkpt lat="39.9239083" lon="9.4234633"><ele>1115.6</ele><time>2026-04-24T12:48:46.485Z</time></trkpt><trkpt lat="39.923815" lon="9.4234217"><ele>1114.4</ele><time>2026-04-24T12:48:48.485Z</time></trkpt><trkpt lat="39.92371" lon="9.4233583"><ele>1113.2</ele><time>2026-04-24T12:48:50.485Z</time></trkpt><trkpt lat="39.9236183" lon="9.4232633"><ele>1112.0</ele><time>2026-04-24T12:48:52.485Z</time></trkpt><trkpt lat="39.9235133" lon="9.423225"><ele>1112.0</ele><time>2026-04-24T12:48:54.485Z</time></trkpt><trkpt lat="39.9234133" lon="9.4232783"><ele>1112.0</ele><time>2026-04-24T12:48:56.484Z</time></trkpt><trkpt lat="39.923365" lon="9.4233433"><ele>1112.0</ele><time>2026-04-24T12:48:57.485Z</time></trkpt><trkpt lat="39.9232983" lon="9.423415"><ele>1112.0</ele><time>2026-04-24T12:48:58.485Z</time></trkpt><trkpt lat="39.9231517" lon="9.4235183"><ele>1112.0</ele><time>2026-04-24T12:49:00.485Z</time></trkpt><trkpt lat="39.923075" lon="9.423565"><ele>1112.1666666666667</ele><time>2026-04-24T12:49:01.485Z</time></trkpt><trkpt lat="39.923005" lon="9.4236117"><ele>1112.3333333333335</ele><time>2026-04-24T12:49:02.485Z</time></trkpt><trkpt lat="39.92294" lon="9.4236517"><ele>1112.5</ele><time>2026-04-24T12:49:03.484Z</time></trkpt><trkpt lat="39.9228783" lon="9.4236867"><ele>1112.6666666666667</ele><time>2026-04-24T12:49:04.485Z</time></trkpt><trkpt lat="39.9228133" lon="9.4237267"><ele>1112.8333333333333</ele><time>2026-04-24T12:49:05.484Z</time></trkpt><trkpt lat="39.92275" lon="9.42377"><ele>1113.0</ele><time>2026-04-24T12:49:06.485Z</time></trkpt><trkpt lat="39.9226533" lon="9.4238733"><ele>1111.2</ele><time>2026-04-24T12:49:08.484Z</time></trkpt><trkpt lat="39.922585" lon="9.42399"><ele>1109.4</ele><time>2026-04-24T12:49:10.484Z</time></trkpt><trkpt lat="39.922515" lon="9.4240667"><ele>1107.6000000000001</ele><time>2026-04-24T12:49:12.485Z</time></trkpt><trkpt lat="39.9224433" lon="9.4241617"><ele>1105.8</ele><time>2026-04-24T12:49:14.485Z</time></trkpt><trkpt lat="39.9223683" lon="9.4242867"><ele>1104.0</ele><time>2026-04-24T12:49:16.484Z</time></trkpt><trkpt lat="39.9223283" lon="9.4243683"><ele>1104.0</ele><time>2026-04-24T12:49:17.485Z</time></trkpt><trkpt lat="39.922285" lon="9.42445"><ele>1104.0</ele><time>2026-04-24T12:49:18.485Z</time></trkpt><trkpt lat="39.9222383" lon="9.42452"><ele>1104.0</ele><time>2026-04-24T12:49:19.485Z</time></trkpt><trkpt lat="39.9221383" lon="9.42465"><ele>1104.0</ele><time>2026-04-24T12:49:21.484Z</time></trkpt><trkpt lat="39.92208" lon="9.4246917"><ele>1104.0</ele><time>2026-04-24T12:49:22.484Z</time></trkpt><trkpt lat="39.92202" lon="9.4247433"><ele>1104.0</ele><time>2026-04-24T12:49:23.484Z</time></trkpt><trkpt lat="39.92192" lon="9.424815"><ele>1104.8333333333333</ele><time>2026-04-24T12:49:25.485Z</time></trkpt><trkpt lat="39.9218217" lon="9.42491"><ele>1105.6666666666667</ele><time>2026-04-24T12:49:27.485Z</time></trkpt><trkpt lat="39.9217567" lon="9.4249683"><ele>1106.5</ele><time>2026-04-24T12:49:28.485Z</time></trkpt><trkpt lat="39.9217033" lon="9.4250367"><ele>1107.3333333333335</ele><time>2026-04-24T12:49:29.484Z</time></trkpt><trkpt lat="39.9216567" lon="9.4250967"><ele>1108.1666666666667</ele><time>2026-04-24T12:49:30.484Z</time></trkpt><trkpt lat="39.9216117" lon="9.425175"><ele>1109.0</ele><time>2026-04-24T12:49:31.485Z</time></trkpt><trkpt lat="39.92156" lon="9.4252533"><ele>1109.0</ele><time>2026-04-24T12:49:32.484Z</time></trkpt><trkpt lat="39.9215033" lon="9.4253417"><ele>1109.0</ele><time>2026-04-24T12:49:33.485Z</time></trkpt><trkpt lat="39.9214483" lon="9.4254283"><ele>1109.0</ele><time>2026-04-24T12:49:34.485Z</time></trkpt><trkpt lat="39.9213933" lon="9.42551"><ele>1109.0</ele><time>2026-04-24T12:49:35.484Z</time></trkpt><trkpt lat="39.9213367" lon="9.4256033"><ele>1109.0</ele><time>2026-04-24T12:49:36.485Z</time></trkpt><trkpt lat="39.9212817" lon="9.4256967"><ele>1109.0</ele><time>2026-04-24T12:49:37.484Z</time></trkpt><trkpt lat="39.9212283" lon="9.42579"><ele>1105.8</ele><time>2026-04-24T12:49:38.484Z</time></trkpt><trkpt lat="39.9211717" lon="9.425885"><ele>1102.6000000000001</ele><time>2026-04-24T12:49:39.485Z</time></trkpt><trkpt lat="39.921115" lon="9.425975"><ele>1099.4</ele><time>2026-04-24T12:49:40.484Z</time></trkpt><trkpt lat="39.9209967" lon="9.4261267"><ele>1096.2</ele><time>2026-04-24T12:49:42.485Z</time></trkpt><trkpt lat="39.9209333" lon="9.4262133"><ele>1093.0</ele><time>2026-04-24T12:49:43.484Z</time></trkpt><trkpt lat="39.9208783" lon="9.4263117"><ele>1093.0</ele><time>2026-04-24T12:49:44.484Z</time></trkpt><trkpt lat="39.9208317" lon="9.426415"><ele>1093.0</ele><time>2026-04-24T12:49:45.484Z</time></trkpt><trkpt lat="39.920785" lon="9.42651"><ele>1093.0</ele><time>2026-04-24T12:49:46.485Z</time></trkpt><trkpt lat="39.9207417" lon="9.4266"><ele>1093.0</ele><time>2026-04-24T12:49:47.485Z</time></trkpt><trkpt lat="39.9207033" lon="9.426685"><ele>1093.0</ele><time>2026-04-24T12:49:48.485Z</time></trkpt><trkpt lat="39.92067" lon="9.42676"><ele>1093.0</ele><time>2026-04-24T12:49:49.484Z</time></trkpt><trkpt lat="39.9206167" lon="9.426905"><ele>1093.0</ele><time>2026-04-24T12:49:51.484Z</time></trkpt><trkpt lat="39.9205717" lon="9.4270433"><ele>1093.0</ele><time>2026-04-24T12:49:53.485Z</time></trkpt><trkpt lat="39.92052" lon="9.4271667"><ele>1093.0</ele><time>2026-04-24T12:49:55.484Z</time></trkpt><trkpt lat="39.9204633" lon="9.4272783"><ele>1093.0</ele><time>2026-04-24T12:49:57.485Z</time></trkpt><trkpt lat="39.9203783" lon="9.4273917"><ele>1093.0</ele><time>2026-04-24T12:49:59.485Z</time></trkpt><trkpt lat="39.9202917" lon="9.4274917"><ele>1091.75</ele><time>2026-04-24T12:50:01.484Z</time></trkpt><trkpt lat="39.9201183" lon="9.4276417"><ele>1090.5</ele><time>2026-04-24T12:50:05.484Z</time></trkpt><trkpt lat="39.92004" lon="9.4276933"><ele>1089.25</ele><time>2026-04-24T12:50:07.485Z</time></trkpt><trkpt lat="39.919965" lon="9.4277267"><ele>1088.0</ele><time>2026-04-24T12:50:09.484Z</time></trkpt><trkpt lat="39.919875" lon="9.42775"><ele>1088.0</ele><time>2026-04-24T12:50:11.484Z</time></trkpt><trkpt lat="39.919765" lon="9.4278167"><ele>1088.0</ele><time>2026-04-24T12:50:13.484Z</time></trkpt><trkpt lat="39.91967" lon="9.4278767"><ele>1088.0</ele><time>2026-04-24T12:50:15.485Z</time></trkpt><trkpt lat="39.9195483" lon="9.4279283"><ele>1088.0</ele><time>2026-04-24T12:50:17.485Z</time></trkpt><trkpt lat="39.9194383" lon="9.4279867"><ele>1083.75</ele><time>2026-04-24T12:50:19.485Z</time></trkpt><trkpt lat="39.9193683" lon="9.4280733"><ele>1079.5</ele><time>2026-04-24T12:50:21.484Z</time></trkpt><trkpt lat="39.91933" lon="9.428205"><ele>1075.25</ele><time>2026-04-24T12:50:23.484Z</time></trkpt><trkpt lat="39.9192433" lon="9.428475"><ele>1071.0</ele><time>2026-04-24T12:50:27.484Z</time></trkpt><trkpt lat="39.9192117" lon="9.4285917"><ele>1071.0</ele><time>2026-04-24T12:50:29.484Z</time></trkpt><trkpt lat="39.9191567" lon="9.4286983"><ele>1071.0</ele><time>2026-04-24T12:50:31.485Z</time></trkpt><trkpt lat="39.9190867" lon="9.42877"><ele>1071.0</ele><time>2026-04-24T12:50:33.484Z</time></trkpt><trkpt lat="39.9190083" lon="9.428805"><ele>1071.0</ele><time>2026-04-24T12:50:35.484Z</time></trkpt><trkpt lat="39.91893" lon="9.428815"><ele>1071.0</ele><time>2026-04-24T12:50:37.485Z</time></trkpt><trkpt lat="39.9188467" lon="9.4288683"><ele>1071.0</ele><time>2026-04-24T12:50:40.484Z</time></trkpt><trkpt lat="39.9188183" lon="9.4289517"><ele>1064.5</ele><time>2026-04-24T12:50:42.484Z</time></trkpt><trkpt lat="39.918825" lon="9.4290483"><ele>1058.0</ele><time>2026-04-24T12:50:44.485Z</time></trkpt><trkpt lat="39.918785" lon="9.4293067"><ele>1051.5</ele><time>2026-04-24T12:50:48.485Z</time></trkpt><trkpt lat="39.918755" lon="9.4293917"><ele>1045.0</ele><time>2026-04-24T12:50:49.484Z</time></trkpt><trkpt lat="39.9187117" lon="9.4295383"><ele>1041.0</ele><time>2026-04-24T12:50:51.484Z</time></trkpt><trkpt lat="39.9186417" lon="9.42965"><ele>1037.0</ele><time>2026-04-24T12:50:53.484Z</time></trkpt><trkpt lat="39.9185733" lon="9.42977"><ele>1033.0</ele><time>2026-04-24T12:50:55.485Z</time></trkpt><trkpt lat="39.9185467" lon="9.4299083"><ele>1029.0</ele><time>2026-04-24T12:50:57.485Z</time></trkpt><trkpt lat="39.9185267" lon="9.4300617"><ele>1029.0</ele><time>2026-04-24T12:50:59.484Z</time></trkpt><trkpt lat="39.918515" lon="9.4301567"><ele>1029.0</ele><time>2026-04-24T12:51:00.485Z</time></trkpt><trkpt lat="39.9185117" lon="9.430245"><ele>1029.0</ele><time>2026-04-24T12:51:01.484Z</time></trkpt><trkpt lat="39.91851" lon="9.430365"><ele>1029.0</ele><time>2026-04-24T12:51:03.484Z</time></trkpt><trkpt lat="39.9185133" lon="9.430465"><ele>1029.0</ele><time>2026-04-24T12:51:05.485Z</time></trkpt><trkpt lat="39.9184917" lon="9.4307017"><ele>1026.2</ele><time>2026-04-24T12:51:09.484Z</time></trkpt><trkpt lat="39.9184767" lon="9.4308383"><ele>1023.4000000000001</ele><time>2026-04-24T12:51:11.485Z</time></trkpt><trkpt lat="39.918475" lon="9.43098"><ele>1020.6</ele><time>2026-04-24T12:51:13.485Z</time></trkpt><trkpt lat="39.9184683" lon="9.431115"><ele>1017.8</ele><time>2026-04-24T12:51:15.484Z</time></trkpt><trkpt lat="39.9184633" lon="9.431245"><ele>1015.0</ele><time>2026-04-24T12:51:17.484Z</time></trkpt><trkpt lat="39.9184567" lon="9.4313617"><ele>1014.0</ele><time>2026-04-24T12:51:19.484Z</time></trkpt><trkpt lat="39.9184583" lon="9.4315083"><ele>1013.0</ele><time>2026-04-24T12:51:21.485Z</time></trkpt><trkpt lat="39.9184667" lon="9.4316283"><ele>1012.0</ele><time>2026-04-24T12:51:23.484Z</time></trkpt><trkpt lat="39.91849" lon="9.4317417"><ele>1011.0</ele><time>2026-04-24T12:51:25.484Z</time></trkpt><trkpt lat="39.9185183" lon="9.4318583"><ele>1010.0</ele><time>2026-04-24T12:51:27.484Z</time></trkpt><trkpt lat="39.91851" lon="9.432075"><ele>1011.6666666666667</ele><time>2026-04-24T12:51:31.485Z</time></trkpt><trkpt lat="39.9184567" lon="9.4321733"><ele>1013.3333333333334</ele><time>2026-04-24T12:51:33.484Z</time></trkpt><trkpt lat="39.9183917" lon="9.4322233"><ele>1015.0</ele><time>2026-04-24T12:51:35.484Z</time></trkpt><trkpt lat="39.91832" lon="9.4322617"><ele>1016.6666666666667</ele><time>2026-04-24T12:51:45.485Z</time></trkpt><trkpt lat="39.9182" lon="9.4323"><ele>1018.3333333333334</ele><time>2026-04-24T12:51:47.485Z</time></trkpt><trkpt lat="39.918125" lon="9.4323167"><ele>1020.0</ele><time>2026-04-24T12:51:48.485Z</time></trkpt><trkpt lat="39.91795" lon="9.432355"><ele>1020.0</ele><time>2026-04-24T12:51:50.484Z</time></trkpt><trkpt lat="39.9178583" lon="9.4323667"><ele>1020.0</ele><time>2026-04-24T12:51:51.485Z</time></trkpt><trkpt lat="39.9177667" lon="9.4323767"><ele>1020.0</ele><time>2026-04-24T12:51:52.485Z</time></trkpt><trkpt lat="39.9176867" lon="9.4323933"><ele>1020.0</ele><time>2026-04-24T12:51:53.484Z</time></trkpt><trkpt lat="39.9176133" lon="9.432405"><ele>1020.0</ele><time>2026-04-24T12:51:54.484Z</time></trkpt><trkpt lat="39.91754" lon="9.4324167"><ele>1020.0</ele><time>2026-04-24T12:51:55.485Z</time></trkpt><trkpt lat="39.917425" lon="9.432455"><ele>1023.3333333333334</ele><time>2026-04-24T12:51:57.485Z</time></trkpt><trkpt lat="39.9173467" lon="9.43254"><ele>1026.6666666666667</ele><time>2026-04-24T12:51:59.484Z</time></trkpt><trkpt lat="39.9172683" lon="9.4326683"><ele>1030.0</ele><time>2026-04-24T12:52:01.484Z</time></trkpt><trkpt lat="39.9172183" lon="9.4327333"><ele>1033.3333333333335</ele><time>2026-04-24T12:52:02.484Z</time></trkpt><trkpt lat="39.9171667" lon="9.4327867"><ele>1036.6666666666667</ele><time>2026-04-24T12:52:03.484Z</time></trkpt><trkpt lat="39.9171183" lon="9.4328467"><ele>1040.0</ele><time>2026-04-24T12:52:04.485Z</time></trkpt><trkpt lat="39.9170767" lon="9.4329467"><ele>1035.6</ele><time>2026-04-24T12:52:05.484Z</time></trkpt><trkpt lat="39.9170367" lon="9.4330433"><ele>1031.2</ele><time>2026-04-24T12:52:06.485Z</time></trkpt><trkpt lat="39.917005" lon="9.4331417"><ele>1026.8</ele><time>2026-04-24T12:52:07.484Z</time></trkpt><trkpt lat="39.9169633" lon="9.433245"><ele>1022.4</ele><time>2026-04-24T12:52:08.485Z</time></trkpt><trkpt lat="39.9169217" lon="9.4333317"><ele>1018.0</ele><time>2026-04-24T12:52:09.485Z</time></trkpt><trkpt lat="39.9168417" lon="9.4334867"><ele>1017.9999999999999</ele><time>2026-04-24T12:52:11.484Z</time></trkpt><trkpt lat="39.91679" lon="9.4335433"><ele>1018.0</ele><time>2026-04-24T12:52:12.485Z</time></trkpt><trkpt lat="39.9167367" lon="9.433605"><ele>1017.9999999999999</ele><time>2026-04-24T12:52:13.484Z</time></trkpt><trkpt lat="39.9166917" lon="9.43368"><ele>1017.9999999999999</ele><time>2026-04-24T12:52:14.484Z</time></trkpt><trkpt lat="39.91666" lon="9.4337717"><ele>1018.0</ele><time>2026-04-24T12:52:15.484Z</time></trkpt><trkpt lat="39.9166267" lon="9.4338583"><ele>1017.9999999999999</ele><time>2026-04-24T12:52:16.485Z</time></trkpt><trkpt lat="39.9165967" lon="9.4339533"><ele>1017.9999999999999</ele><time>2026-04-24T12:52:17.485Z</time></trkpt><trkpt lat="39.9165583" lon="9.4340483"><ele>1020.8</ele><time>2026-04-24T12:52:18.485Z</time></trkpt><trkpt lat="39.9165167" lon="9.4341267"><ele>1023.5999999999999</ele><time>2026-04-24T12:52:19.484Z</time></trkpt><trkpt lat="39.91643" lon="9.43422"><ele>1026.4</ele><time>2026-04-24T12:52:21.484Z</time></trkpt><trkpt lat="39.9163833" lon="9.4343167"><ele>1029.2</ele><time>2026-04-24T12:52:23.484Z</time></trkpt><trkpt lat="39.91639" lon="9.43444"><ele>1032.0</ele><time>2026-04-24T12:52:25.484Z</time></trkpt><trkpt lat="39.9163717" lon="9.4345917"><ele>1030.2</ele><time>2026-04-24T12:52:27.484Z</time></trkpt><trkpt lat="39.9163367" lon="9.4346617"><ele>1028.4</ele><time>2026-04-24T12:52:28.485Z</time></trkpt><trkpt lat="39.9162883" lon="9.4347283"><ele>1026.6</ele><time>2026-04-24T12:52:29.484Z</time></trkpt><trkpt lat="39.9162317" lon="9.43479"><ele>1024.8</ele><time>2026-04-24T12:52:30.484Z</time></trkpt><trkpt lat="39.9160967" lon="9.4349433"><ele>1023.0</ele><time>2026-04-24T12:52:33.485Z</time></trkpt><trkpt lat="39.916065" lon="9.4350633"><ele>1023.0</ele><time>2026-04-24T12:52:35.484Z</time></trkpt><trkpt lat="39.9160483" lon="9.4351517"><ele>1023.0</ele><time>2026-04-24T12:52:36.484Z</time></trkpt><trkpt lat="39.9160217" lon="9.4352483"><ele>1023.0</ele><time>2026-04-24T12:52:37.485Z</time></trkpt><trkpt lat="39.9159833" lon="9.435325"><ele>1023.0</ele><time>2026-04-24T12:52:38.485Z</time></trkpt><trkpt lat="39.915935" lon="9.4353833"><ele>1023.0</ele><time>2026-04-24T12:52:39.485Z</time></trkpt><trkpt lat="39.9158733" lon="9.435495"><ele>1023.0</ele><time>2026-04-24T12:52:41.485Z</time></trkpt><trkpt lat="39.9158867" lon="9.435635"><ele>1023.6666666666666</ele><time>2026-04-24T12:52:43.485Z</time></trkpt><trkpt lat="39.915915" lon="9.4357183"><ele>1024.3333333333333</ele><time>2026-04-24T12:52:44.485Z</time></trkpt><trkpt lat="39.9159383" lon="9.4358017"><ele>1025.0</ele><time>2026-04-24T12:52:45.484Z</time></trkpt><trkpt lat="39.915965" lon="9.435885"><ele>1025.6666666666665</ele><time>2026-04-24T12:52:46.484Z</time></trkpt><trkpt lat="39.916" lon="9.4360367"><ele>1026.3333333333333</ele><time>2026-04-24T12:52:48.484Z</time></trkpt><trkpt lat="39.9160183" lon="9.4361667"><ele>1027.0</ele><time>2026-04-24T12:52:50.484Z</time></trkpt><trkpt lat="39.9160267" lon="9.4362617"><ele>1031.5</ele><time>2026-04-24T12:52:52.484Z</time></trkpt><trkpt lat="39.916035" lon="9.4364817"><ele>1036.0</ele><time>2026-04-24T12:52:58.485Z</time></trkpt><trkpt lat="39.91608" lon="9.4365817"><ele>1040.5</ele><time>2026-04-24T12:53:00.485Z</time></trkpt><trkpt lat="39.9161383" lon="9.43669"><ele>1045.0</ele><time>2026-04-24T12:53:02.485Z</time></trkpt><trkpt lat="39.9161883" lon="9.4368317"><ele>1045.0</ele><time>2026-04-24T12:53:04.485Z</time></trkpt><trkpt lat="39.9162583" lon="9.4369967"><ele>1045.0</ele><time>2026-04-24T12:53:06.484Z</time></trkpt><trkpt lat="39.9162983" lon="9.4370767"><ele>1045.0</ele><time>2026-04-24T12:53:07.485Z</time></trkpt><trkpt lat="39.9163317" lon="9.4371467"><ele>1045.0</ele><time>2026-04-24T12:53:08.485Z</time></trkpt><trkpt lat="39.9163767" lon="9.4372717"><ele>1045.0</ele><time>2026-04-24T12:53:10.484Z</time></trkpt><trkpt lat="39.91634" lon="9.4373717"><ele>1048.5</ele><time>2026-04-24T12:53:12.485Z</time></trkpt><trkpt lat="39.91627" lon="9.4375083"><ele>1052.0</ele><time>2026-04-24T12:53:14.484Z</time></trkpt><trkpt lat="39.91619" lon="9.4377217"><ele>1055.5</ele><time>2026-04-24T12:53:17.485Z</time></trkpt><trkpt lat="39.9161217" lon="9.4378283"><ele>1059.0</ele><time>2026-04-24T12:53:19.484Z</time></trkpt><trkpt lat="39.9161083" lon="9.4379167"><ele>1062.6000000000001</ele><time>2026-04-24T12:53:21.485Z</time></trkpt><trkpt lat="39.91616" lon="9.4380083"><ele>1066.2</ele><time>2026-04-24T12:53:23.484Z</time></trkpt><trkpt lat="39.9162117" lon="9.4381133"><ele>1069.8000000000002</ele><time>2026-04-24T12:53:25.485Z</time></trkpt><trkpt lat="39.9162333" lon="9.4382683"><ele>1073.4</ele><time>2026-04-24T12:53:27.485Z</time></trkpt><trkpt lat="39.916245" lon="9.4383783"><ele>1077.0</ele><time>2026-04-24T12:53:29.485Z</time></trkpt><trkpt lat="39.9163" lon="9.4384317"><ele>1077.0</ele><time>2026-04-24T12:53:32.485Z</time></trkpt><trkpt lat="39.9164083" lon="9.4384217"><ele>1077.0</ele><time>2026-04-24T12:53:35.485Z</time></trkpt><trkpt lat="39.9166417" lon="9.4384633"><ele>1077.0</ele><time>2026-04-24T12:53:39.485Z</time></trkpt><trkpt lat="39.9167367" lon="9.4385117"><ele>1077.0</ele><time>2026-04-24T12:53:41.484Z</time></trkpt><trkpt lat="39.9168283" lon="9.4385717"><ele>1074.2</ele><time>2026-04-24T12:53:43.485Z</time></trkpt><trkpt lat="39.9169467" lon="9.4385583"><ele>1071.4</ele><time>2026-04-24T12:53:45.485Z</time></trkpt><trkpt lat="39.9170717" lon="9.438505"><ele>1068.6</ele><time>2026-04-24T12:53:47.485Z</time></trkpt><trkpt lat="39.91714" lon="9.4384783"><ele>1065.8</ele><time>2026-04-24T12:53:48.485Z</time></trkpt><trkpt lat="39.9172183" lon="9.4384667"><ele>1063.0</ele><time>2026-04-24T12:53:49.485Z</time></trkpt><trkpt lat="39.91729" lon="9.4384567"><ele>1063.0</ele><time>2026-04-24T12:53:50.484Z</time></trkpt><trkpt lat="39.917395" lon="9.4384417"><ele>1063.0</ele><time>2026-04-24T12:53:52.485Z</time></trkpt><trkpt lat="39.9174633" lon="9.4384317"><ele>1063.0</ele><time>2026-04-24T12:53:54.485Z</time></trkpt><trkpt lat="39.91753" lon="9.438415"><ele>1063.0</ele><time>2026-04-24T12:53:56.485Z</time></trkpt><trkpt lat="39.9176767" lon="9.4384233"><ele>1063.0</ele><time>2026-04-24T12:54:00.484Z</time></trkpt><trkpt lat="39.9177367" lon="9.4384667"><ele>1059.8</ele><time>2026-04-24T12:54:02.485Z</time></trkpt><trkpt lat="39.9177717" lon="9.438535"><ele>1056.6</ele><time>2026-04-24T12:54:04.484Z</time></trkpt><trkpt lat="39.9178367" lon="9.4385817"><ele>1053.4</ele><time>2026-04-24T12:54:06.484Z</time></trkpt><trkpt lat="39.9179233" lon="9.4386"><ele>1050.2</ele><time>2026-04-24T12:54:08.484Z</time></trkpt><trkpt lat="39.9180217" lon="9.4385717"><ele>1047.0</ele><time>2026-04-24T12:54:10.484Z</time></trkpt><trkpt lat="39.9181517" lon="9.4385967"><ele>1047.0</ele><time>2026-04-24T12:54:12.484Z</time></trkpt><trkpt lat="39.9182167" lon="9.4386267"><ele>1047.0</ele><time>2026-04-24T12:54:13.485Z</time></trkpt><trkpt lat="39.9183117" lon="9.438705"><ele>1047.0</ele><time>2026-04-24T12:54:15.484Z</time></trkpt><trkpt lat="39.9184017" lon="9.43881"><ele>1047.0</ele><time>2026-04-24T12:54:17.485Z</time></trkpt><trkpt lat="39.9185533" lon="9.4390417"><ele>1050.2</ele><time>2026-04-24T12:54:21.485Z</time></trkpt><trkpt lat="39.9185883" lon="9.4391833"><ele>1053.4</ele><time>2026-04-24T12:54:23.484Z</time></trkpt><trkpt lat="39.9186467" lon="9.4392883"><ele>1056.6</ele><time>2026-04-24T12:54:25.484Z</time></trkpt><trkpt lat="39.91874" lon="9.4393317"><ele>1059.8</ele><time>2026-04-24T12:54:27.484Z</time></trkpt><trkpt lat="39.9188617" lon="9.4393383"><ele>1063.0</ele><time>2026-04-24T12:54:29.484Z</time></trkpt><trkpt lat="39.9189367" lon="9.4393583"><ele>1063.0</ele><time>2026-04-24T12:54:30.484Z</time></trkpt><trkpt lat="39.91901" lon="9.4393783"><ele>1063.0</ele><time>2026-04-24T12:54:31.484Z</time></trkpt><trkpt lat="39.91908" lon="9.43939"><ele>1063.0</ele><time>2026-04-24T12:54:32.485Z</time></trkpt><trkpt lat="39.919145" lon="9.4393983"><ele>1063.0</ele><time>2026-04-24T12:54:33.484Z</time></trkpt><trkpt lat="39.9192217" lon="9.439415"><ele>1063.0</ele><time>2026-04-24T12:54:34.485Z</time></trkpt><trkpt lat="39.9192967" lon="9.4394333"><ele>1063.0</ele><time>2026-04-24T12:54:35.485Z</time></trkpt><trkpt lat="39.9193717" lon="9.43945"><ele>1063.0</ele><time>2026-04-24T12:54:36.485Z</time></trkpt><trkpt lat="39.919455" lon="9.4394617"><ele>1062.4</ele><time>2026-04-24T12:54:37.485Z</time></trkpt><trkpt lat="39.91954" lon="9.4394733"><ele>1061.8</ele><time>2026-04-24T12:54:38.484Z</time></trkpt><trkpt lat="39.9197217" lon="9.4395033"><ele>1061.2</ele><time>2026-04-24T12:54:40.484Z</time></trkpt><trkpt lat="39.919795" lon="9.439535"><ele>1060.6</ele><time>2026-04-24T12:54:41.485Z</time></trkpt><trkpt lat="39.9198767" lon="9.4395733"><ele>1060.0</ele><time>2026-04-24T12:54:42.485Z</time></trkpt><trkpt lat="39.9199667" lon="9.43961"><ele>1060.0</ele><time>2026-04-24T12:54:43.484Z</time></trkpt><trkpt lat="39.9200483" lon="9.4396167"><ele>1060.0</ele><time>2026-04-24T12:54:44.485Z</time></trkpt><trkpt lat="39.9201317" lon="9.4396083"><ele>1060.0</ele><time>2026-04-24T12:54:45.485Z</time></trkpt><trkpt lat="39.920205" lon="9.439595"><ele>1060.0</ele><time>2026-04-24T12:54:46.484Z</time></trkpt><trkpt lat="39.920275" lon="9.43958"><ele>1060.0</ele><time>2026-04-24T12:54:47.485Z</time></trkpt><trkpt lat="39.9203867" lon="9.4395767"><ele>1060.0</ele><time>2026-04-24T12:54:49.485Z</time></trkpt><trkpt lat="39.9205033" lon="9.43957"><ele>1060.6666666666665</ele><time>2026-04-24T12:54:51.485Z</time></trkpt><trkpt lat="39.9205717" lon="9.4395617"><ele>1061.3333333333333</ele><time>2026-04-24T12:54:52.485Z</time></trkpt><trkpt lat="39.9206367" lon="9.4395367"><ele>1062.0</ele><time>2026-04-24T12:54:53.485Z</time></trkpt><trkpt lat="39.9206917" lon="9.4394967"><ele>1062.6666666666667</ele><time>2026-04-24T12:54:54.484Z</time></trkpt><trkpt lat="39.920795" lon="9.4394433"><ele>1063.3333333333335</ele><time>2026-04-24T12:54:56.485Z</time></trkpt><trkpt lat="39.9208917" lon="9.4394133"><ele>1064.0</ele><time>2026-04-24T12:54:58.485Z</time></trkpt><trkpt lat="39.92096" lon="9.4394233"><ele>1065.6666666666667</ele><time>2026-04-24T12:54:59.484Z</time></trkpt><trkpt lat="39.9210983" lon="9.43946"><ele>1067.3333333333335</ele><time>2026-04-24T12:55:01.485Z</time></trkpt><trkpt lat="39.92116" lon="9.4394967"><ele>1069.0</ele><time>2026-04-24T12:55:02.485Z</time></trkpt><trkpt lat="39.9212217" lon="9.43954"><ele>1070.6666666666667</ele><time>2026-04-24T12:55:03.485Z</time></trkpt><trkpt lat="39.9212783" lon="9.4395883"><ele>1072.3333333333333</ele><time>2026-04-24T12:55:04.484Z</time></trkpt><trkpt lat="39.9213333" lon="9.4396383"><ele>1074.0</ele><time>2026-04-24T12:55:05.484Z</time></trkpt><trkpt lat="39.9213933" lon="9.4396833"><ele>1074.0</ele><time>2026-04-24T12:55:06.484Z</time></trkpt><trkpt lat="39.9214617" lon="9.4397267"><ele>1074.0</ele><time>2026-04-24T12:55:07.484Z</time></trkpt><trkpt lat="39.9215283" lon="9.4397617"><ele>1074.0</ele><time>2026-04-24T12:55:08.484Z</time></trkpt><trkpt lat="39.9216033" lon="9.4398017"><ele>1074.0</ele><time>2026-04-24T12:55:09.484Z</time></trkpt><trkpt lat="39.9216817" lon="9.439835"><ele>1074.0</ele><time>2026-04-24T12:55:10.484Z</time></trkpt><trkpt lat="39.9217583" lon="9.4398717"><ele>1074.0</ele><time>2026-04-24T12:55:11.485Z</time></trkpt><trkpt lat="39.92184" lon="9.439905"><ele>1072.1666666666667</ele><time>2026-04-24T12:55:12.485Z</time></trkpt><trkpt lat="39.92193" lon="9.4399317"><ele>1070.3333333333333</ele><time>2026-04-24T12:55:13.484Z</time></trkpt><trkpt lat="39.922015" lon="9.4399517"><ele>1068.5</ele><time>2026-04-24T12:55:14.484Z</time></trkpt><trkpt lat="39.9221" lon="9.4399683"><ele>1066.6666666666665</ele><time>2026-04-24T12:55:15.484Z</time></trkpt><trkpt lat="39.9221883" lon="9.439985"><ele>1064.8333333333333</ele><time>2026-04-24T12:55:16.485Z</time></trkpt><trkpt lat="39.9222717" lon="9.4400067"><ele>1063.0</ele><time>2026-04-24T12:55:17.485Z</time></trkpt><trkpt lat="39.9223583" lon="9.4400233"><ele>1063.0</ele><time>2026-04-24T12:55:18.485Z</time></trkpt><trkpt lat="39.92244" lon="9.4400467"><ele>1063.0</ele><time>2026-04-24T12:55:19.484Z</time></trkpt><trkpt lat="39.9225183" lon="9.44007"><ele>1063.0</ele><time>2026-04-24T12:55:20.485Z</time></trkpt><trkpt lat="39.92267" lon="9.4401183"><ele>1063.0</ele><time>2026-04-24T12:55:22.485Z</time></trkpt><trkpt lat="39.9227533" lon="9.4401483"><ele>1063.0</ele><time>2026-04-24T12:55:23.484Z</time></trkpt><trkpt lat="39.922835" lon="9.4401767"><ele>1060.8333333333333</ele><time>2026-04-24T12:55:24.485Z</time></trkpt><trkpt lat="39.92291" lon="9.440195"><ele>1058.6666666666665</ele><time>2026-04-24T12:55:25.484Z</time></trkpt><trkpt lat="39.9229783" lon="9.44021"><ele>1056.5</ele><time>2026-04-24T12:55:26.484Z</time></trkpt><trkpt lat="39.92305" lon="9.4402133"><ele>1054.3333333333333</ele><time>2026-04-24T12:55:27.484Z</time></trkpt><trkpt lat="39.923125" lon="9.440225"><ele>1052.1666666666667</ele><time>2026-04-24T12:55:28.484Z</time></trkpt><trkpt lat="39.923205" lon="9.4402433"><ele>1050.0</ele><time>2026-04-24T12:55:29.484Z</time></trkpt><trkpt lat="39.9232933" lon="9.4402633"><ele>1050.0</ele><time>2026-04-24T12:55:30.484Z</time></trkpt><trkpt lat="39.923375" lon="9.44028"><ele>1050.0</ele><time>2026-04-24T12:55:31.485Z</time></trkpt><trkpt lat="39.9234517" lon="9.4402967"><ele>1050.0</ele><time>2026-04-24T12:55:32.484Z</time></trkpt><trkpt lat="39.9235233" lon="9.440305"><ele>1050.0</ele><time>2026-04-24T12:55:33.484Z</time></trkpt><trkpt lat="39.9236467" lon="9.440315"><ele>1050.0</ele><time>2026-04-24T12:55:35.484Z</time></trkpt><trkpt lat="39.9237667" lon="9.4403383"><ele>1047.2</ele><time>2026-04-24T12:55:37.484Z</time></trkpt><trkpt lat="39.9238333" lon="9.440365"><ele>1044.4</ele><time>2026-04-24T12:55:38.485Z</time></trkpt><trkpt lat="39.923905" lon="9.440395"><ele>1041.6</ele><time>2026-04-24T12:55:39.485Z</time></trkpt><trkpt lat="39.9239833" lon="9.440425"><ele>1038.8</ele><time>2026-04-24T12:55:40.484Z</time></trkpt><trkpt lat="39.9240617" lon="9.4404583"><ele>1036.0</ele><time>2026-04-24T12:55:41.484Z</time></trkpt><trkpt lat="39.9242267" lon="9.44049"><ele>1040.6666666666665</ele><time>2026-04-24T12:55:43.485Z</time></trkpt><trkpt lat="39.9243133" lon="9.4405"><ele>1045.3333333333333</ele><time>2026-04-24T12:55:44.485Z</time></trkpt><trkpt lat="39.9243967" lon="9.440505"><ele>1050.0</ele><time>2026-04-24T12:55:45.484Z</time></trkpt><trkpt lat="39.92448" lon="9.4405083"><ele>1054.6666666666667</ele><time>2026-04-24T12:55:46.484Z</time></trkpt><trkpt lat="39.924565" lon="9.440505"><ele>1059.3333333333335</ele><time>2026-04-24T12:55:47.484Z</time></trkpt><trkpt lat="39.924645" lon="9.4404967"><ele>1064.0</ele><time>2026-04-24T12:55:48.485Z</time></trkpt><trkpt lat="39.92472" lon="9.440485"><ele>1059.6666666666667</ele><time>2026-04-24T12:55:49.485Z</time></trkpt><trkpt lat="39.9247917" lon="9.440465"><ele>1055.3333333333335</ele><time>2026-04-24T12:55:50.485Z</time></trkpt><trkpt lat="39.924865" lon="9.44043"><ele>1051.0</ele><time>2026-04-24T12:55:51.484Z</time></trkpt><trkpt lat="39.9249367" lon="9.4403733"><ele>1046.6666666666667</ele><time>2026-04-24T12:55:52.485Z</time></trkpt><trkpt lat="39.9250083" lon="9.4403033"><ele>1042.3333333333333</ele><time>2026-04-24T12:55:53.484Z</time></trkpt><trkpt lat="39.9250783" lon="9.440245"><ele>1038.0</ele><time>2026-04-24T12:55:54.485Z</time></trkpt><trkpt lat="39.92515" lon="9.4401867"><ele>1038.0</ele><time>2026-04-24T12:55:55.485Z</time></trkpt><trkpt lat="39.925225" lon="9.4401417"><ele>1038.0</ele><time>2026-04-24T12:55:56.484Z</time></trkpt><trkpt lat="39.9252983" lon="9.4401017"><ele>1038.0</ele><time>2026-04-24T12:55:57.484Z</time></trkpt><trkpt lat="39.9253783" lon="9.440065"><ele>1038.0</ele><time>2026-04-24T12:55:58.485Z</time></trkpt><trkpt lat="39.9254633" lon="9.4400433"><ele>1038.0</ele><time>2026-04-24T12:55:59.485Z</time></trkpt><trkpt lat="39.925545" lon="9.440025"><ele>1038.0</ele><time>2026-04-24T12:56:00.485Z</time></trkpt><trkpt lat="39.9256333" lon="9.4400133"><ele>1038.0</ele><time>2026-04-24T12:56:01.485Z</time></trkpt><trkpt lat="39.9257233" lon="9.44001"><ele>1038.0</ele><time>2026-04-24T12:56:02.484Z</time></trkpt><trkpt lat="39.9258783" lon="9.44002"><ele>1038.0</ele><time>2026-04-24T12:56:04.485Z</time></trkpt><trkpt lat="39.9259517" lon="9.4400433"><ele>1038.0</ele><time>2026-04-24T12:56:05.485Z</time></trkpt><trkpt lat="39.926025" lon="9.4400767"><ele>1038.0</ele><time>2026-04-24T12:56:06.484Z</time></trkpt><trkpt lat="39.9260983" lon="9.4401183"><ele>1039.1666666666667</ele><time>2026-04-24T12:56:07.485Z</time></trkpt><trkpt lat="39.9261633" lon="9.4401683"><ele>1040.3333333333333</ele><time>2026-04-24T12:56:08.484Z</time></trkpt><trkpt lat="39.9262267" lon="9.4402283"><ele>1041.5</ele><time>2026-04-24T12:56:09.484Z</time></trkpt><trkpt lat="39.92629" lon="9.440305"><ele>1042.6666666666665</ele><time>2026-04-24T12:56:10.484Z</time></trkpt><trkpt lat="39.9263583" lon="9.440385"><ele>1043.8333333333333</ele><time>2026-04-24T12:56:11.484Z</time></trkpt><trkpt lat="39.92643" lon="9.4404633"><ele>1045.0</ele><time>2026-04-24T12:56:12.485Z</time></trkpt><trkpt lat="39.9265033" lon="9.4405283"><ele>1045.0</ele><time>2026-04-24T12:56:13.485Z</time></trkpt><trkpt lat="39.9265867" lon="9.440595"><ele>1045.0</ele><time>2026-04-24T12:56:14.485Z</time></trkpt><trkpt lat="39.9266683" lon="9.4406617"><ele>1045.0</ele><time>2026-04-24T12:56:15.484Z</time></trkpt><trkpt lat="39.9267433" lon="9.4407217"><ele>1045.0</ele><time>2026-04-24T12:56:16.485Z</time></trkpt><trkpt lat="39.92682" lon="9.4407883"><ele>1045.0</ele><time>2026-04-24T12:56:17.485Z</time></trkpt><trkpt lat="39.9268783" lon="9.4408517"><ele>1043.4</ele><time>2026-04-24T12:56:18.485Z</time></trkpt><trkpt lat="39.9269317" lon="9.4409133"><ele>1041.8</ele><time>2026-04-24T12:56:19.485Z</time></trkpt><trkpt lat="39.927" lon="9.4410467"><ele>1040.2</ele><time>2026-04-24T12:56:21.485Z</time></trkpt><trkpt lat="39.9270183" lon="9.44118"><ele>1038.6</ele><time>2026-04-24T12:56:23.485Z</time></trkpt><trkpt lat="39.9270033" lon="9.4413667"><ele>1037.0</ele><time>2026-04-24T13:11:57.485Z</time></trkpt><trkpt lat="39.9268683" lon="9.44145"><ele>1038.0</ele><time>2026-04-24T13:12:01.485Z</time></trkpt><trkpt lat="39.9267933" lon="9.44154"><ele>1039.0</ele><time>2026-04-24T13:12:03.486Z</time></trkpt><trkpt lat="39.9267067" lon="9.441645"><ele>1040.0</ele><time>2026-04-24T13:12:05.486Z</time></trkpt><trkpt lat="39.92663" lon="9.441745"><ele>1041.0</ele><time>2026-04-24T13:12:07.486Z</time></trkpt><trkpt lat="39.92655" lon="9.4418567"><ele>1042.0</ele><time>2026-04-24T13:12:09.486Z</time></trkpt><trkpt lat="39.9265033" lon="9.4419133"><ele>1042.0</ele><time>2026-04-24T13:12:10.486Z</time></trkpt><trkpt lat="39.9264517" lon="9.44197"><ele>1042.0</ele><time>2026-04-24T13:12:11.486Z</time></trkpt><trkpt lat="39.9264017" lon="9.44203"><ele>1042.0</ele><time>2026-04-24T13:12:12.485Z</time></trkpt><trkpt lat="39.92635" lon="9.4420883"><ele>1042.0</ele><time>2026-04-24T13:12:13.485Z</time></trkpt><trkpt lat="39.9262967" lon="9.4421417"><ele>1042.0</ele><time>2026-04-24T13:12:14.485Z</time></trkpt><trkpt lat="39.92624" lon="9.4421983"><ele>1042.0</ele><time>2026-04-24T13:12:15.485Z</time></trkpt><trkpt lat="39.92619" lon="9.4422533"><ele>1042.0</ele><time>2026-04-24T13:12:16.486Z</time></trkpt><trkpt lat="39.9261383" lon="9.44231"><ele>1040.4</ele><time>2026-04-24T13:12:17.486Z</time></trkpt><trkpt lat="39.9260867" lon="9.4423683"><ele>1038.8000000000002</ele><time>2026-04-24T13:12:18.486Z</time></trkpt><trkpt lat="39.925975" lon="9.4424767"><ele>1037.2</ele><time>2026-04-24T13:12:20.485Z</time></trkpt><trkpt lat="39.925875" lon="9.4425633"><ele>1035.6000000000001</ele><time>2026-04-24T13:12:22.485Z</time></trkpt><trkpt lat="39.9257833" lon="9.4426467"><ele>1034.0</ele><time>2026-04-24T13:12:24.485Z</time></trkpt><trkpt lat="39.9256917" lon="9.4426967"><ele>1034.0</ele><time>2026-04-24T13:12:26.485Z</time></trkpt><trkpt lat="39.9256117" lon="9.4427267"><ele>1034.0</ele><time>2026-04-24T13:12:28.486Z</time></trkpt><trkpt lat="39.9255267" lon="9.4427467"><ele>1034.0</ele><time>2026-04-24T13:12:30.486Z</time></trkpt><trkpt lat="39.9254367" lon="9.4427267"><ele>1034.0</ele><time>2026-04-24T13:12:32.486Z</time></trkpt><trkpt lat="39.9253467" lon="9.4427083"><ele>1034.0</ele><time>2026-04-24T13:12:34.486Z</time></trkpt><trkpt lat="39.9252583" lon="9.4426983"><ele>1034.0</ele><time>2026-04-24T13:12:36.485Z</time></trkpt><trkpt lat="39.9251583" lon="9.4426767"><ele>1033.0</ele><time>2026-04-24T13:12:38.485Z</time></trkpt><trkpt lat="39.9250383" lon="9.44265"><ele>1032.0</ele><time>2026-04-24T13:12:40.486Z</time></trkpt><trkpt lat="39.9248617" lon="9.4426033"><ele>1031.0</ele><time>2026-04-24T13:12:43.485Z</time></trkpt><trkpt lat="39.9247267" lon="9.4426083"><ele>1030.0</ele><time>2026-04-24T13:12:45.486Z</time></trkpt><trkpt lat="39.9246583" lon="9.4426217"><ele>1030.0</ele><time>2026-04-24T13:12:46.485Z</time></trkpt><trkpt lat="39.9245917" lon="9.4426383"><ele>1030.0</ele><time>2026-04-24T13:12:47.485Z</time></trkpt><trkpt lat="39.9245267" lon="9.4426583"><ele>1030.0</ele><time>2026-04-24T13:12:48.485Z</time></trkpt><trkpt lat="39.9244617" lon="9.442705"><ele>1030.0</ele><time>2026-04-24T13:12:49.485Z</time></trkpt><trkpt lat="39.9243983" lon="9.442745"><ele>1030.0</ele><time>2026-04-24T13:12:50.485Z</time></trkpt><trkpt lat="39.9243333" lon="9.4427817"><ele>1030.0</ele><time>2026-04-24T13:12:51.485Z</time></trkpt><trkpt lat="39.9242683" lon="9.4428233"><ele>1030.0</ele><time>2026-04-24T13:12:52.485Z</time></trkpt><trkpt lat="39.9242017" lon="9.44286"><ele>1029.5714285714287</ele><time>2026-04-24T13:12:53.486Z</time></trkpt><trkpt lat="39.9241367" lon="9.44288"><ele>1029.142857142857</ele><time>2026-04-24T13:12:54.485Z</time></trkpt><trkpt lat="39.92407" lon="9.442895"><ele>1028.7142857142858</ele><time>2026-04-24T13:12:55.486Z</time></trkpt><trkpt lat="39.9240067" lon="9.4429117"><ele>1028.2857142857142</ele><time>2026-04-24T13:12:56.485Z</time></trkpt><trkpt lat="39.92394" lon="9.4429183"><ele>1027.857142857143</ele><time>2026-04-24T13:12:57.486Z</time></trkpt><trkpt lat="39.9238733" lon="9.4429233"><ele>1027.4285714285716</ele><time>2026-04-24T13:12:58.486Z</time></trkpt><trkpt lat="39.9237967" lon="9.4429267"><ele>1027.0</ele><time>2026-04-24T13:12:59.485Z</time></trkpt><trkpt lat="39.9237217" lon="9.4429217"><ele>1027.0</ele><time>2026-04-24T13:13:00.485Z</time></trkpt><trkpt lat="39.92364" lon="9.44292"><ele>1027.0</ele><time>2026-04-24T13:13:01.486Z</time></trkpt><trkpt lat="39.9234767" lon="9.4429"><ele>1027.0</ele><time>2026-04-24T13:13:03.486Z</time></trkpt><trkpt lat="39.9233917" lon="9.4428883"><ele>1027.0</ele><time>2026-04-24T13:13:04.486Z</time></trkpt><trkpt lat="39.92331" lon="9.442885"><ele>1027.0</ele><time>2026-04-24T13:13:05.486Z</time></trkpt><trkpt lat="39.9232283" lon="9.4428833"><ele>1026.7142857142858</ele><time>2026-04-24T13:13:06.485Z</time></trkpt><trkpt lat="39.9231517" lon="9.4428833"><ele>1026.4285714285716</ele><time>2026-04-24T13:13:07.486Z</time></trkpt><trkpt lat="39.9230767" lon="9.4428867"><ele>1026.142857142857</ele><time>2026-04-24T13:13:08.486Z</time></trkpt><trkpt lat="39.923005" lon="9.4428983"><ele>1025.857142857143</ele><time>2026-04-24T13:13:09.486Z</time></trkpt><trkpt lat="39.922945" lon="9.4429333"><ele>1025.5714285714284</ele><time>2026-04-24T13:13:10.485Z</time></trkpt><trkpt lat="39.9228883" lon="9.4429817"><ele>1025.2857142857142</ele><time>2026-04-24T13:13:11.485Z</time></trkpt><trkpt lat="39.9228267" lon="9.443025"><ele>1025.0</ele><time>2026-04-24T13:13:12.485Z</time></trkpt><trkpt lat="39.9227633" lon="9.44308"><ele>1021.3333333333334</ele><time>2026-04-24T13:13:13.485Z</time></trkpt><trkpt lat="39.9226917" lon="9.44312"><ele>1017.6666666666667</ele><time>2026-04-24T13:13:14.486Z</time></trkpt><trkpt lat="39.9226083" lon="9.443155"><ele>1014.0</ele><time>2026-04-24T13:13:15.485Z</time></trkpt><trkpt lat="39.92253" lon="9.443195"><ele>1010.3333333333333</ele><time>2026-04-24T13:13:16.485Z</time></trkpt><trkpt lat="39.92246" lon="9.4432267"><ele>1006.6666666666666</ele><time>2026-04-24T13:13:17.485Z</time></trkpt><trkpt lat="39.9223867" lon="9.4432617"><ele>1003.0</ele><time>2026-04-24T13:13:18.486Z</time></trkpt><trkpt lat="39.9223167" lon="9.4432867"><ele>1003.0</ele><time>2026-04-24T13:13:19.486Z</time></trkpt><trkpt lat="39.9222533" lon="9.4433067"><ele>1003.0</ele><time>2026-04-24T13:13:20.485Z</time></trkpt><trkpt lat="39.9221517" lon="9.443335"><ele>1003.0</ele><time>2026-04-24T13:13:22.486Z</time></trkpt><trkpt lat="39.92198" lon="9.4434083"><ele>1003.0</ele><time>2026-04-24T13:13:26.485Z</time></trkpt><trkpt lat="39.9218967" lon="9.4434717"><ele>1003.0</ele><time>2026-04-24T13:13:28.485Z</time></trkpt><trkpt lat="39.9217967" lon="9.4435567"><ele>1002.9999999999999</ele><time>2026-04-24T13:13:30.485Z</time></trkpt><trkpt lat="39.92174" lon="9.4436083"><ele>1003.0</ele><time>2026-04-24T13:13:31.486Z</time></trkpt><trkpt lat="39.9216767" lon="9.44366"><ele>1003.0</ele><time>2026-04-24T13:13:32.485Z</time></trkpt><trkpt lat="39.921615" lon="9.443705"><ele>1003.0</ele><time>2026-04-24T13:13:33.485Z</time></trkpt><trkpt lat="39.9215433" lon="9.4437667"><ele>1002.9999999999999</ele><time>2026-04-24T13:13:34.485Z</time></trkpt><trkpt lat="39.92146" lon="9.4438367"><ele>1003.0</ele><time>2026-04-24T13:13:35.486Z</time></trkpt><trkpt lat="39.9213783" lon="9.443915"><ele>1003.5999999999999</ele><time>2026-04-24T13:13:36.486Z</time></trkpt><trkpt lat="39.9213067" lon="9.4439917"><ele>1004.1999999999999</ele><time>2026-04-24T13:13:37.485Z</time></trkpt><trkpt lat="39.9212283" lon="9.4440833"><ele>1004.8</ele><time>2026-04-24T13:13:38.486Z</time></trkpt><trkpt lat="39.9211533" lon="9.44415"><ele>1005.4</ele><time>2026-04-24T13:13:39.485Z</time></trkpt><trkpt lat="39.9210883" lon="9.4442267"><ele>1006.0</ele><time>2026-04-24T13:13:40.486Z</time></trkpt><trkpt lat="39.9210283" lon="9.4442933"><ele>1006.0</ele><time>2026-04-24T13:13:41.485Z</time></trkpt><trkpt lat="39.920975" lon="9.4443467"><ele>1005.9999999999999</ele><time>2026-04-24T13:13:42.485Z</time></trkpt><trkpt lat="39.9209083" lon="9.4443933"><ele>1005.9999999999999</ele><time>2026-04-24T13:13:43.485Z</time></trkpt><trkpt lat="39.9207667" lon="9.4444533"><ele>1006.0</ele><time>2026-04-24T13:13:45.486Z</time></trkpt><trkpt lat="39.920685" lon="9.444505"><ele>1006.0</ele><time>2026-04-24T13:13:46.485Z</time></trkpt><trkpt lat="39.9206017" lon="9.4445567"><ele>1006.5999999999999</ele><time>2026-04-24T13:13:47.485Z</time></trkpt><trkpt lat="39.9205217" lon="9.4446183"><ele>1007.1999999999999</ele><time>2026-04-24T13:13:48.486Z</time></trkpt><trkpt lat="39.920455" lon="9.4446833"><ele>1007.8000000000001</ele><time>2026-04-24T13:13:49.486Z</time></trkpt><trkpt lat="39.9204083" lon="9.4447717"><ele>1008.4000000000001</ele><time>2026-04-24T13:13:50.486Z</time></trkpt><trkpt lat="39.9203567" lon="9.4448383"><ele>1009.0</ele><time>2026-04-24T13:13:51.486Z</time></trkpt><trkpt lat="39.9202467" lon="9.444925"><ele>1008.9999999999999</ele><time>2026-04-24T13:13:53.485Z</time></trkpt><trkpt lat="39.9201717" lon="9.4449533"><ele>1009.0</ele><time>2026-04-24T13:13:54.485Z</time></trkpt><trkpt lat="39.920105" lon="9.44497"><ele>1009.0</ele><time>2026-04-24T13:13:55.485Z</time></trkpt><trkpt lat="39.9200333" lon="9.445"><ele>1009.0</ele><time>2026-04-24T13:13:56.485Z</time></trkpt><trkpt lat="39.91996" lon="9.445055"><ele>1008.9999999999999</ele><time>2026-04-24T13:13:57.485Z</time></trkpt><trkpt lat="39.9198867" lon="9.4451083"><ele>1009.0</ele><time>2026-04-24T13:13:58.485Z</time></trkpt><trkpt lat="39.9198167" lon="9.445165"><ele>1008.0</ele><time>2026-04-24T13:13:59.485Z</time></trkpt><trkpt lat="39.91974" lon="9.4452233"><ele>1007.0000000000001</ele><time>2026-04-24T13:14:00.485Z</time></trkpt><trkpt lat="39.9196683" lon="9.4452667"><ele>1006.0000000000001</ele><time>2026-04-24T13:14:01.486Z</time></trkpt><trkpt lat="39.9196067" lon="9.4453083"><ele>1005.0</ele><time>2026-04-24T13:14:02.486Z</time></trkpt><trkpt lat="39.9195167" lon="9.4454083"><ele>1004.0</ele><time>2026-04-24T13:14:04.485Z</time></trkpt><trkpt lat="39.9194133" lon="9.4456567"><ele>1004.0000000000001</ele><time>2026-04-24T13:14:08.486Z</time></trkpt><trkpt lat="39.9193833" lon="9.4457917"><ele>1004.0</ele><time>2026-04-24T13:14:10.485Z</time></trkpt><trkpt lat="39.9193767" lon="9.4458817"><ele>1004.0</ele><time>2026-04-24T13:14:11.486Z</time></trkpt><trkpt lat="39.919365" lon="9.44598"><ele>1004.0</ele><time>2026-04-24T13:14:12.486Z</time></trkpt><trkpt lat="39.9193433" lon="9.4460833"><ele>1004.0000000000001</ele><time>2026-04-24T13:14:13.485Z</time></trkpt><trkpt lat="39.9193117" lon="9.4461933"><ele>1004.0</ele><time>2026-04-24T13:14:14.486Z</time></trkpt><trkpt lat="39.9192767" lon="9.446295"><ele>1001.3333333333334</ele><time>2026-04-24T13:14:15.486Z</time></trkpt><trkpt lat="39.919235" lon="9.4464"><ele>998.6666666666667</ele><time>2026-04-24T13:14:16.486Z</time></trkpt><trkpt lat="39.91919" lon="9.4464933"><ele>996.0</ele><time>2026-04-24T13:14:17.485Z</time></trkpt><trkpt lat="39.9191467" lon="9.4465717"><ele>993.3333333333333</ele><time>2026-04-24T13:14:18.485Z</time></trkpt><trkpt lat="39.91912" lon="9.44666"><ele>990.6666666666666</ele><time>2026-04-24T13:14:19.486Z</time></trkpt><trkpt lat="39.9191017" lon="9.4467767"><ele>988.0</ele><time>2026-04-24T13:14:20.485Z</time></trkpt><trkpt lat="39.9190967" lon="9.4469"><ele>993.3333333333333</ele><time>2026-04-24T13:14:21.485Z</time></trkpt><trkpt lat="39.9190983" lon="9.4469967"><ele>998.6666666666666</ele><time>2026-04-24T13:14:22.486Z</time></trkpt><trkpt lat="39.9190933" lon="9.447085"><ele>1004.0</ele><time>2026-04-24T13:14:23.486Z</time></trkpt><trkpt lat="39.9190883" lon="9.4471683"><ele>1009.3333333333333</ele><time>2026-04-24T13:14:24.485Z</time></trkpt><trkpt lat="39.9190917" lon="9.447255"><ele>1014.6666666666666</ele><time>2026-04-24T13:14:25.486Z</time></trkpt><trkpt lat="39.9191317" lon="9.4474367"><ele>1020.0</ele><time>2026-04-24T13:14:27.486Z</time></trkpt><trkpt lat="39.9191583" lon="9.4475283"><ele>1020.0</ele><time>2026-04-24T13:14:28.486Z</time></trkpt><trkpt lat="39.9191917" lon="9.44761"><ele>1020.0</ele><time>2026-04-24T13:14:29.485Z</time></trkpt><trkpt lat="39.919225" lon="9.4476817"><ele>1020.0</ele><time>2026-04-24T13:14:30.486Z</time></trkpt><trkpt lat="39.919295" lon="9.4478067"><ele>1020.0</ele><time>2026-04-24T13:14:32.485Z</time></trkpt><trkpt lat="39.9193217" lon="9.4478833"><ele>1020.0</ele><time>2026-04-24T13:14:33.485Z</time></trkpt><trkpt lat="39.9193567" lon="9.44803"><ele>1020.0</ele><time>2026-04-24T13:14:35.485Z</time></trkpt><trkpt lat="39.9193633" lon="9.4481317"><ele>1019.5</ele><time>2026-04-24T13:14:36.485Z</time></trkpt><trkpt lat="39.9193483" lon="9.4483033"><ele>1019.0</ele><time>2026-04-24T13:14:38.486Z</time></trkpt><trkpt lat="39.91933" lon="9.44839"><ele>1018.5</ele><time>2026-04-24T13:14:39.486Z</time></trkpt><trkpt lat="39.9193017" lon="9.4484717"><ele>1018.0</ele><time>2026-04-24T13:14:40.486Z</time></trkpt><trkpt lat="39.9192483" lon="9.4485533"><ele>1017.5</ele><time>2026-04-24T13:14:41.486Z</time></trkpt><trkpt lat="39.91919" lon="9.4486233"><ele>1017.0</ele><time>2026-04-24T13:14:42.486Z</time></trkpt><trkpt lat="39.9191283" lon="9.4486717"><ele>1017.0</ele><time>2026-04-24T13:14:43.485Z</time></trkpt><trkpt lat="39.91906" lon="9.4486983"><ele>1017.0</ele><time>2026-04-24T13:14:44.486Z</time></trkpt><trkpt lat="39.9189833" lon="9.4487117"><ele>1017.0</ele><time>2026-04-24T13:14:45.485Z</time></trkpt><trkpt lat="39.9189017" lon="9.448735"><ele>1017.0</ele><time>2026-04-24T13:14:46.485Z</time></trkpt><trkpt lat="39.9187533" lon="9.4487483"><ele>1017.0</ele><time>2026-04-24T13:14:48.485Z</time></trkpt><trkpt lat="39.91868" lon="9.4487417"><ele>1017.0</ele><time>2026-04-24T13:14:49.485Z</time></trkpt><trkpt lat="39.918615" lon="9.4487383"><ele>1016.9999999999999</ele><time>2026-04-24T13:14:50.485Z</time></trkpt><trkpt lat="39.918545" lon="9.4487333"><ele>1017.0</ele><time>2026-04-24T13:14:51.485Z</time></trkpt><trkpt lat="39.9184783" lon="9.44871"><ele>1017.0</ele><time>2026-04-24T13:14:52.485Z</time></trkpt><trkpt lat="39.9184067" lon="9.448675"><ele>1016.9999999999999</ele><time>2026-04-24T13:14:53.485Z</time></trkpt><trkpt lat="39.9183467" lon="9.4486383"><ele>1017.0</ele><time>2026-04-24T13:14:54.486Z</time></trkpt><trkpt lat="39.918275" lon="9.4485917"><ele>1017.0</ele><time>2026-04-24T13:14:55.486Z</time></trkpt><trkpt lat="39.9182033" lon="9.4485383"><ele>1019.6666666666666</ele><time>2026-04-24T13:14:56.486Z</time></trkpt><trkpt lat="39.9181233" lon="9.4484867"><ele>1022.3333333333333</ele><time>2026-04-24T13:14:57.486Z</time></trkpt><trkpt lat="39.9180417" lon="9.4484433"><ele>1025.0</ele><time>2026-04-24T13:14:58.486Z</time></trkpt><trkpt lat="39.9179567" lon="9.448395"><ele>1027.6666666666665</ele><time>2026-04-24T13:14:59.486Z</time></trkpt><trkpt lat="39.9178833" lon="9.448345"><ele>1030.3333333333333</ele><time>2026-04-24T13:15:00.485Z</time></trkpt><trkpt lat="39.917815" lon="9.44829"><ele>1033.0</ele><time>2026-04-24T13:15:01.486Z</time></trkpt><trkpt lat="39.9177417" lon="9.4482383"><ele>1033.0</ele><time>2026-04-24T13:15:02.485Z</time></trkpt><trkpt lat="39.9176683" lon="9.4482017"><ele>1033.0</ele><time>2026-04-24T13:15:03.485Z</time></trkpt><trkpt lat="39.9175583" lon="9.44819"><ele>1033.0</ele><time>2026-04-24T13:15:05.486Z</time></trkpt><trkpt lat="39.9174733" lon="9.44825"><ele>1033.0</ele><time>2026-04-24T13:15:07.486Z</time></trkpt><trkpt lat="39.91731" lon="9.448425"><ele>1031.6666666666665</ele><time>2026-04-24T13:15:10.485Z</time></trkpt><trkpt lat="39.91724" lon="9.448505"><ele>1030.3333333333333</ele><time>2026-04-24T13:15:11.485Z</time></trkpt><trkpt lat="39.917175" lon="9.44858"><ele>1029.0</ele><time>2026-04-24T13:15:12.486Z</time></trkpt><trkpt lat="39.91711" lon="9.448645"><ele>1027.6666666666667</ele><time>2026-04-24T13:15:13.486Z</time></trkpt><trkpt lat="39.9170367" lon="9.4487017"><ele>1026.3333333333335</ele><time>2026-04-24T13:15:14.486Z</time></trkpt><trkpt lat="39.9169633" lon="9.4487633"><ele>1025.0</ele><time>2026-04-24T13:15:15.485Z</time></trkpt><trkpt lat="39.9168833" lon="9.448825"><ele>1025.0</ele><time>2026-04-24T13:15:16.485Z</time></trkpt><trkpt lat="39.9167933" lon="9.44889"><ele>1025.0</ele><time>2026-04-24T13:15:17.485Z</time></trkpt><trkpt lat="39.916705" lon="9.4489617"><ele>1025.0</ele><time>2026-04-24T13:15:18.486Z</time></trkpt><trkpt lat="39.9166217" lon="9.4490183"><ele>1025.0</ele><time>2026-04-24T13:15:19.485Z</time></trkpt><trkpt lat="39.9165433" lon="9.4490683"><ele>1025.0</ele><time>2026-04-24T13:15:20.486Z</time></trkpt><trkpt lat="39.916465" lon="9.4491033"><ele>1028.0</ele><time>2026-04-24T13:15:21.486Z</time></trkpt><trkpt lat="39.91639" lon="9.44913"><ele>1031.0</ele><time>2026-04-24T13:15:22.485Z</time></trkpt><trkpt lat="39.9163183" lon="9.449145"><ele>1034.0</ele><time>2026-04-24T13:15:23.485Z</time></trkpt><trkpt lat="39.9162133" lon="9.4491317"><ele>1037.0</ele><time>2026-04-24T13:15:25.486Z</time></trkpt><trkpt lat="39.916155" lon="9.4491"><ele>1040.0</ele><time>2026-04-24T13:15:26.486Z</time></trkpt><trkpt lat="39.916095" lon="9.449045"><ele>1043.0</ele><time>2026-04-24T13:15:27.485Z</time></trkpt><trkpt lat="39.9160317" lon="9.448965"><ele>1046.0</ele><time>2026-04-24T13:15:28.486Z</time></trkpt><trkpt lat="39.9159133" lon="9.4487817"><ele>1049.0</ele><time>2026-04-24T13:15:30.486Z</time></trkpt><trkpt lat="39.9158467" lon="9.44867"><ele>1052.0</ele><time>2026-04-24T13:15:31.485Z</time></trkpt><trkpt lat="39.91578" lon="9.4485483"><ele>1055.0</ele><time>2026-04-24T13:15:32.485Z</time></trkpt><trkpt lat="39.91571" lon="9.4484367"><ele>1055.0</ele><time>2026-04-24T13:15:33.486Z</time></trkpt><trkpt lat="39.91565" lon="9.4483417"><ele>1055.0</ele><time>2026-04-24T13:15:34.486Z</time></trkpt><trkpt lat="39.9156033" lon="9.4482717"><ele>1055.0</ele><time>2026-04-24T13:15:35.485Z</time></trkpt><trkpt lat="39.9155867" lon="9.44814"><ele>1055.0</ele><time>2026-04-24T13:15:37.486Z</time></trkpt><trkpt lat="39.9155917" lon="9.4480533"><ele>1055.0</ele><time>2026-04-24T13:15:38.485Z</time></trkpt><trkpt lat="39.9155867" lon="9.4479583"><ele>1055.0</ele><time>2026-04-24T13:15:39.485Z</time></trkpt><trkpt lat="39.915585" lon="9.4478667"><ele>1056.5</ele><time>2026-04-24T13:15:40.486Z</time></trkpt><trkpt lat="39.9155717" lon="9.447715"><ele>1058.0</ele><time>2026-04-24T13:15:42.486Z</time></trkpt><trkpt lat="39.9155717" lon="9.447625"><ele>1059.5</ele><time>2026-04-24T13:15:43.486Z</time></trkpt><trkpt lat="39.915575" lon="9.4474917"><ele>1061.0</ele><time>2026-04-24T13:15:45.486Z</time></trkpt><trkpt lat="39.9156383" lon="9.447445"><ele>1062.5</ele><time>2026-04-24T13:15:48.485Z</time></trkpt><trkpt lat="39.9156933" lon="9.447505"><ele>1064.0</ele><time>2026-04-24T13:15:50.486Z</time></trkpt><trkpt lat="39.915785" lon="9.447715"><ele>1064.0</ele><time>2026-04-24T13:15:53.486Z</time></trkpt><trkpt lat="39.9158283" lon="9.4477917"><ele>1064.0</ele><time>2026-04-24T13:15:54.485Z</time></trkpt><trkpt lat="39.91587" lon="9.4478617"><ele>1064.0</ele><time>2026-04-24T13:15:55.485Z</time></trkpt><trkpt lat="39.91592" lon="9.44793"><ele>1064.0</ele><time>2026-04-24T13:15:56.485Z</time></trkpt><trkpt lat="39.9159667" lon="9.4479883"><ele>1064.0</ele><time>2026-04-24T13:15:57.485Z</time></trkpt><trkpt lat="39.9160733" lon="9.4480683"><ele>1064.0</ele><time>2026-04-24T13:15:59.485Z</time></trkpt><trkpt lat="39.9161333" lon="9.448095"><ele>1063.6000000000001</ele><time>2026-04-24T13:16:00.485Z</time></trkpt><trkpt lat="39.9161967" lon="9.4481133"><ele>1063.2</ele><time>2026-04-24T13:16:01.486Z</time></trkpt><trkpt lat="39.916315" lon="9.4481383"><ele>1062.8000000000002</ele><time>2026-04-24T13:16:03.485Z</time></trkpt><trkpt lat="39.916435" lon="9.4481067"><ele>1062.4</ele><time>2026-04-24T13:16:05.485Z</time></trkpt><trkpt lat="39.916515" lon="9.4479833"><ele>1062.0</ele><time>2026-04-24T13:16:07.486Z</time></trkpt><trkpt lat="39.9165533" lon="9.4478783"><ele>1066.0</ele><time>2026-04-24T13:16:09.486Z</time></trkpt><trkpt lat="39.91649" lon="9.44777"><ele>1070.0</ele><time>2026-04-24T13:16:12.485Z</time></trkpt><trkpt lat="39.9163817" lon="9.44766"><ele>1074.0</ele><time>2026-04-24T13:16:14.486Z</time></trkpt><trkpt lat="39.9163" lon="9.4475567"><ele>1078.0</ele><time>2026-04-24T13:16:16.485Z</time></trkpt><trkpt lat="39.9162817" lon="9.447435"><ele>1078.0</ele><time>2026-04-24T13:16:18.485Z</time></trkpt><trkpt lat="39.91632" lon="9.4472767"><ele>1078.0</ele><time>2026-04-24T13:16:20.486Z</time></trkpt><trkpt lat="39.9163417" lon="9.4471883"><ele>1078.0</ele><time>2026-04-24T13:16:21.486Z</time></trkpt><trkpt lat="39.916375" lon="9.4470983"><ele>1078.0</ele><time>2026-04-24T13:16:22.485Z</time></trkpt><trkpt lat="39.9164083" lon="9.4469933"><ele>1078.0</ele><time>2026-04-24T13:16:23.485Z</time></trkpt><trkpt lat="39.916435" lon="9.446885"><ele>1079.8333333333333</ele><time>2026-04-24T13:16:24.486Z</time></trkpt><trkpt lat="39.9164567" lon="9.4467717"><ele>1081.6666666666665</ele><time>2026-04-24T13:16:25.485Z</time></trkpt><trkpt lat="39.9164783" lon="9.4466667"><ele>1083.5</ele><time>2026-04-24T13:16:26.485Z</time></trkpt><trkpt lat="39.9165017" lon="9.4465617"><ele>1085.3333333333333</ele><time>2026-04-24T13:16:27.486Z</time></trkpt><trkpt lat="39.91652" lon="9.4464517"><ele>1087.1666666666667</ele><time>2026-04-24T13:16:28.486Z</time></trkpt><trkpt lat="39.9165317" lon="9.4463317"><ele>1089.0</ele><time>2026-04-24T13:16:29.485Z</time></trkpt><trkpt lat="39.916535" lon="9.4462267"><ele>1091.0</ele><time>2026-04-24T13:16:30.486Z</time></trkpt><trkpt lat="39.9165467" lon="9.4461167"><ele>1093.0</ele><time>2026-04-24T13:16:31.486Z</time></trkpt><trkpt lat="39.91657" lon="9.446025"><ele>1095.0</ele><time>2026-04-24T13:16:32.485Z</time></trkpt><trkpt lat="39.9165867" lon="9.4459333"><ele>1097.0</ele><time>2026-04-24T13:16:33.486Z</time></trkpt><trkpt lat="39.9165967" lon="9.4457483"><ele>1099.0</ele><time>2026-04-24T13:16:35.485Z</time></trkpt><trkpt lat="39.9165817" lon="9.4456067"><ele>1099.0</ele><time>2026-04-24T13:16:37.485Z</time></trkpt><trkpt lat="39.9165667" lon="9.4455033"><ele>1099.0</ele><time>2026-04-24T13:16:39.485Z</time></trkpt><trkpt lat="39.9165733" lon="9.44539"><ele>1099.0</ele><time>2026-04-24T13:16:41.486Z</time></trkpt><trkpt lat="39.9165717" lon="9.4452517"><ele>1099.0</ele><time>2026-04-24T13:16:43.486Z</time></trkpt><trkpt lat="39.9165483" lon="9.4450933"><ele>1099.0</ele><time>2026-04-24T13:16:45.485Z</time></trkpt><trkpt lat="39.9165017" lon="9.44494"><ele>1101.142857142857</ele><time>2026-04-24T13:16:47.486Z</time></trkpt><trkpt lat="39.9164683" lon="9.4448533"><ele>1103.2857142857142</ele><time>2026-04-24T13:16:48.485Z</time></trkpt><trkpt lat="39.91643" lon="9.444765"><ele>1105.4285714285716</ele><time>2026-04-24T13:16:49.485Z</time></trkpt><trkpt lat="39.916395" lon="9.4446883"><ele>1107.5714285714284</ele><time>2026-04-24T13:16:50.486Z</time></trkpt><trkpt lat="39.9163583" lon="9.4446167"><ele>1109.7142857142858</ele><time>2026-04-24T13:16:51.486Z</time></trkpt><trkpt lat="39.916325" lon="9.4445467"><ele>1111.857142857143</ele><time>2026-04-24T13:16:52.486Z</time></trkpt><trkpt lat="39.9162867" lon="9.4444783"><ele>1114.0</ele><time>2026-04-24T13:16:53.485Z</time></trkpt><trkpt lat="39.9161867" lon="9.44439"><ele>1116.0</ele><time>2026-04-24T13:16:55.485Z</time></trkpt><trkpt lat="39.9160083" lon="9.444355"><ele>1118.0</ele><time>2026-04-24T13:16:58.485Z</time></trkpt><trkpt lat="39.91592" lon="9.4443"><ele>1120.0</ele><time>2026-04-24T13:17:00.485Z</time></trkpt><trkpt lat="39.9158483" lon="9.4442333"><ele>1122.0</ele><time>2026-04-24T13:17:02.486Z</time></trkpt><trkpt lat="39.9157683" lon="9.4441617"><ele>1122.0</ele><time>2026-04-24T13:17:04.486Z</time></trkpt><trkpt lat="39.9156717" lon="9.44407"><ele>1122.0</ele><time>2026-04-24T13:17:06.485Z</time></trkpt><trkpt lat="39.9156183" lon="9.4440217"><ele>1122.0</ele><time>2026-04-24T13:17:07.485Z</time></trkpt><trkpt lat="39.9155283" lon="9.44392"><ele>1122.0</ele><time>2026-04-24T13:17:09.486Z</time></trkpt><trkpt lat="39.9154783" lon="9.44386"><ele>1122.0</ele><time>2026-04-24T13:17:10.486Z</time></trkpt><trkpt lat="39.9154233" lon="9.4437933"><ele>1122.0</ele><time>2026-04-24T13:17:11.485Z</time></trkpt><trkpt lat="39.9153733" lon="9.443735"><ele>1125.5</ele><time>2026-04-24T13:17:12.486Z</time></trkpt><trkpt lat="39.9153217" lon="9.443685"><ele>1129.0</ele><time>2026-04-24T13:17:13.485Z</time></trkpt><trkpt lat="39.9152733" lon="9.4436317"><ele>1132.5</ele><time>2026-04-24T13:17:14.486Z</time></trkpt><trkpt lat="39.9151717" lon="9.44355"><ele>1136.0</ele><time>2026-04-24T13:17:16.486Z</time></trkpt><trkpt lat="39.9149883" lon="9.44332"><ele>1136.0</ele><time>2026-04-24T13:17:20.486Z</time></trkpt><trkpt lat="39.914945" lon="9.4432517"><ele>1136.0</ele><time>2026-04-24T13:17:21.486Z</time></trkpt><trkpt lat="39.9148983" lon="9.443175"><ele>1136.0</ele><time>2026-04-24T13:17:22.486Z</time></trkpt><trkpt lat="39.9148567" lon="9.4430983"><ele>1136.0</ele><time>2026-04-24T13:17:23.485Z</time></trkpt><trkpt lat="39.9148083" lon="9.44304"><ele>1136.0</ele><time>2026-04-24T13:17:24.486Z</time></trkpt><trkpt lat="39.91476" lon="9.4429783"><ele>1136.0</ele><time>2026-04-24T13:17:25.485Z</time></trkpt><trkpt lat="39.914675" lon="9.4429033"><ele>1136.0</ele><time>2026-04-24T13:17:27.485Z</time></trkpt><trkpt lat="39.9146233" lon="9.4428283"><ele>1136.0</ele><time>2026-04-24T13:17:29.485Z</time></trkpt><trkpt lat="39.91469" lon="9.4428033"><ele>1136.0</ele><time>2026-04-24T13:17:33.485Z</time></trkpt><trkpt lat="39.91476" lon="9.4428433"><ele>1136.0</ele><time>2026-04-24T13:17:35.485Z</time></trkpt><trkpt lat="39.914855" lon="9.44289"><ele>1136.0</ele><time>2026-04-24T13:17:37.486Z</time></trkpt><trkpt lat="39.915055" lon="9.4430083"><ele>1140.3999999999999</ele><time>2026-04-24T13:17:41.486Z</time></trkpt><trkpt lat="39.9151683" lon="9.4430683"><ele>1144.8</ele><time>2026-04-24T13:17:43.486Z</time></trkpt><trkpt lat="39.91529" lon="9.4431167"><ele>1149.1999999999998</ele><time>2026-04-24T13:17:45.485Z</time></trkpt><trkpt lat="39.9153567" lon="9.4431533"><ele>1153.6</ele><time>2026-04-24T13:17:46.486Z</time></trkpt><trkpt lat="39.9154283" lon="9.4431817"><ele>1158.0</ele><time>2026-04-24T13:17:47.486Z</time></trkpt><trkpt lat="39.915495" lon="9.4432183"><ele>1158.0</ele><time>2026-04-24T13:17:48.485Z</time></trkpt><trkpt lat="39.91556" lon="9.4432583"><ele>1158.0</ele><time>2026-04-24T13:17:49.486Z</time></trkpt><trkpt lat="39.9156283" lon="9.4432933"><ele>1158.0</ele><time>2026-04-24T13:17:50.485Z</time></trkpt><trkpt lat="39.9156967" lon="9.4433217"><ele>1158.0</ele><time>2026-04-24T13:17:51.486Z</time></trkpt><trkpt lat="39.9158267" lon="9.44335"><ele>1158.0</ele><time>2026-04-24T13:17:53.486Z</time></trkpt><trkpt lat="39.9159017" lon="9.4433633"><ele>1158.0</ele><time>2026-04-24T13:17:54.485Z</time></trkpt><trkpt lat="39.9159683" lon="9.44337"><ele>1160.8</ele><time>2026-04-24T13:17:55.486Z</time></trkpt><trkpt lat="39.9160433" lon="9.443375"><ele>1163.6</ele><time>2026-04-24T13:17:56.485Z</time></trkpt><trkpt lat="39.9161283" lon="9.4433833"><ele>1166.4</ele><time>2026-04-24T13:17:57.486Z</time></trkpt><trkpt lat="39.916205" lon="9.44339"><ele>1169.2</ele><time>2026-04-24T13:17:58.485Z</time></trkpt><trkpt lat="39.916355" lon="9.4434033"><ele>1172.0</ele><time>2026-04-24T13:18:00.485Z</time></trkpt><trkpt lat="39.9164367" lon="9.4434183"><ele>1172.0</ele><time>2026-04-24T13:18:01.485Z</time></trkpt><trkpt lat="39.916525" lon="9.4434333"><ele>1172.0</ele><time>2026-04-24T13:18:02.486Z</time></trkpt><trkpt lat="39.9166233" lon="9.4434417"><ele>1172.0</ele><time>2026-04-24T13:18:03.485Z</time></trkpt><trkpt lat="39.9167333" lon="9.4434667"><ele>1172.0</ele><time>2026-04-24T13:18:04.486Z</time></trkpt><trkpt lat="39.9168433" lon="9.443495"><ele>1172.0</ele><time>2026-04-24T13:18:05.486Z</time></trkpt><trkpt lat="39.9169433" lon="9.44351"><ele>1172.1666666666667</ele><time>2026-04-24T13:18:06.486Z</time></trkpt><trkpt lat="39.91703" lon="9.4435233"><ele>1172.3333333333335</ele><time>2026-04-24T13:18:07.485Z</time></trkpt><trkpt lat="39.9171133" lon="9.4435233"><ele>1172.5</ele><time>2026-04-24T13:18:08.485Z</time></trkpt><trkpt lat="39.9171883" lon="9.4435183"><ele>1172.6666666666667</ele><time>2026-04-24T13:18:09.485Z</time></trkpt><trkpt lat="39.9172617" lon="9.443495"><ele>1172.8333333333333</ele><time>2026-04-24T13:18:10.485Z</time></trkpt><trkpt lat="39.9173483" lon="9.4434567"><ele>1173.0</ele><time>2026-04-24T13:18:11.485Z</time></trkpt><trkpt lat="39.917425" lon="9.4434183"><ele>1173.0</ele><time>2026-04-24T13:18:12.486Z</time></trkpt><trkpt lat="39.91749" lon="9.4433833"><ele>1173.0</ele><time>2026-04-24T13:18:13.486Z</time></trkpt><trkpt lat="39.9175517" lon="9.44333"><ele>1173.0</ele><time>2026-04-24T13:18:14.485Z</time></trkpt><trkpt lat="39.9176067" lon="9.443265"><ele>1173.0</ele><time>2026-04-24T13:18:15.485Z</time></trkpt><trkpt lat="39.91766" lon="9.4431833"><ele>1173.0</ele><time>2026-04-24T13:18:16.485Z</time></trkpt><trkpt lat="39.9177183" lon="9.443095"><ele>1173.0</ele><time>2026-04-24T13:18:17.486Z</time></trkpt><trkpt lat="39.91778" lon="9.4430017"><ele>1172.75</ele><time>2026-04-24T13:18:18.485Z</time></trkpt><trkpt lat="39.9178417" lon="9.4428983"><ele>1172.5</ele><time>2026-04-24T13:18:19.485Z</time></trkpt><trkpt lat="39.9179417" lon="9.442695"><ele>1172.25</ele><time>2026-04-24T13:18:21.485Z</time></trkpt><trkpt lat="39.9179867" lon="9.4426033"><ele>1172.0</ele><time>2026-04-24T13:18:22.485Z</time></trkpt><trkpt lat="39.9180233" lon="9.4425083"><ele>1172.0</ele><time>2026-04-24T13:18:23.485Z</time></trkpt><trkpt lat="39.9180517" lon="9.4424133"><ele>1172.0</ele><time>2026-04-24T13:18:24.486Z</time></trkpt><trkpt lat="39.9180817" lon="9.44233"><ele>1172.0</ele><time>2026-04-24T13:18:25.485Z</time></trkpt><trkpt lat="39.91813" lon="9.4421883"><ele>1172.0</ele><time>2026-04-24T13:18:27.485Z</time></trkpt><trkpt lat="39.9181183" lon="9.4420767"><ele>1172.0</ele><time>2026-04-24T13:18:29.486Z</time></trkpt><trkpt lat="39.91808" lon="9.4419767"><ele>1172.0</ele><time>2026-04-24T13:18:32.486Z</time></trkpt><trkpt lat="39.918025" lon="9.4418717"><ele>1172.0</ele><time>2026-04-24T13:18:34.486Z</time></trkpt><trkpt lat="39.9179317" lon="9.4417683"><ele>1172.0</ele><time>2026-04-24T13:18:36.486Z</time></trkpt><trkpt lat="39.9178583" lon="9.4417317"><ele>1172.0</ele><time>2026-04-24T13:18:37.485Z</time></trkpt><trkpt lat="39.917785" lon="9.4417083"><ele>1172.0</ele><time>2026-04-24T13:18:38.485Z</time></trkpt><trkpt lat="39.9177083" lon="9.4416917"><ele>1172.0</ele><time>2026-04-24T13:18:39.485Z</time></trkpt><trkpt lat="39.9176283" lon="9.441675"><ele>1172.0</ele><time>2026-04-24T13:18:40.485Z</time></trkpt><trkpt lat="39.917475" lon="9.4416483"><ele>1175.0</ele><time>2026-04-24T13:18:42.486Z</time></trkpt><trkpt lat="39.9173917" lon="9.4416283"><ele>1178.0</ele><time>2026-04-24T13:18:43.486Z</time></trkpt><trkpt lat="39.9173033" lon="9.4416117"><ele>1181.0</ele><time>2026-04-24T13:18:44.485Z</time></trkpt><trkpt lat="39.9172017" lon="9.4415967"><ele>1184.0</ele><time>2026-04-24T13:18:45.486Z</time></trkpt><trkpt lat="39.9171033" lon="9.4415867"><ele>1187.0</ele><time>2026-04-24T13:18:46.486Z</time></trkpt><trkpt lat="39.9169983" lon="9.4415733"><ele>1187.0</ele><time>2026-04-24T13:18:47.485Z</time></trkpt><trkpt lat="39.916885" lon="9.441545"><ele>1187.0</ele><time>2026-04-24T13:18:48.485Z</time></trkpt><trkpt lat="39.91677" lon="9.4415117"><ele>1187.0</ele><time>2026-04-24T13:18:49.486Z</time></trkpt><trkpt lat="39.9166533" lon="9.4414817"><ele>1187.0</ele><time>2026-04-24T13:18:50.485Z</time></trkpt><trkpt lat="39.9165433" lon="9.441455"><ele>1189.4</ele><time>2026-04-24T13:18:51.486Z</time></trkpt><trkpt lat="39.9164333" lon="9.441435"><ele>1191.8000000000002</ele><time>2026-04-24T13:18:52.486Z</time></trkpt><trkpt lat="39.9163333" lon="9.441415"><ele>1194.2</ele><time>2026-04-24T13:18:53.486Z</time></trkpt><trkpt lat="39.9162317" lon="9.4413983"><ele>1196.6000000000001</ele><time>2026-04-24T13:18:54.485Z</time></trkpt><trkpt lat="39.9161467" lon="9.4413717"><ele>1199.0</ele><time>2026-04-24T13:18:55.486Z</time></trkpt><trkpt lat="39.916065" lon="9.4413233"><ele>1197.4</ele><time>2026-04-24T13:18:56.485Z</time></trkpt><trkpt lat="39.915995" lon="9.4412717"><ele>1195.8000000000002</ele><time>2026-04-24T13:18:57.485Z</time></trkpt><trkpt lat="39.91592" lon="9.441215"><ele>1194.1999999999998</ele><time>2026-04-24T13:18:58.485Z</time></trkpt><trkpt lat="39.91583" lon="9.44117"><ele>1192.6</ele><time>2026-04-24T13:18:59.486Z</time></trkpt><trkpt lat="39.91573" lon="9.4411233"><ele>1191.0</ele><time>2026-04-24T13:19:00.486Z</time></trkpt><trkpt lat="39.91562" lon="9.441075"><ele>1191.0</ele><time>2026-04-24T13:19:01.485Z</time></trkpt><trkpt lat="39.9153867" lon="9.440975"><ele>1191.0</ele><time>2026-04-24T13:19:03.486Z</time></trkpt><trkpt lat="39.9152717" lon="9.440935"><ele>1191.0</ele><time>2026-04-24T13:19:04.486Z</time></trkpt><trkpt lat="39.9151617" lon="9.4409"><ele>1193.5</ele><time>2026-04-24T13:19:05.485Z</time></trkpt><trkpt lat="39.9150567" lon="9.4408667"><ele>1196.0</ele><time>2026-04-24T13:19:06.485Z</time></trkpt><trkpt lat="39.9149683" lon="9.4408317"><ele>1198.5</ele><time>2026-04-24T13:19:07.486Z</time></trkpt><trkpt lat="39.9148867" lon="9.440795"><ele>1201.0</ele><time>2026-04-24T13:19:08.485Z</time></trkpt><trkpt lat="39.914815" lon="9.44075"><ele>1203.5</ele><time>2026-04-24T13:19:09.485Z</time></trkpt><trkpt lat="39.9147567" lon="9.4406933"><ele>1206.0</ele><time>2026-04-24T13:19:10.485Z</time></trkpt><trkpt lat="39.9146933" lon="9.4406133"><ele>1206.0</ele><time>2026-04-24T13:19:11.486Z</time></trkpt><trkpt lat="39.9146333" lon="9.440525"><ele>1206.0</ele><time>2026-04-24T13:19:12.486Z</time></trkpt><trkpt lat="39.914565" lon="9.4404383"><ele>1206.0</ele><time>2026-04-24T13:19:13.485Z</time></trkpt><trkpt lat="39.9144883" lon="9.44035"><ele>1206.0</ele><time>2026-04-24T13:19:14.485Z</time></trkpt><trkpt lat="39.914415" lon="9.4402667"><ele>1206.0</ele><time>2026-04-24T13:19:15.485Z</time></trkpt><trkpt lat="39.9143483" lon="9.44018"><ele>1206.8</ele><time>2026-04-24T13:19:16.485Z</time></trkpt><trkpt lat="39.9142833" lon="9.44011"><ele>1207.6</ele><time>2026-04-24T13:19:17.485Z</time></trkpt><trkpt lat="39.9142283" lon="9.4400467"><ele>1208.4</ele><time>2026-04-24T13:19:18.486Z</time></trkpt><trkpt lat="39.91414" lon="9.4399917"><ele>1209.2</ele><time>2026-04-24T13:19:20.485Z</time></trkpt><trkpt lat="39.9140833" lon="9.440065"><ele>1210.0</ele><time>2026-04-24T13:19:22.485Z</time></trkpt><trkpt lat="39.914025" lon="9.44033"><ele>1210.0</ele><time>2026-04-24T13:19:26.486Z</time></trkpt><trkpt lat="39.9140417" lon="9.4404117"><ele>1210.0</ele><time>2026-04-24T13:19:27.486Z</time></trkpt><trkpt lat="39.9140933" lon="9.44056"><ele>1210.0</ele><time>2026-04-24T13:19:29.485Z</time></trkpt><trkpt lat="39.9141467" lon="9.4406967"><ele>1210.0</ele><time>2026-04-24T13:19:31.486Z</time></trkpt><trkpt lat="39.9141967" lon="9.4407617"><ele>1210.0</ele><time>2026-04-24T13:19:33.486Z</time></trkpt><trkpt lat="39.9142783" lon="9.4408033"><ele>1210.0</ele><time>2026-04-24T13:19:36.486Z</time></trkpt><trkpt lat="39.9142183" lon="9.440765"><ele>1210.0</ele><time>2026-04-24T13:45:55.481Z</time></trkpt><trkpt lat="39.9141233" lon="9.4406183"><ele>1210.0</ele><time>2026-04-24T13:45:59.482Z</time></trkpt><trkpt lat="39.9140967" lon="9.440535"><ele>1210.0</ele><time>2026-04-24T13:46:01.481Z</time></trkpt><trkpt lat="39.9140733" lon="9.4404483"><ele>1210.0</ele><time>2026-04-24T13:46:03.481Z</time></trkpt><trkpt lat="39.91405" lon="9.4403683"><ele>1210.0</ele><time>2026-04-24T13:46:05.481Z</time></trkpt><trkpt lat="39.9140383" lon="9.4402817"><ele>1210.0</ele><time>2026-04-24T13:46:07.482Z</time></trkpt><trkpt lat="39.9140567" lon="9.4401883"><ele>1210.0</ele><time>2026-04-24T13:46:09.482Z</time></trkpt><trkpt lat="39.9140883" lon="9.44011"><ele>1210.0</ele><time>2026-04-24T13:46:11.481Z</time></trkpt><trkpt lat="39.9141383" lon="9.44002"><ele>1210.0</ele><time>2026-04-24T13:46:14.481Z</time></trkpt><trkpt lat="39.9142133" lon="9.4400133"><ele>1210.0</ele><time>2026-04-24T13:46:17.481Z</time></trkpt><trkpt lat="39.9143183" lon="9.4401667"><ele>1209.2</ele><time>2026-04-24T13:46:21.481Z</time></trkpt><trkpt lat="39.9144067" lon="9.4402833"><ele>1208.4</ele><time>2026-04-24T13:46:23.481Z</time></trkpt><trkpt lat="39.9144683" lon="9.4403533"><ele>1207.6</ele><time>2026-04-24T13:46:24.481Z</time></trkpt><trkpt lat="39.9145333" lon="9.4404283"><ele>1206.8</ele><time>2026-04-24T13:46:25.482Z</time></trkpt><trkpt lat="39.9145967" lon="9.4405"><ele>1206.0</ele><time>2026-04-24T13:46:26.482Z</time></trkpt><trkpt lat="39.914655" lon="9.4405667"><ele>1206.0</ele><time>2026-04-24T13:46:27.481Z</time></trkpt><trkpt lat="39.9147067" lon="9.4406317"><ele>1206.0</ele><time>2026-04-24T13:46:28.481Z</time></trkpt><trkpt lat="39.914795" lon="9.44074"><ele>1206.0</ele><time>2026-04-24T13:46:30.482Z</time></trkpt><trkpt lat="39.9148483" lon="9.4407917"><ele>1206.0</ele><time>2026-04-24T13:46:31.481Z</time></trkpt><trkpt lat="39.91491" lon="9.4408367"><ele>1206.0</ele><time>2026-04-24T13:46:32.481Z</time></trkpt><trkpt lat="39.9149733" lon="9.4408633"><ele>1206.0</ele><time>2026-04-24T13:46:33.481Z</time></trkpt><trkpt lat="39.9150433" lon="9.4408883"><ele>1203.0</ele><time>2026-04-24T13:46:34.482Z</time></trkpt><trkpt lat="39.915125" lon="9.440915"><ele>1200.0</ele><time>2026-04-24T13:46:35.482Z</time></trkpt><trkpt lat="39.9152083" lon="9.4409417"><ele>1197.0</ele><time>2026-04-24T13:46:36.482Z</time></trkpt><trkpt lat="39.9152967" lon="9.44096"><ele>1194.0</ele><time>2026-04-24T13:46:37.481Z</time></trkpt><trkpt lat="39.9153867" lon="9.4409817"><ele>1191.0</ele><time>2026-04-24T13:46:38.481Z</time></trkpt><trkpt lat="39.9155683" lon="9.4410533"><ele>1191.0</ele><time>2026-04-24T13:46:40.481Z</time></trkpt><trkpt lat="39.9156583" lon="9.4410883"><ele>1191.0</ele><time>2026-04-24T13:46:41.482Z</time></trkpt><trkpt lat="39.9157467" lon="9.44113"><ele>1191.0</ele><time>2026-04-24T13:46:42.482Z</time></trkpt><trkpt lat="39.9158217" lon="9.441165"><ele>1191.0</ele><time>2026-04-24T13:46:43.482Z</time></trkpt><trkpt lat="39.91589" lon="9.4412017"><ele>1191.0</ele><time>2026-04-24T13:46:44.481Z</time></trkpt><trkpt lat="39.91595" lon="9.4412317"><ele>1191.0</ele><time>2026-04-24T13:46:45.482Z</time></trkpt><trkpt lat="39.9160617" lon="9.4413017"><ele>1192.142857142857</ele><time>2026-04-24T13:46:47.482Z</time></trkpt><trkpt lat="39.9161183" lon="9.441345"><ele>1193.2857142857142</ele><time>2026-04-24T13:46:48.482Z</time></trkpt><trkpt lat="39.91618" lon="9.4413767"><ele>1194.4285714285716</ele><time>2026-04-24T13:46:49.482Z</time></trkpt><trkpt lat="39.9162467" lon="9.441405"><ele>1195.5714285714284</ele><time>2026-04-24T13:46:50.481Z</time></trkpt><trkpt lat="39.9163133" lon="9.44143"><ele>1196.7142857142856</ele><time>2026-04-24T13:46:51.482Z</time></trkpt><trkpt lat="39.91639" lon="9.4414467"><ele>1197.857142857143</ele><time>2026-04-24T13:46:52.481Z</time></trkpt><trkpt lat="39.9164667" lon="9.441455"><ele>1199.0</ele><time>2026-04-24T13:46:53.481Z</time></trkpt><trkpt lat="39.9165433" lon="9.4414667"><ele>1199.0</ele><time>2026-04-24T13:46:54.482Z</time></trkpt><trkpt lat="39.91662" lon="9.4414833"><ele>1199.0</ele><time>2026-04-24T13:46:55.482Z</time></trkpt><trkpt lat="39.9166967" lon="9.4415067"><ele>1199.0</ele><time>2026-04-24T13:46:56.481Z</time></trkpt><trkpt lat="39.91677" lon="9.4415283"><ele>1199.0</ele><time>2026-04-24T13:46:57.481Z</time></trkpt><trkpt lat="39.9168617" lon="9.4415517"><ele>1199.0</ele><time>2026-04-24T13:46:58.481Z</time></trkpt><trkpt lat="39.9169583" lon="9.441575"><ele>1199.0</ele><time>2026-04-24T13:46:59.481Z</time></trkpt><trkpt lat="39.9171317" lon="9.441605"><ele>1197.0</ele><time>2026-04-24T13:47:01.482Z</time></trkpt><trkpt lat="39.917205" lon="9.44161"><ele>1195.0</ele><time>2026-04-24T13:47:02.482Z</time></trkpt><trkpt lat="39.9172717" lon="9.4416267"><ele>1193.0</ele><time>2026-04-24T13:47:03.481Z</time></trkpt><trkpt lat="39.9173733" lon="9.4416433"><ele>1191.0</ele><time>2026-04-24T13:47:05.482Z</time></trkpt><trkpt lat="39.9174667" lon="9.4416683"><ele>1189.0</ele><time>2026-04-24T13:47:07.481Z</time></trkpt><trkpt lat="39.9175733" lon="9.44169"><ele>1187.0</ele><time>2026-04-24T13:47:09.482Z</time></trkpt><trkpt lat="39.9176783" lon="9.441715"><ele>1184.0</ele><time>2026-04-24T13:47:11.482Z</time></trkpt><trkpt lat="39.9177917" lon="9.4417367"><ele>1181.0</ele><time>2026-04-24T13:47:13.481Z</time></trkpt><trkpt lat="39.9179083" lon="9.44179"><ele>1178.0</ele><time>2026-04-24T13:47:15.482Z</time></trkpt><trkpt lat="39.9179983" lon="9.4418667"><ele>1175.0</ele><time>2026-04-24T13:47:17.481Z</time></trkpt><trkpt lat="39.9180667" lon="9.4419617"><ele>1172.0</ele><time>2026-04-24T13:47:19.482Z</time></trkpt><trkpt lat="39.91811" lon="9.4420817"><ele>1172.0</ele><time>2026-04-24T13:47:21.482Z</time></trkpt><trkpt lat="39.9180967" lon="9.4423067"><ele>1172.0</ele><time>2026-04-24T13:47:25.481Z</time></trkpt><trkpt lat="39.918025" lon="9.44243"><ele>1172.0</ele><time>2026-04-24T13:47:27.481Z</time></trkpt><trkpt lat="39.9179917" lon="9.442505"><ele>1172.0</ele><time>2026-04-24T13:47:28.482Z</time></trkpt><trkpt lat="39.9179633" lon="9.442595"><ele>1172.0</ele><time>2026-04-24T13:47:29.482Z</time></trkpt><trkpt lat="39.9179383" lon="9.4426817"><ele>1172.0</ele><time>2026-04-24T13:47:30.481Z</time></trkpt><trkpt lat="39.9179033" lon="9.4427633"><ele>1172.0</ele><time>2026-04-24T13:47:31.481Z</time></trkpt><trkpt lat="39.9178567" lon="9.44285"><ele>1172.0</ele><time>2026-04-24T13:47:32.482Z</time></trkpt><trkpt lat="39.917805" lon="9.4429433"><ele>1172.0</ele><time>2026-04-24T13:47:33.481Z</time></trkpt><trkpt lat="39.9177517" lon="9.4430317"><ele>1172.0</ele><time>2026-04-24T13:47:34.482Z</time></trkpt><trkpt lat="39.9176967" lon="9.44311"><ele>1172.0</ele><time>2026-04-24T13:47:35.481Z</time></trkpt><trkpt lat="39.9176433" lon="9.44318"><ele>1172.2</ele><time>2026-04-24T13:47:36.481Z</time></trkpt><trkpt lat="39.917595" lon="9.4432517"><ele>1172.4</ele><time>2026-04-24T13:47:37.481Z</time></trkpt><trkpt lat="39.9175167" lon="9.44336"><ele>1172.6</ele><time>2026-04-24T13:47:39.482Z</time></trkpt><trkpt lat="39.9174033" lon="9.4434317"><ele>1172.8</ele><time>2026-04-24T13:47:41.482Z</time></trkpt><trkpt lat="39.9173383" lon="9.4434583"><ele>1173.0</ele><time>2026-04-24T13:47:42.481Z</time></trkpt><trkpt lat="39.917155" lon="9.4435067"><ele>1173.0</ele><time>2026-04-24T13:47:45.481Z</time></trkpt><trkpt lat="39.9170367" lon="9.44352"><ele>1173.0</ele><time>2026-04-24T13:47:47.481Z</time></trkpt><trkpt lat="39.9169733" lon="9.44351"><ele>1173.0</ele><time>2026-04-24T13:47:48.482Z</time></trkpt><trkpt lat="39.916905" lon="9.4434967"><ele>1173.0</ele><time>2026-04-24T13:47:49.482Z</time></trkpt><trkpt lat="39.9168333" lon="9.443475"><ele>1173.0</ele><time>2026-04-24T13:47:50.481Z</time></trkpt><trkpt lat="39.9167617" lon="9.4434567"><ele>1173.0</ele><time>2026-04-24T13:47:51.482Z</time></trkpt><trkpt lat="39.9166783" lon="9.44344"><ele>1172.8333333333333</ele><time>2026-04-24T13:47:52.482Z</time></trkpt><trkpt lat="39.9165933" lon="9.4434317"><ele>1172.6666666666667</ele><time>2026-04-24T13:47:53.481Z</time></trkpt><trkpt lat="39.9165083" lon="9.443425"><ele>1172.5</ele><time>2026-04-24T13:47:54.482Z</time></trkpt><trkpt lat="39.9164267" lon="9.4434283"><ele>1172.3333333333335</ele><time>2026-04-24T13:47:55.482Z</time></trkpt><trkpt lat="39.9163533" lon="9.4434267"><ele>1172.1666666666667</ele><time>2026-04-24T13:47:56.482Z</time></trkpt><trkpt lat="39.9162883" lon="9.4434233"><ele>1172.0</ele><time>2026-04-24T13:47:57.481Z</time></trkpt><trkpt lat="39.9161667" lon="9.4434167"><ele>1172.0</ele><time>2026-04-24T13:47:59.481Z</time></trkpt><trkpt lat="39.9160933" lon="9.4434033"><ele>1172.0</ele><time>2026-04-24T13:48:00.482Z</time></trkpt><trkpt lat="39.9160233" lon="9.4433867"><ele>1172.0</ele><time>2026-04-24T13:48:01.481Z</time></trkpt><trkpt lat="39.9159433" lon="9.44338"><ele>1172.0</ele><time>2026-04-24T13:48:02.481Z</time></trkpt><trkpt lat="39.9158667" lon="9.443375"><ele>1172.0</ele><time>2026-04-24T13:48:03.482Z</time></trkpt><trkpt lat="39.9157117" lon="9.4433367"><ele>1169.6666666666667</ele><time>2026-04-24T13:48:05.482Z</time></trkpt><trkpt lat="39.9156417" lon="9.4433133"><ele>1167.3333333333335</ele><time>2026-04-24T13:48:06.482Z</time></trkpt><trkpt lat="39.9155783" lon="9.4432867"><ele>1165.0</ele><time>2026-04-24T13:48:07.481Z</time></trkpt><trkpt lat="39.9155133" lon="9.443235"><ele>1162.6666666666667</ele><time>2026-04-24T13:48:08.481Z</time></trkpt><trkpt lat="39.9154383" lon="9.4431933"><ele>1160.3333333333333</ele><time>2026-04-24T13:48:09.482Z</time></trkpt><trkpt lat="39.9153617" lon="9.4431583"><ele>1158.0</ele><time>2026-04-24T13:48:10.482Z</time></trkpt><trkpt lat="39.91529" lon="9.4431233"><ele>1157.9999999999998</ele><time>2026-04-24T13:48:11.481Z</time></trkpt><trkpt lat="39.9152183" lon="9.4430883"><ele>1158.0</ele><time>2026-04-24T13:48:12.481Z</time></trkpt><trkpt lat="39.9151467" lon="9.44305"><ele>1158.0</ele><time>2026-04-24T13:48:13.482Z</time></trkpt><trkpt lat="39.9150833" lon="9.4430167"><ele>1158.0</ele><time>2026-04-24T13:48:14.482Z</time></trkpt><trkpt lat="39.9150183" lon="9.4429833"><ele>1158.0</ele><time>2026-04-24T13:48:15.481Z</time></trkpt><trkpt lat="39.914955" lon="9.44295"><ele>1157.9999999999998</ele><time>2026-04-24T13:48:16.482Z</time></trkpt><trkpt lat="39.9148967" lon="9.442915"><ele>1158.0</ele><time>2026-04-24T13:48:17.481Z</time></trkpt><trkpt lat="39.9148383" lon="9.4428817"><ele>1160.6</ele><time>2026-04-24T13:48:18.482Z</time></trkpt><trkpt lat="39.9147383" lon="9.4428317"><ele>1163.1999999999998</ele><time>2026-04-24T13:48:20.482Z</time></trkpt><trkpt lat="39.9146633" lon="9.4428"><ele>1165.8</ele><time>2026-04-24T13:48:22.482Z</time></trkpt><trkpt lat="39.9145967" lon="9.4428067"><ele>1168.3999999999999</ele><time>2026-04-24T13:48:24.481Z</time></trkpt><trkpt lat="39.9147367" lon="9.442915"><ele>1171.0</ele><time>2026-04-24T13:48:37.482Z</time></trkpt><trkpt lat="39.9148233" lon="9.4430067"><ele>1168.3999999999999</ele><time>2026-04-24T13:48:39.481Z</time></trkpt><trkpt lat="39.9149" lon="9.44313"><ele>1165.8</ele><time>2026-04-24T13:48:41.482Z</time></trkpt><trkpt lat="39.914975" lon="9.4432533"><ele>1163.1999999999998</ele><time>2026-04-24T13:48:43.481Z</time></trkpt><trkpt lat="39.9150233" lon="9.4433183"><ele>1160.6</ele><time>2026-04-24T13:48:44.482Z</time></trkpt><trkpt lat="39.9150667" lon="9.4433783"><ele>1158.0</ele><time>2026-04-24T13:48:45.482Z</time></trkpt><trkpt lat="39.9152083" lon="9.443545"><ele>1158.0</ele><time>2026-04-24T13:48:48.481Z</time></trkpt><trkpt lat="39.91531" lon="9.4436417"><ele>1158.0</ele><time>2026-04-24T13:48:50.481Z</time></trkpt><trkpt lat="39.915355" lon="9.4437033"><ele>1158.0</ele><time>2026-04-24T13:48:51.482Z</time></trkpt><trkpt lat="39.9153967" lon="9.4437667"><ele>1158.0</ele><time>2026-04-24T13:48:52.481Z</time></trkpt><trkpt lat="39.9154467" lon="9.4438217"><ele>1158.0</ele><time>2026-04-24T13:48:53.482Z</time></trkpt><trkpt lat="39.9155033" lon="9.4438733"><ele>1158.0</ele><time>2026-04-24T13:48:54.481Z</time></trkpt><trkpt lat="39.9155633" lon="9.44393"><ele>1154.2</ele><time>2026-04-24T13:48:55.481Z</time></trkpt><trkpt lat="39.915615" lon="9.44399"><ele>1150.4</ele><time>2026-04-24T13:48:56.482Z</time></trkpt><trkpt lat="39.9156617" lon="9.4440517"><ele>1146.6000000000001</ele><time>2026-04-24T13:48:57.482Z</time></trkpt><trkpt lat="39.9157517" lon="9.4441533"><ele>1142.8</ele><time>2026-04-24T13:48:59.481Z</time></trkpt><trkpt lat="39.9158483" lon="9.444245"><ele>1139.0</ele><time>2026-04-24T13:49:01.481Z</time></trkpt><trkpt lat="39.9159483" lon="9.44431"><ele>1139.0</ele><time>2026-04-24T13:49:03.48Z</time></trkpt><trkpt lat="39.9160483" lon="9.4443617"><ele>1139.0</ele><time>2026-04-24T13:49:05.481Z</time></trkpt><trkpt lat="39.9161333" lon="9.4443883"><ele>1139.0</ele><time>2026-04-24T13:49:07.48Z</time></trkpt><trkpt lat="39.9162933" lon="9.4445117"><ele>1139.0</ele><time>2026-04-24T13:49:10.481Z</time></trkpt><trkpt lat="39.9163683" lon="9.444655"><ele>1134.8333333333335</ele><time>2026-04-24T13:49:12.48Z</time></trkpt><trkpt lat="39.9163983" lon="9.4447433"><ele>1130.6666666666667</ele><time>2026-04-24T13:49:13.48Z</time></trkpt><trkpt lat="39.9164317" lon="9.4448317"><ele>1126.5</ele><time>2026-04-24T13:49:14.48Z</time></trkpt><trkpt lat="39.91646" lon="9.4449133"><ele>1122.3333333333333</ele><time>2026-04-24T13:49:15.48Z</time></trkpt><trkpt lat="39.9164917" lon="9.4449883"><ele>1118.1666666666665</ele><time>2026-04-24T13:49:16.481Z</time></trkpt><trkpt lat="39.9165183" lon="9.445065"><ele>1114.0</ele><time>2026-04-24T13:49:17.48Z</time></trkpt><trkpt lat="39.9165533" lon="9.4451967"><ele>1114.0</ele><time>2026-04-24T13:49:19.48Z</time></trkpt><trkpt lat="39.9165617" lon="9.4453683"><ele>1114.0</ele><time>2026-04-24T13:49:21.48Z</time></trkpt><trkpt lat="39.9165583" lon="9.44546"><ele>1114.0</ele><time>2026-04-24T13:49:22.48Z</time></trkpt><trkpt lat="39.91655" lon="9.4455433"><ele>1114.0</ele><time>2026-04-24T13:49:23.481Z</time></trkpt><trkpt lat="39.916555" lon="9.4456967"><ele>1114.0</ele><time>2026-04-24T13:49:25.48Z</time></trkpt><trkpt lat="39.916575" lon="9.4458467"><ele>1110.25</ele><time>2026-04-24T13:49:27.48Z</time></trkpt><trkpt lat="39.91657" lon="9.4459983"><ele>1106.5</ele><time>2026-04-24T13:49:29.481Z</time></trkpt><trkpt lat="39.91651" lon="9.446285"><ele>1102.75</ele><time>2026-04-24T13:49:33.481Z</time></trkpt><trkpt lat="39.916495" lon="9.44642"><ele>1099.0</ele><time>2026-04-24T13:49:35.481Z</time></trkpt><trkpt lat="39.9164867" lon="9.4465933"><ele>1097.3333333333333</ele><time>2026-04-24T13:49:37.481Z</time></trkpt><trkpt lat="39.91647" lon="9.4466883"><ele>1095.6666666666665</ele><time>2026-04-24T13:49:38.48Z</time></trkpt><trkpt lat="39.9164533" lon="9.4467833"><ele>1094.0</ele><time>2026-04-24T13:49:39.481Z</time></trkpt><trkpt lat="39.9164317" lon="9.4468767"><ele>1092.3333333333333</ele><time>2026-04-24T13:49:40.481Z</time></trkpt><trkpt lat="39.9164083" lon="9.4469683"><ele>1090.6666666666667</ele><time>2026-04-24T13:49:41.48Z</time></trkpt><trkpt lat="39.916385" lon="9.44705"><ele>1089.0</ele><time>2026-04-24T13:49:42.481Z</time></trkpt><trkpt lat="39.9163417" lon="9.4472017"><ele>1086.8</ele><time>2026-04-24T13:49:44.481Z</time></trkpt><trkpt lat="39.9162917" lon="9.44735"><ele>1084.6000000000001</ele><time>2026-04-24T13:49:46.481Z</time></trkpt><trkpt lat="39.9162733" lon="9.4474333"><ele>1082.4</ele><time>2026-04-24T13:49:47.481Z</time></trkpt><trkpt lat="39.9162933" lon="9.4475667"><ele>1080.2</ele><time>2026-04-24T13:49:49.481Z</time></trkpt><trkpt lat="39.9163583" lon="9.44767"><ele>1078.0</ele><time>2026-04-24T13:49:51.481Z</time></trkpt><trkpt lat="39.9164933" lon="9.4477917"><ele>1078.0</ele><time>2026-04-24T13:49:55.481Z</time></trkpt><trkpt lat="39.9165467" lon="9.4478533"><ele>1078.0</ele><time>2026-04-24T13:49:57.481Z</time></trkpt><trkpt lat="39.9165267" lon="9.4479567"><ele>1078.0</ele><time>2026-04-24T13:50:00.48Z</time></trkpt><trkpt lat="39.916445" lon="9.448075"><ele>1078.0</ele><time>2026-04-24T13:50:02.48Z</time></trkpt><trkpt lat="39.9163367" lon="9.44812"><ele>1078.0</ele><time>2026-04-24T13:50:04.48Z</time></trkpt><trkpt lat="39.9162333" lon="9.4481117"><ele>1078.0</ele><time>2026-04-24T13:50:06.481Z</time></trkpt><trkpt lat="39.9161383" lon="9.4480683"><ele>1078.0</ele><time>2026-04-24T13:50:08.48Z</time></trkpt><trkpt lat="39.9160417" lon="9.44799"><ele>1078.0</ele><time>2026-04-24T13:50:10.481Z</time></trkpt><trkpt lat="39.9159817" lon="9.4479333"><ele>1078.0</ele><time>2026-04-24T13:50:11.481Z</time></trkpt><trkpt lat="39.9159233" lon="9.44787"><ele>1078.0</ele><time>2026-04-24T13:50:12.481Z</time></trkpt><trkpt lat="39.9158233" lon="9.447745"><ele>1075.6666666666665</ele><time>2026-04-24T13:50:14.48Z</time></trkpt><trkpt lat="39.9157817" lon="9.4476683"><ele>1073.3333333333333</ele><time>2026-04-24T13:50:15.481Z</time></trkpt><trkpt lat="39.9157267" lon="9.447545"><ele>1071.0</ele><time>2026-04-24T13:50:17.48Z</time></trkpt><trkpt lat="39.9156667" lon="9.447475"><ele>1068.6666666666667</ele><time>2026-04-24T13:50:19.481Z</time></trkpt><trkpt lat="39.91561" lon="9.4475317"><ele>1066.3333333333335</ele><time>2026-04-24T13:50:21.48Z</time></trkpt><trkpt lat="39.915595" lon="9.447645"><ele>1064.0</ele><time>2026-04-24T13:50:23.481Z</time></trkpt><trkpt lat="39.9155933" lon="9.4477717"><ele>1064.0</ele><time>2026-04-24T13:50:25.48Z</time></trkpt><trkpt lat="39.915585" lon="9.44792"><ele>1064.0</ele><time>2026-04-24T13:50:27.48Z</time></trkpt><trkpt lat="39.915575" lon="9.4480783"><ele>1064.0</ele><time>2026-04-24T13:50:29.481Z</time></trkpt><trkpt lat="39.9155817" lon="9.44816"><ele>1064.0</ele><time>2026-04-24T13:50:30.48Z</time></trkpt><trkpt lat="39.9156167" lon="9.4483067"><ele>1064.0</ele><time>2026-04-24T13:50:32.481Z</time></trkpt><trkpt lat="39.9156467" lon="9.44838"><ele>1062.2</ele><time>2026-04-24T13:50:33.481Z</time></trkpt><trkpt lat="39.91575" lon="9.448565"><ele>1060.4</ele><time>2026-04-24T13:50:35.48Z</time></trkpt><trkpt lat="39.9158133" lon="9.448645"><ele>1058.6</ele><time>2026-04-24T13:50:36.48Z</time></trkpt><trkpt lat="39.915875" lon="9.4487233"><ele>1056.8</ele><time>2026-04-24T13:50:37.48Z</time></trkpt><trkpt lat="39.91592" lon="9.4487983"><ele>1055.0</ele><time>2026-04-24T13:50:38.481Z</time></trkpt><trkpt lat="39.9159817" lon="9.448875"><ele>1053.0</ele><time>2026-04-24T13:50:39.48Z</time></trkpt><trkpt lat="39.9160367" lon="9.4489367"><ele>1051.0</ele><time>2026-04-24T13:50:40.48Z</time></trkpt><trkpt lat="39.9160917" lon="9.4489817"><ele>1049.0</ele><time>2026-04-24T13:50:41.48Z</time></trkpt><trkpt lat="39.9161883" lon="9.4490483"><ele>1047.0</ele><time>2026-04-24T13:50:43.48Z</time></trkpt><trkpt lat="39.9162883" lon="9.4490833"><ele>1045.0</ele><time>2026-04-24T13:50:45.481Z</time></trkpt><trkpt lat="39.91636" lon="9.4490917"><ele>1043.0</ele><time>2026-04-24T13:50:46.481Z</time></trkpt><trkpt lat="39.9164383" lon="9.4490817"><ele>1043.0</ele><time>2026-04-24T13:50:47.48Z</time></trkpt><trkpt lat="39.9165267" lon="9.4490517"><ele>1043.0</ele><time>2026-04-24T13:50:48.48Z</time></trkpt><trkpt lat="39.9166183" lon="9.4490117"><ele>1043.0</ele><time>2026-04-24T13:50:49.48Z</time></trkpt><trkpt lat="39.9166983" lon="9.4489533"><ele>1043.0</ele><time>2026-04-24T13:50:50.481Z</time></trkpt><trkpt lat="39.91678" lon="9.448895"><ele>1043.0</ele><time>2026-04-24T13:50:51.481Z</time></trkpt><trkpt lat="39.9168667" lon="9.4488317"><ele>1043.3333333333335</ele><time>2026-04-24T13:50:52.48Z</time></trkpt><trkpt lat="39.9169467" lon="9.44879"><ele>1043.6666666666667</ele><time>2026-04-24T13:50:53.481Z</time></trkpt><trkpt lat="39.91702" lon="9.448755"><ele>1044.0</ele><time>2026-04-24T13:50:54.481Z</time></trkpt><trkpt lat="39.91715" lon="9.4486767"><ele>1044.3333333333333</ele><time>2026-04-24T13:50:56.48Z</time></trkpt><trkpt lat="39.9172117" lon="9.4486383"><ele>1044.6666666666665</ele><time>2026-04-24T13:50:57.481Z</time></trkpt><trkpt lat="39.917265" lon="9.4485867"><ele>1045.0</ele><time>2026-04-24T13:50:58.481Z</time></trkpt><trkpt lat="39.917315" lon="9.4485233"><ele>1045.0</ele><time>2026-04-24T13:50:59.481Z</time></trkpt><trkpt lat="39.91737" lon="9.4484633"><ele>1045.0</ele><time>2026-04-24T13:51:00.48Z</time></trkpt><trkpt lat="39.9174217" lon="9.44841"><ele>1045.0</ele><time>2026-04-24T13:51:01.48Z</time></trkpt><trkpt lat="39.9174717" lon="9.4483583"><ele>1045.0</ele><time>2026-04-24T13:51:02.48Z</time></trkpt><trkpt lat="39.9175333" lon="9.4482833"><ele>1045.0</ele><time>2026-04-24T13:51:04.481Z</time></trkpt><trkpt lat="39.9176233" lon="9.44826"><ele>1045.0</ele><time>2026-04-24T13:51:06.48Z</time></trkpt><trkpt lat="39.9177217" lon="9.4483117"><ele>1043.0</ele><time>2026-04-24T13:51:08.48Z</time></trkpt><trkpt lat="39.917825" lon="9.4484017"><ele>1041.0</ele><time>2026-04-24T13:51:10.48Z</time></trkpt><trkpt lat="39.9178833" lon="9.4484417"><ele>1039.0</ele><time>2026-04-24T13:51:11.48Z</time></trkpt><trkpt lat="39.917945" lon="9.448485"><ele>1037.0</ele><time>2026-04-24T13:51:12.48Z</time></trkpt><trkpt lat="39.9180267" lon="9.4485167"><ele>1035.0</ele><time>2026-04-24T13:51:13.481Z</time></trkpt><trkpt lat="39.9181117" lon="9.4485467"><ele>1033.0</ele><time>2026-04-24T13:51:14.48Z</time></trkpt><trkpt lat="39.9181933" lon="9.4485717"><ele>1033.0</ele><time>2026-04-24T13:51:15.481Z</time></trkpt><trkpt lat="39.9183217" lon="9.4486417"><ele>1033.0</ele><time>2026-04-24T13:51:17.48Z</time></trkpt><trkpt lat="39.91839" lon="9.4486817"><ele>1033.0</ele><time>2026-04-24T13:51:18.481Z</time></trkpt><trkpt lat="39.9184583" lon="9.4487067"><ele>1033.0</ele><time>2026-04-24T13:51:19.48Z</time></trkpt><trkpt lat="39.91853" lon="9.4487217"><ele>1033.0</ele><time>2026-04-24T13:51:20.481Z</time></trkpt><trkpt lat="39.9185917" lon="9.4487417"><ele>1033.0</ele><time>2026-04-24T13:51:21.481Z</time></trkpt><trkpt lat="39.9187167" lon="9.4487417"><ele>1030.3333333333333</ele><time>2026-04-24T13:51:23.48Z</time></trkpt><trkpt lat="39.9187967" lon="9.4487283"><ele>1027.6666666666665</ele><time>2026-04-24T13:51:24.48Z</time></trkpt><trkpt lat="39.9188617" lon="9.4487133"><ele>1025.0</ele><time>2026-04-24T13:51:25.481Z</time></trkpt><trkpt lat="39.9189333" lon="9.4486933"><ele>1022.3333333333333</ele><time>2026-04-24T13:51:26.481Z</time></trkpt><trkpt lat="39.9190017" lon="9.4486767"><ele>1019.6666666666666</ele><time>2026-04-24T13:51:27.48Z</time></trkpt><trkpt lat="39.9190683" lon="9.44867"><ele>1017.0</ele><time>2026-04-24T13:51:28.48Z</time></trkpt><trkpt lat="39.9191767" lon="9.44863"><ele>1012.5</ele><time>2026-04-24T13:51:30.48Z</time></trkpt><trkpt lat="39.91927" lon="9.4485583"><ele>1008.0</ele><time>2026-04-24T13:51:32.481Z</time></trkpt><trkpt lat="39.9193317" lon="9.4484717"><ele>1003.5</ele><time>2026-04-24T13:51:34.48Z</time></trkpt><trkpt lat="39.9193667" lon="9.4483967"><ele>999.0</ele><time>2026-04-24T13:51:36.48Z</time></trkpt><trkpt lat="39.919395" lon="9.4481467"><ele>999.0</ele><time>2026-04-24T13:51:40.481Z</time></trkpt><trkpt lat="39.9194133" lon="9.4480633"><ele>999.0000000000001</ele><time>2026-04-24T13:51:42.481Z</time></trkpt><trkpt lat="39.9194733" lon="9.44813"><ele>999.0000000000001</ele><time>2026-04-24T13:52:09.48Z</time></trkpt><trkpt lat="39.919505" lon="9.448365"><ele>999.0</ele><time>2026-04-24T13:52:13.48Z</time></trkpt><trkpt lat="39.9195683" lon="9.448465"><ele>999.0</ele><time>2026-04-24T13:52:15.481Z</time></trkpt><trkpt lat="39.91965" lon="9.44852"><ele>999.0</ele><time>2026-04-24T13:52:17.48Z</time></trkpt><trkpt lat="39.9197417" lon="9.4485633"><ele>999.0000000000001</ele><time>2026-04-24T13:52:20.48Z</time></trkpt><trkpt lat="39.9198233" lon="9.4486217"><ele>999.0000000000001</ele><time>2026-04-24T13:52:22.481Z</time></trkpt><trkpt lat="39.9199167" lon="9.44872"><ele>999.0</ele><time>2026-04-24T13:52:24.48Z</time></trkpt><trkpt lat="39.92003" lon="9.4488083"><ele>999.0</ele><time>2026-04-24T13:52:26.481Z</time></trkpt><trkpt lat="39.9201283" lon="9.4488867"><ele>997.6</ele><time>2026-04-24T13:52:28.48Z</time></trkpt><trkpt lat="39.920165" lon="9.4489683"><ele>996.2</ele><time>2026-04-24T13:52:30.481Z</time></trkpt><trkpt lat="39.9200467" lon="9.44912"><ele>994.8000000000001</ele><time>2026-04-24T13:52:34.48Z</time></trkpt><trkpt lat="39.919965" lon="9.4492067"><ele>993.4000000000001</ele><time>2026-04-24T13:52:36.48Z</time></trkpt><trkpt lat="39.9199067" lon="9.44927"><ele>992.0</ele><time>2026-04-24T13:52:37.48Z</time></trkpt><trkpt lat="39.9198283" lon="9.4493483"><ele>992.0</ele><time>2026-04-24T13:52:38.48Z</time></trkpt><trkpt lat="39.91976" lon="9.4494267"><ele>992.0</ele><time>2026-04-24T13:52:39.481Z</time></trkpt><trkpt lat="39.9196883" lon="9.4495233"><ele>992.0</ele><time>2026-04-24T13:52:40.48Z</time></trkpt><trkpt lat="39.919615" lon="9.4496433"><ele>992.0</ele><time>2026-04-24T13:52:41.481Z</time></trkpt><trkpt lat="39.9195467" lon="9.4497617"><ele>992.0</ele><time>2026-04-24T13:52:42.48Z</time></trkpt><trkpt lat="39.9194883" lon="9.449875"><ele>990.8333333333334</ele><time>2026-04-24T13:52:43.481Z</time></trkpt><trkpt lat="39.9194383" lon="9.4499633"><ele>989.6666666666667</ele><time>2026-04-24T13:52:44.481Z</time></trkpt><trkpt lat="39.9193833" lon="9.4500467"><ele>988.5</ele><time>2026-04-24T13:52:45.48Z</time></trkpt><trkpt lat="39.9193217" lon="9.45011"><ele>987.3333333333333</ele><time>2026-04-24T13:52:46.48Z</time></trkpt><trkpt lat="39.9192567" lon="9.4501467"><ele>986.1666666666666</ele><time>2026-04-24T13:52:47.48Z</time></trkpt><trkpt lat="39.919205" lon="9.450195"><ele>985.0</ele><time>2026-04-24T13:52:48.48Z</time></trkpt><trkpt lat="39.91917" lon="9.4502833"><ele>985.0</ele><time>2026-04-24T13:52:50.48Z</time></trkpt><trkpt lat="39.9192133" lon="9.4503767"><ele>985.0</ele><time>2026-04-24T13:52:52.481Z</time></trkpt><trkpt lat="39.9194233" lon="9.4505083"><ele>985.0</ele><time>2026-04-24T13:52:56.48Z</time></trkpt><trkpt lat="39.9194983" lon="9.4505933"><ele>985.0</ele><time>2026-04-24T13:52:58.481Z</time></trkpt><trkpt lat="39.919545" lon="9.450715"><ele>980.4</ele><time>2026-04-24T13:53:00.48Z</time></trkpt><trkpt lat="39.9195783" lon="9.4508617"><ele>975.8</ele><time>2026-04-24T13:53:02.481Z</time></trkpt><trkpt lat="39.9195983" lon="9.45103"><ele>971.2</ele><time>2026-04-24T13:53:04.481Z</time></trkpt><trkpt lat="39.9196117" lon="9.4511283"><ele>966.6</ele><time>2026-04-24T13:53:05.48Z</time></trkpt><trkpt lat="39.9196133" lon="9.4512233"><ele>962.0</ele><time>2026-04-24T13:53:06.48Z</time></trkpt><trkpt lat="39.91961" lon="9.4513383"><ele>961.0</ele><time>2026-04-24T13:53:07.48Z</time></trkpt><trkpt lat="39.9196167" lon="9.4514467"><ele>960.0</ele><time>2026-04-24T13:53:08.48Z</time></trkpt><trkpt lat="39.9196233" lon="9.4515383"><ele>959.0</ele><time>2026-04-24T13:53:09.481Z</time></trkpt><trkpt lat="39.91964" lon="9.451685"><ele>958.0</ele><time>2026-04-24T13:53:11.48Z</time></trkpt><trkpt lat="39.9196067" lon="9.4517883"><ele>957.0</ele><time>2026-04-24T13:53:14.481Z</time></trkpt><trkpt lat="39.91946" lon="9.4517533"><ele>957.0</ele><time>2026-04-24T13:53:17.48Z</time></trkpt><trkpt lat="39.9193883" lon="9.4516967"><ele>957.0</ele><time>2026-04-24T13:53:18.481Z</time></trkpt><trkpt lat="39.919325" lon="9.4516217"><ele>957.0</ele><time>2026-04-24T13:53:19.48Z</time></trkpt><trkpt lat="39.919265" lon="9.4515433"><ele>957.0</ele><time>2026-04-24T13:53:20.48Z</time></trkpt><trkpt lat="39.9192017" lon="9.4514717"><ele>957.0</ele><time>2026-04-24T13:53:21.481Z</time></trkpt><trkpt lat="39.9191467" lon="9.4514117"><ele>957.0</ele><time>2026-04-24T13:53:22.481Z</time></trkpt><trkpt lat="39.9190967" lon="9.4513533"><ele>956.5</ele><time>2026-04-24T13:53:23.48Z</time></trkpt><trkpt lat="39.9190317" lon="9.45124"><ele>956.0</ele><time>2026-04-24T13:53:25.481Z</time></trkpt><trkpt lat="39.9189817" lon="9.45113"><ele>955.5</ele><time>2026-04-24T13:53:27.48Z</time></trkpt><trkpt lat="39.91892" lon="9.4511017"><ele>955.0</ele><time>2026-04-24T13:53:29.48Z</time></trkpt><trkpt lat="39.9188917" lon="9.45119"><ele>954.5</ele><time>2026-04-24T13:53:31.48Z</time></trkpt><trkpt lat="39.9189383" lon="9.451285"><ele>954.0</ele><time>2026-04-24T13:53:33.481Z</time></trkpt><trkpt lat="39.919015" lon="9.451435"><ele>954.0</ele><time>2026-04-24T13:53:35.48Z</time></trkpt><trkpt lat="39.9190717" lon="9.4516383"><ele>954.0000000000001</ele><time>2026-04-24T13:53:37.48Z</time></trkpt><trkpt lat="39.9190967" lon="9.4517417"><ele>954.0000000000001</ele><time>2026-04-24T13:53:38.48Z</time></trkpt><trkpt lat="39.919135" lon="9.4518333"><ele>954.0</ele><time>2026-04-24T13:53:39.48Z</time></trkpt><trkpt lat="39.9191817" lon="9.4519183"><ele>954.0</ele><time>2026-04-24T13:53:40.48Z</time></trkpt><trkpt lat="39.9192267" lon="9.4520033"><ele>954.4285714285713</ele><time>2026-04-24T13:53:41.48Z</time></trkpt><trkpt lat="39.9192633" lon="9.4520783"><ele>954.8571428571428</ele><time>2026-04-24T13:53:42.481Z</time></trkpt><trkpt lat="39.919295" lon="9.452165"><ele>955.2857142857142</ele><time>2026-04-24T13:53:43.481Z</time></trkpt><trkpt lat="39.919325" lon="9.4522567"><ele>955.7142857142858</ele><time>2026-04-24T13:53:44.481Z</time></trkpt><trkpt lat="39.9193467" lon="9.4523467"><ele>956.1428571428572</ele><time>2026-04-24T13:53:45.481Z</time></trkpt><trkpt lat="39.9193567" lon="9.4524433"><ele>956.5714285714287</ele><time>2026-04-24T13:53:46.48Z</time></trkpt><trkpt lat="39.9193583" lon="9.4525433"><ele>957.0</ele><time>2026-04-24T13:53:47.481Z</time></trkpt><trkpt lat="39.9193533" lon="9.4526417"><ele>957.1428571428572</ele><time>2026-04-24T13:53:48.481Z</time></trkpt><trkpt lat="39.9193583" lon="9.4527317"><ele>957.2857142857144</ele><time>2026-04-24T13:53:49.48Z</time></trkpt><trkpt lat="39.9193667" lon="9.45282"><ele>957.4285714285714</ele><time>2026-04-24T13:53:50.481Z</time></trkpt><trkpt lat="39.9193733" lon="9.45292"><ele>957.5714285714287</ele><time>2026-04-24T13:53:51.48Z</time></trkpt><trkpt lat="39.9193783" lon="9.4530283"><ele>957.7142857142858</ele><time>2026-04-24T13:53:52.48Z</time></trkpt><trkpt lat="39.9193883" lon="9.45311"><ele>957.8571428571429</ele><time>2026-04-24T13:53:53.481Z</time></trkpt><trkpt lat="39.9193967" lon="9.4532033"><ele>958.0</ele><time>2026-04-24T13:53:54.48Z</time></trkpt><trkpt lat="39.91942" lon="9.453285"><ele>956.2</ele><time>2026-04-24T13:53:55.481Z</time></trkpt><trkpt lat="39.9194483" lon="9.4533633"><ele>954.4</ele><time>2026-04-24T13:53:56.48Z</time></trkpt><trkpt lat="39.919505" lon="9.4535633"><ele>952.6000000000001</ele><time>2026-04-24T13:53:58.481Z</time></trkpt><trkpt lat="39.91954" lon="9.4536467"><ele>950.8000000000001</ele><time>2026-04-24T13:53:59.48Z</time></trkpt><trkpt lat="39.919575" lon="9.4537267"><ele>949.0</ele><time>2026-04-24T13:54:00.48Z</time></trkpt><trkpt lat="39.9196467" lon="9.453825"><ele>945.1666666666666</ele><time>2026-04-24T13:54:02.48Z</time></trkpt><trkpt lat="39.9197617" lon="9.4539033"><ele>941.3333333333333</ele><time>2026-04-24T13:54:04.48Z</time></trkpt><trkpt lat="39.919825" lon="9.453915"><ele>937.5</ele><time>2026-04-24T13:54:05.481Z</time></trkpt><trkpt lat="39.9198933" lon="9.4539417"><ele>933.6666666666667</ele><time>2026-04-24T13:54:06.48Z</time></trkpt><trkpt lat="39.91996" lon="9.4539633"><ele>929.8333333333334</ele><time>2026-04-24T13:54:07.48Z</time></trkpt><trkpt lat="39.9200317" lon="9.4539867"><ele>926.0</ele><time>2026-04-24T13:54:08.48Z</time></trkpt><trkpt lat="39.9201117" lon="9.454005"><ele>925.0000000000001</ele><time>2026-04-24T13:54:09.481Z</time></trkpt><trkpt lat="39.9201817" lon="9.45402"><ele>924.0</ele><time>2026-04-24T13:54:10.48Z</time></trkpt><trkpt lat="39.920255" lon="9.4540167"><ele>923.0</ele><time>2026-04-24T13:54:11.481Z</time></trkpt><trkpt lat="39.920325" lon="9.454005"><ele>922.0</ele><time>2026-04-24T13:54:12.481Z</time></trkpt><trkpt lat="39.920435" lon="9.4539633"><ele>921.0000000000001</ele><time>2026-04-24T13:54:14.481Z</time></trkpt><trkpt lat="39.9205433" lon="9.45397"><ele>920.0</ele><time>2026-04-24T13:54:16.48Z</time></trkpt><trkpt lat="39.920635" lon="9.454035"><ele>920.0</ele><time>2026-04-24T13:54:18.481Z</time></trkpt><trkpt lat="39.9207783" lon="9.4541667"><ele>920.0</ele><time>2026-04-24T13:54:21.48Z</time></trkpt><trkpt lat="39.920855" lon="9.4542283"><ele>920.0</ele><time>2026-04-24T13:54:22.48Z</time></trkpt><trkpt lat="39.92094" lon="9.4542967"><ele>920.0</ele><time>2026-04-24T13:54:23.481Z</time></trkpt><trkpt lat="39.9210517" lon="9.4543817"><ele>921.8</ele><time>2026-04-24T13:54:24.481Z</time></trkpt><trkpt lat="39.9211617" lon="9.4544717"><ele>923.6</ele><time>2026-04-24T13:54:25.481Z</time></trkpt><trkpt lat="39.92125" lon="9.4545683"><ele>925.4000000000001</ele><time>2026-04-24T13:54:26.48Z</time></trkpt><trkpt lat="39.92133" lon="9.4546517"><ele>927.2</ele><time>2026-04-24T13:54:27.481Z</time></trkpt><trkpt lat="39.9214" lon="9.4547283"><ele>929.0</ele><time>2026-04-24T13:54:28.48Z</time></trkpt><trkpt lat="39.92147" lon="9.4548033"><ele>925.0000000000001</ele><time>2026-04-24T13:54:29.481Z</time></trkpt><trkpt lat="39.9215367" lon="9.45487"><ele>921.0</ele><time>2026-04-24T13:54:30.48Z</time></trkpt><trkpt lat="39.9216117" lon="9.4549317"><ele>917.0</ele><time>2026-04-24T13:54:31.481Z</time></trkpt><trkpt lat="39.9216917" lon="9.45499"><ele>913.0</ele><time>2026-04-24T13:54:32.481Z</time></trkpt><trkpt lat="39.9217717" lon="9.4550367"><ele>909.0000000000001</ele><time>2026-04-24T13:54:33.481Z</time></trkpt><trkpt lat="39.9218583" lon="9.455075"><ele>905.0</ele><time>2026-04-24T13:54:34.48Z</time></trkpt><trkpt lat="39.92195" lon="9.455095"><ele>904.6</ele><time>2026-04-24T13:54:35.48Z</time></trkpt><trkpt lat="39.92205" lon="9.4551167"><ele>904.2</ele><time>2026-04-24T13:54:36.481Z</time></trkpt><trkpt lat="39.9221367" lon="9.4551533"><ele>903.8</ele><time>2026-04-24T13:54:37.48Z</time></trkpt><trkpt lat="39.922205" lon="9.4551867"><ele>903.4</ele><time>2026-04-24T13:54:38.48Z</time></trkpt><trkpt lat="39.9222767" lon="9.4552233"><ele>903.0</ele><time>2026-04-24T13:54:39.48Z</time></trkpt><trkpt lat="39.9224317" lon="9.4552917"><ele>903.0</ele><time>2026-04-24T13:54:41.481Z</time></trkpt><trkpt lat="39.922505" lon="9.4553483"><ele>903.0</ele><time>2026-04-24T13:54:42.48Z</time></trkpt><trkpt lat="39.9225817" lon="9.4554383"><ele>903.0</ele><time>2026-04-24T13:54:43.48Z</time></trkpt><trkpt lat="39.9226533" lon="9.4555267"><ele>903.0</ele><time>2026-04-24T13:54:44.481Z</time></trkpt><trkpt lat="39.9227233" lon="9.4556267"><ele>903.0</ele><time>2026-04-24T13:54:45.48Z</time></trkpt><trkpt lat="39.92278" lon="9.4557333"><ele>898.5</ele><time>2026-04-24T13:54:46.48Z</time></trkpt><trkpt lat="39.9228333" lon="9.455845"><ele>894.0</ele><time>2026-04-24T13:54:47.48Z</time></trkpt><trkpt lat="39.922885" lon="9.4559483"><ele>889.5</ele><time>2026-04-24T13:54:48.48Z</time></trkpt><trkpt lat="39.9229217" lon="9.4560417"><ele>885.0</ele><time>2026-04-24T13:54:49.481Z</time></trkpt><trkpt lat="39.922945" lon="9.4561367"><ele>880.5</ele><time>2026-04-24T13:54:50.48Z</time></trkpt><trkpt lat="39.9229767" lon="9.4562417"><ele>876.0</ele><time>2026-04-24T13:54:51.481Z</time></trkpt><trkpt lat="39.9230133" lon="9.4563633"><ele>876.0</ele><time>2026-04-24T13:54:52.48Z</time></trkpt><trkpt lat="39.9230483" lon="9.4564983"><ele>875.9999999999999</ele><time>2026-04-24T13:54:53.481Z</time></trkpt><trkpt lat="39.923075" lon="9.4566217"><ele>875.9999999999999</ele><time>2026-04-24T13:54:54.48Z</time></trkpt><trkpt lat="39.9231067" lon="9.45674"><ele>876.0</ele><time>2026-04-24T13:54:55.48Z</time></trkpt><trkpt lat="39.9231517" lon="9.4568467"><ele>876.0</ele><time>2026-04-24T13:54:56.481Z</time></trkpt><trkpt lat="39.923195" lon="9.4569517"><ele>876.0</ele><time>2026-04-24T13:54:57.48Z</time></trkpt><trkpt lat="39.923245" lon="9.4570433"><ele>876.0</ele><time>2026-04-24T13:54:58.481Z</time></trkpt><trkpt lat="39.923305" lon="9.4571267"><ele>876.0</ele><time>2026-04-24T13:54:59.48Z</time></trkpt><trkpt lat="39.9233767" lon="9.4572017"><ele>876.0</ele><time>2026-04-24T13:55:00.48Z</time></trkpt><trkpt lat="39.9235533" lon="9.4573333"><ele>875.5999999999999</ele><time>2026-04-24T13:55:02.481Z</time></trkpt><trkpt lat="39.9236467" lon="9.457385"><ele>875.1999999999999</ele><time>2026-04-24T13:55:03.481Z</time></trkpt><trkpt lat="39.9237433" lon="9.4574317"><ele>874.8000000000001</ele><time>2026-04-24T13:55:04.48Z</time></trkpt><trkpt lat="39.92384" lon="9.4574767"><ele>874.4000000000001</ele><time>2026-04-24T13:55:05.481Z</time></trkpt><trkpt lat="39.9239317" lon="9.4575117"><ele>874.0</ele><time>2026-04-24T13:55:06.48Z</time></trkpt><trkpt lat="39.924015" lon="9.4575383"><ele>873.9999999999999</ele><time>2026-04-24T13:55:07.481Z</time></trkpt><trkpt lat="39.9240933" lon="9.457555"><ele>874.0</ele><time>2026-04-24T13:55:08.48Z</time></trkpt><trkpt lat="39.9241683" lon="9.4575633"><ele>874.0</ele><time>2026-04-24T13:55:09.481Z</time></trkpt><trkpt lat="39.9242417" lon="9.457585"><ele>874.0</ele><time>2026-04-24T13:55:10.481Z</time></trkpt><trkpt lat="39.924305" lon="9.4576033"><ele>873.9999999999999</ele><time>2026-04-24T13:55:11.481Z</time></trkpt><trkpt lat="39.9243683" lon="9.4576183"><ele>874.0</ele><time>2026-04-24T13:55:12.481Z</time></trkpt><trkpt lat="39.9244783" lon="9.457665"><ele>871.0</ele><time>2026-04-24T13:55:14.481Z</time></trkpt><trkpt lat="39.9245617" lon="9.457755"><ele>868.0000000000001</ele><time>2026-04-24T13:55:16.48Z</time></trkpt><trkpt lat="39.924635" lon="9.457865"><ele>865.0000000000001</ele><time>2026-04-24T13:55:18.481Z</time></trkpt><trkpt lat="39.924655" lon="9.4580117"><ele>862.0</ele><time>2026-04-24T13:55:20.481Z</time></trkpt><trkpt lat="39.9246133" lon="9.4581467"><ele>859.0</ele><time>2026-04-24T13:55:22.481Z</time></trkpt><trkpt lat="39.92458" lon="9.4583183"><ele>858.9999999999999</ele><time>2026-04-24T13:55:24.481Z</time></trkpt><trkpt lat="39.9245783" lon="9.4584067"><ele>859.0</ele><time>2026-04-24T13:55:25.481Z</time></trkpt><trkpt lat="39.924585" lon="9.458495"><ele>859.0</ele><time>2026-04-24T13:55:26.481Z</time></trkpt><trkpt lat="39.9246033" lon="9.45859"><ele>859.0</ele><time>2026-04-24T13:55:27.481Z</time></trkpt><trkpt lat="39.9246217" lon="9.4586883"><ele>859.0</ele><time>2026-04-24T13:55:28.48Z</time></trkpt><trkpt lat="39.924635" lon="9.4587783"><ele>858.9999999999999</ele><time>2026-04-24T13:55:29.481Z</time></trkpt><trkpt lat="39.924645" lon="9.4588733"><ele>859.0</ele><time>2026-04-24T13:55:30.481Z</time></trkpt><trkpt lat="39.92466" lon="9.4589783"><ele>857.4999999999999</ele><time>2026-04-24T13:55:31.481Z</time></trkpt><trkpt lat="39.9246667" lon="9.4590783"><ele>856.0</ele><time>2026-04-24T13:55:32.48Z</time></trkpt><trkpt lat="39.9246783" lon="9.4591683"><ele>854.5</ele><time>2026-04-24T13:55:33.48Z</time></trkpt><trkpt lat="39.9247083" lon="9.45925"><ele>853.0</ele><time>2026-04-24T13:55:34.481Z</time></trkpt><trkpt lat="39.9247267" lon="9.4593417"><ele>851.4999999999999</ele><time>2026-04-24T13:55:35.481Z</time></trkpt><trkpt lat="39.924735" lon="9.4595083"><ele>850.0</ele><time>2026-04-24T13:55:37.48Z</time></trkpt><trkpt lat="39.924735" lon="9.4595983"><ele>847.8333333333333</ele><time>2026-04-24T13:55:38.48Z</time></trkpt><trkpt lat="39.924735" lon="9.4596983"><ele>845.6666666666666</ele><time>2026-04-24T13:55:39.48Z</time></trkpt><trkpt lat="39.92473" lon="9.45979"><ele>843.5</ele><time>2026-04-24T13:55:40.48Z</time></trkpt><trkpt lat="39.9247267" lon="9.459875"><ele>841.3333333333333</ele><time>2026-04-24T13:55:41.481Z</time></trkpt><trkpt lat="39.9247217" lon="9.4599617"><ele>839.1666666666666</ele><time>2026-04-24T13:55:42.481Z</time></trkpt><trkpt lat="39.9247033" lon="9.4601167"><ele>837.0</ele><time>2026-04-24T13:55:44.48Z</time></trkpt><trkpt lat="39.9247067" lon="9.46036"><ele>835.6</ele><time>2026-04-24T13:55:47.481Z</time></trkpt><trkpt lat="39.9247183" lon="9.4605083"><ele>834.2</ele><time>2026-04-24T13:55:49.481Z</time></trkpt><trkpt lat="39.9247067" lon="9.4606467"><ele>832.8</ele><time>2026-04-24T13:55:51.48Z</time></trkpt><trkpt lat="39.9246567" lon="9.46077"><ele>831.4</ele><time>2026-04-24T13:55:53.481Z</time></trkpt><trkpt lat="39.924615" lon="9.4608417"><ele>830.0</ele><time>2026-04-24T13:55:54.48Z</time></trkpt><trkpt lat="39.9245633" lon="9.46091"><ele>830.0</ele><time>2026-04-24T13:55:55.48Z</time></trkpt><trkpt lat="39.92451" lon="9.4609767"><ele>830.0</ele><time>2026-04-24T13:55:56.48Z</time></trkpt><trkpt lat="39.9244517" lon="9.46104"><ele>830.0</ele><time>2026-04-24T13:55:57.481Z</time></trkpt><trkpt lat="39.9243983" lon="9.4611083"><ele>830.0</ele><time>2026-04-24T13:55:58.48Z</time></trkpt><trkpt lat="39.9243483" lon="9.4611733"><ele>830.0</ele><time>2026-04-24T13:55:59.481Z</time></trkpt><trkpt lat="39.924305" lon="9.4612467"><ele>830.0</ele><time>2026-04-24T13:56:00.48Z</time></trkpt><trkpt lat="39.9242633" lon="9.46132"><ele>830.0</ele><time>2026-04-24T13:56:01.481Z</time></trkpt><trkpt lat="39.9242167" lon="9.461395"><ele>829.2</ele><time>2026-04-24T13:56:02.48Z</time></trkpt><trkpt lat="39.9241683" lon="9.4614717"><ele>828.4</ele><time>2026-04-24T13:56:03.481Z</time></trkpt><trkpt lat="39.9241217" lon="9.4615417"><ele>827.5999999999999</ele><time>2026-04-24T13:56:04.48Z</time></trkpt><trkpt lat="39.92407" lon="9.4616133"><ele>826.8</ele><time>2026-04-24T13:56:05.481Z</time></trkpt><trkpt lat="39.9239733" lon="9.46175"><ele>826.0</ele><time>2026-04-24T13:56:07.48Z</time></trkpt><trkpt lat="39.9239133" lon="9.4618833"><ele>826.0</ele><time>2026-04-24T13:56:09.48Z</time></trkpt><trkpt lat="39.923885" lon="9.46203"><ele>826.0</ele><time>2026-04-24T13:56:11.48Z</time></trkpt><trkpt lat="39.9238417" lon="9.4621533"><ele>826.0</ele><time>2026-04-24T13:56:13.48Z</time></trkpt><trkpt lat="39.9238083" lon="9.4622233"><ele>826.0</ele><time>2026-04-24T13:56:14.481Z</time></trkpt><trkpt lat="39.92374" lon="9.4623483"><ele>826.0</ele><time>2026-04-24T13:56:16.48Z</time></trkpt><trkpt lat="39.923685" lon="9.4624367"><ele>826.0</ele><time>2026-04-24T13:56:18.48Z</time></trkpt><trkpt lat="39.92363" lon="9.4625167"><ele>826.0</ele><time>2026-04-24T13:56:21.48Z</time></trkpt><trkpt lat="39.9235733" lon="9.4626"><ele>826.0</ele><time>2026-04-24T13:56:24.48Z</time></trkpt><trkpt lat="39.923535" lon="9.4626733"><ele>826.0</ele><time>2026-04-24T13:56:25.48Z</time></trkpt><trkpt lat="39.9235033" lon="9.462765"><ele>826.0</ele><time>2026-04-24T13:56:26.48Z</time></trkpt><trkpt lat="39.9234733" lon="9.4630133"><ele>828.25</ele><time>2026-04-24T13:56:28.48Z</time></trkpt><trkpt lat="39.9234717" lon="9.46316"><ele>830.5</ele><time>2026-04-24T13:56:29.48Z</time></trkpt><trkpt lat="39.9234783" lon="9.4633283"><ele>832.75</ele><time>2026-04-24T13:56:30.48Z</time></trkpt><trkpt lat="39.92349" lon="9.4635183"><ele>835.0</ele><time>2026-04-24T13:56:31.481Z</time></trkpt><trkpt lat="39.923505" lon="9.4636983"><ele>834.6666666666666</ele><time>2026-04-24T13:56:32.48Z</time></trkpt><trkpt lat="39.9235183" lon="9.463905"><ele>834.3333333333333</ele><time>2026-04-24T13:56:33.48Z</time></trkpt><trkpt lat="39.9235333" lon="9.4641117"><ele>834.0</ele><time>2026-04-24T13:56:34.48Z</time></trkpt><trkpt lat="39.92354" lon="9.4643083"><ele>834.0</ele><time>2026-04-24T13:56:35.481Z</time></trkpt><trkpt lat="39.9235483" lon="9.4644833"><ele>834.0</ele><time>2026-04-24T13:56:36.481Z</time></trkpt><trkpt lat="39.9235583" lon="9.4646567"><ele>834.0</ele><time>2026-04-24T13:56:37.481Z</time></trkpt><trkpt lat="39.923565" lon="9.4648117"><ele>834.0</ele><time>2026-04-24T13:56:38.481Z</time></trkpt><trkpt lat="39.9235733" lon="9.4649467"><ele>832.8333333333334</ele><time>2026-04-24T13:56:39.48Z</time></trkpt><trkpt lat="39.9235817" lon="9.4650717"><ele>831.6666666666667</ele><time>2026-04-24T13:56:40.481Z</time></trkpt><trkpt lat="39.9235833" lon="9.465185"><ele>830.5</ele><time>2026-04-24T13:56:41.48Z</time></trkpt><trkpt lat="39.92357" lon="9.4652967"><ele>829.3333333333334</ele><time>2026-04-24T13:56:42.481Z</time></trkpt><trkpt lat="39.9235367" lon="9.4654017"><ele>828.1666666666667</ele><time>2026-04-24T13:56:43.48Z</time></trkpt><trkpt lat="39.9234917" lon="9.4654867"><ele>827.0</ele><time>2026-04-24T13:56:44.481Z</time></trkpt><trkpt lat="39.9234367" lon="9.465545"><ele>823.4000000000001</ele><time>2026-04-24T13:56:45.48Z</time></trkpt><trkpt lat="39.9233867" lon="9.4655983"><ele>819.8000000000001</ele><time>2026-04-24T13:56:46.48Z</time></trkpt><trkpt lat="39.923345" lon="9.4656883"><ele>816.2</ele><time>2026-04-24T13:56:47.481Z</time></trkpt><trkpt lat="39.92332" lon="9.46592"><ele>812.6</ele><time>2026-04-24T13:56:49.481Z</time></trkpt><trkpt lat="39.92333" lon="9.466025"><ele>809.0</ele><time>2026-04-24T13:56:50.481Z</time></trkpt><trkpt lat="39.9233333" lon="9.4661167"><ele>809.0</ele><time>2026-04-24T13:56:51.481Z</time></trkpt><trkpt lat="39.9233267" lon="9.4662033"><ele>809.0</ele><time>2026-04-24T13:56:52.48Z</time></trkpt><trkpt lat="39.92331" lon="9.4662833"><ele>809.0</ele><time>2026-04-24T13:56:53.48Z</time></trkpt><trkpt lat="39.9232567" lon="9.4664267"><ele>809.0</ele><time>2026-04-24T13:56:55.481Z</time></trkpt><trkpt lat="39.9231833" lon="9.4665533"><ele>809.0</ele><time>2026-04-24T13:56:57.48Z</time></trkpt><trkpt lat="39.9230983" lon="9.466605"><ele>808.6</ele><time>2026-04-24T13:56:59.481Z</time></trkpt><trkpt lat="39.923015" lon="9.46661"><ele>808.2</ele><time>2026-04-24T13:57:01.48Z</time></trkpt><trkpt lat="39.922905" lon="9.4666267"><ele>807.8000000000001</ele><time>2026-04-24T13:57:03.48Z</time></trkpt><trkpt lat="39.9227933" lon="9.4666233"><ele>807.4000000000001</ele><time>2026-04-24T13:57:05.48Z</time></trkpt><trkpt lat="39.9227233" lon="9.466615"><ele>807.0</ele><time>2026-04-24T13:57:07.481Z</time></trkpt><trkpt lat="39.922685" lon="9.466515"><ele>807.0</ele><time>2026-04-24T13:57:10.481Z</time></trkpt><trkpt lat="39.9227567" lon="9.4662867"><ele>807.0</ele><time>2026-04-24T13:57:14.481Z</time></trkpt><trkpt lat="39.922765" lon="9.4661517"><ele>807.0</ele><time>2026-04-24T13:57:16.481Z</time></trkpt><trkpt lat="39.9227267" lon="9.4659833"><ele>807.0</ele><time>2026-04-24T13:57:18.481Z</time></trkpt><trkpt lat="39.9226833" lon="9.4659"><ele>807.2857142857143</ele><time>2026-04-24T13:57:19.48Z</time></trkpt><trkpt lat="39.9226333" lon="9.4658267"><ele>807.5714285714286</ele><time>2026-04-24T13:57:20.48Z</time></trkpt><trkpt lat="39.9225767" lon="9.4657617"><ele>807.8571428571429</ele><time>2026-04-24T13:57:21.48Z</time></trkpt><trkpt lat="39.9225233" lon="9.46571"><ele>808.1428571428571</ele><time>2026-04-24T13:57:22.481Z</time></trkpt><trkpt lat="39.92246" lon="9.4656783"><ele>808.4285714285714</ele><time>2026-04-24T13:57:23.481Z</time></trkpt><trkpt lat="39.922385" lon="9.465665"><ele>808.7142857142858</ele><time>2026-04-24T13:57:24.48Z</time></trkpt><trkpt lat="39.92231" lon="9.4656617"><ele>809.0</ele><time>2026-04-24T13:57:25.481Z</time></trkpt><trkpt lat="39.9222333" lon="9.4656517"><ele>810.5000000000001</ele><time>2026-04-24T13:57:26.48Z</time></trkpt><trkpt lat="39.9221583" lon="9.4656267"><ele>812.0</ele><time>2026-04-24T13:57:27.481Z</time></trkpt><trkpt lat="39.9220833" lon="9.4655883"><ele>813.5</ele><time>2026-04-24T13:57:28.481Z</time></trkpt><trkpt lat="39.922005" lon="9.4655417"><ele>815.0</ele><time>2026-04-24T13:57:29.48Z</time></trkpt><trkpt lat="39.9219383" lon="9.46551"><ele>816.5000000000001</ele><time>2026-04-24T13:57:30.48Z</time></trkpt><trkpt lat="39.9218167" lon="9.46547"><ele>818.0</ele><time>2026-04-24T13:57:32.481Z</time></trkpt><trkpt lat="39.921675" lon="9.4654467"><ele>819.8333333333334</ele><time>2026-04-24T13:57:34.48Z</time></trkpt><trkpt lat="39.9216" lon="9.4654367"><ele>821.6666666666667</ele><time>2026-04-24T13:57:35.48Z</time></trkpt><trkpt lat="39.921525" lon="9.465415"><ele>823.5</ele><time>2026-04-24T13:57:36.48Z</time></trkpt><trkpt lat="39.921435" lon="9.4653933"><ele>825.3333333333333</ele><time>2026-04-24T13:57:37.481Z</time></trkpt><trkpt lat="39.9213417" lon="9.4653733"><ele>827.1666666666666</ele><time>2026-04-24T13:57:38.481Z</time></trkpt><trkpt lat="39.9212467" lon="9.4653517"><ele>829.0</ele><time>2026-04-24T13:57:39.48Z</time></trkpt><trkpt lat="39.921155" lon="9.4653283"><ele>829.0</ele><time>2026-04-24T13:57:40.48Z</time></trkpt><trkpt lat="39.921065" lon="9.46532"><ele>829.0</ele><time>2026-04-24T13:57:41.481Z</time></trkpt><trkpt lat="39.920975" lon="9.465305"><ele>829.0</ele><time>2026-04-24T13:57:42.481Z</time></trkpt><trkpt lat="39.9208767" lon="9.4652933"><ele>829.0</ele><time>2026-04-24T13:57:43.481Z</time></trkpt><trkpt lat="39.9207817" lon="9.465285"><ele>829.0</ele><time>2026-04-24T13:57:44.481Z</time></trkpt><trkpt lat="39.920695" lon="9.465275"><ele>829.9999999999999</ele><time>2026-04-24T13:57:45.481Z</time></trkpt><trkpt lat="39.9206133" lon="9.4652817"><ele>831.0</ele><time>2026-04-24T13:57:46.48Z</time></trkpt><trkpt lat="39.9205383" lon="9.465295"><ele>832.0</ele><time>2026-04-24T13:57:47.48Z</time></trkpt><trkpt lat="39.9204767" lon="9.4653167"><ele>833.0</ele><time>2026-04-24T13:57:48.48Z</time></trkpt><trkpt lat="39.9203683" lon="9.4653667"><ele>833.9999999999999</ele><time>2026-04-24T13:57:50.48Z</time></trkpt><trkpt lat="39.9202683" lon="9.4654267"><ele>835.0</ele><time>2026-04-24T13:57:52.481Z</time></trkpt><trkpt lat="39.920165" lon="9.46551"><ele>837.75</ele><time>2026-04-24T13:57:54.48Z</time></trkpt><trkpt lat="39.919975" lon="9.4657017"><ele>840.5</ele><time>2026-04-24T13:57:58.481Z</time></trkpt><trkpt lat="39.919925" lon="9.4657533"><ele>843.25</ele><time>2026-04-24T13:57:59.481Z</time></trkpt><trkpt lat="39.9198717" lon="9.4658033"><ele>846.0</ele><time>2026-04-24T13:58:00.48Z</time></trkpt><trkpt lat="39.9197733" lon="9.4659033"><ele>846.0</ele><time>2026-04-24T13:58:02.481Z</time></trkpt><trkpt lat="39.91972" lon="9.46596"><ele>846.0</ele><time>2026-04-24T13:58:03.481Z</time></trkpt><trkpt lat="39.91967" lon="9.466015"><ele>846.0</ele><time>2026-04-24T13:58:04.48Z</time></trkpt><trkpt lat="39.919585" lon="9.4661217"><ele>846.0</ele><time>2026-04-24T13:58:06.48Z</time></trkpt><trkpt lat="39.91951" lon="9.4662317"><ele>846.0</ele><time>2026-04-24T13:58:08.481Z</time></trkpt><trkpt lat="39.91943" lon="9.4663133"><ele>848.0</ele><time>2026-04-24T13:58:10.48Z</time></trkpt><trkpt lat="39.9193483" lon="9.466365"><ele>850.0</ele><time>2026-04-24T13:58:12.48Z</time></trkpt><trkpt lat="39.9192667" lon="9.4664167"><ele>852.0</ele><time>2026-04-24T13:58:14.48Z</time></trkpt><trkpt lat="39.9191917" lon="9.4664917"><ele>854.0</ele><time>2026-04-24T13:58:16.48Z</time></trkpt><trkpt lat="39.9190883" lon="9.4667133"><ele>855.4000000000001</ele><time>2026-04-24T13:58:20.481Z</time></trkpt><trkpt lat="39.9190617" lon="9.466855"><ele>856.8000000000001</ele><time>2026-04-24T13:58:22.48Z</time></trkpt><trkpt lat="39.919045" lon="9.4670067"><ele>858.1999999999999</ele><time>2026-04-24T13:58:24.48Z</time></trkpt><trkpt lat="39.9190233" lon="9.4671617"><ele>859.5999999999999</ele><time>2026-04-24T13:58:26.48Z</time></trkpt><trkpt lat="39.919015" lon="9.467245"><ele>861.0</ele><time>2026-04-24T13:58:27.48Z</time></trkpt><trkpt lat="39.9190233" lon="9.46741"><ele>863.1999999999999</ele><time>2026-04-24T13:58:29.48Z</time></trkpt><trkpt lat="39.9190333" lon="9.4675717"><ele>865.3999999999999</ele><time>2026-04-24T13:58:31.481Z</time></trkpt><trkpt lat="39.9190533" lon="9.4677267"><ele>867.6</ele><time>2026-04-24T13:58:33.48Z</time></trkpt><trkpt lat="39.91905" lon="9.4678967"><ele>869.8</ele><time>2026-04-24T13:58:35.481Z</time></trkpt><trkpt lat="39.9190483" lon="9.4679917"><ele>872.0</ele><time>2026-04-24T13:58:36.481Z</time></trkpt><trkpt lat="39.919045" lon="9.4680883"><ele>873.3333333333334</ele><time>2026-04-24T13:58:37.481Z</time></trkpt><trkpt lat="39.9190283" lon="9.4682733"><ele>874.6666666666667</ele><time>2026-04-24T13:58:39.48Z</time></trkpt><trkpt lat="39.9190167" lon="9.4683733"><ele>876.0</ele><time>2026-04-24T13:58:40.48Z</time></trkpt><trkpt lat="39.919005" lon="9.4684717"><ele>877.3333333333333</ele><time>2026-04-24T13:58:41.48Z</time></trkpt><trkpt lat="39.918985" lon="9.46857"><ele>878.6666666666666</ele><time>2026-04-24T13:58:42.48Z</time></trkpt><trkpt lat="39.91896" lon="9.4686517"><ele>880.0</ele><time>2026-04-24T13:58:43.481Z</time></trkpt><trkpt lat="39.91893" lon="9.4687333"><ele>881.4999999999999</ele><time>2026-04-24T13:58:44.48Z</time></trkpt><trkpt lat="39.9189017" lon="9.4688067"><ele>883.0</ele><time>2026-04-24T13:58:45.481Z</time></trkpt><trkpt lat="39.9188617" lon="9.4689583"><ele>884.5</ele><time>2026-04-24T13:58:47.481Z</time></trkpt><trkpt lat="39.918845" lon="9.469045"><ele>886.0</ele><time>2026-04-24T13:58:48.48Z</time></trkpt><trkpt lat="39.918825" lon="9.469135"><ele>887.4999999999999</ele><time>2026-04-24T13:58:49.481Z</time></trkpt><trkpt lat="39.918815" lon="9.4692183"><ele>889.0</ele><time>2026-04-24T13:58:50.48Z</time></trkpt><trkpt lat="39.91881" lon="9.4693633"><ele>889.0</ele><time>2026-04-24T13:58:52.48Z</time></trkpt><trkpt lat="39.918795" lon="9.469495"><ele>889.0000000000001</ele><time>2026-04-24T13:58:54.481Z</time></trkpt><trkpt lat="39.9187283" lon="9.469625"><ele>889.0000000000001</ele><time>2026-04-24T13:58:56.48Z</time></trkpt><trkpt lat="39.9186783" lon="9.4696917"><ele>889.0</ele><time>2026-04-24T13:58:57.48Z</time></trkpt><trkpt lat="39.9186183" lon="9.4697517"><ele>889.0</ele><time>2026-04-24T13:58:58.48Z</time></trkpt><trkpt lat="39.9185033" lon="9.4698667"><ele>888.9999999999999</ele><time>2026-04-24T13:59:00.481Z</time></trkpt><trkpt lat="39.91845" lon="9.4699233"><ele>889.0</ele><time>2026-04-24T13:59:01.481Z</time></trkpt><trkpt lat="39.9183367" lon="9.46999"><ele>889.0</ele><time>2026-04-24T13:59:03.481Z</time></trkpt><trkpt lat="39.9182717" lon="9.47"><ele>889.0</ele><time>2026-04-24T13:59:04.48Z</time></trkpt><trkpt lat="39.9182033" lon="9.4699967"><ele>888.9999999999999</ele><time>2026-04-24T13:59:05.481Z</time></trkpt><trkpt lat="39.9181333" lon="9.4699933"><ele>889.0</ele><time>2026-04-24T13:59:06.48Z</time></trkpt><trkpt lat="39.9180617" lon="9.469995"><ele>890.4999999999999</ele><time>2026-04-24T13:59:07.48Z</time></trkpt><trkpt lat="39.9179933" lon="9.4700017"><ele>892.0</ele><time>2026-04-24T13:59:08.48Z</time></trkpt><trkpt lat="39.9178733" lon="9.47002"><ele>893.5</ele><time>2026-04-24T13:59:10.481Z</time></trkpt><trkpt lat="39.9177767" lon="9.4700283"><ele>895.0</ele><time>2026-04-24T13:59:12.481Z</time></trkpt><trkpt lat="39.9177417" lon="9.4701017"><ele>896.4999999999999</ele><time>2026-04-24T13:59:15.481Z</time></trkpt><trkpt lat="39.9178167" lon="9.4701567"><ele>898.0</ele><time>2026-04-24T13:59:17.48Z</time></trkpt><trkpt lat="39.9178867" lon="9.4702183"><ele>896.2</ele><time>2026-04-24T13:59:19.48Z</time></trkpt><trkpt lat="39.9180367" lon="9.4704433"><ele>894.4</ele><time>2026-04-24T13:59:23.48Z</time></trkpt><trkpt lat="39.9180917" lon="9.470515"><ele>892.6000000000001</ele><time>2026-04-24T13:59:24.48Z</time></trkpt><trkpt lat="39.9181433" lon="9.4705767"><ele>890.8000000000001</ele><time>2026-04-24T13:59:25.481Z</time></trkpt><trkpt lat="39.9181983" lon="9.4706317"><ele>889.0</ele><time>2026-04-24T13:59:26.48Z</time></trkpt><trkpt lat="39.9182533" lon="9.4707017"><ele>889.0</ele><time>2026-04-24T13:59:27.48Z</time></trkpt><trkpt lat="39.9183033" lon="9.470785"><ele>889.0</ele><time>2026-04-24T13:59:28.48Z</time></trkpt><trkpt lat="39.9183467" lon="9.47087"><ele>889.0</ele><time>2026-04-24T13:59:29.481Z</time></trkpt><trkpt lat="39.91839" lon="9.4709533"><ele>889.0</ele><time>2026-04-24T13:59:30.48Z</time></trkpt><trkpt lat="39.91843" lon="9.4710317"><ele>889.0</ele><time>2026-04-24T13:59:31.48Z</time></trkpt><trkpt lat="39.9184683" lon="9.4711067"><ele>889.0</ele><time>2026-04-24T13:59:32.48Z</time></trkpt><trkpt lat="39.9185033" lon="9.4711783"><ele>889.0</ele><time>2026-04-24T13:59:33.48Z</time></trkpt><trkpt lat="39.9185483" lon="9.4712383"><ele>886.4999999999999</ele><time>2026-04-24T13:59:34.481Z</time></trkpt><trkpt lat="39.918575" lon="9.4713367"><ele>884.0</ele><time>2026-04-24T13:59:35.481Z</time></trkpt><trkpt lat="39.918595" lon="9.471435"><ele>881.5</ele><time>2026-04-24T13:59:36.481Z</time></trkpt><trkpt lat="39.91861" lon="9.4715367"><ele>879.0</ele><time>2026-04-24T13:59:37.481Z</time></trkpt><trkpt lat="39.9186233" lon="9.47162"><ele>876.4999999999999</ele><time>2026-04-24T13:59:38.48Z</time></trkpt><trkpt lat="39.9186333" lon="9.4717067"><ele>874.0</ele><time>2026-04-24T13:59:39.481Z</time></trkpt><trkpt lat="39.9186483" lon="9.47186"><ele>872.3333333333333</ele><time>2026-04-24T13:59:41.48Z</time></trkpt><trkpt lat="39.91867" lon="9.472165"><ele>870.6666666666667</ele><time>2026-04-24T13:59:45.48Z</time></trkpt><trkpt lat="39.91867" lon="9.472335"><ele>869.0</ele><time>2026-04-24T13:59:47.48Z</time></trkpt><trkpt lat="39.9186917" lon="9.4724967"><ele>869.0000000000001</ele><time>2026-04-24T13:59:49.48Z</time></trkpt><trkpt lat="39.9187017" lon="9.4725833"><ele>869.0</ele><time>2026-04-24T13:59:50.48Z</time></trkpt><trkpt lat="39.9187217" lon="9.4726617"><ele>869.0</ele><time>2026-04-24T13:59:51.481Z</time></trkpt><trkpt lat="39.91874" lon="9.4727417"><ele>869.0</ele><time>2026-04-24T13:59:52.481Z</time></trkpt><trkpt lat="39.918755" lon="9.4728217"><ele>869.0000000000001</ele><time>2026-04-24T13:59:53.48Z</time></trkpt><trkpt lat="39.9187967" lon="9.472985"><ele>869.0</ele><time>2026-04-24T13:59:55.48Z</time></trkpt><trkpt lat="39.91882" lon="9.4730733"><ele>867.0</ele><time>2026-04-24T13:59:56.48Z</time></trkpt><trkpt lat="39.9188517" lon="9.4731517"><ele>865.0000000000001</ele><time>2026-04-24T13:59:57.48Z</time></trkpt><trkpt lat="39.918925" lon="9.4732617"><ele>863.0000000000001</ele><time>2026-04-24T13:59:59.48Z</time></trkpt><trkpt lat="39.9190267" lon="9.4733017"><ele>861.0</ele><time>2026-04-24T14:00:01.481Z</time></trkpt><trkpt lat="39.9191367" lon="9.4732667"><ele>859.0</ele><time>2026-04-24T14:00:03.48Z</time></trkpt><trkpt lat="39.9193117" lon="9.4731583"><ele>854.9999999999999</ele><time>2026-04-24T14:00:07.48Z</time></trkpt><trkpt lat="39.91938" lon="9.473105"><ele>851.0</ele><time>2026-04-24T14:00:09.481Z</time></trkpt><trkpt lat="39.9194467" lon="9.4731467"><ele>847.0</ele><time>2026-04-24T14:00:12.481Z</time></trkpt><trkpt lat="39.91943" lon="9.4732267"><ele>843.0</ele><time>2026-04-24T14:00:14.48Z</time></trkpt><trkpt lat="39.9193883" lon="9.47335"><ele>838.9999999999999</ele><time>2026-04-24T14:00:16.48Z</time></trkpt><trkpt lat="39.9193417" lon="9.4734883"><ele>835.0</ele><time>2026-04-24T14:00:18.481Z</time></trkpt><trkpt lat="39.9193083" lon="9.4736017"><ele>835.0</ele><time>2026-04-24T14:00:20.48Z</time></trkpt><trkpt lat="39.9192767" lon="9.4736833"><ele>835.0</ele><time>2026-04-24T14:00:22.48Z</time></trkpt><trkpt lat="39.919215" lon="9.47378"><ele>835.0</ele><time>2026-04-24T14:00:25.48Z</time></trkpt><trkpt lat="39.9190867" lon="9.4739683"><ele>835.0</ele><time>2026-04-24T14:00:29.48Z</time></trkpt><trkpt lat="39.919035" lon="9.4740733"><ele>836.3333333333333</ele><time>2026-04-24T14:00:31.48Z</time></trkpt><trkpt lat="39.918985" lon="9.4741767"><ele>837.6666666666666</ele><time>2026-04-24T14:00:33.481Z</time></trkpt><trkpt lat="39.9189383" lon="9.474275"><ele>839.0</ele><time>2026-04-24T14:00:35.48Z</time></trkpt><trkpt lat="39.9189033" lon="9.4743667"><ele>840.3333333333333</ele><time>2026-04-24T14:00:37.481Z</time></trkpt><trkpt lat="39.918865" lon="9.4744633"><ele>841.6666666666666</ele><time>2026-04-24T14:00:39.481Z</time></trkpt><trkpt lat="39.9188317" lon="9.4745583"><ele>843.0</ele><time>2026-04-24T14:00:41.481Z</time></trkpt><trkpt lat="39.9187896" lon="9.474647"><ele>839.5999999999999</ele><time>2026-04-24T14:00:43.481Z</time></trkpt><trkpt lat="39.9187276" lon="9.4746819"><ele>836.1999999999999</ele><time>2026-04-24T14:00:45.481Z</time></trkpt><trkpt lat="39.9186572" lon="9.4746966"><ele>832.8</ele><time>2026-04-24T14:00:47.48Z</time></trkpt><trkpt lat="39.9187417" lon="9.4748296"><ele>829.4</ele><time>2026-04-24T14:00:52.48Z</time></trkpt><trkpt lat="39.9188335" lon="9.4748541"><ele>826.0</ele><time>2026-04-24T14:00:54.481Z</time></trkpt><trkpt lat="39.9189512" lon="9.4748868"><ele>826.0</ele><time>2026-04-24T14:00:56.48Z</time></trkpt><trkpt lat="39.9190153" lon="9.4749037"><ele>826.0</ele><time>2026-04-24T14:00:57.48Z</time></trkpt><trkpt lat="39.9191359" lon="9.474933"><ele>826.0</ele><time>2026-04-24T14:00:59.48Z</time></trkpt><trkpt lat="39.9192567" lon="9.4749669"><ele>826.0</ele><time>2026-04-24T14:01:01.48Z</time></trkpt><trkpt lat="39.9193567" lon="9.47502"><ele>826.0</ele><time>2026-04-24T14:01:03.481Z</time></trkpt><trkpt lat="39.9194433" lon="9.4750983"><ele>824.0</ele><time>2026-04-24T14:01:05.481Z</time></trkpt><trkpt lat="39.9194967" lon="9.4752033"><ele>822.0</ele><time>2026-04-24T14:01:07.48Z</time></trkpt><trkpt lat="39.9195367" lon="9.4753383"><ele>820.0</ele><time>2026-04-24T14:01:09.48Z</time></trkpt><trkpt lat="39.9196467" lon="9.4755517"><ele>818.0</ele><time>2026-04-24T14:01:13.48Z</time></trkpt><trkpt lat="39.9196917" lon="9.4756133"><ele>817.5000000000001</ele><time>2026-04-24T14:01:14.481Z</time></trkpt><trkpt lat="39.919745" lon="9.47567"><ele>817.0</ele><time>2026-04-24T14:01:15.48Z</time></trkpt><trkpt lat="39.9197967" lon="9.4757233"><ele>816.5</ele><time>2026-04-24T14:01:16.481Z</time></trkpt><trkpt lat="39.9198567" lon="9.4757633"><ele>816.0</ele><time>2026-04-24T14:01:17.481Z</time></trkpt><trkpt lat="39.9199233" lon="9.4758083"><ele>815.5000000000001</ele><time>2026-04-24T14:01:18.481Z</time></trkpt><trkpt lat="39.9199883" lon="9.4758417"><ele>815.0</ele><time>2026-04-24T14:01:19.48Z</time></trkpt><trkpt lat="39.9200933" lon="9.4758767"><ele>814.8</ele><time>2026-04-24T14:01:21.48Z</time></trkpt><trkpt lat="39.920185" lon="9.475925"><ele>814.6</ele><time>2026-04-24T14:01:23.481Z</time></trkpt><trkpt lat="39.920235" lon="9.476015"><ele>814.4000000000001</ele><time>2026-04-24T14:01:25.481Z</time></trkpt><trkpt lat="39.9202417" lon="9.4761433"><ele>814.2</ele><time>2026-04-24T14:01:27.481Z</time></trkpt><trkpt lat="39.9202767" lon="9.476275"><ele>814.0</ele><time>2026-04-24T14:01:29.481Z</time></trkpt><trkpt lat="39.9203517" lon="9.4763333"><ele>812.75</ele><time>2026-04-24T14:01:31.481Z</time></trkpt><trkpt lat="39.9205083" lon="9.4764217"><ele>811.5</ele><time>2026-04-24T14:01:43.48Z</time></trkpt><trkpt lat="39.92061" lon="9.4764867"><ele>810.25</ele><time>2026-04-24T14:01:45.48Z</time></trkpt><trkpt lat="39.9207033" lon="9.4765717"><ele>809.0</ele><time>2026-04-24T14:01:47.48Z</time></trkpt><trkpt lat="39.920785" lon="9.4766583"><ele>809.0</ele><time>2026-04-24T14:01:49.481Z</time></trkpt><trkpt lat="39.9208683" lon="9.4767483"><ele>809.0</ele><time>2026-04-24T14:01:51.481Z</time></trkpt><trkpt lat="39.9209583" lon="9.4768517"><ele>809.0</ele><time>2026-04-24T14:01:53.48Z</time></trkpt><trkpt lat="39.92113" lon="9.4770333"><ele>809.0</ele><time>2026-04-24T14:01:57.48Z</time></trkpt><trkpt lat="39.9212033" lon="9.4771033"><ele>810.4000000000001</ele><time>2026-04-24T14:01:59.481Z</time></trkpt><trkpt lat="39.92124" lon="9.477205"><ele>811.8</ele><time>2026-04-24T14:02:02.48Z</time></trkpt><trkpt lat="39.9213033" lon="9.4772133"><ele>813.2</ele><time>2026-04-24T14:02:05.481Z</time></trkpt><trkpt lat="39.9212467" lon="9.47713"><ele>814.5999999999999</ele><time>2026-04-24T14:02:08.481Z</time></trkpt><trkpt lat="39.9211633" lon="9.47706"><ele>816.0</ele><time>2026-04-24T14:02:10.48Z</time></trkpt><trkpt lat="39.92107" lon="9.47695"><ele>816.0</ele><time>2026-04-24T14:02:12.481Z</time></trkpt><trkpt lat="39.920975" lon="9.4768483"><ele>816.0</ele><time>2026-04-24T14:02:14.48Z</time></trkpt><trkpt lat="39.9208317" lon="9.4766883"><ele>816.0</ele><time>2026-04-24T14:02:17.481Z</time></trkpt><trkpt lat="39.92078" lon="9.4766317"><ele>816.0</ele><time>2026-04-24T14:02:18.481Z</time></trkpt><trkpt lat="39.9207283" lon="9.4765833"><ele>816.0</ele><time>2026-04-24T14:02:19.48Z</time></trkpt><trkpt lat="39.9206267" lon="9.4764967"><ele>815.5999999999999</ele><time>2026-04-24T14:02:21.481Z</time></trkpt><trkpt lat="39.92057" lon="9.47646"><ele>815.2</ele><time>2026-04-24T14:02:22.48Z</time></trkpt><trkpt lat="39.9204617" lon="9.4763933"><ele>814.8</ele><time>2026-04-24T14:02:24.48Z</time></trkpt><trkpt lat="39.920355" lon="9.476335"><ele>814.4000000000001</ele><time>2026-04-24T14:02:26.48Z</time></trkpt><trkpt lat="39.9203017" lon="9.4762617"><ele>814.0</ele><time>2026-04-24T14:02:28.481Z</time></trkpt><trkpt lat="39.9203767" lon="9.476195"><ele>814.0</ele><time>2026-04-24T14:02:31.48Z</time></trkpt><trkpt lat="39.9204967" lon="9.4761733"><ele>814.0</ele><time>2026-04-24T14:02:33.48Z</time></trkpt><trkpt lat="39.920565" lon="9.47615"><ele>814.0</ele><time>2026-04-24T14:02:34.48Z</time></trkpt><trkpt lat="39.9206367" lon="9.4761183"><ele>814.0</ele><time>2026-04-24T14:02:35.48Z</time></trkpt><trkpt lat="39.92076" lon="9.476045"><ele>814.0</ele><time>2026-04-24T14:02:37.48Z</time></trkpt><trkpt lat="39.9208183" lon="9.4759933"><ele>814.0000000000001</ele><time>2026-04-24T14:02:38.481Z</time></trkpt><trkpt lat="39.9208817" lon="9.4759283"><ele>814.0</ele><time>2026-04-24T14:02:39.48Z</time></trkpt><trkpt lat="39.920935" lon="9.4758633"><ele>814.0</ele><time>2026-04-24T14:02:40.48Z</time></trkpt><trkpt lat="39.9209917" lon="9.475795"><ele>814.0</ele><time>2026-04-24T14:02:41.481Z</time></trkpt><trkpt lat="39.921045" lon="9.4757333"><ele>814.0</ele><time>2026-04-24T14:02:42.481Z</time></trkpt><trkpt lat="39.921095" lon="9.4756667"><ele>814.0000000000001</ele><time>2026-04-24T14:02:43.48Z</time></trkpt><trkpt lat="39.9211417" lon="9.475595"><ele>814.0</ele><time>2026-04-24T14:02:44.48Z</time></trkpt><trkpt lat="39.921185" lon="9.4755117"><ele>812.8571428571429</ele><time>2026-04-24T14:02:45.481Z</time></trkpt><trkpt lat="39.9212233" lon="9.47543"><ele>811.7142857142858</ele><time>2026-04-24T14:02:46.481Z</time></trkpt><trkpt lat="39.9212667" lon="9.4753467"><ele>810.5714285714287</ele><time>2026-04-24T14:02:47.48Z</time></trkpt><trkpt lat="39.9213167" lon="9.4752667"><ele>809.4285714285714</ele><time>2026-04-24T14:02:48.48Z</time></trkpt><trkpt lat="39.92137" lon="9.4751983"><ele>808.2857142857142</ele><time>2026-04-24T14:02:49.481Z</time></trkpt><trkpt lat="39.9214233" lon="9.4751333"><ele>807.1428571428572</ele><time>2026-04-24T14:02:50.48Z</time></trkpt><trkpt lat="39.92147" lon="9.47507"><ele>806.0</ele><time>2026-04-24T14:02:51.48Z</time></trkpt><trkpt lat="39.9215517" lon="9.4749633"><ele>806.0</ele><time>2026-04-24T14:02:53.48Z</time></trkpt><trkpt lat="39.9216367" lon="9.4748533"><ele>806.0</ele><time>2026-04-24T14:02:55.48Z</time></trkpt><trkpt lat="39.9217283" lon="9.4747433"><ele>806.0</ele><time>2026-04-24T14:02:57.48Z</time></trkpt><trkpt lat="39.921925" lon="9.4746367"><ele>805.6666666666667</ele><time>2026-04-24T14:03:01.48Z</time></trkpt><trkpt lat="39.9219883" lon="9.4746017"><ele>805.3333333333334</ele><time>2026-04-24T14:03:03.48Z</time></trkpt><trkpt lat="39.9220533" lon="9.4745733"><ele>805.0</ele><time>2026-04-24T14:03:05.481Z</time></trkpt><trkpt lat="39.92213" lon="9.4745533"><ele>804.6666666666667</ele><time>2026-04-24T14:03:07.48Z</time></trkpt><trkpt lat="39.9222083" lon="9.4745333"><ele>804.3333333333334</ele><time>2026-04-24T14:03:09.481Z</time></trkpt><trkpt lat="39.92232" lon="9.4744883"><ele>804.0</ele><time>2026-04-24T14:03:11.48Z</time></trkpt><trkpt lat="39.92241" lon="9.474435"><ele>804.75</ele><time>2026-04-24T14:03:23.48Z</time></trkpt><trkpt lat="39.9225783" lon="9.474275"><ele>805.5</ele><time>2026-04-24T14:03:27.481Z</time></trkpt><trkpt lat="39.92267" lon="9.4742733"><ele>806.25</ele><time>2026-04-24T14:03:30.48Z</time></trkpt><trkpt lat="39.9227317" lon="9.4743767"><ele>807.0</ele><time>2026-04-24T14:03:32.48Z</time></trkpt><trkpt lat="39.9227833" lon="9.474495"><ele>807.0</ele><time>2026-04-24T14:03:34.481Z</time></trkpt><trkpt lat="39.922835" lon="9.474595"><ele>807.0</ele><time>2026-04-24T14:03:36.48Z</time></trkpt><trkpt lat="39.9228683" lon="9.474685"><ele>807.0</ele><time>2026-04-24T14:03:38.481Z</time></trkpt><trkpt lat="39.9228933" lon="9.47478"><ele>807.0</ele><time>2026-04-24T14:03:41.48Z</time></trkpt><trkpt lat="39.922945" lon="9.4748333"><ele>807.0</ele><time>2026-04-24T14:03:43.48Z</time></trkpt><trkpt lat="39.9230483" lon="9.4748467"><ele>807.0</ele><time>2026-04-24T14:03:46.48Z</time></trkpt><trkpt lat="39.9232167" lon="9.474875"><ele>807.6666666666666</ele><time>2026-04-24T14:03:50.481Z</time></trkpt><trkpt lat="39.9232683" lon="9.4749233"><ele>808.3333333333333</ele><time>2026-04-24T14:03:51.48Z</time></trkpt><trkpt lat="39.9233217" lon="9.4749883"><ele>809.0</ele><time>2026-04-24T14:03:52.48Z</time></trkpt><trkpt lat="39.9233767" lon="9.475075"><ele>809.6666666666666</ele><time>2026-04-24T14:03:53.481Z</time></trkpt><trkpt lat="39.9234367" lon="9.4751583"><ele>810.3333333333333</ele><time>2026-04-24T14:03:54.48Z</time></trkpt><trkpt lat="39.92349" lon="9.4752433"><ele>811.0</ele><time>2026-04-24T14:03:55.481Z</time></trkpt><trkpt lat="39.9235383" lon="9.4753283"><ele>811.3333333333333</ele><time>2026-04-24T14:03:56.48Z</time></trkpt><trkpt lat="39.9235917" lon="9.4754217"><ele>811.6666666666666</ele><time>2026-04-24T14:03:57.481Z</time></trkpt><trkpt lat="39.923645" lon="9.4755067"><ele>812.0</ele><time>2026-04-24T14:03:58.48Z</time></trkpt><trkpt lat="39.923705" lon="9.4755933"><ele>812.3333333333333</ele><time>2026-04-24T14:03:59.48Z</time></trkpt><trkpt lat="39.92376" lon="9.4756717"><ele>812.6666666666666</ele><time>2026-04-24T14:04:00.481Z</time></trkpt><trkpt lat="39.9238117" lon="9.4757433"><ele>813.0</ele><time>2026-04-24T14:04:01.481Z</time></trkpt><trkpt lat="39.9238633" lon="9.475815"><ele>813.0</ele><time>2026-04-24T14:04:02.48Z</time></trkpt><trkpt lat="39.9239167" lon="9.4758633"><ele>813.0</ele><time>2026-04-24T14:04:03.481Z</time></trkpt><trkpt lat="39.9239967" lon="9.47595"><ele>813.0</ele><time>2026-04-24T14:04:05.481Z</time></trkpt><trkpt lat="39.9240267" lon="9.4760683"><ele>813.0</ele><time>2026-04-24T14:04:07.481Z</time></trkpt><trkpt lat="39.9239467" lon="9.47633"><ele>813.0</ele><time>2026-04-24T14:04:11.48Z</time></trkpt><trkpt lat="39.923875" lon="9.4763733"><ele>813.0</ele><time>2026-04-24T14:04:14.48Z</time></trkpt><trkpt lat="39.923805" lon="9.47628"><ele>813.0</ele><time>2026-04-24T14:04:17.481Z</time></trkpt><trkpt lat="39.9237167" lon="9.47618"><ele>813.0</ele><time>2026-04-24T14:04:19.481Z</time></trkpt><trkpt lat="39.9236583" lon="9.4761333"><ele>813.0</ele><time>2026-04-24T14:04:20.48Z</time></trkpt><trkpt lat="39.9235983" lon="9.4760783"><ele>813.0</ele><time>2026-04-24T14:04:21.481Z</time></trkpt><trkpt lat="39.9234883" lon="9.4759867"><ele>813.0</ele><time>2026-04-24T14:04:23.481Z</time></trkpt><trkpt lat="39.92344" lon="9.4759333"><ele>813.0</ele><time>2026-04-24T14:04:24.481Z</time></trkpt><trkpt lat="39.9233883" lon="9.4758767"><ele>813.0</ele><time>2026-04-24T14:04:25.481Z</time></trkpt><trkpt lat="39.92333" lon="9.4758283"><ele>813.0</ele><time>2026-04-24T14:04:26.481Z</time></trkpt><trkpt lat="39.92327" lon="9.4757567"><ele>813.0</ele><time>2026-04-24T14:04:27.48Z</time></trkpt><trkpt lat="39.9232083" lon="9.4756933"><ele>813.0</ele><time>2026-04-24T14:04:28.481Z</time></trkpt><trkpt lat="39.9230867" lon="9.4755717"><ele>814.5</ele><time>2026-04-24T14:04:30.481Z</time></trkpt><trkpt lat="39.92303" lon="9.4755333"><ele>816.0</ele><time>2026-04-24T14:04:31.48Z</time></trkpt><trkpt lat="39.9229467" lon="9.4755467"><ele>817.5</ele><time>2026-04-24T14:04:34.48Z</time></trkpt><trkpt lat="39.9229583" lon="9.4756317"><ele>819.0</ele><time>2026-04-24T14:04:37.48Z</time></trkpt><trkpt lat="39.9229917" lon="9.47573"><ele>820.5</ele><time>2026-04-24T14:04:39.481Z</time></trkpt><trkpt lat="39.923015" lon="9.4758567"><ele>822.0</ele><time>2026-04-24T14:04:41.48Z</time></trkpt><trkpt lat="39.9229983" lon="9.475995"><ele>822.0</ele><time>2026-04-24T14:04:43.481Z</time></trkpt><trkpt lat="39.9229783" lon="9.4761367"><ele>822.0</ele><time>2026-04-24T14:04:45.481Z</time></trkpt><trkpt lat="39.9229417" lon="9.476275"><ele>822.0</ele><time>2026-04-24T14:04:47.481Z</time></trkpt><trkpt lat="39.922875" lon="9.4764117"><ele>822.0</ele><time>2026-04-24T14:04:49.481Z</time></trkpt><trkpt lat="39.9227633" lon="9.4765483"><ele>823.0</ele><time>2026-04-24T14:04:51.48Z</time></trkpt><trkpt lat="39.9226933" lon="9.4766283"><ele>824.0</ele><time>2026-04-24T14:04:52.48Z</time></trkpt><trkpt lat="39.9226167" lon="9.4767117"><ele>825.0</ele><time>2026-04-24T14:04:53.481Z</time></trkpt><trkpt lat="39.9225467" lon="9.4767833"><ele>826.0</ele><time>2026-04-24T14:04:54.481Z</time></trkpt><trkpt lat="39.9224783" lon="9.4768883"><ele>827.0</ele><time>2026-04-24T14:04:55.48Z</time></trkpt><trkpt lat="39.9224183" lon="9.476975"><ele>828.3333333333334</ele><time>2026-04-24T14:04:56.48Z</time></trkpt><trkpt lat="39.92236" lon="9.4770767"><ele>829.6666666666667</ele><time>2026-04-24T14:04:57.48Z</time></trkpt><trkpt lat="39.922305" lon="9.47718"><ele>831.0</ele><time>2026-04-24T14:04:58.481Z</time></trkpt><trkpt lat="39.92227" lon="9.4772917"><ele>832.3333333333333</ele><time>2026-04-24T14:04:59.48Z</time></trkpt><trkpt lat="39.9222517" lon="9.4773933"><ele>833.6666666666666</ele><time>2026-04-24T14:05:00.48Z</time></trkpt><trkpt lat="39.92225" lon="9.4774917"><ele>835.0</ele><time>2026-04-24T14:05:01.48Z</time></trkpt><trkpt lat="39.9222367" lon="9.4775933"><ele>835.8</ele><time>2026-04-24T14:05:02.48Z</time></trkpt><trkpt lat="39.9222183" lon="9.4776767"><ele>836.6</ele><time>2026-04-24T14:05:03.481Z</time></trkpt><trkpt lat="39.9221867" lon="9.4777767"><ele>837.4000000000001</ele><time>2026-04-24T14:05:04.48Z</time></trkpt><trkpt lat="39.9221517" lon="9.4779033"><ele>838.2</ele><time>2026-04-24T14:05:05.48Z</time></trkpt><trkpt lat="39.9221133" lon="9.4780283"><ele>839.0</ele><time>2026-04-24T14:05:06.481Z</time></trkpt><trkpt lat="39.9220817" lon="9.4781483"><ele>839.0</ele><time>2026-04-24T14:05:07.481Z</time></trkpt><trkpt lat="39.9220533" lon="9.4782817"><ele>839.0</ele><time>2026-04-24T14:05:08.481Z</time></trkpt><trkpt lat="39.92202" lon="9.4784183"><ele>839.0</ele><time>2026-04-24T14:05:09.48Z</time></trkpt><trkpt lat="39.921995" lon="9.4785367"><ele>839.0</ele><time>2026-04-24T14:05:10.481Z</time></trkpt><trkpt lat="39.921965" lon="9.4787917"><ele>840.0000000000001</ele><time>2026-04-24T14:05:12.481Z</time></trkpt><trkpt lat="39.92196" lon="9.47892"><ele>841.0</ele><time>2026-04-24T14:05:13.48Z</time></trkpt><trkpt lat="39.9219583" lon="9.4790333"><ele>842.0</ele><time>2026-04-24T14:05:14.48Z</time></trkpt><trkpt lat="39.9219683" lon="9.4791383"><ele>843.0</ele><time>2026-04-24T14:05:15.481Z</time></trkpt><trkpt lat="39.9219883" lon="9.479245"><ele>844.0000000000001</ele><time>2026-04-24T14:05:16.48Z</time></trkpt><trkpt lat="39.9220117" lon="9.479345"><ele>845.0</ele><time>2026-04-24T14:05:17.481Z</time></trkpt><trkpt lat="39.92204" lon="9.47944"><ele>845.0</ele><time>2026-04-24T14:05:18.481Z</time></trkpt><trkpt lat="39.922075" lon="9.4795433"><ele>845.0</ele><time>2026-04-24T14:05:19.48Z</time></trkpt><trkpt lat="39.922115" lon="9.47967"><ele>845.0</ele><time>2026-04-24T14:05:20.48Z</time></trkpt><trkpt lat="39.92216" lon="9.4798083"><ele>845.0</ele><time>2026-04-24T14:05:21.48Z</time></trkpt><trkpt lat="39.9222033" lon="9.4799433"><ele>845.0</ele><time>2026-04-24T14:05:22.481Z</time></trkpt><trkpt lat="39.922245" lon="9.4800717"><ele>847.0</ele><time>2026-04-24T14:05:23.48Z</time></trkpt><trkpt lat="39.9222783" lon="9.4801833"><ele>849.0</ele><time>2026-04-24T14:05:24.481Z</time></trkpt><trkpt lat="39.9223117" lon="9.4802883"><ele>851.0</ele><time>2026-04-24T14:05:25.48Z</time></trkpt><trkpt lat="39.9223533" lon="9.4804017"><ele>853.0</ele><time>2026-04-24T14:05:26.481Z</time></trkpt><trkpt lat="39.9224017" lon="9.4805267"><ele>855.0</ele><time>2026-04-24T14:05:27.481Z</time></trkpt><trkpt lat="39.9224583" lon="9.4806533"><ele>857.25</ele><time>2026-04-24T14:05:28.481Z</time></trkpt><trkpt lat="39.9225133" lon="9.4807717"><ele>859.5</ele><time>2026-04-24T14:05:29.481Z</time></trkpt><trkpt lat="39.9225617" lon="9.48088"><ele>861.75</ele><time>2026-04-24T14:05:30.481Z</time></trkpt><trkpt lat="39.9226" lon="9.4809917"><ele>864.0</ele><time>2026-04-24T14:05:31.481Z</time></trkpt><trkpt lat="39.9226683" lon="9.481175"><ele>867.8000000000001</ele><time>2026-04-24T14:05:33.481Z</time></trkpt><trkpt lat="39.922715" lon="9.4813217"><ele>871.6000000000001</ele><time>2026-04-24T14:05:35.481Z</time></trkpt><trkpt lat="39.9227367" lon="9.4814167"><ele>875.4</ele><time>2026-04-24T14:05:36.48Z</time></trkpt><trkpt lat="39.9227617" lon="9.4815333"><ele>879.2</ele><time>2026-04-24T14:05:37.481Z</time></trkpt><trkpt lat="39.9227983" lon="9.4816567"><ele>883.0</ele><time>2026-04-24T14:05:38.481Z</time></trkpt><trkpt lat="39.92283" lon="9.481775"><ele>883.0</ele><time>2026-04-24T14:05:39.481Z</time></trkpt><trkpt lat="39.92287" lon="9.4818867"><ele>883.0</ele><time>2026-04-24T14:05:40.48Z</time></trkpt><trkpt lat="39.9229133" lon="9.4819933"><ele>883.0</ele><time>2026-04-24T14:05:41.481Z</time></trkpt><trkpt lat="39.9229567" lon="9.4821017"><ele>883.0</ele><time>2026-04-24T14:05:42.48Z</time></trkpt><trkpt lat="39.9230017" lon="9.48221"><ele>883.0</ele><time>2026-04-24T14:05:43.481Z</time></trkpt><trkpt lat="39.9230433" lon="9.48232"><ele>883.5999999999999</ele><time>2026-04-24T14:05:44.481Z</time></trkpt><trkpt lat="39.9230767" lon="9.482425"><ele>884.1999999999999</ele><time>2026-04-24T14:05:45.481Z</time></trkpt><trkpt lat="39.9231117" lon="9.48252"><ele>884.8</ele><time>2026-04-24T14:05:46.48Z</time></trkpt><trkpt lat="39.9231517" lon="9.482615"><ele>885.4</ele><time>2026-04-24T14:05:47.48Z</time></trkpt><trkpt lat="39.9232033" lon="9.4826967"><ele>886.0</ele><time>2026-04-24T14:05:48.48Z</time></trkpt><trkpt lat="39.9232783" lon="9.4828317"><ele>886.0</ele><time>2026-04-24T14:05:50.481Z</time></trkpt><trkpt lat="39.9233167" lon="9.482905"><ele>885.9999999999999</ele><time>2026-04-24T14:05:51.48Z</time></trkpt><trkpt lat="39.9233317" lon="9.4829983"><ele>885.9999999999999</ele><time>2026-04-24T14:05:52.481Z</time></trkpt><trkpt lat="39.9233933" lon="9.483225"><ele>886.0</ele><time>2026-04-24T14:05:54.481Z</time></trkpt><trkpt lat="39.92343" lon="9.4833467"><ele>886.0</ele><time>2026-04-24T14:05:55.481Z</time></trkpt><trkpt lat="39.9234717" lon="9.4834783"><ele>886.3333333333333</ele><time>2026-04-24T14:05:56.48Z</time></trkpt><trkpt lat="39.9235033" lon="9.4836"><ele>886.6666666666666</ele><time>2026-04-24T14:05:57.481Z</time></trkpt><trkpt lat="39.923535" lon="9.4837117"><ele>887.0</ele><time>2026-04-24T14:05:58.481Z</time></trkpt><trkpt lat="39.9235617" lon="9.48381"><ele>887.3333333333333</ele><time>2026-04-24T14:05:59.481Z</time></trkpt><trkpt lat="39.923595" lon="9.483915"><ele>887.6666666666666</ele><time>2026-04-24T14:06:00.481Z</time></trkpt><trkpt lat="39.9236283" lon="9.4840233"><ele>888.0</ele><time>2026-04-24T14:06:01.481Z</time></trkpt><trkpt lat="39.9236683" lon="9.4841333"><ele>891.4</ele><time>2026-04-24T14:06:02.48Z</time></trkpt><trkpt lat="39.92371" lon="9.4842383"><ele>894.8</ele><time>2026-04-24T14:06:03.481Z</time></trkpt><trkpt lat="39.9237517" lon="9.4843467"><ele>898.2</ele><time>2026-04-24T14:06:04.48Z</time></trkpt><trkpt lat="39.9237933" lon="9.4844517"><ele>901.6</ele><time>2026-04-24T14:06:05.48Z</time></trkpt><trkpt lat="39.9238467" lon="9.4845617"><ele>905.0</ele><time>2026-04-24T14:06:06.48Z</time></trkpt><trkpt lat="39.9238967" lon="9.4846567"><ele>906.0</ele><time>2026-04-24T14:06:07.481Z</time></trkpt><trkpt lat="39.9239383" lon="9.48474"><ele>907.0</ele><time>2026-04-24T14:06:08.481Z</time></trkpt><trkpt lat="39.9239717" lon="9.48482"><ele>908.0</ele><time>2026-04-24T14:06:09.48Z</time></trkpt><trkpt lat="39.9240133" lon="9.4849633"><ele>909.0</ele><time>2026-04-24T14:06:11.481Z</time></trkpt><trkpt lat="39.92406" lon="9.4850867"><ele>910.0</ele><time>2026-04-24T14:06:13.481Z</time></trkpt><trkpt lat="39.92416" lon="9.4853417"><ele>909.6666666666666</ele><time>2026-04-24T14:06:17.48Z</time></trkpt><trkpt lat="39.924175" lon="9.48546"><ele>909.3333333333333</ele><time>2026-04-24T14:06:19.481Z</time></trkpt><trkpt lat="39.9241567" lon="9.4856217"><ele>909.0</ele><time>2026-04-24T14:06:21.48Z</time></trkpt><trkpt lat="39.9241383" lon="9.4857083"><ele>908.6666666666667</ele><time>2026-04-24T14:06:22.481Z</time></trkpt><trkpt lat="39.924115" lon="9.485805"><ele>908.3333333333334</ele><time>2026-04-24T14:06:23.481Z</time></trkpt><trkpt lat="39.92409" lon="9.48589"><ele>908.0</ele><time>2026-04-24T14:06:24.481Z</time></trkpt><trkpt lat="39.924055" lon="9.4859833"><ele>908.0000000000001</ele><time>2026-04-24T14:06:25.48Z</time></trkpt><trkpt lat="39.9240267" lon="9.486085"><ele>908.0</ele><time>2026-04-24T14:06:26.481Z</time></trkpt><trkpt lat="39.9239967" lon="9.48619"><ele>908.0</ele><time>2026-04-24T14:06:27.481Z</time></trkpt><trkpt lat="39.92397" lon="9.4863017"><ele>908.0</ele><time>2026-04-24T14:06:28.48Z</time></trkpt><trkpt lat="39.923935" lon="9.4864133"><ele>908.0000000000001</ele><time>2026-04-24T14:06:29.481Z</time></trkpt><trkpt lat="39.9239017" lon="9.4865183"><ele>908.0</ele><time>2026-04-24T14:06:30.48Z</time></trkpt><trkpt lat="39.9238667" lon="9.4866133"><ele>909.4</ele><time>2026-04-24T14:06:31.48Z</time></trkpt><trkpt lat="39.923825" lon="9.4867183"><ele>910.8</ele><time>2026-04-24T14:06:32.48Z</time></trkpt><trkpt lat="39.923795" lon="9.486815"><ele>912.2</ele><time>2026-04-24T14:06:33.48Z</time></trkpt><trkpt lat="39.9237667" lon="9.486905"><ele>913.6</ele><time>2026-04-24T14:06:34.481Z</time></trkpt><trkpt lat="39.9237083" lon="9.4870867"><ele>915.0</ele><time>2026-04-24T14:06:36.481Z</time></trkpt><trkpt lat="39.9236683" lon="9.48716"><ele>915.5</ele><time>2026-04-24T14:06:37.481Z</time></trkpt><trkpt lat="39.923625" lon="9.48722"><ele>916.0</ele><time>2026-04-24T14:06:38.481Z</time></trkpt><trkpt lat="39.9235183" lon="9.487285"><ele>916.5</ele><time>2026-04-24T14:06:40.48Z</time></trkpt><trkpt lat="39.92345" lon="9.487305"><ele>917.0</ele><time>2026-04-24T14:06:41.48Z</time></trkpt><trkpt lat="39.9233767" lon="9.4873117"><ele>917.5</ele><time>2026-04-24T14:06:42.48Z</time></trkpt><trkpt lat="39.9233" lon="9.4873167"><ele>918.0</ele><time>2026-04-24T14:06:43.481Z</time></trkpt><trkpt lat="39.923215" lon="9.4873183"><ele>918.0</ele><time>2026-04-24T14:06:44.481Z</time></trkpt><trkpt lat="39.923135" lon="9.487305"><ele>918.0</ele><time>2026-04-24T14:06:45.48Z</time></trkpt><trkpt lat="39.9230533" lon="9.4872983"><ele>918.0</ele><time>2026-04-24T14:06:46.48Z</time></trkpt><trkpt lat="39.92298" lon="9.4872833"><ele>918.0</ele><time>2026-04-24T14:06:47.48Z</time></trkpt><trkpt lat="39.9229083" lon="9.4872667"><ele>918.0</ele><time>2026-04-24T14:06:48.481Z</time></trkpt><trkpt lat="39.9228433" lon="9.4872417"><ele>918.0</ele><time>2026-04-24T14:06:49.48Z</time></trkpt><trkpt lat="39.92272" lon="9.4871867"><ele>918.0</ele><time>2026-04-24T14:06:51.48Z</time></trkpt><trkpt lat="39.9226483" lon="9.4871483"><ele>918.0</ele><time>2026-04-24T14:06:52.481Z</time></trkpt><trkpt lat="39.9225833" lon="9.4871083"><ele>918.0</ele><time>2026-04-24T14:06:53.48Z</time></trkpt><trkpt lat="39.9225133" lon="9.487085"><ele>918.0</ele><time>2026-04-24T14:06:54.481Z</time></trkpt><trkpt lat="39.9224483" lon="9.4870683"><ele>918.0</ele><time>2026-04-24T14:06:55.481Z</time></trkpt><trkpt lat="39.9222333" lon="9.487195"><ele>917.8333333333334</ele><time>2026-04-24T14:06:59.481Z</time></trkpt><trkpt lat="39.922185" lon="9.4873467"><ele>917.6666666666667</ele><time>2026-04-24T14:07:01.48Z</time></trkpt><trkpt lat="39.9221833" lon="9.487435"><ele>917.5</ele><time>2026-04-24T14:07:02.48Z</time></trkpt><trkpt lat="39.9222" lon="9.4875167"><ele>917.3333333333334</ele><time>2026-04-24T14:07:03.481Z</time></trkpt><trkpt lat="39.9222233" lon="9.48761"><ele>917.1666666666667</ele><time>2026-04-24T14:07:04.48Z</time></trkpt><trkpt lat="39.92225" lon="9.487715"><ele>917.0</ele><time>2026-04-24T14:07:05.48Z</time></trkpt><trkpt lat="39.9222817" lon="9.4878167"><ele>917.8</ele><time>2026-04-24T14:07:06.481Z</time></trkpt><trkpt lat="39.922305" lon="9.4879467"><ele>918.6</ele><time>2026-04-24T14:07:07.481Z</time></trkpt><trkpt lat="39.9223267" lon="9.488085"><ele>919.3999999999999</ele><time>2026-04-24T14:07:08.481Z</time></trkpt><trkpt lat="39.922355" lon="9.488225"><ele>920.1999999999999</ele><time>2026-04-24T14:07:09.48Z</time></trkpt><trkpt lat="39.92239" lon="9.488355"><ele>921.0</ele><time>2026-04-24T14:07:10.481Z</time></trkpt><trkpt lat="39.922435" lon="9.4884767"><ele>921.0</ele><time>2026-04-24T14:07:11.48Z</time></trkpt><trkpt lat="39.9224833" lon="9.488585"><ele>921.0</ele><time>2026-04-24T14:07:12.48Z</time></trkpt><trkpt lat="39.92254" lon="9.4886833"><ele>921.0</ele><time>2026-04-24T14:07:13.481Z</time></trkpt><trkpt lat="39.922585" lon="9.4887717"><ele>921.0</ele><time>2026-04-24T14:07:14.48Z</time></trkpt><trkpt lat="39.9226233" lon="9.4888533"><ele>921.0</ele><time>2026-04-24T14:07:15.48Z</time></trkpt><trkpt lat="39.92264" lon="9.4889517"><ele>921.0</ele><time>2026-04-24T14:07:16.48Z</time></trkpt><trkpt lat="39.92267" lon="9.4892017"><ele>925.4</ele><time>2026-04-24T14:07:18.481Z</time></trkpt><trkpt lat="39.9226783" lon="9.4893233"><ele>929.8</ele><time>2026-04-24T14:07:19.481Z</time></trkpt><trkpt lat="39.922695" lon="9.489445"><ele>934.1999999999999</ele><time>2026-04-24T14:07:20.481Z</time></trkpt><trkpt lat="39.9227083" lon="9.489575"><ele>938.5999999999999</ele><time>2026-04-24T14:07:21.481Z</time></trkpt><trkpt lat="39.9227217" lon="9.4897217"><ele>943.0</ele><time>2026-04-24T14:07:22.481Z</time></trkpt><trkpt lat="39.9227333" lon="9.489875"><ele>943.0</ele><time>2026-04-24T14:07:23.481Z</time></trkpt><trkpt lat="39.9227467" lon="9.4900333"><ele>943.0</ele><time>2026-04-24T14:07:24.481Z</time></trkpt><trkpt lat="39.92276" lon="9.4901733"><ele>943.0</ele><time>2026-04-24T14:07:25.481Z</time></trkpt><trkpt lat="39.92277" lon="9.4902983"><ele>943.0</ele><time>2026-04-24T14:07:26.481Z</time></trkpt><trkpt lat="39.9227917" lon="9.4904233"><ele>943.0</ele><time>2026-04-24T14:07:27.481Z</time></trkpt><trkpt lat="39.9228283" lon="9.49055"><ele>940.8333333333333</ele><time>2026-04-24T14:07:28.481Z</time></trkpt><trkpt lat="39.92287" lon="9.490655"><ele>938.6666666666666</ele><time>2026-04-24T14:07:29.481Z</time></trkpt><trkpt lat="39.9229233" lon="9.4907383"><ele>936.5</ele><time>2026-04-24T14:07:30.48Z</time></trkpt><trkpt lat="39.9229817" lon="9.4908067"><ele>934.3333333333333</ele><time>2026-04-24T14:07:31.48Z</time></trkpt><trkpt lat="39.92306" lon="9.4908483"><ele>932.1666666666666</ele><time>2026-04-24T14:07:32.48Z</time></trkpt><trkpt lat="39.9231433" lon="9.49087"><ele>930.0</ele><time>2026-04-24T14:07:33.481Z</time></trkpt><trkpt lat="39.9232367" lon="9.4908667"><ele>930.0</ele><time>2026-04-24T14:07:34.481Z</time></trkpt><trkpt lat="39.9233467" lon="9.490855"><ele>930.0</ele><time>2026-04-24T14:07:35.481Z</time></trkpt><trkpt lat="39.9234633" lon="9.4908567"><ele>930.0</ele><time>2026-04-24T14:07:36.48Z</time></trkpt><trkpt lat="39.923575" lon="9.4908667"><ele>930.0</ele><time>2026-04-24T14:07:37.48Z</time></trkpt><trkpt lat="39.9237583" lon="9.490905"><ele>930.5</ele><time>2026-04-24T14:07:39.48Z</time></trkpt><trkpt lat="39.923825" lon="9.4909283"><ele>931.0</ele><time>2026-04-24T14:07:40.481Z</time></trkpt><trkpt lat="39.9238883" lon="9.4909633"><ele>931.5</ele><time>2026-04-24T14:07:41.48Z</time></trkpt><trkpt lat="39.9239467" lon="9.4910217"><ele>932.0</ele><time>2026-04-24T14:07:42.481Z</time></trkpt><trkpt lat="39.924" lon="9.4911133"><ele>932.5</ele><time>2026-04-24T14:07:43.481Z</time></trkpt><trkpt lat="39.9240467" lon="9.4912017"><ele>933.0</ele><time>2026-04-24T14:07:44.48Z</time></trkpt><trkpt lat="39.92408" lon="9.4912867"><ele>933.0</ele><time>2026-04-24T14:07:45.48Z</time></trkpt><trkpt lat="39.9241083" lon="9.491385"><ele>933.0</ele><time>2026-04-24T14:07:46.481Z</time></trkpt><trkpt lat="39.9241233" lon="9.4914867"><ele>933.0</ele><time>2026-04-24T14:07:47.481Z</time></trkpt><trkpt lat="39.9241217" lon="9.4915883"><ele>933.0</ele><time>2026-04-24T14:07:48.481Z</time></trkpt><trkpt lat="39.924125" lon="9.49169"><ele>933.0</ele><time>2026-04-24T14:07:49.48Z</time></trkpt><trkpt lat="39.9241267" lon="9.491815"><ele>933.0</ele><time>2026-04-24T14:07:50.481Z</time></trkpt><trkpt lat="39.92413" lon="9.491945"><ele>933.0</ele><time>2026-04-24T14:07:51.48Z</time></trkpt><trkpt lat="39.9241333" lon="9.4920767"><ele>933.0</ele><time>2026-04-24T14:07:52.481Z</time></trkpt><trkpt lat="39.9241483" lon="9.492215"><ele>933.0</ele><time>2026-04-24T14:07:53.48Z</time></trkpt><trkpt lat="39.9241717" lon="9.4923467"><ele>933.0</ele><time>2026-04-24T14:07:54.481Z</time></trkpt><trkpt lat="39.9241967" lon="9.492465"><ele>933.0</ele><time>2026-04-24T14:07:55.481Z</time></trkpt><trkpt lat="39.92421" lon="9.4925567"><ele>932.8333333333334</ele><time>2026-04-24T14:07:56.481Z</time></trkpt><trkpt lat="39.9242017" lon="9.49264"><ele>932.6666666666667</ele><time>2026-04-24T14:07:57.48Z</time></trkpt><trkpt lat="39.9241917" lon="9.4927333"><ele>932.5</ele><time>2026-04-24T14:07:58.48Z</time></trkpt><trkpt lat="39.9241583" lon="9.4928983"><ele>932.3333333333334</ele><time>2026-04-24T14:08:00.48Z</time></trkpt><trkpt lat="39.9241533" lon="9.492995"><ele>932.1666666666667</ele><time>2026-04-24T14:08:01.481Z</time></trkpt><trkpt lat="39.9241617" lon="9.4931083"><ele>932.0</ele><time>2026-04-24T14:08:02.481Z</time></trkpt><trkpt lat="39.9241717" lon="9.4932333"><ele>932.0</ele><time>2026-04-24T14:08:03.48Z</time></trkpt><trkpt lat="39.9241833" lon="9.4933667"><ele>932.0</ele><time>2026-04-24T14:08:04.481Z</time></trkpt><trkpt lat="39.9242017" lon="9.493505"><ele>932.0</ele><time>2026-04-24T14:08:05.481Z</time></trkpt><trkpt lat="39.9242317" lon="9.4936583"><ele>932.0</ele><time>2026-04-24T14:08:06.481Z</time></trkpt><trkpt lat="39.924265" lon="9.4938217"><ele>939.75</ele><time>2026-04-24T14:08:07.481Z</time></trkpt><trkpt lat="39.9242917" lon="9.49397"><ele>947.5</ele><time>2026-04-24T14:08:08.481Z</time></trkpt><trkpt lat="39.9243167" lon="9.4941083"><ele>955.25</ele><time>2026-04-24T14:08:09.481Z</time></trkpt><trkpt lat="39.924345" lon="9.4942467"><ele>963.0</ele><time>2026-04-24T14:08:10.48Z</time></trkpt><trkpt lat="39.9243783" lon="9.4943917"><ele>963.0</ele><time>2026-04-24T14:08:11.481Z</time></trkpt><trkpt lat="39.9244017" lon="9.4945367"><ele>963.0</ele><time>2026-04-24T14:08:12.48Z</time></trkpt><trkpt lat="39.9244283" lon="9.4946833"><ele>963.0</ele><time>2026-04-24T14:08:13.481Z</time></trkpt><trkpt lat="39.9244467" lon="9.49481"><ele>963.0</ele><time>2026-04-24T14:08:14.481Z</time></trkpt><trkpt lat="39.9244717" lon="9.49494"><ele>963.0</ele><time>2026-04-24T14:08:15.48Z</time></trkpt><trkpt lat="39.9245017" lon="9.495075"><ele>962.8</ele><time>2026-04-24T14:08:16.48Z</time></trkpt><trkpt lat="39.924535" lon="9.495205"><ele>962.5999999999999</ele><time>2026-04-24T14:08:17.481Z</time></trkpt><trkpt lat="39.9245633" lon="9.4953233"><ele>962.4000000000001</ele><time>2026-04-24T14:08:18.48Z</time></trkpt><trkpt lat="39.9245933" lon="9.4954267"><ele>962.2</ele><time>2026-04-24T14:08:19.481Z</time></trkpt><trkpt lat="39.924625" lon="9.4956083"><ele>962.0</ele><time>2026-04-24T14:08:21.48Z</time></trkpt><trkpt lat="39.9246467" lon="9.49569"><ele>961.6666666666667</ele><time>2026-04-24T14:08:22.48Z</time></trkpt><trkpt lat="39.9246867" lon="9.495765"><ele>961.3333333333334</ele><time>2026-04-24T14:08:23.481Z</time></trkpt><trkpt lat="39.9247417" lon="9.495835"><ele>961.0</ele><time>2026-04-24T14:08:24.48Z</time></trkpt><trkpt lat="39.9247717" lon="9.4959083"><ele>960.6666666666667</ele><time>2026-04-24T14:08:25.48Z</time></trkpt><trkpt lat="39.9247733" lon="9.4960567"><ele>960.3333333333334</ele><time>2026-04-24T14:08:27.481Z</time></trkpt><trkpt lat="39.9247717" lon="9.496155"><ele>960.0</ele><time>2026-04-24T14:08:28.481Z</time></trkpt><trkpt lat="39.924785" lon="9.4962517"><ele>958.4</ele><time>2026-04-24T14:08:29.481Z</time></trkpt><trkpt lat="39.92482" lon="9.4963483"><ele>956.8</ele><time>2026-04-24T14:08:30.48Z</time></trkpt><trkpt lat="39.924865" lon="9.4964533"><ele>955.2</ele><time>2026-04-24T14:08:31.48Z</time></trkpt><trkpt lat="39.9249217" lon="9.4965683"><ele>953.6</ele><time>2026-04-24T14:08:32.48Z</time></trkpt><trkpt lat="39.9249817" lon="9.4966817"><ele>952.0</ele><time>2026-04-24T14:08:33.48Z</time></trkpt><trkpt lat="39.9250367" lon="9.49677"><ele>954.6</ele><time>2026-04-24T14:08:34.48Z</time></trkpt><trkpt lat="39.9250817" lon="9.4968433"><ele>957.2</ele><time>2026-04-24T14:08:35.481Z</time></trkpt><trkpt lat="39.9251283" lon="9.4969"><ele>959.8</ele><time>2026-04-24T14:08:36.48Z</time></trkpt><trkpt lat="39.9251917" lon="9.4970183"><ele>962.4</ele><time>2026-04-24T14:08:38.481Z</time></trkpt><trkpt lat="39.9251717" lon="9.4971433"><ele>965.0</ele><time>2026-04-24T14:08:40.481Z</time></trkpt><trkpt lat="39.9252033" lon="9.4973767"><ele>965.0000000000001</ele><time>2026-04-24T14:08:44.48Z</time></trkpt><trkpt lat="39.925265" lon="9.49741"><ele>965.0</ele><time>2026-04-24T14:08:45.48Z</time></trkpt><trkpt lat="39.9253383" lon="9.4974617"><ele>965.0</ele><time>2026-04-24T14:08:46.48Z</time></trkpt><trkpt lat="39.9254183" lon="9.49752"><ele>965.0</ele><time>2026-04-24T14:08:47.48Z</time></trkpt><trkpt lat="39.9254917" lon="9.4975683"><ele>965.0000000000001</ele><time>2026-04-24T14:08:48.48Z</time></trkpt><trkpt lat="39.9255617" lon="9.4976017"><ele>965.0</ele><time>2026-04-24T14:08:49.48Z</time></trkpt><trkpt lat="39.92565" lon="9.4976817"><ele>965.0</ele><time>2026-04-24T14:08:51.481Z</time></trkpt><trkpt lat="39.9257067" lon="9.497805"><ele>965.0</ele><time>2026-04-24T14:08:53.48Z</time></trkpt><trkpt lat="39.9257667" lon="9.497955"><ele>965.0</ele><time>2026-04-24T14:08:55.481Z</time></trkpt><trkpt lat="39.9258117" lon="9.4980167"><ele>965.0</ele><time>2026-04-24T14:08:56.481Z</time></trkpt><trkpt lat="39.9259317" lon="9.498085"><ele>965.0</ele><time>2026-04-24T14:08:58.481Z</time></trkpt><trkpt lat="39.9259983" lon="9.4981"><ele>967.4</ele><time>2026-04-24T14:08:59.481Z</time></trkpt><trkpt lat="39.9260633" lon="9.4981283"><ele>969.8</ele><time>2026-04-24T14:09:00.481Z</time></trkpt><trkpt lat="39.9261417" lon="9.4981717"><ele>972.2</ele><time>2026-04-24T14:09:01.48Z</time></trkpt><trkpt lat="39.9263217" lon="9.4982533"><ele>974.6</ele><time>2026-04-24T14:09:04.48Z</time></trkpt><trkpt lat="39.9263917" lon="9.498355"><ele>977.0</ele><time>2026-04-24T14:09:06.48Z</time></trkpt><trkpt lat="39.9264117" lon="9.4984367"><ele>977.0</ele><time>2026-04-24T14:09:07.481Z</time></trkpt><trkpt lat="39.9264483" lon="9.4985983"><ele>977.0</ele><time>2026-04-24T14:09:09.481Z</time></trkpt><trkpt lat="39.9264933" lon="9.4986833"><ele>977.0</ele><time>2026-04-24T14:09:10.48Z</time></trkpt><trkpt lat="39.92655" lon="9.49877"><ele>977.0</ele><time>2026-04-24T14:09:11.481Z</time></trkpt><trkpt lat="39.9266167" lon="9.4988467"><ele>977.0</ele><time>2026-04-24T14:09:12.481Z</time></trkpt><trkpt lat="39.9266833" lon="9.4989217"><ele>979.0000000000001</ele><time>2026-04-24T14:09:13.48Z</time></trkpt><trkpt lat="39.9267433" lon="9.498985"><ele>981.0</ele><time>2026-04-24T14:09:14.481Z</time></trkpt><trkpt lat="39.9267983" lon="9.49905"><ele>983.0</ele><time>2026-04-24T14:09:15.48Z</time></trkpt><trkpt lat="39.926845" lon="9.49912"><ele>985.0</ele><time>2026-04-24T14:09:16.48Z</time></trkpt><trkpt lat="39.9268967" lon="9.499205"><ele>987.0000000000001</ele><time>2026-04-24T14:09:17.481Z</time></trkpt><trkpt lat="39.9269433" lon="9.49929"><ele>989.0</ele><time>2026-04-24T14:09:18.48Z</time></trkpt><trkpt lat="39.927" lon="9.4993867"><ele>989.0</ele><time>2026-04-24T14:09:19.48Z</time></trkpt><trkpt lat="39.927065" lon="9.4994817"><ele>989.0</ele><time>2026-04-24T14:09:20.481Z</time></trkpt><trkpt lat="39.92713" lon="9.4995767"><ele>989.0</ele><time>2026-04-24T14:09:21.481Z</time></trkpt><trkpt lat="39.9272017" lon="9.499675"><ele>989.0</ele><time>2026-04-24T14:09:22.481Z</time></trkpt><trkpt lat="39.92734" lon="9.4998517"><ele>987.6666666666667</ele><time>2026-04-24T14:09:24.48Z</time></trkpt><trkpt lat="39.927405" lon="9.4999233"><ele>986.3333333333334</ele><time>2026-04-24T14:09:25.481Z</time></trkpt><trkpt lat="39.92746" lon="9.5000017"><ele>985.0</ele><time>2026-04-24T14:09:26.48Z</time></trkpt><trkpt lat="39.927505" lon="9.5000967"><ele>983.6666666666667</ele><time>2026-04-24T14:09:27.48Z</time></trkpt><trkpt lat="39.9275417" lon="9.50019"><ele>982.3333333333334</ele><time>2026-04-24T14:09:28.48Z</time></trkpt><trkpt lat="39.9275783" lon="9.50029"><ele>981.0</ele><time>2026-04-24T14:09:29.481Z</time></trkpt><trkpt lat="39.92761" lon="9.5004067"><ele>984.1666666666666</ele><time>2026-04-24T14:09:30.481Z</time></trkpt><trkpt lat="39.9276483" lon="9.5005367"><ele>987.3333333333333</ele><time>2026-04-24T14:09:31.48Z</time></trkpt><trkpt lat="39.9276867" lon="9.5006383"><ele>990.5</ele><time>2026-04-24T14:09:32.481Z</time></trkpt><trkpt lat="39.92772" lon="9.500735"><ele>993.6666666666666</ele><time>2026-04-24T14:09:33.48Z</time></trkpt><trkpt lat="39.9277567" lon="9.500835"><ele>996.8333333333333</ele><time>2026-04-24T14:09:34.481Z</time></trkpt><trkpt lat="39.9278017" lon="9.5009233"><ele>1000.0</ele><time>2026-04-24T14:09:35.481Z</time></trkpt><trkpt lat="39.9278517" lon="9.50101"><ele>1000.0</ele><time>2026-04-24T14:09:36.481Z</time></trkpt><trkpt lat="39.9279033" lon="9.5011033"><ele>1000.0</ele><time>2026-04-24T14:09:37.48Z</time></trkpt><trkpt lat="39.9279467" lon="9.5011867"><ele>1000.0</ele><time>2026-04-24T14:09:38.481Z</time></trkpt><trkpt lat="39.9280217" lon="9.5013067"><ele>1000.0</ele><time>2026-04-24T14:09:40.48Z</time></trkpt><trkpt lat="39.9281033" lon="9.5013583"><ele>1000.0</ele><time>2026-04-24T14:09:42.481Z</time></trkpt><trkpt lat="39.9281967" lon="9.5013967"><ele>1003.0</ele><time>2026-04-24T14:09:44.481Z</time></trkpt><trkpt lat="39.9283933" lon="9.5015417"><ele>1006.0</ele><time>2026-04-24T14:09:48.48Z</time></trkpt><trkpt lat="39.9284517" lon="9.5015867"><ele>1009.0</ele><time>2026-04-24T14:09:49.481Z</time></trkpt><trkpt lat="39.9285267" lon="9.5016467"><ele>1012.0</ele><time>2026-04-24T14:09:50.481Z</time></trkpt><trkpt lat="39.9285983" lon="9.501695"><ele>1011.9999999999999</ele><time>2026-04-24T14:09:51.481Z</time></trkpt><trkpt lat="39.92869" lon="9.5017733"><ele>1012.0</ele><time>2026-04-24T14:09:53.48Z</time></trkpt><trkpt lat="39.928695" lon="9.5018683"><ele>1012.0</ele><time>2026-04-24T14:09:55.481Z</time></trkpt><trkpt lat="39.9286467" lon="9.5019233"><ele>1012.0</ele><time>2026-04-24T14:09:56.48Z</time></trkpt><trkpt lat="39.9285767" lon="9.5019867"><ele>1011.9999999999999</ele><time>2026-04-24T14:09:57.481Z</time></trkpt><trkpt lat="39.928505" lon="9.5020667"><ele>1012.0</ele><time>2026-04-24T14:09:58.48Z</time></trkpt><trkpt lat="39.92843" lon="9.5021617"><ele>1009.6666666666666</ele><time>2026-04-24T14:09:59.481Z</time></trkpt><trkpt lat="39.9283567" lon="9.5022433"><ele>1007.3333333333333</ele><time>2026-04-24T14:10:00.48Z</time></trkpt><trkpt lat="39.9282917" lon="9.5023183"><ele>1005.0</ele><time>2026-04-24T14:10:01.48Z</time></trkpt><trkpt lat="39.928245" lon="9.5023883"><ele>1002.6666666666667</ele><time>2026-04-24T14:10:02.48Z</time></trkpt><trkpt lat="39.928215" lon="9.5024783"><ele>1000.3333333333334</ele><time>2026-04-24T14:10:03.481Z</time></trkpt><trkpt lat="39.9282033" lon="9.502585"><ele>998.0</ele><time>2026-04-24T14:10:04.481Z</time></trkpt><trkpt lat="39.9282067" lon="9.5026967"><ele>998.75</ele><time>2026-04-24T14:10:05.48Z</time></trkpt><trkpt lat="39.9282283" lon="9.50293"><ele>999.5</ele><time>2026-04-24T14:10:07.48Z</time></trkpt><trkpt lat="39.928245" lon="9.5030517"><ele>1000.25</ele><time>2026-04-24T14:10:08.48Z</time></trkpt><trkpt lat="39.9282767" lon="9.5031767"><ele>1001.0</ele><time>2026-04-24T14:10:09.481Z</time></trkpt><trkpt lat="39.9283117" lon="9.5033117"><ele>1001.0</ele><time>2026-04-24T14:10:10.48Z</time></trkpt><trkpt lat="39.9283483" lon="9.5034567"><ele>1001.0</ele><time>2026-04-24T14:10:11.481Z</time></trkpt><trkpt lat="39.92839" lon="9.5036117"><ele>1001.0</ele><time>2026-04-24T14:10:12.481Z</time></trkpt><trkpt lat="39.9284283" lon="9.5037517"><ele>1001.0</ele><time>2026-04-24T14:10:13.481Z</time></trkpt><trkpt lat="39.928465" lon="9.503875"><ele>1005.8</ele><time>2026-04-24T14:10:14.481Z</time></trkpt><trkpt lat="39.9284883" lon="9.5039917"><ele>1010.5999999999999</ele><time>2026-04-24T14:10:15.48Z</time></trkpt><trkpt lat="39.92851" lon="9.5041267"><ele>1015.4</ele><time>2026-04-24T14:10:16.48Z</time></trkpt><trkpt lat="39.9285183" lon="9.5042467"><ele>1020.2</ele><time>2026-04-24T14:10:17.48Z</time></trkpt><trkpt lat="39.92853" lon="9.504365"><ele>1025.0</ele><time>2026-04-24T14:10:18.48Z</time></trkpt><trkpt lat="39.9285533" lon="9.5044667"><ele>1025.0</ele><time>2026-04-24T14:10:19.481Z</time></trkpt><trkpt lat="39.9285867" lon="9.504555"><ele>1025.0</ele><time>2026-04-24T14:10:20.48Z</time></trkpt><trkpt lat="39.9286283" lon="9.504635"><ele>1025.0</ele><time>2026-04-24T14:10:21.481Z</time></trkpt><trkpt lat="39.9286717" lon="9.5046967"><ele>1025.0</ele><time>2026-04-24T14:10:22.481Z</time></trkpt><trkpt lat="39.9287233" lon="9.5048017"><ele>1025.0</ele><time>2026-04-24T14:10:24.481Z</time></trkpt><trkpt lat="39.92868" lon="9.5049067"><ele>1025.0</ele><time>2026-04-24T14:10:26.48Z</time></trkpt><trkpt lat="39.928485" lon="9.505085"><ele>1025.0</ele><time>2026-04-24T14:10:29.481Z</time></trkpt><trkpt lat="39.9283983" lon="9.505145"><ele>1025.0</ele><time>2026-04-24T14:10:30.48Z</time></trkpt><trkpt lat="39.928315" lon="9.5052067"><ele>1025.0</ele><time>2026-04-24T14:10:31.481Z</time></trkpt><trkpt lat="39.92823" lon="9.5052717"><ele>1025.0</ele><time>2026-04-24T14:10:32.48Z</time></trkpt><trkpt lat="39.9281583" lon="9.5053367"><ele>1025.0</ele><time>2026-04-24T14:10:33.481Z</time></trkpt><trkpt lat="39.9280967" lon="9.5053933"><ele>1023.8333333333334</ele><time>2026-04-24T14:10:34.48Z</time></trkpt><trkpt lat="39.9280417" lon="9.5054433"><ele>1022.6666666666667</ele><time>2026-04-24T14:10:35.481Z</time></trkpt><trkpt lat="39.9279833" lon="9.5054883"><ele>1021.5</ele><time>2026-04-24T14:10:36.481Z</time></trkpt><trkpt lat="39.9279283" lon="9.5055383"><ele>1020.3333333333333</ele><time>2026-04-24T14:10:37.48Z</time></trkpt><trkpt lat="39.927875" lon="9.5056017"><ele>1019.1666666666666</ele><time>2026-04-24T14:10:38.481Z</time></trkpt><trkpt lat="39.9278233" lon="9.5056883"><ele>1018.0</ele><time>2026-04-24T14:10:39.48Z</time></trkpt><trkpt lat="39.9277783" lon="9.5057933"><ele>1017.9999999999999</ele><time>2026-04-24T14:10:40.48Z</time></trkpt><trkpt lat="39.9277417" lon="9.5058917"><ele>1018.0</ele><time>2026-04-24T14:10:41.481Z</time></trkpt><trkpt lat="39.9276983" lon="9.5059867"><ele>1018.0</ele><time>2026-04-24T14:10:42.48Z</time></trkpt><trkpt lat="39.9276533" lon="9.5060783"><ele>1018.0</ele><time>2026-04-24T14:10:43.481Z</time></trkpt><trkpt lat="39.9276067" lon="9.5061533"><ele>1017.9999999999999</ele><time>2026-04-24T14:10:44.48Z</time></trkpt><trkpt lat="39.9275583" lon="9.50622"><ele>1018.0</ele><time>2026-04-24T14:10:45.481Z</time></trkpt><trkpt lat="39.9275033" lon="9.5062733"><ele>1014.5</ele><time>2026-04-24T14:10:46.48Z</time></trkpt><trkpt lat="39.9273967" lon="9.506345"><ele>1011.0</ele><time>2026-04-24T14:10:48.481Z</time></trkpt><trkpt lat="39.927315" lon="9.5065283"><ele>1007.5</ele><time>2026-04-24T14:10:52.48Z</time></trkpt><trkpt lat="39.92738" lon="9.5066583"><ele>1004.0</ele><time>2026-04-24T14:10:54.481Z</time></trkpt><trkpt lat="39.9274233" lon="9.506735"><ele>1004.0000000000001</ele><time>2026-04-24T14:10:55.481Z</time></trkpt><trkpt lat="39.927475" lon="9.5068033"><ele>1004.0</ele><time>2026-04-24T14:10:56.48Z</time></trkpt><trkpt lat="39.9275383" lon="9.5068617"><ele>1004.0</ele><time>2026-04-24T14:10:57.481Z</time></trkpt><trkpt lat="39.92761" lon="9.5069167"><ele>1004.0</ele><time>2026-04-24T14:10:58.481Z</time></trkpt><trkpt lat="39.927685" lon="9.50697"><ele>1004.0000000000001</ele><time>2026-04-24T14:10:59.48Z</time></trkpt><trkpt lat="39.927765" lon="9.50703"><ele>1004.0</ele><time>2026-04-24T14:11:00.48Z</time></trkpt><trkpt lat="39.9278383" lon="9.5070967"><ele>1007.5000000000001</ele><time>2026-04-24T14:11:01.481Z</time></trkpt><trkpt lat="39.9279067" lon="9.5071733"><ele>1011.0</ele><time>2026-04-24T14:11:02.48Z</time></trkpt><trkpt lat="39.9279667" lon="9.5072517"><ele>1014.5</ele><time>2026-04-24T14:11:03.481Z</time></trkpt><trkpt lat="39.9280233" lon="9.5073317"><ele>1018.0</ele><time>2026-04-24T14:11:04.481Z</time></trkpt><trkpt lat="39.9280783" lon="9.5074133"><ele>1021.5000000000001</ele><time>2026-04-24T14:11:05.481Z</time></trkpt><trkpt lat="39.92812" lon="9.5074783"><ele>1025.0</ele><time>2026-04-24T14:11:06.48Z</time></trkpt><trkpt lat="39.9281533" lon="9.5076133"><ele>1025.0</ele><time>2026-04-24T14:11:08.481Z</time></trkpt><trkpt lat="39.9280883" lon="9.5077667"><ele>1025.0</ele><time>2026-04-24T14:11:10.481Z</time></trkpt><trkpt lat="39.9280133" lon="9.507945"><ele>1025.0</ele><time>2026-04-24T14:11:12.481Z</time></trkpt><trkpt lat="39.927995" lon="9.508055"><ele>1025.0</ele><time>2026-04-24T14:11:13.481Z</time></trkpt><trkpt lat="39.9279817" lon="9.5081617"><ele>1025.5</ele><time>2026-04-24T14:11:14.48Z</time></trkpt><trkpt lat="39.9279833" lon="9.5082617"><ele>1026.0</ele><time>2026-04-24T14:11:15.48Z</time></trkpt><trkpt lat="39.9280083" lon="9.50836"><ele>1026.5</ele><time>2026-04-24T14:11:16.481Z</time></trkpt><trkpt lat="39.9280583" lon="9.5084533"><ele>1027.0</ele><time>2026-04-24T14:11:17.48Z</time></trkpt><trkpt lat="39.92811" lon="9.50854"><ele>1027.5</ele><time>2026-04-24T14:11:18.48Z</time></trkpt><trkpt lat="39.9281533" lon="9.50861"><ele>1028.0</ele><time>2026-04-24T14:11:19.481Z</time></trkpt><trkpt lat="39.92819" lon="9.5087383"><ele>1029.4</ele><time>2026-04-24T14:11:21.481Z</time></trkpt><trkpt lat="39.928155" lon="9.5088667"><ele>1030.8</ele><time>2026-04-24T14:11:23.481Z</time></trkpt><trkpt lat="39.92805" lon="9.5089767"><ele>1032.2</ele><time>2026-04-24T14:11:25.48Z</time></trkpt><trkpt lat="39.9279767" lon="9.5090533"><ele>1033.6</ele><time>2026-04-24T14:11:26.481Z</time></trkpt><trkpt lat="39.9279" lon="9.5091383"><ele>1035.0</ele><time>2026-04-24T14:11:27.481Z</time></trkpt><trkpt lat="39.9278183" lon="9.509225"><ele>1035.0</ele><time>2026-04-24T14:11:28.481Z</time></trkpt><trkpt lat="39.92774" lon="9.50931"><ele>1035.0</ele><time>2026-04-24T14:11:29.48Z</time></trkpt><trkpt lat="39.92766" lon="9.5094067"><ele>1035.0</ele><time>2026-04-24T14:11:30.48Z</time></trkpt><trkpt lat="39.9275967" lon="9.509495"><ele>1035.0</ele><time>2026-04-24T14:11:31.481Z</time></trkpt><trkpt lat="39.927495" lon="9.5096683"><ele>1033.8333333333333</ele><time>2026-04-24T14:11:33.481Z</time></trkpt><trkpt lat="39.9274583" lon="9.5097633"><ele>1032.6666666666667</ele><time>2026-04-24T14:11:34.48Z</time></trkpt><trkpt lat="39.92744" lon="9.509855"><ele>1031.5</ele><time>2026-04-24T14:11:35.481Z</time></trkpt><trkpt lat="39.9274367" lon="9.5099483"><ele>1030.3333333333335</ele><time>2026-04-24T14:11:36.48Z</time></trkpt><trkpt lat="39.9274617" lon="9.5100433"><ele>1029.1666666666667</ele><time>2026-04-24T14:11:37.481Z</time></trkpt><trkpt lat="39.9275067" lon="9.51012"><ele>1028.0</ele><time>2026-04-24T14:11:38.481Z</time></trkpt><trkpt lat="39.9275617" lon="9.5101867"><ele>1031.0</ele><time>2026-04-24T14:11:39.481Z</time></trkpt><trkpt lat="39.9276367" lon="9.5102333"><ele>1034.0</ele><time>2026-04-24T14:11:40.481Z</time></trkpt><trkpt lat="39.92772" lon="9.510285"><ele>1037.0</ele><time>2026-04-24T14:11:41.48Z</time></trkpt><trkpt lat="39.927795" lon="9.510345"><ele>1040.0</ele><time>2026-04-24T14:11:42.481Z</time></trkpt><trkpt lat="39.9278633" lon="9.51041"><ele>1043.0</ele><time>2026-04-24T14:11:43.481Z</time></trkpt><trkpt lat="39.9279183" lon="9.51049"><ele>1046.0</ele><time>2026-04-24T14:11:44.481Z</time></trkpt><trkpt lat="39.9279667" lon="9.5105717"><ele>1046.0</ele><time>2026-04-24T14:11:45.48Z</time></trkpt><trkpt lat="39.928005" lon="9.5106583"><ele>1046.0</ele><time>2026-04-24T14:11:46.481Z</time></trkpt><trkpt lat="39.928035" lon="9.51075"><ele>1046.0</ele><time>2026-04-24T14:11:47.481Z</time></trkpt><trkpt lat="39.928065" lon="9.5108467"><ele>1046.0</ele><time>2026-04-24T14:11:48.481Z</time></trkpt><trkpt lat="39.9280883" lon="9.510955"><ele>1046.0</ele><time>2026-04-24T14:11:49.48Z</time></trkpt><trkpt lat="39.9281067" lon="9.5110733"><ele>1046.0</ele><time>2026-04-24T14:11:50.481Z</time></trkpt><trkpt lat="39.92812" lon="9.5111933"><ele>1046.75</ele><time>2026-04-24T14:11:51.481Z</time></trkpt><trkpt lat="39.928135" lon="9.5112917"><ele>1047.5</ele><time>2026-04-24T14:11:52.48Z</time></trkpt><trkpt lat="39.928215" lon="9.5115417"><ele>1048.25</ele><time>2026-04-24T14:11:56.481Z</time></trkpt><trkpt lat="39.928195" lon="9.5116583"><ele>1049.0</ele><time>2026-04-24T14:11:58.481Z</time></trkpt><trkpt lat="39.92814" lon="9.511795"><ele>1049.0</ele><time>2026-04-24T14:12:00.48Z</time></trkpt><trkpt lat="39.928115" lon="9.51188"><ele>1049.0</ele><time>2026-04-24T14:12:01.48Z</time></trkpt><trkpt lat="39.9280917" lon="9.5119633"><ele>1049.0</ele><time>2026-04-24T14:12:02.48Z</time></trkpt><trkpt lat="39.9280683" lon="9.5120833"><ele>1049.0</ele><time>2026-04-24T14:12:04.481Z</time></trkpt><trkpt lat="39.9279983" lon="9.5121317"><ele>1049.0</ele><time>2026-04-24T14:12:06.481Z</time></trkpt><trkpt lat="39.9279067" lon="9.5120767"><ele>1049.0</ele><time>2026-04-24T14:12:08.48Z</time></trkpt><trkpt lat="39.927855" lon="9.512015"><ele>1049.0</ele><time>2026-04-24T14:12:09.48Z</time></trkpt><trkpt lat="39.9277917" lon="9.5119517"><ele>1049.0</ele><time>2026-04-24T14:12:10.48Z</time></trkpt><trkpt lat="39.92772" lon="9.5118817"><ele>1049.0</ele><time>2026-04-24T14:12:11.481Z</time></trkpt><trkpt lat="39.9276417" lon="9.5118167"><ele>1049.0</ele><time>2026-04-24T14:12:12.48Z</time></trkpt><trkpt lat="39.9275633" lon="9.5117617"><ele>1049.0</ele><time>2026-04-24T14:12:13.481Z</time></trkpt><trkpt lat="39.9274283" lon="9.5117183"><ele>1048.6666666666667</ele><time>2026-04-24T14:12:15.48Z</time></trkpt><trkpt lat="39.927365" lon="9.51171"><ele>1048.3333333333335</ele><time>2026-04-24T14:12:16.481Z</time></trkpt><trkpt lat="39.9273017" lon="9.5117333"><ele>1048.0</ele><time>2026-04-24T14:12:17.481Z</time></trkpt><trkpt lat="39.927215" lon="9.5118267"><ele>1047.6666666666667</ele><time>2026-04-24T14:12:19.481Z</time></trkpt><trkpt lat="39.927165" lon="9.5119683"><ele>1047.3333333333333</ele><time>2026-04-24T14:12:21.481Z</time></trkpt><trkpt lat="39.92713" lon="9.512045"><ele>1047.0</ele><time>2026-04-24T14:12:23.481Z</time></trkpt><trkpt lat="39.9270917" lon="9.5121617"><ele>1050.0</ele><time>2026-04-24T14:13:05.481Z</time></trkpt><trkpt lat="39.92713" lon="9.5122633"><ele>1053.0</ele><time>2026-04-24T14:13:11.481Z</time></trkpt><trkpt lat="39.9272067" lon="9.5121917"><ele>1056.0</ele><time>2026-04-24T14:13:13.48Z</time></trkpt><trkpt lat="39.927295" lon="9.5121117"><ele>1059.0</ele><time>2026-04-24T14:13:15.481Z</time></trkpt><trkpt lat="39.9273833" lon="9.5120883"><ele>1062.0</ele><time>2026-04-24T14:13:17.481Z</time></trkpt><trkpt lat="39.9274683" lon="9.5121483"><ele>1062.0</ele><time>2026-04-24T14:13:19.481Z</time></trkpt><trkpt lat="39.9275233" lon="9.51221"><ele>1062.0</ele><time>2026-04-24T14:13:20.481Z</time></trkpt><trkpt lat="39.92758" lon="9.512285"><ele>1062.0</ele><time>2026-04-24T14:13:21.48Z</time></trkpt><trkpt lat="39.927635" lon="9.512365"><ele>1062.0</ele><time>2026-04-24T14:13:22.481Z</time></trkpt><trkpt lat="39.9276933" lon="9.5124367"><ele>1062.0</ele><time>2026-04-24T14:13:23.481Z</time></trkpt><trkpt lat="39.9277533" lon="9.5125167"><ele>1062.0</ele><time>2026-04-24T14:13:24.481Z</time></trkpt><trkpt lat="39.9278133" lon="9.5125933"><ele>1062.25</ele><time>2026-04-24T14:13:25.481Z</time></trkpt><trkpt lat="39.9278833" lon="9.5126583"><ele>1062.5</ele><time>2026-04-24T14:13:26.48Z</time></trkpt><trkpt lat="39.9280383" lon="9.5127817"><ele>1062.75</ele><time>2026-04-24T14:13:28.481Z</time></trkpt><trkpt lat="39.9281183" lon="9.5128433"><ele>1063.0</ele><time>2026-04-24T14:13:29.481Z</time></trkpt><trkpt lat="39.928195" lon="9.51291"><ele>1067.1666666666665</ele><time>2026-04-24T14:13:30.48Z</time></trkpt><trkpt lat="39.9282733" lon="9.5129767"><ele>1071.3333333333333</ele><time>2026-04-24T14:13:31.48Z</time></trkpt><trkpt lat="39.9283367" lon="9.513035"><ele>1075.5</ele><time>2026-04-24T14:13:32.481Z</time></trkpt><trkpt lat="39.9283867" lon="9.513085"><ele>1079.6666666666667</ele><time>2026-04-24T14:13:33.48Z</time></trkpt><trkpt lat="39.9284283" lon="9.51315"><ele>1083.8333333333335</ele><time>2026-04-24T14:13:34.481Z</time></trkpt><trkpt lat="39.928465" lon="9.51322"><ele>1088.0</ele><time>2026-04-24T14:13:35.481Z</time></trkpt><trkpt lat="39.92855" lon="9.5133"><ele>1089.8</ele><time>2026-04-24T14:13:37.48Z</time></trkpt><trkpt lat="39.928645" lon="9.51327"><ele>1091.6</ele><time>2026-04-24T14:13:39.481Z</time></trkpt><trkpt lat="39.92873" lon="9.513255"><ele>1093.4</ele><time>2026-04-24T14:13:41.481Z</time></trkpt><trkpt lat="39.9288367" lon="9.51329"><ele>1095.2</ele><time>2026-04-24T14:13:43.481Z</time></trkpt><trkpt lat="39.9289117" lon="9.5132183"><ele>1097.0</ele><time>2026-04-24T14:13:45.48Z</time></trkpt><trkpt lat="39.9289417" lon="9.5130533"><ele>1096.6666666666667</ele><time>2026-04-24T14:13:47.48Z</time></trkpt><trkpt lat="39.9290133" lon="9.5128983"><ele>1096.3333333333335</ele><time>2026-04-24T14:13:49.48Z</time></trkpt><trkpt lat="39.929065" lon="9.512845"><ele>1096.0</ele><time>2026-04-24T14:13:50.481Z</time></trkpt><trkpt lat="39.9291267" lon="9.51279"><ele>1095.6666666666667</ele><time>2026-04-24T14:13:51.48Z</time></trkpt><trkpt lat="39.92919" lon="9.51275"><ele>1095.3333333333333</ele><time>2026-04-24T14:13:52.48Z</time></trkpt><trkpt lat="39.9292633" lon="9.5127017"><ele>1095.0</ele><time>2026-04-24T14:13:53.481Z</time></trkpt><trkpt lat="39.9293417" lon="9.51264"><ele>1095.0</ele><time>2026-04-24T14:13:54.481Z</time></trkpt><trkpt lat="39.92942" lon="9.5125783"><ele>1095.0</ele><time>2026-04-24T14:13:55.48Z</time></trkpt><trkpt lat="39.929495" lon="9.5125217"><ele>1095.0</ele><time>2026-04-24T14:13:56.48Z</time></trkpt><trkpt lat="39.9295633" lon="9.5124617"><ele>1095.0</ele><time>2026-04-24T14:13:57.481Z</time></trkpt><trkpt lat="39.9296367" lon="9.5123933"><ele>1095.0</ele><time>2026-04-24T14:13:58.48Z</time></trkpt><trkpt lat="39.9297067" lon="9.51234"><ele>1095.0</ele><time>2026-04-24T14:13:59.481Z</time></trkpt><trkpt lat="39.9297783" lon="9.5122917"><ele>1095.0</ele><time>2026-04-24T14:14:00.48Z</time></trkpt><trkpt lat="39.929855" lon="9.5122633"><ele>1095.0</ele><time>2026-04-24T14:14:01.481Z</time></trkpt><trkpt lat="39.9299283" lon="9.5122467"><ele>1095.0</ele><time>2026-04-24T14:14:02.48Z</time></trkpt><trkpt lat="39.9300467" lon="9.5122067"><ele>1095.0</ele><time>2026-04-24T14:14:04.48Z</time></trkpt><trkpt lat="39.9301217" lon="9.5121083"><ele>1095.0</ele><time>2026-04-24T14:14:06.481Z</time></trkpt><trkpt lat="39.93017" lon="9.5119733"><ele>1098.75</ele><time>2026-04-24T14:14:08.48Z</time></trkpt><trkpt lat="39.9303233" lon="9.51184"><ele>1102.5</ele><time>2026-04-24T14:14:12.48Z</time></trkpt><trkpt lat="39.93044" lon="9.5118783"><ele>1106.25</ele><time>2026-04-24T14:14:14.48Z</time></trkpt><trkpt lat="39.930505" lon="9.5119183"><ele>1110.0</ele><time>2026-04-24T14:14:15.481Z</time></trkpt><trkpt lat="39.9305717" lon="9.5119617"><ele>1110.0000000000002</ele><time>2026-04-24T14:14:16.48Z</time></trkpt><trkpt lat="39.930625" lon="9.5120183"><ele>1110.0</ele><time>2026-04-24T14:14:17.481Z</time></trkpt><trkpt lat="39.930665" lon="9.5120933"><ele>1110.0</ele><time>2026-04-24T14:14:18.48Z</time></trkpt><trkpt lat="39.93068" lon="9.5121733"><ele>1110.0</ele><time>2026-04-24T14:14:19.481Z</time></trkpt><trkpt lat="39.9306483" lon="9.5122983"><ele>1110.0</ele><time>2026-04-24T14:14:21.48Z</time></trkpt><trkpt lat="39.930615" lon="9.5123733"><ele>1110.0000000000002</ele><time>2026-04-24T14:14:22.481Z</time></trkpt><trkpt lat="39.9305867" lon="9.512455"><ele>1110.0</ele><time>2026-04-24T14:14:23.48Z</time></trkpt><trkpt lat="39.9305667" lon="9.5125467"><ele>1110.25</ele><time>2026-04-24T14:14:24.481Z</time></trkpt><trkpt lat="39.9305467" lon="9.512685"><ele>1110.5</ele><time>2026-04-24T14:14:26.48Z</time></trkpt><trkpt lat="39.93048" lon="9.5127483"><ele>1110.75</ele><time>2026-04-24T14:14:28.481Z</time></trkpt><trkpt lat="39.9303633" lon="9.5127833"><ele>1111.0</ele><time>2026-04-24T14:14:30.481Z</time></trkpt><trkpt lat="39.9302183" lon="9.5128333"><ele>1111.0</ele><time>2026-04-24T14:14:32.48Z</time></trkpt><trkpt lat="39.930145" lon="9.5128783"><ele>1111.0</ele><time>2026-04-24T14:14:33.48Z</time></trkpt><trkpt lat="39.930075" lon="9.5129467"><ele>1111.0</ele><time>2026-04-24T14:14:34.48Z</time></trkpt><trkpt lat="39.9300133" lon="9.5130167"><ele>1111.0</ele><time>2026-04-24T14:14:35.48Z</time></trkpt><trkpt lat="39.9299633" lon="9.5130883"><ele>1111.0</ele><time>2026-04-24T14:14:36.48Z</time></trkpt><trkpt lat="39.9299233" lon="9.5131683"><ele>1111.0</ele><time>2026-04-24T14:14:37.481Z</time></trkpt><trkpt lat="39.9298883" lon="9.5132667"><ele>1112.6</ele><time>2026-04-24T14:14:38.48Z</time></trkpt><trkpt lat="39.929855" lon="9.5133717"><ele>1114.1999999999998</ele><time>2026-04-24T14:14:39.48Z</time></trkpt><trkpt lat="39.929825" lon="9.5134867"><ele>1115.8000000000002</ele><time>2026-04-24T14:14:40.481Z</time></trkpt><trkpt lat="39.9297933" lon="9.5136017"><ele>1117.4</ele><time>2026-04-24T14:14:41.481Z</time></trkpt><trkpt lat="39.92976" lon="9.5137167"><ele>1119.0</ele><time>2026-04-24T14:14:42.48Z</time></trkpt><trkpt lat="39.9297233" lon="9.5138267"><ele>1123.6000000000001</ele><time>2026-04-24T14:14:43.48Z</time></trkpt><trkpt lat="39.9296833" lon="9.513935"><ele>1128.2</ele><time>2026-04-24T14:14:44.481Z</time></trkpt><trkpt lat="39.9296417" lon="9.514045"><ele>1132.8000000000002</ele><time>2026-04-24T14:14:45.48Z</time></trkpt><trkpt lat="39.92959" lon="9.51415"><ele>1137.4</ele><time>2026-04-24T14:14:46.48Z</time></trkpt><trkpt lat="39.929545" lon="9.5142667"><ele>1142.0</ele><time>2026-04-24T14:14:47.48Z</time></trkpt><trkpt lat="39.9295017" lon="9.51439"><ele>1142.0</ele><time>2026-04-24T14:14:48.481Z</time></trkpt><trkpt lat="39.9294667" lon="9.514505"><ele>1142.0</ele><time>2026-04-24T14:14:49.48Z</time></trkpt><trkpt lat="39.929435" lon="9.5145967"><ele>1142.0</ele><time>2026-04-24T14:14:50.481Z</time></trkpt><trkpt lat="39.92942" lon="9.5147317"><ele>1142.0</ele><time>2026-04-24T14:14:52.48Z</time></trkpt><trkpt lat="39.92959" lon="9.5146583"><ele>1142.0</ele><time>2026-04-24T14:14:57.481Z</time></trkpt><trkpt lat="39.9297017" lon="9.5145533"><ele>1142.0</ele><time>2026-04-24T14:14:59.481Z</time></trkpt><trkpt lat="39.9297717" lon="9.5144883"><ele>1142.0</ele><time>2026-04-24T14:15:00.481Z</time></trkpt><trkpt lat="39.929845" lon="9.5144317"><ele>1142.0</ele><time>2026-04-24T14:15:01.482Z</time></trkpt><trkpt lat="39.9299283" lon="9.5143717"><ele>1142.0</ele><time>2026-04-24T14:15:02.481Z</time></trkpt><trkpt lat="39.930005" lon="9.5143067"><ele>1143.5</ele><time>2026-04-24T14:15:03.481Z</time></trkpt><trkpt lat="39.9300817" lon="9.514235"><ele>1145.0</ele><time>2026-04-24T14:15:04.481Z</time></trkpt><trkpt lat="39.930155" lon="9.514175"><ele>1146.5</ele><time>2026-04-24T14:15:05.482Z</time></trkpt><trkpt lat="39.9302183" lon="9.5141233"><ele>1148.0</ele><time>2026-04-24T14:15:06.481Z</time></trkpt><trkpt lat="39.9302783" lon="9.51409"><ele>1149.5</ele><time>2026-04-24T14:15:07.481Z</time></trkpt><trkpt lat="39.9303367" lon="9.5140583"><ele>1151.0</ele><time>2026-04-24T14:15:08.481Z</time></trkpt><trkpt lat="39.93046" lon="9.5140483"><ele>1151.0</ele><time>2026-04-24T14:15:10.482Z</time></trkpt><trkpt lat="39.9305783" lon="9.5140967"><ele>1151.0</ele><time>2026-04-24T14:15:12.482Z</time></trkpt><trkpt lat="39.9306367" lon="9.5141583"><ele>1151.0</ele><time>2026-04-24T14:15:13.482Z</time></trkpt><trkpt lat="39.9307483" lon="9.5143017"><ele>1151.0</ele><time>2026-04-24T14:15:15.481Z</time></trkpt><trkpt lat="39.930805" lon="9.5143483"><ele>1151.0</ele><time>2026-04-24T14:15:16.481Z</time></trkpt><trkpt lat="39.9309367" lon="9.51438"><ele>1152.0</ele><time>2026-04-24T14:15:18.481Z</time></trkpt><trkpt lat="39.93102" lon="9.51439"><ele>1153.0</ele><time>2026-04-24T14:15:19.482Z</time></trkpt><trkpt lat="39.9310933" lon="9.5143867"><ele>1154.0</ele><time>2026-04-24T14:15:20.481Z</time></trkpt><trkpt lat="39.9311567" lon="9.5143733"><ele>1155.0</ele><time>2026-04-24T14:15:21.481Z</time></trkpt><trkpt lat="39.9312383" lon="9.5143717"><ele>1156.0</ele><time>2026-04-24T14:15:23.482Z</time></trkpt><trkpt lat="39.931185" lon="9.5144683"><ele>1157.0</ele><time>2026-04-24T14:15:26.482Z</time></trkpt><trkpt lat="39.9311217" lon="9.5144933"><ele>1157.0</ele><time>2026-04-24T14:15:27.481Z</time></trkpt><trkpt lat="39.9310517" lon="9.51453"><ele>1157.0</ele><time>2026-04-24T14:15:28.481Z</time></trkpt><trkpt lat="39.9309733" lon="9.5146"><ele>1157.0</ele><time>2026-04-24T14:15:30.482Z</time></trkpt><trkpt lat="39.9310183" lon="9.514685"><ele>1157.0</ele><time>2026-04-24T14:15:34.482Z</time></trkpt><trkpt lat="39.9312067" lon="9.51464"><ele>1157.0</ele><time>2026-04-24T14:15:37.481Z</time></trkpt><trkpt lat="39.9312833" lon="9.5146183"><ele>1157.0</ele><time>2026-04-24T14:15:38.482Z</time></trkpt><trkpt lat="39.9313617" lon="9.5145967"><ele>1157.0</ele><time>2026-04-24T14:15:39.481Z</time></trkpt><trkpt lat="39.9314317" lon="9.5145783"><ele>1157.0</ele><time>2026-04-24T14:15:40.481Z</time></trkpt><trkpt lat="39.9315017" lon="9.514555"><ele>1157.0</ele><time>2026-04-24T14:15:42.482Z</time></trkpt><trkpt lat="39.9315367" lon="9.51465"><ele>1157.0</ele><time>2026-04-24T14:15:45.482Z</time></trkpt><trkpt lat="39.9314667" lon="9.5147267"><ele>1157.0</ele><time>2026-04-24T14:15:47.481Z</time></trkpt><trkpt lat="39.93136" lon="9.5148233"><ele>1161.0</ele><time>2026-04-24T14:15:49.482Z</time></trkpt><trkpt lat="39.9313067" lon="9.5148817"><ele>1165.0</ele><time>2026-04-24T14:15:50.481Z</time></trkpt><trkpt lat="39.9312533" lon="9.5149467"><ele>1169.0</ele><time>2026-04-24T14:15:51.481Z</time></trkpt><trkpt lat="39.9311817" lon="9.5150233"><ele>1173.0</ele><time>2026-04-24T14:15:52.481Z</time></trkpt><trkpt lat="39.9311083" lon="9.51509"><ele>1177.0</ele><time>2026-04-24T14:15:53.481Z</time></trkpt><trkpt lat="39.93104" lon="9.5151467"><ele>1181.0</ele><time>2026-04-24T14:15:54.482Z</time></trkpt><trkpt lat="39.9309667" lon="9.515195"><ele>1181.0</ele><time>2026-04-24T14:15:55.481Z</time></trkpt><trkpt lat="39.9308133" lon="9.5152767"><ele>1181.0</ele><time>2026-04-24T14:15:58.481Z</time></trkpt><trkpt lat="39.9308333" lon="9.515385"><ele>1181.0</ele><time>2026-04-24T14:16:01.482Z</time></trkpt><trkpt lat="39.9309567" lon="9.515415"><ele>1181.0</ele><time>2026-04-24T14:16:03.481Z</time></trkpt><trkpt lat="39.9310367" lon="9.5154017"><ele>1181.0</ele><time>2026-04-24T14:16:04.482Z</time></trkpt><trkpt lat="39.93111" lon="9.5154"><ele>1181.0</ele><time>2026-04-24T14:16:05.481Z</time></trkpt><trkpt lat="39.9311867" lon="9.5153817"><ele>1181.0</ele><time>2026-04-24T14:16:06.482Z</time></trkpt><trkpt lat="39.9312633" lon="9.5153667"><ele>1181.0</ele><time>2026-04-24T14:16:07.482Z</time></trkpt><trkpt lat="39.93134" lon="9.515335"><ele>1181.0</ele><time>2026-04-24T14:16:08.481Z</time></trkpt><trkpt lat="39.93141" lon="9.5153017"><ele>1181.0</ele><time>2026-04-24T14:16:09.482Z</time></trkpt><trkpt lat="39.9314867" lon="9.5152583"><ele>1181.0</ele><time>2026-04-24T14:16:10.481Z</time></trkpt><trkpt lat="39.9315917" lon="9.5152183"><ele>1181.0</ele><time>2026-04-24T14:16:12.482Z</time></trkpt><trkpt lat="39.9316283" lon="9.5152967"><ele>1181.0</ele><time>2026-04-24T14:16:14.481Z</time></trkpt><trkpt lat="39.931595" lon="9.5154067"><ele>1181.0</ele><time>2026-04-24T14:16:16.481Z</time></trkpt><trkpt lat="39.9315367" lon="9.51566"><ele>1183.6666666666667</ele><time>2026-04-24T14:16:20.481Z</time></trkpt><trkpt lat="39.9315333" lon="9.51575"><ele>1186.3333333333335</ele><time>2026-04-24T14:16:21.481Z</time></trkpt><trkpt lat="39.9315317" lon="9.5158567"><ele>1189.0</ele><time>2026-04-24T14:16:22.481Z</time></trkpt><trkpt lat="39.9315317" lon="9.5159633"><ele>1191.6666666666667</ele><time>2026-04-24T14:16:23.482Z</time></trkpt><trkpt lat="39.931525" lon="9.5160783"><ele>1194.3333333333333</ele><time>2026-04-24T14:16:24.481Z</time></trkpt><trkpt lat="39.9315267" lon="9.516185"><ele>1197.0</ele><time>2026-04-24T14:16:25.482Z</time></trkpt><trkpt lat="39.93153" lon="9.516285"><ele>1197.1666666666667</ele><time>2026-04-24T14:16:26.481Z</time></trkpt><trkpt lat="39.9315233" lon="9.5163883"><ele>1197.3333333333333</ele><time>2026-04-24T14:16:27.481Z</time></trkpt><trkpt lat="39.9315083" lon="9.5165017"><ele>1197.5</ele><time>2026-04-24T14:16:28.481Z</time></trkpt><trkpt lat="39.93149" lon="9.516605"><ele>1197.6666666666665</ele><time>2026-04-24T14:16:29.481Z</time></trkpt><trkpt lat="39.9314567" lon="9.5166767"><ele>1197.8333333333333</ele><time>2026-04-24T14:16:30.481Z</time></trkpt><trkpt lat="39.9314083" lon="9.51681"><ele>1198.0</ele><time>2026-04-24T14:16:32.481Z</time></trkpt><trkpt lat="39.9313783" lon="9.5168983"><ele>1198.0</ele><time>2026-04-24T14:16:33.482Z</time></trkpt><trkpt lat="39.9313483" lon="9.5169867"><ele>1198.0</ele><time>2026-04-24T14:16:34.481Z</time></trkpt><trkpt lat="39.9313217" lon="9.5170667"><ele>1198.0</ele><time>2026-04-24T14:16:35.481Z</time></trkpt><trkpt lat="39.9312817" lon="9.5171617"><ele>1198.0</ele><time>2026-04-24T14:16:36.481Z</time></trkpt><trkpt lat="39.9312333" lon="9.5172767"><ele>1198.0</ele><time>2026-04-24T14:16:37.481Z</time></trkpt><trkpt lat="39.93112" lon="9.517495"><ele>1196.5</ele><time>2026-04-24T14:16:39.482Z</time></trkpt><trkpt lat="39.9310583" lon="9.517625"><ele>1195.0</ele><time>2026-04-24T14:16:40.481Z</time></trkpt><trkpt lat="39.9309833" lon="9.51777"><ele>1193.5</ele><time>2026-04-24T14:16:41.481Z</time></trkpt><trkpt lat="39.93092" lon="9.5179183"><ele>1192.0</ele><time>2026-04-24T14:16:42.482Z</time></trkpt><trkpt lat="39.9308733" lon="9.5180567"><ele>1197.75</ele><time>2026-04-24T14:16:43.481Z</time></trkpt><trkpt lat="39.930835" lon="9.518205"><ele>1203.5</ele><time>2026-04-24T14:16:44.481Z</time></trkpt><trkpt lat="39.9308217" lon="9.5183667"><ele>1209.25</ele><time>2026-04-24T14:16:45.482Z</time></trkpt><trkpt lat="39.930805" lon="9.518525"><ele>1215.0</ele><time>2026-04-24T14:16:46.482Z</time></trkpt><trkpt lat="39.93078" lon="9.5186867"><ele>1215.4</ele><time>2026-04-24T14:16:47.481Z</time></trkpt><trkpt lat="39.93075" lon="9.51885"><ele>1215.8</ele><time>2026-04-24T14:16:48.481Z</time></trkpt><trkpt lat="39.9307217" lon="9.519"><ele>1216.2</ele><time>2026-04-24T14:16:49.481Z</time></trkpt><trkpt lat="39.9307117" lon="9.5191217"><ele>1216.6</ele><time>2026-04-24T14:16:50.481Z</time></trkpt><trkpt lat="39.9307067" lon="9.519235"><ele>1217.0</ele><time>2026-04-24T14:16:51.481Z</time></trkpt><trkpt lat="39.9306967" lon="9.5193283"><ele>1217.0</ele><time>2026-04-24T14:16:52.481Z</time></trkpt><trkpt lat="39.93068" lon="9.5194617"><ele>1217.0</ele><time>2026-04-24T14:16:54.481Z</time></trkpt><trkpt lat="39.930635" lon="9.51955"><ele>1217.0</ele><time>2026-04-24T14:16:56.482Z</time></trkpt><trkpt lat="39.9305733" lon="9.5196283"><ele>1217.0</ele><time>2026-04-24T14:16:58.482Z</time></trkpt><trkpt lat="39.930455" lon="9.5195167"><ele>1217.0</ele><time>2026-04-24T14:17:02.481Z</time></trkpt><trkpt lat="39.9304383" lon="9.5193883"><ele>1217.0</ele><time>2026-04-24T14:17:04.482Z</time></trkpt><trkpt lat="39.9304283" lon="9.519255"><ele>1217.0</ele><time>2026-04-24T14:17:06.482Z</time></trkpt><trkpt lat="39.93041" lon="9.51917"><ele>1217.0</ele><time>2026-04-24T14:17:07.482Z</time></trkpt><trkpt lat="39.93039" lon="9.519085"><ele>1217.0</ele><time>2026-04-24T14:17:08.481Z</time></trkpt><trkpt lat="39.9303733" lon="9.51898"><ele>1217.0</ele><time>2026-04-24T14:17:09.481Z</time></trkpt><trkpt lat="39.9303467" lon="9.5188667"><ele>1217.0</ele><time>2026-04-24T14:17:10.481Z</time></trkpt><trkpt lat="39.9303183" lon="9.518745"><ele>1216.6</ele><time>2026-04-24T14:17:11.481Z</time></trkpt><trkpt lat="39.9302867" lon="9.5186233"><ele>1216.2</ele><time>2026-04-24T14:17:12.481Z</time></trkpt><trkpt lat="39.9302433" lon="9.5184983"><ele>1215.8</ele><time>2026-04-24T14:17:13.482Z</time></trkpt><trkpt lat="39.9302017" lon="9.5183733"><ele>1215.4</ele><time>2026-04-24T14:17:14.481Z</time></trkpt><trkpt lat="39.9301583" lon="9.5182517"><ele>1215.0</ele><time>2026-04-24T14:17:15.481Z</time></trkpt><trkpt lat="39.9301133" lon="9.51815"><ele>1215.0</ele><time>2026-04-24T14:17:16.481Z</time></trkpt><trkpt lat="39.93006" lon="9.51806"><ele>1215.0</ele><time>2026-04-24T14:17:17.481Z</time></trkpt><trkpt lat="39.930005" lon="9.517985"><ele>1215.0</ele><time>2026-04-24T14:17:18.482Z</time></trkpt><trkpt lat="39.929955" lon="9.51792"><ele>1215.0</ele><time>2026-04-24T14:17:19.482Z</time></trkpt><trkpt lat="39.9298133" lon="9.5179383"><ele>1215.0</ele><time>2026-04-24T14:17:23.481Z</time></trkpt><trkpt lat="39.9298267" lon="9.5180683"><ele>1216.8333333333333</ele><time>2026-04-24T14:17:25.482Z</time></trkpt><trkpt lat="39.9298333" lon="9.5181633"><ele>1218.6666666666667</ele><time>2026-04-24T14:17:27.481Z</time></trkpt><trkpt lat="39.929775" lon="9.5182033"><ele>1220.5</ele><time>2026-04-24T14:35:23.483Z</time></trkpt><trkpt lat="39.9298033" lon="9.5180317"><ele>1222.3333333333335</ele><time>2026-04-24T14:35:29.482Z</time></trkpt><trkpt lat="39.9298433" lon="9.5179483"><ele>1224.1666666666667</ele><time>2026-04-24T14:35:31.483Z</time></trkpt><trkpt lat="39.9298983" lon="9.5178733"><ele>1226.0</ele><time>2026-04-24T14:35:34.483Z</time></trkpt><trkpt lat="39.929995" lon="9.51794"><ele>1227.2</ele><time>2026-04-24T14:35:37.483Z</time></trkpt><trkpt lat="39.9300533" lon="9.51803"><ele>1228.3999999999999</ele><time>2026-04-24T14:35:39.482Z</time></trkpt><trkpt lat="39.9300917" lon="9.518115"><ele>1229.6</ele><time>2026-04-24T14:35:41.482Z</time></trkpt><trkpt lat="39.9301367" lon="9.5182233"><ele>1230.8</ele><time>2026-04-24T14:35:43.483Z</time></trkpt><trkpt lat="39.930185" lon="9.5183583"><ele>1232.0</ele><time>2026-04-24T14:35:45.482Z</time></trkpt><trkpt lat="39.9302733" lon="9.518615"><ele>1229.0</ele><time>2026-04-24T14:35:49.482Z</time></trkpt><trkpt lat="39.9303133" lon="9.5187633"><ele>1226.0</ele><time>2026-04-24T14:35:51.483Z</time></trkpt><trkpt lat="39.9303317" lon="9.518845"><ele>1223.0</ele><time>2026-04-24T14:35:52.483Z</time></trkpt><trkpt lat="39.93036" lon="9.5190067"><ele>1220.0</ele><time>2026-04-24T14:35:54.483Z</time></trkpt><trkpt lat="39.9303933" lon="9.5191483"><ele>1217.0</ele><time>2026-04-24T14:35:56.483Z</time></trkpt><trkpt lat="39.9304333" lon="9.5192733"><ele>1217.0</ele><time>2026-04-24T14:35:58.482Z</time></trkpt><trkpt lat="39.9304533" lon="9.5194017"><ele>1217.0</ele><time>2026-04-24T14:36:00.482Z</time></trkpt><trkpt lat="39.9304567" lon="9.5195083"><ele>1217.0</ele><time>2026-04-24T14:36:02.483Z</time></trkpt><trkpt lat="39.9304717" lon="9.5196017"><ele>1217.0</ele><time>2026-04-24T14:36:04.482Z</time></trkpt><trkpt lat="39.93054" lon="9.5196483"><ele>1217.0</ele><time>2026-04-24T14:36:06.482Z</time></trkpt><trkpt lat="39.9306483" lon="9.519535"><ele>1217.0</ele><time>2026-04-24T14:36:10.482Z</time></trkpt><trkpt lat="39.9306767" lon="9.5194417"><ele>1217.0</ele><time>2026-04-24T14:36:12.482Z</time></trkpt><trkpt lat="39.9306967" lon="9.5193383"><ele>1217.0</ele><time>2026-04-24T14:36:14.482Z</time></trkpt><trkpt lat="39.9307" lon="9.51922"><ele>1217.0</ele><time>2026-04-24T14:36:16.483Z</time></trkpt><trkpt lat="39.9307133" lon="9.519055"><ele>1217.0</ele><time>2026-04-24T14:36:18.482Z</time></trkpt><trkpt lat="39.9307183" lon="9.5189617"><ele>1217.0</ele><time>2026-04-24T14:36:19.483Z</time></trkpt><trkpt lat="39.9307283" lon="9.518875"><ele>1217.0</ele><time>2026-04-24T14:36:20.483Z</time></trkpt><trkpt lat="39.930745" lon="9.5187833"><ele>1217.0</ele><time>2026-04-24T14:36:21.482Z</time></trkpt><trkpt lat="39.9307667" lon="9.5186967"><ele>1217.0</ele><time>2026-04-24T14:36:22.483Z</time></trkpt><trkpt lat="39.9307817" lon="9.518615"><ele>1217.0</ele><time>2026-04-24T14:36:23.483Z</time></trkpt><trkpt lat="39.9307917" lon="9.51853"><ele>1217.0</ele><time>2026-04-24T14:36:24.483Z</time></trkpt><trkpt lat="39.930795" lon="9.5184467"><ele>1217.0</ele><time>2026-04-24T14:36:25.483Z</time></trkpt><trkpt lat="39.930795" lon="9.5182983"><ele>1216.6</ele><time>2026-04-24T14:36:27.482Z</time></trkpt><trkpt lat="39.9308417" lon="9.51812"><ele>1216.2</ele><time>2026-04-24T14:36:29.482Z</time></trkpt><trkpt lat="39.9308733" lon="9.5180233"><ele>1215.8</ele><time>2026-04-24T14:36:30.483Z</time></trkpt><trkpt lat="39.9309083" lon="9.517925"><ele>1215.4</ele><time>2026-04-24T14:36:31.482Z</time></trkpt><trkpt lat="39.93094" lon="9.5178367"><ele>1215.0</ele><time>2026-04-24T14:36:32.483Z</time></trkpt><trkpt lat="39.9309817" lon="9.517745"><ele>1211.1666666666667</ele><time>2026-04-24T14:36:33.482Z</time></trkpt><trkpt lat="39.9310267" lon="9.5176667"><ele>1207.3333333333333</ele><time>2026-04-24T14:36:34.482Z</time></trkpt><trkpt lat="39.931075" lon="9.51759"><ele>1203.5</ele><time>2026-04-24T14:36:35.483Z</time></trkpt><trkpt lat="39.93112" lon="9.517495"><ele>1199.6666666666665</ele><time>2026-04-24T14:36:36.483Z</time></trkpt><trkpt lat="39.9311733" lon="9.517395"><ele>1195.8333333333333</ele><time>2026-04-24T14:36:37.483Z</time></trkpt><trkpt lat="39.9312217" lon="9.5172933"><ele>1192.0</ele><time>2026-04-24T14:36:38.482Z</time></trkpt><trkpt lat="39.9312667" lon="9.5171867"><ele>1192.0</ele><time>2026-04-24T14:36:39.482Z</time></trkpt><trkpt lat="39.9313117" lon="9.5170833"><ele>1192.0</ele><time>2026-04-24T14:36:40.482Z</time></trkpt><trkpt lat="39.93135" lon="9.516985"><ele>1192.0</ele><time>2026-04-24T14:36:41.483Z</time></trkpt><trkpt lat="39.931385" lon="9.51689"><ele>1192.0</ele><time>2026-04-24T14:36:42.483Z</time></trkpt><trkpt lat="39.931415" lon="9.5167967"><ele>1192.0</ele><time>2026-04-24T14:36:43.483Z</time></trkpt><trkpt lat="39.9314417" lon="9.5167033"><ele>1192.0</ele><time>2026-04-24T14:36:44.483Z</time></trkpt><trkpt lat="39.9314667" lon="9.516605"><ele>1193.0</ele><time>2026-04-24T14:36:45.483Z</time></trkpt><trkpt lat="39.9314867" lon="9.5165133"><ele>1194.0</ele><time>2026-04-24T14:36:46.483Z</time></trkpt><trkpt lat="39.9315067" lon="9.516415"><ele>1195.0</ele><time>2026-04-24T14:36:47.483Z</time></trkpt><trkpt lat="39.931515" lon="9.5163033"><ele>1196.0</ele><time>2026-04-24T14:36:48.482Z</time></trkpt><trkpt lat="39.9315083" lon="9.5160733"><ele>1197.0</ele><time>2026-04-24T14:36:50.482Z</time></trkpt><trkpt lat="39.9315083" lon="9.5159683"><ele>1197.0</ele><time>2026-04-24T14:36:51.482Z</time></trkpt><trkpt lat="39.9315133" lon="9.5158667"><ele>1197.0</ele><time>2026-04-24T14:36:52.482Z</time></trkpt><trkpt lat="39.9315133" lon="9.5157767"><ele>1197.0</ele><time>2026-04-24T14:36:53.483Z</time></trkpt><trkpt lat="39.9315233" lon="9.5156767"><ele>1197.0</ele><time>2026-04-24T14:36:54.482Z</time></trkpt><trkpt lat="39.93153" lon="9.5155917"><ele>1197.0</ele><time>2026-04-24T14:36:55.483Z</time></trkpt><trkpt lat="39.9315533" lon="9.5154417"><ele>1197.0</ele><time>2026-04-24T14:36:57.483Z</time></trkpt><trkpt lat="39.93161" lon="9.5153167"><ele>1193.8</ele><time>2026-04-24T14:36:59.483Z</time></trkpt><trkpt lat="39.9316267" lon="9.5152283"><ele>1190.6</ele><time>2026-04-24T14:37:01.482Z</time></trkpt><trkpt lat="39.9315483" lon="9.5152283"><ele>1187.3999999999999</ele><time>2026-04-24T14:37:04.482Z</time></trkpt><trkpt lat="39.93146" lon="9.5152917"><ele>1184.2</ele><time>2026-04-24T14:37:06.483Z</time></trkpt><trkpt lat="39.9313433" lon="9.5153367"><ele>1181.0</ele><time>2026-04-24T14:37:08.483Z</time></trkpt><trkpt lat="39.931265" lon="9.515365"><ele>1181.0</ele><time>2026-04-24T14:37:09.482Z</time></trkpt><trkpt lat="39.9311233" lon="9.5153983"><ele>1181.0</ele><time>2026-04-24T14:37:11.483Z</time></trkpt><trkpt lat="39.93106" lon="9.5154117"><ele>1181.0</ele><time>2026-04-24T14:37:12.483Z</time></trkpt><trkpt lat="39.9309883" lon="9.5154117"><ele>1181.0</ele><time>2026-04-24T14:37:13.482Z</time></trkpt><trkpt lat="39.930915" lon="9.5154133"><ele>1181.0</ele><time>2026-04-24T14:37:14.482Z</time></trkpt><trkpt lat="39.9308283" lon="9.51537"><ele>1181.0</ele><time>2026-04-24T14:37:16.482Z</time></trkpt><trkpt lat="39.9308067" lon="9.5152917"><ele>1181.0</ele><time>2026-04-24T14:37:18.483Z</time></trkpt><trkpt lat="39.9308917" lon="9.5152167"><ele>1181.0</ele><time>2026-04-24T14:37:20.483Z</time></trkpt><trkpt lat="39.931025" lon="9.515165"><ele>1181.0</ele><time>2026-04-24T14:37:22.483Z</time></trkpt><trkpt lat="39.9310933" lon="9.51511"><ele>1181.0</ele><time>2026-04-24T14:37:23.482Z</time></trkpt><trkpt lat="39.93117" lon="9.5150367"><ele>1181.0</ele><time>2026-04-24T14:37:24.482Z</time></trkpt><trkpt lat="39.931245" lon="9.5149517"><ele>1181.0</ele><time>2026-04-24T14:37:25.483Z</time></trkpt><trkpt lat="39.9313167" lon="9.5148783"><ele>1181.0</ele><time>2026-04-24T14:37:26.482Z</time></trkpt><trkpt lat="39.9313767" lon="9.514815"><ele>1181.0</ele><time>2026-04-24T14:37:27.482Z</time></trkpt><trkpt lat="39.9314317" lon="9.514765"><ele>1181.0</ele><time>2026-04-24T14:37:28.482Z</time></trkpt><trkpt lat="39.9315267" lon="9.5147033"><ele>1181.0</ele><time>2026-04-24T14:37:30.483Z</time></trkpt><trkpt lat="39.9314933" lon="9.5145633"><ele>1181.0</ele><time>2026-04-24T14:37:34.483Z</time></trkpt><trkpt lat="39.9313883" lon="9.5145883"><ele>1181.0</ele><time>2026-04-24T14:37:36.482Z</time></trkpt><trkpt lat="39.931325" lon="9.5146083"><ele>1181.0</ele><time>2026-04-24T14:37:37.482Z</time></trkpt><trkpt lat="39.9312633" lon="9.514625"><ele>1181.0</ele><time>2026-04-24T14:37:38.483Z</time></trkpt><trkpt lat="39.9311983" lon="9.5146417"><ele>1181.0</ele><time>2026-04-24T14:37:39.482Z</time></trkpt><trkpt lat="39.9310833" lon="9.5146717"><ele>1181.0</ele><time>2026-04-24T14:37:41.482Z</time></trkpt><trkpt lat="39.9310083" lon="9.5146783"><ele>1181.0</ele><time>2026-04-24T14:37:43.483Z</time></trkpt><trkpt lat="39.9310083" lon="9.5145717"><ele>1181.0</ele><time>2026-04-24T14:37:46.483Z</time></trkpt><trkpt lat="39.93109" lon="9.5145217"><ele>1181.0</ele><time>2026-04-24T14:37:48.482Z</time></trkpt><trkpt lat="39.93115" lon="9.514495"><ele>1181.0</ele><time>2026-04-24T14:37:49.482Z</time></trkpt><trkpt lat="39.9312333" lon="9.514445"><ele>1181.0</ele><time>2026-04-24T14:37:51.483Z</time></trkpt><trkpt lat="39.9310983" lon="9.5143717"><ele>1176.2</ele><time>2026-04-24T14:37:56.482Z</time></trkpt><trkpt lat="39.9309817" lon="9.5143883"><ele>1171.3999999999999</ele><time>2026-04-24T14:37:58.482Z</time></trkpt><trkpt lat="39.9308633" lon="9.5143733"><ele>1166.6</ele><time>2026-04-24T14:38:00.482Z</time></trkpt><trkpt lat="39.9307533" lon="9.5143033"><ele>1161.8</ele><time>2026-04-24T14:38:02.483Z</time></trkpt><trkpt lat="39.9307" lon="9.5142367"><ele>1157.0</ele><time>2026-04-24T14:38:03.482Z</time></trkpt><trkpt lat="39.930645" lon="9.514165"><ele>1156.0</ele><time>2026-04-24T14:38:04.482Z</time></trkpt><trkpt lat="39.9305883" lon="9.5141083"><ele>1155.0</ele><time>2026-04-24T14:38:05.482Z</time></trkpt><trkpt lat="39.93053" lon="9.514075"><ele>1154.0</ele><time>2026-04-24T14:38:06.482Z</time></trkpt><trkpt lat="39.9304117" lon="9.5140483"><ele>1153.0</ele><time>2026-04-24T14:38:08.482Z</time></trkpt><trkpt lat="39.9303483" lon="9.5140567"><ele>1152.0</ele><time>2026-04-24T14:38:09.482Z</time></trkpt><trkpt lat="39.9302383" lon="9.514115"><ele>1151.0</ele><time>2026-04-24T14:38:11.482Z</time></trkpt><trkpt lat="39.9301817" lon="9.5141533"><ele>1149.2</ele><time>2026-04-24T14:38:12.482Z</time></trkpt><trkpt lat="39.930045" lon="9.5142667"><ele>1147.3999999999999</ele><time>2026-04-24T14:38:14.482Z</time></trkpt><trkpt lat="39.9299683" lon="9.5143367"><ele>1145.6</ele><time>2026-04-24T14:38:15.483Z</time></trkpt><trkpt lat="39.9298967" lon="9.514405"><ele>1143.8</ele><time>2026-04-24T14:38:16.482Z</time></trkpt><trkpt lat="39.92983" lon="9.5144633"><ele>1142.0</ele><time>2026-04-24T14:38:17.483Z</time></trkpt><trkpt lat="39.929765" lon="9.514515"><ele>1142.0</ele><time>2026-04-24T14:38:18.482Z</time></trkpt><trkpt lat="39.9296983" lon="9.5145733"><ele>1142.0</ele><time>2026-04-24T14:38:19.483Z</time></trkpt><trkpt lat="39.92964" lon="9.5146233"><ele>1142.0</ele><time>2026-04-24T14:38:20.483Z</time></trkpt><trkpt lat="39.929545" lon="9.5146983"><ele>1142.0</ele><time>2026-04-24T14:38:22.483Z</time></trkpt><trkpt lat="39.929485" lon="9.514725"><ele>1142.0</ele><time>2026-04-24T14:38:24.483Z</time></trkpt><trkpt lat="39.9294783" lon="9.5146333"><ele>1142.0</ele><time>2026-04-24T14:38:26.483Z</time></trkpt><trkpt lat="39.9295133" lon="9.5145183"><ele>1142.0</ele><time>2026-04-24T14:38:28.482Z</time></trkpt><trkpt lat="39.9295367" lon="9.5144333"><ele>1142.0</ele><time>2026-04-24T14:38:29.482Z</time></trkpt><trkpt lat="39.9295633" lon="9.514335"><ele>1142.0</ele><time>2026-04-24T14:38:30.482Z</time></trkpt><trkpt lat="39.9295983" lon="9.5142333"><ele>1142.0</ele><time>2026-04-24T14:38:31.482Z</time></trkpt><trkpt lat="39.9296367" lon="9.5141383"><ele>1142.0</ele><time>2026-04-24T14:38:32.483Z</time></trkpt><trkpt lat="39.929665" lon="9.5140383"><ele>1142.0</ele><time>2026-04-24T14:38:33.483Z</time></trkpt><trkpt lat="39.9297367" lon="9.51385"><ele>1142.0</ele><time>2026-04-24T14:38:35.483Z</time></trkpt><trkpt lat="39.9297683" lon="9.5137567"><ele>1142.0</ele><time>2026-04-24T14:38:36.483Z</time></trkpt><trkpt lat="39.9297967" lon="9.5136633"><ele>1142.0</ele><time>2026-04-24T14:38:37.483Z</time></trkpt><trkpt lat="39.9298233" lon="9.5135683"><ele>1142.0</ele><time>2026-04-24T14:38:38.483Z</time></trkpt><trkpt lat="39.9298483" lon="9.5134767"><ele>1142.0</ele><time>2026-04-24T14:38:39.482Z</time></trkpt><trkpt lat="39.9298683" lon="9.5133783"><ele>1142.0</ele><time>2026-04-24T14:38:40.482Z</time></trkpt><trkpt lat="39.9298933" lon="9.5132933"><ele>1139.5</ele><time>2026-04-24T14:38:41.483Z</time></trkpt><trkpt lat="39.9299217" lon="9.5132117"><ele>1137.0</ele><time>2026-04-24T14:38:42.483Z</time></trkpt><trkpt lat="39.92995" lon="9.5131383"><ele>1134.5</ele><time>2026-04-24T14:38:43.483Z</time></trkpt><trkpt lat="39.9300183" lon="9.5130283"><ele>1132.0</ele><time>2026-04-24T14:38:45.482Z</time></trkpt><trkpt lat="39.9300667" lon="9.5129667"><ele>1129.5</ele><time>2026-04-24T14:38:46.482Z</time></trkpt><trkpt lat="39.9301683" lon="9.512885"><ele>1127.0</ele><time>2026-04-24T14:38:48.483Z</time></trkpt><trkpt lat="39.93028" lon="9.5128117"><ele>1123.8</ele><time>2026-04-24T14:38:50.482Z</time></trkpt><trkpt lat="39.9303433" lon="9.512785"><ele>1120.6</ele><time>2026-04-24T14:38:51.482Z</time></trkpt><trkpt lat="39.9304117" lon="9.5127683"><ele>1117.3999999999999</ele><time>2026-04-24T14:38:52.482Z</time></trkpt><trkpt lat="39.93052" lon="9.5127367"><ele>1114.2</ele><time>2026-04-24T14:38:54.482Z</time></trkpt><trkpt lat="39.9305933" lon="9.5125033"><ele>1111.0</ele><time>2026-04-24T14:38:58.483Z</time></trkpt><trkpt lat="39.9306267" lon="9.51235"><ele>1111.0</ele><time>2026-04-24T14:39:00.483Z</time></trkpt><trkpt lat="39.930685" lon="9.512225"><ele>1111.0</ele><time>2026-04-24T14:39:02.482Z</time></trkpt><trkpt lat="39.9306833" lon="9.5121083"><ele>1111.0</ele><time>2026-04-24T14:39:04.483Z</time></trkpt><trkpt lat="39.9306217" lon="9.5119967"><ele>1111.0</ele><time>2026-04-24T14:39:06.482Z</time></trkpt><trkpt lat="39.930515" lon="9.511925"><ele>1111.0</ele><time>2026-04-24T14:39:08.483Z</time></trkpt><trkpt lat="39.9304517" lon="9.5118917"><ele>1111.0</ele><time>2026-04-24T14:39:09.483Z</time></trkpt><trkpt lat="39.9303883" lon="9.511875"><ele>1111.0</ele><time>2026-04-24T14:39:10.483Z</time></trkpt><trkpt lat="39.93027" lon="9.5118733"><ele>1111.0</ele><time>2026-04-24T14:39:12.483Z</time></trkpt><trkpt lat="39.930185" lon="9.5119733"><ele>1111.0</ele><time>2026-04-24T14:39:14.483Z</time></trkpt><trkpt lat="39.9301367" lon="9.5120933"><ele>1111.0</ele><time>2026-04-24T14:39:16.482Z</time></trkpt><trkpt lat="39.930005" lon="9.512235"><ele>1108.3333333333333</ele><time>2026-04-24T14:39:19.482Z</time></trkpt><trkpt lat="39.9299367" lon="9.5122533"><ele>1105.6666666666665</ele><time>2026-04-24T14:39:20.483Z</time></trkpt><trkpt lat="39.9298633" lon="9.5122683"><ele>1103.0</ele><time>2026-04-24T14:39:21.483Z</time></trkpt><trkpt lat="39.9297867" lon="9.5122883"><ele>1100.3333333333333</ele><time>2026-04-24T14:39:22.483Z</time></trkpt><trkpt lat="39.9297083" lon="9.5123233"><ele>1097.6666666666667</ele><time>2026-04-24T14:39:23.482Z</time></trkpt><trkpt lat="39.929635" lon="9.512375"><ele>1095.0</ele><time>2026-04-24T14:39:24.482Z</time></trkpt><trkpt lat="39.9295567" lon="9.5124433"><ele>1095.0</ele><time>2026-04-24T14:39:25.483Z</time></trkpt><trkpt lat="39.929485" lon="9.5125133"><ele>1095.0</ele><time>2026-04-24T14:39:26.482Z</time></trkpt><trkpt lat="39.9294133" lon="9.5125733"><ele>1095.0</ele><time>2026-04-24T14:39:27.482Z</time></trkpt><trkpt lat="39.9293483" lon="9.5126283"><ele>1095.0</ele><time>2026-04-24T14:39:28.483Z</time></trkpt><trkpt lat="39.9292917" lon="9.5126783"><ele>1095.0</ele><time>2026-04-24T14:39:29.482Z</time></trkpt><trkpt lat="39.9292317" lon="9.5127283"><ele>1095.0</ele><time>2026-04-24T14:39:30.482Z</time></trkpt><trkpt lat="39.929165" lon="9.5127733"><ele>1095.3333333333333</ele><time>2026-04-24T14:39:31.483Z</time></trkpt><trkpt lat="39.9291" lon="9.512815"><ele>1095.6666666666667</ele><time>2026-04-24T14:39:32.483Z</time></trkpt><trkpt lat="39.92905" lon="9.5128683"><ele>1096.0</ele><time>2026-04-24T14:39:33.482Z</time></trkpt><trkpt lat="39.9290017" lon="9.5129267"><ele>1096.3333333333335</ele><time>2026-04-24T14:39:34.482Z</time></trkpt><trkpt lat="39.92894" lon="9.5130567"><ele>1096.6666666666667</ele><time>2026-04-24T14:39:36.483Z</time></trkpt><trkpt lat="39.9289217" lon="9.51314"><ele>1097.0</ele><time>2026-04-24T14:39:37.482Z</time></trkpt><trkpt lat="39.92882" lon="9.5133083"><ele>1097.0</ele><time>2026-04-24T14:39:41.483Z</time></trkpt><trkpt lat="39.9287133" lon="9.5132567"><ele>1097.0</ele><time>2026-04-24T14:39:43.482Z</time></trkpt><trkpt lat="39.9286133" lon="9.5132783"><ele>1097.0</ele><time>2026-04-24T14:39:45.483Z</time></trkpt><trkpt lat="39.928515" lon="9.5132867"><ele>1097.0</ele><time>2026-04-24T14:39:47.483Z</time></trkpt><trkpt lat="39.928425" lon="9.5131733"><ele>1097.0</ele><time>2026-04-24T14:39:49.483Z</time></trkpt><trkpt lat="39.9283817" lon="9.5131033"><ele>1095.7142857142858</ele><time>2026-04-24T14:39:50.483Z</time></trkpt><trkpt lat="39.9283367" lon="9.5130417"><ele>1094.4285714285716</ele><time>2026-04-24T14:39:51.483Z</time></trkpt><trkpt lat="39.9282767" lon="9.5129833"><ele>1093.142857142857</ele><time>2026-04-24T14:39:52.483Z</time></trkpt><trkpt lat="39.9282117" lon="9.5129333"><ele>1091.857142857143</ele><time>2026-04-24T14:39:53.483Z</time></trkpt><trkpt lat="39.9281483" lon="9.5128817"><ele>1090.5714285714284</ele><time>2026-04-24T14:39:54.483Z</time></trkpt><trkpt lat="39.9280833" lon="9.5128333"><ele>1089.2857142857142</ele><time>2026-04-24T14:39:55.482Z</time></trkpt><trkpt lat="39.928015" lon="9.5127867"><ele>1088.0</ele><time>2026-04-24T14:39:56.483Z</time></trkpt><trkpt lat="39.92795" lon="9.5127283"><ele>1083.0</ele><time>2026-04-24T14:39:57.483Z</time></trkpt><trkpt lat="39.927885" lon="9.51267"><ele>1078.0</ele><time>2026-04-24T14:39:58.483Z</time></trkpt><trkpt lat="39.927755" lon="9.51253"><ele>1073.0</ele><time>2026-04-24T14:40:00.482Z</time></trkpt><trkpt lat="39.9276933" lon="9.5124517"><ele>1068.0</ele><time>2026-04-24T14:40:01.483Z</time></trkpt><trkpt lat="39.927635" lon="9.5123717"><ele>1063.0</ele><time>2026-04-24T14:40:02.483Z</time></trkpt><trkpt lat="39.9275817" lon="9.512295"><ele>1062.8333333333333</ele><time>2026-04-24T14:40:03.482Z</time></trkpt><trkpt lat="39.92753" lon="9.51223"><ele>1062.6666666666665</ele><time>2026-04-24T14:40:04.483Z</time></trkpt><trkpt lat="39.9274783" lon="9.512175"><ele>1062.5</ele><time>2026-04-24T14:40:05.482Z</time></trkpt><trkpt lat="39.9273817" lon="9.5121117"><ele>1062.3333333333333</ele><time>2026-04-24T14:40:07.482Z</time></trkpt><trkpt lat="39.927285" lon="9.5121233"><ele>1062.1666666666667</ele><time>2026-04-24T14:40:09.484Z</time></trkpt><trkpt lat="39.927195" lon="9.5121833"><ele>1062.0</ele><time>2026-04-24T14:40:11.483Z</time></trkpt><trkpt lat="39.9271167" lon="9.5122733"><ele>1062.0</ele><time>2026-04-24T14:40:13.483Z</time></trkpt><trkpt lat="39.9270317" lon="9.51237"><ele>1062.0</ele><time>2026-04-24T14:40:15.484Z</time></trkpt><trkpt lat="39.9269483" lon="9.51243"><ele>1062.0</ele><time>2026-04-24T14:40:17.484Z</time></trkpt><trkpt lat="39.9268833" lon="9.5124483"><ele>1062.0</ele><time>2026-04-24T14:40:18.483Z</time></trkpt><trkpt lat="39.9267883" lon="9.5124667"><ele>1062.0</ele><time>2026-04-24T14:40:20.483Z</time></trkpt><trkpt lat="39.9266683" lon="9.51255"><ele>1060.8333333333333</ele><time>2026-04-24T14:40:22.484Z</time></trkpt><trkpt lat="39.9265983" lon="9.5126033"><ele>1059.6666666666667</ele><time>2026-04-24T14:40:23.484Z</time></trkpt><trkpt lat="39.9265267" lon="9.5126533"><ele>1058.5</ele><time>2026-04-24T14:40:24.484Z</time></trkpt><trkpt lat="39.9264517" lon="9.5127033"><ele>1057.3333333333335</ele><time>2026-04-24T14:40:25.484Z</time></trkpt><trkpt lat="39.9263717" lon="9.512755"><ele>1056.1666666666667</ele><time>2026-04-24T14:40:26.483Z</time></trkpt><trkpt lat="39.9262917" lon="9.51282"><ele>1055.0</ele><time>2026-04-24T14:40:27.484Z</time></trkpt><trkpt lat="39.9262133" lon="9.5128817"><ele>1057.5</ele><time>2026-04-24T14:40:28.484Z</time></trkpt><trkpt lat="39.92614" lon="9.5129383"><ele>1060.0</ele><time>2026-04-24T14:40:29.484Z</time></trkpt><trkpt lat="39.9260717" lon="9.513"><ele>1062.5</ele><time>2026-04-24T14:40:30.483Z</time></trkpt><trkpt lat="39.9260167" lon="9.5130567"><ele>1065.0</ele><time>2026-04-24T14:40:31.483Z</time></trkpt><trkpt lat="39.925965" lon="9.5131133"><ele>1067.5</ele><time>2026-04-24T14:40:32.483Z</time></trkpt><trkpt lat="39.9258367" lon="9.513135"><ele>1070.0</ele><time>2026-04-24T14:40:34.484Z</time></trkpt><trkpt lat="39.9257617" lon="9.513115"><ele>1070.0</ele><time>2026-04-24T14:40:35.483Z</time></trkpt><trkpt lat="39.9256783" lon="9.51311"><ele>1070.0</ele><time>2026-04-24T14:40:36.483Z</time></trkpt><trkpt lat="39.925595" lon="9.5131183"><ele>1070.0</ele><time>2026-04-24T14:40:37.483Z</time></trkpt><trkpt lat="39.9255117" lon="9.5131283"><ele>1070.0</ele><time>2026-04-24T14:40:38.484Z</time></trkpt><trkpt lat="39.9254267" lon="9.5131283"><ele>1070.0</ele><time>2026-04-24T14:40:39.484Z</time></trkpt><trkpt lat="39.9253383" lon="9.5131233"><ele>1070.0</ele><time>2026-04-24T14:40:40.484Z</time></trkpt><trkpt lat="39.9252383" lon="9.5131067"><ele>1069.5</ele><time>2026-04-24T14:40:41.484Z</time></trkpt><trkpt lat="39.9250283" lon="9.51309"><ele>1069.0</ele><time>2026-04-24T14:40:43.483Z</time></trkpt><trkpt lat="39.9249367" lon="9.513075"><ele>1068.5</ele><time>2026-04-24T14:40:44.483Z</time></trkpt><trkpt lat="39.9248483" lon="9.51306"><ele>1068.0</ele><time>2026-04-24T14:40:45.483Z</time></trkpt><trkpt lat="39.92477" lon="9.513045"><ele>1068.0</ele><time>2026-04-24T14:40:46.483Z</time></trkpt><trkpt lat="39.9246983" lon="9.5130417"><ele>1068.0</ele><time>2026-04-24T14:40:47.484Z</time></trkpt><trkpt lat="39.9246283" lon="9.5130483"><ele>1068.0</ele><time>2026-04-24T14:40:48.483Z</time></trkpt><trkpt lat="39.9245117" lon="9.51306"><ele>1068.0</ele><time>2026-04-24T14:40:50.484Z</time></trkpt><trkpt lat="39.9243933" lon="9.51299"><ele>1068.0</ele><time>2026-04-24T14:40:52.483Z</time></trkpt><trkpt lat="39.9243267" lon="9.5129117"><ele>1065.0</ele><time>2026-04-24T14:40:53.483Z</time></trkpt><trkpt lat="39.9242717" lon="9.5127867"><ele>1062.0</ele><time>2026-04-24T14:40:54.484Z</time></trkpt><trkpt lat="39.924205" lon="9.5126683"><ele>1059.0</ele><time>2026-04-24T14:40:55.483Z</time></trkpt><trkpt lat="39.9241317" lon="9.51257"><ele>1056.0</ele><time>2026-04-24T14:40:56.484Z</time></trkpt><trkpt lat="39.9240467" lon="9.5124833"><ele>1053.0</ele><time>2026-04-24T14:40:57.484Z</time></trkpt><trkpt lat="39.9239617" lon="9.5124067"><ele>1053.0</ele><time>2026-04-24T14:40:58.483Z</time></trkpt><trkpt lat="39.9238817" lon="9.5123267"><ele>1053.0</ele><time>2026-04-24T14:40:59.484Z</time></trkpt><trkpt lat="39.9238033" lon="9.51224"><ele>1053.0</ele><time>2026-04-24T14:41:00.483Z</time></trkpt><trkpt lat="39.9237283" lon="9.5121433"><ele>1053.0</ele><time>2026-04-24T14:41:01.484Z</time></trkpt><trkpt lat="39.923645" lon="9.5120583"><ele>1053.0</ele><time>2026-04-24T14:41:02.483Z</time></trkpt><trkpt lat="39.9234983" lon="9.5118883"><ele>1052.0</ele><time>2026-04-24T14:41:04.483Z</time></trkpt><trkpt lat="39.9234183" lon="9.511805"><ele>1051.0</ele><time>2026-04-24T14:41:05.483Z</time></trkpt><trkpt lat="39.9233417" lon="9.51172"><ele>1050.0</ele><time>2026-04-24T14:41:06.484Z</time></trkpt><trkpt lat="39.9232667" lon="9.5116433"><ele>1049.0</ele><time>2026-04-24T14:41:07.484Z</time></trkpt><trkpt lat="39.9231883" lon="9.5115817"><ele>1048.0</ele><time>2026-04-24T14:41:08.484Z</time></trkpt><trkpt lat="39.9231117" lon="9.51152"><ele>1048.0</ele><time>2026-04-24T14:41:09.484Z</time></trkpt><trkpt lat="39.9230417" lon="9.5114533"><ele>1048.0</ele><time>2026-04-24T14:41:10.484Z</time></trkpt><trkpt lat="39.9229733" lon="9.511375"><ele>1048.0</ele><time>2026-04-24T14:41:11.483Z</time></trkpt><trkpt lat="39.9229083" lon="9.511285"><ele>1048.0</ele><time>2026-04-24T14:41:12.483Z</time></trkpt><trkpt lat="39.9228317" lon="9.511185"><ele>1048.0</ele><time>2026-04-24T14:41:13.483Z</time></trkpt><trkpt lat="39.9227467" lon="9.5110883"><ele>1047.4</ele><time>2026-04-24T14:41:14.484Z</time></trkpt><trkpt lat="39.9226667" lon="9.5109917"><ele>1046.8</ele><time>2026-04-24T14:41:15.484Z</time></trkpt><trkpt lat="39.92258" lon="9.5109017"><ele>1046.2</ele><time>2026-04-24T14:41:16.483Z</time></trkpt><trkpt lat="39.9225" lon="9.510815"><ele>1045.6</ele><time>2026-04-24T14:41:17.484Z</time></trkpt><trkpt lat="39.9224233" lon="9.510735"><ele>1045.0</ele><time>2026-04-24T14:41:18.483Z</time></trkpt><trkpt lat="39.92235" lon="9.510655"><ele>1045.0</ele><time>2026-04-24T14:41:19.484Z</time></trkpt><trkpt lat="39.9222783" lon="9.510565"><ele>1045.0</ele><time>2026-04-24T14:41:20.484Z</time></trkpt><trkpt lat="39.92221" lon="9.5104767"><ele>1045.0</ele><time>2026-04-24T14:41:21.483Z</time></trkpt><trkpt lat="39.922145" lon="9.510395"><ele>1045.0</ele><time>2026-04-24T14:41:22.483Z</time></trkpt><trkpt lat="39.9220817" lon="9.5103133"><ele>1045.0</ele><time>2026-04-24T14:41:23.484Z</time></trkpt><trkpt lat="39.92197" lon="9.5101267"><ele>1045.0</ele><time>2026-04-24T14:41:25.484Z</time></trkpt><trkpt lat="39.921925" lon="9.5100283"><ele>1045.0</ele><time>2026-04-24T14:41:26.483Z</time></trkpt><trkpt lat="39.921885" lon="9.5099233"><ele>1045.0</ele><time>2026-04-24T14:41:27.484Z</time></trkpt><trkpt lat="39.9218467" lon="9.50983"><ele>1045.0</ele><time>2026-04-24T14:41:28.483Z</time></trkpt><trkpt lat="39.9218033" lon="9.5097383"><ele>1045.0</ele><time>2026-04-24T14:41:29.484Z</time></trkpt><trkpt lat="39.92174" lon="9.50966"><ele>1045.0</ele><time>2026-04-24T14:41:30.483Z</time></trkpt><trkpt lat="39.921655" lon="9.5096"><ele>1040.6</ele><time>2026-04-24T14:41:31.484Z</time></trkpt><trkpt lat="39.9215633" lon="9.5095317"><ele>1036.2</ele><time>2026-04-24T14:41:32.483Z</time></trkpt><trkpt lat="39.9214767" lon="9.509475"><ele>1031.8</ele><time>2026-04-24T14:41:33.484Z</time></trkpt><trkpt lat="39.9214" lon="9.5094133"><ele>1027.4</ele><time>2026-04-24T14:41:34.483Z</time></trkpt><trkpt lat="39.921335" lon="9.5093433"><ele>1023.0</ele><time>2026-04-24T14:41:35.483Z</time></trkpt><trkpt lat="39.9212683" lon="9.5092833"><ele>1023.0</ele><time>2026-04-24T14:41:36.484Z</time></trkpt><trkpt lat="39.9212" lon="9.5092333"><ele>1023.0</ele><time>2026-04-24T14:41:37.484Z</time></trkpt><trkpt lat="39.92114" lon="9.509175"><ele>1023.0</ele><time>2026-04-24T14:41:38.484Z</time></trkpt><trkpt lat="39.9210833" lon="9.509095"><ele>1023.0</ele><time>2026-04-24T14:41:39.483Z</time></trkpt><trkpt lat="39.9210183" lon="9.509005"><ele>1023.0</ele><time>2026-04-24T14:41:40.483Z</time></trkpt><trkpt lat="39.9209533" lon="9.5089167"><ele>1023.0</ele><time>2026-04-24T14:41:41.483Z</time></trkpt><trkpt lat="39.92088" lon="9.5088183"><ele>1022.2</ele><time>2026-04-24T14:41:42.483Z</time></trkpt><trkpt lat="39.9208" lon="9.508735"><ele>1021.4</ele><time>2026-04-24T14:41:43.483Z</time></trkpt><trkpt lat="39.9207383" lon="9.508655"><ele>1020.6000000000001</ele><time>2026-04-24T14:41:44.484Z</time></trkpt><trkpt lat="39.92063" lon="9.5085083"><ele>1019.8000000000001</ele><time>2026-04-24T14:41:46.484Z</time></trkpt><trkpt lat="39.9205767" lon="9.50846"><ele>1019.0</ele><time>2026-04-24T14:41:47.484Z</time></trkpt><trkpt lat="39.9205183" lon="9.508415"><ele>1019.0</ele><time>2026-04-24T14:41:48.483Z</time></trkpt><trkpt lat="39.9204317" lon="9.5082883"><ele>1019.0000000000001</ele><time>2026-04-24T14:41:50.483Z</time></trkpt><trkpt lat="39.9204117" lon="9.5081983"><ele>1019.0000000000001</ele><time>2026-04-24T14:41:51.483Z</time></trkpt><trkpt lat="39.9204067" lon="9.5080967"><ele>1019.0</ele><time>2026-04-24T14:41:52.484Z</time></trkpt><trkpt lat="39.9204083" lon="9.5079817"><ele>1019.0</ele><time>2026-04-24T14:41:53.483Z</time></trkpt><trkpt lat="39.9204133" lon="9.5078433"><ele>1016.2</ele><time>2026-04-24T14:41:54.484Z</time></trkpt><trkpt lat="39.9204117" lon="9.5077183"><ele>1013.4000000000001</ele><time>2026-04-24T14:41:55.483Z</time></trkpt><trkpt lat="39.9204067" lon="9.5075883"><ele>1010.6</ele><time>2026-04-24T14:41:56.483Z</time></trkpt><trkpt lat="39.9203967" lon="9.5074583"><ele>1007.8</ele><time>2026-04-24T14:41:57.484Z</time></trkpt><trkpt lat="39.920385" lon="9.5073383"><ele>1005.0</ele><time>2026-04-24T14:41:58.483Z</time></trkpt><trkpt lat="39.920355" lon="9.5072433"><ele>1005.0</ele><time>2026-04-24T14:41:59.483Z</time></trkpt><trkpt lat="39.9203167" lon="9.5071683"><ele>1005.0</ele><time>2026-04-24T14:42:00.483Z</time></trkpt><trkpt lat="39.920265" lon="9.5070983"><ele>1005.0</ele><time>2026-04-24T14:42:01.483Z</time></trkpt><trkpt lat="39.9201983" lon="9.5070283"><ele>1005.0</ele><time>2026-04-24T14:42:02.484Z</time></trkpt><trkpt lat="39.920125" lon="9.50695"><ele>1005.0</ele><time>2026-04-24T14:42:03.483Z</time></trkpt><trkpt lat="39.920055" lon="9.5068583"><ele>1005.0</ele><time>2026-04-24T14:42:04.483Z</time></trkpt><trkpt lat="39.9199967" lon="9.50676"><ele>1005.0</ele><time>2026-04-24T14:42:05.484Z</time></trkpt><trkpt lat="39.919885" lon="9.5065217"><ele>1005.0</ele><time>2026-04-24T14:42:07.483Z</time></trkpt><trkpt lat="39.9198283" lon="9.506415"><ele>1005.0</ele><time>2026-04-24T14:42:08.484Z</time></trkpt><trkpt lat="39.9197767" lon="9.50629"><ele>1005.0</ele><time>2026-04-24T14:42:09.484Z</time></trkpt><trkpt lat="39.9197217" lon="9.5061667"><ele>1005.0</ele><time>2026-04-24T14:42:10.484Z</time></trkpt><trkpt lat="39.9196667" lon="9.5060567"><ele>1005.0</ele><time>2026-04-24T14:42:11.483Z</time></trkpt><trkpt lat="39.91962" lon="9.5059317"><ele>1005.0</ele><time>2026-04-24T14:42:12.483Z</time></trkpt><trkpt lat="39.9195767" lon="9.5058117"><ele>1005.0</ele><time>2026-04-24T14:42:13.484Z</time></trkpt><trkpt lat="39.9195333" lon="9.5056917"><ele>1005.0</ele><time>2026-04-24T14:42:14.483Z</time></trkpt><trkpt lat="39.9194867" lon="9.5055767"><ele>1005.0</ele><time>2026-04-24T14:42:15.483Z</time></trkpt><trkpt lat="39.91944" lon="9.505465"><ele>1005.0</ele><time>2026-04-24T14:42:16.483Z</time></trkpt><trkpt lat="39.9193967" lon="9.505375"><ele>1005.0</ele><time>2026-04-24T14:42:17.484Z</time></trkpt><trkpt lat="39.9193617" lon="9.5053"><ele>1005.0</ele><time>2026-04-24T14:42:18.483Z</time></trkpt><trkpt lat="39.91933" lon="9.5051333"><ele>1005.0</ele><time>2026-04-24T14:42:20.484Z</time></trkpt><trkpt lat="39.91933" lon="9.5050183"><ele>1002.6</ele><time>2026-04-24T14:42:21.483Z</time></trkpt><trkpt lat="39.9193367" lon="9.50489"><ele>1000.2</ele><time>2026-04-24T14:42:22.484Z</time></trkpt><trkpt lat="39.9193383" lon="9.5047583"><ele>997.8</ele><time>2026-04-24T14:42:23.483Z</time></trkpt><trkpt lat="39.9193417" lon="9.504625"><ele>995.4</ele><time>2026-04-24T14:42:24.483Z</time></trkpt><trkpt lat="39.919345" lon="9.5044983"><ele>993.0</ele><time>2026-04-24T14:42:25.483Z</time></trkpt><trkpt lat="39.91935" lon="9.5043667"><ele>991.75</ele><time>2026-04-24T14:42:26.484Z</time></trkpt><trkpt lat="39.9193633" lon="9.5040883"><ele>990.5</ele><time>2026-04-24T14:42:28.483Z</time></trkpt><trkpt lat="39.9193717" lon="9.5039467"><ele>989.25</ele><time>2026-04-24T14:42:29.483Z</time></trkpt><trkpt lat="39.9193783" lon="9.5038167"><ele>988.0</ele><time>2026-04-24T14:42:30.484Z</time></trkpt><trkpt lat="39.9193783" lon="9.5036967"><ele>987.8</ele><time>2026-04-24T14:42:31.483Z</time></trkpt><trkpt lat="39.91938" lon="9.5035833"><ele>987.5999999999999</ele><time>2026-04-24T14:42:32.483Z</time></trkpt><trkpt lat="39.9193833" lon="9.5034617"><ele>987.4000000000001</ele><time>2026-04-24T14:42:33.483Z</time></trkpt><trkpt lat="39.9193967" lon="9.50334"><ele>987.2</ele><time>2026-04-24T14:42:34.484Z</time></trkpt><trkpt lat="39.9194183" lon="9.5032133"><ele>987.0</ele><time>2026-04-24T14:42:35.484Z</time></trkpt><trkpt lat="39.9194383" lon="9.503085"><ele>987.0</ele><time>2026-04-24T14:42:36.483Z</time></trkpt><trkpt lat="39.91945" lon="9.5029483"><ele>987.0</ele><time>2026-04-24T14:42:37.483Z</time></trkpt><trkpt lat="39.9194467" lon="9.5028067"><ele>987.0</ele><time>2026-04-24T14:42:38.483Z</time></trkpt><trkpt lat="39.91943" lon="9.5026717"><ele>987.0</ele><time>2026-04-24T14:42:39.483Z</time></trkpt><trkpt lat="39.91941" lon="9.5025367"><ele>987.0</ele><time>2026-04-24T14:42:40.484Z</time></trkpt><trkpt lat="39.91938" lon="9.502405"><ele>986.6</ele><time>2026-04-24T14:42:41.483Z</time></trkpt><trkpt lat="39.91935" lon="9.5022717"><ele>986.2</ele><time>2026-04-24T14:42:42.483Z</time></trkpt><trkpt lat="39.91931" lon="9.5021417"><ele>985.8</ele><time>2026-04-24T14:42:43.483Z</time></trkpt><trkpt lat="39.9192667" lon="9.5020317"><ele>985.4</ele><time>2026-04-24T14:42:44.484Z</time></trkpt><trkpt lat="39.9192083" lon="9.50191"><ele>985.0</ele><time>2026-04-24T14:42:45.483Z</time></trkpt><trkpt lat="39.9191483" lon="9.5017917"><ele>988.5</ele><time>2026-04-24T14:42:46.484Z</time></trkpt><trkpt lat="39.9190917" lon="9.50167"><ele>992.0</ele><time>2026-04-24T14:42:47.484Z</time></trkpt><trkpt lat="39.9189817" lon="9.50143"><ele>995.5</ele><time>2026-04-24T14:42:49.484Z</time></trkpt><trkpt lat="39.9189433" lon="9.5013067"><ele>999.0</ele><time>2026-04-24T14:42:50.484Z</time></trkpt><trkpt lat="39.918915" lon="9.501175"><ele>999.0</ele><time>2026-04-24T14:42:51.483Z</time></trkpt><trkpt lat="39.918895" lon="9.5010333"><ele>999.0000000000001</ele><time>2026-04-24T14:42:52.484Z</time></trkpt><trkpt lat="39.9188933" lon="9.5009067"><ele>999.0000000000001</ele><time>2026-04-24T14:42:53.483Z</time></trkpt><trkpt lat="39.91889" lon="9.5007583"><ele>999.0</ele><time>2026-04-24T14:42:54.484Z</time></trkpt><trkpt lat="39.9188883" lon="9.5006317"><ele>999.0</ele><time>2026-04-24T14:42:55.483Z</time></trkpt><trkpt lat="39.9188783" lon="9.5005083"><ele>997.6</ele><time>2026-04-24T14:42:56.484Z</time></trkpt><trkpt lat="39.91887" lon="9.5003817"><ele>996.2</ele><time>2026-04-24T14:42:57.484Z</time></trkpt><trkpt lat="39.9188467" lon="9.5002633"><ele>994.8000000000001</ele><time>2026-04-24T14:42:58.483Z</time></trkpt><trkpt lat="39.918825" lon="9.50014"><ele>993.4000000000001</ele><time>2026-04-24T14:42:59.484Z</time></trkpt><trkpt lat="39.9187933" lon="9.5000133"><ele>992.0</ele><time>2026-04-24T14:43:00.484Z</time></trkpt><trkpt lat="39.9187683" lon="9.499895"><ele>992.0</ele><time>2026-04-24T14:43:01.484Z</time></trkpt><trkpt lat="39.9187467" lon="9.499765"><ele>992.0</ele><time>2026-04-24T14:43:02.484Z</time></trkpt><trkpt lat="39.9187317" lon="9.499635"><ele>992.0</ele><time>2026-04-24T14:43:03.483Z</time></trkpt><trkpt lat="39.9187133" lon="9.4995083"><ele>992.0</ele><time>2026-04-24T14:43:04.483Z</time></trkpt><trkpt lat="39.9186817" lon="9.499375"><ele>992.0</ele><time>2026-04-24T14:43:05.484Z</time></trkpt><trkpt lat="39.9186533" lon="9.4992517"><ele>989.8</ele><time>2026-04-24T14:43:06.483Z</time></trkpt><trkpt lat="39.9186317" lon="9.49913"><ele>987.6</ele><time>2026-04-24T14:43:07.483Z</time></trkpt><trkpt lat="39.9186133" lon="9.4990233"><ele>985.3999999999999</ele><time>2026-04-24T14:43:08.484Z</time></trkpt><trkpt lat="39.918585" lon="9.4988033"><ele>983.1999999999999</ele><time>2026-04-24T14:43:10.483Z</time></trkpt><trkpt lat="39.91856" lon="9.4986983"><ele>981.0</ele><time>2026-04-24T14:43:11.483Z</time></trkpt><trkpt lat="39.91852" lon="9.4986"><ele>979.5</ele><time>2026-04-24T14:43:12.484Z</time></trkpt><trkpt lat="39.9184767" lon="9.4985183"><ele>978.0</ele><time>2026-04-24T14:43:13.483Z</time></trkpt><trkpt lat="39.9184333" lon="9.4984317"><ele>976.5</ele><time>2026-04-24T14:43:14.483Z</time></trkpt><trkpt lat="39.9183733" lon="9.49836"><ele>975.0</ele><time>2026-04-24T14:43:15.484Z</time></trkpt><trkpt lat="39.9183033" lon="9.49831"><ele>973.5</ele><time>2026-04-24T14:43:16.484Z</time></trkpt><trkpt lat="39.9182233" lon="9.4982767"><ele>972.0</ele><time>2026-04-24T14:43:17.484Z</time></trkpt><trkpt lat="39.9181383" lon="9.49826"><ele>976.6</ele><time>2026-04-24T14:43:18.484Z</time></trkpt><trkpt lat="39.9180433" lon="9.498245"><ele>981.2</ele><time>2026-04-24T14:43:19.483Z</time></trkpt><trkpt lat="39.91795" lon="9.4982317"><ele>985.8</ele><time>2026-04-24T14:43:20.483Z</time></trkpt><trkpt lat="39.9178567" lon="9.4982067"><ele>990.4</ele><time>2026-04-24T14:43:21.484Z</time></trkpt><trkpt lat="39.917765" lon="9.4981683"><ele>995.0</ele><time>2026-04-24T14:43:22.484Z</time></trkpt><trkpt lat="39.9176667" lon="9.4981317"><ele>995.0</ele><time>2026-04-24T14:43:23.483Z</time></trkpt><trkpt lat="39.9175717" lon="9.4981133"><ele>995.0</ele><time>2026-04-24T14:43:24.484Z</time></trkpt><trkpt lat="39.91748" lon="9.4981083"><ele>995.0</ele><time>2026-04-24T14:43:25.484Z</time></trkpt><trkpt lat="39.9173833" lon="9.4980983"><ele>995.0</ele><time>2026-04-24T14:43:26.483Z</time></trkpt><trkpt lat="39.9172883" lon="9.4980833"><ele>995.0</ele><time>2026-04-24T14:43:27.483Z</time></trkpt><trkpt lat="39.917195" lon="9.4980633"><ele>995.6</ele><time>2026-04-24T14:43:28.483Z</time></trkpt><trkpt lat="39.9170967" lon="9.4980467"><ele>996.2</ele><time>2026-04-24T14:43:29.483Z</time></trkpt><trkpt lat="39.91692" lon="9.4980267"><ele>996.8</ele><time>2026-04-24T14:43:31.483Z</time></trkpt><trkpt lat="39.9168433" lon="9.4980317"><ele>997.4</ele><time>2026-04-24T14:43:32.483Z</time></trkpt><trkpt lat="39.9167717" lon="9.4980483"><ele>998.0</ele><time>2026-04-24T14:43:33.484Z</time></trkpt><trkpt lat="39.9167" lon="9.498065"><ele>996.2857142857144</ele><time>2026-04-24T14:43:34.484Z</time></trkpt><trkpt lat="39.9166267" lon="9.4980867"><ele>994.5714285714287</ele><time>2026-04-24T14:43:35.483Z</time></trkpt><trkpt lat="39.9165533" lon="9.49812"><ele>992.8571428571429</ele><time>2026-04-24T14:43:36.484Z</time></trkpt><trkpt lat="39.91649" lon="9.4981733"><ele>991.1428571428572</ele><time>2026-04-24T14:43:37.484Z</time></trkpt><trkpt lat="39.9164383" lon="9.4982317"><ele>989.4285714285716</ele><time>2026-04-24T14:43:38.484Z</time></trkpt><trkpt lat="39.91639" lon="9.498305"><ele>987.7142857142857</ele><time>2026-04-24T14:43:39.484Z</time></trkpt><trkpt lat="39.9163533" lon="9.498395"><ele>986.0</ele><time>2026-04-24T14:43:40.483Z</time></trkpt><trkpt lat="39.9163317" lon="9.49849"><ele>986.0000000000001</ele><time>2026-04-24T14:43:41.484Z</time></trkpt><trkpt lat="39.9163317" lon="9.498575"><ele>986.0</ele><time>2026-04-24T14:43:42.483Z</time></trkpt><trkpt lat="39.9163267" lon="9.498675"><ele>986.0</ele><time>2026-04-24T14:43:43.484Z</time></trkpt><trkpt lat="39.9163333" lon="9.4987867"><ele>986.0</ele><time>2026-04-24T14:43:44.484Z</time></trkpt><trkpt lat="39.91634" lon="9.4988983"><ele>986.0000000000001</ele><time>2026-04-24T14:43:45.483Z</time></trkpt><trkpt lat="39.916345" lon="9.498995"><ele>986.0</ele><time>2026-04-24T14:43:46.484Z</time></trkpt><trkpt lat="39.9163217" lon="9.4991183"><ele>985.0</ele><time>2026-04-24T14:43:48.484Z</time></trkpt><trkpt lat="39.91624" lon="9.4991617"><ele>984.0</ele><time>2026-04-24T14:43:50.484Z</time></trkpt><trkpt lat="39.9160283" lon="9.4990117"><ele>983.0</ele><time>2026-04-24T14:43:53.483Z</time></trkpt><trkpt lat="39.9159533" lon="9.4989367"><ele>982.0</ele><time>2026-04-24T14:43:54.483Z</time></trkpt><trkpt lat="39.9158783" lon="9.4988717"><ele>981.9999999999999</ele><time>2026-04-24T14:43:55.484Z</time></trkpt><trkpt lat="39.9158117" lon="9.49882"><ele>982.0</ele><time>2026-04-24T14:43:56.484Z</time></trkpt><trkpt lat="39.915735" lon="9.498785"><ele>982.0</ele><time>2026-04-24T14:43:57.484Z</time></trkpt><trkpt lat="39.9156583" lon="9.49876"><ele>982.0</ele><time>2026-04-24T14:43:58.484Z</time></trkpt><trkpt lat="39.9155817" lon="9.4987367"><ele>981.9999999999999</ele><time>2026-04-24T14:43:59.483Z</time></trkpt><trkpt lat="39.9155017" lon="9.4987183"><ele>982.0</ele><time>2026-04-24T14:44:00.484Z</time></trkpt><trkpt lat="39.9154267" lon="9.4987067"><ele>981.9999999999999</ele><time>2026-04-24T14:44:01.483Z</time></trkpt><trkpt lat="39.9153533" lon="9.4987"><ele>982.0</ele><time>2026-04-24T14:44:02.484Z</time></trkpt><trkpt lat="39.915235" lon="9.49872"><ele>982.0</ele><time>2026-04-24T14:44:04.484Z</time></trkpt><trkpt lat="39.9151767" lon="9.498755"><ele>982.0</ele><time>2026-04-24T14:44:05.483Z</time></trkpt><trkpt lat="39.915125" lon="9.4988033"><ele>981.9999999999999</ele><time>2026-04-24T14:44:06.483Z</time></trkpt><trkpt lat="39.9150817" lon="9.4988633"><ele>982.0</ele><time>2026-04-24T14:44:07.484Z</time></trkpt><trkpt lat="39.9150383" lon="9.4990183"><ele>982.0</ele><time>2026-04-24T14:44:09.483Z</time></trkpt><trkpt lat="39.9150333" lon="9.4991217"><ele>982.0</ele><time>2026-04-24T14:44:10.483Z</time></trkpt><trkpt lat="39.9150417" lon="9.499235"><ele>982.0</ele><time>2026-04-24T14:44:11.484Z</time></trkpt><trkpt lat="39.9150617" lon="9.49947"><ele>982.0</ele><time>2026-04-24T14:44:13.484Z</time></trkpt><trkpt lat="39.9150783" lon="9.499575"><ele>982.0</ele><time>2026-04-24T14:44:14.484Z</time></trkpt><trkpt lat="39.915095" lon="9.49969"><ele>980.6666666666666</ele><time>2026-04-24T14:44:15.484Z</time></trkpt><trkpt lat="39.9150983" lon="9.499815"><ele>979.3333333333333</ele><time>2026-04-24T14:44:16.484Z</time></trkpt><trkpt lat="39.9150983" lon="9.499925"><ele>978.0</ele><time>2026-04-24T14:44:17.483Z</time></trkpt><trkpt lat="39.9151067" lon="9.5000317"><ele>976.6666666666667</ele><time>2026-04-24T14:44:18.484Z</time></trkpt><trkpt lat="39.9151117" lon="9.5001183"><ele>975.3333333333334</ele><time>2026-04-24T14:44:19.484Z</time></trkpt><trkpt lat="39.9150617" lon="9.50024"><ele>974.0</ele><time>2026-04-24T14:44:21.483Z</time></trkpt><trkpt lat="39.9149567" lon="9.5002117"><ele>974.0</ele><time>2026-04-24T14:44:23.484Z</time></trkpt><trkpt lat="39.9148883" lon="9.50016"><ele>974.0000000000001</ele><time>2026-04-24T14:44:24.483Z</time></trkpt><trkpt lat="39.9148117" lon="9.5000883"><ele>974.0000000000001</ele><time>2026-04-24T14:44:25.484Z</time></trkpt><trkpt lat="39.9147217" lon="9.5000017"><ele>974.0</ele><time>2026-04-24T14:44:26.484Z</time></trkpt><trkpt lat="39.9146367" lon="9.4999133"><ele>974.0</ele><time>2026-04-24T14:44:27.483Z</time></trkpt><trkpt lat="39.914555" lon="9.4998383"><ele>974.0</ele><time>2026-04-24T14:44:28.484Z</time></trkpt><trkpt lat="39.91447" lon="9.4997733"><ele>974.0000000000001</ele><time>2026-04-24T14:44:29.483Z</time></trkpt><trkpt lat="39.91439" lon="9.499705"><ele>974.0000000000001</ele><time>2026-04-24T14:44:30.483Z</time></trkpt><trkpt lat="39.9143117" lon="9.49964"><ele>974.0</ele><time>2026-04-24T14:44:31.484Z</time></trkpt><trkpt lat="39.9142217" lon="9.4995833"><ele>974.0</ele><time>2026-04-24T14:44:32.484Z</time></trkpt><trkpt lat="39.9140383" lon="9.4994983"><ele>970.0000000000001</ele><time>2026-04-24T14:44:34.483Z</time></trkpt><trkpt lat="39.9139467" lon="9.4994617"><ele>966.0</ele><time>2026-04-24T14:44:35.483Z</time></trkpt><trkpt lat="39.9138533" lon="9.4994283"><ele>962.0</ele><time>2026-04-24T14:44:36.483Z</time></trkpt><trkpt lat="39.913765" lon="9.499415"><ele>958.0</ele><time>2026-04-24T14:44:37.484Z</time></trkpt><trkpt lat="39.9136817" lon="9.4994067"><ele>954.0000000000001</ele><time>2026-04-24T14:44:38.483Z</time></trkpt><trkpt lat="39.9136033" lon="9.499395"><ele>950.0</ele><time>2026-04-24T14:44:39.483Z</time></trkpt><trkpt lat="39.9135367" lon="9.4993867"><ele>950.0000000000001</ele><time>2026-04-24T14:44:40.484Z</time></trkpt><trkpt lat="39.9134667" lon="9.4993983"><ele>950.0</ele><time>2026-04-24T14:44:41.483Z</time></trkpt><trkpt lat="39.9133967" lon="9.4994267"><ele>950.0</ele><time>2026-04-24T14:44:42.483Z</time></trkpt><trkpt lat="39.913335" lon="9.4994667"><ele>950.0</ele><time>2026-04-24T14:44:43.483Z</time></trkpt><trkpt lat="39.9132333" lon="9.49955"><ele>950.0000000000001</ele><time>2026-04-24T14:44:45.484Z</time></trkpt><trkpt lat="39.9131767" lon="9.4995867"><ele>950.0</ele><time>2026-04-24T14:44:46.484Z</time></trkpt><trkpt lat="39.913085" lon="9.4996583"><ele>953.5</ele><time>2026-04-24T14:44:48.484Z</time></trkpt><trkpt lat="39.9130067" lon="9.4997483"><ele>957.0</ele><time>2026-04-24T14:44:50.483Z</time></trkpt><trkpt lat="39.9129533" lon="9.49984"><ele>960.5</ele><time>2026-04-24T14:44:52.483Z</time></trkpt><trkpt lat="39.91291" lon="9.49993"><ele>964.0</ele><time>2026-04-24T14:44:54.484Z</time></trkpt><trkpt lat="39.9127883" lon="9.5001733"><ele>964.0</ele><time>2026-04-24T14:44:58.483Z</time></trkpt><trkpt lat="39.9127617" lon="9.5002517"><ele>964.0000000000001</ele><time>2026-04-24T14:44:59.484Z</time></trkpt><trkpt lat="39.9127417" lon="9.50033"><ele>964.0</ele><time>2026-04-24T14:45:00.483Z</time></trkpt><trkpt lat="39.9127217" lon="9.50041"><ele>964.0</ele><time>2026-04-24T14:45:01.483Z</time></trkpt><trkpt lat="39.912705" lon="9.5005033"><ele>964.0000000000001</ele><time>2026-04-24T14:45:02.483Z</time></trkpt><trkpt lat="39.9126867" lon="9.50061"><ele>964.0</ele><time>2026-04-24T14:45:03.484Z</time></trkpt><trkpt lat="39.912675" lon="9.5007267"><ele>964.0</ele><time>2026-04-24T14:45:04.483Z</time></trkpt><trkpt lat="39.9126633" lon="9.5008633"><ele>966.8000000000001</ele><time>2026-04-24T14:45:05.483Z</time></trkpt><trkpt lat="39.9126467" lon="9.5009967"><ele>969.6000000000001</ele><time>2026-04-24T14:45:06.483Z</time></trkpt><trkpt lat="39.91264" lon="9.50113"><ele>972.4</ele><time>2026-04-24T14:45:07.484Z</time></trkpt><trkpt lat="39.9126383" lon="9.50125"><ele>975.2</ele><time>2026-04-24T14:45:08.483Z</time></trkpt><trkpt lat="39.9126383" lon="9.5013617"><ele>978.0</ele><time>2026-04-24T14:45:09.484Z</time></trkpt><trkpt lat="39.9126383" lon="9.5014733"><ele>978.4</ele><time>2026-04-24T14:45:10.484Z</time></trkpt><trkpt lat="39.91264" lon="9.5015867"><ele>978.8</ele><time>2026-04-24T14:45:11.484Z</time></trkpt><trkpt lat="39.912655" lon="9.5016917"><ele>979.2</ele><time>2026-04-24T14:45:12.484Z</time></trkpt><trkpt lat="39.91267" lon="9.5018067"><ele>979.6</ele><time>2026-04-24T14:45:13.483Z</time></trkpt><trkpt lat="39.9126967" lon="9.50192"><ele>980.0</ele><time>2026-04-24T14:45:14.483Z</time></trkpt><trkpt lat="39.9127317" lon="9.5020533"><ele>979.0</ele><time>2026-04-24T14:45:15.483Z</time></trkpt><trkpt lat="39.9127983" lon="9.5023367"><ele>978.0</ele><time>2026-04-24T14:45:17.484Z</time></trkpt><trkpt lat="39.9128217" lon="9.5024833"><ele>977.0</ele><time>2026-04-24T14:45:18.484Z</time></trkpt><trkpt lat="39.9128367" lon="9.5026233"><ele>977.0</ele><time>2026-04-24T14:45:19.484Z</time></trkpt><trkpt lat="39.91286" lon="9.50275"><ele>977.0</ele><time>2026-04-24T14:45:20.483Z</time></trkpt><trkpt lat="39.91287" lon="9.502865"><ele>977.0</ele><time>2026-04-24T14:45:21.484Z</time></trkpt><trkpt lat="39.9128817" lon="9.5029833"><ele>977.0</ele><time>2026-04-24T14:45:22.484Z</time></trkpt><trkpt lat="39.9129033" lon="9.5030917"><ele>977.0</ele><time>2026-04-24T14:45:23.484Z</time></trkpt><trkpt lat="39.9129367" lon="9.503205"><ele>975.6</ele><time>2026-04-24T14:45:24.484Z</time></trkpt><trkpt lat="39.9129783" lon="9.5033267"><ele>974.2</ele><time>2026-04-24T14:45:25.483Z</time></trkpt><trkpt lat="39.9130133" lon="9.5034483"><ele>972.8</ele><time>2026-04-24T14:45:26.483Z</time></trkpt><trkpt lat="39.9130633" lon="9.503575"><ele>971.4</ele><time>2026-04-24T14:45:27.483Z</time></trkpt><trkpt lat="39.9131267" lon="9.50369"><ele>970.0</ele><time>2026-04-24T14:45:28.484Z</time></trkpt><trkpt lat="39.91319" lon="9.5038067"><ele>967.3333333333333</ele><time>2026-04-24T14:45:29.483Z</time></trkpt><trkpt lat="39.9132267" lon="9.5039083"><ele>964.6666666666666</ele><time>2026-04-24T14:45:30.483Z</time></trkpt><trkpt lat="39.9132633" lon="9.50399"><ele>962.0</ele><time>2026-04-24T14:45:31.483Z</time></trkpt><trkpt lat="39.91331" lon="9.5040467"><ele>959.3333333333333</ele><time>2026-04-24T14:45:32.484Z</time></trkpt><trkpt lat="39.9134367" lon="9.504085"><ele>956.6666666666666</ele><time>2026-04-24T14:45:34.484Z</time></trkpt><trkpt lat="39.91351" lon="9.5040967"><ele>954.0</ele><time>2026-04-24T14:45:35.483Z</time></trkpt><trkpt lat="39.9136183" lon="9.5041517"><ele>959.8000000000001</ele><time>2026-04-24T14:45:37.484Z</time></trkpt><trkpt lat="39.9136133" lon="9.504335"><ele>965.6000000000001</ele><time>2026-04-24T14:45:40.484Z</time></trkpt><trkpt lat="39.913565" lon="9.5044533"><ele>971.4</ele><time>2026-04-24T14:45:41.484Z</time></trkpt><trkpt lat="39.9135283" lon="9.504575"><ele>977.2</ele><time>2026-04-24T14:45:42.484Z</time></trkpt><trkpt lat="39.9134967" lon="9.5046783"><ele>983.0</ele><time>2026-04-24T14:45:43.484Z</time></trkpt><trkpt lat="39.9134533" lon="9.5047567"><ele>983.0000000000001</ele><time>2026-04-24T14:45:44.483Z</time></trkpt><trkpt lat="39.9134117" lon="9.50483"><ele>983.0</ele><time>2026-04-24T14:45:45.484Z</time></trkpt><trkpt lat="39.9133883" lon="9.5049117"><ele>983.0</ele><time>2026-04-24T14:45:46.483Z</time></trkpt><trkpt lat="39.9133833" lon="9.5050017"><ele>983.0</ele><time>2026-04-24T14:45:47.484Z</time></trkpt><trkpt lat="39.9133983" lon="9.5051033"><ele>983.0000000000001</ele><time>2026-04-24T14:45:48.484Z</time></trkpt><trkpt lat="39.9134267" lon="9.5052"><ele>983.0</ele><time>2026-04-24T14:45:49.483Z</time></trkpt><trkpt lat="39.9134633" lon="9.5053067"><ele>981.0</ele><time>2026-04-24T14:45:50.483Z</time></trkpt><trkpt lat="39.9135067" lon="9.5054183"><ele>979.0</ele><time>2026-04-24T14:45:51.484Z</time></trkpt><trkpt lat="39.9135633" lon="9.50552"><ele>977.0</ele><time>2026-04-24T14:45:52.484Z</time></trkpt><trkpt lat="39.9136233" lon="9.505615"><ele>975.0</ele><time>2026-04-24T14:45:53.484Z</time></trkpt><trkpt lat="39.9136833" lon="9.5057133"><ele>973.0</ele><time>2026-04-24T14:45:54.484Z</time></trkpt><trkpt lat="39.91374" lon="9.50581"><ele>973.0</ele><time>2026-04-24T14:45:55.484Z</time></trkpt><trkpt lat="39.9137917" lon="9.5059083"><ele>973.0</ele><time>2026-04-24T14:45:56.484Z</time></trkpt><trkpt lat="39.913835" lon="9.5060233"><ele>973.0</ele><time>2026-04-24T14:45:57.484Z</time></trkpt><trkpt lat="39.913885" lon="9.50614"><ele>973.0</ele><time>2026-04-24T14:45:58.484Z</time></trkpt><trkpt lat="39.9139583" lon="9.5063733"><ele>969.9999999999999</ele><time>2026-04-24T14:46:00.483Z</time></trkpt><trkpt lat="39.9139933" lon="9.5065017"><ele>967.0</ele><time>2026-04-24T14:46:01.484Z</time></trkpt><trkpt lat="39.9140283" lon="9.506615"><ele>964.0</ele><time>2026-04-24T14:46:02.484Z</time></trkpt><trkpt lat="39.9140683" lon="9.50672"><ele>961.0</ele><time>2026-04-24T14:46:03.483Z</time></trkpt><trkpt lat="39.9141" lon="9.5068083"><ele>957.9999999999999</ele><time>2026-04-24T14:46:04.484Z</time></trkpt><trkpt lat="39.914135" lon="9.50689"><ele>955.0</ele><time>2026-04-24T14:46:05.483Z</time></trkpt><trkpt lat="39.91419" lon="9.5069867"><ele>955.4999999999999</ele><time>2026-04-24T14:46:06.484Z</time></trkpt><trkpt lat="39.914255" lon="9.5070717"><ele>956.0</ele><time>2026-04-24T14:46:07.483Z</time></trkpt><trkpt lat="39.9143183" lon="9.5071533"><ele>956.5</ele><time>2026-04-24T14:46:08.484Z</time></trkpt><trkpt lat="39.9143783" lon="9.5072283"><ele>957.0</ele><time>2026-04-24T14:46:09.484Z</time></trkpt><trkpt lat="39.9144333" lon="9.5072933"><ele>957.4999999999999</ele><time>2026-04-24T14:46:10.483Z</time></trkpt><trkpt lat="39.9144917" lon="9.5073483"><ele>958.0</ele><time>2026-04-24T14:46:11.483Z</time></trkpt><trkpt lat="39.914545" lon="9.5074167"><ele>957.9999999999999</ele><time>2026-04-24T14:46:12.483Z</time></trkpt><trkpt lat="39.91459" lon="9.5074817"><ele>958.0</ele><time>2026-04-24T14:46:13.483Z</time></trkpt><trkpt lat="39.9146367" lon="9.5075517"><ele>958.0</ele><time>2026-04-24T14:46:14.483Z</time></trkpt><trkpt lat="39.9147" lon="9.5076183"><ele>958.0</ele><time>2026-04-24T14:46:15.483Z</time></trkpt><trkpt lat="39.9147767" lon="9.5076783"><ele>957.9999999999999</ele><time>2026-04-24T14:46:16.484Z</time></trkpt><trkpt lat="39.9148667" lon="9.507745"><ele>958.0</ele><time>2026-04-24T14:46:17.484Z</time></trkpt><trkpt lat="39.9149517" lon="9.5078117"><ele>958.0</ele><time>2026-04-24T14:46:18.484Z</time></trkpt><trkpt lat="39.91502" lon="9.5078617"><ele>958.0</ele><time>2026-04-24T14:46:19.484Z</time></trkpt><trkpt lat="39.91515" lon="9.5079567"><ele>958.0</ele><time>2026-04-24T14:46:21.483Z</time></trkpt><trkpt lat="39.9152267" lon="9.5079783"><ele>958.0</ele><time>2026-04-24T14:46:22.483Z</time></trkpt><trkpt lat="39.915295" lon="9.5079917"><ele>958.0</ele><time>2026-04-24T14:46:23.483Z</time></trkpt><trkpt lat="39.9153783" lon="9.5079933"><ele>957.4</ele><time>2026-04-24T14:46:24.483Z</time></trkpt><trkpt lat="39.91546" lon="9.5079833"><ele>956.8</ele><time>2026-04-24T14:46:25.483Z</time></trkpt><trkpt lat="39.9155317" lon="9.5079817"><ele>956.2</ele><time>2026-04-24T14:46:26.484Z</time></trkpt><trkpt lat="39.91564" lon="9.5080617"><ele>955.6</ele><time>2026-04-24T14:46:28.483Z</time></trkpt><trkpt lat="39.91569" lon="9.508205"><ele>955.0</ele><time>2026-04-24T14:46:30.483Z</time></trkpt><trkpt lat="39.9156933" lon="9.5082983"><ele>954.9999999999999</ele><time>2026-04-24T14:46:31.483Z</time></trkpt><trkpt lat="39.9156733" lon="9.50838"><ele>955.0</ele><time>2026-04-24T14:46:32.483Z</time></trkpt><trkpt lat="39.915625" lon="9.508465"><ele>955.0</ele><time>2026-04-24T14:46:33.483Z</time></trkpt><trkpt lat="39.9155517" lon="9.5085533"><ele>955.0</ele><time>2026-04-24T14:46:34.483Z</time></trkpt><trkpt lat="39.9154817" lon="9.50864"><ele>954.9999999999999</ele><time>2026-04-24T14:46:35.483Z</time></trkpt><trkpt lat="39.915415" lon="9.5087183"><ele>955.0</ele><time>2026-04-24T14:46:36.483Z</time></trkpt><trkpt lat="39.915375" lon="9.5087933"><ele>952.2</ele><time>2026-04-24T14:46:37.483Z</time></trkpt><trkpt lat="39.9153667" lon="9.5089283"><ele>949.4</ele><time>2026-04-24T14:46:39.483Z</time></trkpt><trkpt lat="39.9154683" lon="9.5090033"><ele>946.5999999999999</ele><time>2026-04-24T14:46:41.484Z</time></trkpt><trkpt lat="39.9155733" lon="9.509125"><ele>943.8</ele><time>2026-04-24T14:46:43.484Z</time></trkpt><trkpt lat="39.9156033" lon="9.509205"><ele>941.0</ele><time>2026-04-24T14:46:44.483Z</time></trkpt><trkpt lat="39.9156167" lon="9.509305"><ele>941.0</ele><time>2026-04-24T14:46:45.484Z</time></trkpt><trkpt lat="39.9156483" lon="9.5094"><ele>940.9999999999999</ele><time>2026-04-24T14:46:46.483Z</time></trkpt><trkpt lat="39.9156967" lon="9.5095033"><ele>940.9999999999999</ele><time>2026-04-24T14:46:47.483Z</time></trkpt><trkpt lat="39.9157667" lon="9.5095967"><ele>941.0</ele><time>2026-04-24T14:46:48.484Z</time></trkpt><trkpt lat="39.9158417" lon="9.5096817"><ele>941.0</ele><time>2026-04-24T14:46:49.484Z</time></trkpt><trkpt lat="39.9159183" lon="9.50976"><ele>943.0</ele><time>2026-04-24T14:46:50.483Z</time></trkpt><trkpt lat="39.915995" lon="9.5098317"><ele>944.9999999999999</ele><time>2026-04-24T14:46:51.483Z</time></trkpt><trkpt lat="39.916065" lon="9.5099067"><ele>946.9999999999999</ele><time>2026-04-24T14:46:52.484Z</time></trkpt><trkpt lat="39.9161367" lon="9.5099767"><ele>949.0</ele><time>2026-04-24T14:46:53.483Z</time></trkpt><trkpt lat="39.9162017" lon="9.5100583"><ele>951.0</ele><time>2026-04-24T14:46:54.484Z</time></trkpt><trkpt lat="39.9162583" lon="9.5101667"><ele>951.0</ele><time>2026-04-24T14:46:55.483Z</time></trkpt><trkpt lat="39.9163183" lon="9.51028"><ele>950.9999999999999</ele><time>2026-04-24T14:46:56.483Z</time></trkpt><trkpt lat="39.916375" lon="9.5103917"><ele>950.9999999999999</ele><time>2026-04-24T14:46:57.483Z</time></trkpt><trkpt lat="39.9164333" lon="9.5105133"><ele>951.0</ele><time>2026-04-24T14:46:58.484Z</time></trkpt><trkpt lat="39.9164883" lon="9.51062"><ele>951.0</ele><time>2026-04-24T14:46:59.484Z</time></trkpt><trkpt lat="39.9165433" lon="9.5107183"><ele>951.4</ele><time>2026-04-24T14:47:00.484Z</time></trkpt><trkpt lat="39.9165917" lon="9.5107983"><ele>951.8</ele><time>2026-04-24T14:47:01.484Z</time></trkpt><trkpt lat="39.916645" lon="9.5108767"><ele>952.1999999999999</ele><time>2026-04-24T14:47:02.483Z</time></trkpt><trkpt lat="39.9167533" lon="9.5109983"><ele>952.5999999999999</ele><time>2026-04-24T14:47:04.484Z</time></trkpt><trkpt lat="39.9168333" lon="9.51105"><ele>953.0</ele><time>2026-04-24T14:47:05.484Z</time></trkpt><trkpt lat="39.9169133" lon="9.51109"><ele>953.0000000000001</ele><time>2026-04-24T14:47:06.484Z</time></trkpt><trkpt lat="39.91698" lon="9.5111317"><ele>953.0</ele><time>2026-04-24T14:47:07.483Z</time></trkpt><trkpt lat="39.9170317" lon="9.51118"><ele>953.0</ele><time>2026-04-24T14:47:08.484Z</time></trkpt><trkpt lat="39.9171033" lon="9.5113167"><ele>953.0</ele><time>2026-04-24T14:47:10.483Z</time></trkpt><trkpt lat="39.91713" lon="9.5114033"><ele>953.0000000000001</ele><time>2026-04-24T14:47:11.483Z</time></trkpt><trkpt lat="39.9171583" lon="9.5115067"><ele>953.0</ele><time>2026-04-24T14:47:12.484Z</time></trkpt><trkpt lat="39.91721" lon="9.5116317"><ele>949.8333333333334</ele><time>2026-04-24T14:47:13.483Z</time></trkpt><trkpt lat="39.9172633" lon="9.5117417"><ele>946.6666666666667</ele><time>2026-04-24T14:47:14.484Z</time></trkpt><trkpt lat="39.917315" lon="9.5118483"><ele>943.5</ele><time>2026-04-24T14:47:15.484Z</time></trkpt><trkpt lat="39.917375" lon="9.51193"><ele>940.3333333333333</ele><time>2026-04-24T14:47:16.484Z</time></trkpt><trkpt lat="39.91743" lon="9.5120033"><ele>937.1666666666666</ele><time>2026-04-24T14:47:17.483Z</time></trkpt><trkpt lat="39.9174883" lon="9.5120617"><ele>934.0</ele><time>2026-04-24T14:47:18.484Z</time></trkpt><trkpt lat="39.9175817" lon="9.5121233"><ele>932.2</ele><time>2026-04-24T14:47:20.483Z</time></trkpt><trkpt lat="39.9176467" lon="9.5121383"><ele>930.4000000000001</ele><time>2026-04-24T14:47:21.483Z</time></trkpt><trkpt lat="39.917715" lon="9.5121467"><ele>928.6</ele><time>2026-04-24T14:47:22.484Z</time></trkpt><trkpt lat="39.9177783" lon="9.5121433"><ele>926.8</ele><time>2026-04-24T14:47:23.483Z</time></trkpt><trkpt lat="39.9179633" lon="9.5122767"><ele>925.0</ele><time>2026-04-24T14:47:27.484Z</time></trkpt><trkpt lat="39.9179783" lon="9.5123617"><ele>925.0</ele><time>2026-04-24T14:47:28.484Z</time></trkpt><trkpt lat="39.91801" lon="9.5125283"><ele>925.0</ele><time>2026-04-24T14:47:30.484Z</time></trkpt><trkpt lat="39.9180367" lon="9.5126067"><ele>925.0</ele><time>2026-04-24T14:47:31.483Z</time></trkpt><trkpt lat="39.9181267" lon="9.5127283"><ele>925.0</ele><time>2026-04-24T14:47:33.484Z</time></trkpt><trkpt lat="39.91819" lon="9.512775"><ele>925.0</ele><time>2026-04-24T14:47:34.484Z</time></trkpt><trkpt lat="39.91825" lon="9.51282"><ele>924.9999999999999</ele><time>2026-04-24T14:47:35.483Z</time></trkpt><trkpt lat="39.9183067" lon="9.5128667"><ele>925.0</ele><time>2026-04-24T14:47:36.483Z</time></trkpt><trkpt lat="39.918395" lon="9.512975"><ele>925.0</ele><time>2026-04-24T14:47:38.483Z</time></trkpt><trkpt lat="39.9184283" lon="9.51305"><ele>925.0</ele><time>2026-04-24T14:47:39.484Z</time></trkpt><trkpt lat="39.9184617" lon="9.5131317"><ele>924.9999999999999</ele><time>2026-04-24T14:47:40.484Z</time></trkpt><trkpt lat="39.9184967" lon="9.513205"><ele>925.0</ele><time>2026-04-24T14:47:41.483Z</time></trkpt><trkpt lat="39.9185367" lon="9.5132783"><ele>924.0</ele><time>2026-04-24T14:47:42.484Z</time></trkpt><trkpt lat="39.9185783" lon="9.513345"><ele>923.0</ele><time>2026-04-24T14:47:43.483Z</time></trkpt><trkpt lat="39.91867" lon="9.5134533"><ele>922.0</ele><time>2026-04-24T14:47:45.483Z</time></trkpt><trkpt lat="39.9188083" lon="9.513535"><ele>921.0</ele><time>2026-04-24T14:47:47.484Z</time></trkpt><trkpt lat="39.918885" lon="9.5135667"><ele>920.0</ele><time>2026-04-24T14:47:48.484Z</time></trkpt><trkpt lat="39.9189667" lon="9.5135967"><ele>920.0</ele><time>2026-04-24T14:47:49.483Z</time></trkpt><trkpt lat="39.919035" lon="9.5136133"><ele>920.0</ele><time>2026-04-24T14:47:50.483Z</time></trkpt><trkpt lat="39.919145" lon="9.513685"><ele>920.0</ele><time>2026-04-24T14:47:52.484Z</time></trkpt><trkpt lat="39.91921" lon="9.51382"><ele>920.0</ele><time>2026-04-24T14:47:54.483Z</time></trkpt><trkpt lat="39.9192233" lon="9.5139317"><ele>920.0</ele><time>2026-04-24T14:47:55.483Z</time></trkpt><trkpt lat="39.91924" lon="9.5140317"><ele>920.5000000000001</ele><time>2026-04-24T14:47:56.484Z</time></trkpt><trkpt lat="39.9192583" lon="9.5141183"><ele>921.0</ele><time>2026-04-24T14:47:57.483Z</time></trkpt><trkpt lat="39.919285" lon="9.5141933"><ele>921.5</ele><time>2026-04-24T14:47:58.483Z</time></trkpt><trkpt lat="39.919355" lon="9.5143017"><ele>922.0</ele><time>2026-04-24T14:48:00.483Z</time></trkpt><trkpt lat="39.9194667" lon="9.5143183"><ele>922.5000000000001</ele><time>2026-04-24T14:48:02.484Z</time></trkpt><trkpt lat="39.9195583" lon="9.5143467"><ele>923.0</ele><time>2026-04-24T14:48:04.483Z</time></trkpt><trkpt lat="39.9196133" lon="9.5144383"><ele>919.4</ele><time>2026-04-24T14:48:06.483Z</time></trkpt><trkpt lat="39.9196033" lon="9.5146917"><ele>915.8</ele><time>2026-04-24T14:48:09.483Z</time></trkpt><trkpt lat="39.919625" lon="9.51478"><ele>912.2</ele><time>2026-04-24T14:48:10.484Z</time></trkpt><trkpt lat="39.91966" lon="9.5148683"><ele>908.6</ele><time>2026-04-24T14:48:11.483Z</time></trkpt><trkpt lat="39.9197033" lon="9.514945"><ele>905.0</ele><time>2026-04-24T14:48:12.483Z</time></trkpt><trkpt lat="39.91975" lon="9.5150083"><ele>905.0</ele><time>2026-04-24T14:48:13.484Z</time></trkpt><trkpt lat="39.9198133" lon="9.5151033"><ele>905.0</ele><time>2026-04-24T14:48:15.484Z</time></trkpt><trkpt lat="39.91983" lon="9.515225"><ele>905.0</ele><time>2026-04-24T14:48:17.483Z</time></trkpt><trkpt lat="39.9198267" lon="9.5153483"><ele>905.0</ele><time>2026-04-24T14:48:19.484Z</time></trkpt><trkpt lat="39.91984" lon="9.515505"><ele>905.0</ele><time>2026-04-24T14:48:21.484Z</time></trkpt><trkpt lat="39.9198383" lon="9.51566"><ele>901.75</ele><time>2026-04-24T14:48:23.484Z</time></trkpt><trkpt lat="39.9198383" lon="9.5158067"><ele>898.5</ele><time>2026-04-24T14:48:25.484Z</time></trkpt><trkpt lat="39.91985" lon="9.5159583"><ele>895.25</ele><time>2026-04-24T14:48:27.484Z</time></trkpt><trkpt lat="39.9199667" lon="9.5161733"><ele>892.0</ele><time>2026-04-24T14:48:31.484Z</time></trkpt><trkpt lat="39.9199717" lon="9.516295"><ele>889.8333333333333</ele><time>2026-04-24T14:48:33.483Z</time></trkpt><trkpt lat="39.9199617" lon="9.516455"><ele>887.6666666666666</ele><time>2026-04-24T14:48:35.483Z</time></trkpt><trkpt lat="39.9199733" lon="9.516555"><ele>885.5</ele><time>2026-04-24T14:48:36.484Z</time></trkpt><trkpt lat="39.919995" lon="9.5166483"><ele>883.3333333333333</ele><time>2026-04-24T14:48:37.484Z</time></trkpt><trkpt lat="39.9200217" lon="9.5167367"><ele>881.1666666666666</ele><time>2026-04-24T14:48:38.483Z</time></trkpt><trkpt lat="39.9200483" lon="9.516835"><ele>879.0</ele><time>2026-04-24T14:48:39.484Z</time></trkpt><trkpt lat="39.9200733" lon="9.51694"><ele>884.4000000000001</ele><time>2026-04-24T14:48:40.484Z</time></trkpt><trkpt lat="39.920095" lon="9.5170533"><ele>889.8000000000001</ele><time>2026-04-24T14:48:41.484Z</time></trkpt><trkpt lat="39.920115" lon="9.5171733"><ele>895.1999999999999</ele><time>2026-04-24T14:48:42.484Z</time></trkpt><trkpt lat="39.9201317" lon="9.5172933"><ele>900.5999999999999</ele><time>2026-04-24T14:48:43.483Z</time></trkpt><trkpt lat="39.9201483" lon="9.5174133"><ele>906.0</ele><time>2026-04-24T14:48:44.483Z</time></trkpt><trkpt lat="39.9201633" lon="9.51753"><ele>906.0</ele><time>2026-04-24T14:48:45.484Z</time></trkpt><trkpt lat="39.920185" lon="9.51765"><ele>906.0</ele><time>2026-04-24T14:48:46.483Z</time></trkpt><trkpt lat="39.920205" lon="9.517785"><ele>906.0</ele><time>2026-04-24T14:48:47.483Z</time></trkpt><trkpt lat="39.9202267" lon="9.5179267"><ele>906.0</ele><time>2026-04-24T14:48:48.483Z</time></trkpt><trkpt lat="39.9202717" lon="9.518185"><ele>903.6666666666666</ele><time>2026-04-24T14:48:50.484Z</time></trkpt><trkpt lat="39.9202983" lon="9.518305"><ele>901.3333333333333</ele><time>2026-04-24T14:48:51.484Z</time></trkpt><trkpt lat="39.9203333" lon="9.5184117"><ele>899.0</ele><time>2026-04-24T14:48:52.483Z</time></trkpt><trkpt lat="39.92038" lon="9.518505"><ele>896.6666666666666</ele><time>2026-04-24T14:48:53.483Z</time></trkpt><trkpt lat="39.92043" lon="9.5185967"><ele>894.3333333333333</ele><time>2026-04-24T14:48:54.483Z</time></trkpt><trkpt lat="39.9204733" lon="9.5186917"><ele>892.0</ele><time>2026-04-24T14:48:55.484Z</time></trkpt><trkpt lat="39.9205283" lon="9.5187833"><ele>888.8</ele><time>2026-04-24T14:48:56.483Z</time></trkpt><trkpt lat="39.9205867" lon="9.5188717"><ele>885.6</ele><time>2026-04-24T14:48:57.483Z</time></trkpt><trkpt lat="39.9206517" lon="9.51895"><ele>882.3999999999999</ele><time>2026-04-24T14:48:58.483Z</time></trkpt><trkpt lat="39.920725" lon="9.5190233"><ele>879.1999999999999</ele><time>2026-04-24T14:48:59.483Z</time></trkpt><trkpt lat="39.92079" lon="9.519085"><ele>876.0</ele><time>2026-04-24T14:49:00.483Z</time></trkpt><trkpt lat="39.9208883" lon="9.5191733"><ele>880.1999999999999</ele><time>2026-04-24T14:49:02.484Z</time></trkpt><trkpt lat="39.9210117" lon="9.5192517"><ele>884.3999999999999</ele><time>2026-04-24T14:49:04.483Z</time></trkpt><trkpt lat="39.9210767" lon="9.5192967"><ele>888.6</ele><time>2026-04-24T14:49:05.483Z</time></trkpt><trkpt lat="39.9211717" lon="9.519385"><ele>892.8</ele><time>2026-04-24T14:49:07.483Z</time></trkpt><trkpt lat="39.9212217" lon="9.5194583"><ele>897.0</ele><time>2026-04-24T14:49:08.483Z</time></trkpt><trkpt lat="39.92127" lon="9.5195283"><ele>893.0</ele><time>2026-04-24T14:49:09.483Z</time></trkpt><trkpt lat="39.921415" lon="9.5196633"><ele>889.0</ele><time>2026-04-24T14:49:11.483Z</time></trkpt><trkpt lat="39.92149" lon="9.5197283"><ele>885.0</ele><time>2026-04-24T14:49:12.483Z</time></trkpt><trkpt lat="39.9215583" lon="9.5197983"><ele>881.0</ele><time>2026-04-24T14:49:13.483Z</time></trkpt><trkpt lat="39.9216283" lon="9.519885"><ele>881.0</ele><time>2026-04-24T14:49:14.483Z</time></trkpt><trkpt lat="39.9216933" lon="9.5199817"><ele>880.9999999999999</ele><time>2026-04-24T14:49:15.484Z</time></trkpt><trkpt lat="39.9217667" lon="9.5200833"><ele>880.9999999999999</ele><time>2026-04-24T14:49:16.483Z</time></trkpt><trkpt lat="39.9218483" lon="9.5201833"><ele>881.0</ele><time>2026-04-24T14:49:17.484Z</time></trkpt><trkpt lat="39.921935" lon="9.5202833"><ele>881.0</ele><time>2026-04-24T14:49:18.483Z</time></trkpt><trkpt lat="39.92201" lon="9.520385"><ele>882.1999999999999</ele><time>2026-04-24T14:49:19.484Z</time></trkpt><trkpt lat="39.9220783" lon="9.52049"><ele>883.3999999999999</ele><time>2026-04-24T14:49:20.483Z</time></trkpt><trkpt lat="39.922135" lon="9.5205783"><ele>884.6</ele><time>2026-04-24T14:49:21.484Z</time></trkpt><trkpt lat="39.9221933" lon="9.520665"><ele>885.8</ele><time>2026-04-24T14:49:22.483Z</time></trkpt><trkpt lat="39.9222483" lon="9.5207583"><ele>887.0</ele><time>2026-04-24T14:49:23.484Z</time></trkpt><trkpt lat="39.92229" lon="9.520845"><ele>887.0</ele><time>2026-04-24T14:49:24.484Z</time></trkpt><trkpt lat="39.92232" lon="9.520935"><ele>887.0</ele><time>2026-04-24T14:49:25.483Z</time></trkpt><trkpt lat="39.9223483" lon="9.5210317"><ele>887.0</ele><time>2026-04-24T14:49:26.483Z</time></trkpt><trkpt lat="39.9223817" lon="9.5211467"><ele>887.0</ele><time>2026-04-24T14:49:27.484Z</time></trkpt><trkpt lat="39.9224233" lon="9.5212667"><ele>887.0</ele><time>2026-04-24T14:49:28.484Z</time></trkpt><trkpt lat="39.92248" lon="9.5213833"><ele>888.5</ele><time>2026-04-24T14:49:29.484Z</time></trkpt><trkpt lat="39.9225283" lon="9.5214883"><ele>890.0</ele><time>2026-04-24T14:49:30.483Z</time></trkpt><trkpt lat="39.922645" lon="9.521645"><ele>891.5</ele><time>2026-04-24T14:49:32.484Z</time></trkpt><trkpt lat="39.92272" lon="9.5217183"><ele>893.0</ele><time>2026-04-24T14:49:33.483Z</time></trkpt><trkpt lat="39.9228033" lon="9.5217833"><ele>893.0000000000001</ele><time>2026-04-24T14:49:34.484Z</time></trkpt><trkpt lat="39.9228917" lon="9.521845"><ele>893.0</ele><time>2026-04-24T14:49:35.484Z</time></trkpt><trkpt lat="39.9229717" lon="9.5219133"><ele>893.0</ele><time>2026-04-24T14:49:36.484Z</time></trkpt><trkpt lat="39.923055" lon="9.5219717"><ele>893.0</ele><time>2026-04-24T14:49:37.484Z</time></trkpt><trkpt lat="39.9231267" lon="9.5220233"><ele>893.0000000000001</ele><time>2026-04-24T14:49:38.484Z</time></trkpt><trkpt lat="39.9231883" lon="9.5220617"><ele>893.0</ele><time>2026-04-24T14:49:39.484Z</time></trkpt><trkpt lat="39.92325" lon="9.522095"><ele>890.3333333333334</ele><time>2026-04-24T14:49:40.484Z</time></trkpt><trkpt lat="39.9233417" lon="9.5221083"><ele>887.6666666666667</ele><time>2026-04-24T14:49:42.484Z</time></trkpt><trkpt lat="39.9234133" lon="9.5221083"><ele>885.0</ele><time>2026-04-24T14:49:44.484Z</time></trkpt><trkpt lat="39.9234883" lon="9.52213"><ele>882.3333333333333</ele><time>2026-04-24T14:49:46.484Z</time></trkpt><trkpt lat="39.9235633" lon="9.5221467"><ele>879.6666666666666</ele><time>2026-04-24T14:49:48.483Z</time></trkpt><trkpt lat="39.9236517" lon="9.5221233"><ele>877.0</ele><time>2026-04-24T14:49:50.483Z</time></trkpt><trkpt lat="39.92373" lon="9.5220933"><ele>876.9999999999999</ele><time>2026-04-24T14:49:52.484Z</time></trkpt><trkpt lat="39.923695" lon="9.5222383"><ele>877.0</ele><time>2026-04-24T14:49:57.483Z</time></trkpt><trkpt lat="39.9236267" lon="9.5223067"><ele>877.0</ele><time>2026-04-24T14:49:59.483Z</time></trkpt><trkpt lat="39.92357" lon="9.52236"><ele>877.0</ele><time>2026-04-24T14:50:01.483Z</time></trkpt><trkpt lat="39.9235083" lon="9.5223917"><ele>876.9999999999999</ele><time>2026-04-24T14:50:03.484Z</time></trkpt><trkpt lat="39.9234433" lon="9.52244"><ele>877.0</ele><time>2026-04-24T14:50:05.484Z</time></trkpt><trkpt lat="39.9233717" lon="9.5224867"><ele>874.6</ele><time>2026-04-24T14:50:07.483Z</time></trkpt><trkpt lat="39.9232933" lon="9.5225267"><ele>872.2</ele><time>2026-04-24T14:50:09.483Z</time></trkpt><trkpt lat="39.923215" lon="9.5225917"><ele>869.8</ele><time>2026-04-24T14:50:11.483Z</time></trkpt><trkpt lat="39.9231533" lon="9.52264"><ele>867.4</ele><time>2026-04-24T14:50:13.485Z</time></trkpt><trkpt lat="39.9229967" lon="9.5227483"><ele>865.0</ele><time>2026-04-24T14:50:18.484Z</time></trkpt><trkpt lat="39.9229283" lon="9.5227967"><ele>864.9999999999999</ele><time>2026-04-24T14:50:20.485Z</time></trkpt><trkpt lat="39.9228483" lon="9.522815"><ele>865.0</ele><time>2026-04-24T14:50:22.484Z</time></trkpt><trkpt lat="39.92277" lon="9.5227933"><ele>865.0</ele><time>2026-04-24T14:50:24.485Z</time></trkpt><trkpt lat="39.9226767" lon="9.5227967"><ele>865.0</ele><time>2026-04-24T14:50:26.484Z</time></trkpt><trkpt lat="39.9226067" lon="9.5228167"><ele>864.9999999999999</ele><time>2026-04-24T14:50:28.485Z</time></trkpt><trkpt lat="39.9225233" lon="9.52283"><ele>865.0</ele><time>2026-04-24T14:50:31.485Z</time></trkpt><trkpt lat="39.9224467" lon="9.52283"><ele>862.75</ele><time>2026-04-24T14:50:34.484Z</time></trkpt><trkpt lat="39.9222067" lon="9.522815"><ele>860.5</ele><time>2026-04-24T14:53:49.485Z</time></trkpt><trkpt lat="39.9221433" lon="9.5228467"><ele>858.25</ele><time>2026-04-24T14:53:51.485Z</time></trkpt><trkpt lat="39.9220583" lon="9.52285"><ele>856.0</ele><time>2026-04-24T14:53:53.485Z</time></trkpt><trkpt lat="39.9219767" lon="9.5228433"><ele>855.9999999999999</ele><time>2026-04-24T14:53:55.484Z</time></trkpt><trkpt lat="39.9218933" lon="9.5228533"><ele>856.0</ele><time>2026-04-24T14:53:57.484Z</time></trkpt><trkpt lat="39.92182" lon="9.5228617"><ele>856.0</ele><time>2026-04-24T14:53:59.485Z</time></trkpt><trkpt lat="39.921735" lon="9.52288"><ele>856.0</ele><time>2026-04-24T14:54:01.484Z</time></trkpt><trkpt lat="39.92164" lon="9.5228967"><ele>855.9999999999999</ele><time>2026-04-24T14:54:03.484Z</time></trkpt><trkpt lat="39.9215467" lon="9.522915"><ele>856.0</ele><time>2026-04-24T14:54:05.484Z</time></trkpt><trkpt lat="39.9213683" lon="9.522865"><ele>849.5999999999999</ele><time>2026-04-24T14:54:09.484Z</time></trkpt><trkpt lat="39.9213117" lon="9.5229233"><ele>843.1999999999999</ele><time>2026-04-24T14:54:12.484Z</time></trkpt><trkpt lat="39.9213217" lon="9.5230217"><ele>836.8</ele><time>2026-04-24T14:54:41.485Z</time></trkpt><trkpt lat="39.9213967" lon="9.52324"><ele>830.4000000000001</ele><time>2026-04-24T14:54:46.485Z</time></trkpt><trkpt lat="39.9214217" lon="9.5233283"><ele>824.0</ele><time>2026-04-24T14:54:48.485Z</time></trkpt><trkpt lat="39.92146" lon="9.52342"><ele>824.0000000000001</ele><time>2026-04-24T14:54:50.484Z</time></trkpt><trkpt lat="39.9214933" lon="9.523495"><ele>824.0</ele><time>2026-04-24T14:54:52.484Z</time></trkpt><trkpt lat="39.9215717" lon="9.52356"><ele>824.0</ele><time>2026-04-24T14:54:55.484Z</time></trkpt><trkpt lat="39.92164" lon="9.5236083"><ele>824.0</ele><time>2026-04-24T14:54:57.484Z</time></trkpt><trkpt lat="39.9217017" lon="9.5236567"><ele>824.0000000000001</ele><time>2026-04-24T14:54:59.484Z</time></trkpt><trkpt lat="39.9217883" lon="9.5237217"><ele>824.0</ele><time>2026-04-24T14:55:02.485Z</time></trkpt><trkpt lat="39.9219217" lon="9.523805"><ele>820.5000000000001</ele><time>2026-04-24T14:55:06.485Z</time></trkpt><trkpt lat="39.92199" lon="9.5238383"><ele>817.0</ele><time>2026-04-24T14:55:08.484Z</time></trkpt><trkpt lat="39.922055" lon="9.5238817"><ele>813.5</ele><time>2026-04-24T14:55:10.485Z</time></trkpt><trkpt lat="39.9221283" lon="9.5239333"><ele>810.0</ele><time>2026-04-24T14:55:12.484Z</time></trkpt><trkpt lat="39.9221817" lon="9.523995"><ele>806.5000000000001</ele><time>2026-04-24T14:55:14.485Z</time></trkpt><trkpt lat="39.9222467" lon="9.52406"><ele>803.0</ele><time>2026-04-24T14:55:16.485Z</time></trkpt><trkpt lat="39.9223067" lon="9.524125"><ele>803.0</ele><time>2026-04-24T14:55:18.485Z</time></trkpt><trkpt lat="39.9223717" lon="9.524195"><ele>803.0</ele><time>2026-04-24T14:55:20.484Z</time></trkpt><trkpt lat="39.9224267" lon="9.5242833"><ele>803.0</ele><time>2026-04-24T14:55:22.484Z</time></trkpt><trkpt lat="39.9224817" lon="9.524385"><ele>803.0</ele><time>2026-04-24T14:55:25.485Z</time></trkpt><trkpt lat="39.9225983" lon="9.5245383"><ele>803.0</ele><time>2026-04-24T14:55:29.485Z</time></trkpt><trkpt lat="39.922675" lon="9.5245933"><ele>801.3333333333334</ele><time>2026-04-24T14:55:31.485Z</time></trkpt><trkpt lat="39.9227567" lon="9.524645"><ele>799.6666666666667</ele><time>2026-04-24T14:55:33.485Z</time></trkpt><trkpt lat="39.9228217" lon="9.524695"><ele>798.0</ele><time>2026-04-24T14:55:35.484Z</time></trkpt><trkpt lat="39.9228917" lon="9.5247567"><ele>796.3333333333333</ele><time>2026-04-24T14:55:37.485Z</time></trkpt><trkpt lat="39.9229367" lon="9.524845"><ele>794.6666666666666</ele><time>2026-04-24T14:55:40.484Z</time></trkpt><trkpt lat="39.9229533" lon="9.5249283"><ele>793.0</ele><time>2026-04-24T14:55:42.484Z</time></trkpt><trkpt lat="39.922995" lon="9.5250167"><ele>793.0</ele><time>2026-04-24T14:55:45.485Z</time></trkpt><trkpt lat="39.9230667" lon="9.5250567"><ele>793.0</ele><time>2026-04-24T14:56:04.484Z</time></trkpt><trkpt lat="39.9231867" lon="9.52527"><ele>793.0</ele><time>2026-04-24T14:56:08.484Z</time></trkpt><trkpt lat="39.92322" lon="9.5254183"><ele>793.0</ele><time>2026-04-24T14:56:10.485Z</time></trkpt><trkpt lat="39.9232483" lon="9.5255667"><ele>793.5714285714287</ele><time>2026-04-24T14:56:12.485Z</time></trkpt><trkpt lat="39.923265" lon="9.5256483"><ele>794.1428571428571</ele><time>2026-04-24T14:56:13.484Z</time></trkpt><trkpt lat="39.9233117" lon="9.525795"><ele>794.7142857142858</ele><time>2026-04-24T14:56:15.485Z</time></trkpt><trkpt lat="39.9233517" lon="9.52586"><ele>795.2857142857143</ele><time>2026-04-24T14:56:16.485Z</time></trkpt><trkpt lat="39.9233933" lon="9.5259267"><ele>795.8571428571429</ele><time>2026-04-24T14:56:17.485Z</time></trkpt><trkpt lat="39.9234333" lon="9.5259917"><ele>796.4285714285714</ele><time>2026-04-24T14:56:18.484Z</time></trkpt><trkpt lat="39.9234767" lon="9.52606"><ele>797.0</ele><time>2026-04-24T14:56:19.485Z</time></trkpt><trkpt lat="39.9235183" lon="9.5261283"><ele>797.0000000000001</ele><time>2026-04-24T14:56:20.485Z</time></trkpt><trkpt lat="39.9235567" lon="9.5261983"><ele>797.0</ele><time>2026-04-24T14:56:21.485Z</time></trkpt><trkpt lat="39.923595" lon="9.5262667"><ele>797.0</ele><time>2026-04-24T14:56:22.485Z</time></trkpt><trkpt lat="39.9236467" lon="9.526395"><ele>797.0</ele><time>2026-04-24T14:56:24.484Z</time></trkpt><trkpt lat="39.9236883" lon="9.5264833"><ele>797.0000000000001</ele><time>2026-04-24T14:56:26.484Z</time></trkpt><trkpt lat="39.9236733" lon="9.52658"><ele>797.0</ele><time>2026-04-24T14:56:36.484Z</time></trkpt><trkpt lat="39.9235867" lon="9.526515"><ele>790.6</ele><time>2026-04-24T14:56:38.485Z</time></trkpt><trkpt lat="39.9234967" lon="9.52646"><ele>784.2</ele><time>2026-04-24T14:56:40.485Z</time></trkpt><trkpt lat="39.92342" lon="9.52642"><ele>777.8</ele><time>2026-04-24T14:56:42.485Z</time></trkpt><trkpt lat="39.9233567" lon="9.52638"><ele>771.4</ele><time>2026-04-24T14:56:44.485Z</time></trkpt><trkpt lat="39.923295" lon="9.5263433"><ele>765.0</ele><time>2026-04-24T14:56:47.484Z</time></trkpt><trkpt lat="39.92345" lon="9.5264533"><ele>765.0</ele><time>2026-04-24T14:56:59.485Z</time></trkpt><trkpt lat="39.9235433" lon="9.5265117"><ele>765.0</ele><time>2026-04-24T14:57:01.485Z</time></trkpt><trkpt lat="39.92365" lon="9.5265767"><ele>765.0</ele><time>2026-04-24T14:57:03.485Z</time></trkpt><trkpt lat="39.9237117" lon="9.526615"><ele>765.0</ele><time>2026-04-24T14:57:04.485Z</time></trkpt><trkpt lat="39.9237767" lon="9.5266567"><ele>765.0</ele><time>2026-04-24T14:57:05.485Z</time></trkpt><trkpt lat="39.92385" lon="9.5267033"><ele>765.0</ele><time>2026-04-24T14:57:06.485Z</time></trkpt><trkpt lat="39.9239233" lon="9.526735"><ele>765.0</ele><time>2026-04-24T14:57:07.484Z</time></trkpt><trkpt lat="39.9240033" lon="9.5267583"><ele>765.0</ele><time>2026-04-24T14:57:08.484Z</time></trkpt><trkpt lat="39.9241533" lon="9.5268233"><ele>765.0</ele><time>2026-04-24T14:57:10.485Z</time></trkpt><trkpt lat="39.924225" lon="9.526855"><ele>765.0</ele><time>2026-04-24T14:57:11.484Z</time></trkpt><trkpt lat="39.9242967" lon="9.5268867"><ele>765.0</ele><time>2026-04-24T14:57:12.485Z</time></trkpt><trkpt lat="39.9243683" lon="9.5269233"><ele>764.0</ele><time>2026-04-24T14:57:13.485Z</time></trkpt><trkpt lat="39.9244317" lon="9.5269617"><ele>763.0</ele><time>2026-04-24T14:57:14.484Z</time></trkpt><trkpt lat="39.924495" lon="9.52699"><ele>762.0</ele><time>2026-04-24T14:57:15.484Z</time></trkpt><trkpt lat="39.92457" lon="9.5270517"><ele>761.0</ele><time>2026-04-24T14:57:17.485Z</time></trkpt><trkpt lat="39.9245" lon="9.5270917"><ele>760.0</ele><time>2026-04-24T14:57:21.484Z</time></trkpt><trkpt lat="39.92441" lon="9.5270517"><ele>759.0</ele><time>2026-04-24T14:57:35.485Z</time></trkpt><trkpt lat="39.9242783" lon="9.5270117"><ele>760.2</ele><time>2026-04-24T14:58:39.484Z</time></trkpt><trkpt lat="39.9241283" lon="9.526975"><ele>761.4000000000001</ele><time>2026-04-24T14:58:45.485Z</time></trkpt><trkpt lat="39.9240217" lon="9.52696"><ele>762.6</ele><time>2026-04-24T14:58:47.485Z</time></trkpt><trkpt lat="39.9239583" lon="9.5269483"><ele>763.8</ele><time>2026-04-24T14:58:48.484Z</time></trkpt><trkpt lat="39.9238833" lon="9.526935"><ele>765.0</ele><time>2026-04-24T14:58:49.485Z</time></trkpt><trkpt lat="39.9237967" lon="9.5269233"><ele>765.0</ele><time>2026-04-24T14:58:50.484Z</time></trkpt><trkpt lat="39.9237083" lon="9.526915"><ele>765.0</ele><time>2026-04-24T14:58:51.485Z</time></trkpt><trkpt lat="39.923625" lon="9.5268983"><ele>765.0</ele><time>2026-04-24T14:58:52.484Z</time></trkpt><trkpt lat="39.9235417" lon="9.5268967"><ele>765.0</ele><time>2026-04-24T14:58:53.485Z</time></trkpt><trkpt lat="39.92346" lon="9.526895"><ele>765.0</ele><time>2026-04-24T14:58:54.483Z</time></trkpt><trkpt lat="39.92338" lon="9.5268833"><ele>765.0</ele><time>2026-04-24T14:58:55.484Z</time></trkpt><trkpt lat="39.9233033" lon="9.5268733"><ele>760.4</ele><time>2026-04-24T14:58:56.485Z</time></trkpt><trkpt lat="39.9232267" lon="9.5268733"><ele>755.8</ele><time>2026-04-24T14:58:57.484Z</time></trkpt><trkpt lat="39.92315" lon="9.526865"><ele>751.2</ele><time>2026-04-24T14:58:58.484Z</time></trkpt><trkpt lat="39.9230683" lon="9.5268667"><ele>746.6</ele><time>2026-04-24T14:58:59.485Z</time></trkpt><trkpt lat="39.9229917" lon="9.5268817"><ele>742.0</ele><time>2026-04-24T14:59:00.484Z</time></trkpt><trkpt lat="39.9228217" lon="9.526935"><ele>742.0</ele><time>2026-04-24T14:59:02.484Z</time></trkpt><trkpt lat="39.92274" lon="9.5269683"><ele>742.0</ele><time>2026-04-24T14:59:03.484Z</time></trkpt><trkpt lat="39.9226667" lon="9.5270067"><ele>742.0</ele><time>2026-04-24T14:59:04.485Z</time></trkpt><trkpt lat="39.9225967" lon="9.5270667"><ele>742.0</ele><time>2026-04-24T14:59:05.485Z</time></trkpt><trkpt lat="39.9225433" lon="9.527145"><ele>742.0</ele><time>2026-04-24T14:59:06.485Z</time></trkpt><trkpt lat="39.9225067" lon="9.5272317"><ele>742.0</ele><time>2026-04-24T14:59:07.485Z</time></trkpt><trkpt lat="39.92248" lon="9.5273183"><ele>735.8</ele><time>2026-04-24T14:59:08.485Z</time></trkpt><trkpt lat="39.922455" lon="9.5274067"><ele>729.6</ele><time>2026-04-24T14:59:09.485Z</time></trkpt><trkpt lat="39.92239" lon="9.5275367"><ele>723.4</ele><time>2026-04-24T14:59:11.484Z</time></trkpt><trkpt lat="39.9222917" lon="9.5276"><ele>717.1999999999999</ele><time>2026-04-24T14:59:13.484Z</time></trkpt><trkpt lat="39.9221817" lon="9.5275817"><ele>711.0</ele><time>2026-04-24T14:59:15.485Z</time></trkpt><trkpt lat="39.9221233" lon="9.5275333"><ele>711.0</ele><time>2026-04-24T14:59:16.484Z</time></trkpt><trkpt lat="39.9220633" lon="9.5274767"><ele>711.0</ele><time>2026-04-24T14:59:17.484Z</time></trkpt><trkpt lat="39.9219917" lon="9.5274267"><ele>711.0</ele><time>2026-04-24T14:59:18.484Z</time></trkpt><trkpt lat="39.9219183" lon="9.527385"><ele>711.0</ele><time>2026-04-24T14:59:19.485Z</time></trkpt><trkpt lat="39.92184" lon="9.527355"><ele>711.0</ele><time>2026-04-24T14:59:20.484Z</time></trkpt><trkpt lat="39.9217733" lon="9.527335"><ele>711.0</ele><time>2026-04-24T14:59:21.484Z</time></trkpt><trkpt lat="39.9216383" lon="9.5273067"><ele>710.8333333333334</ele><time>2026-04-24T14:59:23.484Z</time></trkpt><trkpt lat="39.9215683" lon="9.5272983"><ele>710.6666666666666</ele><time>2026-04-24T14:59:24.485Z</time></trkpt><trkpt lat="39.9214417" lon="9.5272733"><ele>710.5</ele><time>2026-04-24T14:59:26.485Z</time></trkpt><trkpt lat="39.92138" lon="9.5272533"><ele>710.3333333333333</ele><time>2026-04-24T14:59:27.485Z</time></trkpt><trkpt lat="39.9213033" lon="9.52723"><ele>710.1666666666666</ele><time>2026-04-24T14:59:28.485Z</time></trkpt><trkpt lat="39.9212433" lon="9.527205"><ele>710.0</ele><time>2026-04-24T14:59:29.484Z</time></trkpt><trkpt lat="39.92115" lon="9.5271283"><ele>710.0</ele><time>2026-04-24T14:59:31.484Z</time></trkpt><trkpt lat="39.92106" lon="9.527085"><ele>710.0</ele><time>2026-04-24T14:59:33.484Z</time></trkpt><trkpt lat="39.9209833" lon="9.5270883"><ele>710.0</ele><time>2026-04-24T14:59:35.484Z</time></trkpt><trkpt lat="39.92091" lon="9.5271"><ele>710.0</ele><time>2026-04-24T14:59:37.485Z</time></trkpt><trkpt lat="39.9208533" lon="9.5271833"><ele>710.0</ele><time>2026-04-24T14:59:40.485Z</time></trkpt><trkpt lat="39.9208117" lon="9.5272583"><ele>710.0</ele><time>2026-04-24T14:59:43.486Z</time></trkpt><trkpt lat="39.9206833" lon="9.5272383"><ele>711.0</ele><time>2026-04-24T14:59:47.485Z</time></trkpt><trkpt lat="39.9205933" lon="9.527205"><ele>712.0</ele><time>2026-04-24T14:59:54.486Z</time></trkpt><trkpt lat="39.9205217" lon="9.5271867"><ele>713.0</ele><time>2026-04-24T15:00:03.486Z</time></trkpt><trkpt lat="39.9204683" lon="9.5270917"><ele>714.0</ele><time>2026-04-24T15:00:05.485Z</time></trkpt><trkpt lat="39.9203583" lon="9.5268767"><ele>714.0</ele><time>2026-04-24T15:00:26.485Z</time></trkpt><trkpt lat="39.9203633" lon="9.5268967"><ele>714.0</ele><time>2026-04-24T15:03:45.485Z</time></trkpt><trkpt lat="39.920465" lon="9.5271017"><ele>714.0</ele><time>2026-04-24T15:03:49.486Z</time></trkpt><trkpt lat="39.9205" lon="9.5272367"><ele>714.0</ele><time>2026-04-24T15:03:51.486Z</time></trkpt><trkpt lat="39.920535" lon="9.5273817"><ele>714.0</ele><time>2026-04-24T15:03:53.485Z</time></trkpt><trkpt lat="39.9206" lon="9.5275017"><ele>713.0</ele><time>2026-04-24T15:03:55.486Z</time></trkpt><trkpt lat="39.9206917" lon="9.5275733"><ele>712.0</ele><time>2026-04-24T15:03:57.485Z</time></trkpt><trkpt lat="39.9208083" lon="9.5275867"><ele>711.0</ele><time>2026-04-24T15:03:59.485Z</time></trkpt><trkpt lat="39.9209333" lon="9.527595"><ele>710.0</ele><time>2026-04-24T15:04:01.486Z</time></trkpt><trkpt lat="39.9210383" lon="9.5276467"><ele>710.0</ele><time>2026-04-24T15:04:03.486Z</time></trkpt><trkpt lat="39.9211283" lon="9.5277183"><ele>710.0</ele><time>2026-04-24T15:04:05.486Z</time></trkpt><trkpt lat="39.9212183" lon="9.5278117"><ele>710.0</ele><time>2026-04-24T15:04:07.485Z</time></trkpt><trkpt lat="39.921345" lon="9.5278967"><ele>710.0</ele><time>2026-04-24T15:04:11.486Z</time></trkpt><trkpt lat="39.9214" lon="9.5279867"><ele>706.8</ele><time>2026-04-24T15:04:13.486Z</time></trkpt><trkpt lat="39.9213683" lon="9.5281033"><ele>703.6</ele><time>2026-04-24T15:04:15.486Z</time></trkpt><trkpt lat="39.9212667" lon="9.5281683"><ele>700.4000000000001</ele><time>2026-04-24T15:04:17.485Z</time></trkpt><trkpt lat="39.921165" lon="9.528185"><ele>697.2</ele><time>2026-04-24T15:04:19.485Z</time></trkpt><trkpt lat="39.921095" lon="9.528205"><ele>694.0</ele><time>2026-04-24T15:04:21.486Z</time></trkpt><trkpt lat="39.9210267" lon="9.5282217"><ele>694.0</ele><time>2026-04-24T15:04:26.485Z</time></trkpt><trkpt lat="39.9210117" lon="9.5283133"><ele>694.0</ele><time>2026-04-24T15:09:00.486Z</time></trkpt></trkseg></trk></gpx>